<?xml version="1.0" encoding="UTF-8"?>
<gpx xmlns="http://www.topografix.com/GPX/1/1"
     creator="GpsDump 4.90"
     version="1.1"
     xmlns:xsi="http://www.w3.org/2001/XMLSchema-instance"
     xsi:schemaLocation="http://www.topografix.com/GPX/1/1 http://www.topografix.com/GPX/1/1/gpx.xsd">
  <metadata>
    <link href="http://www.gethome.no/stein.sorensen/">
      <text>GPS dump for www.flightlog.org</text>
    </link>
    <time>2017-05-31T17:23:07Z</time>
    <bounds minlat="42.957433" minlon="-4.400083" maxlat="43.055500" maxlon="-4.222167"/>
  </metadata>
  <trk>
    <name>Track 001</name>
    <trkseg>
      <trkpt lat="43.046550" lon="-4.386050">
        <ele>2063.0</ele>
        <time>2017-05-24T13:36:45Z</time>
      </trkpt>
      <trkpt lat="43.046517" lon="-4.386000">
        <ele>2063.0</ele>
        <time>2017-05-24T13:36:46Z</time>
      </trkpt>
      <trkpt lat="43.046500" lon="-4.385967">
        <ele>2064.0</ele>
        <time>2017-05-24T13:36:47Z</time>
      </trkpt>
      <trkpt lat="43.046467" lon="-4.385900">
        <ele>2064.0</ele>
        <time>2017-05-24T13:36:48Z</time>
      </trkpt>
      <trkpt lat="43.046433" lon="-4.385833">
        <ele>2063.0</ele>
        <time>2017-05-24T13:36:49Z</time>
      </trkpt>
      <trkpt lat="43.046417" lon="-4.385733">
        <ele>2061.0</ele>
        <time>2017-05-24T13:36:50Z</time>
      </trkpt>
      <trkpt lat="43.046383" lon="-4.385633">
        <ele>2061.0</ele>
        <time>2017-05-24T13:36:51Z</time>
      </trkpt>
      <trkpt lat="43.046350" lon="-4.385550">
        <ele>2061.0</ele>
        <time>2017-05-24T13:36:52Z</time>
      </trkpt>
      <trkpt lat="43.046317" lon="-4.385467">
        <ele>2062.0</ele>
        <time>2017-05-24T13:36:53Z</time>
      </trkpt>
      <trkpt lat="43.046283" lon="-4.385400">
        <ele>2062.0</ele>
        <time>2017-05-24T13:36:54Z</time>
      </trkpt>
      <trkpt lat="43.046250" lon="-4.385333">
        <ele>2061.0</ele>
        <time>2017-05-24T13:36:55Z</time>
      </trkpt>
      <trkpt lat="43.046200" lon="-4.385250">
        <ele>2061.0</ele>
        <time>2017-05-24T13:36:56Z</time>
      </trkpt>
      <trkpt lat="43.046133" lon="-4.385200">
        <ele>2061.0</ele>
        <time>2017-05-24T13:36:57Z</time>
      </trkpt>
      <trkpt lat="43.046067" lon="-4.385167">
        <ele>2063.0</ele>
        <time>2017-05-24T13:36:58Z</time>
      </trkpt>
      <trkpt lat="43.046000" lon="-4.385183">
        <ele>2065.0</ele>
        <time>2017-05-24T13:36:59Z</time>
      </trkpt>
      <trkpt lat="43.045950" lon="-4.385250">
        <ele>2067.0</ele>
        <time>2017-05-24T13:37:00Z</time>
      </trkpt>
      <trkpt lat="43.045917" lon="-4.385300">
        <ele>2068.0</ele>
        <time>2017-05-24T13:37:01Z</time>
      </trkpt>
      <trkpt lat="43.045883" lon="-4.385350">
        <ele>2069.0</ele>
        <time>2017-05-24T13:37:02Z</time>
      </trkpt>
      <trkpt lat="43.045833" lon="-4.385400">
        <ele>2069.0</ele>
        <time>2017-05-24T13:37:03Z</time>
      </trkpt>
      <trkpt lat="43.045783" lon="-4.385467">
        <ele>2069.0</ele>
        <time>2017-05-24T13:37:04Z</time>
      </trkpt>
      <trkpt lat="43.045750" lon="-4.385567">
        <ele>2070.0</ele>
        <time>2017-05-24T13:37:05Z</time>
      </trkpt>
      <trkpt lat="43.045717" lon="-4.385683">
        <ele>2070.0</ele>
        <time>2017-05-24T13:37:06Z</time>
      </trkpt>
      <trkpt lat="43.045700" lon="-4.385800">
        <ele>2071.0</ele>
        <time>2017-05-24T13:37:07Z</time>
      </trkpt>
      <trkpt lat="43.045700" lon="-4.385933">
        <ele>2072.0</ele>
        <time>2017-05-24T13:37:08Z</time>
      </trkpt>
      <trkpt lat="43.045683" lon="-4.386050">
        <ele>2074.0</ele>
        <time>2017-05-24T13:37:09Z</time>
      </trkpt>
      <trkpt lat="43.045683" lon="-4.386167">
        <ele>2076.0</ele>
        <time>2017-05-24T13:37:10Z</time>
      </trkpt>
      <trkpt lat="43.045683" lon="-4.386300">
        <ele>2078.0</ele>
        <time>2017-05-24T13:37:11Z</time>
      </trkpt>
      <trkpt lat="43.045667" lon="-4.386417">
        <ele>2079.0</ele>
        <time>2017-05-24T13:37:12Z</time>
      </trkpt>
      <trkpt lat="43.045667" lon="-4.386533">
        <ele>2081.0</ele>
        <time>2017-05-24T13:37:13Z</time>
      </trkpt>
      <trkpt lat="43.045683" lon="-4.386633">
        <ele>2082.0</ele>
        <time>2017-05-24T13:37:14Z</time>
      </trkpt>
      <trkpt lat="43.045683" lon="-4.386750">
        <ele>2084.0</ele>
        <time>2017-05-24T13:37:15Z</time>
      </trkpt>
      <trkpt lat="43.045683" lon="-4.386883">
        <ele>2084.0</ele>
        <time>2017-05-24T13:37:16Z</time>
      </trkpt>
      <trkpt lat="43.045700" lon="-4.387000">
        <ele>2086.0</ele>
        <time>2017-05-24T13:37:17Z</time>
      </trkpt>
      <trkpt lat="43.045733" lon="-4.387133">
        <ele>2087.0</ele>
        <time>2017-05-24T13:37:18Z</time>
      </trkpt>
      <trkpt lat="43.045767" lon="-4.387233">
        <ele>2088.0</ele>
        <time>2017-05-24T13:37:19Z</time>
      </trkpt>
      <trkpt lat="43.045783" lon="-4.387350">
        <ele>2088.0</ele>
        <time>2017-05-24T13:37:20Z</time>
      </trkpt>
      <trkpt lat="43.045800" lon="-4.387467">
        <ele>2087.0</ele>
        <time>2017-05-24T13:37:21Z</time>
      </trkpt>
      <trkpt lat="43.045800" lon="-4.387600">
        <ele>2086.0</ele>
        <time>2017-05-24T13:37:22Z</time>
      </trkpt>
      <trkpt lat="43.045783" lon="-4.387733">
        <ele>2084.0</ele>
        <time>2017-05-24T13:37:23Z</time>
      </trkpt>
      <trkpt lat="43.045783" lon="-4.387867">
        <ele>2084.0</ele>
        <time>2017-05-24T13:37:24Z</time>
      </trkpt>
      <trkpt lat="43.045783" lon="-4.388000">
        <ele>2083.0</ele>
        <time>2017-05-24T13:37:25Z</time>
      </trkpt>
      <trkpt lat="43.045783" lon="-4.388117">
        <ele>2083.0</ele>
        <time>2017-05-24T13:37:26Z</time>
      </trkpt>
      <trkpt lat="43.045767" lon="-4.388217">
        <ele>2083.0</ele>
        <time>2017-05-24T13:37:27Z</time>
      </trkpt>
      <trkpt lat="43.045767" lon="-4.388317">
        <ele>2083.0</ele>
        <time>2017-05-24T13:37:28Z</time>
      </trkpt>
      <trkpt lat="43.045767" lon="-4.388417">
        <ele>2082.0</ele>
        <time>2017-05-24T13:37:29Z</time>
      </trkpt>
      <trkpt lat="43.045767" lon="-4.388533">
        <ele>2082.0</ele>
        <time>2017-05-24T13:37:30Z</time>
      </trkpt>
      <trkpt lat="43.045767" lon="-4.388650">
        <ele>2081.0</ele>
        <time>2017-05-24T13:37:31Z</time>
      </trkpt>
      <trkpt lat="43.045733" lon="-4.388783">
        <ele>2081.0</ele>
        <time>2017-05-24T13:37:32Z</time>
      </trkpt>
      <trkpt lat="43.045700" lon="-4.388883">
        <ele>2081.0</ele>
        <time>2017-05-24T13:37:33Z</time>
      </trkpt>
      <trkpt lat="43.045667" lon="-4.388967">
        <ele>2082.0</ele>
        <time>2017-05-24T13:37:34Z</time>
      </trkpt>
      <trkpt lat="43.045633" lon="-4.389067">
        <ele>2083.0</ele>
        <time>2017-05-24T13:37:35Z</time>
      </trkpt>
      <trkpt lat="43.045617" lon="-4.389167">
        <ele>2084.0</ele>
        <time>2017-05-24T13:37:36Z</time>
      </trkpt>
      <trkpt lat="43.045583" lon="-4.389267">
        <ele>2084.0</ele>
        <time>2017-05-24T13:37:37Z</time>
      </trkpt>
      <trkpt lat="43.045533" lon="-4.389367">
        <ele>2085.0</ele>
        <time>2017-05-24T13:37:38Z</time>
      </trkpt>
      <trkpt lat="43.045500" lon="-4.389467">
        <ele>2086.0</ele>
        <time>2017-05-24T13:37:39Z</time>
      </trkpt>
      <trkpt lat="43.045450" lon="-4.389550">
        <ele>2088.0</ele>
        <time>2017-05-24T13:37:40Z</time>
      </trkpt>
      <trkpt lat="43.045400" lon="-4.389633">
        <ele>2090.0</ele>
        <time>2017-05-24T13:37:41Z</time>
      </trkpt>
      <trkpt lat="43.045367" lon="-4.389717">
        <ele>2092.0</ele>
        <time>2017-05-24T13:37:42Z</time>
      </trkpt>
      <trkpt lat="43.045317" lon="-4.389783">
        <ele>2094.0</ele>
        <time>2017-05-24T13:37:43Z</time>
      </trkpt>
      <trkpt lat="43.045267" lon="-4.389850">
        <ele>2096.0</ele>
        <time>2017-05-24T13:37:44Z</time>
      </trkpt>
      <trkpt lat="43.045233" lon="-4.389933">
        <ele>2098.0</ele>
        <time>2017-05-24T13:37:45Z</time>
      </trkpt>
      <trkpt lat="43.045200" lon="-4.390000">
        <ele>2100.0</ele>
        <time>2017-05-24T13:37:46Z</time>
      </trkpt>
      <trkpt lat="43.045183" lon="-4.390067">
        <ele>2101.0</ele>
        <time>2017-05-24T13:37:47Z</time>
      </trkpt>
      <trkpt lat="43.045150" lon="-4.390150">
        <ele>2103.0</ele>
        <time>2017-05-24T13:37:48Z</time>
      </trkpt>
      <trkpt lat="43.045100" lon="-4.390217">
        <ele>2104.0</ele>
        <time>2017-05-24T13:37:49Z</time>
      </trkpt>
      <trkpt lat="43.045067" lon="-4.390267">
        <ele>2106.0</ele>
        <time>2017-05-24T13:37:50Z</time>
      </trkpt>
      <trkpt lat="43.045017" lon="-4.390317">
        <ele>2107.0</ele>
        <time>2017-05-24T13:37:51Z</time>
      </trkpt>
      <trkpt lat="43.044967" lon="-4.390367">
        <ele>2107.0</ele>
        <time>2017-05-24T13:37:52Z</time>
      </trkpt>
      <trkpt lat="43.044917" lon="-4.390417">
        <ele>2107.0</ele>
        <time>2017-05-24T13:37:53Z</time>
      </trkpt>
      <trkpt lat="43.044833" lon="-4.390433">
        <ele>2107.0</ele>
        <time>2017-05-24T13:37:54Z</time>
      </trkpt>
      <trkpt lat="43.044767" lon="-4.390433">
        <ele>2108.0</ele>
        <time>2017-05-24T13:37:55Z</time>
      </trkpt>
      <trkpt lat="43.044700" lon="-4.390400">
        <ele>2108.0</ele>
        <time>2017-05-24T13:37:56Z</time>
      </trkpt>
      <trkpt lat="43.044633" lon="-4.390333">
        <ele>2109.0</ele>
        <time>2017-05-24T13:37:57Z</time>
      </trkpt>
      <trkpt lat="43.044583" lon="-4.390250">
        <ele>2110.0</ele>
        <time>2017-05-24T13:37:58Z</time>
      </trkpt>
      <trkpt lat="43.044567" lon="-4.390117">
        <ele>2111.0</ele>
        <time>2017-05-24T13:37:59Z</time>
      </trkpt>
      <trkpt lat="43.044550" lon="-4.390000">
        <ele>2112.0</ele>
        <time>2017-05-24T13:38:00Z</time>
      </trkpt>
      <trkpt lat="43.044550" lon="-4.389883">
        <ele>2115.0</ele>
        <time>2017-05-24T13:38:01Z</time>
      </trkpt>
      <trkpt lat="43.044550" lon="-4.389800">
        <ele>2118.0</ele>
        <time>2017-05-24T13:38:02Z</time>
      </trkpt>
      <trkpt lat="43.044550" lon="-4.389733">
        <ele>2121.0</ele>
        <time>2017-05-24T13:38:03Z</time>
      </trkpt>
      <trkpt lat="43.044550" lon="-4.389667">
        <ele>2124.0</ele>
        <time>2017-05-24T13:38:04Z</time>
      </trkpt>
      <trkpt lat="43.044550" lon="-4.389617">
        <ele>2126.0</ele>
        <time>2017-05-24T13:38:05Z</time>
      </trkpt>
      <trkpt lat="43.044583" lon="-4.389567">
        <ele>2127.0</ele>
        <time>2017-05-24T13:38:06Z</time>
      </trkpt>
      <trkpt lat="43.044600" lon="-4.389500">
        <ele>2129.0</ele>
        <time>2017-05-24T13:38:07Z</time>
      </trkpt>
      <trkpt lat="43.044617" lon="-4.389433">
        <ele>2130.0</ele>
        <time>2017-05-24T13:38:08Z</time>
      </trkpt>
      <trkpt lat="43.044667" lon="-4.389367">
        <ele>2130.0</ele>
        <time>2017-05-24T13:38:09Z</time>
      </trkpt>
      <trkpt lat="43.044733" lon="-4.389317">
        <ele>2128.0</ele>
        <time>2017-05-24T13:38:10Z</time>
      </trkpt>
      <trkpt lat="43.044833" lon="-4.389283">
        <ele>2127.0</ele>
        <time>2017-05-24T13:38:11Z</time>
      </trkpt>
      <trkpt lat="43.044933" lon="-4.389283">
        <ele>2126.0</ele>
        <time>2017-05-24T13:38:12Z</time>
      </trkpt>
      <trkpt lat="43.045050" lon="-4.389317">
        <ele>2126.0</ele>
        <time>2017-05-24T13:38:13Z</time>
      </trkpt>
      <trkpt lat="43.045133" lon="-4.389383">
        <ele>2126.0</ele>
        <time>2017-05-24T13:38:14Z</time>
      </trkpt>
      <trkpt lat="43.045217" lon="-4.389467">
        <ele>2126.0</ele>
        <time>2017-05-24T13:38:15Z</time>
      </trkpt>
      <trkpt lat="43.045267" lon="-4.389583">
        <ele>2126.0</ele>
        <time>2017-05-24T13:38:16Z</time>
      </trkpt>
      <trkpt lat="43.045317" lon="-4.389700">
        <ele>2126.0</ele>
        <time>2017-05-24T13:38:17Z</time>
      </trkpt>
      <trkpt lat="43.045350" lon="-4.389833">
        <ele>2127.0</ele>
        <time>2017-05-24T13:38:18Z</time>
      </trkpt>
      <trkpt lat="43.045367" lon="-4.389967">
        <ele>2131.0</ele>
        <time>2017-05-24T13:38:19Z</time>
      </trkpt>
      <trkpt lat="43.045383" lon="-4.390067">
        <ele>2134.0</ele>
        <time>2017-05-24T13:38:20Z</time>
      </trkpt>
      <trkpt lat="43.045367" lon="-4.390133">
        <ele>2135.0</ele>
        <time>2017-05-24T13:38:21Z</time>
      </trkpt>
      <trkpt lat="43.045350" lon="-4.390217">
        <ele>2135.0</ele>
        <time>2017-05-24T13:38:22Z</time>
      </trkpt>
      <trkpt lat="43.045317" lon="-4.390300">
        <ele>2135.0</ele>
        <time>2017-05-24T13:38:23Z</time>
      </trkpt>
      <trkpt lat="43.045267" lon="-4.390400">
        <ele>2135.0</ele>
        <time>2017-05-24T13:38:24Z</time>
      </trkpt>
      <trkpt lat="43.045200" lon="-4.390500">
        <ele>2137.0</ele>
        <time>2017-05-24T13:38:25Z</time>
      </trkpt>
      <trkpt lat="43.045133" lon="-4.390567">
        <ele>2138.0</ele>
        <time>2017-05-24T13:38:26Z</time>
      </trkpt>
      <trkpt lat="43.045067" lon="-4.390617">
        <ele>2140.0</ele>
        <time>2017-05-24T13:38:27Z</time>
      </trkpt>
      <trkpt lat="43.045000" lon="-4.390650">
        <ele>2141.0</ele>
        <time>2017-05-24T13:38:28Z</time>
      </trkpt>
      <trkpt lat="43.044933" lon="-4.390683">
        <ele>2140.0</ele>
        <time>2017-05-24T13:38:29Z</time>
      </trkpt>
      <trkpt lat="43.044867" lon="-4.390717">
        <ele>2140.0</ele>
        <time>2017-05-24T13:38:30Z</time>
      </trkpt>
      <trkpt lat="43.044783" lon="-4.390750">
        <ele>2139.0</ele>
        <time>2017-05-24T13:38:31Z</time>
      </trkpt>
      <trkpt lat="43.044717" lon="-4.390817">
        <ele>2139.0</ele>
        <time>2017-05-24T13:38:32Z</time>
      </trkpt>
      <trkpt lat="43.044650" lon="-4.390883">
        <ele>2139.0</ele>
        <time>2017-05-24T13:38:33Z</time>
      </trkpt>
      <trkpt lat="43.044583" lon="-4.390983">
        <ele>2139.0</ele>
        <time>2017-05-24T13:38:34Z</time>
      </trkpt>
      <trkpt lat="43.044533" lon="-4.391067">
        <ele>2141.0</ele>
        <time>2017-05-24T13:38:35Z</time>
      </trkpt>
      <trkpt lat="43.044483" lon="-4.391167">
        <ele>2144.0</ele>
        <time>2017-05-24T13:38:36Z</time>
      </trkpt>
      <trkpt lat="43.044433" lon="-4.391233">
        <ele>2148.0</ele>
        <time>2017-05-24T13:38:37Z</time>
      </trkpt>
      <trkpt lat="43.044417" lon="-4.391300">
        <ele>2151.0</ele>
        <time>2017-05-24T13:38:38Z</time>
      </trkpt>
      <trkpt lat="43.044383" lon="-4.391367">
        <ele>2154.0</ele>
        <time>2017-05-24T13:38:39Z</time>
      </trkpt>
      <trkpt lat="43.044350" lon="-4.391417">
        <ele>2155.0</ele>
        <time>2017-05-24T13:38:40Z</time>
      </trkpt>
      <trkpt lat="43.044300" lon="-4.391483">
        <ele>2156.0</ele>
        <time>2017-05-24T13:38:41Z</time>
      </trkpt>
      <trkpt lat="43.044217" lon="-4.391517">
        <ele>2157.0</ele>
        <time>2017-05-24T13:38:42Z</time>
      </trkpt>
      <trkpt lat="43.044133" lon="-4.391517">
        <ele>2158.0</ele>
        <time>2017-05-24T13:38:43Z</time>
      </trkpt>
      <trkpt lat="43.044050" lon="-4.391467">
        <ele>2160.0</ele>
        <time>2017-05-24T13:38:44Z</time>
      </trkpt>
      <trkpt lat="43.044000" lon="-4.391400">
        <ele>2164.0</ele>
        <time>2017-05-24T13:38:45Z</time>
      </trkpt>
      <trkpt lat="43.043950" lon="-4.391333">
        <ele>2167.0</ele>
        <time>2017-05-24T13:38:46Z</time>
      </trkpt>
      <trkpt lat="43.043900" lon="-4.391283">
        <ele>2169.0</ele>
        <time>2017-05-24T13:38:47Z</time>
      </trkpt>
      <trkpt lat="43.043867" lon="-4.391217">
        <ele>2171.0</ele>
        <time>2017-05-24T13:38:48Z</time>
      </trkpt>
      <trkpt lat="43.043850" lon="-4.391150">
        <ele>2172.0</ele>
        <time>2017-05-24T13:38:49Z</time>
      </trkpt>
      <trkpt lat="43.043850" lon="-4.391050">
        <ele>2173.0</ele>
        <time>2017-05-24T13:38:50Z</time>
      </trkpt>
      <trkpt lat="43.043883" lon="-4.390950">
        <ele>2174.0</ele>
        <time>2017-05-24T13:38:51Z</time>
      </trkpt>
      <trkpt lat="43.043933" lon="-4.390883">
        <ele>2176.0</ele>
        <time>2017-05-24T13:38:52Z</time>
      </trkpt>
      <trkpt lat="43.043983" lon="-4.390817">
        <ele>2180.0</ele>
        <time>2017-05-24T13:38:53Z</time>
      </trkpt>
      <trkpt lat="43.044033" lon="-4.390783">
        <ele>2183.0</ele>
        <time>2017-05-24T13:38:54Z</time>
      </trkpt>
      <trkpt lat="43.044083" lon="-4.390750">
        <ele>2185.0</ele>
        <time>2017-05-24T13:38:55Z</time>
      </trkpt>
      <trkpt lat="43.044117" lon="-4.390717">
        <ele>2187.0</ele>
        <time>2017-05-24T13:38:56Z</time>
      </trkpt>
      <trkpt lat="43.044167" lon="-4.390683">
        <ele>2188.0</ele>
        <time>2017-05-24T13:38:57Z</time>
      </trkpt>
      <trkpt lat="43.044217" lon="-4.390650">
        <ele>2189.0</ele>
        <time>2017-05-24T13:38:58Z</time>
      </trkpt>
      <trkpt lat="43.044267" lon="-4.390617">
        <ele>2190.0</ele>
        <time>2017-05-24T13:38:59Z</time>
      </trkpt>
      <trkpt lat="43.044333" lon="-4.390617">
        <ele>2191.0</ele>
        <time>2017-05-24T13:39:00Z</time>
      </trkpt>
      <trkpt lat="43.044383" lon="-4.390650">
        <ele>2191.0</ele>
        <time>2017-05-24T13:39:01Z</time>
      </trkpt>
      <trkpt lat="43.044433" lon="-4.390683">
        <ele>2191.0</ele>
        <time>2017-05-24T13:39:02Z</time>
      </trkpt>
      <trkpt lat="43.044483" lon="-4.390767">
        <ele>2191.0</ele>
        <time>2017-05-24T13:39:03Z</time>
      </trkpt>
      <trkpt lat="43.044500" lon="-4.390867">
        <ele>2192.0</ele>
        <time>2017-05-24T13:39:04Z</time>
      </trkpt>
      <trkpt lat="43.044517" lon="-4.390950">
        <ele>2194.0</ele>
        <time>2017-05-24T13:39:05Z</time>
      </trkpt>
      <trkpt lat="43.044500" lon="-4.391033">
        <ele>2197.0</ele>
        <time>2017-05-24T13:39:06Z</time>
      </trkpt>
      <trkpt lat="43.044483" lon="-4.391117">
        <ele>2200.0</ele>
        <time>2017-05-24T13:39:07Z</time>
      </trkpt>
      <trkpt lat="43.044467" lon="-4.391183">
        <ele>2203.0</ele>
        <time>2017-05-24T13:39:08Z</time>
      </trkpt>
      <trkpt lat="43.044417" lon="-4.391250">
        <ele>2205.0</ele>
        <time>2017-05-24T13:39:09Z</time>
      </trkpt>
      <trkpt lat="43.044367" lon="-4.391317">
        <ele>2207.0</ele>
        <time>2017-05-24T13:39:10Z</time>
      </trkpt>
      <trkpt lat="43.044300" lon="-4.391367">
        <ele>2208.0</ele>
        <time>2017-05-24T13:39:11Z</time>
      </trkpt>
      <trkpt lat="43.044217" lon="-4.391400">
        <ele>2211.0</ele>
        <time>2017-05-24T13:39:12Z</time>
      </trkpt>
      <trkpt lat="43.044133" lon="-4.391400">
        <ele>2214.0</ele>
        <time>2017-05-24T13:39:13Z</time>
      </trkpt>
      <trkpt lat="43.044067" lon="-4.391383">
        <ele>2216.0</ele>
        <time>2017-05-24T13:39:14Z</time>
      </trkpt>
      <trkpt lat="43.043983" lon="-4.391350">
        <ele>2219.0</ele>
        <time>2017-05-24T13:39:15Z</time>
      </trkpt>
      <trkpt lat="43.043933" lon="-4.391283">
        <ele>2221.0</ele>
        <time>2017-05-24T13:39:16Z</time>
      </trkpt>
      <trkpt lat="43.043883" lon="-4.391183">
        <ele>2223.0</ele>
        <time>2017-05-24T13:39:17Z</time>
      </trkpt>
      <trkpt lat="43.043833" lon="-4.391100">
        <ele>2225.0</ele>
        <time>2017-05-24T13:39:18Z</time>
      </trkpt>
      <trkpt lat="43.043800" lon="-4.391000">
        <ele>2227.0</ele>
        <time>2017-05-24T13:39:19Z</time>
      </trkpt>
      <trkpt lat="43.043767" lon="-4.390900">
        <ele>2229.0</ele>
        <time>2017-05-24T13:39:20Z</time>
      </trkpt>
      <trkpt lat="43.043750" lon="-4.390800">
        <ele>2231.0</ele>
        <time>2017-05-24T13:39:21Z</time>
      </trkpt>
      <trkpt lat="43.043750" lon="-4.390717">
        <ele>2233.0</ele>
        <time>2017-05-24T13:39:22Z</time>
      </trkpt>
      <trkpt lat="43.043767" lon="-4.390633">
        <ele>2235.0</ele>
        <time>2017-05-24T13:39:23Z</time>
      </trkpt>
      <trkpt lat="43.043783" lon="-4.390567">
        <ele>2237.0</ele>
        <time>2017-05-24T13:39:24Z</time>
      </trkpt>
      <trkpt lat="43.043817" lon="-4.390500">
        <ele>2238.0</ele>
        <time>2017-05-24T13:39:25Z</time>
      </trkpt>
      <trkpt lat="43.043850" lon="-4.390433">
        <ele>2240.0</ele>
        <time>2017-05-24T13:39:26Z</time>
      </trkpt>
      <trkpt lat="43.043883" lon="-4.390383">
        <ele>2241.0</ele>
        <time>2017-05-24T13:39:27Z</time>
      </trkpt>
      <trkpt lat="43.043933" lon="-4.390350">
        <ele>2243.0</ele>
        <time>2017-05-24T13:39:28Z</time>
      </trkpt>
      <trkpt lat="43.043983" lon="-4.390317">
        <ele>2245.0</ele>
        <time>2017-05-24T13:39:29Z</time>
      </trkpt>
      <trkpt lat="43.044017" lon="-4.390283">
        <ele>2247.0</ele>
        <time>2017-05-24T13:39:30Z</time>
      </trkpt>
      <trkpt lat="43.044067" lon="-4.390250">
        <ele>2248.0</ele>
        <time>2017-05-24T13:39:31Z</time>
      </trkpt>
      <trkpt lat="43.044117" lon="-4.390233">
        <ele>2248.0</ele>
        <time>2017-05-24T13:39:32Z</time>
      </trkpt>
      <trkpt lat="43.044167" lon="-4.390217">
        <ele>2248.0</ele>
        <time>2017-05-24T13:39:33Z</time>
      </trkpt>
      <trkpt lat="43.044233" lon="-4.390233">
        <ele>2248.0</ele>
        <time>2017-05-24T13:39:34Z</time>
      </trkpt>
      <trkpt lat="43.044283" lon="-4.390250">
        <ele>2249.0</ele>
        <time>2017-05-24T13:39:35Z</time>
      </trkpt>
      <trkpt lat="43.044333" lon="-4.390250">
        <ele>2250.0</ele>
        <time>2017-05-24T13:39:36Z</time>
      </trkpt>
      <trkpt lat="43.044383" lon="-4.390267">
        <ele>2250.0</ele>
        <time>2017-05-24T13:39:37Z</time>
      </trkpt>
      <trkpt lat="43.044433" lon="-4.390283">
        <ele>2250.0</ele>
        <time>2017-05-24T13:39:38Z</time>
      </trkpt>
      <trkpt lat="43.044483" lon="-4.390300">
        <ele>2250.0</ele>
        <time>2017-05-24T13:39:39Z</time>
      </trkpt>
      <trkpt lat="43.044533" lon="-4.390333">
        <ele>2250.0</ele>
        <time>2017-05-24T13:39:40Z</time>
      </trkpt>
      <trkpt lat="43.044600" lon="-4.390333">
        <ele>2250.0</ele>
        <time>2017-05-24T13:39:41Z</time>
      </trkpt>
      <trkpt lat="43.044650" lon="-4.390317">
        <ele>2250.0</ele>
        <time>2017-05-24T13:39:42Z</time>
      </trkpt>
      <trkpt lat="43.044700" lon="-4.390283">
        <ele>2250.0</ele>
        <time>2017-05-24T13:39:43Z</time>
      </trkpt>
      <trkpt lat="43.044767" lon="-4.390233">
        <ele>2251.0</ele>
        <time>2017-05-24T13:39:44Z</time>
      </trkpt>
      <trkpt lat="43.044817" lon="-4.390167">
        <ele>2253.0</ele>
        <time>2017-05-24T13:39:45Z</time>
      </trkpt>
      <trkpt lat="43.044867" lon="-4.390117">
        <ele>2255.0</ele>
        <time>2017-05-24T13:39:46Z</time>
      </trkpt>
      <trkpt lat="43.044933" lon="-4.390083">
        <ele>2257.0</ele>
        <time>2017-05-24T13:39:47Z</time>
      </trkpt>
      <trkpt lat="43.044967" lon="-4.390050">
        <ele>2259.0</ele>
        <time>2017-05-24T13:39:48Z</time>
      </trkpt>
      <trkpt lat="43.045017" lon="-4.390000">
        <ele>2260.0</ele>
        <time>2017-05-24T13:39:49Z</time>
      </trkpt>
      <trkpt lat="43.045050" lon="-4.389933">
        <ele>2261.0</ele>
        <time>2017-05-24T13:39:50Z</time>
      </trkpt>
      <trkpt lat="43.045100" lon="-4.389867">
        <ele>2261.0</ele>
        <time>2017-05-24T13:39:51Z</time>
      </trkpt>
      <trkpt lat="43.045150" lon="-4.389817">
        <ele>2262.0</ele>
        <time>2017-05-24T13:39:52Z</time>
      </trkpt>
      <trkpt lat="43.045217" lon="-4.389767">
        <ele>2263.0</ele>
        <time>2017-05-24T13:39:53Z</time>
      </trkpt>
      <trkpt lat="43.045267" lon="-4.389700">
        <ele>2264.0</ele>
        <time>2017-05-24T13:39:54Z</time>
      </trkpt>
      <trkpt lat="43.045317" lon="-4.389633">
        <ele>2266.0</ele>
        <time>2017-05-24T13:39:55Z</time>
      </trkpt>
      <trkpt lat="43.045350" lon="-4.389583">
        <ele>2267.0</ele>
        <time>2017-05-24T13:39:56Z</time>
      </trkpt>
      <trkpt lat="43.045383" lon="-4.389517">
        <ele>2269.0</ele>
        <time>2017-05-24T13:39:57Z</time>
      </trkpt>
      <trkpt lat="43.045433" lon="-4.389467">
        <ele>2270.0</ele>
        <time>2017-05-24T13:39:58Z</time>
      </trkpt>
      <trkpt lat="43.045483" lon="-4.389433">
        <ele>2270.0</ele>
        <time>2017-05-24T13:39:59Z</time>
      </trkpt>
      <trkpt lat="43.045533" lon="-4.389383">
        <ele>2271.0</ele>
        <time>2017-05-24T13:40:00Z</time>
      </trkpt>
      <trkpt lat="43.045583" lon="-4.389317">
        <ele>2272.0</ele>
        <time>2017-05-24T13:40:01Z</time>
      </trkpt>
      <trkpt lat="43.045617" lon="-4.389250">
        <ele>2273.0</ele>
        <time>2017-05-24T13:40:02Z</time>
      </trkpt>
      <trkpt lat="43.045650" lon="-4.389183">
        <ele>2275.0</ele>
        <time>2017-05-24T13:40:03Z</time>
      </trkpt>
      <trkpt lat="43.045667" lon="-4.389133">
        <ele>2276.0</ele>
        <time>2017-05-24T13:40:04Z</time>
      </trkpt>
      <trkpt lat="43.045683" lon="-4.389083">
        <ele>2277.0</ele>
        <time>2017-05-24T13:40:05Z</time>
      </trkpt>
      <trkpt lat="43.045700" lon="-4.389017">
        <ele>2278.0</ele>
        <time>2017-05-24T13:40:06Z</time>
      </trkpt>
      <trkpt lat="43.045717" lon="-4.388933">
        <ele>2279.0</ele>
        <time>2017-05-24T13:40:07Z</time>
      </trkpt>
      <trkpt lat="43.045750" lon="-4.388850">
        <ele>2280.0</ele>
        <time>2017-05-24T13:40:08Z</time>
      </trkpt>
      <trkpt lat="43.045767" lon="-4.388783">
        <ele>2283.0</ele>
        <time>2017-05-24T13:40:09Z</time>
      </trkpt>
      <trkpt lat="43.045783" lon="-4.388733">
        <ele>2285.0</ele>
        <time>2017-05-24T13:40:10Z</time>
      </trkpt>
      <trkpt lat="43.045800" lon="-4.388683">
        <ele>2286.0</ele>
        <time>2017-05-24T13:40:11Z</time>
      </trkpt>
      <trkpt lat="43.045817" lon="-4.388650">
        <ele>2286.0</ele>
        <time>2017-05-24T13:40:12Z</time>
      </trkpt>
      <trkpt lat="43.045817" lon="-4.388583">
        <ele>2286.0</ele>
        <time>2017-05-24T13:40:13Z</time>
      </trkpt>
      <trkpt lat="43.045800" lon="-4.388500">
        <ele>2285.0</ele>
        <time>2017-05-24T13:40:14Z</time>
      </trkpt>
      <trkpt lat="43.045767" lon="-4.388433">
        <ele>2285.0</ele>
        <time>2017-05-24T13:40:15Z</time>
      </trkpt>
      <trkpt lat="43.045717" lon="-4.388400">
        <ele>2285.0</ele>
        <time>2017-05-24T13:40:16Z</time>
      </trkpt>
      <trkpt lat="43.045650" lon="-4.388367">
        <ele>2286.0</ele>
        <time>2017-05-24T13:40:17Z</time>
      </trkpt>
      <trkpt lat="43.045567" lon="-4.388383">
        <ele>2286.0</ele>
        <time>2017-05-24T13:40:18Z</time>
      </trkpt>
      <trkpt lat="43.045483" lon="-4.388417">
        <ele>2287.0</ele>
        <time>2017-05-24T13:40:19Z</time>
      </trkpt>
      <trkpt lat="43.045417" lon="-4.388483">
        <ele>2288.0</ele>
        <time>2017-05-24T13:40:20Z</time>
      </trkpt>
      <trkpt lat="43.045350" lon="-4.388567">
        <ele>2288.0</ele>
        <time>2017-05-24T13:40:21Z</time>
      </trkpt>
      <trkpt lat="43.045267" lon="-4.388667">
        <ele>2289.0</ele>
        <time>2017-05-24T13:40:22Z</time>
      </trkpt>
      <trkpt lat="43.045217" lon="-4.388783">
        <ele>2290.0</ele>
        <time>2017-05-24T13:40:23Z</time>
      </trkpt>
      <trkpt lat="43.045183" lon="-4.388933">
        <ele>2292.0</ele>
        <time>2017-05-24T13:40:24Z</time>
      </trkpt>
      <trkpt lat="43.045167" lon="-4.389067">
        <ele>2294.0</ele>
        <time>2017-05-24T13:40:25Z</time>
      </trkpt>
      <trkpt lat="43.045167" lon="-4.389217">
        <ele>2296.0</ele>
        <time>2017-05-24T13:40:26Z</time>
      </trkpt>
      <trkpt lat="43.045167" lon="-4.389350">
        <ele>2298.0</ele>
        <time>2017-05-24T13:40:27Z</time>
      </trkpt>
      <trkpt lat="43.045167" lon="-4.389500">
        <ele>2299.0</ele>
        <time>2017-05-24T13:40:28Z</time>
      </trkpt>
      <trkpt lat="43.045200" lon="-4.389633">
        <ele>2301.0</ele>
        <time>2017-05-24T13:40:29Z</time>
      </trkpt>
      <trkpt lat="43.045267" lon="-4.389733">
        <ele>2303.0</ele>
        <time>2017-05-24T13:40:30Z</time>
      </trkpt>
      <trkpt lat="43.045333" lon="-4.389783">
        <ele>2304.0</ele>
        <time>2017-05-24T13:40:31Z</time>
      </trkpt>
      <trkpt lat="43.045433" lon="-4.389783">
        <ele>2305.0</ele>
        <time>2017-05-24T13:40:32Z</time>
      </trkpt>
      <trkpt lat="43.045500" lon="-4.389750">
        <ele>2306.0</ele>
        <time>2017-05-24T13:40:33Z</time>
      </trkpt>
      <trkpt lat="43.045567" lon="-4.389700">
        <ele>2309.0</ele>
        <time>2017-05-24T13:40:34Z</time>
      </trkpt>
      <trkpt lat="43.045617" lon="-4.389683">
        <ele>2313.0</ele>
        <time>2017-05-24T13:40:35Z</time>
      </trkpt>
      <trkpt lat="43.045650" lon="-4.389667">
        <ele>2316.0</ele>
        <time>2017-05-24T13:40:36Z</time>
      </trkpt>
      <trkpt lat="43.045683" lon="-4.389650">
        <ele>2318.0</ele>
        <time>2017-05-24T13:40:37Z</time>
      </trkpt>
      <trkpt lat="43.045717" lon="-4.389617">
        <ele>2318.0</ele>
        <time>2017-05-24T13:40:38Z</time>
      </trkpt>
      <trkpt lat="43.045733" lon="-4.389533">
        <ele>2317.0</ele>
        <time>2017-05-24T13:40:39Z</time>
      </trkpt>
      <trkpt lat="43.045733" lon="-4.389417">
        <ele>2318.0</ele>
        <time>2017-05-24T13:40:40Z</time>
      </trkpt>
      <trkpt lat="43.045717" lon="-4.389317">
        <ele>2319.0</ele>
        <time>2017-05-24T13:40:41Z</time>
      </trkpt>
      <trkpt lat="43.045683" lon="-4.389200">
        <ele>2322.0</ele>
        <time>2017-05-24T13:40:42Z</time>
      </trkpt>
      <trkpt lat="43.045633" lon="-4.389117">
        <ele>2325.0</ele>
        <time>2017-05-24T13:40:43Z</time>
      </trkpt>
      <trkpt lat="43.045617" lon="-4.389050">
        <ele>2328.0</ele>
        <time>2017-05-24T13:40:44Z</time>
      </trkpt>
      <trkpt lat="43.045600" lon="-4.388983">
        <ele>2329.0</ele>
        <time>2017-05-24T13:40:45Z</time>
      </trkpt>
      <trkpt lat="43.045583" lon="-4.388917">
        <ele>2331.0</ele>
        <time>2017-05-24T13:40:46Z</time>
      </trkpt>
      <trkpt lat="43.045533" lon="-4.388850">
        <ele>2332.0</ele>
        <time>2017-05-24T13:40:47Z</time>
      </trkpt>
      <trkpt lat="43.045467" lon="-4.388783">
        <ele>2334.0</ele>
        <time>2017-05-24T13:40:48Z</time>
      </trkpt>
      <trkpt lat="43.045383" lon="-4.388767">
        <ele>2337.0</ele>
        <time>2017-05-24T13:40:49Z</time>
      </trkpt>
      <trkpt lat="43.045317" lon="-4.388800">
        <ele>2339.0</ele>
        <time>2017-05-24T13:40:50Z</time>
      </trkpt>
      <trkpt lat="43.045250" lon="-4.388867">
        <ele>2342.0</ele>
        <time>2017-05-24T13:40:51Z</time>
      </trkpt>
      <trkpt lat="43.045200" lon="-4.388933">
        <ele>2344.0</ele>
        <time>2017-05-24T13:40:52Z</time>
      </trkpt>
      <trkpt lat="43.045133" lon="-4.389017">
        <ele>2345.0</ele>
        <time>2017-05-24T13:40:53Z</time>
      </trkpt>
      <trkpt lat="43.045100" lon="-4.389100">
        <ele>2347.0</ele>
        <time>2017-05-24T13:40:54Z</time>
      </trkpt>
      <trkpt lat="43.045067" lon="-4.389217">
        <ele>2350.0</ele>
        <time>2017-05-24T13:40:55Z</time>
      </trkpt>
      <trkpt lat="43.045050" lon="-4.389317">
        <ele>2352.0</ele>
        <time>2017-05-24T13:40:56Z</time>
      </trkpt>
      <trkpt lat="43.045083" lon="-4.389433">
        <ele>2354.0</ele>
        <time>2017-05-24T13:40:57Z</time>
      </trkpt>
      <trkpt lat="43.045133" lon="-4.389517">
        <ele>2356.0</ele>
        <time>2017-05-24T13:40:58Z</time>
      </trkpt>
      <trkpt lat="43.045200" lon="-4.389550">
        <ele>2359.0</ele>
        <time>2017-05-24T13:40:59Z</time>
      </trkpt>
      <trkpt lat="43.045250" lon="-4.389567">
        <ele>2362.0</ele>
        <time>2017-05-24T13:41:00Z</time>
      </trkpt>
      <trkpt lat="43.045283" lon="-4.389550">
        <ele>2364.0</ele>
        <time>2017-05-24T13:41:01Z</time>
      </trkpt>
      <trkpt lat="43.045317" lon="-4.389500">
        <ele>2366.0</ele>
        <time>2017-05-24T13:41:02Z</time>
      </trkpt>
      <trkpt lat="43.045333" lon="-4.389450">
        <ele>2368.0</ele>
        <time>2017-05-24T13:41:03Z</time>
      </trkpt>
      <trkpt lat="43.045367" lon="-4.389400">
        <ele>2369.0</ele>
        <time>2017-05-24T13:41:04Z</time>
      </trkpt>
      <trkpt lat="43.045417" lon="-4.389317">
        <ele>2370.0</ele>
        <time>2017-05-24T13:41:05Z</time>
      </trkpt>
      <trkpt lat="43.045467" lon="-4.389233">
        <ele>2372.0</ele>
        <time>2017-05-24T13:41:06Z</time>
      </trkpt>
      <trkpt lat="43.045500" lon="-4.389150">
        <ele>2375.0</ele>
        <time>2017-05-24T13:41:07Z</time>
      </trkpt>
      <trkpt lat="43.045533" lon="-4.389083">
        <ele>2379.0</ele>
        <time>2017-05-24T13:41:08Z</time>
      </trkpt>
      <trkpt lat="43.045567" lon="-4.389000">
        <ele>2382.0</ele>
        <time>2017-05-24T13:41:09Z</time>
      </trkpt>
      <trkpt lat="43.045583" lon="-4.388933">
        <ele>2385.0</ele>
        <time>2017-05-24T13:41:10Z</time>
      </trkpt>
      <trkpt lat="43.045600" lon="-4.388867">
        <ele>2388.0</ele>
        <time>2017-05-24T13:41:11Z</time>
      </trkpt>
      <trkpt lat="43.045633" lon="-4.388783">
        <ele>2389.0</ele>
        <time>2017-05-24T13:41:12Z</time>
      </trkpt>
      <trkpt lat="43.045633" lon="-4.388683">
        <ele>2391.0</ele>
        <time>2017-05-24T13:41:13Z</time>
      </trkpt>
      <trkpt lat="43.045617" lon="-4.388583">
        <ele>2392.0</ele>
        <time>2017-05-24T13:41:14Z</time>
      </trkpt>
      <trkpt lat="43.045567" lon="-4.388483">
        <ele>2394.0</ele>
        <time>2017-05-24T13:41:15Z</time>
      </trkpt>
      <trkpt lat="43.045500" lon="-4.388417">
        <ele>2396.0</ele>
        <time>2017-05-24T13:41:16Z</time>
      </trkpt>
      <trkpt lat="43.045433" lon="-4.388383">
        <ele>2399.0</ele>
        <time>2017-05-24T13:41:17Z</time>
      </trkpt>
      <trkpt lat="43.045367" lon="-4.388333">
        <ele>2402.0</ele>
        <time>2017-05-24T13:41:18Z</time>
      </trkpt>
      <trkpt lat="43.045317" lon="-4.388300">
        <ele>2404.0</ele>
        <time>2017-05-24T13:41:19Z</time>
      </trkpt>
      <trkpt lat="43.045250" lon="-4.388233">
        <ele>2406.0</ele>
        <time>2017-05-24T13:41:20Z</time>
      </trkpt>
      <trkpt lat="43.045183" lon="-4.388200">
        <ele>2407.0</ele>
        <time>2017-05-24T13:41:21Z</time>
      </trkpt>
      <trkpt lat="43.045100" lon="-4.388167">
        <ele>2408.0</ele>
        <time>2017-05-24T13:41:22Z</time>
      </trkpt>
      <trkpt lat="43.045017" lon="-4.388167">
        <ele>2409.0</ele>
        <time>2017-05-24T13:41:23Z</time>
      </trkpt>
      <trkpt lat="43.044950" lon="-4.388183">
        <ele>2411.0</ele>
        <time>2017-05-24T13:41:24Z</time>
      </trkpt>
      <trkpt lat="43.044883" lon="-4.388233">
        <ele>2413.0</ele>
        <time>2017-05-24T13:41:25Z</time>
      </trkpt>
      <trkpt lat="43.044850" lon="-4.388300">
        <ele>2413.0</ele>
        <time>2017-05-24T13:41:26Z</time>
      </trkpt>
      <trkpt lat="43.044817" lon="-4.388400">
        <ele>2413.0</ele>
        <time>2017-05-24T13:41:27Z</time>
      </trkpt>
      <trkpt lat="43.044800" lon="-4.388500">
        <ele>2413.0</ele>
        <time>2017-05-24T13:41:28Z</time>
      </trkpt>
      <trkpt lat="43.044800" lon="-4.388617">
        <ele>2414.0</ele>
        <time>2017-05-24T13:41:29Z</time>
      </trkpt>
      <trkpt lat="43.044817" lon="-4.388733">
        <ele>2414.0</ele>
        <time>2017-05-24T13:41:30Z</time>
      </trkpt>
      <trkpt lat="43.044850" lon="-4.388833">
        <ele>2415.0</ele>
        <time>2017-05-24T13:41:31Z</time>
      </trkpt>
      <trkpt lat="43.044933" lon="-4.388950">
        <ele>2416.0</ele>
        <time>2017-05-24T13:41:32Z</time>
      </trkpt>
      <trkpt lat="43.045000" lon="-4.389033">
        <ele>2419.0</ele>
        <time>2017-05-24T13:41:33Z</time>
      </trkpt>
      <trkpt lat="43.045083" lon="-4.389117">
        <ele>2422.0</ele>
        <time>2017-05-24T13:41:34Z</time>
      </trkpt>
      <trkpt lat="43.045150" lon="-4.389200">
        <ele>2426.0</ele>
        <time>2017-05-24T13:41:35Z</time>
      </trkpt>
      <trkpt lat="43.045217" lon="-4.389250">
        <ele>2431.0</ele>
        <time>2017-05-24T13:41:36Z</time>
      </trkpt>
      <trkpt lat="43.045283" lon="-4.389317">
        <ele>2435.0</ele>
        <time>2017-05-24T13:41:37Z</time>
      </trkpt>
      <trkpt lat="43.045317" lon="-4.389383">
        <ele>2438.0</ele>
        <time>2017-05-24T13:41:38Z</time>
      </trkpt>
      <trkpt lat="43.045367" lon="-4.389467">
        <ele>2440.0</ele>
        <time>2017-05-24T13:41:39Z</time>
      </trkpt>
      <trkpt lat="43.045383" lon="-4.389583">
        <ele>2442.0</ele>
        <time>2017-05-24T13:41:40Z</time>
      </trkpt>
      <trkpt lat="43.045367" lon="-4.389700">
        <ele>2444.0</ele>
        <time>2017-05-24T13:41:41Z</time>
      </trkpt>
      <trkpt lat="43.045317" lon="-4.389800">
        <ele>2445.0</ele>
        <time>2017-05-24T13:41:42Z</time>
      </trkpt>
      <trkpt lat="43.045250" lon="-4.389883">
        <ele>2446.0</ele>
        <time>2017-05-24T13:41:43Z</time>
      </trkpt>
      <trkpt lat="43.045150" lon="-4.389933">
        <ele>2447.0</ele>
        <time>2017-05-24T13:41:44Z</time>
      </trkpt>
      <trkpt lat="43.045033" lon="-4.389933">
        <ele>2449.0</ele>
        <time>2017-05-24T13:41:45Z</time>
      </trkpt>
      <trkpt lat="43.044933" lon="-4.389883">
        <ele>2452.0</ele>
        <time>2017-05-24T13:41:46Z</time>
      </trkpt>
      <trkpt lat="43.044867" lon="-4.389817">
        <ele>2454.0</ele>
        <time>2017-05-24T13:41:47Z</time>
      </trkpt>
      <trkpt lat="43.044817" lon="-4.389733">
        <ele>2456.0</ele>
        <time>2017-05-24T13:41:48Z</time>
      </trkpt>
      <trkpt lat="43.044767" lon="-4.389633">
        <ele>2458.0</ele>
        <time>2017-05-24T13:41:49Z</time>
      </trkpt>
      <trkpt lat="43.044717" lon="-4.389533">
        <ele>2461.0</ele>
        <time>2017-05-24T13:41:50Z</time>
      </trkpt>
      <trkpt lat="43.044683" lon="-4.389417">
        <ele>2465.0</ele>
        <time>2017-05-24T13:41:51Z</time>
      </trkpt>
      <trkpt lat="43.044650" lon="-4.389317">
        <ele>2469.0</ele>
        <time>2017-05-24T13:41:52Z</time>
      </trkpt>
      <trkpt lat="43.044650" lon="-4.389217">
        <ele>2473.0</ele>
        <time>2017-05-24T13:41:53Z</time>
      </trkpt>
      <trkpt lat="43.044633" lon="-4.389150">
        <ele>2477.0</ele>
        <time>2017-05-24T13:41:54Z</time>
      </trkpt>
      <trkpt lat="43.044650" lon="-4.389067">
        <ele>2479.0</ele>
        <time>2017-05-24T13:41:55Z</time>
      </trkpt>
      <trkpt lat="43.044667" lon="-4.388983">
        <ele>2480.0</ele>
        <time>2017-05-24T13:41:56Z</time>
      </trkpt>
      <trkpt lat="43.044700" lon="-4.388900">
        <ele>2480.0</ele>
        <time>2017-05-24T13:41:57Z</time>
      </trkpt>
      <trkpt lat="43.044767" lon="-4.388817">
        <ele>2481.0</ele>
        <time>2017-05-24T13:41:58Z</time>
      </trkpt>
      <trkpt lat="43.044850" lon="-4.388783">
        <ele>2482.0</ele>
        <time>2017-05-24T13:41:59Z</time>
      </trkpt>
      <trkpt lat="43.044917" lon="-4.388767">
        <ele>2484.0</ele>
        <time>2017-05-24T13:42:00Z</time>
      </trkpt>
      <trkpt lat="43.045000" lon="-4.388767">
        <ele>2488.0</ele>
        <time>2017-05-24T13:42:01Z</time>
      </trkpt>
      <trkpt lat="43.045067" lon="-4.388767">
        <ele>2491.0</ele>
        <time>2017-05-24T13:42:02Z</time>
      </trkpt>
      <trkpt lat="43.045133" lon="-4.388767">
        <ele>2495.0</ele>
        <time>2017-05-24T13:42:03Z</time>
      </trkpt>
      <trkpt lat="43.045200" lon="-4.388750">
        <ele>2498.0</ele>
        <time>2017-05-24T13:42:04Z</time>
      </trkpt>
      <trkpt lat="43.045283" lon="-4.388767">
        <ele>2501.0</ele>
        <time>2017-05-24T13:42:05Z</time>
      </trkpt>
      <trkpt lat="43.045350" lon="-4.388783">
        <ele>2504.0</ele>
        <time>2017-05-24T13:42:06Z</time>
      </trkpt>
      <trkpt lat="43.045417" lon="-4.388817">
        <ele>2507.0</ele>
        <time>2017-05-24T13:42:07Z</time>
      </trkpt>
      <trkpt lat="43.045467" lon="-4.388867">
        <ele>2509.0</ele>
        <time>2017-05-24T13:42:08Z</time>
      </trkpt>
      <trkpt lat="43.045517" lon="-4.388933">
        <ele>2511.0</ele>
        <time>2017-05-24T13:42:09Z</time>
      </trkpt>
      <trkpt lat="43.045550" lon="-4.389017">
        <ele>2512.0</ele>
        <time>2017-05-24T13:42:10Z</time>
      </trkpt>
      <trkpt lat="43.045567" lon="-4.389133">
        <ele>2512.0</ele>
        <time>2017-05-24T13:42:11Z</time>
      </trkpt>
      <trkpt lat="43.045550" lon="-4.389250">
        <ele>2513.0</ele>
        <time>2017-05-24T13:42:12Z</time>
      </trkpt>
      <trkpt lat="43.045517" lon="-4.389367">
        <ele>2516.0</ele>
        <time>2017-05-24T13:42:13Z</time>
      </trkpt>
      <trkpt lat="43.045450" lon="-4.389433">
        <ele>2520.0</ele>
        <time>2017-05-24T13:42:14Z</time>
      </trkpt>
      <trkpt lat="43.045383" lon="-4.389467">
        <ele>2522.0</ele>
        <time>2017-05-24T13:42:15Z</time>
      </trkpt>
      <trkpt lat="43.045317" lon="-4.389483">
        <ele>2525.0</ele>
        <time>2017-05-24T13:42:16Z</time>
      </trkpt>
      <trkpt lat="43.045233" lon="-4.389450">
        <ele>2527.0</ele>
        <time>2017-05-24T13:42:17Z</time>
      </trkpt>
      <trkpt lat="43.045167" lon="-4.389367">
        <ele>2529.0</ele>
        <time>2017-05-24T13:42:18Z</time>
      </trkpt>
      <trkpt lat="43.045100" lon="-4.389250">
        <ele>2531.0</ele>
        <time>2017-05-24T13:42:19Z</time>
      </trkpt>
      <trkpt lat="43.045067" lon="-4.389133">
        <ele>2534.0</ele>
        <time>2017-05-24T13:42:20Z</time>
      </trkpt>
      <trkpt lat="43.045050" lon="-4.389033">
        <ele>2538.0</ele>
        <time>2017-05-24T13:42:21Z</time>
      </trkpt>
      <trkpt lat="43.045033" lon="-4.388933">
        <ele>2541.0</ele>
        <time>2017-05-24T13:42:22Z</time>
      </trkpt>
      <trkpt lat="43.045033" lon="-4.388833">
        <ele>2544.0</ele>
        <time>2017-05-24T13:42:23Z</time>
      </trkpt>
      <trkpt lat="43.045050" lon="-4.388767">
        <ele>2547.0</ele>
        <time>2017-05-24T13:42:24Z</time>
      </trkpt>
      <trkpt lat="43.045067" lon="-4.388683">
        <ele>2550.0</ele>
        <time>2017-05-24T13:42:25Z</time>
      </trkpt>
      <trkpt lat="43.045100" lon="-4.388600">
        <ele>2552.0</ele>
        <time>2017-05-24T13:42:26Z</time>
      </trkpt>
      <trkpt lat="43.045150" lon="-4.388533">
        <ele>2554.0</ele>
        <time>2017-05-24T13:42:27Z</time>
      </trkpt>
      <trkpt lat="43.045200" lon="-4.388500">
        <ele>2556.0</ele>
        <time>2017-05-24T13:42:28Z</time>
      </trkpt>
      <trkpt lat="43.045283" lon="-4.388500">
        <ele>2557.0</ele>
        <time>2017-05-24T13:42:29Z</time>
      </trkpt>
      <trkpt lat="43.045350" lon="-4.388550">
        <ele>2558.0</ele>
        <time>2017-05-24T13:42:30Z</time>
      </trkpt>
      <trkpt lat="43.045417" lon="-4.388617">
        <ele>2560.0</ele>
        <time>2017-05-24T13:42:31Z</time>
      </trkpt>
      <trkpt lat="43.045467" lon="-4.388700">
        <ele>2561.0</ele>
        <time>2017-05-24T13:42:32Z</time>
      </trkpt>
      <trkpt lat="43.045500" lon="-4.388783">
        <ele>2563.0</ele>
        <time>2017-05-24T13:42:33Z</time>
      </trkpt>
      <trkpt lat="43.045533" lon="-4.388883">
        <ele>2566.0</ele>
        <time>2017-05-24T13:42:34Z</time>
      </trkpt>
      <trkpt lat="43.045550" lon="-4.388967">
        <ele>2568.0</ele>
        <time>2017-05-24T13:42:35Z</time>
      </trkpt>
      <trkpt lat="43.045550" lon="-4.389067">
        <ele>2570.0</ele>
        <time>2017-05-24T13:42:36Z</time>
      </trkpt>
      <trkpt lat="43.045550" lon="-4.389167">
        <ele>2572.0</ele>
        <time>2017-05-24T13:42:37Z</time>
      </trkpt>
      <trkpt lat="43.045517" lon="-4.389267">
        <ele>2573.0</ele>
        <time>2017-05-24T13:42:38Z</time>
      </trkpt>
      <trkpt lat="43.045500" lon="-4.389350">
        <ele>2576.0</ele>
        <time>2017-05-24T13:42:39Z</time>
      </trkpt>
      <trkpt lat="43.045450" lon="-4.389433">
        <ele>2579.0</ele>
        <time>2017-05-24T13:42:40Z</time>
      </trkpt>
      <trkpt lat="43.045400" lon="-4.389517">
        <ele>2581.0</ele>
        <time>2017-05-24T13:42:41Z</time>
      </trkpt>
      <trkpt lat="43.045333" lon="-4.389583">
        <ele>2584.0</ele>
        <time>2017-05-24T13:42:42Z</time>
      </trkpt>
      <trkpt lat="43.045250" lon="-4.389633">
        <ele>2588.0</ele>
        <time>2017-05-24T13:42:43Z</time>
      </trkpt>
      <trkpt lat="43.045167" lon="-4.389650">
        <ele>2591.0</ele>
        <time>2017-05-24T13:42:44Z</time>
      </trkpt>
      <trkpt lat="43.045100" lon="-4.389667">
        <ele>2594.0</ele>
        <time>2017-05-24T13:42:45Z</time>
      </trkpt>
      <trkpt lat="43.045017" lon="-4.389683">
        <ele>2596.0</ele>
        <time>2017-05-24T13:42:46Z</time>
      </trkpt>
      <trkpt lat="43.044933" lon="-4.389700">
        <ele>2597.0</ele>
        <time>2017-05-24T13:42:47Z</time>
      </trkpt>
      <trkpt lat="43.044817" lon="-4.389683">
        <ele>2598.0</ele>
        <time>2017-05-24T13:42:48Z</time>
      </trkpt>
      <trkpt lat="43.044717" lon="-4.389617">
        <ele>2599.0</ele>
        <time>2017-05-24T13:42:49Z</time>
      </trkpt>
      <trkpt lat="43.044633" lon="-4.389533">
        <ele>2601.0</ele>
        <time>2017-05-24T13:42:50Z</time>
      </trkpt>
      <trkpt lat="43.044567" lon="-4.389417">
        <ele>2604.0</ele>
        <time>2017-05-24T13:42:51Z</time>
      </trkpt>
      <trkpt lat="43.044517" lon="-4.389317">
        <ele>2607.0</ele>
        <time>2017-05-24T13:42:52Z</time>
      </trkpt>
      <trkpt lat="43.044467" lon="-4.389217">
        <ele>2611.0</ele>
        <time>2017-05-24T13:42:53Z</time>
      </trkpt>
      <trkpt lat="43.044433" lon="-4.389117">
        <ele>2614.0</ele>
        <time>2017-05-24T13:42:54Z</time>
      </trkpt>
      <trkpt lat="43.044400" lon="-4.389000">
        <ele>2616.0</ele>
        <time>2017-05-24T13:42:55Z</time>
      </trkpt>
      <trkpt lat="43.044367" lon="-4.388883">
        <ele>2617.0</ele>
        <time>2017-05-24T13:42:56Z</time>
      </trkpt>
      <trkpt lat="43.044367" lon="-4.388767">
        <ele>2619.0</ele>
        <time>2017-05-24T13:42:57Z</time>
      </trkpt>
      <trkpt lat="43.044350" lon="-4.388667">
        <ele>2620.0</ele>
        <time>2017-05-24T13:42:58Z</time>
      </trkpt>
      <trkpt lat="43.044333" lon="-4.388567">
        <ele>2622.0</ele>
        <time>2017-05-24T13:42:59Z</time>
      </trkpt>
      <trkpt lat="43.044317" lon="-4.388467">
        <ele>2623.0</ele>
        <time>2017-05-24T13:43:00Z</time>
      </trkpt>
      <trkpt lat="43.044317" lon="-4.388367">
        <ele>2623.0</ele>
        <time>2017-05-24T13:43:01Z</time>
      </trkpt>
      <trkpt lat="43.044317" lon="-4.388283">
        <ele>2623.0</ele>
        <time>2017-05-24T13:43:02Z</time>
      </trkpt>
      <trkpt lat="43.044350" lon="-4.388183">
        <ele>2623.0</ele>
        <time>2017-05-24T13:43:03Z</time>
      </trkpt>
      <trkpt lat="43.044383" lon="-4.388100">
        <ele>2623.0</ele>
        <time>2017-05-24T13:43:04Z</time>
      </trkpt>
      <trkpt lat="43.044433" lon="-4.388017">
        <ele>2622.0</ele>
        <time>2017-05-24T13:43:05Z</time>
      </trkpt>
      <trkpt lat="43.044500" lon="-4.387933">
        <ele>2623.0</ele>
        <time>2017-05-24T13:43:06Z</time>
      </trkpt>
      <trkpt lat="43.044583" lon="-4.387883">
        <ele>2624.0</ele>
        <time>2017-05-24T13:43:07Z</time>
      </trkpt>
      <trkpt lat="43.044633" lon="-4.387833">
        <ele>2626.0</ele>
        <time>2017-05-24T13:43:08Z</time>
      </trkpt>
      <trkpt lat="43.044717" lon="-4.387817">
        <ele>2627.0</ele>
        <time>2017-05-24T13:43:09Z</time>
      </trkpt>
      <trkpt lat="43.044783" lon="-4.387800">
        <ele>2628.0</ele>
        <time>2017-05-24T13:43:10Z</time>
      </trkpt>
      <trkpt lat="43.044883" lon="-4.387800">
        <ele>2628.0</ele>
        <time>2017-05-24T13:43:11Z</time>
      </trkpt>
      <trkpt lat="43.044967" lon="-4.387800">
        <ele>2629.0</ele>
        <time>2017-05-24T13:43:12Z</time>
      </trkpt>
      <trkpt lat="43.045050" lon="-4.387800">
        <ele>2631.0</ele>
        <time>2017-05-24T13:43:13Z</time>
      </trkpt>
      <trkpt lat="43.045150" lon="-4.387817">
        <ele>2633.0</ele>
        <time>2017-05-24T13:43:14Z</time>
      </trkpt>
      <trkpt lat="43.045233" lon="-4.387833">
        <ele>2635.0</ele>
        <time>2017-05-24T13:43:15Z</time>
      </trkpt>
      <trkpt lat="43.045317" lon="-4.387850">
        <ele>2636.0</ele>
        <time>2017-05-24T13:43:16Z</time>
      </trkpt>
      <trkpt lat="43.045400" lon="-4.387867">
        <ele>2638.0</ele>
        <time>2017-05-24T13:43:17Z</time>
      </trkpt>
      <trkpt lat="43.045483" lon="-4.387867">
        <ele>2639.0</ele>
        <time>2017-05-24T13:43:18Z</time>
      </trkpt>
      <trkpt lat="43.045567" lon="-4.387867">
        <ele>2641.0</ele>
        <time>2017-05-24T13:43:19Z</time>
      </trkpt>
      <trkpt lat="43.045650" lon="-4.387883">
        <ele>2644.0</ele>
        <time>2017-05-24T13:43:20Z</time>
      </trkpt>
      <trkpt lat="43.045733" lon="-4.387917">
        <ele>2646.0</ele>
        <time>2017-05-24T13:43:21Z</time>
      </trkpt>
      <trkpt lat="43.045800" lon="-4.387950">
        <ele>2648.0</ele>
        <time>2017-05-24T13:43:22Z</time>
      </trkpt>
      <trkpt lat="43.045883" lon="-4.388000">
        <ele>2649.0</ele>
        <time>2017-05-24T13:43:23Z</time>
      </trkpt>
      <trkpt lat="43.045950" lon="-4.388033">
        <ele>2650.0</ele>
        <time>2017-05-24T13:43:24Z</time>
      </trkpt>
      <trkpt lat="43.046033" lon="-4.388100">
        <ele>2652.0</ele>
        <time>2017-05-24T13:43:25Z</time>
      </trkpt>
      <trkpt lat="43.046100" lon="-4.388150">
        <ele>2653.0</ele>
        <time>2017-05-24T13:43:26Z</time>
      </trkpt>
      <trkpt lat="43.046167" lon="-4.388217">
        <ele>2655.0</ele>
        <time>2017-05-24T13:43:27Z</time>
      </trkpt>
      <trkpt lat="43.046233" lon="-4.388283">
        <ele>2656.0</ele>
        <time>2017-05-24T13:43:28Z</time>
      </trkpt>
      <trkpt lat="43.046283" lon="-4.388350">
        <ele>2658.0</ele>
        <time>2017-05-24T13:43:29Z</time>
      </trkpt>
      <trkpt lat="43.046350" lon="-4.388417">
        <ele>2659.0</ele>
        <time>2017-05-24T13:43:30Z</time>
      </trkpt>
      <trkpt lat="43.046417" lon="-4.388500">
        <ele>2659.0</ele>
        <time>2017-05-24T13:43:31Z</time>
      </trkpt>
      <trkpt lat="43.046467" lon="-4.388600">
        <ele>2659.0</ele>
        <time>2017-05-24T13:43:32Z</time>
      </trkpt>
      <trkpt lat="43.046533" lon="-4.388700">
        <ele>2660.0</ele>
        <time>2017-05-24T13:43:33Z</time>
      </trkpt>
      <trkpt lat="43.046600" lon="-4.388783">
        <ele>2661.0</ele>
        <time>2017-05-24T13:43:34Z</time>
      </trkpt>
      <trkpt lat="43.046667" lon="-4.388850">
        <ele>2661.0</ele>
        <time>2017-05-24T13:43:35Z</time>
      </trkpt>
      <trkpt lat="43.046733" lon="-4.388917">
        <ele>2661.0</ele>
        <time>2017-05-24T13:43:36Z</time>
      </trkpt>
      <trkpt lat="43.046817" lon="-4.389000">
        <ele>2661.0</ele>
        <time>2017-05-24T13:43:37Z</time>
      </trkpt>
      <trkpt lat="43.046883" lon="-4.389100">
        <ele>2661.0</ele>
        <time>2017-05-24T13:43:38Z</time>
      </trkpt>
      <trkpt lat="43.046933" lon="-4.389233">
        <ele>2661.0</ele>
        <time>2017-05-24T13:43:39Z</time>
      </trkpt>
      <trkpt lat="43.046967" lon="-4.389383">
        <ele>2662.0</ele>
        <time>2017-05-24T13:43:40Z</time>
      </trkpt>
      <trkpt lat="43.046983" lon="-4.389533">
        <ele>2664.0</ele>
        <time>2017-05-24T13:43:41Z</time>
      </trkpt>
      <trkpt lat="43.047000" lon="-4.389683">
        <ele>2668.0</ele>
        <time>2017-05-24T13:43:42Z</time>
      </trkpt>
      <trkpt lat="43.047017" lon="-4.389817">
        <ele>2674.0</ele>
        <time>2017-05-24T13:43:43Z</time>
      </trkpt>
      <trkpt lat="43.047033" lon="-4.389933">
        <ele>2680.0</ele>
        <time>2017-05-24T13:43:44Z</time>
      </trkpt>
      <trkpt lat="43.047033" lon="-4.390033">
        <ele>2686.0</ele>
        <time>2017-05-24T13:43:45Z</time>
      </trkpt>
      <trkpt lat="43.047050" lon="-4.390133">
        <ele>2693.0</ele>
        <time>2017-05-24T13:43:46Z</time>
      </trkpt>
      <trkpt lat="43.047067" lon="-4.390217">
        <ele>2698.0</ele>
        <time>2017-05-24T13:43:47Z</time>
      </trkpt>
      <trkpt lat="43.047100" lon="-4.390283">
        <ele>2702.0</ele>
        <time>2017-05-24T13:43:48Z</time>
      </trkpt>
      <trkpt lat="43.047150" lon="-4.390367">
        <ele>2706.0</ele>
        <time>2017-05-24T13:43:49Z</time>
      </trkpt>
      <trkpt lat="43.047233" lon="-4.390433">
        <ele>2710.0</ele>
        <time>2017-05-24T13:43:50Z</time>
      </trkpt>
      <trkpt lat="43.047317" lon="-4.390467">
        <ele>2714.0</ele>
        <time>2017-05-24T13:43:51Z</time>
      </trkpt>
      <trkpt lat="43.047400" lon="-4.390450">
        <ele>2719.0</ele>
        <time>2017-05-24T13:43:52Z</time>
      </trkpt>
      <trkpt lat="43.047467" lon="-4.390383">
        <ele>2724.0</ele>
        <time>2017-05-24T13:43:53Z</time>
      </trkpt>
      <trkpt lat="43.047500" lon="-4.390317">
        <ele>2730.0</ele>
        <time>2017-05-24T13:43:54Z</time>
      </trkpt>
      <trkpt lat="43.047517" lon="-4.390250">
        <ele>2735.0</ele>
        <time>2017-05-24T13:43:55Z</time>
      </trkpt>
      <trkpt lat="43.047517" lon="-4.390167">
        <ele>2740.0</ele>
        <time>2017-05-24T13:43:56Z</time>
      </trkpt>
      <trkpt lat="43.047500" lon="-4.390100">
        <ele>2744.0</ele>
        <time>2017-05-24T13:43:57Z</time>
      </trkpt>
      <trkpt lat="43.047450" lon="-4.390033">
        <ele>2748.0</ele>
        <time>2017-05-24T13:43:58Z</time>
      </trkpt>
      <trkpt lat="43.047383" lon="-4.390017">
        <ele>2751.0</ele>
        <time>2017-05-24T13:43:59Z</time>
      </trkpt>
      <trkpt lat="43.047317" lon="-4.390050">
        <ele>2754.0</ele>
        <time>2017-05-24T13:44:00Z</time>
      </trkpt>
      <trkpt lat="43.047233" lon="-4.390117">
        <ele>2757.0</ele>
        <time>2017-05-24T13:44:01Z</time>
      </trkpt>
      <trkpt lat="43.047167" lon="-4.390217">
        <ele>2762.0</ele>
        <time>2017-05-24T13:44:02Z</time>
      </trkpt>
      <trkpt lat="43.047133" lon="-4.390317">
        <ele>2768.0</ele>
        <time>2017-05-24T13:44:03Z</time>
      </trkpt>
      <trkpt lat="43.047133" lon="-4.390400">
        <ele>2775.0</ele>
        <time>2017-05-24T13:44:04Z</time>
      </trkpt>
      <trkpt lat="43.047133" lon="-4.390500">
        <ele>2781.0</ele>
        <time>2017-05-24T13:44:05Z</time>
      </trkpt>
      <trkpt lat="43.047150" lon="-4.390583">
        <ele>2786.0</ele>
        <time>2017-05-24T13:44:06Z</time>
      </trkpt>
      <trkpt lat="43.047167" lon="-4.390667">
        <ele>2792.0</ele>
        <time>2017-05-24T13:44:07Z</time>
      </trkpt>
      <trkpt lat="43.047183" lon="-4.390767">
        <ele>2796.0</ele>
        <time>2017-05-24T13:44:08Z</time>
      </trkpt>
      <trkpt lat="43.047233" lon="-4.390850">
        <ele>2800.0</ele>
        <time>2017-05-24T13:44:09Z</time>
      </trkpt>
      <trkpt lat="43.047300" lon="-4.390917">
        <ele>2804.0</ele>
        <time>2017-05-24T13:44:10Z</time>
      </trkpt>
      <trkpt lat="43.047383" lon="-4.390950">
        <ele>2808.0</ele>
        <time>2017-05-24T13:44:11Z</time>
      </trkpt>
      <trkpt lat="43.047467" lon="-4.390950">
        <ele>2813.0</ele>
        <time>2017-05-24T13:44:12Z</time>
      </trkpt>
      <trkpt lat="43.047550" lon="-4.390917">
        <ele>2817.0</ele>
        <time>2017-05-24T13:44:13Z</time>
      </trkpt>
      <trkpt lat="43.047617" lon="-4.390883">
        <ele>2822.0</ele>
        <time>2017-05-24T13:44:14Z</time>
      </trkpt>
      <trkpt lat="43.047667" lon="-4.390850">
        <ele>2827.0</ele>
        <time>2017-05-24T13:44:15Z</time>
      </trkpt>
      <trkpt lat="43.047717" lon="-4.390800">
        <ele>2831.0</ele>
        <time>2017-05-24T13:44:16Z</time>
      </trkpt>
      <trkpt lat="43.047767" lon="-4.390717">
        <ele>2835.0</ele>
        <time>2017-05-24T13:44:17Z</time>
      </trkpt>
      <trkpt lat="43.047783" lon="-4.390617">
        <ele>2838.0</ele>
        <time>2017-05-24T13:44:18Z</time>
      </trkpt>
      <trkpt lat="43.047767" lon="-4.390500">
        <ele>2843.0</ele>
        <time>2017-05-24T13:44:19Z</time>
      </trkpt>
      <trkpt lat="43.047733" lon="-4.390400">
        <ele>2849.0</ele>
        <time>2017-05-24T13:44:20Z</time>
      </trkpt>
      <trkpt lat="43.047683" lon="-4.390333">
        <ele>2855.0</ele>
        <time>2017-05-24T13:44:21Z</time>
      </trkpt>
      <trkpt lat="43.047633" lon="-4.390317">
        <ele>2860.0</ele>
        <time>2017-05-24T13:44:22Z</time>
      </trkpt>
      <trkpt lat="43.047567" lon="-4.390300">
        <ele>2863.0</ele>
        <time>2017-05-24T13:44:23Z</time>
      </trkpt>
      <trkpt lat="43.047500" lon="-4.390317">
        <ele>2866.0</ele>
        <time>2017-05-24T13:44:24Z</time>
      </trkpt>
      <trkpt lat="43.047417" lon="-4.390333">
        <ele>2869.0</ele>
        <time>2017-05-24T13:44:25Z</time>
      </trkpt>
      <trkpt lat="43.047350" lon="-4.390383">
        <ele>2873.0</ele>
        <time>2017-05-24T13:44:26Z</time>
      </trkpt>
      <trkpt lat="43.047283" lon="-4.390467">
        <ele>2878.0</ele>
        <time>2017-05-24T13:44:27Z</time>
      </trkpt>
      <trkpt lat="43.047233" lon="-4.390550">
        <ele>2884.0</ele>
        <time>2017-05-24T13:44:28Z</time>
      </trkpt>
      <trkpt lat="43.047200" lon="-4.390617">
        <ele>2890.0</ele>
        <time>2017-05-24T13:44:29Z</time>
      </trkpt>
      <trkpt lat="43.047183" lon="-4.390700">
        <ele>2895.0</ele>
        <time>2017-05-24T13:44:30Z</time>
      </trkpt>
      <trkpt lat="43.047167" lon="-4.390767">
        <ele>2900.0</ele>
        <time>2017-05-24T13:44:31Z</time>
      </trkpt>
      <trkpt lat="43.047150" lon="-4.390867">
        <ele>2903.0</ele>
        <time>2017-05-24T13:44:32Z</time>
      </trkpt>
      <trkpt lat="43.047117" lon="-4.390967">
        <ele>2908.0</ele>
        <time>2017-05-24T13:44:33Z</time>
      </trkpt>
      <trkpt lat="43.047100" lon="-4.391067">
        <ele>2912.0</ele>
        <time>2017-05-24T13:44:34Z</time>
      </trkpt>
      <trkpt lat="43.047083" lon="-4.391167">
        <ele>2917.0</ele>
        <time>2017-05-24T13:44:35Z</time>
      </trkpt>
      <trkpt lat="43.047067" lon="-4.391267">
        <ele>2922.0</ele>
        <time>2017-05-24T13:44:36Z</time>
      </trkpt>
      <trkpt lat="43.047067" lon="-4.391350">
        <ele>2927.0</ele>
        <time>2017-05-24T13:44:37Z</time>
      </trkpt>
      <trkpt lat="43.047050" lon="-4.391450">
        <ele>2932.0</ele>
        <time>2017-05-24T13:44:38Z</time>
      </trkpt>
      <trkpt lat="43.047017" lon="-4.391550">
        <ele>2936.0</ele>
        <time>2017-05-24T13:44:39Z</time>
      </trkpt>
      <trkpt lat="43.047000" lon="-4.391650">
        <ele>2940.0</ele>
        <time>2017-05-24T13:44:40Z</time>
      </trkpt>
      <trkpt lat="43.046983" lon="-4.391767">
        <ele>2944.0</ele>
        <time>2017-05-24T13:44:41Z</time>
      </trkpt>
      <trkpt lat="43.046983" lon="-4.391883">
        <ele>2947.0</ele>
        <time>2017-05-24T13:44:42Z</time>
      </trkpt>
      <trkpt lat="43.047017" lon="-4.392000">
        <ele>2950.0</ele>
        <time>2017-05-24T13:44:43Z</time>
      </trkpt>
      <trkpt lat="43.047050" lon="-4.392117">
        <ele>2953.0</ele>
        <time>2017-05-24T13:44:44Z</time>
      </trkpt>
      <trkpt lat="43.047067" lon="-4.392250">
        <ele>2956.0</ele>
        <time>2017-05-24T13:44:45Z</time>
      </trkpt>
      <trkpt lat="43.047067" lon="-4.392367">
        <ele>2959.0</ele>
        <time>2017-05-24T13:44:46Z</time>
      </trkpt>
      <trkpt lat="43.047083" lon="-4.392467">
        <ele>2962.0</ele>
        <time>2017-05-24T13:44:47Z</time>
      </trkpt>
      <trkpt lat="43.047117" lon="-4.392567">
        <ele>2965.0</ele>
        <time>2017-05-24T13:44:48Z</time>
      </trkpt>
      <trkpt lat="43.047167" lon="-4.392667">
        <ele>2967.0</ele>
        <time>2017-05-24T13:44:49Z</time>
      </trkpt>
      <trkpt lat="43.047250" lon="-4.392733">
        <ele>2969.0</ele>
        <time>2017-05-24T13:44:50Z</time>
      </trkpt>
      <trkpt lat="43.047333" lon="-4.392783">
        <ele>2970.0</ele>
        <time>2017-05-24T13:44:51Z</time>
      </trkpt>
      <trkpt lat="43.047433" lon="-4.392817">
        <ele>2972.0</ele>
        <time>2017-05-24T13:44:52Z</time>
      </trkpt>
      <trkpt lat="43.047517" lon="-4.392833">
        <ele>2974.0</ele>
        <time>2017-05-24T13:44:53Z</time>
      </trkpt>
      <trkpt lat="43.047600" lon="-4.392817">
        <ele>2976.0</ele>
        <time>2017-05-24T13:44:54Z</time>
      </trkpt>
      <trkpt lat="43.047700" lon="-4.392750">
        <ele>2977.0</ele>
        <time>2017-05-24T13:44:55Z</time>
      </trkpt>
      <trkpt lat="43.047767" lon="-4.392650">
        <ele>2978.0</ele>
        <time>2017-05-24T13:44:56Z</time>
      </trkpt>
      <trkpt lat="43.047817" lon="-4.392533">
        <ele>2979.0</ele>
        <time>2017-05-24T13:44:57Z</time>
      </trkpt>
      <trkpt lat="43.047817" lon="-4.392417">
        <ele>2981.0</ele>
        <time>2017-05-24T13:44:58Z</time>
      </trkpt>
      <trkpt lat="43.047817" lon="-4.392300">
        <ele>2984.0</ele>
        <time>2017-05-24T13:44:59Z</time>
      </trkpt>
      <trkpt lat="43.047783" lon="-4.392217">
        <ele>2986.0</ele>
        <time>2017-05-24T13:45:00Z</time>
      </trkpt>
      <trkpt lat="43.047750" lon="-4.392150">
        <ele>2989.0</ele>
        <time>2017-05-24T13:45:01Z</time>
      </trkpt>
      <trkpt lat="43.047700" lon="-4.392083">
        <ele>2991.0</ele>
        <time>2017-05-24T13:45:02Z</time>
      </trkpt>
      <trkpt lat="43.047667" lon="-4.392017">
        <ele>2993.0</ele>
        <time>2017-05-24T13:45:03Z</time>
      </trkpt>
      <trkpt lat="43.047600" lon="-4.391967">
        <ele>2995.0</ele>
        <time>2017-05-24T13:45:04Z</time>
      </trkpt>
      <trkpt lat="43.047533" lon="-4.391917">
        <ele>2998.0</ele>
        <time>2017-05-24T13:45:05Z</time>
      </trkpt>
      <trkpt lat="43.047450" lon="-4.391917">
        <ele>3001.0</ele>
        <time>2017-05-24T13:45:06Z</time>
      </trkpt>
      <trkpt lat="43.047383" lon="-4.391933">
        <ele>3004.0</ele>
        <time>2017-05-24T13:45:07Z</time>
      </trkpt>
      <trkpt lat="43.047333" lon="-4.391983">
        <ele>3008.0</ele>
        <time>2017-05-24T13:45:08Z</time>
      </trkpt>
      <trkpt lat="43.047283" lon="-4.392067">
        <ele>3012.0</ele>
        <time>2017-05-24T13:45:09Z</time>
      </trkpt>
      <trkpt lat="43.047233" lon="-4.392133">
        <ele>3016.0</ele>
        <time>2017-05-24T13:45:10Z</time>
      </trkpt>
      <trkpt lat="43.047183" lon="-4.392217">
        <ele>3021.0</ele>
        <time>2017-05-24T13:45:11Z</time>
      </trkpt>
      <trkpt lat="43.047133" lon="-4.392300">
        <ele>3024.0</ele>
        <time>2017-05-24T13:45:12Z</time>
      </trkpt>
      <trkpt lat="43.047117" lon="-4.392383">
        <ele>3028.0</ele>
        <time>2017-05-24T13:45:13Z</time>
      </trkpt>
      <trkpt lat="43.047083" lon="-4.392450">
        <ele>3032.0</ele>
        <time>2017-05-24T13:45:14Z</time>
      </trkpt>
      <trkpt lat="43.047067" lon="-4.392533">
        <ele>3035.0</ele>
        <time>2017-05-24T13:45:15Z</time>
      </trkpt>
      <trkpt lat="43.047033" lon="-4.392600">
        <ele>3037.0</ele>
        <time>2017-05-24T13:45:16Z</time>
      </trkpt>
      <trkpt lat="43.047000" lon="-4.392683">
        <ele>3039.0</ele>
        <time>2017-05-24T13:45:17Z</time>
      </trkpt>
      <trkpt lat="43.046950" lon="-4.392750">
        <ele>3042.0</ele>
        <time>2017-05-24T13:45:18Z</time>
      </trkpt>
      <trkpt lat="43.046900" lon="-4.392833">
        <ele>3044.0</ele>
        <time>2017-05-24T13:45:19Z</time>
      </trkpt>
      <trkpt lat="43.046867" lon="-4.392900">
        <ele>3047.0</ele>
        <time>2017-05-24T13:45:20Z</time>
      </trkpt>
      <trkpt lat="43.046833" lon="-4.392967">
        <ele>3050.0</ele>
        <time>2017-05-24T13:45:21Z</time>
      </trkpt>
      <trkpt lat="43.046800" lon="-4.393033">
        <ele>3052.0</ele>
        <time>2017-05-24T13:45:22Z</time>
      </trkpt>
      <trkpt lat="43.046767" lon="-4.393100">
        <ele>3054.0</ele>
        <time>2017-05-24T13:45:23Z</time>
      </trkpt>
      <trkpt lat="43.046717" lon="-4.393183">
        <ele>3055.0</ele>
        <time>2017-05-24T13:45:24Z</time>
      </trkpt>
      <trkpt lat="43.046650" lon="-4.393250">
        <ele>3058.0</ele>
        <time>2017-05-24T13:45:25Z</time>
      </trkpt>
      <trkpt lat="43.046617" lon="-4.393317">
        <ele>3060.0</ele>
        <time>2017-05-24T13:45:26Z</time>
      </trkpt>
      <trkpt lat="43.046567" lon="-4.393383">
        <ele>3063.0</ele>
        <time>2017-05-24T13:45:27Z</time>
      </trkpt>
      <trkpt lat="43.046533" lon="-4.393467">
        <ele>3064.0</ele>
        <time>2017-05-24T13:45:28Z</time>
      </trkpt>
      <trkpt lat="43.046500" lon="-4.393550">
        <ele>3065.0</ele>
        <time>2017-05-24T13:45:29Z</time>
      </trkpt>
      <trkpt lat="43.046450" lon="-4.393633">
        <ele>3065.0</ele>
        <time>2017-05-24T13:45:30Z</time>
      </trkpt>
      <trkpt lat="43.046400" lon="-4.393700">
        <ele>3063.0</ele>
        <time>2017-05-24T13:45:31Z</time>
      </trkpt>
      <trkpt lat="43.046333" lon="-4.393767">
        <ele>3062.0</ele>
        <time>2017-05-24T13:45:32Z</time>
      </trkpt>
      <trkpt lat="43.046250" lon="-4.393850">
        <ele>3062.0</ele>
        <time>2017-05-24T13:45:33Z</time>
      </trkpt>
      <trkpt lat="43.046183" lon="-4.393933">
        <ele>3063.0</ele>
        <time>2017-05-24T13:45:34Z</time>
      </trkpt>
      <trkpt lat="43.046100" lon="-4.394000">
        <ele>3066.0</ele>
        <time>2017-05-24T13:45:35Z</time>
      </trkpt>
      <trkpt lat="43.046033" lon="-4.394083">
        <ele>3069.0</ele>
        <time>2017-05-24T13:45:36Z</time>
      </trkpt>
      <trkpt lat="43.045983" lon="-4.394133">
        <ele>3071.0</ele>
        <time>2017-05-24T13:45:37Z</time>
      </trkpt>
      <trkpt lat="43.045933" lon="-4.394200">
        <ele>3073.0</ele>
        <time>2017-05-24T13:45:38Z</time>
      </trkpt>
      <trkpt lat="43.045867" lon="-4.394250">
        <ele>3074.0</ele>
        <time>2017-05-24T13:45:39Z</time>
      </trkpt>
      <trkpt lat="43.045800" lon="-4.394317">
        <ele>3075.0</ele>
        <time>2017-05-24T13:45:40Z</time>
      </trkpt>
      <trkpt lat="43.045733" lon="-4.394367">
        <ele>3077.0</ele>
        <time>2017-05-24T13:45:41Z</time>
      </trkpt>
      <trkpt lat="43.045683" lon="-4.394433">
        <ele>3079.0</ele>
        <time>2017-05-24T13:45:42Z</time>
      </trkpt>
      <trkpt lat="43.045633" lon="-4.394500">
        <ele>3082.0</ele>
        <time>2017-05-24T13:45:43Z</time>
      </trkpt>
      <trkpt lat="43.045583" lon="-4.394550">
        <ele>3084.0</ele>
        <time>2017-05-24T13:45:44Z</time>
      </trkpt>
      <trkpt lat="43.045533" lon="-4.394600">
        <ele>3085.0</ele>
        <time>2017-05-24T13:45:45Z</time>
      </trkpt>
      <trkpt lat="43.045467" lon="-4.394650">
        <ele>3086.0</ele>
        <time>2017-05-24T13:45:46Z</time>
      </trkpt>
      <trkpt lat="43.045400" lon="-4.394733">
        <ele>3087.0</ele>
        <time>2017-05-24T13:45:47Z</time>
      </trkpt>
      <trkpt lat="43.045333" lon="-4.394817">
        <ele>3088.0</ele>
        <time>2017-05-24T13:45:48Z</time>
      </trkpt>
      <trkpt lat="43.045267" lon="-4.394917">
        <ele>3090.0</ele>
        <time>2017-05-24T13:45:49Z</time>
      </trkpt>
      <trkpt lat="43.045217" lon="-4.395017">
        <ele>3093.0</ele>
        <time>2017-05-24T13:45:50Z</time>
      </trkpt>
      <trkpt lat="43.045167" lon="-4.395100">
        <ele>3096.0</ele>
        <time>2017-05-24T13:45:51Z</time>
      </trkpt>
      <trkpt lat="43.045117" lon="-4.395183">
        <ele>3097.0</ele>
        <time>2017-05-24T13:45:52Z</time>
      </trkpt>
      <trkpt lat="43.045067" lon="-4.395267">
        <ele>3098.0</ele>
        <time>2017-05-24T13:45:53Z</time>
      </trkpt>
      <trkpt lat="43.045017" lon="-4.395350">
        <ele>3098.0</ele>
        <time>2017-05-24T13:45:54Z</time>
      </trkpt>
      <trkpt lat="43.044950" lon="-4.395450">
        <ele>3099.0</ele>
        <time>2017-05-24T13:45:55Z</time>
      </trkpt>
      <trkpt lat="43.044900" lon="-4.395533">
        <ele>3099.0</ele>
        <time>2017-05-24T13:45:56Z</time>
      </trkpt>
      <trkpt lat="43.044833" lon="-4.395633">
        <ele>3099.0</ele>
        <time>2017-05-24T13:45:57Z</time>
      </trkpt>
      <trkpt lat="43.044783" lon="-4.395717">
        <ele>3099.0</ele>
        <time>2017-05-24T13:45:58Z</time>
      </trkpt>
      <trkpt lat="43.044733" lon="-4.395800">
        <ele>3099.0</ele>
        <time>2017-05-24T13:45:59Z</time>
      </trkpt>
      <trkpt lat="43.044700" lon="-4.395883">
        <ele>3099.0</ele>
        <time>2017-05-24T13:46:00Z</time>
      </trkpt>
      <trkpt lat="43.044650" lon="-4.395967">
        <ele>3098.0</ele>
        <time>2017-05-24T13:46:01Z</time>
      </trkpt>
      <trkpt lat="43.044600" lon="-4.396050">
        <ele>3096.0</ele>
        <time>2017-05-24T13:46:02Z</time>
      </trkpt>
      <trkpt lat="43.044550" lon="-4.396133">
        <ele>3094.0</ele>
        <time>2017-05-24T13:46:03Z</time>
      </trkpt>
      <trkpt lat="43.044467" lon="-4.396233">
        <ele>3091.0</ele>
        <time>2017-05-24T13:46:04Z</time>
      </trkpt>
      <trkpt lat="43.044400" lon="-4.396333">
        <ele>3090.0</ele>
        <time>2017-05-24T13:46:05Z</time>
      </trkpt>
      <trkpt lat="43.044317" lon="-4.396433">
        <ele>3090.0</ele>
        <time>2017-05-24T13:46:06Z</time>
      </trkpt>
      <trkpt lat="43.044250" lon="-4.396533">
        <ele>3091.0</ele>
        <time>2017-05-24T13:46:07Z</time>
      </trkpt>
      <trkpt lat="43.044200" lon="-4.396617">
        <ele>3092.0</ele>
        <time>2017-05-24T13:46:08Z</time>
      </trkpt>
      <trkpt lat="43.044133" lon="-4.396700">
        <ele>3092.0</ele>
        <time>2017-05-24T13:46:09Z</time>
      </trkpt>
      <trkpt lat="43.044083" lon="-4.396783">
        <ele>3092.0</ele>
        <time>2017-05-24T13:46:10Z</time>
      </trkpt>
      <trkpt lat="43.044033" lon="-4.396867">
        <ele>3092.0</ele>
        <time>2017-05-24T13:46:11Z</time>
      </trkpt>
      <trkpt lat="43.043983" lon="-4.396950">
        <ele>3093.0</ele>
        <time>2017-05-24T13:46:12Z</time>
      </trkpt>
      <trkpt lat="43.043933" lon="-4.397033">
        <ele>3095.0</ele>
        <time>2017-05-24T13:46:13Z</time>
      </trkpt>
      <trkpt lat="43.043900" lon="-4.397117">
        <ele>3097.0</ele>
        <time>2017-05-24T13:46:14Z</time>
      </trkpt>
      <trkpt lat="43.043867" lon="-4.397200">
        <ele>3098.0</ele>
        <time>2017-05-24T13:46:15Z</time>
      </trkpt>
      <trkpt lat="43.043833" lon="-4.397267">
        <ele>3098.0</ele>
        <time>2017-05-24T13:46:16Z</time>
      </trkpt>
      <trkpt lat="43.043783" lon="-4.397317">
        <ele>3099.0</ele>
        <time>2017-05-24T13:46:17Z</time>
      </trkpt>
      <trkpt lat="43.043733" lon="-4.397350">
        <ele>3100.0</ele>
        <time>2017-05-24T13:46:18Z</time>
      </trkpt>
      <trkpt lat="43.043667" lon="-4.397333">
        <ele>3102.0</ele>
        <time>2017-05-24T13:46:19Z</time>
      </trkpt>
      <trkpt lat="43.043617" lon="-4.397300">
        <ele>3104.0</ele>
        <time>2017-05-24T13:46:20Z</time>
      </trkpt>
      <trkpt lat="43.043600" lon="-4.397250">
        <ele>3105.0</ele>
        <time>2017-05-24T13:46:21Z</time>
      </trkpt>
      <trkpt lat="43.043583" lon="-4.397183">
        <ele>3107.0</ele>
        <time>2017-05-24T13:46:22Z</time>
      </trkpt>
      <trkpt lat="43.043567" lon="-4.397117">
        <ele>3108.0</ele>
        <time>2017-05-24T13:46:23Z</time>
      </trkpt>
      <trkpt lat="43.043583" lon="-4.397033">
        <ele>3108.0</ele>
        <time>2017-05-24T13:46:24Z</time>
      </trkpt>
      <trkpt lat="43.043600" lon="-4.396950">
        <ele>3109.0</ele>
        <time>2017-05-24T13:46:25Z</time>
      </trkpt>
      <trkpt lat="43.043650" lon="-4.396850">
        <ele>3108.0</ele>
        <time>2017-05-24T13:46:26Z</time>
      </trkpt>
      <trkpt lat="43.043717" lon="-4.396767">
        <ele>3108.0</ele>
        <time>2017-05-24T13:46:27Z</time>
      </trkpt>
      <trkpt lat="43.043800" lon="-4.396683">
        <ele>3109.0</ele>
        <time>2017-05-24T13:46:28Z</time>
      </trkpt>
      <trkpt lat="43.043900" lon="-4.396650">
        <ele>3110.0</ele>
        <time>2017-05-24T13:46:29Z</time>
      </trkpt>
      <trkpt lat="43.044000" lon="-4.396667">
        <ele>3111.0</ele>
        <time>2017-05-24T13:46:30Z</time>
      </trkpt>
      <trkpt lat="43.044083" lon="-4.396750">
        <ele>3111.0</ele>
        <time>2017-05-24T13:46:31Z</time>
      </trkpt>
      <trkpt lat="43.044167" lon="-4.396850">
        <ele>3112.0</ele>
        <time>2017-05-24T13:46:32Z</time>
      </trkpt>
      <trkpt lat="43.044233" lon="-4.396967">
        <ele>3113.0</ele>
        <time>2017-05-24T13:46:33Z</time>
      </trkpt>
      <trkpt lat="43.044267" lon="-4.397083">
        <ele>3115.0</ele>
        <time>2017-05-24T13:46:34Z</time>
      </trkpt>
      <trkpt lat="43.044283" lon="-4.397183">
        <ele>3116.0</ele>
        <time>2017-05-24T13:46:35Z</time>
      </trkpt>
      <trkpt lat="43.044300" lon="-4.397300">
        <ele>3117.0</ele>
        <time>2017-05-24T13:46:36Z</time>
      </trkpt>
      <trkpt lat="43.044333" lon="-4.397433">
        <ele>3117.0</ele>
        <time>2017-05-24T13:46:37Z</time>
      </trkpt>
      <trkpt lat="43.044350" lon="-4.397567">
        <ele>3117.0</ele>
        <time>2017-05-24T13:46:38Z</time>
      </trkpt>
      <trkpt lat="43.044350" lon="-4.397717">
        <ele>3118.0</ele>
        <time>2017-05-24T13:46:39Z</time>
      </trkpt>
      <trkpt lat="43.044333" lon="-4.397833">
        <ele>3119.0</ele>
        <time>2017-05-24T13:46:40Z</time>
      </trkpt>
      <trkpt lat="43.044317" lon="-4.397933">
        <ele>3121.0</ele>
        <time>2017-05-24T13:46:41Z</time>
      </trkpt>
      <trkpt lat="43.044300" lon="-4.398033">
        <ele>3123.0</ele>
        <time>2017-05-24T13:46:42Z</time>
      </trkpt>
      <trkpt lat="43.044283" lon="-4.398150">
        <ele>3125.0</ele>
        <time>2017-05-24T13:46:43Z</time>
      </trkpt>
      <trkpt lat="43.044283" lon="-4.398250">
        <ele>3125.0</ele>
        <time>2017-05-24T13:46:44Z</time>
      </trkpt>
      <trkpt lat="43.044267" lon="-4.398367">
        <ele>3126.0</ele>
        <time>2017-05-24T13:46:45Z</time>
      </trkpt>
      <trkpt lat="43.044233" lon="-4.398450">
        <ele>3128.0</ele>
        <time>2017-05-24T13:46:46Z</time>
      </trkpt>
      <trkpt lat="43.044200" lon="-4.398550">
        <ele>3129.0</ele>
        <time>2017-05-24T13:46:47Z</time>
      </trkpt>
      <trkpt lat="43.044167" lon="-4.398650">
        <ele>3131.0</ele>
        <time>2017-05-24T13:46:48Z</time>
      </trkpt>
      <trkpt lat="43.044150" lon="-4.398733">
        <ele>3132.0</ele>
        <time>2017-05-24T13:46:49Z</time>
      </trkpt>
      <trkpt lat="43.044150" lon="-4.398817">
        <ele>3132.0</ele>
        <time>2017-05-24T13:46:50Z</time>
      </trkpt>
      <trkpt lat="43.044117" lon="-4.398883">
        <ele>3132.0</ele>
        <time>2017-05-24T13:46:51Z</time>
      </trkpt>
      <trkpt lat="43.044083" lon="-4.398950">
        <ele>3132.0</ele>
        <time>2017-05-24T13:46:52Z</time>
      </trkpt>
      <trkpt lat="43.044033" lon="-4.398983">
        <ele>3132.0</ele>
        <time>2017-05-24T13:46:53Z</time>
      </trkpt>
      <trkpt lat="43.043983" lon="-4.399033">
        <ele>3133.0</ele>
        <time>2017-05-24T13:46:54Z</time>
      </trkpt>
      <trkpt lat="43.043917" lon="-4.399100">
        <ele>3136.0</ele>
        <time>2017-05-24T13:46:55Z</time>
      </trkpt>
      <trkpt lat="43.043883" lon="-4.399183">
        <ele>3139.0</ele>
        <time>2017-05-24T13:46:56Z</time>
      </trkpt>
      <trkpt lat="43.043867" lon="-4.399250">
        <ele>3142.0</ele>
        <time>2017-05-24T13:46:57Z</time>
      </trkpt>
      <trkpt lat="43.043867" lon="-4.399333">
        <ele>3144.0</ele>
        <time>2017-05-24T13:46:58Z</time>
      </trkpt>
      <trkpt lat="43.043883" lon="-4.399400">
        <ele>3145.0</ele>
        <time>2017-05-24T13:46:59Z</time>
      </trkpt>
      <trkpt lat="43.043867" lon="-4.399500">
        <ele>3145.0</ele>
        <time>2017-05-24T13:47:00Z</time>
      </trkpt>
      <trkpt lat="43.043883" lon="-4.399617">
        <ele>3144.0</ele>
        <time>2017-05-24T13:47:01Z</time>
      </trkpt>
      <trkpt lat="43.043917" lon="-4.399750">
        <ele>3145.0</ele>
        <time>2017-05-24T13:47:02Z</time>
      </trkpt>
      <trkpt lat="43.043983" lon="-4.399850">
        <ele>3144.0</ele>
        <time>2017-05-24T13:47:03Z</time>
      </trkpt>
      <trkpt lat="43.044083" lon="-4.399950">
        <ele>3144.0</ele>
        <time>2017-05-24T13:47:04Z</time>
      </trkpt>
      <trkpt lat="43.044183" lon="-4.400000">
        <ele>3145.0</ele>
        <time>2017-05-24T13:47:05Z</time>
      </trkpt>
      <trkpt lat="43.044283" lon="-4.400050">
        <ele>3146.0</ele>
        <time>2017-05-24T13:47:06Z</time>
      </trkpt>
      <trkpt lat="43.044383" lon="-4.400083">
        <ele>3146.0</ele>
        <time>2017-05-24T13:47:07Z</time>
      </trkpt>
      <trkpt lat="43.044483" lon="-4.400083">
        <ele>3145.0</ele>
        <time>2017-05-24T13:47:08Z</time>
      </trkpt>
      <trkpt lat="43.044583" lon="-4.400050">
        <ele>3146.0</ele>
        <time>2017-05-24T13:47:09Z</time>
      </trkpt>
      <trkpt lat="43.044667" lon="-4.400017">
        <ele>3147.0</ele>
        <time>2017-05-24T13:47:10Z</time>
      </trkpt>
      <trkpt lat="43.044717" lon="-4.399983">
        <ele>3148.0</ele>
        <time>2017-05-24T13:47:11Z</time>
      </trkpt>
      <trkpt lat="43.044767" lon="-4.399950">
        <ele>3149.0</ele>
        <time>2017-05-24T13:47:12Z</time>
      </trkpt>
      <trkpt lat="43.044833" lon="-4.399900">
        <ele>3149.0</ele>
        <time>2017-05-24T13:47:13Z</time>
      </trkpt>
      <trkpt lat="43.044883" lon="-4.399833">
        <ele>3149.0</ele>
        <time>2017-05-24T13:47:14Z</time>
      </trkpt>
      <trkpt lat="43.044950" lon="-4.399767">
        <ele>3149.0</ele>
        <time>2017-05-24T13:47:15Z</time>
      </trkpt>
      <trkpt lat="43.045000" lon="-4.399700">
        <ele>3150.0</ele>
        <time>2017-05-24T13:47:16Z</time>
      </trkpt>
      <trkpt lat="43.045050" lon="-4.399617">
        <ele>3151.0</ele>
        <time>2017-05-24T13:47:17Z</time>
      </trkpt>
      <trkpt lat="43.045083" lon="-4.399550">
        <ele>3152.0</ele>
        <time>2017-05-24T13:47:18Z</time>
      </trkpt>
      <trkpt lat="43.045117" lon="-4.399500">
        <ele>3153.0</ele>
        <time>2017-05-24T13:47:19Z</time>
      </trkpt>
      <trkpt lat="43.045133" lon="-4.399417">
        <ele>3153.0</ele>
        <time>2017-05-24T13:47:20Z</time>
      </trkpt>
      <trkpt lat="43.045167" lon="-4.399333">
        <ele>3155.0</ele>
        <time>2017-05-24T13:47:21Z</time>
      </trkpt>
      <trkpt lat="43.045200" lon="-4.399267">
        <ele>3157.0</ele>
        <time>2017-05-24T13:47:22Z</time>
      </trkpt>
      <trkpt lat="43.045217" lon="-4.399183">
        <ele>3158.0</ele>
        <time>2017-05-24T13:47:23Z</time>
      </trkpt>
      <trkpt lat="43.045233" lon="-4.399117">
        <ele>3160.0</ele>
        <time>2017-05-24T13:47:24Z</time>
      </trkpt>
      <trkpt lat="43.045233" lon="-4.399050">
        <ele>3161.0</ele>
        <time>2017-05-24T13:47:25Z</time>
      </trkpt>
      <trkpt lat="43.045233" lon="-4.399000">
        <ele>3161.0</ele>
        <time>2017-05-24T13:47:26Z</time>
      </trkpt>
      <trkpt lat="43.045233" lon="-4.398933">
        <ele>3162.0</ele>
        <time>2017-05-24T13:47:27Z</time>
      </trkpt>
      <trkpt lat="43.045217" lon="-4.398867">
        <ele>3162.0</ele>
        <time>2017-05-24T13:47:28Z</time>
      </trkpt>
      <trkpt lat="43.045183" lon="-4.398817">
        <ele>3162.0</ele>
        <time>2017-05-24T13:47:29Z</time>
      </trkpt>
      <trkpt lat="43.045150" lon="-4.398767">
        <ele>3162.0</ele>
        <time>2017-05-24T13:47:30Z</time>
      </trkpt>
      <trkpt lat="43.045117" lon="-4.398700">
        <ele>3162.0</ele>
        <time>2017-05-24T13:47:31Z</time>
      </trkpt>
      <trkpt lat="43.045067" lon="-4.398650">
        <ele>3163.0</ele>
        <time>2017-05-24T13:47:32Z</time>
      </trkpt>
      <trkpt lat="43.045017" lon="-4.398600">
        <ele>3163.0</ele>
        <time>2017-05-24T13:47:33Z</time>
      </trkpt>
      <trkpt lat="43.044967" lon="-4.398550">
        <ele>3163.0</ele>
        <time>2017-05-24T13:47:34Z</time>
      </trkpt>
      <trkpt lat="43.044917" lon="-4.398517">
        <ele>3163.0</ele>
        <time>2017-05-24T13:47:35Z</time>
      </trkpt>
      <trkpt lat="43.044850" lon="-4.398467">
        <ele>3163.0</ele>
        <time>2017-05-24T13:47:36Z</time>
      </trkpt>
      <trkpt lat="43.044767" lon="-4.398433">
        <ele>3163.0</ele>
        <time>2017-05-24T13:47:37Z</time>
      </trkpt>
      <trkpt lat="43.044683" lon="-4.398400">
        <ele>3163.0</ele>
        <time>2017-05-24T13:47:38Z</time>
      </trkpt>
      <trkpt lat="43.044617" lon="-4.398367">
        <ele>3164.0</ele>
        <time>2017-05-24T13:47:39Z</time>
      </trkpt>
      <trkpt lat="43.044533" lon="-4.398333">
        <ele>3166.0</ele>
        <time>2017-05-24T13:47:40Z</time>
      </trkpt>
      <trkpt lat="43.044450" lon="-4.398333">
        <ele>3168.0</ele>
        <time>2017-05-24T13:47:41Z</time>
      </trkpt>
      <trkpt lat="43.044383" lon="-4.398333">
        <ele>3171.0</ele>
        <time>2017-05-24T13:47:42Z</time>
      </trkpt>
      <trkpt lat="43.044350" lon="-4.398350">
        <ele>3174.0</ele>
        <time>2017-05-24T13:47:43Z</time>
      </trkpt>
      <trkpt lat="43.044317" lon="-4.398367">
        <ele>3175.0</ele>
        <time>2017-05-24T13:47:44Z</time>
      </trkpt>
      <trkpt lat="43.044300" lon="-4.398367">
        <ele>3176.0</ele>
        <time>2017-05-24T13:47:45Z</time>
      </trkpt>
      <trkpt lat="43.044267" lon="-4.398383">
        <ele>3176.0</ele>
        <time>2017-05-24T13:47:46Z</time>
      </trkpt>
      <trkpt lat="43.044233" lon="-4.398417">
        <ele>3175.0</ele>
        <time>2017-05-24T13:47:47Z</time>
      </trkpt>
      <trkpt lat="43.044167" lon="-4.398450">
        <ele>3173.0</ele>
        <time>2017-05-24T13:47:48Z</time>
      </trkpt>
      <trkpt lat="43.044100" lon="-4.398483">
        <ele>3172.0</ele>
        <time>2017-05-24T13:47:49Z</time>
      </trkpt>
      <trkpt lat="43.044017" lon="-4.398500">
        <ele>3172.0</ele>
        <time>2017-05-24T13:47:50Z</time>
      </trkpt>
      <trkpt lat="43.043950" lon="-4.398517">
        <ele>3174.0</ele>
        <time>2017-05-24T13:47:51Z</time>
      </trkpt>
      <trkpt lat="43.043883" lon="-4.398533">
        <ele>3175.0</ele>
        <time>2017-05-24T13:47:52Z</time>
      </trkpt>
      <trkpt lat="43.043833" lon="-4.398550">
        <ele>3175.0</ele>
        <time>2017-05-24T13:47:53Z</time>
      </trkpt>
      <trkpt lat="43.043783" lon="-4.398567">
        <ele>3174.0</ele>
        <time>2017-05-24T13:47:54Z</time>
      </trkpt>
      <trkpt lat="43.043717" lon="-4.398583">
        <ele>3173.0</ele>
        <time>2017-05-24T13:47:55Z</time>
      </trkpt>
      <trkpt lat="43.043633" lon="-4.398600">
        <ele>3172.0</ele>
        <time>2017-05-24T13:47:56Z</time>
      </trkpt>
      <trkpt lat="43.043550" lon="-4.398633">
        <ele>3173.0</ele>
        <time>2017-05-24T13:47:57Z</time>
      </trkpt>
      <trkpt lat="43.043483" lon="-4.398650">
        <ele>3174.0</ele>
        <time>2017-05-24T13:47:58Z</time>
      </trkpt>
      <trkpt lat="43.043417" lon="-4.398667">
        <ele>3175.0</ele>
        <time>2017-05-24T13:47:59Z</time>
      </trkpt>
      <trkpt lat="43.043367" lon="-4.398667">
        <ele>3175.0</ele>
        <time>2017-05-24T13:48:00Z</time>
      </trkpt>
      <trkpt lat="43.043317" lon="-4.398667">
        <ele>3175.0</ele>
        <time>2017-05-24T13:48:01Z</time>
      </trkpt>
      <trkpt lat="43.043250" lon="-4.398650">
        <ele>3174.0</ele>
        <time>2017-05-24T13:48:02Z</time>
      </trkpt>
      <trkpt lat="43.043167" lon="-4.398633">
        <ele>3174.0</ele>
        <time>2017-05-24T13:48:03Z</time>
      </trkpt>
      <trkpt lat="43.043100" lon="-4.398617">
        <ele>3174.0</ele>
        <time>2017-05-24T13:48:04Z</time>
      </trkpt>
      <trkpt lat="43.043033" lon="-4.398617">
        <ele>3175.0</ele>
        <time>2017-05-24T13:48:05Z</time>
      </trkpt>
      <trkpt lat="43.042967" lon="-4.398650">
        <ele>3175.0</ele>
        <time>2017-05-24T13:48:06Z</time>
      </trkpt>
      <trkpt lat="43.042900" lon="-4.398667">
        <ele>3174.0</ele>
        <time>2017-05-24T13:48:07Z</time>
      </trkpt>
      <trkpt lat="43.042850" lon="-4.398700">
        <ele>3174.0</ele>
        <time>2017-05-24T13:48:08Z</time>
      </trkpt>
      <trkpt lat="43.042783" lon="-4.398733">
        <ele>3173.0</ele>
        <time>2017-05-24T13:48:09Z</time>
      </trkpt>
      <trkpt lat="43.042717" lon="-4.398767">
        <ele>3173.0</ele>
        <time>2017-05-24T13:48:10Z</time>
      </trkpt>
      <trkpt lat="43.042650" lon="-4.398800">
        <ele>3173.0</ele>
        <time>2017-05-24T13:48:11Z</time>
      </trkpt>
      <trkpt lat="43.042583" lon="-4.398833">
        <ele>3174.0</ele>
        <time>2017-05-24T13:48:12Z</time>
      </trkpt>
      <trkpt lat="43.042517" lon="-4.398850">
        <ele>3174.0</ele>
        <time>2017-05-24T13:48:13Z</time>
      </trkpt>
      <trkpt lat="43.042450" lon="-4.398867">
        <ele>3175.0</ele>
        <time>2017-05-24T13:48:14Z</time>
      </trkpt>
      <trkpt lat="43.042383" lon="-4.398883">
        <ele>3178.0</ele>
        <time>2017-05-24T13:48:15Z</time>
      </trkpt>
      <trkpt lat="43.042317" lon="-4.398900">
        <ele>3179.0</ele>
        <time>2017-05-24T13:48:16Z</time>
      </trkpt>
      <trkpt lat="43.042267" lon="-4.398917">
        <ele>3181.0</ele>
        <time>2017-05-24T13:48:17Z</time>
      </trkpt>
      <trkpt lat="43.042200" lon="-4.398917">
        <ele>3182.0</ele>
        <time>2017-05-24T13:48:18Z</time>
      </trkpt>
      <trkpt lat="43.042150" lon="-4.398917">
        <ele>3182.0</ele>
        <time>2017-05-24T13:48:19Z</time>
      </trkpt>
      <trkpt lat="43.042067" lon="-4.398933">
        <ele>3183.0</ele>
        <time>2017-05-24T13:48:20Z</time>
      </trkpt>
      <trkpt lat="43.042000" lon="-4.398933">
        <ele>3184.0</ele>
        <time>2017-05-24T13:48:21Z</time>
      </trkpt>
      <trkpt lat="43.041917" lon="-4.398950">
        <ele>3185.0</ele>
        <time>2017-05-24T13:48:22Z</time>
      </trkpt>
      <trkpt lat="43.041850" lon="-4.398950">
        <ele>3187.0</ele>
        <time>2017-05-24T13:48:23Z</time>
      </trkpt>
      <trkpt lat="43.041800" lon="-4.398950">
        <ele>3188.0</ele>
        <time>2017-05-24T13:48:24Z</time>
      </trkpt>
      <trkpt lat="43.041733" lon="-4.398967">
        <ele>3187.0</ele>
        <time>2017-05-24T13:48:25Z</time>
      </trkpt>
      <trkpt lat="43.041667" lon="-4.398967">
        <ele>3187.0</ele>
        <time>2017-05-24T13:48:26Z</time>
      </trkpt>
      <trkpt lat="43.041600" lon="-4.398983">
        <ele>3187.0</ele>
        <time>2017-05-24T13:48:27Z</time>
      </trkpt>
      <trkpt lat="43.041533" lon="-4.399017">
        <ele>3187.0</ele>
        <time>2017-05-24T13:48:28Z</time>
      </trkpt>
      <trkpt lat="43.041483" lon="-4.399067">
        <ele>3188.0</ele>
        <time>2017-05-24T13:48:29Z</time>
      </trkpt>
      <trkpt lat="43.041433" lon="-4.399117">
        <ele>3189.0</ele>
        <time>2017-05-24T13:48:30Z</time>
      </trkpt>
      <trkpt lat="43.041400" lon="-4.399167">
        <ele>3190.0</ele>
        <time>2017-05-24T13:48:31Z</time>
      </trkpt>
      <trkpt lat="43.041367" lon="-4.399200">
        <ele>3190.0</ele>
        <time>2017-05-24T13:48:32Z</time>
      </trkpt>
      <trkpt lat="43.041317" lon="-4.399250">
        <ele>3190.0</ele>
        <time>2017-05-24T13:48:33Z</time>
      </trkpt>
      <trkpt lat="43.041267" lon="-4.399283">
        <ele>3190.0</ele>
        <time>2017-05-24T13:48:34Z</time>
      </trkpt>
      <trkpt lat="43.041217" lon="-4.399283">
        <ele>3190.0</ele>
        <time>2017-05-24T13:48:35Z</time>
      </trkpt>
      <trkpt lat="43.041150" lon="-4.399283">
        <ele>3189.0</ele>
        <time>2017-05-24T13:48:36Z</time>
      </trkpt>
      <trkpt lat="43.041100" lon="-4.399283">
        <ele>3189.0</ele>
        <time>2017-05-24T13:48:37Z</time>
      </trkpt>
      <trkpt lat="43.041033" lon="-4.399300">
        <ele>3190.0</ele>
        <time>2017-05-24T13:48:38Z</time>
      </trkpt>
      <trkpt lat="43.040967" lon="-4.399317">
        <ele>3191.0</ele>
        <time>2017-05-24T13:48:39Z</time>
      </trkpt>
      <trkpt lat="43.040917" lon="-4.399350">
        <ele>3192.0</ele>
        <time>2017-05-24T13:48:40Z</time>
      </trkpt>
      <trkpt lat="43.040867" lon="-4.399350">
        <ele>3193.0</ele>
        <time>2017-05-24T13:48:41Z</time>
      </trkpt>
      <trkpt lat="43.040817" lon="-4.399367">
        <ele>3193.0</ele>
        <time>2017-05-24T13:48:42Z</time>
      </trkpt>
      <trkpt lat="43.040767" lon="-4.399367">
        <ele>3193.0</ele>
        <time>2017-05-24T13:48:43Z</time>
      </trkpt>
      <trkpt lat="43.040717" lon="-4.399367">
        <ele>3194.0</ele>
        <time>2017-05-24T13:48:44Z</time>
      </trkpt>
      <trkpt lat="43.040667" lon="-4.399400">
        <ele>3194.0</ele>
        <time>2017-05-24T13:48:45Z</time>
      </trkpt>
      <trkpt lat="43.040617" lon="-4.399417">
        <ele>3195.0</ele>
        <time>2017-05-24T13:48:46Z</time>
      </trkpt>
      <trkpt lat="43.040567" lon="-4.399450">
        <ele>3196.0</ele>
        <time>2017-05-24T13:48:47Z</time>
      </trkpt>
      <trkpt lat="43.040517" lon="-4.399467">
        <ele>3197.0</ele>
        <time>2017-05-24T13:48:48Z</time>
      </trkpt>
      <trkpt lat="43.040467" lon="-4.399483">
        <ele>3198.0</ele>
        <time>2017-05-24T13:48:49Z</time>
      </trkpt>
      <trkpt lat="43.040417" lon="-4.399483">
        <ele>3199.0</ele>
        <time>2017-05-24T13:48:50Z</time>
      </trkpt>
      <trkpt lat="43.040367" lon="-4.399500">
        <ele>3199.0</ele>
        <time>2017-05-24T13:48:51Z</time>
      </trkpt>
      <trkpt lat="43.040317" lon="-4.399500">
        <ele>3200.0</ele>
        <time>2017-05-24T13:48:52Z</time>
      </trkpt>
      <trkpt lat="43.040283" lon="-4.399500">
        <ele>3203.0</ele>
        <time>2017-05-24T13:48:53Z</time>
      </trkpt>
      <trkpt lat="43.040250" lon="-4.399483">
        <ele>3204.0</ele>
        <time>2017-05-24T13:48:54Z</time>
      </trkpt>
      <trkpt lat="43.040233" lon="-4.399450">
        <ele>3205.0</ele>
        <time>2017-05-24T13:48:55Z</time>
      </trkpt>
      <trkpt lat="43.040217" lon="-4.399400">
        <ele>3204.0</ele>
        <time>2017-05-24T13:48:56Z</time>
      </trkpt>
      <trkpt lat="43.040183" lon="-4.399333">
        <ele>3203.0</ele>
        <time>2017-05-24T13:48:57Z</time>
      </trkpt>
      <trkpt lat="43.040183" lon="-4.399250">
        <ele>3203.0</ele>
        <time>2017-05-24T13:48:58Z</time>
      </trkpt>
      <trkpt lat="43.040183" lon="-4.399133">
        <ele>3204.0</ele>
        <time>2017-05-24T13:48:59Z</time>
      </trkpt>
      <trkpt lat="43.040217" lon="-4.399033">
        <ele>3205.0</ele>
        <time>2017-05-24T13:49:00Z</time>
      </trkpt>
      <trkpt lat="43.040267" lon="-4.398917">
        <ele>3206.0</ele>
        <time>2017-05-24T13:49:01Z</time>
      </trkpt>
      <trkpt lat="43.040300" lon="-4.398800">
        <ele>3208.0</ele>
        <time>2017-05-24T13:49:02Z</time>
      </trkpt>
      <trkpt lat="43.040350" lon="-4.398700">
        <ele>3209.0</ele>
        <time>2017-05-24T13:49:03Z</time>
      </trkpt>
      <trkpt lat="43.040417" lon="-4.398600">
        <ele>3211.0</ele>
        <time>2017-05-24T13:49:04Z</time>
      </trkpt>
      <trkpt lat="43.040483" lon="-4.398517">
        <ele>3213.0</ele>
        <time>2017-05-24T13:49:05Z</time>
      </trkpt>
      <trkpt lat="43.040583" lon="-4.398433">
        <ele>3215.0</ele>
        <time>2017-05-24T13:49:06Z</time>
      </trkpt>
      <trkpt lat="43.040700" lon="-4.398383">
        <ele>3217.0</ele>
        <time>2017-05-24T13:49:07Z</time>
      </trkpt>
      <trkpt lat="43.040817" lon="-4.398367">
        <ele>3218.0</ele>
        <time>2017-05-24T13:49:08Z</time>
      </trkpt>
      <trkpt lat="43.040917" lon="-4.398400">
        <ele>3219.0</ele>
        <time>2017-05-24T13:49:09Z</time>
      </trkpt>
      <trkpt lat="43.041017" lon="-4.398467">
        <ele>3220.0</ele>
        <time>2017-05-24T13:49:10Z</time>
      </trkpt>
      <trkpt lat="43.041083" lon="-4.398533">
        <ele>3222.0</ele>
        <time>2017-05-24T13:49:11Z</time>
      </trkpt>
      <trkpt lat="43.041150" lon="-4.398617">
        <ele>3224.0</ele>
        <time>2017-05-24T13:49:12Z</time>
      </trkpt>
      <trkpt lat="43.041183" lon="-4.398683">
        <ele>3226.0</ele>
        <time>2017-05-24T13:49:13Z</time>
      </trkpt>
      <trkpt lat="43.041217" lon="-4.398767">
        <ele>3228.0</ele>
        <time>2017-05-24T13:49:14Z</time>
      </trkpt>
      <trkpt lat="43.041250" lon="-4.398850">
        <ele>3229.0</ele>
        <time>2017-05-24T13:49:15Z</time>
      </trkpt>
      <trkpt lat="43.041267" lon="-4.398950">
        <ele>3230.0</ele>
        <time>2017-05-24T13:49:16Z</time>
      </trkpt>
      <trkpt lat="43.041267" lon="-4.399033">
        <ele>3231.0</ele>
        <time>2017-05-24T13:49:17Z</time>
      </trkpt>
      <trkpt lat="43.041267" lon="-4.399117">
        <ele>3231.0</ele>
        <time>2017-05-24T13:49:18Z</time>
      </trkpt>
      <trkpt lat="43.041250" lon="-4.399183">
        <ele>3231.0</ele>
        <time>2017-05-24T13:49:19Z</time>
      </trkpt>
      <trkpt lat="43.041217" lon="-4.399250">
        <ele>3232.0</ele>
        <time>2017-05-24T13:49:20Z</time>
      </trkpt>
      <trkpt lat="43.041200" lon="-4.399317">
        <ele>3234.0</ele>
        <time>2017-05-24T13:49:21Z</time>
      </trkpt>
      <trkpt lat="43.041167" lon="-4.399350">
        <ele>3235.0</ele>
        <time>2017-05-24T13:49:22Z</time>
      </trkpt>
      <trkpt lat="43.041150" lon="-4.399383">
        <ele>3235.0</ele>
        <time>2017-05-24T13:49:23Z</time>
      </trkpt>
      <trkpt lat="43.041117" lon="-4.399400">
        <ele>3235.0</ele>
        <time>2017-05-24T13:49:24Z</time>
      </trkpt>
      <trkpt lat="43.041067" lon="-4.399417">
        <ele>3234.0</ele>
        <time>2017-05-24T13:49:25Z</time>
      </trkpt>
      <trkpt lat="43.041017" lon="-4.399433">
        <ele>3234.0</ele>
        <time>2017-05-24T13:49:26Z</time>
      </trkpt>
      <trkpt lat="43.040967" lon="-4.399450">
        <ele>3235.0</ele>
        <time>2017-05-24T13:49:27Z</time>
      </trkpt>
      <trkpt lat="43.040917" lon="-4.399467">
        <ele>3235.0</ele>
        <time>2017-05-24T13:49:28Z</time>
      </trkpt>
      <trkpt lat="43.040850" lon="-4.399500">
        <ele>3237.0</ele>
        <time>2017-05-24T13:49:29Z</time>
      </trkpt>
      <trkpt lat="43.040800" lon="-4.399533">
        <ele>3237.0</ele>
        <time>2017-05-24T13:49:30Z</time>
      </trkpt>
      <trkpt lat="43.040733" lon="-4.399583">
        <ele>3238.0</ele>
        <time>2017-05-24T13:49:31Z</time>
      </trkpt>
      <trkpt lat="43.040683" lon="-4.399617">
        <ele>3239.0</ele>
        <time>2017-05-24T13:49:32Z</time>
      </trkpt>
      <trkpt lat="43.040633" lon="-4.399650">
        <ele>3241.0</ele>
        <time>2017-05-24T13:49:33Z</time>
      </trkpt>
      <trkpt lat="43.040567" lon="-4.399650">
        <ele>3242.0</ele>
        <time>2017-05-24T13:49:34Z</time>
      </trkpt>
      <trkpt lat="43.040517" lon="-4.399667">
        <ele>3243.0</ele>
        <time>2017-05-24T13:49:35Z</time>
      </trkpt>
      <trkpt lat="43.040450" lon="-4.399700">
        <ele>3244.0</ele>
        <time>2017-05-24T13:49:36Z</time>
      </trkpt>
      <trkpt lat="43.040367" lon="-4.399733">
        <ele>3246.0</ele>
        <time>2017-05-24T13:49:37Z</time>
      </trkpt>
      <trkpt lat="43.040300" lon="-4.399767">
        <ele>3248.0</ele>
        <time>2017-05-24T13:49:38Z</time>
      </trkpt>
      <trkpt lat="43.040233" lon="-4.399817">
        <ele>3250.0</ele>
        <time>2017-05-24T13:49:39Z</time>
      </trkpt>
      <trkpt lat="43.040183" lon="-4.399833">
        <ele>3252.0</ele>
        <time>2017-05-24T13:49:40Z</time>
      </trkpt>
      <trkpt lat="43.040150" lon="-4.399833">
        <ele>3252.0</ele>
        <time>2017-05-24T13:49:41Z</time>
      </trkpt>
      <trkpt lat="43.040100" lon="-4.399817">
        <ele>3251.0</ele>
        <time>2017-05-24T13:49:42Z</time>
      </trkpt>
      <trkpt lat="43.040050" lon="-4.399800">
        <ele>3251.0</ele>
        <time>2017-05-24T13:49:43Z</time>
      </trkpt>
      <trkpt lat="43.040017" lon="-4.399767">
        <ele>3250.0</ele>
        <time>2017-05-24T13:49:44Z</time>
      </trkpt>
      <trkpt lat="43.039967" lon="-4.399700">
        <ele>3248.0</ele>
        <time>2017-05-24T13:49:45Z</time>
      </trkpt>
      <trkpt lat="43.039950" lon="-4.399633">
        <ele>3247.0</ele>
        <time>2017-05-24T13:49:46Z</time>
      </trkpt>
      <trkpt lat="43.039900" lon="-4.399533">
        <ele>3246.0</ele>
        <time>2017-05-24T13:49:47Z</time>
      </trkpt>
      <trkpt lat="43.039850" lon="-4.399467">
        <ele>3245.0</ele>
        <time>2017-05-24T13:49:48Z</time>
      </trkpt>
      <trkpt lat="43.039783" lon="-4.399417">
        <ele>3244.0</ele>
        <time>2017-05-24T13:49:49Z</time>
      </trkpt>
      <trkpt lat="43.039733" lon="-4.399383">
        <ele>3245.0</ele>
        <time>2017-05-24T13:49:50Z</time>
      </trkpt>
      <trkpt lat="43.039667" lon="-4.399350">
        <ele>3245.0</ele>
        <time>2017-05-24T13:49:51Z</time>
      </trkpt>
      <trkpt lat="43.039617" lon="-4.399333">
        <ele>3244.0</ele>
        <time>2017-05-24T13:49:52Z</time>
      </trkpt>
      <trkpt lat="43.039567" lon="-4.399317">
        <ele>3243.0</ele>
        <time>2017-05-24T13:49:53Z</time>
      </trkpt>
      <trkpt lat="43.039500" lon="-4.399300">
        <ele>3241.0</ele>
        <time>2017-05-24T13:49:54Z</time>
      </trkpt>
      <trkpt lat="43.039433" lon="-4.399283">
        <ele>3239.0</ele>
        <time>2017-05-24T13:49:55Z</time>
      </trkpt>
      <trkpt lat="43.039350" lon="-4.399267">
        <ele>3236.0</ele>
        <time>2017-05-24T13:49:56Z</time>
      </trkpt>
      <trkpt lat="43.039267" lon="-4.399267">
        <ele>3233.0</ele>
        <time>2017-05-24T13:49:57Z</time>
      </trkpt>
      <trkpt lat="43.039183" lon="-4.399250">
        <ele>3230.0</ele>
        <time>2017-05-24T13:49:58Z</time>
      </trkpt>
      <trkpt lat="43.039100" lon="-4.399250">
        <ele>3228.0</ele>
        <time>2017-05-24T13:49:59Z</time>
      </trkpt>
      <trkpt lat="43.039000" lon="-4.399233">
        <ele>3227.0</ele>
        <time>2017-05-24T13:50:00Z</time>
      </trkpt>
      <trkpt lat="43.038917" lon="-4.399200">
        <ele>3227.0</ele>
        <time>2017-05-24T13:50:01Z</time>
      </trkpt>
      <trkpt lat="43.038833" lon="-4.399183">
        <ele>3227.0</ele>
        <time>2017-05-24T13:50:02Z</time>
      </trkpt>
      <trkpt lat="43.038767" lon="-4.399167">
        <ele>3228.0</ele>
        <time>2017-05-24T13:50:03Z</time>
      </trkpt>
      <trkpt lat="43.038700" lon="-4.399150">
        <ele>3228.0</ele>
        <time>2017-05-24T13:50:04Z</time>
      </trkpt>
      <trkpt lat="43.038617" lon="-4.399133">
        <ele>3227.0</ele>
        <time>2017-05-24T13:50:05Z</time>
      </trkpt>
      <trkpt lat="43.038533" lon="-4.399100">
        <ele>3227.0</ele>
        <time>2017-05-24T13:50:06Z</time>
      </trkpt>
      <trkpt lat="43.038450" lon="-4.399083">
        <ele>3226.0</ele>
        <time>2017-05-24T13:50:07Z</time>
      </trkpt>
      <trkpt lat="43.038350" lon="-4.399067">
        <ele>3226.0</ele>
        <time>2017-05-24T13:50:08Z</time>
      </trkpt>
      <trkpt lat="43.038250" lon="-4.399033">
        <ele>3227.0</ele>
        <time>2017-05-24T13:50:09Z</time>
      </trkpt>
      <trkpt lat="43.038167" lon="-4.399000">
        <ele>3227.0</ele>
        <time>2017-05-24T13:50:10Z</time>
      </trkpt>
      <trkpt lat="43.038083" lon="-4.398967">
        <ele>3227.0</ele>
        <time>2017-05-24T13:50:11Z</time>
      </trkpt>
      <trkpt lat="43.038000" lon="-4.398933">
        <ele>3226.0</ele>
        <time>2017-05-24T13:50:12Z</time>
      </trkpt>
      <trkpt lat="43.037917" lon="-4.398883">
        <ele>3223.0</ele>
        <time>2017-05-24T13:50:13Z</time>
      </trkpt>
      <trkpt lat="43.037817" lon="-4.398867">
        <ele>3222.0</ele>
        <time>2017-05-24T13:50:14Z</time>
      </trkpt>
      <trkpt lat="43.037717" lon="-4.398833">
        <ele>3220.0</ele>
        <time>2017-05-24T13:50:15Z</time>
      </trkpt>
      <trkpt lat="43.037633" lon="-4.398800">
        <ele>3219.0</ele>
        <time>2017-05-24T13:50:16Z</time>
      </trkpt>
      <trkpt lat="43.037550" lon="-4.398783">
        <ele>3218.0</ele>
        <time>2017-05-24T13:50:17Z</time>
      </trkpt>
      <trkpt lat="43.037483" lon="-4.398767">
        <ele>3216.0</ele>
        <time>2017-05-24T13:50:18Z</time>
      </trkpt>
      <trkpt lat="43.037400" lon="-4.398750">
        <ele>3214.0</ele>
        <time>2017-05-24T13:50:19Z</time>
      </trkpt>
      <trkpt lat="43.037317" lon="-4.398733">
        <ele>3211.0</ele>
        <time>2017-05-24T13:50:20Z</time>
      </trkpt>
      <trkpt lat="43.037217" lon="-4.398717">
        <ele>3208.0</ele>
        <time>2017-05-24T13:50:21Z</time>
      </trkpt>
      <trkpt lat="43.037133" lon="-4.398700">
        <ele>3207.0</ele>
        <time>2017-05-24T13:50:22Z</time>
      </trkpt>
      <trkpt lat="43.037050" lon="-4.398683">
        <ele>3206.0</ele>
        <time>2017-05-24T13:50:23Z</time>
      </trkpt>
      <trkpt lat="43.036983" lon="-4.398650">
        <ele>3204.0</ele>
        <time>2017-05-24T13:50:24Z</time>
      </trkpt>
      <trkpt lat="43.036917" lon="-4.398617">
        <ele>3201.0</ele>
        <time>2017-05-24T13:50:25Z</time>
      </trkpt>
      <trkpt lat="43.036850" lon="-4.398600">
        <ele>3198.0</ele>
        <time>2017-05-24T13:50:26Z</time>
      </trkpt>
      <trkpt lat="43.036767" lon="-4.398583">
        <ele>3195.0</ele>
        <time>2017-05-24T13:50:27Z</time>
      </trkpt>
      <trkpt lat="43.036667" lon="-4.398567">
        <ele>3192.0</ele>
        <time>2017-05-24T13:50:28Z</time>
      </trkpt>
      <trkpt lat="43.036583" lon="-4.398550">
        <ele>3191.0</ele>
        <time>2017-05-24T13:50:29Z</time>
      </trkpt>
      <trkpt lat="43.036517" lon="-4.398533">
        <ele>3190.0</ele>
        <time>2017-05-24T13:50:30Z</time>
      </trkpt>
      <trkpt lat="43.036450" lon="-4.398517">
        <ele>3190.0</ele>
        <time>2017-05-24T13:50:31Z</time>
      </trkpt>
      <trkpt lat="43.036383" lon="-4.398483">
        <ele>3188.0</ele>
        <time>2017-05-24T13:50:32Z</time>
      </trkpt>
      <trkpt lat="43.036300" lon="-4.398433">
        <ele>3186.0</ele>
        <time>2017-05-24T13:50:33Z</time>
      </trkpt>
      <trkpt lat="43.036233" lon="-4.398383">
        <ele>3183.0</ele>
        <time>2017-05-24T13:50:34Z</time>
      </trkpt>
      <trkpt lat="43.036150" lon="-4.398333">
        <ele>3180.0</ele>
        <time>2017-05-24T13:50:35Z</time>
      </trkpt>
      <trkpt lat="43.036050" lon="-4.398300">
        <ele>3177.0</ele>
        <time>2017-05-24T13:50:36Z</time>
      </trkpt>
      <trkpt lat="43.035967" lon="-4.398250">
        <ele>3175.0</ele>
        <time>2017-05-24T13:50:37Z</time>
      </trkpt>
      <trkpt lat="43.035883" lon="-4.398200">
        <ele>3173.0</ele>
        <time>2017-05-24T13:50:38Z</time>
      </trkpt>
      <trkpt lat="43.035817" lon="-4.398150">
        <ele>3172.0</ele>
        <time>2017-05-24T13:50:39Z</time>
      </trkpt>
      <trkpt lat="43.035717" lon="-4.398117">
        <ele>3172.0</ele>
        <time>2017-05-24T13:50:40Z</time>
      </trkpt>
      <trkpt lat="43.035650" lon="-4.398083">
        <ele>3170.0</ele>
        <time>2017-05-24T13:50:41Z</time>
      </trkpt>
      <trkpt lat="43.035567" lon="-4.398067">
        <ele>3168.0</ele>
        <time>2017-05-24T13:50:42Z</time>
      </trkpt>
      <trkpt lat="43.035500" lon="-4.398033">
        <ele>3166.0</ele>
        <time>2017-05-24T13:50:43Z</time>
      </trkpt>
      <trkpt lat="43.035417" lon="-4.398017">
        <ele>3164.0</ele>
        <time>2017-05-24T13:50:44Z</time>
      </trkpt>
      <trkpt lat="43.035333" lon="-4.397983">
        <ele>3162.0</ele>
        <time>2017-05-24T13:50:45Z</time>
      </trkpt>
      <trkpt lat="43.035250" lon="-4.397967">
        <ele>3158.0</ele>
        <time>2017-05-24T13:50:46Z</time>
      </trkpt>
      <trkpt lat="43.035167" lon="-4.397933">
        <ele>3155.0</ele>
        <time>2017-05-24T13:50:47Z</time>
      </trkpt>
      <trkpt lat="43.035083" lon="-4.397917">
        <ele>3153.0</ele>
        <time>2017-05-24T13:50:48Z</time>
      </trkpt>
      <trkpt lat="43.035000" lon="-4.397900">
        <ele>3151.0</ele>
        <time>2017-05-24T13:50:49Z</time>
      </trkpt>
      <trkpt lat="43.034917" lon="-4.397850">
        <ele>3149.0</ele>
        <time>2017-05-24T13:50:50Z</time>
      </trkpt>
      <trkpt lat="43.034833" lon="-4.397800">
        <ele>3147.0</ele>
        <time>2017-05-24T13:50:51Z</time>
      </trkpt>
      <trkpt lat="43.034767" lon="-4.397750">
        <ele>3146.0</ele>
        <time>2017-05-24T13:50:52Z</time>
      </trkpt>
      <trkpt lat="43.034717" lon="-4.397700">
        <ele>3145.0</ele>
        <time>2017-05-24T13:50:53Z</time>
      </trkpt>
      <trkpt lat="43.034650" lon="-4.397667">
        <ele>3144.0</ele>
        <time>2017-05-24T13:50:54Z</time>
      </trkpt>
      <trkpt lat="43.034583" lon="-4.397633">
        <ele>3142.0</ele>
        <time>2017-05-24T13:50:55Z</time>
      </trkpt>
      <trkpt lat="43.034517" lon="-4.397583">
        <ele>3140.0</ele>
        <time>2017-05-24T13:50:56Z</time>
      </trkpt>
      <trkpt lat="43.034450" lon="-4.397550">
        <ele>3138.0</ele>
        <time>2017-05-24T13:50:57Z</time>
      </trkpt>
      <trkpt lat="43.034367" lon="-4.397517">
        <ele>3137.0</ele>
        <time>2017-05-24T13:50:58Z</time>
      </trkpt>
      <trkpt lat="43.034300" lon="-4.397483">
        <ele>3135.0</ele>
        <time>2017-05-24T13:50:59Z</time>
      </trkpt>
      <trkpt lat="43.034217" lon="-4.397450">
        <ele>3133.0</ele>
        <time>2017-05-24T13:51:00Z</time>
      </trkpt>
      <trkpt lat="43.034133" lon="-4.397433">
        <ele>3131.0</ele>
        <time>2017-05-24T13:51:01Z</time>
      </trkpt>
      <trkpt lat="43.034050" lon="-4.397400">
        <ele>3131.0</ele>
        <time>2017-05-24T13:51:02Z</time>
      </trkpt>
      <trkpt lat="43.033967" lon="-4.397400">
        <ele>3130.0</ele>
        <time>2017-05-24T13:51:03Z</time>
      </trkpt>
      <trkpt lat="43.033883" lon="-4.397383">
        <ele>3130.0</ele>
        <time>2017-05-24T13:51:04Z</time>
      </trkpt>
      <trkpt lat="43.033800" lon="-4.397383">
        <ele>3129.0</ele>
        <time>2017-05-24T13:51:05Z</time>
      </trkpt>
      <trkpt lat="43.033717" lon="-4.397350">
        <ele>3129.0</ele>
        <time>2017-05-24T13:51:06Z</time>
      </trkpt>
      <trkpt lat="43.033633" lon="-4.397317">
        <ele>3127.0</ele>
        <time>2017-05-24T13:51:07Z</time>
      </trkpt>
      <trkpt lat="43.033533" lon="-4.397283">
        <ele>3125.0</ele>
        <time>2017-05-24T13:51:08Z</time>
      </trkpt>
      <trkpt lat="43.033433" lon="-4.397233">
        <ele>3124.0</ele>
        <time>2017-05-24T13:51:09Z</time>
      </trkpt>
      <trkpt lat="43.033350" lon="-4.397167">
        <ele>3124.0</ele>
        <time>2017-05-24T13:51:10Z</time>
      </trkpt>
      <trkpt lat="43.033267" lon="-4.397117">
        <ele>3125.0</ele>
        <time>2017-05-24T13:51:11Z</time>
      </trkpt>
      <trkpt lat="43.033200" lon="-4.397067">
        <ele>3127.0</ele>
        <time>2017-05-24T13:51:12Z</time>
      </trkpt>
      <trkpt lat="43.033150" lon="-4.397033">
        <ele>3129.0</ele>
        <time>2017-05-24T13:51:13Z</time>
      </trkpt>
      <trkpt lat="43.033083" lon="-4.397000">
        <ele>3132.0</ele>
        <time>2017-05-24T13:51:14Z</time>
      </trkpt>
      <trkpt lat="43.033033" lon="-4.396983">
        <ele>3134.0</ele>
        <time>2017-05-24T13:51:15Z</time>
      </trkpt>
      <trkpt lat="43.032967" lon="-4.397000">
        <ele>3134.0</ele>
        <time>2017-05-24T13:51:16Z</time>
      </trkpt>
      <trkpt lat="43.032883" lon="-4.396983">
        <ele>3136.0</ele>
        <time>2017-05-24T13:51:17Z</time>
      </trkpt>
      <trkpt lat="43.032817" lon="-4.396950">
        <ele>3138.0</ele>
        <time>2017-05-24T13:51:18Z</time>
      </trkpt>
      <trkpt lat="43.032750" lon="-4.396917">
        <ele>3141.0</ele>
        <time>2017-05-24T13:51:19Z</time>
      </trkpt>
      <trkpt lat="43.032700" lon="-4.396867">
        <ele>3145.0</ele>
        <time>2017-05-24T13:51:20Z</time>
      </trkpt>
      <trkpt lat="43.032667" lon="-4.396833">
        <ele>3149.0</ele>
        <time>2017-05-24T13:51:21Z</time>
      </trkpt>
      <trkpt lat="43.032617" lon="-4.396800">
        <ele>3153.0</ele>
        <time>2017-05-24T13:51:22Z</time>
      </trkpt>
      <trkpt lat="43.032550" lon="-4.396767">
        <ele>3156.0</ele>
        <time>2017-05-24T13:51:23Z</time>
      </trkpt>
      <trkpt lat="43.032500" lon="-4.396717">
        <ele>3159.0</ele>
        <time>2017-05-24T13:51:24Z</time>
      </trkpt>
      <trkpt lat="43.032433" lon="-4.396650">
        <ele>3162.0</ele>
        <time>2017-05-24T13:51:25Z</time>
      </trkpt>
      <trkpt lat="43.032383" lon="-4.396600">
        <ele>3167.0</ele>
        <time>2017-05-24T13:51:26Z</time>
      </trkpt>
      <trkpt lat="43.032333" lon="-4.396550">
        <ele>3172.0</ele>
        <time>2017-05-24T13:51:27Z</time>
      </trkpt>
      <trkpt lat="43.032300" lon="-4.396483">
        <ele>3176.0</ele>
        <time>2017-05-24T13:51:28Z</time>
      </trkpt>
      <trkpt lat="43.032283" lon="-4.396417">
        <ele>3180.0</ele>
        <time>2017-05-24T13:51:29Z</time>
      </trkpt>
      <trkpt lat="43.032250" lon="-4.396333">
        <ele>3184.0</ele>
        <time>2017-05-24T13:51:30Z</time>
      </trkpt>
      <trkpt lat="43.032250" lon="-4.396233">
        <ele>3188.0</ele>
        <time>2017-05-24T13:51:31Z</time>
      </trkpt>
      <trkpt lat="43.032267" lon="-4.396117">
        <ele>3193.0</ele>
        <time>2017-05-24T13:51:32Z</time>
      </trkpt>
      <trkpt lat="43.032283" lon="-4.396000">
        <ele>3198.0</ele>
        <time>2017-05-24T13:51:33Z</time>
      </trkpt>
      <trkpt lat="43.032317" lon="-4.395900">
        <ele>3200.0</ele>
        <time>2017-05-24T13:51:34Z</time>
      </trkpt>
      <trkpt lat="43.032383" lon="-4.395800">
        <ele>3206.0</ele>
        <time>2017-05-24T13:51:35Z</time>
      </trkpt>
      <trkpt lat="43.032450" lon="-4.395717">
        <ele>3212.0</ele>
        <time>2017-05-24T13:51:36Z</time>
      </trkpt>
      <trkpt lat="43.032550" lon="-4.395650">
        <ele>3218.0</ele>
        <time>2017-05-24T13:51:37Z</time>
      </trkpt>
      <trkpt lat="43.032650" lon="-4.395617">
        <ele>3224.0</ele>
        <time>2017-05-24T13:51:38Z</time>
      </trkpt>
      <trkpt lat="43.032767" lon="-4.395617">
        <ele>3230.0</ele>
        <time>2017-05-24T13:51:39Z</time>
      </trkpt>
      <trkpt lat="43.032867" lon="-4.395667">
        <ele>3236.0</ele>
        <time>2017-05-24T13:51:40Z</time>
      </trkpt>
      <trkpt lat="43.032983" lon="-4.395767">
        <ele>3242.0</ele>
        <time>2017-05-24T13:51:41Z</time>
      </trkpt>
      <trkpt lat="43.033050" lon="-4.395883">
        <ele>3248.0</ele>
        <time>2017-05-24T13:51:42Z</time>
      </trkpt>
      <trkpt lat="43.033100" lon="-4.396000">
        <ele>3253.0</ele>
        <time>2017-05-24T13:51:43Z</time>
      </trkpt>
      <trkpt lat="43.033117" lon="-4.396117">
        <ele>3258.0</ele>
        <time>2017-05-24T13:51:44Z</time>
      </trkpt>
      <trkpt lat="43.033117" lon="-4.396217">
        <ele>3262.0</ele>
        <time>2017-05-24T13:51:45Z</time>
      </trkpt>
      <trkpt lat="43.033117" lon="-4.396317">
        <ele>3266.0</ele>
        <time>2017-05-24T13:51:46Z</time>
      </trkpt>
      <trkpt lat="43.033083" lon="-4.396383">
        <ele>3269.0</ele>
        <time>2017-05-24T13:51:47Z</time>
      </trkpt>
      <trkpt lat="43.033033" lon="-4.396433">
        <ele>3272.0</ele>
        <time>2017-05-24T13:51:48Z</time>
      </trkpt>
      <trkpt lat="43.032967" lon="-4.396417">
        <ele>3275.0</ele>
        <time>2017-05-24T13:51:49Z</time>
      </trkpt>
      <trkpt lat="43.032900" lon="-4.396350">
        <ele>3278.0</ele>
        <time>2017-05-24T13:51:50Z</time>
      </trkpt>
      <trkpt lat="43.032850" lon="-4.396283">
        <ele>3283.0</ele>
        <time>2017-05-24T13:51:51Z</time>
      </trkpt>
      <trkpt lat="43.032817" lon="-4.396233">
        <ele>3288.0</ele>
        <time>2017-05-24T13:51:52Z</time>
      </trkpt>
      <trkpt lat="43.032783" lon="-4.396183">
        <ele>3293.0</ele>
        <time>2017-05-24T13:51:53Z</time>
      </trkpt>
      <trkpt lat="43.032750" lon="-4.396133">
        <ele>3297.0</ele>
        <time>2017-05-24T13:51:54Z</time>
      </trkpt>
      <trkpt lat="43.032733" lon="-4.396050">
        <ele>3301.0</ele>
        <time>2017-05-24T13:51:55Z</time>
      </trkpt>
      <trkpt lat="43.032717" lon="-4.395967">
        <ele>3305.0</ele>
        <time>2017-05-24T13:51:56Z</time>
      </trkpt>
      <trkpt lat="43.032683" lon="-4.395867">
        <ele>3310.0</ele>
        <time>2017-05-24T13:51:57Z</time>
      </trkpt>
      <trkpt lat="43.032667" lon="-4.395783">
        <ele>3315.0</ele>
        <time>2017-05-24T13:51:58Z</time>
      </trkpt>
      <trkpt lat="43.032650" lon="-4.395683">
        <ele>3320.0</ele>
        <time>2017-05-24T13:51:59Z</time>
      </trkpt>
      <trkpt lat="43.032650" lon="-4.395583">
        <ele>3325.0</ele>
        <time>2017-05-24T13:52:00Z</time>
      </trkpt>
      <trkpt lat="43.032667" lon="-4.395500">
        <ele>3331.0</ele>
        <time>2017-05-24T13:52:01Z</time>
      </trkpt>
      <trkpt lat="43.032683" lon="-4.395433">
        <ele>3337.0</ele>
        <time>2017-05-24T13:52:02Z</time>
      </trkpt>
      <trkpt lat="43.032683" lon="-4.395350">
        <ele>3341.0</ele>
        <time>2017-05-24T13:52:03Z</time>
      </trkpt>
      <trkpt lat="43.032700" lon="-4.395267">
        <ele>3344.0</ele>
        <time>2017-05-24T13:52:04Z</time>
      </trkpt>
      <trkpt lat="43.032733" lon="-4.395183">
        <ele>3347.0</ele>
        <time>2017-05-24T13:52:05Z</time>
      </trkpt>
      <trkpt lat="43.032783" lon="-4.395067">
        <ele>3350.0</ele>
        <time>2017-05-24T13:52:06Z</time>
      </trkpt>
      <trkpt lat="43.032867" lon="-4.394967">
        <ele>3354.0</ele>
        <time>2017-05-24T13:52:07Z</time>
      </trkpt>
      <trkpt lat="43.032983" lon="-4.394900">
        <ele>3358.0</ele>
        <time>2017-05-24T13:52:08Z</time>
      </trkpt>
      <trkpt lat="43.033100" lon="-4.394900">
        <ele>3362.0</ele>
        <time>2017-05-24T13:52:09Z</time>
      </trkpt>
      <trkpt lat="43.033217" lon="-4.394917">
        <ele>3365.0</ele>
        <time>2017-05-24T13:52:10Z</time>
      </trkpt>
      <trkpt lat="43.033333" lon="-4.394967">
        <ele>3369.0</ele>
        <time>2017-05-24T13:52:11Z</time>
      </trkpt>
      <trkpt lat="43.033450" lon="-4.395017">
        <ele>3373.0</ele>
        <time>2017-05-24T13:52:12Z</time>
      </trkpt>
      <trkpt lat="43.033550" lon="-4.395083">
        <ele>3376.0</ele>
        <time>2017-05-24T13:52:13Z</time>
      </trkpt>
      <trkpt lat="43.033650" lon="-4.395167">
        <ele>3380.0</ele>
        <time>2017-05-24T13:52:14Z</time>
      </trkpt>
      <trkpt lat="43.033733" lon="-4.395250">
        <ele>3383.0</ele>
        <time>2017-05-24T13:52:15Z</time>
      </trkpt>
      <trkpt lat="43.033800" lon="-4.395350">
        <ele>3387.0</ele>
        <time>2017-05-24T13:52:16Z</time>
      </trkpt>
      <trkpt lat="43.033867" lon="-4.395450">
        <ele>3391.0</ele>
        <time>2017-05-24T13:52:17Z</time>
      </trkpt>
      <trkpt lat="43.033917" lon="-4.395550">
        <ele>3393.0</ele>
        <time>2017-05-24T13:52:18Z</time>
      </trkpt>
      <trkpt lat="43.033950" lon="-4.395633">
        <ele>3396.0</ele>
        <time>2017-05-24T13:52:19Z</time>
      </trkpt>
      <trkpt lat="43.033967" lon="-4.395733">
        <ele>3398.0</ele>
        <time>2017-05-24T13:52:20Z</time>
      </trkpt>
      <trkpt lat="43.033967" lon="-4.395817">
        <ele>3399.0</ele>
        <time>2017-05-24T13:52:21Z</time>
      </trkpt>
      <trkpt lat="43.033950" lon="-4.395900">
        <ele>3400.0</ele>
        <time>2017-05-24T13:52:22Z</time>
      </trkpt>
      <trkpt lat="43.033933" lon="-4.395950">
        <ele>3401.0</ele>
        <time>2017-05-24T13:52:23Z</time>
      </trkpt>
      <trkpt lat="43.033883" lon="-4.395983">
        <ele>3402.0</ele>
        <time>2017-05-24T13:52:24Z</time>
      </trkpt>
      <trkpt lat="43.033850" lon="-4.396000">
        <ele>3405.0</ele>
        <time>2017-05-24T13:52:25Z</time>
      </trkpt>
      <trkpt lat="43.033817" lon="-4.396000">
        <ele>3408.0</ele>
        <time>2017-05-24T13:52:26Z</time>
      </trkpt>
      <trkpt lat="43.033783" lon="-4.396000">
        <ele>3410.0</ele>
        <time>2017-05-24T13:52:27Z</time>
      </trkpt>
      <trkpt lat="43.033750" lon="-4.395983">
        <ele>3411.0</ele>
        <time>2017-05-24T13:52:28Z</time>
      </trkpt>
      <trkpt lat="43.033733" lon="-4.395967">
        <ele>3413.0</ele>
        <time>2017-05-24T13:52:29Z</time>
      </trkpt>
      <trkpt lat="43.033700" lon="-4.395933">
        <ele>3415.0</ele>
        <time>2017-05-24T13:52:30Z</time>
      </trkpt>
      <trkpt lat="43.033683" lon="-4.395867">
        <ele>3417.0</ele>
        <time>2017-05-24T13:52:31Z</time>
      </trkpt>
      <trkpt lat="43.033683" lon="-4.395800">
        <ele>3419.0</ele>
        <time>2017-05-24T13:52:32Z</time>
      </trkpt>
      <trkpt lat="43.033667" lon="-4.395750">
        <ele>3419.0</ele>
        <time>2017-05-24T13:52:33Z</time>
      </trkpt>
      <trkpt lat="43.033667" lon="-4.395667">
        <ele>3419.0</ele>
        <time>2017-05-24T13:52:34Z</time>
      </trkpt>
      <trkpt lat="43.033650" lon="-4.395567">
        <ele>3418.0</ele>
        <time>2017-05-24T13:52:35Z</time>
      </trkpt>
      <trkpt lat="43.033633" lon="-4.395433">
        <ele>3419.0</ele>
        <time>2017-05-24T13:52:36Z</time>
      </trkpt>
      <trkpt lat="43.033633" lon="-4.395300">
        <ele>3422.0</ele>
        <time>2017-05-24T13:52:37Z</time>
      </trkpt>
      <trkpt lat="43.033667" lon="-4.395167">
        <ele>3426.0</ele>
        <time>2017-05-24T13:52:38Z</time>
      </trkpt>
      <trkpt lat="43.033683" lon="-4.395050">
        <ele>3431.0</ele>
        <time>2017-05-24T13:52:39Z</time>
      </trkpt>
      <trkpt lat="43.033717" lon="-4.394967">
        <ele>3437.0</ele>
        <time>2017-05-24T13:52:40Z</time>
      </trkpt>
      <trkpt lat="43.033767" lon="-4.394883">
        <ele>3442.0</ele>
        <time>2017-05-24T13:52:41Z</time>
      </trkpt>
      <trkpt lat="43.033833" lon="-4.394783">
        <ele>3446.0</ele>
        <time>2017-05-24T13:52:42Z</time>
      </trkpt>
      <trkpt lat="43.033900" lon="-4.394683">
        <ele>3450.0</ele>
        <time>2017-05-24T13:52:43Z</time>
      </trkpt>
      <trkpt lat="43.033967" lon="-4.394583">
        <ele>3454.0</ele>
        <time>2017-05-24T13:52:44Z</time>
      </trkpt>
      <trkpt lat="43.034067" lon="-4.394517">
        <ele>3459.0</ele>
        <time>2017-05-24T13:52:45Z</time>
      </trkpt>
      <trkpt lat="43.034183" lon="-4.394483">
        <ele>3463.0</ele>
        <time>2017-05-24T13:52:46Z</time>
      </trkpt>
      <trkpt lat="43.034283" lon="-4.394533">
        <ele>3466.0</ele>
        <time>2017-05-24T13:52:47Z</time>
      </trkpt>
      <trkpt lat="43.034367" lon="-4.394600">
        <ele>3469.0</ele>
        <time>2017-05-24T13:52:48Z</time>
      </trkpt>
      <trkpt lat="43.034450" lon="-4.394667">
        <ele>3473.0</ele>
        <time>2017-05-24T13:52:49Z</time>
      </trkpt>
      <trkpt lat="43.034500" lon="-4.394717">
        <ele>3477.0</ele>
        <time>2017-05-24T13:52:50Z</time>
      </trkpt>
      <trkpt lat="43.034567" lon="-4.394767">
        <ele>3480.0</ele>
        <time>2017-05-24T13:52:51Z</time>
      </trkpt>
      <trkpt lat="43.034617" lon="-4.394850">
        <ele>3482.0</ele>
        <time>2017-05-24T13:52:52Z</time>
      </trkpt>
      <trkpt lat="43.034650" lon="-4.394950">
        <ele>3483.0</ele>
        <time>2017-05-24T13:52:53Z</time>
      </trkpt>
      <trkpt lat="43.034667" lon="-4.395050">
        <ele>3484.0</ele>
        <time>2017-05-24T13:52:54Z</time>
      </trkpt>
      <trkpt lat="43.034667" lon="-4.395167">
        <ele>3486.0</ele>
        <time>2017-05-24T13:52:55Z</time>
      </trkpt>
      <trkpt lat="43.034667" lon="-4.395250">
        <ele>3487.0</ele>
        <time>2017-05-24T13:52:56Z</time>
      </trkpt>
      <trkpt lat="43.034650" lon="-4.395333">
        <ele>3488.0</ele>
        <time>2017-05-24T13:52:57Z</time>
      </trkpt>
      <trkpt lat="43.034633" lon="-4.395417">
        <ele>3489.0</ele>
        <time>2017-05-24T13:52:58Z</time>
      </trkpt>
      <trkpt lat="43.034617" lon="-4.395483">
        <ele>3491.0</ele>
        <time>2017-05-24T13:52:59Z</time>
      </trkpt>
      <trkpt lat="43.034600" lon="-4.395517">
        <ele>3491.0</ele>
        <time>2017-05-24T13:53:00Z</time>
      </trkpt>
      <trkpt lat="43.034583" lon="-4.395550">
        <ele>3492.0</ele>
        <time>2017-05-24T13:53:01Z</time>
      </trkpt>
      <trkpt lat="43.034550" lon="-4.395583">
        <ele>3491.0</ele>
        <time>2017-05-24T13:53:02Z</time>
      </trkpt>
      <trkpt lat="43.034517" lon="-4.395617">
        <ele>3491.0</ele>
        <time>2017-05-24T13:53:03Z</time>
      </trkpt>
      <trkpt lat="43.034483" lon="-4.395633">
        <ele>3492.0</ele>
        <time>2017-05-24T13:53:04Z</time>
      </trkpt>
      <trkpt lat="43.034467" lon="-4.395617">
        <ele>3493.0</ele>
        <time>2017-05-24T13:53:05Z</time>
      </trkpt>
      <trkpt lat="43.034467" lon="-4.395567">
        <ele>3495.0</ele>
        <time>2017-05-24T13:53:06Z</time>
      </trkpt>
      <trkpt lat="43.034483" lon="-4.395517">
        <ele>3496.0</ele>
        <time>2017-05-24T13:53:07Z</time>
      </trkpt>
      <trkpt lat="43.034483" lon="-4.395467">
        <ele>3495.0</ele>
        <time>2017-05-24T13:53:08Z</time>
      </trkpt>
      <trkpt lat="43.034450" lon="-4.395433">
        <ele>3495.0</ele>
        <time>2017-05-24T13:53:09Z</time>
      </trkpt>
      <trkpt lat="43.034417" lon="-4.395400">
        <ele>3495.0</ele>
        <time>2017-05-24T13:53:10Z</time>
      </trkpt>
      <trkpt lat="43.034383" lon="-4.395367">
        <ele>3495.0</ele>
        <time>2017-05-24T13:53:11Z</time>
      </trkpt>
      <trkpt lat="43.034350" lon="-4.395317">
        <ele>3497.0</ele>
        <time>2017-05-24T13:53:12Z</time>
      </trkpt>
      <trkpt lat="43.034333" lon="-4.395283">
        <ele>3497.0</ele>
        <time>2017-05-24T13:53:13Z</time>
      </trkpt>
      <trkpt lat="43.034300" lon="-4.395233">
        <ele>3498.0</ele>
        <time>2017-05-24T13:53:14Z</time>
      </trkpt>
      <trkpt lat="43.034250" lon="-4.395167">
        <ele>3498.0</ele>
        <time>2017-05-24T13:53:15Z</time>
      </trkpt>
      <trkpt lat="43.034217" lon="-4.395100">
        <ele>3500.0</ele>
        <time>2017-05-24T13:53:16Z</time>
      </trkpt>
      <trkpt lat="43.034183" lon="-4.395033">
        <ele>3503.0</ele>
        <time>2017-05-24T13:53:17Z</time>
      </trkpt>
      <trkpt lat="43.034167" lon="-4.394967">
        <ele>3506.0</ele>
        <time>2017-05-24T13:53:18Z</time>
      </trkpt>
      <trkpt lat="43.034150" lon="-4.394900">
        <ele>3509.0</ele>
        <time>2017-05-24T13:53:19Z</time>
      </trkpt>
      <trkpt lat="43.034133" lon="-4.394817">
        <ele>3512.0</ele>
        <time>2017-05-24T13:53:20Z</time>
      </trkpt>
      <trkpt lat="43.034133" lon="-4.394733">
        <ele>3515.0</ele>
        <time>2017-05-24T13:53:21Z</time>
      </trkpt>
      <trkpt lat="43.034133" lon="-4.394667">
        <ele>3517.0</ele>
        <time>2017-05-24T13:53:22Z</time>
      </trkpt>
      <trkpt lat="43.034117" lon="-4.394583">
        <ele>3520.0</ele>
        <time>2017-05-24T13:53:23Z</time>
      </trkpt>
      <trkpt lat="43.034117" lon="-4.394500">
        <ele>3521.0</ele>
        <time>2017-05-24T13:53:24Z</time>
      </trkpt>
      <trkpt lat="43.034133" lon="-4.394417">
        <ele>3523.0</ele>
        <time>2017-05-24T13:53:25Z</time>
      </trkpt>
      <trkpt lat="43.034167" lon="-4.394300">
        <ele>3524.0</ele>
        <time>2017-05-24T13:53:26Z</time>
      </trkpt>
      <trkpt lat="43.034200" lon="-4.394183">
        <ele>3526.0</ele>
        <time>2017-05-24T13:53:27Z</time>
      </trkpt>
      <trkpt lat="43.034250" lon="-4.394083">
        <ele>3528.0</ele>
        <time>2017-05-24T13:53:28Z</time>
      </trkpt>
      <trkpt lat="43.034300" lon="-4.393967">
        <ele>3529.0</ele>
        <time>2017-05-24T13:53:29Z</time>
      </trkpt>
      <trkpt lat="43.034367" lon="-4.393867">
        <ele>3531.0</ele>
        <time>2017-05-24T13:53:30Z</time>
      </trkpt>
      <trkpt lat="43.034433" lon="-4.393767">
        <ele>3534.0</ele>
        <time>2017-05-24T13:53:31Z</time>
      </trkpt>
      <trkpt lat="43.034517" lon="-4.393683">
        <ele>3535.0</ele>
        <time>2017-05-24T13:53:32Z</time>
      </trkpt>
      <trkpt lat="43.034600" lon="-4.393617">
        <ele>3537.0</ele>
        <time>2017-05-24T13:53:33Z</time>
      </trkpt>
      <trkpt lat="43.034700" lon="-4.393583">
        <ele>3538.0</ele>
        <time>2017-05-24T13:53:34Z</time>
      </trkpt>
      <trkpt lat="43.034800" lon="-4.393533">
        <ele>3540.0</ele>
        <time>2017-05-24T13:53:35Z</time>
      </trkpt>
      <trkpt lat="43.034900" lon="-4.393517">
        <ele>3541.0</ele>
        <time>2017-05-24T13:53:36Z</time>
      </trkpt>
      <trkpt lat="43.035000" lon="-4.393517">
        <ele>3541.0</ele>
        <time>2017-05-24T13:53:37Z</time>
      </trkpt>
      <trkpt lat="43.035100" lon="-4.393533">
        <ele>3542.0</ele>
        <time>2017-05-24T13:53:38Z</time>
      </trkpt>
      <trkpt lat="43.035200" lon="-4.393583">
        <ele>3542.0</ele>
        <time>2017-05-24T13:53:39Z</time>
      </trkpt>
      <trkpt lat="43.035283" lon="-4.393633">
        <ele>3542.0</ele>
        <time>2017-05-24T13:53:40Z</time>
      </trkpt>
      <trkpt lat="43.035367" lon="-4.393700">
        <ele>3542.0</ele>
        <time>2017-05-24T13:53:41Z</time>
      </trkpt>
      <trkpt lat="43.035433" lon="-4.393783">
        <ele>3541.0</ele>
        <time>2017-05-24T13:53:42Z</time>
      </trkpt>
      <trkpt lat="43.035467" lon="-4.393883">
        <ele>3540.0</ele>
        <time>2017-05-24T13:53:43Z</time>
      </trkpt>
      <trkpt lat="43.035500" lon="-4.393967">
        <ele>3539.0</ele>
        <time>2017-05-24T13:53:44Z</time>
      </trkpt>
      <trkpt lat="43.035517" lon="-4.394067">
        <ele>3539.0</ele>
        <time>2017-05-24T13:53:45Z</time>
      </trkpt>
      <trkpt lat="43.035500" lon="-4.394150">
        <ele>3539.0</ele>
        <time>2017-05-24T13:53:46Z</time>
      </trkpt>
      <trkpt lat="43.035483" lon="-4.394217">
        <ele>3539.0</ele>
        <time>2017-05-24T13:53:47Z</time>
      </trkpt>
      <trkpt lat="43.035450" lon="-4.394283">
        <ele>3539.0</ele>
        <time>2017-05-24T13:53:48Z</time>
      </trkpt>
      <trkpt lat="43.035417" lon="-4.394317">
        <ele>3539.0</ele>
        <time>2017-05-24T13:53:49Z</time>
      </trkpt>
      <trkpt lat="43.035383" lon="-4.394350">
        <ele>3539.0</ele>
        <time>2017-05-24T13:53:50Z</time>
      </trkpt>
      <trkpt lat="43.035333" lon="-4.394383">
        <ele>3538.0</ele>
        <time>2017-05-24T13:53:51Z</time>
      </trkpt>
      <trkpt lat="43.035283" lon="-4.394400">
        <ele>3537.0</ele>
        <time>2017-05-24T13:53:52Z</time>
      </trkpt>
      <trkpt lat="43.035217" lon="-4.394417">
        <ele>3536.0</ele>
        <time>2017-05-24T13:53:53Z</time>
      </trkpt>
      <trkpt lat="43.035133" lon="-4.394417">
        <ele>3537.0</ele>
        <time>2017-05-24T13:53:54Z</time>
      </trkpt>
      <trkpt lat="43.035067" lon="-4.394433">
        <ele>3537.0</ele>
        <time>2017-05-24T13:53:55Z</time>
      </trkpt>
      <trkpt lat="43.035017" lon="-4.394433">
        <ele>3537.0</ele>
        <time>2017-05-24T13:53:56Z</time>
      </trkpt>
      <trkpt lat="43.034967" lon="-4.394433">
        <ele>3536.0</ele>
        <time>2017-05-24T13:53:57Z</time>
      </trkpt>
      <trkpt lat="43.034933" lon="-4.394417">
        <ele>3535.0</ele>
        <time>2017-05-24T13:53:58Z</time>
      </trkpt>
      <trkpt lat="43.034883" lon="-4.394417">
        <ele>3532.0</ele>
        <time>2017-05-24T13:53:59Z</time>
      </trkpt>
      <trkpt lat="43.034833" lon="-4.394400">
        <ele>3529.0</ele>
        <time>2017-05-24T13:54:00Z</time>
      </trkpt>
      <trkpt lat="43.034767" lon="-4.394383">
        <ele>3527.0</ele>
        <time>2017-05-24T13:54:01Z</time>
      </trkpt>
      <trkpt lat="43.034700" lon="-4.394367">
        <ele>3527.0</ele>
        <time>2017-05-24T13:54:02Z</time>
      </trkpt>
      <trkpt lat="43.034617" lon="-4.394333">
        <ele>3528.0</ele>
        <time>2017-05-24T13:54:03Z</time>
      </trkpt>
      <trkpt lat="43.034567" lon="-4.394300">
        <ele>3531.0</ele>
        <time>2017-05-24T13:54:04Z</time>
      </trkpt>
      <trkpt lat="43.034517" lon="-4.394267">
        <ele>3534.0</ele>
        <time>2017-05-24T13:54:05Z</time>
      </trkpt>
      <trkpt lat="43.034467" lon="-4.394217">
        <ele>3536.0</ele>
        <time>2017-05-24T13:54:06Z</time>
      </trkpt>
      <trkpt lat="43.034417" lon="-4.394183">
        <ele>3538.0</ele>
        <time>2017-05-24T13:54:07Z</time>
      </trkpt>
      <trkpt lat="43.034367" lon="-4.394117">
        <ele>3539.0</ele>
        <time>2017-05-24T13:54:08Z</time>
      </trkpt>
      <trkpt lat="43.034333" lon="-4.394033">
        <ele>3541.0</ele>
        <time>2017-05-24T13:54:09Z</time>
      </trkpt>
      <trkpt lat="43.034300" lon="-4.393933">
        <ele>3543.0</ele>
        <time>2017-05-24T13:54:10Z</time>
      </trkpt>
      <trkpt lat="43.034300" lon="-4.393817">
        <ele>3545.0</ele>
        <time>2017-05-24T13:54:11Z</time>
      </trkpt>
      <trkpt lat="43.034283" lon="-4.393700">
        <ele>3547.0</ele>
        <time>2017-05-24T13:54:12Z</time>
      </trkpt>
      <trkpt lat="43.034283" lon="-4.393600">
        <ele>3549.0</ele>
        <time>2017-05-24T13:54:13Z</time>
      </trkpt>
      <trkpt lat="43.034267" lon="-4.393467">
        <ele>3549.0</ele>
        <time>2017-05-24T13:54:14Z</time>
      </trkpt>
      <trkpt lat="43.034250" lon="-4.393333">
        <ele>3550.0</ele>
        <time>2017-05-24T13:54:15Z</time>
      </trkpt>
      <trkpt lat="43.034250" lon="-4.393183">
        <ele>3551.0</ele>
        <time>2017-05-24T13:54:16Z</time>
      </trkpt>
      <trkpt lat="43.034283" lon="-4.393033">
        <ele>3552.0</ele>
        <time>2017-05-24T13:54:17Z</time>
      </trkpt>
      <trkpt lat="43.034350" lon="-4.392917">
        <ele>3553.0</ele>
        <time>2017-05-24T13:54:18Z</time>
      </trkpt>
      <trkpt lat="43.034417" lon="-4.392817">
        <ele>3555.0</ele>
        <time>2017-05-24T13:54:19Z</time>
      </trkpt>
      <trkpt lat="43.034500" lon="-4.392750">
        <ele>3557.0</ele>
        <time>2017-05-24T13:54:20Z</time>
      </trkpt>
      <trkpt lat="43.034583" lon="-4.392683">
        <ele>3558.0</ele>
        <time>2017-05-24T13:54:21Z</time>
      </trkpt>
      <trkpt lat="43.034667" lon="-4.392633">
        <ele>3559.0</ele>
        <time>2017-05-24T13:54:22Z</time>
      </trkpt>
      <trkpt lat="43.034750" lon="-4.392600">
        <ele>3561.0</ele>
        <time>2017-05-24T13:54:23Z</time>
      </trkpt>
      <trkpt lat="43.034850" lon="-4.392550">
        <ele>3562.0</ele>
        <time>2017-05-24T13:54:24Z</time>
      </trkpt>
      <trkpt lat="43.034933" lon="-4.392517">
        <ele>3562.0</ele>
        <time>2017-05-24T13:54:25Z</time>
      </trkpt>
      <trkpt lat="43.035033" lon="-4.392500">
        <ele>3563.0</ele>
        <time>2017-05-24T13:54:26Z</time>
      </trkpt>
      <trkpt lat="43.035117" lon="-4.392483">
        <ele>3562.0</ele>
        <time>2017-05-24T13:54:27Z</time>
      </trkpt>
      <trkpt lat="43.035217" lon="-4.392500">
        <ele>3560.0</ele>
        <time>2017-05-24T13:54:28Z</time>
      </trkpt>
      <trkpt lat="43.035317" lon="-4.392533">
        <ele>3559.0</ele>
        <time>2017-05-24T13:54:29Z</time>
      </trkpt>
      <trkpt lat="43.035417" lon="-4.392583">
        <ele>3557.0</ele>
        <time>2017-05-24T13:54:30Z</time>
      </trkpt>
      <trkpt lat="43.035517" lon="-4.392650">
        <ele>3556.0</ele>
        <time>2017-05-24T13:54:31Z</time>
      </trkpt>
      <trkpt lat="43.035600" lon="-4.392717">
        <ele>3555.0</ele>
        <time>2017-05-24T13:54:32Z</time>
      </trkpt>
      <trkpt lat="43.035667" lon="-4.392783">
        <ele>3554.0</ele>
        <time>2017-05-24T13:54:33Z</time>
      </trkpt>
      <trkpt lat="43.035750" lon="-4.392850">
        <ele>3552.0</ele>
        <time>2017-05-24T13:54:34Z</time>
      </trkpt>
      <trkpt lat="43.035800" lon="-4.392933">
        <ele>3549.0</ele>
        <time>2017-05-24T13:54:35Z</time>
      </trkpt>
      <trkpt lat="43.035850" lon="-4.393017">
        <ele>3546.0</ele>
        <time>2017-05-24T13:54:36Z</time>
      </trkpt>
      <trkpt lat="43.035867" lon="-4.393133">
        <ele>3543.0</ele>
        <time>2017-05-24T13:54:37Z</time>
      </trkpt>
      <trkpt lat="43.035850" lon="-4.393250">
        <ele>3539.0</ele>
        <time>2017-05-24T13:54:38Z</time>
      </trkpt>
      <trkpt lat="43.035817" lon="-4.393333">
        <ele>3536.0</ele>
        <time>2017-05-24T13:54:39Z</time>
      </trkpt>
      <trkpt lat="43.035767" lon="-4.393417">
        <ele>3532.0</ele>
        <time>2017-05-24T13:54:40Z</time>
      </trkpt>
      <trkpt lat="43.035717" lon="-4.393483">
        <ele>3529.0</ele>
        <time>2017-05-24T13:54:41Z</time>
      </trkpt>
      <trkpt lat="43.035667" lon="-4.393567">
        <ele>3525.0</ele>
        <time>2017-05-24T13:54:42Z</time>
      </trkpt>
      <trkpt lat="43.035600" lon="-4.393633">
        <ele>3522.0</ele>
        <time>2017-05-24T13:54:43Z</time>
      </trkpt>
      <trkpt lat="43.035517" lon="-4.393717">
        <ele>3521.0</ele>
        <time>2017-05-24T13:54:44Z</time>
      </trkpt>
      <trkpt lat="43.035417" lon="-4.393783">
        <ele>3521.0</ele>
        <time>2017-05-24T13:54:45Z</time>
      </trkpt>
      <trkpt lat="43.035333" lon="-4.393833">
        <ele>3522.0</ele>
        <time>2017-05-24T13:54:46Z</time>
      </trkpt>
      <trkpt lat="43.035267" lon="-4.393867">
        <ele>3526.0</ele>
        <time>2017-05-24T13:54:47Z</time>
      </trkpt>
      <trkpt lat="43.035200" lon="-4.393900">
        <ele>3529.0</ele>
        <time>2017-05-24T13:54:48Z</time>
      </trkpt>
      <trkpt lat="43.035150" lon="-4.393933">
        <ele>3531.0</ele>
        <time>2017-05-24T13:54:49Z</time>
      </trkpt>
      <trkpt lat="43.035100" lon="-4.393950">
        <ele>3533.0</ele>
        <time>2017-05-24T13:54:50Z</time>
      </trkpt>
      <trkpt lat="43.035033" lon="-4.393950">
        <ele>3535.0</ele>
        <time>2017-05-24T13:54:51Z</time>
      </trkpt>
      <trkpt lat="43.034967" lon="-4.393967">
        <ele>3536.0</ele>
        <time>2017-05-24T13:54:52Z</time>
      </trkpt>
      <trkpt lat="43.034883" lon="-4.393950">
        <ele>3538.0</ele>
        <time>2017-05-24T13:54:53Z</time>
      </trkpt>
      <trkpt lat="43.034817" lon="-4.393933">
        <ele>3540.0</ele>
        <time>2017-05-24T13:54:54Z</time>
      </trkpt>
      <trkpt lat="43.034750" lon="-4.393900">
        <ele>3543.0</ele>
        <time>2017-05-24T13:54:55Z</time>
      </trkpt>
      <trkpt lat="43.034683" lon="-4.393867">
        <ele>3546.0</ele>
        <time>2017-05-24T13:54:56Z</time>
      </trkpt>
      <trkpt lat="43.034633" lon="-4.393833">
        <ele>3549.0</ele>
        <time>2017-05-24T13:54:57Z</time>
      </trkpt>
      <trkpt lat="43.034567" lon="-4.393783">
        <ele>3552.0</ele>
        <time>2017-05-24T13:54:58Z</time>
      </trkpt>
      <trkpt lat="43.034517" lon="-4.393733">
        <ele>3554.0</ele>
        <time>2017-05-24T13:54:59Z</time>
      </trkpt>
      <trkpt lat="43.034450" lon="-4.393667">
        <ele>3556.0</ele>
        <time>2017-05-24T13:55:00Z</time>
      </trkpt>
      <trkpt lat="43.034400" lon="-4.393583">
        <ele>3557.0</ele>
        <time>2017-05-24T13:55:01Z</time>
      </trkpt>
      <trkpt lat="43.034367" lon="-4.393483">
        <ele>3557.0</ele>
        <time>2017-05-24T13:55:02Z</time>
      </trkpt>
      <trkpt lat="43.034333" lon="-4.393350">
        <ele>3556.0</ele>
        <time>2017-05-24T13:55:03Z</time>
      </trkpt>
      <trkpt lat="43.034333" lon="-4.393200">
        <ele>3555.0</ele>
        <time>2017-05-24T13:55:04Z</time>
      </trkpt>
      <trkpt lat="43.034333" lon="-4.393067">
        <ele>3554.0</ele>
        <time>2017-05-24T13:55:05Z</time>
      </trkpt>
      <trkpt lat="43.034333" lon="-4.392933">
        <ele>3552.0</ele>
        <time>2017-05-24T13:55:06Z</time>
      </trkpt>
      <trkpt lat="43.034317" lon="-4.392800">
        <ele>3551.0</ele>
        <time>2017-05-24T13:55:07Z</time>
      </trkpt>
      <trkpt lat="43.034317" lon="-4.392667">
        <ele>3549.0</ele>
        <time>2017-05-24T13:55:08Z</time>
      </trkpt>
      <trkpt lat="43.034300" lon="-4.392517">
        <ele>3547.0</ele>
        <time>2017-05-24T13:55:09Z</time>
      </trkpt>
      <trkpt lat="43.034283" lon="-4.392350">
        <ele>3546.0</ele>
        <time>2017-05-24T13:55:10Z</time>
      </trkpt>
      <trkpt lat="43.034250" lon="-4.392217">
        <ele>3545.0</ele>
        <time>2017-05-24T13:55:11Z</time>
      </trkpt>
      <trkpt lat="43.034183" lon="-4.392100">
        <ele>3544.0</ele>
        <time>2017-05-24T13:55:12Z</time>
      </trkpt>
      <trkpt lat="43.034117" lon="-4.392017">
        <ele>3542.0</ele>
        <time>2017-05-24T13:55:13Z</time>
      </trkpt>
      <trkpt lat="43.034050" lon="-4.391950">
        <ele>3540.0</ele>
        <time>2017-05-24T13:55:14Z</time>
      </trkpt>
      <trkpt lat="43.033967" lon="-4.391883">
        <ele>3537.0</ele>
        <time>2017-05-24T13:55:15Z</time>
      </trkpt>
      <trkpt lat="43.033867" lon="-4.391817">
        <ele>3534.0</ele>
        <time>2017-05-24T13:55:16Z</time>
      </trkpt>
      <trkpt lat="43.033783" lon="-4.391750">
        <ele>3532.0</ele>
        <time>2017-05-24T13:55:17Z</time>
      </trkpt>
      <trkpt lat="43.033717" lon="-4.391683">
        <ele>3529.0</ele>
        <time>2017-05-24T13:55:18Z</time>
      </trkpt>
      <trkpt lat="43.033650" lon="-4.391600">
        <ele>3527.0</ele>
        <time>2017-05-24T13:55:19Z</time>
      </trkpt>
      <trkpt lat="43.033583" lon="-4.391533">
        <ele>3524.0</ele>
        <time>2017-05-24T13:55:20Z</time>
      </trkpt>
      <trkpt lat="43.033500" lon="-4.391483">
        <ele>3521.0</ele>
        <time>2017-05-24T13:55:21Z</time>
      </trkpt>
      <trkpt lat="43.033417" lon="-4.391433">
        <ele>3517.0</ele>
        <time>2017-05-24T13:55:22Z</time>
      </trkpt>
      <trkpt lat="43.033350" lon="-4.391367">
        <ele>3514.0</ele>
        <time>2017-05-24T13:55:23Z</time>
      </trkpt>
      <trkpt lat="43.033267" lon="-4.391317">
        <ele>3511.0</ele>
        <time>2017-05-24T13:55:24Z</time>
      </trkpt>
      <trkpt lat="43.033200" lon="-4.391250">
        <ele>3507.0</ele>
        <time>2017-05-24T13:55:25Z</time>
      </trkpt>
      <trkpt lat="43.033117" lon="-4.391200">
        <ele>3503.0</ele>
        <time>2017-05-24T13:55:26Z</time>
      </trkpt>
      <trkpt lat="43.033033" lon="-4.391167">
        <ele>3498.0</ele>
        <time>2017-05-24T13:55:27Z</time>
      </trkpt>
      <trkpt lat="43.032933" lon="-4.391150">
        <ele>3493.0</ele>
        <time>2017-05-24T13:55:28Z</time>
      </trkpt>
      <trkpt lat="43.032833" lon="-4.391133">
        <ele>3488.0</ele>
        <time>2017-05-24T13:55:29Z</time>
      </trkpt>
      <trkpt lat="43.032733" lon="-4.391083">
        <ele>3484.0</ele>
        <time>2017-05-24T13:55:30Z</time>
      </trkpt>
      <trkpt lat="43.032617" lon="-4.391017">
        <ele>3480.0</ele>
        <time>2017-05-24T13:55:31Z</time>
      </trkpt>
      <trkpt lat="43.032517" lon="-4.390950">
        <ele>3477.0</ele>
        <time>2017-05-24T13:55:32Z</time>
      </trkpt>
      <trkpt lat="43.032433" lon="-4.390867">
        <ele>3474.0</ele>
        <time>2017-05-24T13:55:33Z</time>
      </trkpt>
      <trkpt lat="43.032317" lon="-4.390800">
        <ele>3470.0</ele>
        <time>2017-05-24T13:55:34Z</time>
      </trkpt>
      <trkpt lat="43.032217" lon="-4.390717">
        <ele>3467.0</ele>
        <time>2017-05-24T13:55:35Z</time>
      </trkpt>
      <trkpt lat="43.032133" lon="-4.390633">
        <ele>3464.0</ele>
        <time>2017-05-24T13:55:36Z</time>
      </trkpt>
      <trkpt lat="43.032033" lon="-4.390533">
        <ele>3460.0</ele>
        <time>2017-05-24T13:55:37Z</time>
      </trkpt>
      <trkpt lat="43.031950" lon="-4.390433">
        <ele>3457.0</ele>
        <time>2017-05-24T13:55:38Z</time>
      </trkpt>
      <trkpt lat="43.031850" lon="-4.390317">
        <ele>3453.0</ele>
        <time>2017-05-24T13:55:39Z</time>
      </trkpt>
      <trkpt lat="43.031750" lon="-4.390233">
        <ele>3450.0</ele>
        <time>2017-05-24T13:55:40Z</time>
      </trkpt>
      <trkpt lat="43.031650" lon="-4.390133">
        <ele>3447.0</ele>
        <time>2017-05-24T13:55:41Z</time>
      </trkpt>
      <trkpt lat="43.031567" lon="-4.390050">
        <ele>3444.0</ele>
        <time>2017-05-24T13:55:42Z</time>
      </trkpt>
      <trkpt lat="43.031483" lon="-4.389950">
        <ele>3440.0</ele>
        <time>2017-05-24T13:55:43Z</time>
      </trkpt>
      <trkpt lat="43.031400" lon="-4.389850">
        <ele>3436.0</ele>
        <time>2017-05-24T13:55:44Z</time>
      </trkpt>
      <trkpt lat="43.031317" lon="-4.389767">
        <ele>3433.0</ele>
        <time>2017-05-24T13:55:45Z</time>
      </trkpt>
      <trkpt lat="43.031217" lon="-4.389700">
        <ele>3429.0</ele>
        <time>2017-05-24T13:55:46Z</time>
      </trkpt>
      <trkpt lat="43.031133" lon="-4.389600">
        <ele>3427.0</ele>
        <time>2017-05-24T13:55:47Z</time>
      </trkpt>
      <trkpt lat="43.031067" lon="-4.389517">
        <ele>3425.0</ele>
        <time>2017-05-24T13:55:48Z</time>
      </trkpt>
      <trkpt lat="43.030983" lon="-4.389450">
        <ele>3423.0</ele>
        <time>2017-05-24T13:55:49Z</time>
      </trkpt>
      <trkpt lat="43.030917" lon="-4.389383">
        <ele>3421.0</ele>
        <time>2017-05-24T13:55:50Z</time>
      </trkpt>
      <trkpt lat="43.030833" lon="-4.389300">
        <ele>3419.0</ele>
        <time>2017-05-24T13:55:51Z</time>
      </trkpt>
      <trkpt lat="43.030750" lon="-4.389233">
        <ele>3417.0</ele>
        <time>2017-05-24T13:55:52Z</time>
      </trkpt>
      <trkpt lat="43.030667" lon="-4.389167">
        <ele>3415.0</ele>
        <time>2017-05-24T13:55:53Z</time>
      </trkpt>
      <trkpt lat="43.030583" lon="-4.389133">
        <ele>3413.0</ele>
        <time>2017-05-24T13:55:54Z</time>
      </trkpt>
      <trkpt lat="43.030483" lon="-4.389083">
        <ele>3412.0</ele>
        <time>2017-05-24T13:55:55Z</time>
      </trkpt>
      <trkpt lat="43.030383" lon="-4.389017">
        <ele>3410.0</ele>
        <time>2017-05-24T13:55:56Z</time>
      </trkpt>
      <trkpt lat="43.030300" lon="-4.388950">
        <ele>3410.0</ele>
        <time>2017-05-24T13:55:57Z</time>
      </trkpt>
      <trkpt lat="43.030217" lon="-4.388933">
        <ele>3410.0</ele>
        <time>2017-05-24T13:55:58Z</time>
      </trkpt>
      <trkpt lat="43.030167" lon="-4.388933">
        <ele>3410.0</ele>
        <time>2017-05-24T13:55:59Z</time>
      </trkpt>
      <trkpt lat="43.030133" lon="-4.388917">
        <ele>3409.0</ele>
        <time>2017-05-24T13:56:00Z</time>
      </trkpt>
      <trkpt lat="43.030100" lon="-4.388883">
        <ele>3407.0</ele>
        <time>2017-05-24T13:56:01Z</time>
      </trkpt>
      <trkpt lat="43.030067" lon="-4.388833">
        <ele>3403.0</ele>
        <time>2017-05-24T13:56:02Z</time>
      </trkpt>
      <trkpt lat="43.030000" lon="-4.388783">
        <ele>3399.0</ele>
        <time>2017-05-24T13:56:03Z</time>
      </trkpt>
      <trkpt lat="43.029933" lon="-4.388733">
        <ele>3395.0</ele>
        <time>2017-05-24T13:56:04Z</time>
      </trkpt>
      <trkpt lat="43.029833" lon="-4.388700">
        <ele>3393.0</ele>
        <time>2017-05-24T13:56:05Z</time>
      </trkpt>
      <trkpt lat="43.029733" lon="-4.388667">
        <ele>3392.0</ele>
        <time>2017-05-24T13:56:06Z</time>
      </trkpt>
      <trkpt lat="43.029633" lon="-4.388650">
        <ele>3391.0</ele>
        <time>2017-05-24T13:56:07Z</time>
      </trkpt>
      <trkpt lat="43.029550" lon="-4.388633">
        <ele>3391.0</ele>
        <time>2017-05-24T13:56:08Z</time>
      </trkpt>
      <trkpt lat="43.029450" lon="-4.388617">
        <ele>3391.0</ele>
        <time>2017-05-24T13:56:09Z</time>
      </trkpt>
      <trkpt lat="43.029367" lon="-4.388583">
        <ele>3391.0</ele>
        <time>2017-05-24T13:56:10Z</time>
      </trkpt>
      <trkpt lat="43.029283" lon="-4.388550">
        <ele>3392.0</ele>
        <time>2017-05-24T13:56:11Z</time>
      </trkpt>
      <trkpt lat="43.029217" lon="-4.388517">
        <ele>3393.0</ele>
        <time>2017-05-24T13:56:12Z</time>
      </trkpt>
      <trkpt lat="43.029150" lon="-4.388500">
        <ele>3393.0</ele>
        <time>2017-05-24T13:56:13Z</time>
      </trkpt>
      <trkpt lat="43.029083" lon="-4.388450">
        <ele>3392.0</ele>
        <time>2017-05-24T13:56:14Z</time>
      </trkpt>
      <trkpt lat="43.029033" lon="-4.388417">
        <ele>3390.0</ele>
        <time>2017-05-24T13:56:15Z</time>
      </trkpt>
      <trkpt lat="43.028967" lon="-4.388383">
        <ele>3388.0</ele>
        <time>2017-05-24T13:56:16Z</time>
      </trkpt>
      <trkpt lat="43.028883" lon="-4.388333">
        <ele>3386.0</ele>
        <time>2017-05-24T13:56:17Z</time>
      </trkpt>
      <trkpt lat="43.028800" lon="-4.388283">
        <ele>3384.0</ele>
        <time>2017-05-24T13:56:18Z</time>
      </trkpt>
      <trkpt lat="43.028717" lon="-4.388233">
        <ele>3382.0</ele>
        <time>2017-05-24T13:56:19Z</time>
      </trkpt>
      <trkpt lat="43.028650" lon="-4.388200">
        <ele>3381.0</ele>
        <time>2017-05-24T13:56:20Z</time>
      </trkpt>
      <trkpt lat="43.028567" lon="-4.388150">
        <ele>3379.0</ele>
        <time>2017-05-24T13:56:21Z</time>
      </trkpt>
      <trkpt lat="43.028483" lon="-4.388083">
        <ele>3377.0</ele>
        <time>2017-05-24T13:56:22Z</time>
      </trkpt>
      <trkpt lat="43.028383" lon="-4.388000">
        <ele>3376.0</ele>
        <time>2017-05-24T13:56:23Z</time>
      </trkpt>
      <trkpt lat="43.028283" lon="-4.387950">
        <ele>3376.0</ele>
        <time>2017-05-24T13:56:24Z</time>
      </trkpt>
      <trkpt lat="43.028200" lon="-4.387883">
        <ele>3376.0</ele>
        <time>2017-05-24T13:56:25Z</time>
      </trkpt>
      <trkpt lat="43.028117" lon="-4.387833">
        <ele>3378.0</ele>
        <time>2017-05-24T13:56:26Z</time>
      </trkpt>
      <trkpt lat="43.028017" lon="-4.387767">
        <ele>3379.0</ele>
        <time>2017-05-24T13:56:27Z</time>
      </trkpt>
      <trkpt lat="43.027933" lon="-4.387683">
        <ele>3380.0</ele>
        <time>2017-05-24T13:56:28Z</time>
      </trkpt>
      <trkpt lat="43.027833" lon="-4.387633">
        <ele>3381.0</ele>
        <time>2017-05-24T13:56:29Z</time>
      </trkpt>
      <trkpt lat="43.027750" lon="-4.387600">
        <ele>3382.0</ele>
        <time>2017-05-24T13:56:30Z</time>
      </trkpt>
      <trkpt lat="43.027667" lon="-4.387583">
        <ele>3381.0</ele>
        <time>2017-05-24T13:56:31Z</time>
      </trkpt>
      <trkpt lat="43.027583" lon="-4.387550">
        <ele>3381.0</ele>
        <time>2017-05-24T13:56:32Z</time>
      </trkpt>
      <trkpt lat="43.027483" lon="-4.387500">
        <ele>3380.0</ele>
        <time>2017-05-24T13:56:33Z</time>
      </trkpt>
      <trkpt lat="43.027400" lon="-4.387450">
        <ele>3378.0</ele>
        <time>2017-05-24T13:56:34Z</time>
      </trkpt>
      <trkpt lat="43.027317" lon="-4.387383">
        <ele>3376.0</ele>
        <time>2017-05-24T13:56:35Z</time>
      </trkpt>
      <trkpt lat="43.027233" lon="-4.387317">
        <ele>3375.0</ele>
        <time>2017-05-24T13:56:36Z</time>
      </trkpt>
      <trkpt lat="43.027150" lon="-4.387283">
        <ele>3373.0</ele>
        <time>2017-05-24T13:56:37Z</time>
      </trkpt>
      <trkpt lat="43.027083" lon="-4.387250">
        <ele>3372.0</ele>
        <time>2017-05-24T13:56:38Z</time>
      </trkpt>
      <trkpt lat="43.027000" lon="-4.387217">
        <ele>3371.0</ele>
        <time>2017-05-24T13:56:39Z</time>
      </trkpt>
      <trkpt lat="43.026917" lon="-4.387167">
        <ele>3370.0</ele>
        <time>2017-05-24T13:56:40Z</time>
      </trkpt>
      <trkpt lat="43.026817" lon="-4.387100">
        <ele>3368.0</ele>
        <time>2017-05-24T13:56:41Z</time>
      </trkpt>
      <trkpt lat="43.026717" lon="-4.387033">
        <ele>3368.0</ele>
        <time>2017-05-24T13:56:42Z</time>
      </trkpt>
      <trkpt lat="43.026617" lon="-4.386967">
        <ele>3368.0</ele>
        <time>2017-05-24T13:56:43Z</time>
      </trkpt>
      <trkpt lat="43.026533" lon="-4.386917">
        <ele>3369.0</ele>
        <time>2017-05-24T13:56:44Z</time>
      </trkpt>
      <trkpt lat="43.026450" lon="-4.386900">
        <ele>3370.0</ele>
        <time>2017-05-24T13:56:45Z</time>
      </trkpt>
      <trkpt lat="43.026383" lon="-4.386883">
        <ele>3372.0</ele>
        <time>2017-05-24T13:56:46Z</time>
      </trkpt>
      <trkpt lat="43.026333" lon="-4.386867">
        <ele>3373.0</ele>
        <time>2017-05-24T13:56:47Z</time>
      </trkpt>
      <trkpt lat="43.026283" lon="-4.386850">
        <ele>3373.0</ele>
        <time>2017-05-24T13:56:48Z</time>
      </trkpt>
      <trkpt lat="43.026217" lon="-4.386850">
        <ele>3372.0</ele>
        <time>2017-05-24T13:56:49Z</time>
      </trkpt>
      <trkpt lat="43.026133" lon="-4.386850">
        <ele>3370.0</ele>
        <time>2017-05-24T13:56:50Z</time>
      </trkpt>
      <trkpt lat="43.026033" lon="-4.386883">
        <ele>3370.0</ele>
        <time>2017-05-24T13:56:51Z</time>
      </trkpt>
      <trkpt lat="43.025950" lon="-4.386900">
        <ele>3370.0</ele>
        <time>2017-05-24T13:56:52Z</time>
      </trkpt>
      <trkpt lat="43.025867" lon="-4.386900">
        <ele>3369.0</ele>
        <time>2017-05-24T13:56:53Z</time>
      </trkpt>
      <trkpt lat="43.025767" lon="-4.386900">
        <ele>3369.0</ele>
        <time>2017-05-24T13:56:54Z</time>
      </trkpt>
      <trkpt lat="43.025683" lon="-4.386883">
        <ele>3369.0</ele>
        <time>2017-05-24T13:56:55Z</time>
      </trkpt>
      <trkpt lat="43.025583" lon="-4.386883">
        <ele>3371.0</ele>
        <time>2017-05-24T13:56:56Z</time>
      </trkpt>
      <trkpt lat="43.025500" lon="-4.386883">
        <ele>3373.0</ele>
        <time>2017-05-24T13:56:57Z</time>
      </trkpt>
      <trkpt lat="43.025433" lon="-4.386883">
        <ele>3375.0</ele>
        <time>2017-05-24T13:56:58Z</time>
      </trkpt>
      <trkpt lat="43.025367" lon="-4.386883">
        <ele>3377.0</ele>
        <time>2017-05-24T13:56:59Z</time>
      </trkpt>
      <trkpt lat="43.025317" lon="-4.386883">
        <ele>3378.0</ele>
        <time>2017-05-24T13:57:00Z</time>
      </trkpt>
      <trkpt lat="43.025250" lon="-4.386883">
        <ele>3379.0</ele>
        <time>2017-05-24T13:57:01Z</time>
      </trkpt>
      <trkpt lat="43.025183" lon="-4.386850">
        <ele>3380.0</ele>
        <time>2017-05-24T13:57:02Z</time>
      </trkpt>
      <trkpt lat="43.025133" lon="-4.386800">
        <ele>3379.0</ele>
        <time>2017-05-24T13:57:03Z</time>
      </trkpt>
      <trkpt lat="43.025100" lon="-4.386700">
        <ele>3379.0</ele>
        <time>2017-05-24T13:57:04Z</time>
      </trkpt>
      <trkpt lat="43.025083" lon="-4.386567">
        <ele>3379.0</ele>
        <time>2017-05-24T13:57:05Z</time>
      </trkpt>
      <trkpt lat="43.025100" lon="-4.386433">
        <ele>3380.0</ele>
        <time>2017-05-24T13:57:06Z</time>
      </trkpt>
      <trkpt lat="43.025133" lon="-4.386300">
        <ele>3383.0</ele>
        <time>2017-05-24T13:57:07Z</time>
      </trkpt>
      <trkpt lat="43.025150" lon="-4.386200">
        <ele>3386.0</ele>
        <time>2017-05-24T13:57:08Z</time>
      </trkpt>
      <trkpt lat="43.025167" lon="-4.386083">
        <ele>3387.0</ele>
        <time>2017-05-24T13:57:09Z</time>
      </trkpt>
      <trkpt lat="43.025183" lon="-4.385983">
        <ele>3388.0</ele>
        <time>2017-05-24T13:57:10Z</time>
      </trkpt>
      <trkpt lat="43.025217" lon="-4.385883">
        <ele>3389.0</ele>
        <time>2017-05-24T13:57:11Z</time>
      </trkpt>
      <trkpt lat="43.025267" lon="-4.385767">
        <ele>3390.0</ele>
        <time>2017-05-24T13:57:12Z</time>
      </trkpt>
      <trkpt lat="43.025350" lon="-4.385700">
        <ele>3392.0</ele>
        <time>2017-05-24T13:57:13Z</time>
      </trkpt>
      <trkpt lat="43.025433" lon="-4.385667">
        <ele>3393.0</ele>
        <time>2017-05-24T13:57:14Z</time>
      </trkpt>
      <trkpt lat="43.025500" lon="-4.385683">
        <ele>3395.0</ele>
        <time>2017-05-24T13:57:15Z</time>
      </trkpt>
      <trkpt lat="43.025567" lon="-4.385733">
        <ele>3395.0</ele>
        <time>2017-05-24T13:57:16Z</time>
      </trkpt>
      <trkpt lat="43.025633" lon="-4.385817">
        <ele>3395.0</ele>
        <time>2017-05-24T13:57:17Z</time>
      </trkpt>
      <trkpt lat="43.025683" lon="-4.385933">
        <ele>3395.0</ele>
        <time>2017-05-24T13:57:18Z</time>
      </trkpt>
      <trkpt lat="43.025717" lon="-4.386067">
        <ele>3396.0</ele>
        <time>2017-05-24T13:57:19Z</time>
      </trkpt>
      <trkpt lat="43.025733" lon="-4.386200">
        <ele>3398.0</ele>
        <time>2017-05-24T13:57:20Z</time>
      </trkpt>
      <trkpt lat="43.025733" lon="-4.386333">
        <ele>3400.0</ele>
        <time>2017-05-24T13:57:21Z</time>
      </trkpt>
      <trkpt lat="43.025717" lon="-4.386450">
        <ele>3401.0</ele>
        <time>2017-05-24T13:57:22Z</time>
      </trkpt>
      <trkpt lat="43.025683" lon="-4.386567">
        <ele>3401.0</ele>
        <time>2017-05-24T13:57:23Z</time>
      </trkpt>
      <trkpt lat="43.025633" lon="-4.386683">
        <ele>3401.0</ele>
        <time>2017-05-24T13:57:24Z</time>
      </trkpt>
      <trkpt lat="43.025567" lon="-4.386817">
        <ele>3401.0</ele>
        <time>2017-05-24T13:57:25Z</time>
      </trkpt>
      <trkpt lat="43.025500" lon="-4.386933">
        <ele>3403.0</ele>
        <time>2017-05-24T13:57:26Z</time>
      </trkpt>
      <trkpt lat="43.025450" lon="-4.387017">
        <ele>3405.0</ele>
        <time>2017-05-24T13:57:27Z</time>
      </trkpt>
      <trkpt lat="43.025417" lon="-4.387067">
        <ele>3405.0</ele>
        <time>2017-05-24T13:57:28Z</time>
      </trkpt>
      <trkpt lat="43.025383" lon="-4.387117">
        <ele>3405.0</ele>
        <time>2017-05-24T13:57:29Z</time>
      </trkpt>
      <trkpt lat="43.025317" lon="-4.387183">
        <ele>3403.0</ele>
        <time>2017-05-24T13:57:30Z</time>
      </trkpt>
      <trkpt lat="43.025233" lon="-4.387250">
        <ele>3400.0</ele>
        <time>2017-05-24T13:57:31Z</time>
      </trkpt>
      <trkpt lat="43.025133" lon="-4.387283">
        <ele>3398.0</ele>
        <time>2017-05-24T13:57:32Z</time>
      </trkpt>
      <trkpt lat="43.025017" lon="-4.387317">
        <ele>3399.0</ele>
        <time>2017-05-24T13:57:33Z</time>
      </trkpt>
      <trkpt lat="43.024933" lon="-4.387333">
        <ele>3401.0</ele>
        <time>2017-05-24T13:57:34Z</time>
      </trkpt>
      <trkpt lat="43.024850" lon="-4.387350">
        <ele>3403.0</ele>
        <time>2017-05-24T13:57:35Z</time>
      </trkpt>
      <trkpt lat="43.024783" lon="-4.387383">
        <ele>3404.0</ele>
        <time>2017-05-24T13:57:36Z</time>
      </trkpt>
      <trkpt lat="43.024700" lon="-4.387383">
        <ele>3404.0</ele>
        <time>2017-05-24T13:57:37Z</time>
      </trkpt>
      <trkpt lat="43.024617" lon="-4.387383">
        <ele>3402.0</ele>
        <time>2017-05-24T13:57:38Z</time>
      </trkpt>
      <trkpt lat="43.024517" lon="-4.387350">
        <ele>3402.0</ele>
        <time>2017-05-24T13:57:39Z</time>
      </trkpt>
      <trkpt lat="43.024400" lon="-4.387317">
        <ele>3402.0</ele>
        <time>2017-05-24T13:57:40Z</time>
      </trkpt>
      <trkpt lat="43.024317" lon="-4.387300">
        <ele>3404.0</ele>
        <time>2017-05-24T13:57:41Z</time>
      </trkpt>
      <trkpt lat="43.024217" lon="-4.387283">
        <ele>3407.0</ele>
        <time>2017-05-24T13:57:42Z</time>
      </trkpt>
      <trkpt lat="43.024133" lon="-4.387283">
        <ele>3409.0</ele>
        <time>2017-05-24T13:57:43Z</time>
      </trkpt>
      <trkpt lat="43.024050" lon="-4.387267">
        <ele>3412.0</ele>
        <time>2017-05-24T13:57:44Z</time>
      </trkpt>
      <trkpt lat="43.023967" lon="-4.387217">
        <ele>3414.0</ele>
        <time>2017-05-24T13:57:45Z</time>
      </trkpt>
      <trkpt lat="43.023883" lon="-4.387183">
        <ele>3416.0</ele>
        <time>2017-05-24T13:57:46Z</time>
      </trkpt>
      <trkpt lat="43.023817" lon="-4.387167">
        <ele>3420.0</ele>
        <time>2017-05-24T13:57:47Z</time>
      </trkpt>
      <trkpt lat="43.023767" lon="-4.387133">
        <ele>3420.0</ele>
        <time>2017-05-24T13:57:48Z</time>
      </trkpt>
      <trkpt lat="43.023700" lon="-4.387083">
        <ele>3422.0</ele>
        <time>2017-05-24T13:57:49Z</time>
      </trkpt>
      <trkpt lat="43.023650" lon="-4.387000">
        <ele>3423.0</ele>
        <time>2017-05-24T13:57:50Z</time>
      </trkpt>
      <trkpt lat="43.023600" lon="-4.386900">
        <ele>3425.0</ele>
        <time>2017-05-24T13:57:51Z</time>
      </trkpt>
      <trkpt lat="43.023583" lon="-4.386800">
        <ele>3427.0</ele>
        <time>2017-05-24T13:57:52Z</time>
      </trkpt>
      <trkpt lat="43.023567" lon="-4.386683">
        <ele>3429.0</ele>
        <time>2017-05-24T13:57:53Z</time>
      </trkpt>
      <trkpt lat="43.023583" lon="-4.386583">
        <ele>3431.0</ele>
        <time>2017-05-24T13:57:54Z</time>
      </trkpt>
      <trkpt lat="43.023617" lon="-4.386500">
        <ele>3432.0</ele>
        <time>2017-05-24T13:57:55Z</time>
      </trkpt>
      <trkpt lat="43.023633" lon="-4.386400">
        <ele>3434.0</ele>
        <time>2017-05-24T13:57:56Z</time>
      </trkpt>
      <trkpt lat="43.023667" lon="-4.386317">
        <ele>3434.0</ele>
        <time>2017-05-24T13:57:57Z</time>
      </trkpt>
      <trkpt lat="43.023700" lon="-4.386217">
        <ele>3435.0</ele>
        <time>2017-05-24T13:57:58Z</time>
      </trkpt>
      <trkpt lat="43.023750" lon="-4.386150">
        <ele>3436.0</ele>
        <time>2017-05-24T13:57:59Z</time>
      </trkpt>
      <trkpt lat="43.023817" lon="-4.386083">
        <ele>3437.0</ele>
        <time>2017-05-24T13:58:00Z</time>
      </trkpt>
      <trkpt lat="43.023883" lon="-4.386050">
        <ele>3438.0</ele>
        <time>2017-05-24T13:58:01Z</time>
      </trkpt>
      <trkpt lat="43.023950" lon="-4.386000">
        <ele>3439.0</ele>
        <time>2017-05-24T13:58:02Z</time>
      </trkpt>
      <trkpt lat="43.024033" lon="-4.385967">
        <ele>3440.0</ele>
        <time>2017-05-24T13:58:03Z</time>
      </trkpt>
      <trkpt lat="43.024117" lon="-4.385950">
        <ele>3441.0</ele>
        <time>2017-05-24T13:58:04Z</time>
      </trkpt>
      <trkpt lat="43.024200" lon="-4.385950">
        <ele>3443.0</ele>
        <time>2017-05-24T13:58:05Z</time>
      </trkpt>
      <trkpt lat="43.024283" lon="-4.385950">
        <ele>3445.0</ele>
        <time>2017-05-24T13:58:06Z</time>
      </trkpt>
      <trkpt lat="43.024367" lon="-4.385967">
        <ele>3446.0</ele>
        <time>2017-05-24T13:58:07Z</time>
      </trkpt>
      <trkpt lat="43.024433" lon="-4.386017">
        <ele>3447.0</ele>
        <time>2017-05-24T13:58:08Z</time>
      </trkpt>
      <trkpt lat="43.024517" lon="-4.386067">
        <ele>3449.0</ele>
        <time>2017-05-24T13:58:09Z</time>
      </trkpt>
      <trkpt lat="43.024583" lon="-4.386150">
        <ele>3451.0</ele>
        <time>2017-05-24T13:58:10Z</time>
      </trkpt>
      <trkpt lat="43.024617" lon="-4.386250">
        <ele>3453.0</ele>
        <time>2017-05-24T13:58:11Z</time>
      </trkpt>
      <trkpt lat="43.024633" lon="-4.386367">
        <ele>3456.0</ele>
        <time>2017-05-24T13:58:12Z</time>
      </trkpt>
      <trkpt lat="43.024617" lon="-4.386483">
        <ele>3458.0</ele>
        <time>2017-05-24T13:58:13Z</time>
      </trkpt>
      <trkpt lat="43.024583" lon="-4.386567">
        <ele>3461.0</ele>
        <time>2017-05-24T13:58:14Z</time>
      </trkpt>
      <trkpt lat="43.024533" lon="-4.386633">
        <ele>3463.0</ele>
        <time>2017-05-24T13:58:15Z</time>
      </trkpt>
      <trkpt lat="43.024450" lon="-4.386667">
        <ele>3464.0</ele>
        <time>2017-05-24T13:58:16Z</time>
      </trkpt>
      <trkpt lat="43.024367" lon="-4.386683">
        <ele>3466.0</ele>
        <time>2017-05-24T13:58:17Z</time>
      </trkpt>
      <trkpt lat="43.024300" lon="-4.386650">
        <ele>3469.0</ele>
        <time>2017-05-24T13:58:18Z</time>
      </trkpt>
      <trkpt lat="43.024233" lon="-4.386617">
        <ele>3472.0</ele>
        <time>2017-05-24T13:58:19Z</time>
      </trkpt>
      <trkpt lat="43.024183" lon="-4.386583">
        <ele>3473.0</ele>
        <time>2017-05-24T13:58:20Z</time>
      </trkpt>
      <trkpt lat="43.024117" lon="-4.386567">
        <ele>3474.0</ele>
        <time>2017-05-24T13:58:21Z</time>
      </trkpt>
      <trkpt lat="43.024033" lon="-4.386533">
        <ele>3474.0</ele>
        <time>2017-05-24T13:58:22Z</time>
      </trkpt>
      <trkpt lat="43.023967" lon="-4.386450">
        <ele>3475.0</ele>
        <time>2017-05-24T13:58:23Z</time>
      </trkpt>
      <trkpt lat="43.023917" lon="-4.386333">
        <ele>3476.0</ele>
        <time>2017-05-24T13:58:24Z</time>
      </trkpt>
      <trkpt lat="43.023900" lon="-4.386217">
        <ele>3476.0</ele>
        <time>2017-05-24T13:58:25Z</time>
      </trkpt>
      <trkpt lat="43.023900" lon="-4.386117">
        <ele>3477.0</ele>
        <time>2017-05-24T13:58:26Z</time>
      </trkpt>
      <trkpt lat="43.023883" lon="-4.386017">
        <ele>3478.0</ele>
        <time>2017-05-24T13:58:27Z</time>
      </trkpt>
      <trkpt lat="43.023883" lon="-4.385917">
        <ele>3479.0</ele>
        <time>2017-05-24T13:58:28Z</time>
      </trkpt>
      <trkpt lat="43.023883" lon="-4.385800">
        <ele>3479.0</ele>
        <time>2017-05-24T13:58:29Z</time>
      </trkpt>
      <trkpt lat="43.023900" lon="-4.385683">
        <ele>3478.0</ele>
        <time>2017-05-24T13:58:30Z</time>
      </trkpt>
      <trkpt lat="43.023950" lon="-4.385583">
        <ele>3478.0</ele>
        <time>2017-05-24T13:58:31Z</time>
      </trkpt>
      <trkpt lat="43.024033" lon="-4.385483">
        <ele>3478.0</ele>
        <time>2017-05-24T13:58:32Z</time>
      </trkpt>
      <trkpt lat="43.024083" lon="-4.385400">
        <ele>3478.0</ele>
        <time>2017-05-24T13:58:33Z</time>
      </trkpt>
      <trkpt lat="43.024150" lon="-4.385333">
        <ele>3479.0</ele>
        <time>2017-05-24T13:58:34Z</time>
      </trkpt>
      <trkpt lat="43.024200" lon="-4.385267">
        <ele>3479.0</ele>
        <time>2017-05-24T13:58:35Z</time>
      </trkpt>
      <trkpt lat="43.024267" lon="-4.385217">
        <ele>3479.0</ele>
        <time>2017-05-24T13:58:36Z</time>
      </trkpt>
      <trkpt lat="43.024350" lon="-4.385167">
        <ele>3478.0</ele>
        <time>2017-05-24T13:58:37Z</time>
      </trkpt>
      <trkpt lat="43.024433" lon="-4.385167">
        <ele>3477.0</ele>
        <time>2017-05-24T13:58:38Z</time>
      </trkpt>
      <trkpt lat="43.024533" lon="-4.385183">
        <ele>3475.0</ele>
        <time>2017-05-24T13:58:39Z</time>
      </trkpt>
      <trkpt lat="43.024617" lon="-4.385217">
        <ele>3475.0</ele>
        <time>2017-05-24T13:58:40Z</time>
      </trkpt>
      <trkpt lat="43.024700" lon="-4.385250">
        <ele>3475.0</ele>
        <time>2017-05-24T13:58:41Z</time>
      </trkpt>
      <trkpt lat="43.024783" lon="-4.385283">
        <ele>3475.0</ele>
        <time>2017-05-24T13:58:42Z</time>
      </trkpt>
      <trkpt lat="43.024850" lon="-4.385333">
        <ele>3474.0</ele>
        <time>2017-05-24T13:58:43Z</time>
      </trkpt>
      <trkpt lat="43.024917" lon="-4.385417">
        <ele>3473.0</ele>
        <time>2017-05-24T13:58:44Z</time>
      </trkpt>
      <trkpt lat="43.024983" lon="-4.385533">
        <ele>3473.0</ele>
        <time>2017-05-24T13:58:45Z</time>
      </trkpt>
      <trkpt lat="43.025033" lon="-4.385650">
        <ele>3473.0</ele>
        <time>2017-05-24T13:58:46Z</time>
      </trkpt>
      <trkpt lat="43.025050" lon="-4.385783">
        <ele>3474.0</ele>
        <time>2017-05-24T13:58:47Z</time>
      </trkpt>
      <trkpt lat="43.025050" lon="-4.385900">
        <ele>3475.0</ele>
        <time>2017-05-24T13:58:48Z</time>
      </trkpt>
      <trkpt lat="43.025033" lon="-4.386017">
        <ele>3475.0</ele>
        <time>2017-05-24T13:58:49Z</time>
      </trkpt>
      <trkpt lat="43.025000" lon="-4.386117">
        <ele>3475.0</ele>
        <time>2017-05-24T13:58:50Z</time>
      </trkpt>
      <trkpt lat="43.024950" lon="-4.386217">
        <ele>3474.0</ele>
        <time>2017-05-24T13:58:51Z</time>
      </trkpt>
      <trkpt lat="43.024900" lon="-4.386283">
        <ele>3474.0</ele>
        <time>2017-05-24T13:58:52Z</time>
      </trkpt>
      <trkpt lat="43.024817" lon="-4.386350">
        <ele>3474.0</ele>
        <time>2017-05-24T13:58:53Z</time>
      </trkpt>
      <trkpt lat="43.024750" lon="-4.386383">
        <ele>3474.0</ele>
        <time>2017-05-24T13:58:54Z</time>
      </trkpt>
      <trkpt lat="43.024667" lon="-4.386417">
        <ele>3474.0</ele>
        <time>2017-05-24T13:58:55Z</time>
      </trkpt>
      <trkpt lat="43.024583" lon="-4.386417">
        <ele>3474.0</ele>
        <time>2017-05-24T13:58:56Z</time>
      </trkpt>
      <trkpt lat="43.024500" lon="-4.386433">
        <ele>3475.0</ele>
        <time>2017-05-24T13:58:57Z</time>
      </trkpt>
      <trkpt lat="43.024417" lon="-4.386450">
        <ele>3475.0</ele>
        <time>2017-05-24T13:58:58Z</time>
      </trkpt>
      <trkpt lat="43.024333" lon="-4.386433">
        <ele>3476.0</ele>
        <time>2017-05-24T13:58:59Z</time>
      </trkpt>
      <trkpt lat="43.024233" lon="-4.386417">
        <ele>3476.0</ele>
        <time>2017-05-24T13:59:00Z</time>
      </trkpt>
      <trkpt lat="43.024167" lon="-4.386383">
        <ele>3478.0</ele>
        <time>2017-05-24T13:59:01Z</time>
      </trkpt>
      <trkpt lat="43.024100" lon="-4.386333">
        <ele>3479.0</ele>
        <time>2017-05-24T13:59:02Z</time>
      </trkpt>
      <trkpt lat="43.024050" lon="-4.386300">
        <ele>3479.0</ele>
        <time>2017-05-24T13:59:03Z</time>
      </trkpt>
      <trkpt lat="43.024000" lon="-4.386283">
        <ele>3480.0</ele>
        <time>2017-05-24T13:59:04Z</time>
      </trkpt>
      <trkpt lat="43.023933" lon="-4.386250">
        <ele>3479.0</ele>
        <time>2017-05-24T13:59:05Z</time>
      </trkpt>
      <trkpt lat="43.023867" lon="-4.386200">
        <ele>3478.0</ele>
        <time>2017-05-24T13:59:06Z</time>
      </trkpt>
      <trkpt lat="43.023800" lon="-4.386150">
        <ele>3478.0</ele>
        <time>2017-05-24T13:59:07Z</time>
      </trkpt>
      <trkpt lat="43.023717" lon="-4.386083">
        <ele>3478.0</ele>
        <time>2017-05-24T13:59:08Z</time>
      </trkpt>
      <trkpt lat="43.023633" lon="-4.386017">
        <ele>3479.0</ele>
        <time>2017-05-24T13:59:09Z</time>
      </trkpt>
      <trkpt lat="43.023550" lon="-4.385950">
        <ele>3480.0</ele>
        <time>2017-05-24T13:59:10Z</time>
      </trkpt>
      <trkpt lat="43.023483" lon="-4.385900">
        <ele>3481.0</ele>
        <time>2017-05-24T13:59:11Z</time>
      </trkpt>
      <trkpt lat="43.023417" lon="-4.385850">
        <ele>3481.0</ele>
        <time>2017-05-24T13:59:12Z</time>
      </trkpt>
      <trkpt lat="43.023333" lon="-4.385800">
        <ele>3480.0</ele>
        <time>2017-05-24T13:59:13Z</time>
      </trkpt>
      <trkpt lat="43.023250" lon="-4.385750">
        <ele>3479.0</ele>
        <time>2017-05-24T13:59:14Z</time>
      </trkpt>
      <trkpt lat="43.023167" lon="-4.385700">
        <ele>3478.0</ele>
        <time>2017-05-24T13:59:15Z</time>
      </trkpt>
      <trkpt lat="43.023067" lon="-4.385650">
        <ele>3477.0</ele>
        <time>2017-05-24T13:59:16Z</time>
      </trkpt>
      <trkpt lat="43.022983" lon="-4.385583">
        <ele>3476.0</ele>
        <time>2017-05-24T13:59:17Z</time>
      </trkpt>
      <trkpt lat="43.022900" lon="-4.385500">
        <ele>3475.0</ele>
        <time>2017-05-24T13:59:18Z</time>
      </trkpt>
      <trkpt lat="43.022817" lon="-4.385433">
        <ele>3475.0</ele>
        <time>2017-05-24T13:59:19Z</time>
      </trkpt>
      <trkpt lat="43.022717" lon="-4.385350">
        <ele>3475.0</ele>
        <time>2017-05-24T13:59:20Z</time>
      </trkpt>
      <trkpt lat="43.022633" lon="-4.385267">
        <ele>3474.0</ele>
        <time>2017-05-24T13:59:21Z</time>
      </trkpt>
      <trkpt lat="43.022550" lon="-4.385183">
        <ele>3474.0</ele>
        <time>2017-05-24T13:59:22Z</time>
      </trkpt>
      <trkpt lat="43.022500" lon="-4.385083">
        <ele>3474.0</ele>
        <time>2017-05-24T13:59:23Z</time>
      </trkpt>
      <trkpt lat="43.022450" lon="-4.384983">
        <ele>3473.0</ele>
        <time>2017-05-24T13:59:24Z</time>
      </trkpt>
      <trkpt lat="43.022400" lon="-4.384867">
        <ele>3472.0</ele>
        <time>2017-05-24T13:59:25Z</time>
      </trkpt>
      <trkpt lat="43.022333" lon="-4.384750">
        <ele>3472.0</ele>
        <time>2017-05-24T13:59:26Z</time>
      </trkpt>
      <trkpt lat="43.022267" lon="-4.384650">
        <ele>3471.0</ele>
        <time>2017-05-24T13:59:27Z</time>
      </trkpt>
      <trkpt lat="43.022217" lon="-4.384550">
        <ele>3471.0</ele>
        <time>2017-05-24T13:59:28Z</time>
      </trkpt>
      <trkpt lat="43.022150" lon="-4.384433">
        <ele>3470.0</ele>
        <time>2017-05-24T13:59:29Z</time>
      </trkpt>
      <trkpt lat="43.022100" lon="-4.384333">
        <ele>3469.0</ele>
        <time>2017-05-24T13:59:30Z</time>
      </trkpt>
      <trkpt lat="43.022050" lon="-4.384233">
        <ele>3468.0</ele>
        <time>2017-05-24T13:59:31Z</time>
      </trkpt>
      <trkpt lat="43.022000" lon="-4.384150">
        <ele>3467.0</ele>
        <time>2017-05-24T13:59:32Z</time>
      </trkpt>
      <trkpt lat="43.021933" lon="-4.384067">
        <ele>3466.0</ele>
        <time>2017-05-24T13:59:33Z</time>
      </trkpt>
      <trkpt lat="43.021867" lon="-4.383983">
        <ele>3464.0</ele>
        <time>2017-05-24T13:59:34Z</time>
      </trkpt>
      <trkpt lat="43.021817" lon="-4.383883">
        <ele>3463.0</ele>
        <time>2017-05-24T13:59:35Z</time>
      </trkpt>
      <trkpt lat="43.021750" lon="-4.383783">
        <ele>3460.0</ele>
        <time>2017-05-24T13:59:36Z</time>
      </trkpt>
      <trkpt lat="43.021683" lon="-4.383667">
        <ele>3458.0</ele>
        <time>2017-05-24T13:59:37Z</time>
      </trkpt>
      <trkpt lat="43.021617" lon="-4.383583">
        <ele>3457.0</ele>
        <time>2017-05-24T13:59:38Z</time>
      </trkpt>
      <trkpt lat="43.021550" lon="-4.383483">
        <ele>3455.0</ele>
        <time>2017-05-24T13:59:39Z</time>
      </trkpt>
      <trkpt lat="43.021483" lon="-4.383383">
        <ele>3453.0</ele>
        <time>2017-05-24T13:59:40Z</time>
      </trkpt>
      <trkpt lat="43.021433" lon="-4.383283">
        <ele>3451.0</ele>
        <time>2017-05-24T13:59:41Z</time>
      </trkpt>
      <trkpt lat="43.021367" lon="-4.383167">
        <ele>3449.0</ele>
        <time>2017-05-24T13:59:42Z</time>
      </trkpt>
      <trkpt lat="43.021317" lon="-4.383050">
        <ele>3447.0</ele>
        <time>2017-05-24T13:59:43Z</time>
      </trkpt>
      <trkpt lat="43.021233" lon="-4.382967">
        <ele>3446.0</ele>
        <time>2017-05-24T13:59:44Z</time>
      </trkpt>
      <trkpt lat="43.021167" lon="-4.382883">
        <ele>3446.0</ele>
        <time>2017-05-24T13:59:45Z</time>
      </trkpt>
      <trkpt lat="43.021117" lon="-4.382833">
        <ele>3446.0</ele>
        <time>2017-05-24T13:59:46Z</time>
      </trkpt>
      <trkpt lat="43.021050" lon="-4.382767">
        <ele>3445.0</ele>
        <time>2017-05-24T13:59:47Z</time>
      </trkpt>
      <trkpt lat="43.020967" lon="-4.382717">
        <ele>3443.0</ele>
        <time>2017-05-24T13:59:48Z</time>
      </trkpt>
      <trkpt lat="43.020883" lon="-4.382650">
        <ele>3441.0</ele>
        <time>2017-05-24T13:59:49Z</time>
      </trkpt>
      <trkpt lat="43.020783" lon="-4.382600">
        <ele>3440.0</ele>
        <time>2017-05-24T13:59:50Z</time>
      </trkpt>
      <trkpt lat="43.020667" lon="-4.382567">
        <ele>3440.0</ele>
        <time>2017-05-24T13:59:51Z</time>
      </trkpt>
      <trkpt lat="43.020567" lon="-4.382500">
        <ele>3441.0</ele>
        <time>2017-05-24T13:59:52Z</time>
      </trkpt>
      <trkpt lat="43.020500" lon="-4.382450">
        <ele>3442.0</ele>
        <time>2017-05-24T13:59:53Z</time>
      </trkpt>
      <trkpt lat="43.020450" lon="-4.382417">
        <ele>3442.0</ele>
        <time>2017-05-24T13:59:54Z</time>
      </trkpt>
      <trkpt lat="43.020383" lon="-4.382367">
        <ele>3441.0</ele>
        <time>2017-05-24T13:59:55Z</time>
      </trkpt>
      <trkpt lat="43.020317" lon="-4.382350">
        <ele>3439.0</ele>
        <time>2017-05-24T13:59:56Z</time>
      </trkpt>
      <trkpt lat="43.020233" lon="-4.382317">
        <ele>3437.0</ele>
        <time>2017-05-24T13:59:57Z</time>
      </trkpt>
      <trkpt lat="43.020133" lon="-4.382283">
        <ele>3436.0</ele>
        <time>2017-05-24T13:59:58Z</time>
      </trkpt>
      <trkpt lat="43.020033" lon="-4.382250">
        <ele>3434.0</ele>
        <time>2017-05-24T13:59:59Z</time>
      </trkpt>
      <trkpt lat="43.019933" lon="-4.382233">
        <ele>3434.0</ele>
        <time>2017-05-24T14:00:00Z</time>
      </trkpt>
      <trkpt lat="43.019833" lon="-4.382233">
        <ele>3434.0</ele>
        <time>2017-05-24T14:00:01Z</time>
      </trkpt>
      <trkpt lat="43.019750" lon="-4.382250">
        <ele>3433.0</ele>
        <time>2017-05-24T14:00:02Z</time>
      </trkpt>
      <trkpt lat="43.019650" lon="-4.382267">
        <ele>3432.0</ele>
        <time>2017-05-24T14:00:03Z</time>
      </trkpt>
      <trkpt lat="43.019550" lon="-4.382283">
        <ele>3432.0</ele>
        <time>2017-05-24T14:00:04Z</time>
      </trkpt>
      <trkpt lat="43.019467" lon="-4.382317">
        <ele>3432.0</ele>
        <time>2017-05-24T14:00:05Z</time>
      </trkpt>
      <trkpt lat="43.019367" lon="-4.382333">
        <ele>3431.0</ele>
        <time>2017-05-24T14:00:06Z</time>
      </trkpt>
      <trkpt lat="43.019283" lon="-4.382367">
        <ele>3430.0</ele>
        <time>2017-05-24T14:00:07Z</time>
      </trkpt>
      <trkpt lat="43.019183" lon="-4.382400">
        <ele>3430.0</ele>
        <time>2017-05-24T14:00:08Z</time>
      </trkpt>
      <trkpt lat="43.019083" lon="-4.382450">
        <ele>3430.0</ele>
        <time>2017-05-24T14:00:09Z</time>
      </trkpt>
      <trkpt lat="43.019000" lon="-4.382467">
        <ele>3432.0</ele>
        <time>2017-05-24T14:00:10Z</time>
      </trkpt>
      <trkpt lat="43.018917" lon="-4.382483">
        <ele>3432.0</ele>
        <time>2017-05-24T14:00:11Z</time>
      </trkpt>
      <trkpt lat="43.018833" lon="-4.382500">
        <ele>3432.0</ele>
        <time>2017-05-24T14:00:12Z</time>
      </trkpt>
      <trkpt lat="43.018733" lon="-4.382550">
        <ele>3430.0</ele>
        <time>2017-05-24T14:00:13Z</time>
      </trkpt>
      <trkpt lat="43.018650" lon="-4.382600">
        <ele>3429.0</ele>
        <time>2017-05-24T14:00:14Z</time>
      </trkpt>
      <trkpt lat="43.018550" lon="-4.382633">
        <ele>3428.0</ele>
        <time>2017-05-24T14:00:15Z</time>
      </trkpt>
      <trkpt lat="43.018450" lon="-4.382683">
        <ele>3427.0</ele>
        <time>2017-05-24T14:00:16Z</time>
      </trkpt>
      <trkpt lat="43.018350" lon="-4.382717">
        <ele>3426.0</ele>
        <time>2017-05-24T14:00:17Z</time>
      </trkpt>
      <trkpt lat="43.018267" lon="-4.382750">
        <ele>3425.0</ele>
        <time>2017-05-24T14:00:18Z</time>
      </trkpt>
      <trkpt lat="43.018183" lon="-4.382783">
        <ele>3424.0</ele>
        <time>2017-05-24T14:00:19Z</time>
      </trkpt>
      <trkpt lat="43.018100" lon="-4.382817">
        <ele>3423.0</ele>
        <time>2017-05-24T14:00:20Z</time>
      </trkpt>
      <trkpt lat="43.018000" lon="-4.382850">
        <ele>3421.0</ele>
        <time>2017-05-24T14:00:21Z</time>
      </trkpt>
      <trkpt lat="43.017917" lon="-4.382867">
        <ele>3419.0</ele>
        <time>2017-05-24T14:00:22Z</time>
      </trkpt>
      <trkpt lat="43.017833" lon="-4.382850">
        <ele>3417.0</ele>
        <time>2017-05-24T14:00:23Z</time>
      </trkpt>
      <trkpt lat="43.017767" lon="-4.382850">
        <ele>3415.0</ele>
        <time>2017-05-24T14:00:24Z</time>
      </trkpt>
      <trkpt lat="43.017700" lon="-4.382867">
        <ele>3412.0</ele>
        <time>2017-05-24T14:00:25Z</time>
      </trkpt>
      <trkpt lat="43.017617" lon="-4.382917">
        <ele>3409.0</ele>
        <time>2017-05-24T14:00:26Z</time>
      </trkpt>
      <trkpt lat="43.017533" lon="-4.382950">
        <ele>3406.0</ele>
        <time>2017-05-24T14:00:27Z</time>
      </trkpt>
      <trkpt lat="43.017433" lon="-4.382983">
        <ele>3402.0</ele>
        <time>2017-05-24T14:00:28Z</time>
      </trkpt>
      <trkpt lat="43.017333" lon="-4.383000">
        <ele>3400.0</ele>
        <time>2017-05-24T14:00:29Z</time>
      </trkpt>
      <trkpt lat="43.017250" lon="-4.383000">
        <ele>3399.0</ele>
        <time>2017-05-24T14:00:30Z</time>
      </trkpt>
      <trkpt lat="43.017167" lon="-4.383033">
        <ele>3397.0</ele>
        <time>2017-05-24T14:00:31Z</time>
      </trkpt>
      <trkpt lat="43.017100" lon="-4.383067">
        <ele>3394.0</ele>
        <time>2017-05-24T14:00:32Z</time>
      </trkpt>
      <trkpt lat="43.017033" lon="-4.383117">
        <ele>3390.0</ele>
        <time>2017-05-24T14:00:33Z</time>
      </trkpt>
      <trkpt lat="43.016950" lon="-4.383150">
        <ele>3386.0</ele>
        <time>2017-05-24T14:00:34Z</time>
      </trkpt>
      <trkpt lat="43.016850" lon="-4.383167">
        <ele>3383.0</ele>
        <time>2017-05-24T14:00:35Z</time>
      </trkpt>
      <trkpt lat="43.016750" lon="-4.383183">
        <ele>3380.0</ele>
        <time>2017-05-24T14:00:36Z</time>
      </trkpt>
      <trkpt lat="43.016650" lon="-4.383183">
        <ele>3378.0</ele>
        <time>2017-05-24T14:00:37Z</time>
      </trkpt>
      <trkpt lat="43.016550" lon="-4.383200">
        <ele>3376.0</ele>
        <time>2017-05-24T14:00:38Z</time>
      </trkpt>
      <trkpt lat="43.016467" lon="-4.383217">
        <ele>3373.0</ele>
        <time>2017-05-24T14:00:39Z</time>
      </trkpt>
      <trkpt lat="43.016383" lon="-4.383233">
        <ele>3370.0</ele>
        <time>2017-05-24T14:00:40Z</time>
      </trkpt>
      <trkpt lat="43.016300" lon="-4.383267">
        <ele>3368.0</ele>
        <time>2017-05-24T14:00:41Z</time>
      </trkpt>
      <trkpt lat="43.016233" lon="-4.383300">
        <ele>3365.0</ele>
        <time>2017-05-24T14:00:42Z</time>
      </trkpt>
      <trkpt lat="43.016150" lon="-4.383350">
        <ele>3360.0</ele>
        <time>2017-05-24T14:00:43Z</time>
      </trkpt>
      <trkpt lat="43.016067" lon="-4.383383">
        <ele>3355.0</ele>
        <time>2017-05-24T14:00:44Z</time>
      </trkpt>
      <trkpt lat="43.015967" lon="-4.383417">
        <ele>3350.0</ele>
        <time>2017-05-24T14:00:45Z</time>
      </trkpt>
      <trkpt lat="43.015867" lon="-4.383450">
        <ele>3346.0</ele>
        <time>2017-05-24T14:00:46Z</time>
      </trkpt>
      <trkpt lat="43.015767" lon="-4.383500">
        <ele>3342.0</ele>
        <time>2017-05-24T14:00:47Z</time>
      </trkpt>
      <trkpt lat="43.015650" lon="-4.383533">
        <ele>3338.0</ele>
        <time>2017-05-24T14:00:48Z</time>
      </trkpt>
      <trkpt lat="43.015550" lon="-4.383567">
        <ele>3334.0</ele>
        <time>2017-05-24T14:00:49Z</time>
      </trkpt>
      <trkpt lat="43.015433" lon="-4.383583">
        <ele>3331.0</ele>
        <time>2017-05-24T14:00:50Z</time>
      </trkpt>
      <trkpt lat="43.015333" lon="-4.383600">
        <ele>3327.0</ele>
        <time>2017-05-24T14:00:51Z</time>
      </trkpt>
      <trkpt lat="43.015217" lon="-4.383583">
        <ele>3324.0</ele>
        <time>2017-05-24T14:00:52Z</time>
      </trkpt>
      <trkpt lat="43.015117" lon="-4.383567">
        <ele>3320.0</ele>
        <time>2017-05-24T14:00:53Z</time>
      </trkpt>
      <trkpt lat="43.015017" lon="-4.383550">
        <ele>3317.0</ele>
        <time>2017-05-24T14:00:54Z</time>
      </trkpt>
      <trkpt lat="43.014917" lon="-4.383517">
        <ele>3314.0</ele>
        <time>2017-05-24T14:00:55Z</time>
      </trkpt>
      <trkpt lat="43.014817" lon="-4.383500">
        <ele>3311.0</ele>
        <time>2017-05-24T14:00:56Z</time>
      </trkpt>
      <trkpt lat="43.014717" lon="-4.383467">
        <ele>3307.0</ele>
        <time>2017-05-24T14:00:57Z</time>
      </trkpt>
      <trkpt lat="43.014617" lon="-4.383417">
        <ele>3304.0</ele>
        <time>2017-05-24T14:00:58Z</time>
      </trkpt>
      <trkpt lat="43.014517" lon="-4.383383">
        <ele>3301.0</ele>
        <time>2017-05-24T14:00:59Z</time>
      </trkpt>
      <trkpt lat="43.014400" lon="-4.383317">
        <ele>3300.0</ele>
        <time>2017-05-24T14:01:00Z</time>
      </trkpt>
      <trkpt lat="43.014300" lon="-4.383250">
        <ele>3298.0</ele>
        <time>2017-05-24T14:01:01Z</time>
      </trkpt>
      <trkpt lat="43.014217" lon="-4.383200">
        <ele>3298.0</ele>
        <time>2017-05-24T14:01:02Z</time>
      </trkpt>
      <trkpt lat="43.014133" lon="-4.383167">
        <ele>3298.0</ele>
        <time>2017-05-24T14:01:03Z</time>
      </trkpt>
      <trkpt lat="43.014050" lon="-4.383150">
        <ele>3297.0</ele>
        <time>2017-05-24T14:01:04Z</time>
      </trkpt>
      <trkpt lat="43.013983" lon="-4.383133">
        <ele>3295.0</ele>
        <time>2017-05-24T14:01:05Z</time>
      </trkpt>
      <trkpt lat="43.013900" lon="-4.383100">
        <ele>3293.0</ele>
        <time>2017-05-24T14:01:06Z</time>
      </trkpt>
      <trkpt lat="43.013817" lon="-4.383067">
        <ele>3290.0</ele>
        <time>2017-05-24T14:01:07Z</time>
      </trkpt>
      <trkpt lat="43.013717" lon="-4.383033">
        <ele>3287.0</ele>
        <time>2017-05-24T14:01:08Z</time>
      </trkpt>
      <trkpt lat="43.013617" lon="-4.382983">
        <ele>3284.0</ele>
        <time>2017-05-24T14:01:09Z</time>
      </trkpt>
      <trkpt lat="43.013517" lon="-4.382950">
        <ele>3281.0</ele>
        <time>2017-05-24T14:01:10Z</time>
      </trkpt>
      <trkpt lat="43.013417" lon="-4.382933">
        <ele>3279.0</ele>
        <time>2017-05-24T14:01:11Z</time>
      </trkpt>
      <trkpt lat="43.013317" lon="-4.382900">
        <ele>3278.0</ele>
        <time>2017-05-24T14:01:12Z</time>
      </trkpt>
      <trkpt lat="43.013233" lon="-4.382867">
        <ele>3275.0</ele>
        <time>2017-05-24T14:01:13Z</time>
      </trkpt>
      <trkpt lat="43.013133" lon="-4.382817">
        <ele>3272.0</ele>
        <time>2017-05-24T14:01:14Z</time>
      </trkpt>
      <trkpt lat="43.013033" lon="-4.382767">
        <ele>3269.0</ele>
        <time>2017-05-24T14:01:15Z</time>
      </trkpt>
      <trkpt lat="43.012933" lon="-4.382733">
        <ele>3266.0</ele>
        <time>2017-05-24T14:01:16Z</time>
      </trkpt>
      <trkpt lat="43.012817" lon="-4.382683">
        <ele>3264.0</ele>
        <time>2017-05-24T14:01:17Z</time>
      </trkpt>
      <trkpt lat="43.012733" lon="-4.382633">
        <ele>3264.0</ele>
        <time>2017-05-24T14:01:18Z</time>
      </trkpt>
      <trkpt lat="43.012650" lon="-4.382600">
        <ele>3263.0</ele>
        <time>2017-05-24T14:01:19Z</time>
      </trkpt>
      <trkpt lat="43.012583" lon="-4.382567">
        <ele>3260.0</ele>
        <time>2017-05-24T14:01:20Z</time>
      </trkpt>
      <trkpt lat="43.012500" lon="-4.382533">
        <ele>3257.0</ele>
        <time>2017-05-24T14:01:21Z</time>
      </trkpt>
      <trkpt lat="43.012400" lon="-4.382483">
        <ele>3254.0</ele>
        <time>2017-05-24T14:01:22Z</time>
      </trkpt>
      <trkpt lat="43.012317" lon="-4.382433">
        <ele>3252.0</ele>
        <time>2017-05-24T14:01:23Z</time>
      </trkpt>
      <trkpt lat="43.012233" lon="-4.382400">
        <ele>3251.0</ele>
        <time>2017-05-24T14:01:24Z</time>
      </trkpt>
      <trkpt lat="43.012150" lon="-4.382350">
        <ele>3250.0</ele>
        <time>2017-05-24T14:01:25Z</time>
      </trkpt>
      <trkpt lat="43.012083" lon="-4.382300">
        <ele>3248.0</ele>
        <time>2017-05-24T14:01:26Z</time>
      </trkpt>
      <trkpt lat="43.012000" lon="-4.382250">
        <ele>3246.0</ele>
        <time>2017-05-24T14:01:27Z</time>
      </trkpt>
      <trkpt lat="43.011917" lon="-4.382183">
        <ele>3244.0</ele>
        <time>2017-05-24T14:01:28Z</time>
      </trkpt>
      <trkpt lat="43.011833" lon="-4.382117">
        <ele>3242.0</ele>
        <time>2017-05-24T14:01:29Z</time>
      </trkpt>
      <trkpt lat="43.011767" lon="-4.382067">
        <ele>3242.0</ele>
        <time>2017-05-24T14:01:30Z</time>
      </trkpt>
      <trkpt lat="43.011683" lon="-4.382017">
        <ele>3241.0</ele>
        <time>2017-05-24T14:01:31Z</time>
      </trkpt>
      <trkpt lat="43.011600" lon="-4.381967">
        <ele>3240.0</ele>
        <time>2017-05-24T14:01:32Z</time>
      </trkpt>
      <trkpt lat="43.011500" lon="-4.381900">
        <ele>3239.0</ele>
        <time>2017-05-24T14:01:33Z</time>
      </trkpt>
      <trkpt lat="43.011417" lon="-4.381833">
        <ele>3237.0</ele>
        <time>2017-05-24T14:01:34Z</time>
      </trkpt>
      <trkpt lat="43.011333" lon="-4.381767">
        <ele>3237.0</ele>
        <time>2017-05-24T14:01:35Z</time>
      </trkpt>
      <trkpt lat="43.011250" lon="-4.381700">
        <ele>3237.0</ele>
        <time>2017-05-24T14:01:36Z</time>
      </trkpt>
      <trkpt lat="43.011167" lon="-4.381650">
        <ele>3237.0</ele>
        <time>2017-05-24T14:01:37Z</time>
      </trkpt>
      <trkpt lat="43.011100" lon="-4.381600">
        <ele>3236.0</ele>
        <time>2017-05-24T14:01:38Z</time>
      </trkpt>
      <trkpt lat="43.011017" lon="-4.381550">
        <ele>3235.0</ele>
        <time>2017-05-24T14:01:39Z</time>
      </trkpt>
      <trkpt lat="43.010950" lon="-4.381483">
        <ele>3234.0</ele>
        <time>2017-05-24T14:01:40Z</time>
      </trkpt>
      <trkpt lat="43.010867" lon="-4.381417">
        <ele>3232.0</ele>
        <time>2017-05-24T14:01:41Z</time>
      </trkpt>
      <trkpt lat="43.010800" lon="-4.381333">
        <ele>3231.0</ele>
        <time>2017-05-24T14:01:42Z</time>
      </trkpt>
      <trkpt lat="43.010717" lon="-4.381267">
        <ele>3230.0</ele>
        <time>2017-05-24T14:01:43Z</time>
      </trkpt>
      <trkpt lat="43.010633" lon="-4.381183">
        <ele>3229.0</ele>
        <time>2017-05-24T14:01:44Z</time>
      </trkpt>
      <trkpt lat="43.010550" lon="-4.381100">
        <ele>3228.0</ele>
        <time>2017-05-24T14:01:45Z</time>
      </trkpt>
      <trkpt lat="43.010483" lon="-4.381017">
        <ele>3228.0</ele>
        <time>2017-05-24T14:01:46Z</time>
      </trkpt>
      <trkpt lat="43.010400" lon="-4.380950">
        <ele>3227.0</ele>
        <time>2017-05-24T14:01:47Z</time>
      </trkpt>
      <trkpt lat="43.010317" lon="-4.380867">
        <ele>3227.0</ele>
        <time>2017-05-24T14:01:48Z</time>
      </trkpt>
      <trkpt lat="43.010233" lon="-4.380783">
        <ele>3226.0</ele>
        <time>2017-05-24T14:01:49Z</time>
      </trkpt>
      <trkpt lat="43.010150" lon="-4.380700">
        <ele>3226.0</ele>
        <time>2017-05-24T14:01:50Z</time>
      </trkpt>
      <trkpt lat="43.010067" lon="-4.380600">
        <ele>3225.0</ele>
        <time>2017-05-24T14:01:51Z</time>
      </trkpt>
      <trkpt lat="43.010000" lon="-4.380517">
        <ele>3225.0</ele>
        <time>2017-05-24T14:01:52Z</time>
      </trkpt>
      <trkpt lat="43.009933" lon="-4.380417">
        <ele>3226.0</ele>
        <time>2017-05-24T14:01:53Z</time>
      </trkpt>
      <trkpt lat="43.009850" lon="-4.380317">
        <ele>3226.0</ele>
        <time>2017-05-24T14:01:54Z</time>
      </trkpt>
      <trkpt lat="43.009783" lon="-4.380233">
        <ele>3227.0</ele>
        <time>2017-05-24T14:01:55Z</time>
      </trkpt>
      <trkpt lat="43.009717" lon="-4.380133">
        <ele>3227.0</ele>
        <time>2017-05-24T14:01:56Z</time>
      </trkpt>
      <trkpt lat="43.009633" lon="-4.380050">
        <ele>3228.0</ele>
        <time>2017-05-24T14:01:57Z</time>
      </trkpt>
      <trkpt lat="43.009583" lon="-4.379950">
        <ele>3230.0</ele>
        <time>2017-05-24T14:01:58Z</time>
      </trkpt>
      <trkpt lat="43.009533" lon="-4.379867">
        <ele>3232.0</ele>
        <time>2017-05-24T14:01:59Z</time>
      </trkpt>
      <trkpt lat="43.009483" lon="-4.379783">
        <ele>3235.0</ele>
        <time>2017-05-24T14:02:00Z</time>
      </trkpt>
      <trkpt lat="43.009433" lon="-4.379733">
        <ele>3237.0</ele>
        <time>2017-05-24T14:02:01Z</time>
      </trkpt>
      <trkpt lat="43.009383" lon="-4.379717">
        <ele>3240.0</ele>
        <time>2017-05-24T14:02:02Z</time>
      </trkpt>
      <trkpt lat="43.009333" lon="-4.379700">
        <ele>3242.0</ele>
        <time>2017-05-24T14:02:03Z</time>
      </trkpt>
      <trkpt lat="43.009267" lon="-4.379700">
        <ele>3243.0</ele>
        <time>2017-05-24T14:02:04Z</time>
      </trkpt>
      <trkpt lat="43.009200" lon="-4.379683">
        <ele>3243.0</ele>
        <time>2017-05-24T14:02:05Z</time>
      </trkpt>
      <trkpt lat="43.009133" lon="-4.379683">
        <ele>3245.0</ele>
        <time>2017-05-24T14:02:06Z</time>
      </trkpt>
      <trkpt lat="43.009067" lon="-4.379700">
        <ele>3246.0</ele>
        <time>2017-05-24T14:02:07Z</time>
      </trkpt>
      <trkpt lat="43.009000" lon="-4.379750">
        <ele>3246.0</ele>
        <time>2017-05-24T14:02:08Z</time>
      </trkpt>
      <trkpt lat="43.008967" lon="-4.379867">
        <ele>3246.0</ele>
        <time>2017-05-24T14:02:09Z</time>
      </trkpt>
      <trkpt lat="43.008950" lon="-4.379983">
        <ele>3246.0</ele>
        <time>2017-05-24T14:02:10Z</time>
      </trkpt>
      <trkpt lat="43.008983" lon="-4.380100">
        <ele>3247.0</ele>
        <time>2017-05-24T14:02:11Z</time>
      </trkpt>
      <trkpt lat="43.009033" lon="-4.380200">
        <ele>3248.0</ele>
        <time>2017-05-24T14:02:12Z</time>
      </trkpt>
      <trkpt lat="43.009117" lon="-4.380233">
        <ele>3249.0</ele>
        <time>2017-05-24T14:02:13Z</time>
      </trkpt>
      <trkpt lat="43.009200" lon="-4.380233">
        <ele>3250.0</ele>
        <time>2017-05-24T14:02:14Z</time>
      </trkpt>
      <trkpt lat="43.009267" lon="-4.380217">
        <ele>3250.0</ele>
        <time>2017-05-24T14:02:15Z</time>
      </trkpt>
      <trkpt lat="43.009350" lon="-4.380167">
        <ele>3251.0</ele>
        <time>2017-05-24T14:02:16Z</time>
      </trkpt>
      <trkpt lat="43.009400" lon="-4.380100">
        <ele>3251.0</ele>
        <time>2017-05-24T14:02:17Z</time>
      </trkpt>
      <trkpt lat="43.009433" lon="-4.380000">
        <ele>3252.0</ele>
        <time>2017-05-24T14:02:18Z</time>
      </trkpt>
      <trkpt lat="43.009433" lon="-4.379883">
        <ele>3253.0</ele>
        <time>2017-05-24T14:02:19Z</time>
      </trkpt>
      <trkpt lat="43.009417" lon="-4.379783">
        <ele>3255.0</ele>
        <time>2017-05-24T14:02:20Z</time>
      </trkpt>
      <trkpt lat="43.009400" lon="-4.379700">
        <ele>3257.0</ele>
        <time>2017-05-24T14:02:21Z</time>
      </trkpt>
      <trkpt lat="43.009367" lon="-4.379633">
        <ele>3258.0</ele>
        <time>2017-05-24T14:02:22Z</time>
      </trkpt>
      <trkpt lat="43.009350" lon="-4.379550">
        <ele>3259.0</ele>
        <time>2017-05-24T14:02:23Z</time>
      </trkpt>
      <trkpt lat="43.009300" lon="-4.379500">
        <ele>3260.0</ele>
        <time>2017-05-24T14:02:24Z</time>
      </trkpt>
      <trkpt lat="43.009250" lon="-4.379433">
        <ele>3261.0</ele>
        <time>2017-05-24T14:02:25Z</time>
      </trkpt>
      <trkpt lat="43.009200" lon="-4.379383">
        <ele>3261.0</ele>
        <time>2017-05-24T14:02:26Z</time>
      </trkpt>
      <trkpt lat="43.009133" lon="-4.379317">
        <ele>3263.0</ele>
        <time>2017-05-24T14:02:27Z</time>
      </trkpt>
      <trkpt lat="43.009083" lon="-4.379267">
        <ele>3264.0</ele>
        <time>2017-05-24T14:02:28Z</time>
      </trkpt>
      <trkpt lat="43.009050" lon="-4.379200">
        <ele>3266.0</ele>
        <time>2017-05-24T14:02:29Z</time>
      </trkpt>
      <trkpt lat="43.009000" lon="-4.379117">
        <ele>3268.0</ele>
        <time>2017-05-24T14:02:30Z</time>
      </trkpt>
      <trkpt lat="43.008950" lon="-4.379083">
        <ele>3269.0</ele>
        <time>2017-05-24T14:02:31Z</time>
      </trkpt>
      <trkpt lat="43.008883" lon="-4.379083">
        <ele>3269.0</ele>
        <time>2017-05-24T14:02:32Z</time>
      </trkpt>
      <trkpt lat="43.008817" lon="-4.379133">
        <ele>3268.0</ele>
        <time>2017-05-24T14:02:33Z</time>
      </trkpt>
      <trkpt lat="43.008767" lon="-4.379200">
        <ele>3269.0</ele>
        <time>2017-05-24T14:02:34Z</time>
      </trkpt>
      <trkpt lat="43.008717" lon="-4.379283">
        <ele>3270.0</ele>
        <time>2017-05-24T14:02:35Z</time>
      </trkpt>
      <trkpt lat="43.008700" lon="-4.379400">
        <ele>3272.0</ele>
        <time>2017-05-24T14:02:36Z</time>
      </trkpt>
      <trkpt lat="43.008717" lon="-4.379517">
        <ele>3273.0</ele>
        <time>2017-05-24T14:02:37Z</time>
      </trkpt>
      <trkpt lat="43.008767" lon="-4.379600">
        <ele>3275.0</ele>
        <time>2017-05-24T14:02:38Z</time>
      </trkpt>
      <trkpt lat="43.008833" lon="-4.379667">
        <ele>3276.0</ele>
        <time>2017-05-24T14:02:39Z</time>
      </trkpt>
      <trkpt lat="43.008900" lon="-4.379700">
        <ele>3277.0</ele>
        <time>2017-05-24T14:02:40Z</time>
      </trkpt>
      <trkpt lat="43.008983" lon="-4.379733">
        <ele>3278.0</ele>
        <time>2017-05-24T14:02:41Z</time>
      </trkpt>
      <trkpt lat="43.009067" lon="-4.379783">
        <ele>3279.0</ele>
        <time>2017-05-24T14:02:42Z</time>
      </trkpt>
      <trkpt lat="43.009133" lon="-4.379817">
        <ele>3279.0</ele>
        <time>2017-05-24T14:02:43Z</time>
      </trkpt>
      <trkpt lat="43.009217" lon="-4.379850">
        <ele>3280.0</ele>
        <time>2017-05-24T14:02:44Z</time>
      </trkpt>
      <trkpt lat="43.009300" lon="-4.379850">
        <ele>3281.0</ele>
        <time>2017-05-24T14:02:45Z</time>
      </trkpt>
      <trkpt lat="43.009383" lon="-4.379833">
        <ele>3282.0</ele>
        <time>2017-05-24T14:02:46Z</time>
      </trkpt>
      <trkpt lat="43.009467" lon="-4.379800">
        <ele>3283.0</ele>
        <time>2017-05-24T14:02:47Z</time>
      </trkpt>
      <trkpt lat="43.009533" lon="-4.379750">
        <ele>3284.0</ele>
        <time>2017-05-24T14:02:48Z</time>
      </trkpt>
      <trkpt lat="43.009583" lon="-4.379683">
        <ele>3285.0</ele>
        <time>2017-05-24T14:02:49Z</time>
      </trkpt>
      <trkpt lat="43.009633" lon="-4.379600">
        <ele>3286.0</ele>
        <time>2017-05-24T14:02:50Z</time>
      </trkpt>
      <trkpt lat="43.009667" lon="-4.379500">
        <ele>3286.0</ele>
        <time>2017-05-24T14:02:51Z</time>
      </trkpt>
      <trkpt lat="43.009683" lon="-4.379383">
        <ele>3288.0</ele>
        <time>2017-05-24T14:02:52Z</time>
      </trkpt>
      <trkpt lat="43.009683" lon="-4.379283">
        <ele>3289.0</ele>
        <time>2017-05-24T14:02:53Z</time>
      </trkpt>
      <trkpt lat="43.009667" lon="-4.379200">
        <ele>3290.0</ele>
        <time>2017-05-24T14:02:54Z</time>
      </trkpt>
      <trkpt lat="43.009633" lon="-4.379117">
        <ele>3292.0</ele>
        <time>2017-05-24T14:02:55Z</time>
      </trkpt>
      <trkpt lat="43.009600" lon="-4.379033">
        <ele>3293.0</ele>
        <time>2017-05-24T14:02:56Z</time>
      </trkpt>
      <trkpt lat="43.009567" lon="-4.378967">
        <ele>3294.0</ele>
        <time>2017-05-24T14:02:57Z</time>
      </trkpt>
      <trkpt lat="43.009517" lon="-4.378900">
        <ele>3295.0</ele>
        <time>2017-05-24T14:02:58Z</time>
      </trkpt>
      <trkpt lat="43.009467" lon="-4.378867">
        <ele>3297.0</ele>
        <time>2017-05-24T14:02:59Z</time>
      </trkpt>
      <trkpt lat="43.009417" lon="-4.378833">
        <ele>3299.0</ele>
        <time>2017-05-24T14:03:00Z</time>
      </trkpt>
      <trkpt lat="43.009350" lon="-4.378800">
        <ele>3300.0</ele>
        <time>2017-05-24T14:03:01Z</time>
      </trkpt>
      <trkpt lat="43.009300" lon="-4.378767">
        <ele>3302.0</ele>
        <time>2017-05-24T14:03:02Z</time>
      </trkpt>
      <trkpt lat="43.009250" lon="-4.378750">
        <ele>3303.0</ele>
        <time>2017-05-24T14:03:03Z</time>
      </trkpt>
      <trkpt lat="43.009183" lon="-4.378767">
        <ele>3305.0</ele>
        <time>2017-05-24T14:03:04Z</time>
      </trkpt>
      <trkpt lat="43.009133" lon="-4.378783">
        <ele>3307.0</ele>
        <time>2017-05-24T14:03:05Z</time>
      </trkpt>
      <trkpt lat="43.009100" lon="-4.378833">
        <ele>3308.0</ele>
        <time>2017-05-24T14:03:06Z</time>
      </trkpt>
      <trkpt lat="43.009067" lon="-4.378900">
        <ele>3309.0</ele>
        <time>2017-05-24T14:03:07Z</time>
      </trkpt>
      <trkpt lat="43.009050" lon="-4.379000">
        <ele>3310.0</ele>
        <time>2017-05-24T14:03:08Z</time>
      </trkpt>
      <trkpt lat="43.009050" lon="-4.379117">
        <ele>3310.0</ele>
        <time>2017-05-24T14:03:09Z</time>
      </trkpt>
      <trkpt lat="43.009067" lon="-4.379233">
        <ele>3312.0</ele>
        <time>2017-05-24T14:03:10Z</time>
      </trkpt>
      <trkpt lat="43.009100" lon="-4.379333">
        <ele>3313.0</ele>
        <time>2017-05-24T14:03:11Z</time>
      </trkpt>
      <trkpt lat="43.009150" lon="-4.379417">
        <ele>3314.0</ele>
        <time>2017-05-24T14:03:12Z</time>
      </trkpt>
      <trkpt lat="43.009233" lon="-4.379467">
        <ele>3315.0</ele>
        <time>2017-05-24T14:03:13Z</time>
      </trkpt>
      <trkpt lat="43.009300" lon="-4.379517">
        <ele>3315.0</ele>
        <time>2017-05-24T14:03:14Z</time>
      </trkpt>
      <trkpt lat="43.009383" lon="-4.379550">
        <ele>3316.0</ele>
        <time>2017-05-24T14:03:15Z</time>
      </trkpt>
      <trkpt lat="43.009467" lon="-4.379533">
        <ele>3318.0</ele>
        <time>2017-05-24T14:03:16Z</time>
      </trkpt>
      <trkpt lat="43.009533" lon="-4.379500">
        <ele>3320.0</ele>
        <time>2017-05-24T14:03:17Z</time>
      </trkpt>
      <trkpt lat="43.009617" lon="-4.379450">
        <ele>3322.0</ele>
        <time>2017-05-24T14:03:18Z</time>
      </trkpt>
      <trkpt lat="43.009667" lon="-4.379383">
        <ele>3323.0</ele>
        <time>2017-05-24T14:03:19Z</time>
      </trkpt>
      <trkpt lat="43.009717" lon="-4.379317">
        <ele>3325.0</ele>
        <time>2017-05-24T14:03:20Z</time>
      </trkpt>
      <trkpt lat="43.009767" lon="-4.379250">
        <ele>3324.0</ele>
        <time>2017-05-24T14:03:21Z</time>
      </trkpt>
      <trkpt lat="43.009817" lon="-4.379150">
        <ele>3324.0</ele>
        <time>2017-05-24T14:03:22Z</time>
      </trkpt>
      <trkpt lat="43.009833" lon="-4.379017">
        <ele>3324.0</ele>
        <time>2017-05-24T14:03:23Z</time>
      </trkpt>
      <trkpt lat="43.009817" lon="-4.378900">
        <ele>3324.0</ele>
        <time>2017-05-24T14:03:24Z</time>
      </trkpt>
      <trkpt lat="43.009783" lon="-4.378800">
        <ele>3324.0</ele>
        <time>2017-05-24T14:03:25Z</time>
      </trkpt>
      <trkpt lat="43.009717" lon="-4.378733">
        <ele>3325.0</ele>
        <time>2017-05-24T14:03:26Z</time>
      </trkpt>
      <trkpt lat="43.009650" lon="-4.378700">
        <ele>3326.0</ele>
        <time>2017-05-24T14:03:27Z</time>
      </trkpt>
      <trkpt lat="43.009600" lon="-4.378683">
        <ele>3327.0</ele>
        <time>2017-05-24T14:03:28Z</time>
      </trkpt>
      <trkpt lat="43.009533" lon="-4.378667">
        <ele>3328.0</ele>
        <time>2017-05-24T14:03:29Z</time>
      </trkpt>
      <trkpt lat="43.009467" lon="-4.378683">
        <ele>3329.0</ele>
        <time>2017-05-24T14:03:30Z</time>
      </trkpt>
      <trkpt lat="43.009417" lon="-4.378717">
        <ele>3328.0</ele>
        <time>2017-05-24T14:03:31Z</time>
      </trkpt>
      <trkpt lat="43.009367" lon="-4.378783">
        <ele>3327.0</ele>
        <time>2017-05-24T14:03:32Z</time>
      </trkpt>
      <trkpt lat="43.009300" lon="-4.378867">
        <ele>3327.0</ele>
        <time>2017-05-24T14:03:33Z</time>
      </trkpt>
      <trkpt lat="43.009250" lon="-4.378950">
        <ele>3329.0</ele>
        <time>2017-05-24T14:03:34Z</time>
      </trkpt>
      <trkpt lat="43.009217" lon="-4.379033">
        <ele>3330.0</ele>
        <time>2017-05-24T14:03:35Z</time>
      </trkpt>
      <trkpt lat="43.009217" lon="-4.379100">
        <ele>3332.0</ele>
        <time>2017-05-24T14:03:36Z</time>
      </trkpt>
      <trkpt lat="43.009217" lon="-4.379167">
        <ele>3332.0</ele>
        <time>2017-05-24T14:03:37Z</time>
      </trkpt>
      <trkpt lat="43.009233" lon="-4.379250">
        <ele>3333.0</ele>
        <time>2017-05-24T14:03:38Z</time>
      </trkpt>
      <trkpt lat="43.009250" lon="-4.379333">
        <ele>3333.0</ele>
        <time>2017-05-24T14:03:39Z</time>
      </trkpt>
      <trkpt lat="43.009283" lon="-4.379417">
        <ele>3335.0</ele>
        <time>2017-05-24T14:03:40Z</time>
      </trkpt>
      <trkpt lat="43.009333" lon="-4.379483">
        <ele>3336.0</ele>
        <time>2017-05-24T14:03:41Z</time>
      </trkpt>
      <trkpt lat="43.009417" lon="-4.379533">
        <ele>3338.0</ele>
        <time>2017-05-24T14:03:42Z</time>
      </trkpt>
      <trkpt lat="43.009483" lon="-4.379533">
        <ele>3340.0</ele>
        <time>2017-05-24T14:03:43Z</time>
      </trkpt>
      <trkpt lat="43.009567" lon="-4.379533">
        <ele>3343.0</ele>
        <time>2017-05-24T14:03:44Z</time>
      </trkpt>
      <trkpt lat="43.009633" lon="-4.379517">
        <ele>3345.0</ele>
        <time>2017-05-24T14:03:45Z</time>
      </trkpt>
      <trkpt lat="43.009683" lon="-4.379483">
        <ele>3346.0</ele>
        <time>2017-05-24T14:03:46Z</time>
      </trkpt>
      <trkpt lat="43.009750" lon="-4.379450">
        <ele>3346.0</ele>
        <time>2017-05-24T14:03:47Z</time>
      </trkpt>
      <trkpt lat="43.009833" lon="-4.379383">
        <ele>3345.0</ele>
        <time>2017-05-24T14:03:48Z</time>
      </trkpt>
      <trkpt lat="43.009883" lon="-4.379267">
        <ele>3346.0</ele>
        <time>2017-05-24T14:03:49Z</time>
      </trkpt>
      <trkpt lat="43.009917" lon="-4.379133">
        <ele>3347.0</ele>
        <time>2017-05-24T14:03:50Z</time>
      </trkpt>
      <trkpt lat="43.009900" lon="-4.379000">
        <ele>3348.0</ele>
        <time>2017-05-24T14:03:51Z</time>
      </trkpt>
      <trkpt lat="43.009850" lon="-4.378883">
        <ele>3349.0</ele>
        <time>2017-05-24T14:03:52Z</time>
      </trkpt>
      <trkpt lat="43.009800" lon="-4.378817">
        <ele>3350.0</ele>
        <time>2017-05-24T14:03:53Z</time>
      </trkpt>
      <trkpt lat="43.009750" lon="-4.378767">
        <ele>3350.0</ele>
        <time>2017-05-24T14:03:54Z</time>
      </trkpt>
      <trkpt lat="43.009717" lon="-4.378717">
        <ele>3350.0</ele>
        <time>2017-05-24T14:03:55Z</time>
      </trkpt>
      <trkpt lat="43.009667" lon="-4.378650">
        <ele>3350.0</ele>
        <time>2017-05-24T14:03:56Z</time>
      </trkpt>
      <trkpt lat="43.009617" lon="-4.378567">
        <ele>3349.0</ele>
        <time>2017-05-24T14:03:57Z</time>
      </trkpt>
      <trkpt lat="43.009567" lon="-4.378500">
        <ele>3348.0</ele>
        <time>2017-05-24T14:03:58Z</time>
      </trkpt>
      <trkpt lat="43.009500" lon="-4.378467">
        <ele>3348.0</ele>
        <time>2017-05-24T14:03:59Z</time>
      </trkpt>
      <trkpt lat="43.009417" lon="-4.378450">
        <ele>3349.0</ele>
        <time>2017-05-24T14:04:00Z</time>
      </trkpt>
      <trkpt lat="43.009350" lon="-4.378483">
        <ele>3349.0</ele>
        <time>2017-05-24T14:04:01Z</time>
      </trkpt>
      <trkpt lat="43.009317" lon="-4.378533">
        <ele>3349.0</ele>
        <time>2017-05-24T14:04:02Z</time>
      </trkpt>
      <trkpt lat="43.009283" lon="-4.378600">
        <ele>3349.0</ele>
        <time>2017-05-24T14:04:03Z</time>
      </trkpt>
      <trkpt lat="43.009283" lon="-4.378683">
        <ele>3348.0</ele>
        <time>2017-05-24T14:04:04Z</time>
      </trkpt>
      <trkpt lat="43.009267" lon="-4.378800">
        <ele>3348.0</ele>
        <time>2017-05-24T14:04:05Z</time>
      </trkpt>
      <trkpt lat="43.009283" lon="-4.378917">
        <ele>3350.0</ele>
        <time>2017-05-24T14:04:06Z</time>
      </trkpt>
      <trkpt lat="43.009300" lon="-4.379000">
        <ele>3352.0</ele>
        <time>2017-05-24T14:04:07Z</time>
      </trkpt>
      <trkpt lat="43.009333" lon="-4.379083">
        <ele>3355.0</ele>
        <time>2017-05-24T14:04:08Z</time>
      </trkpt>
      <trkpt lat="43.009383" lon="-4.379150">
        <ele>3357.0</ele>
        <time>2017-05-24T14:04:09Z</time>
      </trkpt>
      <trkpt lat="43.009433" lon="-4.379217">
        <ele>3359.0</ele>
        <time>2017-05-24T14:04:10Z</time>
      </trkpt>
      <trkpt lat="43.009467" lon="-4.379283">
        <ele>3361.0</ele>
        <time>2017-05-24T14:04:11Z</time>
      </trkpt>
      <trkpt lat="43.009517" lon="-4.379350">
        <ele>3362.0</ele>
        <time>2017-05-24T14:04:12Z</time>
      </trkpt>
      <trkpt lat="43.009583" lon="-4.379400">
        <ele>3363.0</ele>
        <time>2017-05-24T14:04:13Z</time>
      </trkpt>
      <trkpt lat="43.009667" lon="-4.379417">
        <ele>3365.0</ele>
        <time>2017-05-24T14:04:14Z</time>
      </trkpt>
      <trkpt lat="43.009750" lon="-4.379383">
        <ele>3366.0</ele>
        <time>2017-05-24T14:04:15Z</time>
      </trkpt>
      <trkpt lat="43.009817" lon="-4.379350">
        <ele>3369.0</ele>
        <time>2017-05-24T14:04:16Z</time>
      </trkpt>
      <trkpt lat="43.009867" lon="-4.379317">
        <ele>3371.0</ele>
        <time>2017-05-24T14:04:17Z</time>
      </trkpt>
      <trkpt lat="43.009933" lon="-4.379267">
        <ele>3373.0</ele>
        <time>2017-05-24T14:04:18Z</time>
      </trkpt>
      <trkpt lat="43.009983" lon="-4.379217">
        <ele>3374.0</ele>
        <time>2017-05-24T14:04:19Z</time>
      </trkpt>
      <trkpt lat="43.010050" lon="-4.379150">
        <ele>3376.0</ele>
        <time>2017-05-24T14:04:20Z</time>
      </trkpt>
      <trkpt lat="43.010100" lon="-4.379050">
        <ele>3377.0</ele>
        <time>2017-05-24T14:04:21Z</time>
      </trkpt>
      <trkpt lat="43.010133" lon="-4.378950">
        <ele>3379.0</ele>
        <time>2017-05-24T14:04:22Z</time>
      </trkpt>
      <trkpt lat="43.010150" lon="-4.378833">
        <ele>3380.0</ele>
        <time>2017-05-24T14:04:23Z</time>
      </trkpt>
      <trkpt lat="43.010133" lon="-4.378733">
        <ele>3381.0</ele>
        <time>2017-05-24T14:04:24Z</time>
      </trkpt>
      <trkpt lat="43.010117" lon="-4.378633">
        <ele>3383.0</ele>
        <time>2017-05-24T14:04:25Z</time>
      </trkpt>
      <trkpt lat="43.010100" lon="-4.378550">
        <ele>3382.0</ele>
        <time>2017-05-24T14:04:26Z</time>
      </trkpt>
      <trkpt lat="43.010083" lon="-4.378450">
        <ele>3382.0</ele>
        <time>2017-05-24T14:04:27Z</time>
      </trkpt>
      <trkpt lat="43.010050" lon="-4.378367">
        <ele>3382.0</ele>
        <time>2017-05-24T14:04:28Z</time>
      </trkpt>
      <trkpt lat="43.010000" lon="-4.378283">
        <ele>3382.0</ele>
        <time>2017-05-24T14:04:29Z</time>
      </trkpt>
      <trkpt lat="43.009933" lon="-4.378233">
        <ele>3381.0</ele>
        <time>2017-05-24T14:04:30Z</time>
      </trkpt>
      <trkpt lat="43.009867" lon="-4.378200">
        <ele>3380.0</ele>
        <time>2017-05-24T14:04:31Z</time>
      </trkpt>
      <trkpt lat="43.009800" lon="-4.378167">
        <ele>3380.0</ele>
        <time>2017-05-24T14:04:32Z</time>
      </trkpt>
      <trkpt lat="43.009717" lon="-4.378100">
        <ele>3381.0</ele>
        <time>2017-05-24T14:04:33Z</time>
      </trkpt>
      <trkpt lat="43.009667" lon="-4.378033">
        <ele>3382.0</ele>
        <time>2017-05-24T14:04:34Z</time>
      </trkpt>
      <trkpt lat="43.009617" lon="-4.377967">
        <ele>3382.0</ele>
        <time>2017-05-24T14:04:35Z</time>
      </trkpt>
      <trkpt lat="43.009567" lon="-4.377917">
        <ele>3382.0</ele>
        <time>2017-05-24T14:04:36Z</time>
      </trkpt>
      <trkpt lat="43.009500" lon="-4.377833">
        <ele>3382.0</ele>
        <time>2017-05-24T14:04:37Z</time>
      </trkpt>
      <trkpt lat="43.009433" lon="-4.377767">
        <ele>3382.0</ele>
        <time>2017-05-24T14:04:38Z</time>
      </trkpt>
      <trkpt lat="43.009383" lon="-4.377700">
        <ele>3383.0</ele>
        <time>2017-05-24T14:04:39Z</time>
      </trkpt>
      <trkpt lat="43.009317" lon="-4.377650">
        <ele>3382.0</ele>
        <time>2017-05-24T14:04:40Z</time>
      </trkpt>
      <trkpt lat="43.009250" lon="-4.377600">
        <ele>3381.0</ele>
        <time>2017-05-24T14:04:41Z</time>
      </trkpt>
      <trkpt lat="43.009167" lon="-4.377567">
        <ele>3380.0</ele>
        <time>2017-05-24T14:04:42Z</time>
      </trkpt>
      <trkpt lat="43.009083" lon="-4.377533">
        <ele>3379.0</ele>
        <time>2017-05-24T14:04:43Z</time>
      </trkpt>
      <trkpt lat="43.008983" lon="-4.377500">
        <ele>3378.0</ele>
        <time>2017-05-24T14:04:44Z</time>
      </trkpt>
      <trkpt lat="43.008900" lon="-4.377467">
        <ele>3378.0</ele>
        <time>2017-05-24T14:04:45Z</time>
      </trkpt>
      <trkpt lat="43.008800" lon="-4.377433">
        <ele>3378.0</ele>
        <time>2017-05-24T14:04:46Z</time>
      </trkpt>
      <trkpt lat="43.008717" lon="-4.377433">
        <ele>3377.0</ele>
        <time>2017-05-24T14:04:47Z</time>
      </trkpt>
      <trkpt lat="43.008633" lon="-4.377450">
        <ele>3377.0</ele>
        <time>2017-05-24T14:04:48Z</time>
      </trkpt>
      <trkpt lat="43.008550" lon="-4.377467">
        <ele>3377.0</ele>
        <time>2017-05-24T14:04:49Z</time>
      </trkpt>
      <trkpt lat="43.008467" lon="-4.377500">
        <ele>3376.0</ele>
        <time>2017-05-24T14:04:50Z</time>
      </trkpt>
      <trkpt lat="43.008383" lon="-4.377500">
        <ele>3376.0</ele>
        <time>2017-05-24T14:04:51Z</time>
      </trkpt>
      <trkpt lat="43.008283" lon="-4.377517">
        <ele>3374.0</ele>
        <time>2017-05-24T14:04:52Z</time>
      </trkpt>
      <trkpt lat="43.008183" lon="-4.377533">
        <ele>3374.0</ele>
        <time>2017-05-24T14:04:53Z</time>
      </trkpt>
      <trkpt lat="43.008100" lon="-4.377567">
        <ele>3374.0</ele>
        <time>2017-05-24T14:04:54Z</time>
      </trkpt>
      <trkpt lat="43.008000" lon="-4.377600">
        <ele>3374.0</ele>
        <time>2017-05-24T14:04:55Z</time>
      </trkpt>
      <trkpt lat="43.007917" lon="-4.377617">
        <ele>3375.0</ele>
        <time>2017-05-24T14:04:56Z</time>
      </trkpt>
      <trkpt lat="43.007850" lon="-4.377633">
        <ele>3376.0</ele>
        <time>2017-05-24T14:04:57Z</time>
      </trkpt>
      <trkpt lat="43.007767" lon="-4.377667">
        <ele>3377.0</ele>
        <time>2017-05-24T14:04:58Z</time>
      </trkpt>
      <trkpt lat="43.007683" lon="-4.377700">
        <ele>3378.0</ele>
        <time>2017-05-24T14:04:59Z</time>
      </trkpt>
      <trkpt lat="43.007617" lon="-4.377767">
        <ele>3379.0</ele>
        <time>2017-05-24T14:05:00Z</time>
      </trkpt>
      <trkpt lat="43.007567" lon="-4.377833">
        <ele>3381.0</ele>
        <time>2017-05-24T14:05:01Z</time>
      </trkpt>
      <trkpt lat="43.007517" lon="-4.377900">
        <ele>3381.0</ele>
        <time>2017-05-24T14:05:02Z</time>
      </trkpt>
      <trkpt lat="43.007467" lon="-4.377950">
        <ele>3380.0</ele>
        <time>2017-05-24T14:05:03Z</time>
      </trkpt>
      <trkpt lat="43.007383" lon="-4.377983">
        <ele>3378.0</ele>
        <time>2017-05-24T14:05:04Z</time>
      </trkpt>
      <trkpt lat="43.007317" lon="-4.378033">
        <ele>3375.0</ele>
        <time>2017-05-24T14:05:05Z</time>
      </trkpt>
      <trkpt lat="43.007217" lon="-4.378067">
        <ele>3373.0</ele>
        <time>2017-05-24T14:05:06Z</time>
      </trkpt>
      <trkpt lat="43.007133" lon="-4.378100">
        <ele>3373.0</ele>
        <time>2017-05-24T14:05:07Z</time>
      </trkpt>
      <trkpt lat="43.007067" lon="-4.378133">
        <ele>3372.0</ele>
        <time>2017-05-24T14:05:08Z</time>
      </trkpt>
      <trkpt lat="43.006983" lon="-4.378150">
        <ele>3372.0</ele>
        <time>2017-05-24T14:05:09Z</time>
      </trkpt>
      <trkpt lat="43.006900" lon="-4.378167">
        <ele>3371.0</ele>
        <time>2017-05-24T14:05:10Z</time>
      </trkpt>
      <trkpt lat="43.006817" lon="-4.378183">
        <ele>3369.0</ele>
        <time>2017-05-24T14:05:11Z</time>
      </trkpt>
      <trkpt lat="43.006717" lon="-4.378183">
        <ele>3368.0</ele>
        <time>2017-05-24T14:05:12Z</time>
      </trkpt>
      <trkpt lat="43.006600" lon="-4.378167">
        <ele>3368.0</ele>
        <time>2017-05-24T14:05:13Z</time>
      </trkpt>
      <trkpt lat="43.006483" lon="-4.378183">
        <ele>3368.0</ele>
        <time>2017-05-24T14:05:14Z</time>
      </trkpt>
      <trkpt lat="43.006383" lon="-4.378200">
        <ele>3368.0</ele>
        <time>2017-05-24T14:05:15Z</time>
      </trkpt>
      <trkpt lat="43.006283" lon="-4.378250">
        <ele>3368.0</ele>
        <time>2017-05-24T14:05:16Z</time>
      </trkpt>
      <trkpt lat="43.006183" lon="-4.378283">
        <ele>3368.0</ele>
        <time>2017-05-24T14:05:17Z</time>
      </trkpt>
      <trkpt lat="43.006083" lon="-4.378317">
        <ele>3368.0</ele>
        <time>2017-05-24T14:05:18Z</time>
      </trkpt>
      <trkpt lat="43.006000" lon="-4.378350">
        <ele>3368.0</ele>
        <time>2017-05-24T14:05:19Z</time>
      </trkpt>
      <trkpt lat="43.005917" lon="-4.378400">
        <ele>3368.0</ele>
        <time>2017-05-24T14:05:20Z</time>
      </trkpt>
      <trkpt lat="43.005850" lon="-4.378483">
        <ele>3365.0</ele>
        <time>2017-05-24T14:05:21Z</time>
      </trkpt>
      <trkpt lat="43.005783" lon="-4.378550">
        <ele>3361.0</ele>
        <time>2017-05-24T14:05:22Z</time>
      </trkpt>
      <trkpt lat="43.005683" lon="-4.378633">
        <ele>3357.0</ele>
        <time>2017-05-24T14:05:23Z</time>
      </trkpt>
      <trkpt lat="43.005583" lon="-4.378717">
        <ele>3353.0</ele>
        <time>2017-05-24T14:05:24Z</time>
      </trkpt>
      <trkpt lat="43.005467" lon="-4.378767">
        <ele>3351.0</ele>
        <time>2017-05-24T14:05:25Z</time>
      </trkpt>
      <trkpt lat="43.005383" lon="-4.378800">
        <ele>3350.0</ele>
        <time>2017-05-24T14:05:26Z</time>
      </trkpt>
      <trkpt lat="43.005283" lon="-4.378833">
        <ele>3349.0</ele>
        <time>2017-05-24T14:05:27Z</time>
      </trkpt>
      <trkpt lat="43.005200" lon="-4.378867">
        <ele>3347.0</ele>
        <time>2017-05-24T14:05:28Z</time>
      </trkpt>
      <trkpt lat="43.005100" lon="-4.378867">
        <ele>3345.0</ele>
        <time>2017-05-24T14:05:29Z</time>
      </trkpt>
      <trkpt lat="43.005000" lon="-4.378833">
        <ele>3344.0</ele>
        <time>2017-05-24T14:05:30Z</time>
      </trkpt>
      <trkpt lat="43.004917" lon="-4.378783">
        <ele>3343.0</ele>
        <time>2017-05-24T14:05:31Z</time>
      </trkpt>
      <trkpt lat="43.004817" lon="-4.378750">
        <ele>3343.0</ele>
        <time>2017-05-24T14:05:32Z</time>
      </trkpt>
      <trkpt lat="43.004733" lon="-4.378717">
        <ele>3342.0</ele>
        <time>2017-05-24T14:05:33Z</time>
      </trkpt>
      <trkpt lat="43.004633" lon="-4.378683">
        <ele>3341.0</ele>
        <time>2017-05-24T14:05:34Z</time>
      </trkpt>
      <trkpt lat="43.004550" lon="-4.378633">
        <ele>3339.0</ele>
        <time>2017-05-24T14:05:35Z</time>
      </trkpt>
      <trkpt lat="43.004450" lon="-4.378567">
        <ele>3337.0</ele>
        <time>2017-05-24T14:05:36Z</time>
      </trkpt>
      <trkpt lat="43.004350" lon="-4.378500">
        <ele>3335.0</ele>
        <time>2017-05-24T14:05:37Z</time>
      </trkpt>
      <trkpt lat="43.004233" lon="-4.378450">
        <ele>3334.0</ele>
        <time>2017-05-24T14:05:38Z</time>
      </trkpt>
      <trkpt lat="43.004133" lon="-4.378400">
        <ele>3333.0</ele>
        <time>2017-05-24T14:05:39Z</time>
      </trkpt>
      <trkpt lat="43.004033" lon="-4.378333">
        <ele>3332.0</ele>
        <time>2017-05-24T14:05:40Z</time>
      </trkpt>
      <trkpt lat="43.003917" lon="-4.378283">
        <ele>3331.0</ele>
        <time>2017-05-24T14:05:41Z</time>
      </trkpt>
      <trkpt lat="43.003817" lon="-4.378233">
        <ele>3329.0</ele>
        <time>2017-05-24T14:05:42Z</time>
      </trkpt>
      <trkpt lat="43.003700" lon="-4.378183">
        <ele>3326.0</ele>
        <time>2017-05-24T14:05:43Z</time>
      </trkpt>
      <trkpt lat="43.003583" lon="-4.378150">
        <ele>3324.0</ele>
        <time>2017-05-24T14:05:44Z</time>
      </trkpt>
      <trkpt lat="43.003467" lon="-4.378117">
        <ele>3323.0</ele>
        <time>2017-05-24T14:05:45Z</time>
      </trkpt>
      <trkpt lat="43.003350" lon="-4.378067">
        <ele>3322.0</ele>
        <time>2017-05-24T14:05:46Z</time>
      </trkpt>
      <trkpt lat="43.003233" lon="-4.378017">
        <ele>3321.0</ele>
        <time>2017-05-24T14:05:47Z</time>
      </trkpt>
      <trkpt lat="43.003133" lon="-4.377967">
        <ele>3321.0</ele>
        <time>2017-05-24T14:05:48Z</time>
      </trkpt>
      <trkpt lat="43.003033" lon="-4.377933">
        <ele>3319.0</ele>
        <time>2017-05-24T14:05:49Z</time>
      </trkpt>
      <trkpt lat="43.002933" lon="-4.377917">
        <ele>3316.0</ele>
        <time>2017-05-24T14:05:50Z</time>
      </trkpt>
      <trkpt lat="43.002817" lon="-4.377883">
        <ele>3312.0</ele>
        <time>2017-05-24T14:05:51Z</time>
      </trkpt>
      <trkpt lat="43.002700" lon="-4.377833">
        <ele>3309.0</ele>
        <time>2017-05-24T14:05:52Z</time>
      </trkpt>
      <trkpt lat="43.002567" lon="-4.377783">
        <ele>3306.0</ele>
        <time>2017-05-24T14:05:53Z</time>
      </trkpt>
      <trkpt lat="43.002450" lon="-4.377717">
        <ele>3304.0</ele>
        <time>2017-05-24T14:05:54Z</time>
      </trkpt>
      <trkpt lat="43.002350" lon="-4.377667">
        <ele>3303.0</ele>
        <time>2017-05-24T14:05:55Z</time>
      </trkpt>
      <trkpt lat="43.002250" lon="-4.377617">
        <ele>3301.0</ele>
        <time>2017-05-24T14:05:56Z</time>
      </trkpt>
      <trkpt lat="43.002150" lon="-4.377583">
        <ele>3299.0</ele>
        <time>2017-05-24T14:05:57Z</time>
      </trkpt>
      <trkpt lat="43.002033" lon="-4.377533">
        <ele>3296.0</ele>
        <time>2017-05-24T14:05:58Z</time>
      </trkpt>
      <trkpt lat="43.001933" lon="-4.377500">
        <ele>3293.0</ele>
        <time>2017-05-24T14:05:59Z</time>
      </trkpt>
      <trkpt lat="43.001817" lon="-4.377433">
        <ele>3290.0</ele>
        <time>2017-05-24T14:06:00Z</time>
      </trkpt>
      <trkpt lat="43.001700" lon="-4.377400">
        <ele>3287.0</ele>
        <time>2017-05-24T14:06:01Z</time>
      </trkpt>
      <trkpt lat="43.001600" lon="-4.377350">
        <ele>3285.0</ele>
        <time>2017-05-24T14:06:02Z</time>
      </trkpt>
      <trkpt lat="43.001500" lon="-4.377333">
        <ele>3283.0</ele>
        <time>2017-05-24T14:06:03Z</time>
      </trkpt>
      <trkpt lat="43.001417" lon="-4.377317">
        <ele>3281.0</ele>
        <time>2017-05-24T14:06:04Z</time>
      </trkpt>
      <trkpt lat="43.001317" lon="-4.377300">
        <ele>3279.0</ele>
        <time>2017-05-24T14:06:05Z</time>
      </trkpt>
      <trkpt lat="43.001233" lon="-4.377267">
        <ele>3276.0</ele>
        <time>2017-05-24T14:06:06Z</time>
      </trkpt>
      <trkpt lat="43.001133" lon="-4.377250">
        <ele>3273.0</ele>
        <time>2017-05-24T14:06:07Z</time>
      </trkpt>
      <trkpt lat="43.001017" lon="-4.377217">
        <ele>3270.0</ele>
        <time>2017-05-24T14:06:08Z</time>
      </trkpt>
      <trkpt lat="43.000900" lon="-4.377200">
        <ele>3267.0</ele>
        <time>2017-05-24T14:06:09Z</time>
      </trkpt>
      <trkpt lat="43.000783" lon="-4.377183">
        <ele>3264.0</ele>
        <time>2017-05-24T14:06:10Z</time>
      </trkpt>
      <trkpt lat="43.000667" lon="-4.377150">
        <ele>3262.0</ele>
        <time>2017-05-24T14:06:11Z</time>
      </trkpt>
      <trkpt lat="43.000550" lon="-4.377100">
        <ele>3261.0</ele>
        <time>2017-05-24T14:06:12Z</time>
      </trkpt>
      <trkpt lat="43.000450" lon="-4.377050">
        <ele>3259.0</ele>
        <time>2017-05-24T14:06:13Z</time>
      </trkpt>
      <trkpt lat="43.000367" lon="-4.377000">
        <ele>3258.0</ele>
        <time>2017-05-24T14:06:14Z</time>
      </trkpt>
      <trkpt lat="43.000267" lon="-4.376967">
        <ele>3256.0</ele>
        <time>2017-05-24T14:06:15Z</time>
      </trkpt>
      <trkpt lat="43.000183" lon="-4.376917">
        <ele>3253.0</ele>
        <time>2017-05-24T14:06:16Z</time>
      </trkpt>
      <trkpt lat="43.000083" lon="-4.376850">
        <ele>3249.0</ele>
        <time>2017-05-24T14:06:17Z</time>
      </trkpt>
      <trkpt lat="42.999983" lon="-4.376767">
        <ele>3245.0</ele>
        <time>2017-05-24T14:06:18Z</time>
      </trkpt>
      <trkpt lat="42.999883" lon="-4.376683">
        <ele>3242.0</ele>
        <time>2017-05-24T14:06:19Z</time>
      </trkpt>
      <trkpt lat="42.999783" lon="-4.376600">
        <ele>3240.0</ele>
        <time>2017-05-24T14:06:20Z</time>
      </trkpt>
      <trkpt lat="42.999700" lon="-4.376517">
        <ele>3238.0</ele>
        <time>2017-05-24T14:06:21Z</time>
      </trkpt>
      <trkpt lat="42.999617" lon="-4.376433">
        <ele>3235.0</ele>
        <time>2017-05-24T14:06:22Z</time>
      </trkpt>
      <trkpt lat="42.999533" lon="-4.376350">
        <ele>3233.0</ele>
        <time>2017-05-24T14:06:23Z</time>
      </trkpt>
      <trkpt lat="42.999450" lon="-4.376267">
        <ele>3230.0</ele>
        <time>2017-05-24T14:06:24Z</time>
      </trkpt>
      <trkpt lat="42.999367" lon="-4.376167">
        <ele>3226.0</ele>
        <time>2017-05-24T14:06:25Z</time>
      </trkpt>
      <trkpt lat="42.999283" lon="-4.376083">
        <ele>3222.0</ele>
        <time>2017-05-24T14:06:26Z</time>
      </trkpt>
      <trkpt lat="42.999183" lon="-4.375983">
        <ele>3218.0</ele>
        <time>2017-05-24T14:06:27Z</time>
      </trkpt>
      <trkpt lat="42.999083" lon="-4.375900">
        <ele>3216.0</ele>
        <time>2017-05-24T14:06:28Z</time>
      </trkpt>
      <trkpt lat="42.999000" lon="-4.375817">
        <ele>3214.0</ele>
        <time>2017-05-24T14:06:29Z</time>
      </trkpt>
      <trkpt lat="42.998917" lon="-4.375733">
        <ele>3212.0</ele>
        <time>2017-05-24T14:06:30Z</time>
      </trkpt>
      <trkpt lat="42.998833" lon="-4.375667">
        <ele>3210.0</ele>
        <time>2017-05-24T14:06:31Z</time>
      </trkpt>
      <trkpt lat="42.998767" lon="-4.375600">
        <ele>3208.0</ele>
        <time>2017-05-24T14:06:32Z</time>
      </trkpt>
      <trkpt lat="42.998683" lon="-4.375533">
        <ele>3206.0</ele>
        <time>2017-05-24T14:06:33Z</time>
      </trkpt>
      <trkpt lat="42.998583" lon="-4.375467">
        <ele>3203.0</ele>
        <time>2017-05-24T14:06:34Z</time>
      </trkpt>
      <trkpt lat="42.998500" lon="-4.375383">
        <ele>3199.0</ele>
        <time>2017-05-24T14:06:35Z</time>
      </trkpt>
      <trkpt lat="42.998400" lon="-4.375283">
        <ele>3196.0</ele>
        <time>2017-05-24T14:06:36Z</time>
      </trkpt>
      <trkpt lat="42.998300" lon="-4.375167">
        <ele>3194.0</ele>
        <time>2017-05-24T14:06:37Z</time>
      </trkpt>
      <trkpt lat="42.998217" lon="-4.375067">
        <ele>3193.0</ele>
        <time>2017-05-24T14:06:38Z</time>
      </trkpt>
      <trkpt lat="42.998117" lon="-4.374983">
        <ele>3193.0</ele>
        <time>2017-05-24T14:06:39Z</time>
      </trkpt>
      <trkpt lat="42.998033" lon="-4.374900">
        <ele>3192.0</ele>
        <time>2017-05-24T14:06:40Z</time>
      </trkpt>
      <trkpt lat="42.997950" lon="-4.374817">
        <ele>3191.0</ele>
        <time>2017-05-24T14:06:41Z</time>
      </trkpt>
      <trkpt lat="42.997850" lon="-4.374733">
        <ele>3188.0</ele>
        <time>2017-05-24T14:06:42Z</time>
      </trkpt>
      <trkpt lat="42.997750" lon="-4.374633">
        <ele>3186.0</ele>
        <time>2017-05-24T14:06:43Z</time>
      </trkpt>
      <trkpt lat="42.997667" lon="-4.374533">
        <ele>3185.0</ele>
        <time>2017-05-24T14:06:44Z</time>
      </trkpt>
      <trkpt lat="42.997583" lon="-4.374433">
        <ele>3184.0</ele>
        <time>2017-05-24T14:06:45Z</time>
      </trkpt>
      <trkpt lat="42.997500" lon="-4.374333">
        <ele>3183.0</ele>
        <time>2017-05-24T14:06:46Z</time>
      </trkpt>
      <trkpt lat="42.997433" lon="-4.374217">
        <ele>3181.0</ele>
        <time>2017-05-24T14:06:47Z</time>
      </trkpt>
      <trkpt lat="42.997333" lon="-4.374100">
        <ele>3179.0</ele>
        <time>2017-05-24T14:06:48Z</time>
      </trkpt>
      <trkpt lat="42.997250" lon="-4.373950">
        <ele>3177.0</ele>
        <time>2017-05-24T14:06:49Z</time>
      </trkpt>
      <trkpt lat="42.997150" lon="-4.373833">
        <ele>3178.0</ele>
        <time>2017-05-24T14:06:50Z</time>
      </trkpt>
      <trkpt lat="42.997067" lon="-4.373717">
        <ele>3180.0</ele>
        <time>2017-05-24T14:06:51Z</time>
      </trkpt>
      <trkpt lat="42.996983" lon="-4.373617">
        <ele>3182.0</ele>
        <time>2017-05-24T14:06:52Z</time>
      </trkpt>
      <trkpt lat="42.996917" lon="-4.373533">
        <ele>3182.0</ele>
        <time>2017-05-24T14:06:53Z</time>
      </trkpt>
      <trkpt lat="42.996833" lon="-4.373450">
        <ele>3182.0</ele>
        <time>2017-05-24T14:06:54Z</time>
      </trkpt>
      <trkpt lat="42.996750" lon="-4.373350">
        <ele>3182.0</ele>
        <time>2017-05-24T14:06:55Z</time>
      </trkpt>
      <trkpt lat="42.996667" lon="-4.373250">
        <ele>3182.0</ele>
        <time>2017-05-24T14:06:56Z</time>
      </trkpt>
      <trkpt lat="42.996583" lon="-4.373150">
        <ele>3183.0</ele>
        <time>2017-05-24T14:06:57Z</time>
      </trkpt>
      <trkpt lat="42.996517" lon="-4.373083">
        <ele>3183.0</ele>
        <time>2017-05-24T14:06:58Z</time>
      </trkpt>
      <trkpt lat="42.996450" lon="-4.373000">
        <ele>3183.0</ele>
        <time>2017-05-24T14:06:59Z</time>
      </trkpt>
      <trkpt lat="42.996367" lon="-4.372917">
        <ele>3182.0</ele>
        <time>2017-05-24T14:07:00Z</time>
      </trkpt>
      <trkpt lat="42.996283" lon="-4.372817">
        <ele>3181.0</ele>
        <time>2017-05-24T14:07:01Z</time>
      </trkpt>
      <trkpt lat="42.996200" lon="-4.372717">
        <ele>3180.0</ele>
        <time>2017-05-24T14:07:02Z</time>
      </trkpt>
      <trkpt lat="42.996117" lon="-4.372600">
        <ele>3180.0</ele>
        <time>2017-05-24T14:07:03Z</time>
      </trkpt>
      <trkpt lat="42.996033" lon="-4.372483">
        <ele>3180.0</ele>
        <time>2017-05-24T14:07:04Z</time>
      </trkpt>
      <trkpt lat="42.995933" lon="-4.372383">
        <ele>3180.0</ele>
        <time>2017-05-24T14:07:05Z</time>
      </trkpt>
      <trkpt lat="42.995833" lon="-4.372283">
        <ele>3181.0</ele>
        <time>2017-05-24T14:07:06Z</time>
      </trkpt>
      <trkpt lat="42.995750" lon="-4.372200">
        <ele>3181.0</ele>
        <time>2017-05-24T14:07:07Z</time>
      </trkpt>
      <trkpt lat="42.995683" lon="-4.372133">
        <ele>3181.0</ele>
        <time>2017-05-24T14:07:08Z</time>
      </trkpt>
      <trkpt lat="42.995600" lon="-4.372050">
        <ele>3179.0</ele>
        <time>2017-05-24T14:07:09Z</time>
      </trkpt>
      <trkpt lat="42.995533" lon="-4.371950">
        <ele>3176.0</ele>
        <time>2017-05-24T14:07:10Z</time>
      </trkpt>
      <trkpt lat="42.995450" lon="-4.371850">
        <ele>3173.0</ele>
        <time>2017-05-24T14:07:11Z</time>
      </trkpt>
      <trkpt lat="42.995350" lon="-4.371717">
        <ele>3171.0</ele>
        <time>2017-05-24T14:07:12Z</time>
      </trkpt>
      <trkpt lat="42.995250" lon="-4.371583">
        <ele>3169.0</ele>
        <time>2017-05-24T14:07:13Z</time>
      </trkpt>
      <trkpt lat="42.995150" lon="-4.371433">
        <ele>3169.0</ele>
        <time>2017-05-24T14:07:14Z</time>
      </trkpt>
      <trkpt lat="42.995067" lon="-4.371300">
        <ele>3172.0</ele>
        <time>2017-05-24T14:07:15Z</time>
      </trkpt>
      <trkpt lat="42.994983" lon="-4.371200">
        <ele>3176.0</ele>
        <time>2017-05-24T14:07:16Z</time>
      </trkpt>
      <trkpt lat="42.994900" lon="-4.371117">
        <ele>3178.0</ele>
        <time>2017-05-24T14:07:17Z</time>
      </trkpt>
      <trkpt lat="42.994833" lon="-4.371033">
        <ele>3179.0</ele>
        <time>2017-05-24T14:07:18Z</time>
      </trkpt>
      <trkpt lat="42.994767" lon="-4.370950">
        <ele>3179.0</ele>
        <time>2017-05-24T14:07:19Z</time>
      </trkpt>
      <trkpt lat="42.994700" lon="-4.370850">
        <ele>3178.0</ele>
        <time>2017-05-24T14:07:20Z</time>
      </trkpt>
      <trkpt lat="42.994633" lon="-4.370733">
        <ele>3178.0</ele>
        <time>2017-05-24T14:07:21Z</time>
      </trkpt>
      <trkpt lat="42.994583" lon="-4.370600">
        <ele>3178.0</ele>
        <time>2017-05-24T14:07:22Z</time>
      </trkpt>
      <trkpt lat="42.994533" lon="-4.370467">
        <ele>3179.0</ele>
        <time>2017-05-24T14:07:23Z</time>
      </trkpt>
      <trkpt lat="42.994500" lon="-4.370350">
        <ele>3181.0</ele>
        <time>2017-05-24T14:07:24Z</time>
      </trkpt>
      <trkpt lat="42.994467" lon="-4.370267">
        <ele>3181.0</ele>
        <time>2017-05-24T14:07:25Z</time>
      </trkpt>
      <trkpt lat="42.994417" lon="-4.370150">
        <ele>3182.0</ele>
        <time>2017-05-24T14:07:26Z</time>
      </trkpt>
      <trkpt lat="42.994383" lon="-4.370033">
        <ele>3182.0</ele>
        <time>2017-05-24T14:07:27Z</time>
      </trkpt>
      <trkpt lat="42.994350" lon="-4.369900">
        <ele>3182.0</ele>
        <time>2017-05-24T14:07:28Z</time>
      </trkpt>
      <trkpt lat="42.994317" lon="-4.369767">
        <ele>3183.0</ele>
        <time>2017-05-24T14:07:29Z</time>
      </trkpt>
      <trkpt lat="42.994283" lon="-4.369633">
        <ele>3185.0</ele>
        <time>2017-05-24T14:07:30Z</time>
      </trkpt>
      <trkpt lat="42.994250" lon="-4.369517">
        <ele>3186.0</ele>
        <time>2017-05-24T14:07:31Z</time>
      </trkpt>
      <trkpt lat="42.994217" lon="-4.369400">
        <ele>3187.0</ele>
        <time>2017-05-24T14:07:32Z</time>
      </trkpt>
      <trkpt lat="42.994167" lon="-4.369283">
        <ele>3188.0</ele>
        <time>2017-05-24T14:07:33Z</time>
      </trkpt>
      <trkpt lat="42.994117" lon="-4.369150">
        <ele>3188.0</ele>
        <time>2017-05-24T14:07:34Z</time>
      </trkpt>
      <trkpt lat="42.994067" lon="-4.369033">
        <ele>3189.0</ele>
        <time>2017-05-24T14:07:35Z</time>
      </trkpt>
      <trkpt lat="42.994000" lon="-4.368917">
        <ele>3190.0</ele>
        <time>2017-05-24T14:07:36Z</time>
      </trkpt>
      <trkpt lat="42.993933" lon="-4.368817">
        <ele>3191.0</ele>
        <time>2017-05-24T14:07:37Z</time>
      </trkpt>
      <trkpt lat="42.993867" lon="-4.368717">
        <ele>3193.0</ele>
        <time>2017-05-24T14:07:38Z</time>
      </trkpt>
      <trkpt lat="42.993800" lon="-4.368617">
        <ele>3195.0</ele>
        <time>2017-05-24T14:07:39Z</time>
      </trkpt>
      <trkpt lat="42.993733" lon="-4.368533">
        <ele>3196.0</ele>
        <time>2017-05-24T14:07:40Z</time>
      </trkpt>
      <trkpt lat="42.993650" lon="-4.368450">
        <ele>3197.0</ele>
        <time>2017-05-24T14:07:41Z</time>
      </trkpt>
      <trkpt lat="42.993567" lon="-4.368367">
        <ele>3197.0</ele>
        <time>2017-05-24T14:07:42Z</time>
      </trkpt>
      <trkpt lat="42.993500" lon="-4.368300">
        <ele>3198.0</ele>
        <time>2017-05-24T14:07:43Z</time>
      </trkpt>
      <trkpt lat="42.993417" lon="-4.368233">
        <ele>3198.0</ele>
        <time>2017-05-24T14:07:44Z</time>
      </trkpt>
      <trkpt lat="42.993317" lon="-4.368183">
        <ele>3197.0</ele>
        <time>2017-05-24T14:07:45Z</time>
      </trkpt>
      <trkpt lat="42.993217" lon="-4.368183">
        <ele>3196.0</ele>
        <time>2017-05-24T14:07:46Z</time>
      </trkpt>
      <trkpt lat="42.993133" lon="-4.368217">
        <ele>3195.0</ele>
        <time>2017-05-24T14:07:47Z</time>
      </trkpt>
      <trkpt lat="42.993067" lon="-4.368300">
        <ele>3195.0</ele>
        <time>2017-05-24T14:07:48Z</time>
      </trkpt>
      <trkpt lat="42.993050" lon="-4.368383">
        <ele>3195.0</ele>
        <time>2017-05-24T14:07:49Z</time>
      </trkpt>
      <trkpt lat="42.993050" lon="-4.368450">
        <ele>3196.0</ele>
        <time>2017-05-24T14:07:50Z</time>
      </trkpt>
      <trkpt lat="42.993067" lon="-4.368517">
        <ele>3197.0</ele>
        <time>2017-05-24T14:07:51Z</time>
      </trkpt>
      <trkpt lat="42.993083" lon="-4.368567">
        <ele>3198.0</ele>
        <time>2017-05-24T14:07:52Z</time>
      </trkpt>
      <trkpt lat="42.993117" lon="-4.368617">
        <ele>3198.0</ele>
        <time>2017-05-24T14:07:53Z</time>
      </trkpt>
      <trkpt lat="42.993133" lon="-4.368650">
        <ele>3198.0</ele>
        <time>2017-05-24T14:07:54Z</time>
      </trkpt>
      <trkpt lat="42.993183" lon="-4.368683">
        <ele>3198.0</ele>
        <time>2017-05-24T14:07:55Z</time>
      </trkpt>
      <trkpt lat="42.993233" lon="-4.368717">
        <ele>3197.0</ele>
        <time>2017-05-24T14:07:56Z</time>
      </trkpt>
      <trkpt lat="42.993300" lon="-4.368733">
        <ele>3196.0</ele>
        <time>2017-05-24T14:07:57Z</time>
      </trkpt>
      <trkpt lat="42.993367" lon="-4.368767">
        <ele>3195.0</ele>
        <time>2017-05-24T14:07:58Z</time>
      </trkpt>
      <trkpt lat="42.993450" lon="-4.368800">
        <ele>3196.0</ele>
        <time>2017-05-24T14:07:59Z</time>
      </trkpt>
      <trkpt lat="42.993517" lon="-4.368817">
        <ele>3197.0</ele>
        <time>2017-05-24T14:08:00Z</time>
      </trkpt>
      <trkpt lat="42.993583" lon="-4.368817">
        <ele>3199.0</ele>
        <time>2017-05-24T14:08:01Z</time>
      </trkpt>
      <trkpt lat="42.993633" lon="-4.368817">
        <ele>3200.0</ele>
        <time>2017-05-24T14:08:02Z</time>
      </trkpt>
      <trkpt lat="42.993683" lon="-4.368817">
        <ele>3200.0</ele>
        <time>2017-05-24T14:08:03Z</time>
      </trkpt>
      <trkpt lat="42.993750" lon="-4.368817">
        <ele>3201.0</ele>
        <time>2017-05-24T14:08:04Z</time>
      </trkpt>
      <trkpt lat="42.993800" lon="-4.368783">
        <ele>3200.0</ele>
        <time>2017-05-24T14:08:05Z</time>
      </trkpt>
      <trkpt lat="42.993867" lon="-4.368750">
        <ele>3200.0</ele>
        <time>2017-05-24T14:08:06Z</time>
      </trkpt>
      <trkpt lat="42.993933" lon="-4.368717">
        <ele>3200.0</ele>
        <time>2017-05-24T14:08:07Z</time>
      </trkpt>
      <trkpt lat="42.994000" lon="-4.368667">
        <ele>3201.0</ele>
        <time>2017-05-24T14:08:08Z</time>
      </trkpt>
      <trkpt lat="42.994050" lon="-4.368583">
        <ele>3201.0</ele>
        <time>2017-05-24T14:08:09Z</time>
      </trkpt>
      <trkpt lat="42.994117" lon="-4.368517">
        <ele>3202.0</ele>
        <time>2017-05-24T14:08:10Z</time>
      </trkpt>
      <trkpt lat="42.994167" lon="-4.368467">
        <ele>3202.0</ele>
        <time>2017-05-24T14:08:11Z</time>
      </trkpt>
      <trkpt lat="42.994217" lon="-4.368417">
        <ele>3202.0</ele>
        <time>2017-05-24T14:08:12Z</time>
      </trkpt>
      <trkpt lat="42.994267" lon="-4.368350">
        <ele>3203.0</ele>
        <time>2017-05-24T14:08:13Z</time>
      </trkpt>
      <trkpt lat="42.994317" lon="-4.368283">
        <ele>3203.0</ele>
        <time>2017-05-24T14:08:14Z</time>
      </trkpt>
      <trkpt lat="42.994367" lon="-4.368200">
        <ele>3203.0</ele>
        <time>2017-05-24T14:08:15Z</time>
      </trkpt>
      <trkpt lat="42.994400" lon="-4.368117">
        <ele>3203.0</ele>
        <time>2017-05-24T14:08:16Z</time>
      </trkpt>
      <trkpt lat="42.994450" lon="-4.368033">
        <ele>3202.0</ele>
        <time>2017-05-24T14:08:17Z</time>
      </trkpt>
      <trkpt lat="42.994500" lon="-4.367950">
        <ele>3201.0</ele>
        <time>2017-05-24T14:08:18Z</time>
      </trkpt>
      <trkpt lat="42.994550" lon="-4.367867">
        <ele>3200.0</ele>
        <time>2017-05-24T14:08:19Z</time>
      </trkpt>
      <trkpt lat="42.994600" lon="-4.367767">
        <ele>3200.0</ele>
        <time>2017-05-24T14:08:20Z</time>
      </trkpt>
      <trkpt lat="42.994667" lon="-4.367650">
        <ele>3199.0</ele>
        <time>2017-05-24T14:08:21Z</time>
      </trkpt>
      <trkpt lat="42.994700" lon="-4.367517">
        <ele>3199.0</ele>
        <time>2017-05-24T14:08:22Z</time>
      </trkpt>
      <trkpt lat="42.994733" lon="-4.367367">
        <ele>3198.0</ele>
        <time>2017-05-24T14:08:23Z</time>
      </trkpt>
      <trkpt lat="42.994750" lon="-4.367217">
        <ele>3199.0</ele>
        <time>2017-05-24T14:08:24Z</time>
      </trkpt>
      <trkpt lat="42.994750" lon="-4.367050">
        <ele>3199.0</ele>
        <time>2017-05-24T14:08:25Z</time>
      </trkpt>
      <trkpt lat="42.994750" lon="-4.366900">
        <ele>3199.0</ele>
        <time>2017-05-24T14:08:26Z</time>
      </trkpt>
      <trkpt lat="42.994733" lon="-4.366733">
        <ele>3200.0</ele>
        <time>2017-05-24T14:08:27Z</time>
      </trkpt>
      <trkpt lat="42.994700" lon="-4.366567">
        <ele>3200.0</ele>
        <time>2017-05-24T14:08:28Z</time>
      </trkpt>
      <trkpt lat="42.994667" lon="-4.366400">
        <ele>3200.0</ele>
        <time>2017-05-24T14:08:29Z</time>
      </trkpt>
      <trkpt lat="42.994617" lon="-4.366250">
        <ele>3201.0</ele>
        <time>2017-05-24T14:08:30Z</time>
      </trkpt>
      <trkpt lat="42.994550" lon="-4.366083">
        <ele>3202.0</ele>
        <time>2017-05-24T14:08:31Z</time>
      </trkpt>
      <trkpt lat="42.994483" lon="-4.365933">
        <ele>3204.0</ele>
        <time>2017-05-24T14:08:32Z</time>
      </trkpt>
      <trkpt lat="42.994417" lon="-4.365783">
        <ele>3207.0</ele>
        <time>2017-05-24T14:08:33Z</time>
      </trkpt>
      <trkpt lat="42.994350" lon="-4.365650">
        <ele>3211.0</ele>
        <time>2017-05-24T14:08:34Z</time>
      </trkpt>
      <trkpt lat="42.994283" lon="-4.365533">
        <ele>3215.0</ele>
        <time>2017-05-24T14:08:35Z</time>
      </trkpt>
      <trkpt lat="42.994233" lon="-4.365433">
        <ele>3219.0</ele>
        <time>2017-05-24T14:08:36Z</time>
      </trkpt>
      <trkpt lat="42.994167" lon="-4.365333">
        <ele>3222.0</ele>
        <time>2017-05-24T14:08:37Z</time>
      </trkpt>
      <trkpt lat="42.994100" lon="-4.365250">
        <ele>3224.0</ele>
        <time>2017-05-24T14:08:38Z</time>
      </trkpt>
      <trkpt lat="42.994017" lon="-4.365133">
        <ele>3225.0</ele>
        <time>2017-05-24T14:08:39Z</time>
      </trkpt>
      <trkpt lat="42.993917" lon="-4.365050">
        <ele>3227.0</ele>
        <time>2017-05-24T14:08:40Z</time>
      </trkpt>
      <trkpt lat="42.993817" lon="-4.365017">
        <ele>3228.0</ele>
        <time>2017-05-24T14:08:41Z</time>
      </trkpt>
      <trkpt lat="42.993733" lon="-4.365067">
        <ele>3227.0</ele>
        <time>2017-05-24T14:08:42Z</time>
      </trkpt>
      <trkpt lat="42.993683" lon="-4.365167">
        <ele>3227.0</ele>
        <time>2017-05-24T14:08:43Z</time>
      </trkpt>
      <trkpt lat="42.993667" lon="-4.365283">
        <ele>3227.0</ele>
        <time>2017-05-24T14:08:44Z</time>
      </trkpt>
      <trkpt lat="42.993683" lon="-4.365383">
        <ele>3231.0</ele>
        <time>2017-05-24T14:08:45Z</time>
      </trkpt>
      <trkpt lat="42.993717" lon="-4.365400">
        <ele>3235.0</ele>
        <time>2017-05-24T14:08:46Z</time>
      </trkpt>
      <trkpt lat="42.993750" lon="-4.365383">
        <ele>3237.0</ele>
        <time>2017-05-24T14:08:47Z</time>
      </trkpt>
      <trkpt lat="42.993767" lon="-4.365367">
        <ele>3238.0</ele>
        <time>2017-05-24T14:08:48Z</time>
      </trkpt>
      <trkpt lat="42.993800" lon="-4.365333">
        <ele>3238.0</ele>
        <time>2017-05-24T14:08:49Z</time>
      </trkpt>
      <trkpt lat="42.993850" lon="-4.365300">
        <ele>3239.0</ele>
        <time>2017-05-24T14:08:50Z</time>
      </trkpt>
      <trkpt lat="42.993900" lon="-4.365267">
        <ele>3239.0</ele>
        <time>2017-05-24T14:08:51Z</time>
      </trkpt>
      <trkpt lat="42.993950" lon="-4.365200">
        <ele>3239.0</ele>
        <time>2017-05-24T14:08:52Z</time>
      </trkpt>
      <trkpt lat="42.993983" lon="-4.365117">
        <ele>3240.0</ele>
        <time>2017-05-24T14:08:53Z</time>
      </trkpt>
      <trkpt lat="42.994033" lon="-4.365000">
        <ele>3241.0</ele>
        <time>2017-05-24T14:08:54Z</time>
      </trkpt>
      <trkpt lat="42.994050" lon="-4.364883">
        <ele>3243.0</ele>
        <time>2017-05-24T14:08:55Z</time>
      </trkpt>
      <trkpt lat="42.994050" lon="-4.364750">
        <ele>3245.0</ele>
        <time>2017-05-24T14:08:56Z</time>
      </trkpt>
      <trkpt lat="42.994033" lon="-4.364633">
        <ele>3247.0</ele>
        <time>2017-05-24T14:08:57Z</time>
      </trkpt>
      <trkpt lat="42.994017" lon="-4.364500">
        <ele>3249.0</ele>
        <time>2017-05-24T14:08:58Z</time>
      </trkpt>
      <trkpt lat="42.993983" lon="-4.364383">
        <ele>3251.0</ele>
        <time>2017-05-24T14:08:59Z</time>
      </trkpt>
      <trkpt lat="42.993950" lon="-4.364267">
        <ele>3252.0</ele>
        <time>2017-05-24T14:09:00Z</time>
      </trkpt>
      <trkpt lat="42.993900" lon="-4.364150">
        <ele>3254.0</ele>
        <time>2017-05-24T14:09:01Z</time>
      </trkpt>
      <trkpt lat="42.993850" lon="-4.364050">
        <ele>3255.0</ele>
        <time>2017-05-24T14:09:02Z</time>
      </trkpt>
      <trkpt lat="42.993783" lon="-4.363950">
        <ele>3257.0</ele>
        <time>2017-05-24T14:09:03Z</time>
      </trkpt>
      <trkpt lat="42.993683" lon="-4.363867">
        <ele>3258.0</ele>
        <time>2017-05-24T14:09:04Z</time>
      </trkpt>
      <trkpt lat="42.993583" lon="-4.363800">
        <ele>3260.0</ele>
        <time>2017-05-24T14:09:05Z</time>
      </trkpt>
      <trkpt lat="42.993500" lon="-4.363800">
        <ele>3262.0</ele>
        <time>2017-05-24T14:09:06Z</time>
      </trkpt>
      <trkpt lat="42.993417" lon="-4.363817">
        <ele>3263.0</ele>
        <time>2017-05-24T14:09:07Z</time>
      </trkpt>
      <trkpt lat="42.993350" lon="-4.363850">
        <ele>3264.0</ele>
        <time>2017-05-24T14:09:08Z</time>
      </trkpt>
      <trkpt lat="42.993283" lon="-4.363900">
        <ele>3264.0</ele>
        <time>2017-05-24T14:09:09Z</time>
      </trkpt>
      <trkpt lat="42.993233" lon="-4.363967">
        <ele>3263.0</ele>
        <time>2017-05-24T14:09:10Z</time>
      </trkpt>
      <trkpt lat="42.993217" lon="-4.364050">
        <ele>3263.0</ele>
        <time>2017-05-24T14:09:11Z</time>
      </trkpt>
      <trkpt lat="42.993200" lon="-4.364133">
        <ele>3263.0</ele>
        <time>2017-05-24T14:09:12Z</time>
      </trkpt>
      <trkpt lat="42.993217" lon="-4.364217">
        <ele>3263.0</ele>
        <time>2017-05-24T14:09:13Z</time>
      </trkpt>
      <trkpt lat="42.993250" lon="-4.364267">
        <ele>3263.0</ele>
        <time>2017-05-24T14:09:14Z</time>
      </trkpt>
      <trkpt lat="42.993267" lon="-4.364317">
        <ele>3264.0</ele>
        <time>2017-05-24T14:09:15Z</time>
      </trkpt>
      <trkpt lat="42.993300" lon="-4.364350">
        <ele>3264.0</ele>
        <time>2017-05-24T14:09:16Z</time>
      </trkpt>
      <trkpt lat="42.993317" lon="-4.364383">
        <ele>3264.0</ele>
        <time>2017-05-24T14:09:17Z</time>
      </trkpt>
      <trkpt lat="42.993350" lon="-4.364417">
        <ele>3263.0</ele>
        <time>2017-05-24T14:09:18Z</time>
      </trkpt>
      <trkpt lat="42.993383" lon="-4.364450">
        <ele>3262.0</ele>
        <time>2017-05-24T14:09:19Z</time>
      </trkpt>
      <trkpt lat="42.993433" lon="-4.364483">
        <ele>3261.0</ele>
        <time>2017-05-24T14:09:20Z</time>
      </trkpt>
      <trkpt lat="42.993483" lon="-4.364500">
        <ele>3261.0</ele>
        <time>2017-05-24T14:09:21Z</time>
      </trkpt>
      <trkpt lat="42.993550" lon="-4.364517">
        <ele>3260.0</ele>
        <time>2017-05-24T14:09:22Z</time>
      </trkpt>
      <trkpt lat="42.993617" lon="-4.364517">
        <ele>3260.0</ele>
        <time>2017-05-24T14:09:23Z</time>
      </trkpt>
      <trkpt lat="42.993667" lon="-4.364500">
        <ele>3260.0</ele>
        <time>2017-05-24T14:09:24Z</time>
      </trkpt>
      <trkpt lat="42.993733" lon="-4.364500">
        <ele>3261.0</ele>
        <time>2017-05-24T14:09:25Z</time>
      </trkpt>
      <trkpt lat="42.993783" lon="-4.364467">
        <ele>3262.0</ele>
        <time>2017-05-24T14:09:26Z</time>
      </trkpt>
      <trkpt lat="42.993833" lon="-4.364433">
        <ele>3263.0</ele>
        <time>2017-05-24T14:09:27Z</time>
      </trkpt>
      <trkpt lat="42.993883" lon="-4.364383">
        <ele>3262.0</ele>
        <time>2017-05-24T14:09:28Z</time>
      </trkpt>
      <trkpt lat="42.993933" lon="-4.364317">
        <ele>3262.0</ele>
        <time>2017-05-24T14:09:29Z</time>
      </trkpt>
      <trkpt lat="42.994000" lon="-4.364233">
        <ele>3262.0</ele>
        <time>2017-05-24T14:09:30Z</time>
      </trkpt>
      <trkpt lat="42.994050" lon="-4.364117">
        <ele>3262.0</ele>
        <time>2017-05-24T14:09:31Z</time>
      </trkpt>
      <trkpt lat="42.994117" lon="-4.364017">
        <ele>3263.0</ele>
        <time>2017-05-24T14:09:32Z</time>
      </trkpt>
      <trkpt lat="42.994167" lon="-4.363900">
        <ele>3265.0</ele>
        <time>2017-05-24T14:09:33Z</time>
      </trkpt>
      <trkpt lat="42.994217" lon="-4.363783">
        <ele>3267.0</ele>
        <time>2017-05-24T14:09:34Z</time>
      </trkpt>
      <trkpt lat="42.994267" lon="-4.363683">
        <ele>3268.0</ele>
        <time>2017-05-24T14:09:35Z</time>
      </trkpt>
      <trkpt lat="42.994300" lon="-4.363583">
        <ele>3270.0</ele>
        <time>2017-05-24T14:09:36Z</time>
      </trkpt>
      <trkpt lat="42.994333" lon="-4.363483">
        <ele>3271.0</ele>
        <time>2017-05-24T14:09:37Z</time>
      </trkpt>
      <trkpt lat="42.994383" lon="-4.363400">
        <ele>3271.0</ele>
        <time>2017-05-24T14:09:38Z</time>
      </trkpt>
      <trkpt lat="42.994433" lon="-4.363350">
        <ele>3271.0</ele>
        <time>2017-05-24T14:09:39Z</time>
      </trkpt>
      <trkpt lat="42.994500" lon="-4.363300">
        <ele>3271.0</ele>
        <time>2017-05-24T14:09:40Z</time>
      </trkpt>
      <trkpt lat="42.994567" lon="-4.363250">
        <ele>3272.0</ele>
        <time>2017-05-24T14:09:41Z</time>
      </trkpt>
      <trkpt lat="42.994617" lon="-4.363233">
        <ele>3272.0</ele>
        <time>2017-05-24T14:09:42Z</time>
      </trkpt>
      <trkpt lat="42.994667" lon="-4.363217">
        <ele>3273.0</ele>
        <time>2017-05-24T14:09:43Z</time>
      </trkpt>
      <trkpt lat="42.994717" lon="-4.363217">
        <ele>3274.0</ele>
        <time>2017-05-24T14:09:44Z</time>
      </trkpt>
      <trkpt lat="42.994750" lon="-4.363200">
        <ele>3273.0</ele>
        <time>2017-05-24T14:09:45Z</time>
      </trkpt>
      <trkpt lat="42.994817" lon="-4.363217">
        <ele>3273.0</ele>
        <time>2017-05-24T14:09:46Z</time>
      </trkpt>
      <trkpt lat="42.994867" lon="-4.363233">
        <ele>3273.0</ele>
        <time>2017-05-24T14:09:47Z</time>
      </trkpt>
      <trkpt lat="42.994900" lon="-4.363300">
        <ele>3273.0</ele>
        <time>2017-05-24T14:09:48Z</time>
      </trkpt>
      <trkpt lat="42.994933" lon="-4.363367">
        <ele>3274.0</ele>
        <time>2017-05-24T14:09:49Z</time>
      </trkpt>
      <trkpt lat="42.994983" lon="-4.363433">
        <ele>3276.0</ele>
        <time>2017-05-24T14:09:50Z</time>
      </trkpt>
      <trkpt lat="42.995017" lon="-4.363483">
        <ele>3279.0</ele>
        <time>2017-05-24T14:09:51Z</time>
      </trkpt>
      <trkpt lat="42.995067" lon="-4.363500">
        <ele>3282.0</ele>
        <time>2017-05-24T14:09:52Z</time>
      </trkpt>
      <trkpt lat="42.995100" lon="-4.363500">
        <ele>3285.0</ele>
        <time>2017-05-24T14:09:53Z</time>
      </trkpt>
      <trkpt lat="42.995133" lon="-4.363517">
        <ele>3287.0</ele>
        <time>2017-05-24T14:09:54Z</time>
      </trkpt>
      <trkpt lat="42.995150" lon="-4.363550">
        <ele>3288.0</ele>
        <time>2017-05-24T14:09:55Z</time>
      </trkpt>
      <trkpt lat="42.995167" lon="-4.363600">
        <ele>3289.0</ele>
        <time>2017-05-24T14:09:56Z</time>
      </trkpt>
      <trkpt lat="42.995167" lon="-4.363683">
        <ele>3290.0</ele>
        <time>2017-05-24T14:09:57Z</time>
      </trkpt>
      <trkpt lat="42.995150" lon="-4.363750">
        <ele>3291.0</ele>
        <time>2017-05-24T14:09:58Z</time>
      </trkpt>
      <trkpt lat="42.995133" lon="-4.363817">
        <ele>3293.0</ele>
        <time>2017-05-24T14:09:59Z</time>
      </trkpt>
      <trkpt lat="42.995117" lon="-4.363900">
        <ele>3295.0</ele>
        <time>2017-05-24T14:10:00Z</time>
      </trkpt>
      <trkpt lat="42.995100" lon="-4.363967">
        <ele>3297.0</ele>
        <time>2017-05-24T14:10:01Z</time>
      </trkpt>
      <trkpt lat="42.995083" lon="-4.364050">
        <ele>3298.0</ele>
        <time>2017-05-24T14:10:02Z</time>
      </trkpt>
      <trkpt lat="42.995067" lon="-4.364117">
        <ele>3300.0</ele>
        <time>2017-05-24T14:10:03Z</time>
      </trkpt>
      <trkpt lat="42.995050" lon="-4.364183">
        <ele>3303.0</ele>
        <time>2017-05-24T14:10:04Z</time>
      </trkpt>
      <trkpt lat="42.995033" lon="-4.364250">
        <ele>3305.0</ele>
        <time>2017-05-24T14:10:05Z</time>
      </trkpt>
      <trkpt lat="42.995000" lon="-4.364317">
        <ele>3306.0</ele>
        <time>2017-05-24T14:10:06Z</time>
      </trkpt>
      <trkpt lat="42.994983" lon="-4.364400">
        <ele>3308.0</ele>
        <time>2017-05-24T14:10:07Z</time>
      </trkpt>
      <trkpt lat="42.994967" lon="-4.364483">
        <ele>3310.0</ele>
        <time>2017-05-24T14:10:08Z</time>
      </trkpt>
      <trkpt lat="42.994933" lon="-4.364567">
        <ele>3312.0</ele>
        <time>2017-05-24T14:10:09Z</time>
      </trkpt>
      <trkpt lat="42.994883" lon="-4.364633">
        <ele>3314.0</ele>
        <time>2017-05-24T14:10:10Z</time>
      </trkpt>
      <trkpt lat="42.994850" lon="-4.364700">
        <ele>3316.0</ele>
        <time>2017-05-24T14:10:11Z</time>
      </trkpt>
      <trkpt lat="42.994817" lon="-4.364783">
        <ele>3317.0</ele>
        <time>2017-05-24T14:10:12Z</time>
      </trkpt>
      <trkpt lat="42.994783" lon="-4.364850">
        <ele>3319.0</ele>
        <time>2017-05-24T14:10:13Z</time>
      </trkpt>
      <trkpt lat="42.994733" lon="-4.364917">
        <ele>3320.0</ele>
        <time>2017-05-24T14:10:14Z</time>
      </trkpt>
      <trkpt lat="42.994683" lon="-4.364983">
        <ele>3321.0</ele>
        <time>2017-05-24T14:10:15Z</time>
      </trkpt>
      <trkpt lat="42.994600" lon="-4.365000">
        <ele>3322.0</ele>
        <time>2017-05-24T14:10:16Z</time>
      </trkpt>
      <trkpt lat="42.994533" lon="-4.365017">
        <ele>3321.0</ele>
        <time>2017-05-24T14:10:17Z</time>
      </trkpt>
      <trkpt lat="42.994433" lon="-4.365000">
        <ele>3320.0</ele>
        <time>2017-05-24T14:10:18Z</time>
      </trkpt>
      <trkpt lat="42.994333" lon="-4.364967">
        <ele>3318.0</ele>
        <time>2017-05-24T14:10:19Z</time>
      </trkpt>
      <trkpt lat="42.994217" lon="-4.364933">
        <ele>3318.0</ele>
        <time>2017-05-24T14:10:20Z</time>
      </trkpt>
      <trkpt lat="42.994117" lon="-4.364900">
        <ele>3319.0</ele>
        <time>2017-05-24T14:10:21Z</time>
      </trkpt>
      <trkpt lat="42.994033" lon="-4.364850">
        <ele>3320.0</ele>
        <time>2017-05-24T14:10:22Z</time>
      </trkpt>
      <trkpt lat="42.993933" lon="-4.364783">
        <ele>3321.0</ele>
        <time>2017-05-24T14:10:23Z</time>
      </trkpt>
      <trkpt lat="42.993867" lon="-4.364700">
        <ele>3321.0</ele>
        <time>2017-05-24T14:10:24Z</time>
      </trkpt>
      <trkpt lat="42.993783" lon="-4.364617">
        <ele>3321.0</ele>
        <time>2017-05-24T14:10:25Z</time>
      </trkpt>
      <trkpt lat="42.993717" lon="-4.364517">
        <ele>3322.0</ele>
        <time>2017-05-24T14:10:26Z</time>
      </trkpt>
      <trkpt lat="42.993650" lon="-4.364417">
        <ele>3323.0</ele>
        <time>2017-05-24T14:10:27Z</time>
      </trkpt>
      <trkpt lat="42.993600" lon="-4.364300">
        <ele>3324.0</ele>
        <time>2017-05-24T14:10:28Z</time>
      </trkpt>
      <trkpt lat="42.993567" lon="-4.364200">
        <ele>3325.0</ele>
        <time>2017-05-24T14:10:29Z</time>
      </trkpt>
      <trkpt lat="42.993533" lon="-4.364067">
        <ele>3326.0</ele>
        <time>2017-05-24T14:10:30Z</time>
      </trkpt>
      <trkpt lat="42.993517" lon="-4.363950">
        <ele>3326.0</ele>
        <time>2017-05-24T14:10:31Z</time>
      </trkpt>
      <trkpt lat="42.993517" lon="-4.363817">
        <ele>3326.0</ele>
        <time>2017-05-24T14:10:32Z</time>
      </trkpt>
      <trkpt lat="42.993517" lon="-4.363717">
        <ele>3325.0</ele>
        <time>2017-05-24T14:10:33Z</time>
      </trkpt>
      <trkpt lat="42.993533" lon="-4.363617">
        <ele>3325.0</ele>
        <time>2017-05-24T14:10:34Z</time>
      </trkpt>
      <trkpt lat="42.993583" lon="-4.363517">
        <ele>3325.0</ele>
        <time>2017-05-24T14:10:35Z</time>
      </trkpt>
      <trkpt lat="42.993633" lon="-4.363433">
        <ele>3327.0</ele>
        <time>2017-05-24T14:10:36Z</time>
      </trkpt>
      <trkpt lat="42.993667" lon="-4.363383">
        <ele>3329.0</ele>
        <time>2017-05-24T14:10:37Z</time>
      </trkpt>
      <trkpt lat="42.993717" lon="-4.363367">
        <ele>3330.0</ele>
        <time>2017-05-24T14:10:38Z</time>
      </trkpt>
      <trkpt lat="42.993750" lon="-4.363367">
        <ele>3331.0</ele>
        <time>2017-05-24T14:10:39Z</time>
      </trkpt>
      <trkpt lat="42.993800" lon="-4.363350">
        <ele>3332.0</ele>
        <time>2017-05-24T14:10:40Z</time>
      </trkpt>
      <trkpt lat="42.993833" lon="-4.363367">
        <ele>3334.0</ele>
        <time>2017-05-24T14:10:41Z</time>
      </trkpt>
      <trkpt lat="42.993883" lon="-4.363383">
        <ele>3334.0</ele>
        <time>2017-05-24T14:10:42Z</time>
      </trkpt>
      <trkpt lat="42.993917" lon="-4.363400">
        <ele>3335.0</ele>
        <time>2017-05-24T14:10:43Z</time>
      </trkpt>
      <trkpt lat="42.993967" lon="-4.363433">
        <ele>3336.0</ele>
        <time>2017-05-24T14:10:44Z</time>
      </trkpt>
      <trkpt lat="42.994017" lon="-4.363450">
        <ele>3338.0</ele>
        <time>2017-05-24T14:10:45Z</time>
      </trkpt>
      <trkpt lat="42.994050" lon="-4.363467">
        <ele>3339.0</ele>
        <time>2017-05-24T14:10:46Z</time>
      </trkpt>
      <trkpt lat="42.994100" lon="-4.363500">
        <ele>3340.0</ele>
        <time>2017-05-24T14:10:47Z</time>
      </trkpt>
      <trkpt lat="42.994133" lon="-4.363533">
        <ele>3341.0</ele>
        <time>2017-05-24T14:10:48Z</time>
      </trkpt>
      <trkpt lat="42.994150" lon="-4.363583">
        <ele>3341.0</ele>
        <time>2017-05-24T14:10:49Z</time>
      </trkpt>
      <trkpt lat="42.994167" lon="-4.363650">
        <ele>3341.0</ele>
        <time>2017-05-24T14:10:50Z</time>
      </trkpt>
      <trkpt lat="42.994183" lon="-4.363700">
        <ele>3341.0</ele>
        <time>2017-05-24T14:10:51Z</time>
      </trkpt>
      <trkpt lat="42.994200" lon="-4.363750">
        <ele>3342.0</ele>
        <time>2017-05-24T14:10:52Z</time>
      </trkpt>
      <trkpt lat="42.994200" lon="-4.363800">
        <ele>3342.0</ele>
        <time>2017-05-24T14:10:53Z</time>
      </trkpt>
      <trkpt lat="42.994200" lon="-4.363850">
        <ele>3341.0</ele>
        <time>2017-05-24T14:10:54Z</time>
      </trkpt>
      <trkpt lat="42.994200" lon="-4.363900">
        <ele>3339.0</ele>
        <time>2017-05-24T14:10:55Z</time>
      </trkpt>
      <trkpt lat="42.994183" lon="-4.363967">
        <ele>3337.0</ele>
        <time>2017-05-24T14:10:56Z</time>
      </trkpt>
      <trkpt lat="42.994167" lon="-4.364017">
        <ele>3336.0</ele>
        <time>2017-05-24T14:10:57Z</time>
      </trkpt>
      <trkpt lat="42.994167" lon="-4.364083">
        <ele>3335.0</ele>
        <time>2017-05-24T14:10:58Z</time>
      </trkpt>
      <trkpt lat="42.994150" lon="-4.364150">
        <ele>3333.0</ele>
        <time>2017-05-24T14:10:59Z</time>
      </trkpt>
      <trkpt lat="42.994133" lon="-4.364217">
        <ele>3331.0</ele>
        <time>2017-05-24T14:11:00Z</time>
      </trkpt>
      <trkpt lat="42.994117" lon="-4.364283">
        <ele>3329.0</ele>
        <time>2017-05-24T14:11:01Z</time>
      </trkpt>
      <trkpt lat="42.994083" lon="-4.364350">
        <ele>3328.0</ele>
        <time>2017-05-24T14:11:02Z</time>
      </trkpt>
      <trkpt lat="42.994017" lon="-4.364417">
        <ele>3327.0</ele>
        <time>2017-05-24T14:11:03Z</time>
      </trkpt>
      <trkpt lat="42.993950" lon="-4.364467">
        <ele>3327.0</ele>
        <time>2017-05-24T14:11:04Z</time>
      </trkpt>
      <trkpt lat="42.993883" lon="-4.364517">
        <ele>3326.0</ele>
        <time>2017-05-24T14:11:05Z</time>
      </trkpt>
      <trkpt lat="42.993833" lon="-4.364567">
        <ele>3325.0</ele>
        <time>2017-05-24T14:11:06Z</time>
      </trkpt>
      <trkpt lat="42.993783" lon="-4.364633">
        <ele>3324.0</ele>
        <time>2017-05-24T14:11:07Z</time>
      </trkpt>
      <trkpt lat="42.993717" lon="-4.364717">
        <ele>3324.0</ele>
        <time>2017-05-24T14:11:08Z</time>
      </trkpt>
      <trkpt lat="42.993633" lon="-4.364783">
        <ele>3324.0</ele>
        <time>2017-05-24T14:11:09Z</time>
      </trkpt>
      <trkpt lat="42.993550" lon="-4.364833">
        <ele>3325.0</ele>
        <time>2017-05-24T14:11:10Z</time>
      </trkpt>
      <trkpt lat="42.993483" lon="-4.364867">
        <ele>3326.0</ele>
        <time>2017-05-24T14:11:11Z</time>
      </trkpt>
      <trkpt lat="42.993417" lon="-4.364900">
        <ele>3326.0</ele>
        <time>2017-05-24T14:11:12Z</time>
      </trkpt>
      <trkpt lat="42.993350" lon="-4.364950">
        <ele>3325.0</ele>
        <time>2017-05-24T14:11:13Z</time>
      </trkpt>
      <trkpt lat="42.993267" lon="-4.365017">
        <ele>3323.0</ele>
        <time>2017-05-24T14:11:14Z</time>
      </trkpt>
      <trkpt lat="42.993183" lon="-4.365083">
        <ele>3321.0</ele>
        <time>2017-05-24T14:11:15Z</time>
      </trkpt>
      <trkpt lat="42.993083" lon="-4.365133">
        <ele>3319.0</ele>
        <time>2017-05-24T14:11:16Z</time>
      </trkpt>
      <trkpt lat="42.992983" lon="-4.365183">
        <ele>3318.0</ele>
        <time>2017-05-24T14:11:17Z</time>
      </trkpt>
      <trkpt lat="42.992900" lon="-4.365233">
        <ele>3316.0</ele>
        <time>2017-05-24T14:11:18Z</time>
      </trkpt>
      <trkpt lat="42.992833" lon="-4.365317">
        <ele>3314.0</ele>
        <time>2017-05-24T14:11:19Z</time>
      </trkpt>
      <trkpt lat="42.992783" lon="-4.365400">
        <ele>3312.0</ele>
        <time>2017-05-24T14:11:20Z</time>
      </trkpt>
      <trkpt lat="42.992717" lon="-4.365483">
        <ele>3310.0</ele>
        <time>2017-05-24T14:11:21Z</time>
      </trkpt>
      <trkpt lat="42.992633" lon="-4.365567">
        <ele>3307.0</ele>
        <time>2017-05-24T14:11:22Z</time>
      </trkpt>
      <trkpt lat="42.992533" lon="-4.365633">
        <ele>3305.0</ele>
        <time>2017-05-24T14:11:23Z</time>
      </trkpt>
      <trkpt lat="42.992433" lon="-4.365683">
        <ele>3304.0</ele>
        <time>2017-05-24T14:11:24Z</time>
      </trkpt>
      <trkpt lat="42.992333" lon="-4.365717">
        <ele>3303.0</ele>
        <time>2017-05-24T14:11:25Z</time>
      </trkpt>
      <trkpt lat="42.992233" lon="-4.365733">
        <ele>3302.0</ele>
        <time>2017-05-24T14:11:26Z</time>
      </trkpt>
      <trkpt lat="42.992117" lon="-4.365733">
        <ele>3300.0</ele>
        <time>2017-05-24T14:11:27Z</time>
      </trkpt>
      <trkpt lat="42.992000" lon="-4.365733">
        <ele>3296.0</ele>
        <time>2017-05-24T14:11:28Z</time>
      </trkpt>
      <trkpt lat="42.991867" lon="-4.365700">
        <ele>3293.0</ele>
        <time>2017-05-24T14:11:29Z</time>
      </trkpt>
      <trkpt lat="42.991733" lon="-4.365683">
        <ele>3290.0</ele>
        <time>2017-05-24T14:11:30Z</time>
      </trkpt>
      <trkpt lat="42.991600" lon="-4.365667">
        <ele>3287.0</ele>
        <time>2017-05-24T14:11:31Z</time>
      </trkpt>
      <trkpt lat="42.991450" lon="-4.365633">
        <ele>3286.0</ele>
        <time>2017-05-24T14:11:32Z</time>
      </trkpt>
      <trkpt lat="42.991333" lon="-4.365583">
        <ele>3286.0</ele>
        <time>2017-05-24T14:11:33Z</time>
      </trkpt>
      <trkpt lat="42.991200" lon="-4.365533">
        <ele>3285.0</ele>
        <time>2017-05-24T14:11:34Z</time>
      </trkpt>
      <trkpt lat="42.991083" lon="-4.365483">
        <ele>3283.0</ele>
        <time>2017-05-24T14:11:35Z</time>
      </trkpt>
      <trkpt lat="42.990950" lon="-4.365417">
        <ele>3281.0</ele>
        <time>2017-05-24T14:11:36Z</time>
      </trkpt>
      <trkpt lat="42.990817" lon="-4.365367">
        <ele>3280.0</ele>
        <time>2017-05-24T14:11:37Z</time>
      </trkpt>
      <trkpt lat="42.990667" lon="-4.365300">
        <ele>3278.0</ele>
        <time>2017-05-24T14:11:38Z</time>
      </trkpt>
      <trkpt lat="42.990533" lon="-4.365233">
        <ele>3277.0</ele>
        <time>2017-05-24T14:11:39Z</time>
      </trkpt>
      <trkpt lat="42.990417" lon="-4.365150">
        <ele>3276.0</ele>
        <time>2017-05-24T14:11:40Z</time>
      </trkpt>
      <trkpt lat="42.990283" lon="-4.365067">
        <ele>3274.0</ele>
        <time>2017-05-24T14:11:41Z</time>
      </trkpt>
      <trkpt lat="42.990167" lon="-4.365000">
        <ele>3272.0</ele>
        <time>2017-05-24T14:11:42Z</time>
      </trkpt>
      <trkpt lat="42.990050" lon="-4.364917">
        <ele>3269.0</ele>
        <time>2017-05-24T14:11:43Z</time>
      </trkpt>
      <trkpt lat="42.989933" lon="-4.364833">
        <ele>3265.0</ele>
        <time>2017-05-24T14:11:44Z</time>
      </trkpt>
      <trkpt lat="42.989817" lon="-4.364750">
        <ele>3262.0</ele>
        <time>2017-05-24T14:11:45Z</time>
      </trkpt>
      <trkpt lat="42.989700" lon="-4.364650">
        <ele>3258.0</ele>
        <time>2017-05-24T14:11:46Z</time>
      </trkpt>
      <trkpt lat="42.989583" lon="-4.364550">
        <ele>3255.0</ele>
        <time>2017-05-24T14:11:47Z</time>
      </trkpt>
      <trkpt lat="42.989483" lon="-4.364450">
        <ele>3251.0</ele>
        <time>2017-05-24T14:11:48Z</time>
      </trkpt>
      <trkpt lat="42.989383" lon="-4.364367">
        <ele>3248.0</ele>
        <time>2017-05-24T14:11:49Z</time>
      </trkpt>
      <trkpt lat="42.989283" lon="-4.364267">
        <ele>3244.0</ele>
        <time>2017-05-24T14:11:50Z</time>
      </trkpt>
      <trkpt lat="42.989183" lon="-4.364167">
        <ele>3239.0</ele>
        <time>2017-05-24T14:11:51Z</time>
      </trkpt>
      <trkpt lat="42.989083" lon="-4.364083">
        <ele>3235.0</ele>
        <time>2017-05-24T14:11:52Z</time>
      </trkpt>
      <trkpt lat="42.988950" lon="-4.364017">
        <ele>3230.0</ele>
        <time>2017-05-24T14:11:53Z</time>
      </trkpt>
      <trkpt lat="42.988817" lon="-4.363983">
        <ele>3224.0</ele>
        <time>2017-05-24T14:11:54Z</time>
      </trkpt>
      <trkpt lat="42.988683" lon="-4.363967">
        <ele>3220.0</ele>
        <time>2017-05-24T14:11:55Z</time>
      </trkpt>
      <trkpt lat="42.988533" lon="-4.363900">
        <ele>3216.0</ele>
        <time>2017-05-24T14:11:56Z</time>
      </trkpt>
      <trkpt lat="42.988400" lon="-4.363817">
        <ele>3213.0</ele>
        <time>2017-05-24T14:11:57Z</time>
      </trkpt>
      <trkpt lat="42.988283" lon="-4.363717">
        <ele>3210.0</ele>
        <time>2017-05-24T14:11:58Z</time>
      </trkpt>
      <trkpt lat="42.988150" lon="-4.363650">
        <ele>3208.0</ele>
        <time>2017-05-24T14:11:59Z</time>
      </trkpt>
      <trkpt lat="42.988000" lon="-4.363583">
        <ele>3206.0</ele>
        <time>2017-05-24T14:12:00Z</time>
      </trkpt>
      <trkpt lat="42.987867" lon="-4.363533">
        <ele>3204.0</ele>
        <time>2017-05-24T14:12:01Z</time>
      </trkpt>
      <trkpt lat="42.987733" lon="-4.363450">
        <ele>3201.0</ele>
        <time>2017-05-24T14:12:02Z</time>
      </trkpt>
      <trkpt lat="42.987617" lon="-4.363350">
        <ele>3199.0</ele>
        <time>2017-05-24T14:12:03Z</time>
      </trkpt>
      <trkpt lat="42.987483" lon="-4.363267">
        <ele>3197.0</ele>
        <time>2017-05-24T14:12:04Z</time>
      </trkpt>
      <trkpt lat="42.987350" lon="-4.363167">
        <ele>3196.0</ele>
        <time>2017-05-24T14:12:05Z</time>
      </trkpt>
      <trkpt lat="42.987233" lon="-4.363083">
        <ele>3195.0</ele>
        <time>2017-05-24T14:12:06Z</time>
      </trkpt>
      <trkpt lat="42.987133" lon="-4.362983">
        <ele>3194.0</ele>
        <time>2017-05-24T14:12:07Z</time>
      </trkpt>
      <trkpt lat="42.987017" lon="-4.362883">
        <ele>3191.0</ele>
        <time>2017-05-24T14:12:08Z</time>
      </trkpt>
      <trkpt lat="42.986900" lon="-4.362783">
        <ele>3189.0</ele>
        <time>2017-05-24T14:12:09Z</time>
      </trkpt>
      <trkpt lat="42.986783" lon="-4.362683">
        <ele>3187.0</ele>
        <time>2017-05-24T14:12:10Z</time>
      </trkpt>
      <trkpt lat="42.986667" lon="-4.362567">
        <ele>3186.0</ele>
        <time>2017-05-24T14:12:11Z</time>
      </trkpt>
      <trkpt lat="42.986567" lon="-4.362483">
        <ele>3186.0</ele>
        <time>2017-05-24T14:12:12Z</time>
      </trkpt>
      <trkpt lat="42.986450" lon="-4.362383">
        <ele>3185.0</ele>
        <time>2017-05-24T14:12:13Z</time>
      </trkpt>
      <trkpt lat="42.986350" lon="-4.362283">
        <ele>3183.0</ele>
        <time>2017-05-24T14:12:14Z</time>
      </trkpt>
      <trkpt lat="42.986250" lon="-4.362183">
        <ele>3182.0</ele>
        <time>2017-05-24T14:12:15Z</time>
      </trkpt>
      <trkpt lat="42.986133" lon="-4.362067">
        <ele>3180.0</ele>
        <time>2017-05-24T14:12:16Z</time>
      </trkpt>
      <trkpt lat="42.986033" lon="-4.361967">
        <ele>3178.0</ele>
        <time>2017-05-24T14:12:17Z</time>
      </trkpt>
      <trkpt lat="42.985933" lon="-4.361850">
        <ele>3177.0</ele>
        <time>2017-05-24T14:12:18Z</time>
      </trkpt>
      <trkpt lat="42.985850" lon="-4.361750">
        <ele>3175.0</ele>
        <time>2017-05-24T14:12:19Z</time>
      </trkpt>
      <trkpt lat="42.985767" lon="-4.361650">
        <ele>3173.0</ele>
        <time>2017-05-24T14:12:20Z</time>
      </trkpt>
      <trkpt lat="42.985683" lon="-4.361550">
        <ele>3169.0</ele>
        <time>2017-05-24T14:12:21Z</time>
      </trkpt>
      <trkpt lat="42.985583" lon="-4.361417">
        <ele>3165.0</ele>
        <time>2017-05-24T14:12:22Z</time>
      </trkpt>
      <trkpt lat="42.985467" lon="-4.361267">
        <ele>3162.0</ele>
        <time>2017-05-24T14:12:23Z</time>
      </trkpt>
      <trkpt lat="42.985333" lon="-4.361150">
        <ele>3161.0</ele>
        <time>2017-05-24T14:12:24Z</time>
      </trkpt>
      <trkpt lat="42.985217" lon="-4.361050">
        <ele>3160.0</ele>
        <time>2017-05-24T14:12:25Z</time>
      </trkpt>
      <trkpt lat="42.985117" lon="-4.360967">
        <ele>3160.0</ele>
        <time>2017-05-24T14:12:26Z</time>
      </trkpt>
      <trkpt lat="42.985000" lon="-4.360883">
        <ele>3158.0</ele>
        <time>2017-05-24T14:12:27Z</time>
      </trkpt>
      <trkpt lat="42.984900" lon="-4.360783">
        <ele>3157.0</ele>
        <time>2017-05-24T14:12:28Z</time>
      </trkpt>
      <trkpt lat="42.984783" lon="-4.360667">
        <ele>3154.0</ele>
        <time>2017-05-24T14:12:29Z</time>
      </trkpt>
      <trkpt lat="42.984683" lon="-4.360550">
        <ele>3152.0</ele>
        <time>2017-05-24T14:12:30Z</time>
      </trkpt>
      <trkpt lat="42.984567" lon="-4.360450">
        <ele>3151.0</ele>
        <time>2017-05-24T14:12:31Z</time>
      </trkpt>
      <trkpt lat="42.984467" lon="-4.360350">
        <ele>3150.0</ele>
        <time>2017-05-24T14:12:32Z</time>
      </trkpt>
      <trkpt lat="42.984350" lon="-4.360250">
        <ele>3150.0</ele>
        <time>2017-05-24T14:12:33Z</time>
      </trkpt>
      <trkpt lat="42.984250" lon="-4.360167">
        <ele>3149.0</ele>
        <time>2017-05-24T14:12:34Z</time>
      </trkpt>
      <trkpt lat="42.984133" lon="-4.360067">
        <ele>3147.0</ele>
        <time>2017-05-24T14:12:35Z</time>
      </trkpt>
      <trkpt lat="42.984017" lon="-4.359967">
        <ele>3145.0</ele>
        <time>2017-05-24T14:12:36Z</time>
      </trkpt>
      <trkpt lat="42.983900" lon="-4.359867">
        <ele>3143.0</ele>
        <time>2017-05-24T14:12:37Z</time>
      </trkpt>
      <trkpt lat="42.983783" lon="-4.359733">
        <ele>3142.0</ele>
        <time>2017-05-24T14:12:38Z</time>
      </trkpt>
      <trkpt lat="42.983683" lon="-4.359617">
        <ele>3141.0</ele>
        <time>2017-05-24T14:12:39Z</time>
      </trkpt>
      <trkpt lat="42.983583" lon="-4.359517">
        <ele>3141.0</ele>
        <time>2017-05-24T14:12:40Z</time>
      </trkpt>
      <trkpt lat="42.983500" lon="-4.359417">
        <ele>3140.0</ele>
        <time>2017-05-24T14:12:41Z</time>
      </trkpt>
      <trkpt lat="42.983400" lon="-4.359317">
        <ele>3139.0</ele>
        <time>2017-05-24T14:12:42Z</time>
      </trkpt>
      <trkpt lat="42.983300" lon="-4.359217">
        <ele>3135.0</ele>
        <time>2017-05-24T14:12:43Z</time>
      </trkpt>
      <trkpt lat="42.983217" lon="-4.359083">
        <ele>3132.0</ele>
        <time>2017-05-24T14:12:44Z</time>
      </trkpt>
      <trkpt lat="42.983117" lon="-4.358950">
        <ele>3129.0</ele>
        <time>2017-05-24T14:12:45Z</time>
      </trkpt>
      <trkpt lat="42.983050" lon="-4.358817">
        <ele>3128.0</ele>
        <time>2017-05-24T14:12:46Z</time>
      </trkpt>
      <trkpt lat="42.982967" lon="-4.358683">
        <ele>3127.0</ele>
        <time>2017-05-24T14:12:47Z</time>
      </trkpt>
      <trkpt lat="42.982883" lon="-4.358567">
        <ele>3126.0</ele>
        <time>2017-05-24T14:12:48Z</time>
      </trkpt>
      <trkpt lat="42.982817" lon="-4.358450">
        <ele>3125.0</ele>
        <time>2017-05-24T14:12:49Z</time>
      </trkpt>
      <trkpt lat="42.982733" lon="-4.358317">
        <ele>3122.0</ele>
        <time>2017-05-24T14:12:50Z</time>
      </trkpt>
      <trkpt lat="42.982667" lon="-4.358183">
        <ele>3120.0</ele>
        <time>2017-05-24T14:12:51Z</time>
      </trkpt>
      <trkpt lat="42.982583" lon="-4.358050">
        <ele>3118.0</ele>
        <time>2017-05-24T14:12:52Z</time>
      </trkpt>
      <trkpt lat="42.982500" lon="-4.357917">
        <ele>3116.0</ele>
        <time>2017-05-24T14:12:53Z</time>
      </trkpt>
      <trkpt lat="42.982433" lon="-4.357800">
        <ele>3115.0</ele>
        <time>2017-05-24T14:12:54Z</time>
      </trkpt>
      <trkpt lat="42.982367" lon="-4.357667">
        <ele>3113.0</ele>
        <time>2017-05-24T14:12:55Z</time>
      </trkpt>
      <trkpt lat="42.982300" lon="-4.357533">
        <ele>3112.0</ele>
        <time>2017-05-24T14:12:56Z</time>
      </trkpt>
      <trkpt lat="42.982217" lon="-4.357417">
        <ele>3111.0</ele>
        <time>2017-05-24T14:12:57Z</time>
      </trkpt>
      <trkpt lat="42.982150" lon="-4.357317">
        <ele>3110.0</ele>
        <time>2017-05-24T14:12:58Z</time>
      </trkpt>
      <trkpt lat="42.982083" lon="-4.357217">
        <ele>3109.0</ele>
        <time>2017-05-24T14:12:59Z</time>
      </trkpt>
      <trkpt lat="42.982017" lon="-4.357100">
        <ele>3109.0</ele>
        <time>2017-05-24T14:13:00Z</time>
      </trkpt>
      <trkpt lat="42.981950" lon="-4.357017">
        <ele>3109.0</ele>
        <time>2017-05-24T14:13:01Z</time>
      </trkpt>
      <trkpt lat="42.981883" lon="-4.356933">
        <ele>3109.0</ele>
        <time>2017-05-24T14:13:02Z</time>
      </trkpt>
      <trkpt lat="42.981817" lon="-4.356850">
        <ele>3108.0</ele>
        <time>2017-05-24T14:13:03Z</time>
      </trkpt>
      <trkpt lat="42.981750" lon="-4.356767">
        <ele>3107.0</ele>
        <time>2017-05-24T14:13:04Z</time>
      </trkpt>
      <trkpt lat="42.981683" lon="-4.356667">
        <ele>3105.0</ele>
        <time>2017-05-24T14:13:05Z</time>
      </trkpt>
      <trkpt lat="42.981617" lon="-4.356567">
        <ele>3104.0</ele>
        <time>2017-05-24T14:13:06Z</time>
      </trkpt>
      <trkpt lat="42.981550" lon="-4.356467">
        <ele>3103.0</ele>
        <time>2017-05-24T14:13:07Z</time>
      </trkpt>
      <trkpt lat="42.981483" lon="-4.356367">
        <ele>3102.0</ele>
        <time>2017-05-24T14:13:08Z</time>
      </trkpt>
      <trkpt lat="42.981417" lon="-4.356250">
        <ele>3101.0</ele>
        <time>2017-05-24T14:13:09Z</time>
      </trkpt>
      <trkpt lat="42.981367" lon="-4.356150">
        <ele>3101.0</ele>
        <time>2017-05-24T14:13:10Z</time>
      </trkpt>
      <trkpt lat="42.981300" lon="-4.356033">
        <ele>3102.0</ele>
        <time>2017-05-24T14:13:11Z</time>
      </trkpt>
      <trkpt lat="42.981250" lon="-4.355933">
        <ele>3102.0</ele>
        <time>2017-05-24T14:13:12Z</time>
      </trkpt>
      <trkpt lat="42.981183" lon="-4.355833">
        <ele>3103.0</ele>
        <time>2017-05-24T14:13:13Z</time>
      </trkpt>
      <trkpt lat="42.981133" lon="-4.355750">
        <ele>3103.0</ele>
        <time>2017-05-24T14:13:14Z</time>
      </trkpt>
      <trkpt lat="42.981083" lon="-4.355667">
        <ele>3103.0</ele>
        <time>2017-05-24T14:13:15Z</time>
      </trkpt>
      <trkpt lat="42.981017" lon="-4.355600">
        <ele>3103.0</ele>
        <time>2017-05-24T14:13:16Z</time>
      </trkpt>
      <trkpt lat="42.980967" lon="-4.355500">
        <ele>3103.0</ele>
        <time>2017-05-24T14:13:17Z</time>
      </trkpt>
      <trkpt lat="42.980900" lon="-4.355417">
        <ele>3103.0</ele>
        <time>2017-05-24T14:13:18Z</time>
      </trkpt>
      <trkpt lat="42.980850" lon="-4.355333">
        <ele>3102.0</ele>
        <time>2017-05-24T14:13:19Z</time>
      </trkpt>
      <trkpt lat="42.980767" lon="-4.355250">
        <ele>3102.0</ele>
        <time>2017-05-24T14:13:20Z</time>
      </trkpt>
      <trkpt lat="42.980683" lon="-4.355183">
        <ele>3102.0</ele>
        <time>2017-05-24T14:13:21Z</time>
      </trkpt>
      <trkpt lat="42.980600" lon="-4.355100">
        <ele>3101.0</ele>
        <time>2017-05-24T14:13:22Z</time>
      </trkpt>
      <trkpt lat="42.980500" lon="-4.355000">
        <ele>3101.0</ele>
        <time>2017-05-24T14:13:23Z</time>
      </trkpt>
      <trkpt lat="42.980433" lon="-4.354900">
        <ele>3101.0</ele>
        <time>2017-05-24T14:13:24Z</time>
      </trkpt>
      <trkpt lat="42.980350" lon="-4.354800">
        <ele>3101.0</ele>
        <time>2017-05-24T14:13:25Z</time>
      </trkpt>
      <trkpt lat="42.980283" lon="-4.354700">
        <ele>3101.0</ele>
        <time>2017-05-24T14:13:26Z</time>
      </trkpt>
      <trkpt lat="42.980200" lon="-4.354633">
        <ele>3101.0</ele>
        <time>2017-05-24T14:13:27Z</time>
      </trkpt>
      <trkpt lat="42.980117" lon="-4.354550">
        <ele>3100.0</ele>
        <time>2017-05-24T14:13:28Z</time>
      </trkpt>
      <trkpt lat="42.980050" lon="-4.354467">
        <ele>3098.0</ele>
        <time>2017-05-24T14:13:29Z</time>
      </trkpt>
      <trkpt lat="42.979967" lon="-4.354367">
        <ele>3097.0</ele>
        <time>2017-05-24T14:13:30Z</time>
      </trkpt>
      <trkpt lat="42.979883" lon="-4.354283">
        <ele>3095.0</ele>
        <time>2017-05-24T14:13:31Z</time>
      </trkpt>
      <trkpt lat="42.979800" lon="-4.354200">
        <ele>3093.0</ele>
        <time>2017-05-24T14:13:32Z</time>
      </trkpt>
      <trkpt lat="42.979717" lon="-4.354133">
        <ele>3092.0</ele>
        <time>2017-05-24T14:13:33Z</time>
      </trkpt>
      <trkpt lat="42.979633" lon="-4.354067">
        <ele>3090.0</ele>
        <time>2017-05-24T14:13:34Z</time>
      </trkpt>
      <trkpt lat="42.979550" lon="-4.354000">
        <ele>3089.0</ele>
        <time>2017-05-24T14:13:35Z</time>
      </trkpt>
      <trkpt lat="42.979467" lon="-4.353933">
        <ele>3087.0</ele>
        <time>2017-05-24T14:13:36Z</time>
      </trkpt>
      <trkpt lat="42.979383" lon="-4.353850">
        <ele>3085.0</ele>
        <time>2017-05-24T14:13:37Z</time>
      </trkpt>
      <trkpt lat="42.979300" lon="-4.353767">
        <ele>3083.0</ele>
        <time>2017-05-24T14:13:38Z</time>
      </trkpt>
      <trkpt lat="42.979233" lon="-4.353700">
        <ele>3081.0</ele>
        <time>2017-05-24T14:13:39Z</time>
      </trkpt>
      <trkpt lat="42.979150" lon="-4.353600">
        <ele>3080.0</ele>
        <time>2017-05-24T14:13:40Z</time>
      </trkpt>
      <trkpt lat="42.979083" lon="-4.353517">
        <ele>3077.0</ele>
        <time>2017-05-24T14:13:41Z</time>
      </trkpt>
      <trkpt lat="42.979017" lon="-4.353417">
        <ele>3075.0</ele>
        <time>2017-05-24T14:13:42Z</time>
      </trkpt>
      <trkpt lat="42.978950" lon="-4.353317">
        <ele>3072.0</ele>
        <time>2017-05-24T14:13:43Z</time>
      </trkpt>
      <trkpt lat="42.978883" lon="-4.353200">
        <ele>3070.0</ele>
        <time>2017-05-24T14:13:44Z</time>
      </trkpt>
      <trkpt lat="42.978817" lon="-4.353083">
        <ele>3067.0</ele>
        <time>2017-05-24T14:13:45Z</time>
      </trkpt>
      <trkpt lat="42.978750" lon="-4.352967">
        <ele>3064.0</ele>
        <time>2017-05-24T14:13:46Z</time>
      </trkpt>
      <trkpt lat="42.978700" lon="-4.352833">
        <ele>3062.0</ele>
        <time>2017-05-24T14:13:47Z</time>
      </trkpt>
      <trkpt lat="42.978633" lon="-4.352700">
        <ele>3060.0</ele>
        <time>2017-05-24T14:13:48Z</time>
      </trkpt>
      <trkpt lat="42.978567" lon="-4.352583">
        <ele>3058.0</ele>
        <time>2017-05-24T14:13:49Z</time>
      </trkpt>
      <trkpt lat="42.978483" lon="-4.352467">
        <ele>3056.0</ele>
        <time>2017-05-24T14:13:50Z</time>
      </trkpt>
      <trkpt lat="42.978417" lon="-4.352367">
        <ele>3055.0</ele>
        <time>2017-05-24T14:13:51Z</time>
      </trkpt>
      <trkpt lat="42.978367" lon="-4.352250">
        <ele>3053.0</ele>
        <time>2017-05-24T14:13:52Z</time>
      </trkpt>
      <trkpt lat="42.978300" lon="-4.352133">
        <ele>3051.0</ele>
        <time>2017-05-24T14:13:53Z</time>
      </trkpt>
      <trkpt lat="42.978217" lon="-4.352033">
        <ele>3050.0</ele>
        <time>2017-05-24T14:13:54Z</time>
      </trkpt>
      <trkpt lat="42.978150" lon="-4.351933">
        <ele>3048.0</ele>
        <time>2017-05-24T14:13:55Z</time>
      </trkpt>
      <trkpt lat="42.978067" lon="-4.351833">
        <ele>3046.0</ele>
        <time>2017-05-24T14:13:56Z</time>
      </trkpt>
      <trkpt lat="42.978000" lon="-4.351733">
        <ele>3046.0</ele>
        <time>2017-05-24T14:13:57Z</time>
      </trkpt>
      <trkpt lat="42.977950" lon="-4.351633">
        <ele>3045.0</ele>
        <time>2017-05-24T14:13:58Z</time>
      </trkpt>
      <trkpt lat="42.977900" lon="-4.351550">
        <ele>3044.0</ele>
        <time>2017-05-24T14:13:59Z</time>
      </trkpt>
      <trkpt lat="42.977833" lon="-4.351467">
        <ele>3042.0</ele>
        <time>2017-05-24T14:14:00Z</time>
      </trkpt>
      <trkpt lat="42.977767" lon="-4.351367">
        <ele>3040.0</ele>
        <time>2017-05-24T14:14:01Z</time>
      </trkpt>
      <trkpt lat="42.977700" lon="-4.351267">
        <ele>3038.0</ele>
        <time>2017-05-24T14:14:02Z</time>
      </trkpt>
      <trkpt lat="42.977650" lon="-4.351150">
        <ele>3037.0</ele>
        <time>2017-05-24T14:14:03Z</time>
      </trkpt>
      <trkpt lat="42.977600" lon="-4.351067">
        <ele>3038.0</ele>
        <time>2017-05-24T14:14:04Z</time>
      </trkpt>
      <trkpt lat="42.977567" lon="-4.350967">
        <ele>3039.0</ele>
        <time>2017-05-24T14:14:05Z</time>
      </trkpt>
      <trkpt lat="42.977533" lon="-4.350883">
        <ele>3039.0</ele>
        <time>2017-05-24T14:14:06Z</time>
      </trkpt>
      <trkpt lat="42.977517" lon="-4.350767">
        <ele>3038.0</ele>
        <time>2017-05-24T14:14:07Z</time>
      </trkpt>
      <trkpt lat="42.977517" lon="-4.350667">
        <ele>3037.0</ele>
        <time>2017-05-24T14:14:08Z</time>
      </trkpt>
      <trkpt lat="42.977500" lon="-4.350550">
        <ele>3036.0</ele>
        <time>2017-05-24T14:14:09Z</time>
      </trkpt>
      <trkpt lat="42.977483" lon="-4.350433">
        <ele>3035.0</ele>
        <time>2017-05-24T14:14:10Z</time>
      </trkpt>
      <trkpt lat="42.977467" lon="-4.350317">
        <ele>3034.0</ele>
        <time>2017-05-24T14:14:11Z</time>
      </trkpt>
      <trkpt lat="42.977433" lon="-4.350200">
        <ele>3034.0</ele>
        <time>2017-05-24T14:14:12Z</time>
      </trkpt>
      <trkpt lat="42.977417" lon="-4.350083">
        <ele>3033.0</ele>
        <time>2017-05-24T14:14:13Z</time>
      </trkpt>
      <trkpt lat="42.977400" lon="-4.349983">
        <ele>3032.0</ele>
        <time>2017-05-24T14:14:14Z</time>
      </trkpt>
      <trkpt lat="42.977383" lon="-4.349867">
        <ele>3031.0</ele>
        <time>2017-05-24T14:14:15Z</time>
      </trkpt>
      <trkpt lat="42.977350" lon="-4.349733">
        <ele>3029.0</ele>
        <time>2017-05-24T14:14:16Z</time>
      </trkpt>
      <trkpt lat="42.977350" lon="-4.349600">
        <ele>3028.0</ele>
        <time>2017-05-24T14:14:17Z</time>
      </trkpt>
      <trkpt lat="42.977333" lon="-4.349467">
        <ele>3028.0</ele>
        <time>2017-05-24T14:14:18Z</time>
      </trkpt>
      <trkpt lat="42.977317" lon="-4.349350">
        <ele>3028.0</ele>
        <time>2017-05-24T14:14:19Z</time>
      </trkpt>
      <trkpt lat="42.977300" lon="-4.349233">
        <ele>3027.0</ele>
        <time>2017-05-24T14:14:20Z</time>
      </trkpt>
      <trkpt lat="42.977267" lon="-4.349117">
        <ele>3026.0</ele>
        <time>2017-05-24T14:14:21Z</time>
      </trkpt>
      <trkpt lat="42.977250" lon="-4.349000">
        <ele>3025.0</ele>
        <time>2017-05-24T14:14:22Z</time>
      </trkpt>
      <trkpt lat="42.977217" lon="-4.348867">
        <ele>3023.0</ele>
        <time>2017-05-24T14:14:23Z</time>
      </trkpt>
      <trkpt lat="42.977183" lon="-4.348750">
        <ele>3021.0</ele>
        <time>2017-05-24T14:14:24Z</time>
      </trkpt>
      <trkpt lat="42.977117" lon="-4.348617">
        <ele>3020.0</ele>
        <time>2017-05-24T14:14:25Z</time>
      </trkpt>
      <trkpt lat="42.977067" lon="-4.348500">
        <ele>3018.0</ele>
        <time>2017-05-24T14:14:26Z</time>
      </trkpt>
      <trkpt lat="42.977000" lon="-4.348367">
        <ele>3017.0</ele>
        <time>2017-05-24T14:14:27Z</time>
      </trkpt>
      <trkpt lat="42.976933" lon="-4.348250">
        <ele>3017.0</ele>
        <time>2017-05-24T14:14:28Z</time>
      </trkpt>
      <trkpt lat="42.976867" lon="-4.348133">
        <ele>3016.0</ele>
        <time>2017-05-24T14:14:29Z</time>
      </trkpt>
      <trkpt lat="42.976817" lon="-4.348017">
        <ele>3015.0</ele>
        <time>2017-05-24T14:14:30Z</time>
      </trkpt>
      <trkpt lat="42.976750" lon="-4.347900">
        <ele>3014.0</ele>
        <time>2017-05-24T14:14:31Z</time>
      </trkpt>
      <trkpt lat="42.976700" lon="-4.347783">
        <ele>3013.0</ele>
        <time>2017-05-24T14:14:32Z</time>
      </trkpt>
      <trkpt lat="42.976650" lon="-4.347667">
        <ele>3011.0</ele>
        <time>2017-05-24T14:14:33Z</time>
      </trkpt>
      <trkpt lat="42.976600" lon="-4.347533">
        <ele>3009.0</ele>
        <time>2017-05-24T14:14:34Z</time>
      </trkpt>
      <trkpt lat="42.976550" lon="-4.347400">
        <ele>3007.0</ele>
        <time>2017-05-24T14:14:35Z</time>
      </trkpt>
      <trkpt lat="42.976500" lon="-4.347267">
        <ele>3006.0</ele>
        <time>2017-05-24T14:14:36Z</time>
      </trkpt>
      <trkpt lat="42.976450" lon="-4.347150">
        <ele>3006.0</ele>
        <time>2017-05-24T14:14:37Z</time>
      </trkpt>
      <trkpt lat="42.976433" lon="-4.347033">
        <ele>3005.0</ele>
        <time>2017-05-24T14:14:38Z</time>
      </trkpt>
      <trkpt lat="42.976400" lon="-4.346917">
        <ele>3003.0</ele>
        <time>2017-05-24T14:14:39Z</time>
      </trkpt>
      <trkpt lat="42.976383" lon="-4.346783">
        <ele>3001.0</ele>
        <time>2017-05-24T14:14:40Z</time>
      </trkpt>
      <trkpt lat="42.976333" lon="-4.346650">
        <ele>3000.0</ele>
        <time>2017-05-24T14:14:41Z</time>
      </trkpt>
      <trkpt lat="42.976300" lon="-4.346517">
        <ele>2999.0</ele>
        <time>2017-05-24T14:14:42Z</time>
      </trkpt>
      <trkpt lat="42.976267" lon="-4.346383">
        <ele>2999.0</ele>
        <time>2017-05-24T14:14:43Z</time>
      </trkpt>
      <trkpt lat="42.976233" lon="-4.346250">
        <ele>2999.0</ele>
        <time>2017-05-24T14:14:44Z</time>
      </trkpt>
      <trkpt lat="42.976200" lon="-4.346117">
        <ele>2999.0</ele>
        <time>2017-05-24T14:14:45Z</time>
      </trkpt>
      <trkpt lat="42.976183" lon="-4.345983">
        <ele>2998.0</ele>
        <time>2017-05-24T14:14:46Z</time>
      </trkpt>
      <trkpt lat="42.976150" lon="-4.345850">
        <ele>2997.0</ele>
        <time>2017-05-24T14:14:47Z</time>
      </trkpt>
      <trkpt lat="42.976117" lon="-4.345700">
        <ele>2996.0</ele>
        <time>2017-05-24T14:14:48Z</time>
      </trkpt>
      <trkpt lat="42.976100" lon="-4.345567">
        <ele>2997.0</ele>
        <time>2017-05-24T14:14:49Z</time>
      </trkpt>
      <trkpt lat="42.976067" lon="-4.345450">
        <ele>2999.0</ele>
        <time>2017-05-24T14:14:50Z</time>
      </trkpt>
      <trkpt lat="42.976050" lon="-4.345350">
        <ele>3000.0</ele>
        <time>2017-05-24T14:14:51Z</time>
      </trkpt>
      <trkpt lat="42.976017" lon="-4.345250">
        <ele>2999.0</ele>
        <time>2017-05-24T14:14:52Z</time>
      </trkpt>
      <trkpt lat="42.975983" lon="-4.345150">
        <ele>2998.0</ele>
        <time>2017-05-24T14:14:53Z</time>
      </trkpt>
      <trkpt lat="42.975950" lon="-4.345033">
        <ele>2995.0</ele>
        <time>2017-05-24T14:14:54Z</time>
      </trkpt>
      <trkpt lat="42.975883" lon="-4.344917">
        <ele>2993.0</ele>
        <time>2017-05-24T14:14:55Z</time>
      </trkpt>
      <trkpt lat="42.975833" lon="-4.344800">
        <ele>2994.0</ele>
        <time>2017-05-24T14:14:56Z</time>
      </trkpt>
      <trkpt lat="42.975783" lon="-4.344683">
        <ele>2995.0</ele>
        <time>2017-05-24T14:14:57Z</time>
      </trkpt>
      <trkpt lat="42.975733" lon="-4.344567">
        <ele>2996.0</ele>
        <time>2017-05-24T14:14:58Z</time>
      </trkpt>
      <trkpt lat="42.975683" lon="-4.344433">
        <ele>2998.0</ele>
        <time>2017-05-24T14:14:59Z</time>
      </trkpt>
      <trkpt lat="42.975633" lon="-4.344317">
        <ele>2999.0</ele>
        <time>2017-05-24T14:15:00Z</time>
      </trkpt>
      <trkpt lat="42.975583" lon="-4.344200">
        <ele>3002.0</ele>
        <time>2017-05-24T14:15:01Z</time>
      </trkpt>
      <trkpt lat="42.975533" lon="-4.344117">
        <ele>3004.0</ele>
        <time>2017-05-24T14:15:02Z</time>
      </trkpt>
      <trkpt lat="42.975483" lon="-4.344050">
        <ele>3005.0</ele>
        <time>2017-05-24T14:15:03Z</time>
      </trkpt>
      <trkpt lat="42.975450" lon="-4.343967">
        <ele>3006.0</ele>
        <time>2017-05-24T14:15:04Z</time>
      </trkpt>
      <trkpt lat="42.975400" lon="-4.343867">
        <ele>3005.0</ele>
        <time>2017-05-24T14:15:05Z</time>
      </trkpt>
      <trkpt lat="42.975367" lon="-4.343733">
        <ele>3006.0</ele>
        <time>2017-05-24T14:15:06Z</time>
      </trkpt>
      <trkpt lat="42.975350" lon="-4.343617">
        <ele>3006.0</ele>
        <time>2017-05-24T14:15:07Z</time>
      </trkpt>
      <trkpt lat="42.975333" lon="-4.343500">
        <ele>3007.0</ele>
        <time>2017-05-24T14:15:08Z</time>
      </trkpt>
      <trkpt lat="42.975333" lon="-4.343383">
        <ele>3008.0</ele>
        <time>2017-05-24T14:15:09Z</time>
      </trkpt>
      <trkpt lat="42.975350" lon="-4.343267">
        <ele>3008.0</ele>
        <time>2017-05-24T14:15:10Z</time>
      </trkpt>
      <trkpt lat="42.975383" lon="-4.343150">
        <ele>3006.0</ele>
        <time>2017-05-24T14:15:11Z</time>
      </trkpt>
      <trkpt lat="42.975450" lon="-4.343033">
        <ele>3005.0</ele>
        <time>2017-05-24T14:15:12Z</time>
      </trkpt>
      <trkpt lat="42.975533" lon="-4.342950">
        <ele>3004.0</ele>
        <time>2017-05-24T14:15:13Z</time>
      </trkpt>
      <trkpt lat="42.975633" lon="-4.342917">
        <ele>3003.0</ele>
        <time>2017-05-24T14:15:14Z</time>
      </trkpt>
      <trkpt lat="42.975733" lon="-4.342917">
        <ele>3004.0</ele>
        <time>2017-05-24T14:15:15Z</time>
      </trkpt>
      <trkpt lat="42.975817" lon="-4.342933">
        <ele>3006.0</ele>
        <time>2017-05-24T14:15:16Z</time>
      </trkpt>
      <trkpt lat="42.975900" lon="-4.342917">
        <ele>3009.0</ele>
        <time>2017-05-24T14:15:17Z</time>
      </trkpt>
      <trkpt lat="42.975967" lon="-4.342900">
        <ele>3009.0</ele>
        <time>2017-05-24T14:15:18Z</time>
      </trkpt>
      <trkpt lat="42.976033" lon="-4.342900">
        <ele>3009.0</ele>
        <time>2017-05-24T14:15:19Z</time>
      </trkpt>
      <trkpt lat="42.976100" lon="-4.342917">
        <ele>3008.0</ele>
        <time>2017-05-24T14:15:20Z</time>
      </trkpt>
      <trkpt lat="42.976183" lon="-4.342950">
        <ele>3009.0</ele>
        <time>2017-05-24T14:15:21Z</time>
      </trkpt>
      <trkpt lat="42.976250" lon="-4.342983">
        <ele>3010.0</ele>
        <time>2017-05-24T14:15:22Z</time>
      </trkpt>
      <trkpt lat="42.976317" lon="-4.343000">
        <ele>3013.0</ele>
        <time>2017-05-24T14:15:23Z</time>
      </trkpt>
      <trkpt lat="42.976367" lon="-4.343017">
        <ele>3015.0</ele>
        <time>2017-05-24T14:15:24Z</time>
      </trkpt>
      <trkpt lat="42.976417" lon="-4.343000">
        <ele>3016.0</ele>
        <time>2017-05-24T14:15:25Z</time>
      </trkpt>
      <trkpt lat="42.976450" lon="-4.343000">
        <ele>3016.0</ele>
        <time>2017-05-24T14:15:26Z</time>
      </trkpt>
      <trkpt lat="42.976500" lon="-4.343017">
        <ele>3016.0</ele>
        <time>2017-05-24T14:15:27Z</time>
      </trkpt>
      <trkpt lat="42.976533" lon="-4.343067">
        <ele>3016.0</ele>
        <time>2017-05-24T14:15:28Z</time>
      </trkpt>
      <trkpt lat="42.976533" lon="-4.343150">
        <ele>3015.0</ele>
        <time>2017-05-24T14:15:29Z</time>
      </trkpt>
      <trkpt lat="42.976517" lon="-4.343233">
        <ele>3016.0</ele>
        <time>2017-05-24T14:15:30Z</time>
      </trkpt>
      <trkpt lat="42.976483" lon="-4.343317">
        <ele>3016.0</ele>
        <time>2017-05-24T14:15:31Z</time>
      </trkpt>
      <trkpt lat="42.976433" lon="-4.343367">
        <ele>3017.0</ele>
        <time>2017-05-24T14:15:32Z</time>
      </trkpt>
      <trkpt lat="42.976383" lon="-4.343433">
        <ele>3018.0</ele>
        <time>2017-05-24T14:15:33Z</time>
      </trkpt>
      <trkpt lat="42.976317" lon="-4.343483">
        <ele>3018.0</ele>
        <time>2017-05-24T14:15:34Z</time>
      </trkpt>
      <trkpt lat="42.976250" lon="-4.343517">
        <ele>3019.0</ele>
        <time>2017-05-24T14:15:35Z</time>
      </trkpt>
      <trkpt lat="42.976167" lon="-4.343533">
        <ele>3019.0</ele>
        <time>2017-05-24T14:15:36Z</time>
      </trkpt>
      <trkpt lat="42.976067" lon="-4.343517">
        <ele>3020.0</ele>
        <time>2017-05-24T14:15:37Z</time>
      </trkpt>
      <trkpt lat="42.975967" lon="-4.343483">
        <ele>3020.0</ele>
        <time>2017-05-24T14:15:38Z</time>
      </trkpt>
      <trkpt lat="42.975883" lon="-4.343450">
        <ele>3021.0</ele>
        <time>2017-05-24T14:15:39Z</time>
      </trkpt>
      <trkpt lat="42.975800" lon="-4.343400">
        <ele>3023.0</ele>
        <time>2017-05-24T14:15:40Z</time>
      </trkpt>
      <trkpt lat="42.975733" lon="-4.343350">
        <ele>3024.0</ele>
        <time>2017-05-24T14:15:41Z</time>
      </trkpt>
      <trkpt lat="42.975667" lon="-4.343283">
        <ele>3024.0</ele>
        <time>2017-05-24T14:15:42Z</time>
      </trkpt>
      <trkpt lat="42.975617" lon="-4.343200">
        <ele>3024.0</ele>
        <time>2017-05-24T14:15:43Z</time>
      </trkpt>
      <trkpt lat="42.975550" lon="-4.343100">
        <ele>3023.0</ele>
        <time>2017-05-24T14:15:44Z</time>
      </trkpt>
      <trkpt lat="42.975500" lon="-4.342983">
        <ele>3023.0</ele>
        <time>2017-05-24T14:15:45Z</time>
      </trkpt>
      <trkpt lat="42.975450" lon="-4.342883">
        <ele>3023.0</ele>
        <time>2017-05-24T14:15:46Z</time>
      </trkpt>
      <trkpt lat="42.975400" lon="-4.342767">
        <ele>3025.0</ele>
        <time>2017-05-24T14:15:47Z</time>
      </trkpt>
      <trkpt lat="42.975350" lon="-4.342667">
        <ele>3026.0</ele>
        <time>2017-05-24T14:15:48Z</time>
      </trkpt>
      <trkpt lat="42.975333" lon="-4.342583">
        <ele>3028.0</ele>
        <time>2017-05-24T14:15:49Z</time>
      </trkpt>
      <trkpt lat="42.975317" lon="-4.342517">
        <ele>3028.0</ele>
        <time>2017-05-24T14:15:50Z</time>
      </trkpt>
      <trkpt lat="42.975283" lon="-4.342433">
        <ele>3026.0</ele>
        <time>2017-05-24T14:15:51Z</time>
      </trkpt>
      <trkpt lat="42.975233" lon="-4.342317">
        <ele>3024.0</ele>
        <time>2017-05-24T14:15:52Z</time>
      </trkpt>
      <trkpt lat="42.975183" lon="-4.342167">
        <ele>3023.0</ele>
        <time>2017-05-24T14:15:53Z</time>
      </trkpt>
      <trkpt lat="42.975133" lon="-4.342017">
        <ele>3022.0</ele>
        <time>2017-05-24T14:15:54Z</time>
      </trkpt>
      <trkpt lat="42.975083" lon="-4.341850">
        <ele>3023.0</ele>
        <time>2017-05-24T14:15:55Z</time>
      </trkpt>
      <trkpt lat="42.975033" lon="-4.341717">
        <ele>3023.0</ele>
        <time>2017-05-24T14:15:56Z</time>
      </trkpt>
      <trkpt lat="42.974983" lon="-4.341600">
        <ele>3022.0</ele>
        <time>2017-05-24T14:15:57Z</time>
      </trkpt>
      <trkpt lat="42.974933" lon="-4.341483">
        <ele>3020.0</ele>
        <time>2017-05-24T14:15:58Z</time>
      </trkpt>
      <trkpt lat="42.974900" lon="-4.341350">
        <ele>3018.0</ele>
        <time>2017-05-24T14:15:59Z</time>
      </trkpt>
      <trkpt lat="42.974850" lon="-4.341217">
        <ele>3014.0</ele>
        <time>2017-05-24T14:16:00Z</time>
      </trkpt>
      <trkpt lat="42.974800" lon="-4.341067">
        <ele>3012.0</ele>
        <time>2017-05-24T14:16:01Z</time>
      </trkpt>
      <trkpt lat="42.974733" lon="-4.340933">
        <ele>3011.0</ele>
        <time>2017-05-24T14:16:02Z</time>
      </trkpt>
      <trkpt lat="42.974683" lon="-4.340817">
        <ele>3010.0</ele>
        <time>2017-05-24T14:16:03Z</time>
      </trkpt>
      <trkpt lat="42.974650" lon="-4.340700">
        <ele>3009.0</ele>
        <time>2017-05-24T14:16:04Z</time>
      </trkpt>
      <trkpt lat="42.974633" lon="-4.340583">
        <ele>3008.0</ele>
        <time>2017-05-24T14:16:05Z</time>
      </trkpt>
      <trkpt lat="42.974650" lon="-4.340450">
        <ele>3005.0</ele>
        <time>2017-05-24T14:16:06Z</time>
      </trkpt>
      <trkpt lat="42.974700" lon="-4.340317">
        <ele>3003.0</ele>
        <time>2017-05-24T14:16:07Z</time>
      </trkpt>
      <trkpt lat="42.974783" lon="-4.340200">
        <ele>3001.0</ele>
        <time>2017-05-24T14:16:08Z</time>
      </trkpt>
      <trkpt lat="42.974867" lon="-4.340133">
        <ele>3002.0</ele>
        <time>2017-05-24T14:16:09Z</time>
      </trkpt>
      <trkpt lat="42.974950" lon="-4.340100">
        <ele>3003.0</ele>
        <time>2017-05-24T14:16:10Z</time>
      </trkpt>
      <trkpt lat="42.975017" lon="-4.340100">
        <ele>3002.0</ele>
        <time>2017-05-24T14:16:11Z</time>
      </trkpt>
      <trkpt lat="42.975083" lon="-4.340100">
        <ele>3000.0</ele>
        <time>2017-05-24T14:16:12Z</time>
      </trkpt>
      <trkpt lat="42.975167" lon="-4.340100">
        <ele>2998.0</ele>
        <time>2017-05-24T14:16:13Z</time>
      </trkpt>
      <trkpt lat="42.975250" lon="-4.340117">
        <ele>2995.0</ele>
        <time>2017-05-24T14:16:14Z</time>
      </trkpt>
      <trkpt lat="42.975350" lon="-4.340150">
        <ele>2991.0</ele>
        <time>2017-05-24T14:16:15Z</time>
      </trkpt>
      <trkpt lat="42.975467" lon="-4.340183">
        <ele>2989.0</ele>
        <time>2017-05-24T14:16:16Z</time>
      </trkpt>
      <trkpt lat="42.975567" lon="-4.340217">
        <ele>2987.0</ele>
        <time>2017-05-24T14:16:17Z</time>
      </trkpt>
      <trkpt lat="42.975667" lon="-4.340250">
        <ele>2987.0</ele>
        <time>2017-05-24T14:16:18Z</time>
      </trkpt>
      <trkpt lat="42.975750" lon="-4.340283">
        <ele>2986.0</ele>
        <time>2017-05-24T14:16:19Z</time>
      </trkpt>
      <trkpt lat="42.975833" lon="-4.340300">
        <ele>2985.0</ele>
        <time>2017-05-24T14:16:20Z</time>
      </trkpt>
      <trkpt lat="42.975933" lon="-4.340333">
        <ele>2985.0</ele>
        <time>2017-05-24T14:16:21Z</time>
      </trkpt>
      <trkpt lat="42.976017" lon="-4.340367">
        <ele>2984.0</ele>
        <time>2017-05-24T14:16:22Z</time>
      </trkpt>
      <trkpt lat="42.976083" lon="-4.340400">
        <ele>2984.0</ele>
        <time>2017-05-24T14:16:23Z</time>
      </trkpt>
      <trkpt lat="42.976167" lon="-4.340433">
        <ele>2983.0</ele>
        <time>2017-05-24T14:16:24Z</time>
      </trkpt>
      <trkpt lat="42.976233" lon="-4.340483">
        <ele>2981.0</ele>
        <time>2017-05-24T14:16:25Z</time>
      </trkpt>
      <trkpt lat="42.976317" lon="-4.340533">
        <ele>2980.0</ele>
        <time>2017-05-24T14:16:26Z</time>
      </trkpt>
      <trkpt lat="42.976417" lon="-4.340583">
        <ele>2979.0</ele>
        <time>2017-05-24T14:16:27Z</time>
      </trkpt>
      <trkpt lat="42.976517" lon="-4.340617">
        <ele>2978.0</ele>
        <time>2017-05-24T14:16:28Z</time>
      </trkpt>
      <trkpt lat="42.976617" lon="-4.340667">
        <ele>2978.0</ele>
        <time>2017-05-24T14:16:29Z</time>
      </trkpt>
      <trkpt lat="42.976700" lon="-4.340700">
        <ele>2977.0</ele>
        <time>2017-05-24T14:16:30Z</time>
      </trkpt>
      <trkpt lat="42.976783" lon="-4.340733">
        <ele>2976.0</ele>
        <time>2017-05-24T14:16:31Z</time>
      </trkpt>
      <trkpt lat="42.976850" lon="-4.340750">
        <ele>2975.0</ele>
        <time>2017-05-24T14:16:32Z</time>
      </trkpt>
      <trkpt lat="42.976933" lon="-4.340783">
        <ele>2974.0</ele>
        <time>2017-05-24T14:16:33Z</time>
      </trkpt>
      <trkpt lat="42.977017" lon="-4.340800">
        <ele>2973.0</ele>
        <time>2017-05-24T14:16:34Z</time>
      </trkpt>
      <trkpt lat="42.977117" lon="-4.340817">
        <ele>2973.0</ele>
        <time>2017-05-24T14:16:35Z</time>
      </trkpt>
      <trkpt lat="42.977183" lon="-4.340833">
        <ele>2973.0</ele>
        <time>2017-05-24T14:16:36Z</time>
      </trkpt>
      <trkpt lat="42.977250" lon="-4.340867">
        <ele>2974.0</ele>
        <time>2017-05-24T14:16:37Z</time>
      </trkpt>
      <trkpt lat="42.977333" lon="-4.340883">
        <ele>2974.0</ele>
        <time>2017-05-24T14:16:38Z</time>
      </trkpt>
      <trkpt lat="42.977417" lon="-4.340900">
        <ele>2974.0</ele>
        <time>2017-05-24T14:16:39Z</time>
      </trkpt>
      <trkpt lat="42.977500" lon="-4.340933">
        <ele>2975.0</ele>
        <time>2017-05-24T14:16:40Z</time>
      </trkpt>
      <trkpt lat="42.977583" lon="-4.340950">
        <ele>2976.0</ele>
        <time>2017-05-24T14:16:41Z</time>
      </trkpt>
      <trkpt lat="42.977650" lon="-4.340983">
        <ele>2977.0</ele>
        <time>2017-05-24T14:16:42Z</time>
      </trkpt>
      <trkpt lat="42.977717" lon="-4.340983">
        <ele>2979.0</ele>
        <time>2017-05-24T14:16:43Z</time>
      </trkpt>
      <trkpt lat="42.977800" lon="-4.340983">
        <ele>2980.0</ele>
        <time>2017-05-24T14:16:44Z</time>
      </trkpt>
      <trkpt lat="42.977867" lon="-4.340967">
        <ele>2982.0</ele>
        <time>2017-05-24T14:16:45Z</time>
      </trkpt>
      <trkpt lat="42.977917" lon="-4.340933">
        <ele>2983.0</ele>
        <time>2017-05-24T14:16:46Z</time>
      </trkpt>
      <trkpt lat="42.977967" lon="-4.340883">
        <ele>2983.0</ele>
        <time>2017-05-24T14:16:47Z</time>
      </trkpt>
      <trkpt lat="42.978017" lon="-4.340817">
        <ele>2982.0</ele>
        <time>2017-05-24T14:16:48Z</time>
      </trkpt>
      <trkpt lat="42.978083" lon="-4.340767">
        <ele>2981.0</ele>
        <time>2017-05-24T14:16:49Z</time>
      </trkpt>
      <trkpt lat="42.978167" lon="-4.340750">
        <ele>2980.0</ele>
        <time>2017-05-24T14:16:50Z</time>
      </trkpt>
      <trkpt lat="42.978233" lon="-4.340733">
        <ele>2979.0</ele>
        <time>2017-05-24T14:16:51Z</time>
      </trkpt>
      <trkpt lat="42.978317" lon="-4.340733">
        <ele>2980.0</ele>
        <time>2017-05-24T14:16:52Z</time>
      </trkpt>
      <trkpt lat="42.978383" lon="-4.340767">
        <ele>2981.0</ele>
        <time>2017-05-24T14:16:53Z</time>
      </trkpt>
      <trkpt lat="42.978433" lon="-4.340783">
        <ele>2982.0</ele>
        <time>2017-05-24T14:16:54Z</time>
      </trkpt>
      <trkpt lat="42.978500" lon="-4.340767">
        <ele>2983.0</ele>
        <time>2017-05-24T14:16:55Z</time>
      </trkpt>
      <trkpt lat="42.978567" lon="-4.340767">
        <ele>2983.0</ele>
        <time>2017-05-24T14:16:56Z</time>
      </trkpt>
      <trkpt lat="42.978617" lon="-4.340767">
        <ele>2982.0</ele>
        <time>2017-05-24T14:16:57Z</time>
      </trkpt>
      <trkpt lat="42.978667" lon="-4.340783">
        <ele>2981.0</ele>
        <time>2017-05-24T14:16:58Z</time>
      </trkpt>
      <trkpt lat="42.978717" lon="-4.340833">
        <ele>2979.0</ele>
        <time>2017-05-24T14:16:59Z</time>
      </trkpt>
      <trkpt lat="42.978783" lon="-4.340883">
        <ele>2978.0</ele>
        <time>2017-05-24T14:17:00Z</time>
      </trkpt>
      <trkpt lat="42.978833" lon="-4.340917">
        <ele>2977.0</ele>
        <time>2017-05-24T14:17:01Z</time>
      </trkpt>
      <trkpt lat="42.978900" lon="-4.340950">
        <ele>2978.0</ele>
        <time>2017-05-24T14:17:02Z</time>
      </trkpt>
      <trkpt lat="42.978983" lon="-4.340967">
        <ele>2978.0</ele>
        <time>2017-05-24T14:17:03Z</time>
      </trkpt>
      <trkpt lat="42.979050" lon="-4.340983">
        <ele>2979.0</ele>
        <time>2017-05-24T14:17:04Z</time>
      </trkpt>
      <trkpt lat="42.979100" lon="-4.341017">
        <ele>2979.0</ele>
        <time>2017-05-24T14:17:05Z</time>
      </trkpt>
      <trkpt lat="42.979167" lon="-4.341050">
        <ele>2979.0</ele>
        <time>2017-05-24T14:17:06Z</time>
      </trkpt>
      <trkpt lat="42.979217" lon="-4.341083">
        <ele>2979.0</ele>
        <time>2017-05-24T14:17:07Z</time>
      </trkpt>
      <trkpt lat="42.979283" lon="-4.341117">
        <ele>2979.0</ele>
        <time>2017-05-24T14:17:08Z</time>
      </trkpt>
      <trkpt lat="42.979317" lon="-4.341150">
        <ele>2979.0</ele>
        <time>2017-05-24T14:17:09Z</time>
      </trkpt>
      <trkpt lat="42.979367" lon="-4.341183">
        <ele>2978.0</ele>
        <time>2017-05-24T14:17:10Z</time>
      </trkpt>
      <trkpt lat="42.979400" lon="-4.341233">
        <ele>2977.0</ele>
        <time>2017-05-24T14:17:11Z</time>
      </trkpt>
      <trkpt lat="42.979467" lon="-4.341283">
        <ele>2977.0</ele>
        <time>2017-05-24T14:17:12Z</time>
      </trkpt>
      <trkpt lat="42.979517" lon="-4.341317">
        <ele>2975.0</ele>
        <time>2017-05-24T14:17:13Z</time>
      </trkpt>
      <trkpt lat="42.979567" lon="-4.341350">
        <ele>2975.0</ele>
        <time>2017-05-24T14:17:14Z</time>
      </trkpt>
      <trkpt lat="42.979617" lon="-4.341383">
        <ele>2975.0</ele>
        <time>2017-05-24T14:17:15Z</time>
      </trkpt>
      <trkpt lat="42.979650" lon="-4.341417">
        <ele>2974.0</ele>
        <time>2017-05-24T14:17:16Z</time>
      </trkpt>
      <trkpt lat="42.979700" lon="-4.341467">
        <ele>2973.0</ele>
        <time>2017-05-24T14:17:17Z</time>
      </trkpt>
      <trkpt lat="42.979750" lon="-4.341500">
        <ele>2971.0</ele>
        <time>2017-05-24T14:17:18Z</time>
      </trkpt>
      <trkpt lat="42.979800" lon="-4.341550">
        <ele>2970.0</ele>
        <time>2017-05-24T14:17:19Z</time>
      </trkpt>
      <trkpt lat="42.979833" lon="-4.341617">
        <ele>2970.0</ele>
        <time>2017-05-24T14:17:20Z</time>
      </trkpt>
      <trkpt lat="42.979867" lon="-4.341667">
        <ele>2970.0</ele>
        <time>2017-05-24T14:17:21Z</time>
      </trkpt>
      <trkpt lat="42.979900" lon="-4.341717">
        <ele>2970.0</ele>
        <time>2017-05-24T14:17:22Z</time>
      </trkpt>
      <trkpt lat="42.979933" lon="-4.341767">
        <ele>2969.0</ele>
        <time>2017-05-24T14:17:23Z</time>
      </trkpt>
      <trkpt lat="42.979983" lon="-4.341833">
        <ele>2969.0</ele>
        <time>2017-05-24T14:17:24Z</time>
      </trkpt>
      <trkpt lat="42.980017" lon="-4.341883">
        <ele>2968.0</ele>
        <time>2017-05-24T14:17:25Z</time>
      </trkpt>
      <trkpt lat="42.980050" lon="-4.341933">
        <ele>2967.0</ele>
        <time>2017-05-24T14:17:26Z</time>
      </trkpt>
      <trkpt lat="42.980100" lon="-4.342000">
        <ele>2966.0</ele>
        <time>2017-05-24T14:17:27Z</time>
      </trkpt>
      <trkpt lat="42.980117" lon="-4.342050">
        <ele>2965.0</ele>
        <time>2017-05-24T14:17:28Z</time>
      </trkpt>
      <trkpt lat="42.980150" lon="-4.342100">
        <ele>2965.0</ele>
        <time>2017-05-24T14:17:29Z</time>
      </trkpt>
      <trkpt lat="42.980183" lon="-4.342150">
        <ele>2964.0</ele>
        <time>2017-05-24T14:17:30Z</time>
      </trkpt>
      <trkpt lat="42.980200" lon="-4.342200">
        <ele>2963.0</ele>
        <time>2017-05-24T14:17:31Z</time>
      </trkpt>
      <trkpt lat="42.980233" lon="-4.342250">
        <ele>2962.0</ele>
        <time>2017-05-24T14:17:32Z</time>
      </trkpt>
      <trkpt lat="42.980283" lon="-4.342300">
        <ele>2961.0</ele>
        <time>2017-05-24T14:17:33Z</time>
      </trkpt>
      <trkpt lat="42.980317" lon="-4.342350">
        <ele>2960.0</ele>
        <time>2017-05-24T14:17:34Z</time>
      </trkpt>
      <trkpt lat="42.980367" lon="-4.342400">
        <ele>2960.0</ele>
        <time>2017-05-24T14:17:35Z</time>
      </trkpt>
      <trkpt lat="42.980400" lon="-4.342450">
        <ele>2959.0</ele>
        <time>2017-05-24T14:17:36Z</time>
      </trkpt>
      <trkpt lat="42.980450" lon="-4.342517">
        <ele>2959.0</ele>
        <time>2017-05-24T14:17:37Z</time>
      </trkpt>
      <trkpt lat="42.980483" lon="-4.342583">
        <ele>2958.0</ele>
        <time>2017-05-24T14:17:38Z</time>
      </trkpt>
      <trkpt lat="42.980517" lon="-4.342650">
        <ele>2957.0</ele>
        <time>2017-05-24T14:17:39Z</time>
      </trkpt>
      <trkpt lat="42.980550" lon="-4.342717">
        <ele>2957.0</ele>
        <time>2017-05-24T14:17:40Z</time>
      </trkpt>
      <trkpt lat="42.980600" lon="-4.342767">
        <ele>2956.0</ele>
        <time>2017-05-24T14:17:41Z</time>
      </trkpt>
      <trkpt lat="42.980650" lon="-4.342817">
        <ele>2956.0</ele>
        <time>2017-05-24T14:17:42Z</time>
      </trkpt>
      <trkpt lat="42.980700" lon="-4.342867">
        <ele>2955.0</ele>
        <time>2017-05-24T14:17:43Z</time>
      </trkpt>
      <trkpt lat="42.980733" lon="-4.342933">
        <ele>2954.0</ele>
        <time>2017-05-24T14:17:44Z</time>
      </trkpt>
      <trkpt lat="42.980767" lon="-4.342983">
        <ele>2953.0</ele>
        <time>2017-05-24T14:17:45Z</time>
      </trkpt>
      <trkpt lat="42.980817" lon="-4.343033">
        <ele>2952.0</ele>
        <time>2017-05-24T14:17:46Z</time>
      </trkpt>
      <trkpt lat="42.980850" lon="-4.343083">
        <ele>2951.0</ele>
        <time>2017-05-24T14:17:47Z</time>
      </trkpt>
      <trkpt lat="42.980883" lon="-4.343150">
        <ele>2949.0</ele>
        <time>2017-05-24T14:17:48Z</time>
      </trkpt>
      <trkpt lat="42.980917" lon="-4.343217">
        <ele>2947.0</ele>
        <time>2017-05-24T14:17:49Z</time>
      </trkpt>
      <trkpt lat="42.980950" lon="-4.343300">
        <ele>2945.0</ele>
        <time>2017-05-24T14:17:50Z</time>
      </trkpt>
      <trkpt lat="42.981000" lon="-4.343383">
        <ele>2944.0</ele>
        <time>2017-05-24T14:17:51Z</time>
      </trkpt>
      <trkpt lat="42.981033" lon="-4.343467">
        <ele>2943.0</ele>
        <time>2017-05-24T14:17:52Z</time>
      </trkpt>
      <trkpt lat="42.981083" lon="-4.343550">
        <ele>2942.0</ele>
        <time>2017-05-24T14:17:53Z</time>
      </trkpt>
      <trkpt lat="42.981117" lon="-4.343633">
        <ele>2942.0</ele>
        <time>2017-05-24T14:17:54Z</time>
      </trkpt>
      <trkpt lat="42.981150" lon="-4.343717">
        <ele>2942.0</ele>
        <time>2017-05-24T14:17:55Z</time>
      </trkpt>
      <trkpt lat="42.981200" lon="-4.343800">
        <ele>2941.0</ele>
        <time>2017-05-24T14:17:56Z</time>
      </trkpt>
      <trkpt lat="42.981233" lon="-4.343883">
        <ele>2939.0</ele>
        <time>2017-05-24T14:17:57Z</time>
      </trkpt>
      <trkpt lat="42.981283" lon="-4.343967">
        <ele>2938.0</ele>
        <time>2017-05-24T14:17:58Z</time>
      </trkpt>
      <trkpt lat="42.981317" lon="-4.344067">
        <ele>2937.0</ele>
        <time>2017-05-24T14:17:59Z</time>
      </trkpt>
      <trkpt lat="42.981383" lon="-4.344150">
        <ele>2936.0</ele>
        <time>2017-05-24T14:18:00Z</time>
      </trkpt>
      <trkpt lat="42.981433" lon="-4.344233">
        <ele>2935.0</ele>
        <time>2017-05-24T14:18:01Z</time>
      </trkpt>
      <trkpt lat="42.981500" lon="-4.344317">
        <ele>2934.0</ele>
        <time>2017-05-24T14:18:02Z</time>
      </trkpt>
      <trkpt lat="42.981567" lon="-4.344400">
        <ele>2933.0</ele>
        <time>2017-05-24T14:18:03Z</time>
      </trkpt>
      <trkpt lat="42.981633" lon="-4.344483">
        <ele>2931.0</ele>
        <time>2017-05-24T14:18:04Z</time>
      </trkpt>
      <trkpt lat="42.981700" lon="-4.344567">
        <ele>2928.0</ele>
        <time>2017-05-24T14:18:05Z</time>
      </trkpt>
      <trkpt lat="42.981783" lon="-4.344667">
        <ele>2926.0</ele>
        <time>2017-05-24T14:18:06Z</time>
      </trkpt>
      <trkpt lat="42.981850" lon="-4.344767">
        <ele>2924.0</ele>
        <time>2017-05-24T14:18:07Z</time>
      </trkpt>
      <trkpt lat="42.981900" lon="-4.344883">
        <ele>2923.0</ele>
        <time>2017-05-24T14:18:08Z</time>
      </trkpt>
      <trkpt lat="42.981950" lon="-4.344967">
        <ele>2922.0</ele>
        <time>2017-05-24T14:18:09Z</time>
      </trkpt>
      <trkpt lat="42.982000" lon="-4.345067">
        <ele>2919.0</ele>
        <time>2017-05-24T14:18:10Z</time>
      </trkpt>
      <trkpt lat="42.982067" lon="-4.345150">
        <ele>2916.0</ele>
        <time>2017-05-24T14:18:11Z</time>
      </trkpt>
      <trkpt lat="42.982133" lon="-4.345267">
        <ele>2912.0</ele>
        <time>2017-05-24T14:18:12Z</time>
      </trkpt>
      <trkpt lat="42.982200" lon="-4.345383">
        <ele>2908.0</ele>
        <time>2017-05-24T14:18:13Z</time>
      </trkpt>
      <trkpt lat="42.982283" lon="-4.345500">
        <ele>2905.0</ele>
        <time>2017-05-24T14:18:14Z</time>
      </trkpt>
      <trkpt lat="42.982367" lon="-4.345617">
        <ele>2903.0</ele>
        <time>2017-05-24T14:18:15Z</time>
      </trkpt>
      <trkpt lat="42.982417" lon="-4.345733">
        <ele>2905.0</ele>
        <time>2017-05-24T14:18:16Z</time>
      </trkpt>
      <trkpt lat="42.982467" lon="-4.345817">
        <ele>2907.0</ele>
        <time>2017-05-24T14:18:17Z</time>
      </trkpt>
      <trkpt lat="42.982517" lon="-4.345867">
        <ele>2907.0</ele>
        <time>2017-05-24T14:18:18Z</time>
      </trkpt>
      <trkpt lat="42.982583" lon="-4.345900">
        <ele>2906.0</ele>
        <time>2017-05-24T14:18:19Z</time>
      </trkpt>
      <trkpt lat="42.982650" lon="-4.345950">
        <ele>2903.0</ele>
        <time>2017-05-24T14:18:20Z</time>
      </trkpt>
      <trkpt lat="42.982717" lon="-4.345983">
        <ele>2899.0</ele>
        <time>2017-05-24T14:18:21Z</time>
      </trkpt>
      <trkpt lat="42.982783" lon="-4.346033">
        <ele>2895.0</ele>
        <time>2017-05-24T14:18:22Z</time>
      </trkpt>
      <trkpt lat="42.982867" lon="-4.346100">
        <ele>2890.0</ele>
        <time>2017-05-24T14:18:23Z</time>
      </trkpt>
      <trkpt lat="42.982933" lon="-4.346183">
        <ele>2886.0</ele>
        <time>2017-05-24T14:18:24Z</time>
      </trkpt>
      <trkpt lat="42.983017" lon="-4.346283">
        <ele>2883.0</ele>
        <time>2017-05-24T14:18:25Z</time>
      </trkpt>
      <trkpt lat="42.983083" lon="-4.346350">
        <ele>2881.0</ele>
        <time>2017-05-24T14:18:26Z</time>
      </trkpt>
      <trkpt lat="42.983150" lon="-4.346400">
        <ele>2881.0</ele>
        <time>2017-05-24T14:18:27Z</time>
      </trkpt>
      <trkpt lat="42.983200" lon="-4.346450">
        <ele>2881.0</ele>
        <time>2017-05-24T14:18:28Z</time>
      </trkpt>
      <trkpt lat="42.983250" lon="-4.346483">
        <ele>2879.0</ele>
        <time>2017-05-24T14:18:29Z</time>
      </trkpt>
      <trkpt lat="42.983300" lon="-4.346567">
        <ele>2876.0</ele>
        <time>2017-05-24T14:18:30Z</time>
      </trkpt>
      <trkpt lat="42.983367" lon="-4.346650">
        <ele>2875.0</ele>
        <time>2017-05-24T14:18:31Z</time>
      </trkpt>
      <trkpt lat="42.983467" lon="-4.346717">
        <ele>2874.0</ele>
        <time>2017-05-24T14:18:32Z</time>
      </trkpt>
      <trkpt lat="42.983550" lon="-4.346767">
        <ele>2875.0</ele>
        <time>2017-05-24T14:18:33Z</time>
      </trkpt>
      <trkpt lat="42.983650" lon="-4.346800">
        <ele>2876.0</ele>
        <time>2017-05-24T14:18:34Z</time>
      </trkpt>
      <trkpt lat="42.983717" lon="-4.346850">
        <ele>2877.0</ele>
        <time>2017-05-24T14:18:35Z</time>
      </trkpt>
      <trkpt lat="42.983800" lon="-4.346900">
        <ele>2878.0</ele>
        <time>2017-05-24T14:18:36Z</time>
      </trkpt>
      <trkpt lat="42.983867" lon="-4.346950">
        <ele>2877.0</ele>
        <time>2017-05-24T14:18:37Z</time>
      </trkpt>
      <trkpt lat="42.983950" lon="-4.347000">
        <ele>2876.0</ele>
        <time>2017-05-24T14:18:38Z</time>
      </trkpt>
      <trkpt lat="42.984050" lon="-4.347050">
        <ele>2876.0</ele>
        <time>2017-05-24T14:18:39Z</time>
      </trkpt>
      <trkpt lat="42.984133" lon="-4.347067">
        <ele>2876.0</ele>
        <time>2017-05-24T14:18:40Z</time>
      </trkpt>
      <trkpt lat="42.984217" lon="-4.347100">
        <ele>2877.0</ele>
        <time>2017-05-24T14:18:41Z</time>
      </trkpt>
      <trkpt lat="42.984283" lon="-4.347117">
        <ele>2878.0</ele>
        <time>2017-05-24T14:18:42Z</time>
      </trkpt>
      <trkpt lat="42.984367" lon="-4.347133">
        <ele>2877.0</ele>
        <time>2017-05-24T14:18:43Z</time>
      </trkpt>
      <trkpt lat="42.984467" lon="-4.347167">
        <ele>2876.0</ele>
        <time>2017-05-24T14:18:44Z</time>
      </trkpt>
      <trkpt lat="42.984550" lon="-4.347217">
        <ele>2875.0</ele>
        <time>2017-05-24T14:18:45Z</time>
      </trkpt>
      <trkpt lat="42.984633" lon="-4.347267">
        <ele>2874.0</ele>
        <time>2017-05-24T14:18:46Z</time>
      </trkpt>
      <trkpt lat="42.984717" lon="-4.347317">
        <ele>2875.0</ele>
        <time>2017-05-24T14:18:47Z</time>
      </trkpt>
      <trkpt lat="42.984800" lon="-4.347350">
        <ele>2876.0</ele>
        <time>2017-05-24T14:18:48Z</time>
      </trkpt>
      <trkpt lat="42.984867" lon="-4.347367">
        <ele>2876.0</ele>
        <time>2017-05-24T14:18:49Z</time>
      </trkpt>
      <trkpt lat="42.984950" lon="-4.347400">
        <ele>2875.0</ele>
        <time>2017-05-24T14:18:50Z</time>
      </trkpt>
      <trkpt lat="42.985033" lon="-4.347433">
        <ele>2874.0</ele>
        <time>2017-05-24T14:18:51Z</time>
      </trkpt>
      <trkpt lat="42.985133" lon="-4.347483">
        <ele>2873.0</ele>
        <time>2017-05-24T14:18:52Z</time>
      </trkpt>
      <trkpt lat="42.985217" lon="-4.347533">
        <ele>2872.0</ele>
        <time>2017-05-24T14:18:53Z</time>
      </trkpt>
      <trkpt lat="42.985300" lon="-4.347617">
        <ele>2872.0</ele>
        <time>2017-05-24T14:18:54Z</time>
      </trkpt>
      <trkpt lat="42.985383" lon="-4.347700">
        <ele>2872.0</ele>
        <time>2017-05-24T14:18:55Z</time>
      </trkpt>
      <trkpt lat="42.985467" lon="-4.347800">
        <ele>2873.0</ele>
        <time>2017-05-24T14:18:56Z</time>
      </trkpt>
      <trkpt lat="42.985533" lon="-4.347900">
        <ele>2874.0</ele>
        <time>2017-05-24T14:18:57Z</time>
      </trkpt>
      <trkpt lat="42.985617" lon="-4.348000">
        <ele>2875.0</ele>
        <time>2017-05-24T14:18:58Z</time>
      </trkpt>
      <trkpt lat="42.985683" lon="-4.348100">
        <ele>2878.0</ele>
        <time>2017-05-24T14:18:59Z</time>
      </trkpt>
      <trkpt lat="42.985750" lon="-4.348183">
        <ele>2880.0</ele>
        <time>2017-05-24T14:19:00Z</time>
      </trkpt>
      <trkpt lat="42.985833" lon="-4.348250">
        <ele>2881.0</ele>
        <time>2017-05-24T14:19:01Z</time>
      </trkpt>
      <trkpt lat="42.985900" lon="-4.348317">
        <ele>2883.0</ele>
        <time>2017-05-24T14:19:02Z</time>
      </trkpt>
      <trkpt lat="42.985967" lon="-4.348367">
        <ele>2885.0</ele>
        <time>2017-05-24T14:19:03Z</time>
      </trkpt>
      <trkpt lat="42.986050" lon="-4.348400">
        <ele>2887.0</ele>
        <time>2017-05-24T14:19:04Z</time>
      </trkpt>
      <trkpt lat="42.986117" lon="-4.348433">
        <ele>2888.0</ele>
        <time>2017-05-24T14:19:05Z</time>
      </trkpt>
      <trkpt lat="42.986183" lon="-4.348450">
        <ele>2890.0</ele>
        <time>2017-05-24T14:19:06Z</time>
      </trkpt>
      <trkpt lat="42.986250" lon="-4.348450">
        <ele>2892.0</ele>
        <time>2017-05-24T14:19:07Z</time>
      </trkpt>
      <trkpt lat="42.986300" lon="-4.348467">
        <ele>2893.0</ele>
        <time>2017-05-24T14:19:08Z</time>
      </trkpt>
      <trkpt lat="42.986350" lon="-4.348500">
        <ele>2893.0</ele>
        <time>2017-05-24T14:19:09Z</time>
      </trkpt>
      <trkpt lat="42.986400" lon="-4.348533">
        <ele>2893.0</ele>
        <time>2017-05-24T14:19:10Z</time>
      </trkpt>
      <trkpt lat="42.986467" lon="-4.348583">
        <ele>2895.0</ele>
        <time>2017-05-24T14:19:11Z</time>
      </trkpt>
      <trkpt lat="42.986533" lon="-4.348650">
        <ele>2897.0</ele>
        <time>2017-05-24T14:19:12Z</time>
      </trkpt>
      <trkpt lat="42.986583" lon="-4.348683">
        <ele>2900.0</ele>
        <time>2017-05-24T14:19:13Z</time>
      </trkpt>
      <trkpt lat="42.986650" lon="-4.348700">
        <ele>2902.0</ele>
        <time>2017-05-24T14:19:14Z</time>
      </trkpt>
      <trkpt lat="42.986717" lon="-4.348700">
        <ele>2902.0</ele>
        <time>2017-05-24T14:19:15Z</time>
      </trkpt>
      <trkpt lat="42.986800" lon="-4.348683">
        <ele>2901.0</ele>
        <time>2017-05-24T14:19:16Z</time>
      </trkpt>
      <trkpt lat="42.986917" lon="-4.348650">
        <ele>2901.0</ele>
        <time>2017-05-24T14:19:17Z</time>
      </trkpt>
      <trkpt lat="42.987033" lon="-4.348583">
        <ele>2902.0</ele>
        <time>2017-05-24T14:19:18Z</time>
      </trkpt>
      <trkpt lat="42.987133" lon="-4.348500">
        <ele>2905.0</ele>
        <time>2017-05-24T14:19:19Z</time>
      </trkpt>
      <trkpt lat="42.987217" lon="-4.348400">
        <ele>2908.0</ele>
        <time>2017-05-24T14:19:20Z</time>
      </trkpt>
      <trkpt lat="42.987300" lon="-4.348283">
        <ele>2911.0</ele>
        <time>2017-05-24T14:19:21Z</time>
      </trkpt>
      <trkpt lat="42.987367" lon="-4.348183">
        <ele>2913.0</ele>
        <time>2017-05-24T14:19:22Z</time>
      </trkpt>
      <trkpt lat="42.987450" lon="-4.348067">
        <ele>2915.0</ele>
        <time>2017-05-24T14:19:23Z</time>
      </trkpt>
      <trkpt lat="42.987533" lon="-4.347967">
        <ele>2916.0</ele>
        <time>2017-05-24T14:19:24Z</time>
      </trkpt>
      <trkpt lat="42.987617" lon="-4.347850">
        <ele>2917.0</ele>
        <time>2017-05-24T14:19:25Z</time>
      </trkpt>
      <trkpt lat="42.987683" lon="-4.347717">
        <ele>2917.0</ele>
        <time>2017-05-24T14:19:26Z</time>
      </trkpt>
      <trkpt lat="42.987700" lon="-4.347567">
        <ele>2918.0</ele>
        <time>2017-05-24T14:19:27Z</time>
      </trkpt>
      <trkpt lat="42.987717" lon="-4.347400">
        <ele>2917.0</ele>
        <time>2017-05-24T14:19:28Z</time>
      </trkpt>
      <trkpt lat="42.987683" lon="-4.347267">
        <ele>2917.0</ele>
        <time>2017-05-24T14:19:29Z</time>
      </trkpt>
      <trkpt lat="42.987633" lon="-4.347133">
        <ele>2917.0</ele>
        <time>2017-05-24T14:19:30Z</time>
      </trkpt>
      <trkpt lat="42.987567" lon="-4.347067">
        <ele>2917.0</ele>
        <time>2017-05-24T14:19:31Z</time>
      </trkpt>
      <trkpt lat="42.987483" lon="-4.347017">
        <ele>2917.0</ele>
        <time>2017-05-24T14:19:32Z</time>
      </trkpt>
      <trkpt lat="42.987417" lon="-4.347017">
        <ele>2918.0</ele>
        <time>2017-05-24T14:19:33Z</time>
      </trkpt>
      <trkpt lat="42.987367" lon="-4.347050">
        <ele>2919.0</ele>
        <time>2017-05-24T14:19:34Z</time>
      </trkpt>
      <trkpt lat="42.987333" lon="-4.347083">
        <ele>2920.0</ele>
        <time>2017-05-24T14:19:35Z</time>
      </trkpt>
      <trkpt lat="42.987317" lon="-4.347150">
        <ele>2921.0</ele>
        <time>2017-05-24T14:19:36Z</time>
      </trkpt>
      <trkpt lat="42.987300" lon="-4.347233">
        <ele>2923.0</ele>
        <time>2017-05-24T14:19:37Z</time>
      </trkpt>
      <trkpt lat="42.987300" lon="-4.347300">
        <ele>2925.0</ele>
        <time>2017-05-24T14:19:38Z</time>
      </trkpt>
      <trkpt lat="42.987317" lon="-4.347367">
        <ele>2927.0</ele>
        <time>2017-05-24T14:19:39Z</time>
      </trkpt>
      <trkpt lat="42.987350" lon="-4.347433">
        <ele>2928.0</ele>
        <time>2017-05-24T14:19:40Z</time>
      </trkpt>
      <trkpt lat="42.987383" lon="-4.347500">
        <ele>2928.0</ele>
        <time>2017-05-24T14:19:41Z</time>
      </trkpt>
      <trkpt lat="42.987417" lon="-4.347600">
        <ele>2927.0</ele>
        <time>2017-05-24T14:19:42Z</time>
      </trkpt>
      <trkpt lat="42.987467" lon="-4.347717">
        <ele>2925.0</ele>
        <time>2017-05-24T14:19:43Z</time>
      </trkpt>
      <trkpt lat="42.987533" lon="-4.347833">
        <ele>2926.0</ele>
        <time>2017-05-24T14:19:44Z</time>
      </trkpt>
      <trkpt lat="42.987600" lon="-4.347933">
        <ele>2929.0</ele>
        <time>2017-05-24T14:19:45Z</time>
      </trkpt>
      <trkpt lat="42.987683" lon="-4.348000">
        <ele>2933.0</ele>
        <time>2017-05-24T14:19:46Z</time>
      </trkpt>
      <trkpt lat="42.987767" lon="-4.348033">
        <ele>2937.0</ele>
        <time>2017-05-24T14:19:47Z</time>
      </trkpt>
      <trkpt lat="42.987833" lon="-4.348067">
        <ele>2939.0</ele>
        <time>2017-05-24T14:19:48Z</time>
      </trkpt>
      <trkpt lat="42.987900" lon="-4.348117">
        <ele>2940.0</ele>
        <time>2017-05-24T14:19:49Z</time>
      </trkpt>
      <trkpt lat="42.987967" lon="-4.348167">
        <ele>2943.0</ele>
        <time>2017-05-24T14:19:50Z</time>
      </trkpt>
      <trkpt lat="42.988017" lon="-4.348217">
        <ele>2947.0</ele>
        <time>2017-05-24T14:19:51Z</time>
      </trkpt>
      <trkpt lat="42.988067" lon="-4.348250">
        <ele>2952.0</ele>
        <time>2017-05-24T14:19:52Z</time>
      </trkpt>
      <trkpt lat="42.988117" lon="-4.348250">
        <ele>2955.0</ele>
        <time>2017-05-24T14:19:53Z</time>
      </trkpt>
      <trkpt lat="42.988133" lon="-4.348267">
        <ele>2957.0</ele>
        <time>2017-05-24T14:19:54Z</time>
      </trkpt>
      <trkpt lat="42.988167" lon="-4.348283">
        <ele>2958.0</ele>
        <time>2017-05-24T14:19:55Z</time>
      </trkpt>
      <trkpt lat="42.988217" lon="-4.348300">
        <ele>2958.0</ele>
        <time>2017-05-24T14:19:56Z</time>
      </trkpt>
      <trkpt lat="42.988283" lon="-4.348283">
        <ele>2958.0</ele>
        <time>2017-05-24T14:19:57Z</time>
      </trkpt>
      <trkpt lat="42.988350" lon="-4.348250">
        <ele>2957.0</ele>
        <time>2017-05-24T14:19:58Z</time>
      </trkpt>
      <trkpt lat="42.988417" lon="-4.348167">
        <ele>2957.0</ele>
        <time>2017-05-24T14:19:59Z</time>
      </trkpt>
      <trkpt lat="42.988450" lon="-4.348017">
        <ele>2956.0</ele>
        <time>2017-05-24T14:20:00Z</time>
      </trkpt>
      <trkpt lat="42.988467" lon="-4.347850">
        <ele>2955.0</ele>
        <time>2017-05-24T14:20:01Z</time>
      </trkpt>
      <trkpt lat="42.988450" lon="-4.347683">
        <ele>2955.0</ele>
        <time>2017-05-24T14:20:02Z</time>
      </trkpt>
      <trkpt lat="42.988400" lon="-4.347550">
        <ele>2955.0</ele>
        <time>2017-05-24T14:20:03Z</time>
      </trkpt>
      <trkpt lat="42.988350" lon="-4.347400">
        <ele>2955.0</ele>
        <time>2017-05-24T14:20:04Z</time>
      </trkpt>
      <trkpt lat="42.988300" lon="-4.347267">
        <ele>2955.0</ele>
        <time>2017-05-24T14:20:05Z</time>
      </trkpt>
      <trkpt lat="42.988250" lon="-4.347100">
        <ele>2956.0</ele>
        <time>2017-05-24T14:20:06Z</time>
      </trkpt>
      <trkpt lat="42.988217" lon="-4.346917">
        <ele>2959.0</ele>
        <time>2017-05-24T14:20:07Z</time>
      </trkpt>
      <trkpt lat="42.988183" lon="-4.346783">
        <ele>2964.0</ele>
        <time>2017-05-24T14:20:08Z</time>
      </trkpt>
      <trkpt lat="42.988150" lon="-4.346683">
        <ele>2966.0</ele>
        <time>2017-05-24T14:20:09Z</time>
      </trkpt>
      <trkpt lat="42.988117" lon="-4.346617">
        <ele>2967.0</ele>
        <time>2017-05-24T14:20:10Z</time>
      </trkpt>
      <trkpt lat="42.988067" lon="-4.346567">
        <ele>2966.0</ele>
        <time>2017-05-24T14:20:11Z</time>
      </trkpt>
      <trkpt lat="42.988000" lon="-4.346533">
        <ele>2965.0</ele>
        <time>2017-05-24T14:20:12Z</time>
      </trkpt>
      <trkpt lat="42.987933" lon="-4.346517">
        <ele>2965.0</ele>
        <time>2017-05-24T14:20:13Z</time>
      </trkpt>
      <trkpt lat="42.987867" lon="-4.346533">
        <ele>2965.0</ele>
        <time>2017-05-24T14:20:14Z</time>
      </trkpt>
      <trkpt lat="42.987833" lon="-4.346617">
        <ele>2965.0</ele>
        <time>2017-05-24T14:20:15Z</time>
      </trkpt>
      <trkpt lat="42.987850" lon="-4.346717">
        <ele>2965.0</ele>
        <time>2017-05-24T14:20:16Z</time>
      </trkpt>
      <trkpt lat="42.987900" lon="-4.346800">
        <ele>2965.0</ele>
        <time>2017-05-24T14:20:17Z</time>
      </trkpt>
      <trkpt lat="42.987983" lon="-4.346867">
        <ele>2967.0</ele>
        <time>2017-05-24T14:20:18Z</time>
      </trkpt>
      <trkpt lat="42.988050" lon="-4.346917">
        <ele>2969.0</ele>
        <time>2017-05-24T14:20:19Z</time>
      </trkpt>
      <trkpt lat="42.988117" lon="-4.346950">
        <ele>2971.0</ele>
        <time>2017-05-24T14:20:20Z</time>
      </trkpt>
      <trkpt lat="42.988183" lon="-4.346983">
        <ele>2971.0</ele>
        <time>2017-05-24T14:20:21Z</time>
      </trkpt>
      <trkpt lat="42.988267" lon="-4.347033">
        <ele>2972.0</ele>
        <time>2017-05-24T14:20:22Z</time>
      </trkpt>
      <trkpt lat="42.988367" lon="-4.347067">
        <ele>2972.0</ele>
        <time>2017-05-24T14:20:23Z</time>
      </trkpt>
      <trkpt lat="42.988467" lon="-4.347100">
        <ele>2973.0</ele>
        <time>2017-05-24T14:20:24Z</time>
      </trkpt>
      <trkpt lat="42.988550" lon="-4.347133">
        <ele>2975.0</ele>
        <time>2017-05-24T14:20:25Z</time>
      </trkpt>
      <trkpt lat="42.988617" lon="-4.347150">
        <ele>2976.0</ele>
        <time>2017-05-24T14:20:26Z</time>
      </trkpt>
      <trkpt lat="42.988700" lon="-4.347167">
        <ele>2976.0</ele>
        <time>2017-05-24T14:20:27Z</time>
      </trkpt>
      <trkpt lat="42.988783" lon="-4.347167">
        <ele>2976.0</ele>
        <time>2017-05-24T14:20:28Z</time>
      </trkpt>
      <trkpt lat="42.988867" lon="-4.347183">
        <ele>2976.0</ele>
        <time>2017-05-24T14:20:29Z</time>
      </trkpt>
      <trkpt lat="42.988950" lon="-4.347200">
        <ele>2976.0</ele>
        <time>2017-05-24T14:20:30Z</time>
      </trkpt>
      <trkpt lat="42.989017" lon="-4.347217">
        <ele>2976.0</ele>
        <time>2017-05-24T14:20:31Z</time>
      </trkpt>
      <trkpt lat="42.989083" lon="-4.347250">
        <ele>2976.0</ele>
        <time>2017-05-24T14:20:32Z</time>
      </trkpt>
      <trkpt lat="42.989150" lon="-4.347267">
        <ele>2975.0</ele>
        <time>2017-05-24T14:20:33Z</time>
      </trkpt>
      <trkpt lat="42.989200" lon="-4.347267">
        <ele>2974.0</ele>
        <time>2017-05-24T14:20:34Z</time>
      </trkpt>
      <trkpt lat="42.989267" lon="-4.347300">
        <ele>2972.0</ele>
        <time>2017-05-24T14:20:35Z</time>
      </trkpt>
      <trkpt lat="42.989333" lon="-4.347367">
        <ele>2970.0</ele>
        <time>2017-05-24T14:20:36Z</time>
      </trkpt>
      <trkpt lat="42.989367" lon="-4.347450">
        <ele>2970.0</ele>
        <time>2017-05-24T14:20:37Z</time>
      </trkpt>
      <trkpt lat="42.989400" lon="-4.347550">
        <ele>2970.0</ele>
        <time>2017-05-24T14:20:38Z</time>
      </trkpt>
      <trkpt lat="42.989417" lon="-4.347650">
        <ele>2969.0</ele>
        <time>2017-05-24T14:20:39Z</time>
      </trkpt>
      <trkpt lat="42.989417" lon="-4.347750">
        <ele>2968.0</ele>
        <time>2017-05-24T14:20:40Z</time>
      </trkpt>
      <trkpt lat="42.989433" lon="-4.347867">
        <ele>2968.0</ele>
        <time>2017-05-24T14:20:41Z</time>
      </trkpt>
      <trkpt lat="42.989433" lon="-4.347983">
        <ele>2968.0</ele>
        <time>2017-05-24T14:20:42Z</time>
      </trkpt>
      <trkpt lat="42.989433" lon="-4.348100">
        <ele>2968.0</ele>
        <time>2017-05-24T14:20:43Z</time>
      </trkpt>
      <trkpt lat="42.989433" lon="-4.348233">
        <ele>2968.0</ele>
        <time>2017-05-24T14:20:44Z</time>
      </trkpt>
      <trkpt lat="42.989417" lon="-4.348383">
        <ele>2969.0</ele>
        <time>2017-05-24T14:20:45Z</time>
      </trkpt>
      <trkpt lat="42.989400" lon="-4.348533">
        <ele>2973.0</ele>
        <time>2017-05-24T14:20:46Z</time>
      </trkpt>
      <trkpt lat="42.989367" lon="-4.348650">
        <ele>2977.0</ele>
        <time>2017-05-24T14:20:47Z</time>
      </trkpt>
      <trkpt lat="42.989350" lon="-4.348750">
        <ele>2981.0</ele>
        <time>2017-05-24T14:20:48Z</time>
      </trkpt>
      <trkpt lat="42.989317" lon="-4.348833">
        <ele>2984.0</ele>
        <time>2017-05-24T14:20:49Z</time>
      </trkpt>
      <trkpt lat="42.989283" lon="-4.348900">
        <ele>2985.0</ele>
        <time>2017-05-24T14:20:50Z</time>
      </trkpt>
      <trkpt lat="42.989233" lon="-4.348950">
        <ele>2985.0</ele>
        <time>2017-05-24T14:20:51Z</time>
      </trkpt>
      <trkpt lat="42.989183" lon="-4.349017">
        <ele>2985.0</ele>
        <time>2017-05-24T14:20:52Z</time>
      </trkpt>
      <trkpt lat="42.989117" lon="-4.349083">
        <ele>2984.0</ele>
        <time>2017-05-24T14:20:53Z</time>
      </trkpt>
      <trkpt lat="42.989050" lon="-4.349133">
        <ele>2983.0</ele>
        <time>2017-05-24T14:20:54Z</time>
      </trkpt>
      <trkpt lat="42.988950" lon="-4.349150">
        <ele>2982.0</ele>
        <time>2017-05-24T14:20:55Z</time>
      </trkpt>
      <trkpt lat="42.988850" lon="-4.349133">
        <ele>2980.0</ele>
        <time>2017-05-24T14:20:56Z</time>
      </trkpt>
      <trkpt lat="42.988750" lon="-4.349100">
        <ele>2978.0</ele>
        <time>2017-05-24T14:20:57Z</time>
      </trkpt>
      <trkpt lat="42.988650" lon="-4.349083">
        <ele>2976.0</ele>
        <time>2017-05-24T14:20:58Z</time>
      </trkpt>
      <trkpt lat="42.988533" lon="-4.349067">
        <ele>2973.0</ele>
        <time>2017-05-24T14:20:59Z</time>
      </trkpt>
      <trkpt lat="42.988417" lon="-4.349067">
        <ele>2971.0</ele>
        <time>2017-05-24T14:21:00Z</time>
      </trkpt>
      <trkpt lat="42.988283" lon="-4.349067">
        <ele>2969.0</ele>
        <time>2017-05-24T14:21:01Z</time>
      </trkpt>
      <trkpt lat="42.988150" lon="-4.349050">
        <ele>2969.0</ele>
        <time>2017-05-24T14:21:02Z</time>
      </trkpt>
      <trkpt lat="42.988017" lon="-4.349017">
        <ele>2969.0</ele>
        <time>2017-05-24T14:21:03Z</time>
      </trkpt>
      <trkpt lat="42.987900" lon="-4.348983">
        <ele>2970.0</ele>
        <time>2017-05-24T14:21:04Z</time>
      </trkpt>
      <trkpt lat="42.987783" lon="-4.348950">
        <ele>2969.0</ele>
        <time>2017-05-24T14:21:05Z</time>
      </trkpt>
      <trkpt lat="42.987650" lon="-4.348917">
        <ele>2969.0</ele>
        <time>2017-05-24T14:21:06Z</time>
      </trkpt>
      <trkpt lat="42.987533" lon="-4.348900">
        <ele>2968.0</ele>
        <time>2017-05-24T14:21:07Z</time>
      </trkpt>
      <trkpt lat="42.987400" lon="-4.348867">
        <ele>2968.0</ele>
        <time>2017-05-24T14:21:08Z</time>
      </trkpt>
      <trkpt lat="42.987267" lon="-4.348850">
        <ele>2968.0</ele>
        <time>2017-05-24T14:21:09Z</time>
      </trkpt>
      <trkpt lat="42.987117" lon="-4.348817">
        <ele>2968.0</ele>
        <time>2017-05-24T14:21:10Z</time>
      </trkpt>
      <trkpt lat="42.987000" lon="-4.348783">
        <ele>2970.0</ele>
        <time>2017-05-24T14:21:11Z</time>
      </trkpt>
      <trkpt lat="42.986883" lon="-4.348750">
        <ele>2971.0</ele>
        <time>2017-05-24T14:21:12Z</time>
      </trkpt>
      <trkpt lat="42.986767" lon="-4.348717">
        <ele>2971.0</ele>
        <time>2017-05-24T14:21:13Z</time>
      </trkpt>
      <trkpt lat="42.986650" lon="-4.348700">
        <ele>2970.0</ele>
        <time>2017-05-24T14:21:14Z</time>
      </trkpt>
      <trkpt lat="42.986517" lon="-4.348700">
        <ele>2968.0</ele>
        <time>2017-05-24T14:21:15Z</time>
      </trkpt>
      <trkpt lat="42.986383" lon="-4.348683">
        <ele>2967.0</ele>
        <time>2017-05-24T14:21:16Z</time>
      </trkpt>
      <trkpt lat="42.986250" lon="-4.348667">
        <ele>2969.0</ele>
        <time>2017-05-24T14:21:17Z</time>
      </trkpt>
      <trkpt lat="42.986150" lon="-4.348650">
        <ele>2973.0</ele>
        <time>2017-05-24T14:21:18Z</time>
      </trkpt>
      <trkpt lat="42.986067" lon="-4.348617">
        <ele>2975.0</ele>
        <time>2017-05-24T14:21:19Z</time>
      </trkpt>
      <trkpt lat="42.985967" lon="-4.348600">
        <ele>2974.0</ele>
        <time>2017-05-24T14:21:20Z</time>
      </trkpt>
      <trkpt lat="42.985850" lon="-4.348600">
        <ele>2973.0</ele>
        <time>2017-05-24T14:21:21Z</time>
      </trkpt>
      <trkpt lat="42.985733" lon="-4.348567">
        <ele>2971.0</ele>
        <time>2017-05-24T14:21:22Z</time>
      </trkpt>
      <trkpt lat="42.985600" lon="-4.348550">
        <ele>2972.0</ele>
        <time>2017-05-24T14:21:23Z</time>
      </trkpt>
      <trkpt lat="42.985467" lon="-4.348533">
        <ele>2975.0</ele>
        <time>2017-05-24T14:21:24Z</time>
      </trkpt>
      <trkpt lat="42.985367" lon="-4.348533">
        <ele>2978.0</ele>
        <time>2017-05-24T14:21:25Z</time>
      </trkpt>
      <trkpt lat="42.985283" lon="-4.348533">
        <ele>2979.0</ele>
        <time>2017-05-24T14:21:26Z</time>
      </trkpt>
      <trkpt lat="42.985183" lon="-4.348533">
        <ele>2979.0</ele>
        <time>2017-05-24T14:21:27Z</time>
      </trkpt>
      <trkpt lat="42.985083" lon="-4.348533">
        <ele>2978.0</ele>
        <time>2017-05-24T14:21:28Z</time>
      </trkpt>
      <trkpt lat="42.984967" lon="-4.348533">
        <ele>2977.0</ele>
        <time>2017-05-24T14:21:29Z</time>
      </trkpt>
      <trkpt lat="42.984850" lon="-4.348533">
        <ele>2977.0</ele>
        <time>2017-05-24T14:21:30Z</time>
      </trkpt>
      <trkpt lat="42.984750" lon="-4.348550">
        <ele>2979.0</ele>
        <time>2017-05-24T14:21:31Z</time>
      </trkpt>
      <trkpt lat="42.984650" lon="-4.348567">
        <ele>2980.0</ele>
        <time>2017-05-24T14:21:32Z</time>
      </trkpt>
      <trkpt lat="42.984567" lon="-4.348583">
        <ele>2980.0</ele>
        <time>2017-05-24T14:21:33Z</time>
      </trkpt>
      <trkpt lat="42.984483" lon="-4.348600">
        <ele>2980.0</ele>
        <time>2017-05-24T14:21:34Z</time>
      </trkpt>
      <trkpt lat="42.984383" lon="-4.348617">
        <ele>2979.0</ele>
        <time>2017-05-24T14:21:35Z</time>
      </trkpt>
      <trkpt lat="42.984267" lon="-4.348633">
        <ele>2979.0</ele>
        <time>2017-05-24T14:21:36Z</time>
      </trkpt>
      <trkpt lat="42.984150" lon="-4.348617">
        <ele>2980.0</ele>
        <time>2017-05-24T14:21:37Z</time>
      </trkpt>
      <trkpt lat="42.984050" lon="-4.348617">
        <ele>2982.0</ele>
        <time>2017-05-24T14:21:38Z</time>
      </trkpt>
      <trkpt lat="42.983950" lon="-4.348617">
        <ele>2983.0</ele>
        <time>2017-05-24T14:21:39Z</time>
      </trkpt>
      <trkpt lat="42.983867" lon="-4.348617">
        <ele>2982.0</ele>
        <time>2017-05-24T14:21:40Z</time>
      </trkpt>
      <trkpt lat="42.983767" lon="-4.348617">
        <ele>2981.0</ele>
        <time>2017-05-24T14:21:41Z</time>
      </trkpt>
      <trkpt lat="42.983650" lon="-4.348633">
        <ele>2980.0</ele>
        <time>2017-05-24T14:21:42Z</time>
      </trkpt>
      <trkpt lat="42.983533" lon="-4.348650">
        <ele>2980.0</ele>
        <time>2017-05-24T14:21:43Z</time>
      </trkpt>
      <trkpt lat="42.983433" lon="-4.348667">
        <ele>2981.0</ele>
        <time>2017-05-24T14:21:44Z</time>
      </trkpt>
      <trkpt lat="42.983333" lon="-4.348683">
        <ele>2982.0</ele>
        <time>2017-05-24T14:21:45Z</time>
      </trkpt>
      <trkpt lat="42.983233" lon="-4.348683">
        <ele>2983.0</ele>
        <time>2017-05-24T14:21:46Z</time>
      </trkpt>
      <trkpt lat="42.983133" lon="-4.348683">
        <ele>2984.0</ele>
        <time>2017-05-24T14:21:47Z</time>
      </trkpt>
      <trkpt lat="42.983050" lon="-4.348683">
        <ele>2984.0</ele>
        <time>2017-05-24T14:21:48Z</time>
      </trkpt>
      <trkpt lat="42.982950" lon="-4.348683">
        <ele>2985.0</ele>
        <time>2017-05-24T14:21:49Z</time>
      </trkpt>
      <trkpt lat="42.982850" lon="-4.348683">
        <ele>2985.0</ele>
        <time>2017-05-24T14:21:50Z</time>
      </trkpt>
      <trkpt lat="42.982767" lon="-4.348683">
        <ele>2985.0</ele>
        <time>2017-05-24T14:21:51Z</time>
      </trkpt>
      <trkpt lat="42.982667" lon="-4.348700">
        <ele>2985.0</ele>
        <time>2017-05-24T14:21:52Z</time>
      </trkpt>
      <trkpt lat="42.982567" lon="-4.348717">
        <ele>2985.0</ele>
        <time>2017-05-24T14:21:53Z</time>
      </trkpt>
      <trkpt lat="42.982467" lon="-4.348733">
        <ele>2984.0</ele>
        <time>2017-05-24T14:21:54Z</time>
      </trkpt>
      <trkpt lat="42.982367" lon="-4.348750">
        <ele>2984.0</ele>
        <time>2017-05-24T14:21:55Z</time>
      </trkpt>
      <trkpt lat="42.982267" lon="-4.348767">
        <ele>2984.0</ele>
        <time>2017-05-24T14:21:56Z</time>
      </trkpt>
      <trkpt lat="42.982183" lon="-4.348800">
        <ele>2985.0</ele>
        <time>2017-05-24T14:21:57Z</time>
      </trkpt>
      <trkpt lat="42.982100" lon="-4.348800">
        <ele>2986.0</ele>
        <time>2017-05-24T14:21:58Z</time>
      </trkpt>
      <trkpt lat="42.982017" lon="-4.348800">
        <ele>2987.0</ele>
        <time>2017-05-24T14:21:59Z</time>
      </trkpt>
      <trkpt lat="42.981933" lon="-4.348800">
        <ele>2986.0</ele>
        <time>2017-05-24T14:22:00Z</time>
      </trkpt>
      <trkpt lat="42.981833" lon="-4.348800">
        <ele>2985.0</ele>
        <time>2017-05-24T14:22:01Z</time>
      </trkpt>
      <trkpt lat="42.981733" lon="-4.348800">
        <ele>2985.0</ele>
        <time>2017-05-24T14:22:02Z</time>
      </trkpt>
      <trkpt lat="42.981633" lon="-4.348817">
        <ele>2985.0</ele>
        <time>2017-05-24T14:22:03Z</time>
      </trkpt>
      <trkpt lat="42.981550" lon="-4.348833">
        <ele>2986.0</ele>
        <time>2017-05-24T14:22:04Z</time>
      </trkpt>
      <trkpt lat="42.981450" lon="-4.348850">
        <ele>2987.0</ele>
        <time>2017-05-24T14:22:05Z</time>
      </trkpt>
      <trkpt lat="42.981367" lon="-4.348883">
        <ele>2988.0</ele>
        <time>2017-05-24T14:22:06Z</time>
      </trkpt>
      <trkpt lat="42.981283" lon="-4.348900">
        <ele>2989.0</ele>
        <time>2017-05-24T14:22:07Z</time>
      </trkpt>
      <trkpt lat="42.981200" lon="-4.348933">
        <ele>2989.0</ele>
        <time>2017-05-24T14:22:08Z</time>
      </trkpt>
      <trkpt lat="42.981117" lon="-4.348967">
        <ele>2989.0</ele>
        <time>2017-05-24T14:22:09Z</time>
      </trkpt>
      <trkpt lat="42.981017" lon="-4.349000">
        <ele>2990.0</ele>
        <time>2017-05-24T14:22:10Z</time>
      </trkpt>
      <trkpt lat="42.980933" lon="-4.349050">
        <ele>2991.0</ele>
        <time>2017-05-24T14:22:11Z</time>
      </trkpt>
      <trkpt lat="42.980867" lon="-4.349100">
        <ele>2993.0</ele>
        <time>2017-05-24T14:22:12Z</time>
      </trkpt>
      <trkpt lat="42.980783" lon="-4.349150">
        <ele>2994.0</ele>
        <time>2017-05-24T14:22:13Z</time>
      </trkpt>
      <trkpt lat="42.980717" lon="-4.349183">
        <ele>2994.0</ele>
        <time>2017-05-24T14:22:14Z</time>
      </trkpt>
      <trkpt lat="42.980633" lon="-4.349233">
        <ele>2994.0</ele>
        <time>2017-05-24T14:22:15Z</time>
      </trkpt>
      <trkpt lat="42.980567" lon="-4.349300">
        <ele>2993.0</ele>
        <time>2017-05-24T14:22:16Z</time>
      </trkpt>
      <trkpt lat="42.980483" lon="-4.349367">
        <ele>2992.0</ele>
        <time>2017-05-24T14:22:17Z</time>
      </trkpt>
      <trkpt lat="42.980400" lon="-4.349450">
        <ele>2992.0</ele>
        <time>2017-05-24T14:22:18Z</time>
      </trkpt>
      <trkpt lat="42.980317" lon="-4.349550">
        <ele>2993.0</ele>
        <time>2017-05-24T14:22:19Z</time>
      </trkpt>
      <trkpt lat="42.980233" lon="-4.349633">
        <ele>2994.0</ele>
        <time>2017-05-24T14:22:20Z</time>
      </trkpt>
      <trkpt lat="42.980167" lon="-4.349717">
        <ele>2995.0</ele>
        <time>2017-05-24T14:22:21Z</time>
      </trkpt>
      <trkpt lat="42.980083" lon="-4.349817">
        <ele>2996.0</ele>
        <time>2017-05-24T14:22:22Z</time>
      </trkpt>
      <trkpt lat="42.980050" lon="-4.349917">
        <ele>2998.0</ele>
        <time>2017-05-24T14:22:23Z</time>
      </trkpt>
      <trkpt lat="42.980017" lon="-4.350017">
        <ele>3000.0</ele>
        <time>2017-05-24T14:22:24Z</time>
      </trkpt>
      <trkpt lat="42.980017" lon="-4.350117">
        <ele>3002.0</ele>
        <time>2017-05-24T14:22:25Z</time>
      </trkpt>
      <trkpt lat="42.980017" lon="-4.350217">
        <ele>3003.0</ele>
        <time>2017-05-24T14:22:26Z</time>
      </trkpt>
      <trkpt lat="42.980033" lon="-4.350300">
        <ele>3004.0</ele>
        <time>2017-05-24T14:22:27Z</time>
      </trkpt>
      <trkpt lat="42.980050" lon="-4.350400">
        <ele>3004.0</ele>
        <time>2017-05-24T14:22:28Z</time>
      </trkpt>
      <trkpt lat="42.980100" lon="-4.350483">
        <ele>3003.0</ele>
        <time>2017-05-24T14:22:29Z</time>
      </trkpt>
      <trkpt lat="42.980150" lon="-4.350550">
        <ele>3002.0</ele>
        <time>2017-05-24T14:22:30Z</time>
      </trkpt>
      <trkpt lat="42.980217" lon="-4.350583">
        <ele>3000.0</ele>
        <time>2017-05-24T14:22:31Z</time>
      </trkpt>
      <trkpt lat="42.980300" lon="-4.350600">
        <ele>2998.0</ele>
        <time>2017-05-24T14:22:32Z</time>
      </trkpt>
      <trkpt lat="42.980383" lon="-4.350617">
        <ele>2996.0</ele>
        <time>2017-05-24T14:22:33Z</time>
      </trkpt>
      <trkpt lat="42.980483" lon="-4.350633">
        <ele>2994.0</ele>
        <time>2017-05-24T14:22:34Z</time>
      </trkpt>
      <trkpt lat="42.980567" lon="-4.350650">
        <ele>2994.0</ele>
        <time>2017-05-24T14:22:35Z</time>
      </trkpt>
      <trkpt lat="42.980667" lon="-4.350700">
        <ele>2993.0</ele>
        <time>2017-05-24T14:22:36Z</time>
      </trkpt>
      <trkpt lat="42.980767" lon="-4.350750">
        <ele>2994.0</ele>
        <time>2017-05-24T14:22:37Z</time>
      </trkpt>
      <trkpt lat="42.980850" lon="-4.350783">
        <ele>2995.0</ele>
        <time>2017-05-24T14:22:38Z</time>
      </trkpt>
      <trkpt lat="42.980950" lon="-4.350817">
        <ele>2996.0</ele>
        <time>2017-05-24T14:22:39Z</time>
      </trkpt>
      <trkpt lat="42.981050" lon="-4.350867">
        <ele>2996.0</ele>
        <time>2017-05-24T14:22:40Z</time>
      </trkpt>
      <trkpt lat="42.981133" lon="-4.350933">
        <ele>2996.0</ele>
        <time>2017-05-24T14:22:41Z</time>
      </trkpt>
      <trkpt lat="42.981233" lon="-4.351017">
        <ele>2997.0</ele>
        <time>2017-05-24T14:22:42Z</time>
      </trkpt>
      <trkpt lat="42.981317" lon="-4.351083">
        <ele>2999.0</ele>
        <time>2017-05-24T14:22:43Z</time>
      </trkpt>
      <trkpt lat="42.981383" lon="-4.351167">
        <ele>3002.0</ele>
        <time>2017-05-24T14:22:44Z</time>
      </trkpt>
      <trkpt lat="42.981433" lon="-4.351233">
        <ele>3005.0</ele>
        <time>2017-05-24T14:22:45Z</time>
      </trkpt>
      <trkpt lat="42.981483" lon="-4.351300">
        <ele>3010.0</ele>
        <time>2017-05-24T14:22:46Z</time>
      </trkpt>
      <trkpt lat="42.981517" lon="-4.351350">
        <ele>3013.0</ele>
        <time>2017-05-24T14:22:47Z</time>
      </trkpt>
      <trkpt lat="42.981533" lon="-4.351400">
        <ele>3015.0</ele>
        <time>2017-05-24T14:22:48Z</time>
      </trkpt>
      <trkpt lat="42.981567" lon="-4.351450">
        <ele>3016.0</ele>
        <time>2017-05-24T14:22:49Z</time>
      </trkpt>
      <trkpt lat="42.981583" lon="-4.351533">
        <ele>3016.0</ele>
        <time>2017-05-24T14:22:50Z</time>
      </trkpt>
      <trkpt lat="42.981600" lon="-4.351650">
        <ele>3017.0</ele>
        <time>2017-05-24T14:22:51Z</time>
      </trkpt>
      <trkpt lat="42.981567" lon="-4.351733">
        <ele>3019.0</ele>
        <time>2017-05-24T14:22:52Z</time>
      </trkpt>
      <trkpt lat="42.981517" lon="-4.351800">
        <ele>3022.0</ele>
        <time>2017-05-24T14:22:53Z</time>
      </trkpt>
      <trkpt lat="42.981433" lon="-4.351800">
        <ele>3023.0</ele>
        <time>2017-05-24T14:22:54Z</time>
      </trkpt>
      <trkpt lat="42.981350" lon="-4.351733">
        <ele>3026.0</ele>
        <time>2017-05-24T14:22:55Z</time>
      </trkpt>
      <trkpt lat="42.981300" lon="-4.351633">
        <ele>3028.0</ele>
        <time>2017-05-24T14:22:56Z</time>
      </trkpt>
      <trkpt lat="42.981250" lon="-4.351517">
        <ele>3031.0</ele>
        <time>2017-05-24T14:22:57Z</time>
      </trkpt>
      <trkpt lat="42.981267" lon="-4.351367">
        <ele>3034.0</ele>
        <time>2017-05-24T14:22:58Z</time>
      </trkpt>
      <trkpt lat="42.981300" lon="-4.351250">
        <ele>3035.0</ele>
        <time>2017-05-24T14:22:59Z</time>
      </trkpt>
      <trkpt lat="42.981383" lon="-4.351183">
        <ele>3037.0</ele>
        <time>2017-05-24T14:23:00Z</time>
      </trkpt>
      <trkpt lat="42.981483" lon="-4.351167">
        <ele>3039.0</ele>
        <time>2017-05-24T14:23:01Z</time>
      </trkpt>
      <trkpt lat="42.981567" lon="-4.351200">
        <ele>3041.0</ele>
        <time>2017-05-24T14:23:02Z</time>
      </trkpt>
      <trkpt lat="42.981633" lon="-4.351250">
        <ele>3045.0</ele>
        <time>2017-05-24T14:23:03Z</time>
      </trkpt>
      <trkpt lat="42.981683" lon="-4.351317">
        <ele>3048.0</ele>
        <time>2017-05-24T14:23:04Z</time>
      </trkpt>
      <trkpt lat="42.981717" lon="-4.351383">
        <ele>3050.0</ele>
        <time>2017-05-24T14:23:05Z</time>
      </trkpt>
      <trkpt lat="42.981733" lon="-4.351450">
        <ele>3052.0</ele>
        <time>2017-05-24T14:23:06Z</time>
      </trkpt>
      <trkpt lat="42.981767" lon="-4.351500">
        <ele>3055.0</ele>
        <time>2017-05-24T14:23:07Z</time>
      </trkpt>
      <trkpt lat="42.981783" lon="-4.351567">
        <ele>3057.0</ele>
        <time>2017-05-24T14:23:08Z</time>
      </trkpt>
      <trkpt lat="42.981783" lon="-4.351650">
        <ele>3059.0</ele>
        <time>2017-05-24T14:23:09Z</time>
      </trkpt>
      <trkpt lat="42.981750" lon="-4.351717">
        <ele>3060.0</ele>
        <time>2017-05-24T14:23:10Z</time>
      </trkpt>
      <trkpt lat="42.981700" lon="-4.351783">
        <ele>3061.0</ele>
        <time>2017-05-24T14:23:11Z</time>
      </trkpt>
      <trkpt lat="42.981633" lon="-4.351833">
        <ele>3063.0</ele>
        <time>2017-05-24T14:23:12Z</time>
      </trkpt>
      <trkpt lat="42.981550" lon="-4.351817">
        <ele>3066.0</ele>
        <time>2017-05-24T14:23:13Z</time>
      </trkpt>
      <trkpt lat="42.981483" lon="-4.351750">
        <ele>3068.0</ele>
        <time>2017-05-24T14:23:14Z</time>
      </trkpt>
      <trkpt lat="42.981433" lon="-4.351650">
        <ele>3071.0</ele>
        <time>2017-05-24T14:23:15Z</time>
      </trkpt>
      <trkpt lat="42.981417" lon="-4.351517">
        <ele>3073.0</ele>
        <time>2017-05-24T14:23:16Z</time>
      </trkpt>
      <trkpt lat="42.981417" lon="-4.351400">
        <ele>3076.0</ele>
        <time>2017-05-24T14:23:17Z</time>
      </trkpt>
      <trkpt lat="42.981450" lon="-4.351267">
        <ele>3079.0</ele>
        <time>2017-05-24T14:23:18Z</time>
      </trkpt>
      <trkpt lat="42.981500" lon="-4.351183">
        <ele>3083.0</ele>
        <time>2017-05-24T14:23:19Z</time>
      </trkpt>
      <trkpt lat="42.981567" lon="-4.351117">
        <ele>3085.0</ele>
        <time>2017-05-24T14:23:20Z</time>
      </trkpt>
      <trkpt lat="42.981633" lon="-4.351100">
        <ele>3088.0</ele>
        <time>2017-05-24T14:23:21Z</time>
      </trkpt>
      <trkpt lat="42.981717" lon="-4.351100">
        <ele>3089.0</ele>
        <time>2017-05-24T14:23:22Z</time>
      </trkpt>
      <trkpt lat="42.981783" lon="-4.351133">
        <ele>3091.0</ele>
        <time>2017-05-24T14:23:23Z</time>
      </trkpt>
      <trkpt lat="42.981850" lon="-4.351183">
        <ele>3092.0</ele>
        <time>2017-05-24T14:23:24Z</time>
      </trkpt>
      <trkpt lat="42.981883" lon="-4.351250">
        <ele>3095.0</ele>
        <time>2017-05-24T14:23:25Z</time>
      </trkpt>
      <trkpt lat="42.981900" lon="-4.351350">
        <ele>3098.0</ele>
        <time>2017-05-24T14:23:26Z</time>
      </trkpt>
      <trkpt lat="42.981883" lon="-4.351433">
        <ele>3100.0</ele>
        <time>2017-05-24T14:23:27Z</time>
      </trkpt>
      <trkpt lat="42.981867" lon="-4.351517">
        <ele>3103.0</ele>
        <time>2017-05-24T14:23:28Z</time>
      </trkpt>
      <trkpt lat="42.981833" lon="-4.351600">
        <ele>3106.0</ele>
        <time>2017-05-24T14:23:29Z</time>
      </trkpt>
      <trkpt lat="42.981817" lon="-4.351667">
        <ele>3108.0</ele>
        <time>2017-05-24T14:23:30Z</time>
      </trkpt>
      <trkpt lat="42.981767" lon="-4.351733">
        <ele>3111.0</ele>
        <time>2017-05-24T14:23:31Z</time>
      </trkpt>
      <trkpt lat="42.981717" lon="-4.351783">
        <ele>3110.0</ele>
        <time>2017-05-24T14:23:32Z</time>
      </trkpt>
      <trkpt lat="42.981633" lon="-4.351817">
        <ele>3110.0</ele>
        <time>2017-05-24T14:23:33Z</time>
      </trkpt>
      <trkpt lat="42.981550" lon="-4.351817">
        <ele>3111.0</ele>
        <time>2017-05-24T14:23:34Z</time>
      </trkpt>
      <trkpt lat="42.981467" lon="-4.351800">
        <ele>3112.0</ele>
        <time>2017-05-24T14:23:35Z</time>
      </trkpt>
      <trkpt lat="42.981400" lon="-4.351750">
        <ele>3113.0</ele>
        <time>2017-05-24T14:23:36Z</time>
      </trkpt>
      <trkpt lat="42.981333" lon="-4.351683">
        <ele>3113.0</ele>
        <time>2017-05-24T14:23:37Z</time>
      </trkpt>
      <trkpt lat="42.981283" lon="-4.351600">
        <ele>3113.0</ele>
        <time>2017-05-24T14:23:38Z</time>
      </trkpt>
      <trkpt lat="42.981233" lon="-4.351483">
        <ele>3113.0</ele>
        <time>2017-05-24T14:23:39Z</time>
      </trkpt>
      <trkpt lat="42.981200" lon="-4.351367">
        <ele>3113.0</ele>
        <time>2017-05-24T14:23:40Z</time>
      </trkpt>
      <trkpt lat="42.981183" lon="-4.351217">
        <ele>3113.0</ele>
        <time>2017-05-24T14:23:41Z</time>
      </trkpt>
      <trkpt lat="42.981233" lon="-4.351067">
        <ele>3114.0</ele>
        <time>2017-05-24T14:23:42Z</time>
      </trkpt>
      <trkpt lat="42.981300" lon="-4.350933">
        <ele>3115.0</ele>
        <time>2017-05-24T14:23:43Z</time>
      </trkpt>
      <trkpt lat="42.981367" lon="-4.350833">
        <ele>3119.0</ele>
        <time>2017-05-24T14:23:44Z</time>
      </trkpt>
      <trkpt lat="42.981433" lon="-4.350750">
        <ele>3123.0</ele>
        <time>2017-05-24T14:23:45Z</time>
      </trkpt>
      <trkpt lat="42.981483" lon="-4.350683">
        <ele>3126.0</ele>
        <time>2017-05-24T14:23:46Z</time>
      </trkpt>
      <trkpt lat="42.981550" lon="-4.350633">
        <ele>3128.0</ele>
        <time>2017-05-24T14:23:47Z</time>
      </trkpt>
      <trkpt lat="42.981650" lon="-4.350583">
        <ele>3129.0</ele>
        <time>2017-05-24T14:23:48Z</time>
      </trkpt>
      <trkpt lat="42.981750" lon="-4.350567">
        <ele>3131.0</ele>
        <time>2017-05-24T14:23:49Z</time>
      </trkpt>
      <trkpt lat="42.981833" lon="-4.350583">
        <ele>3133.0</ele>
        <time>2017-05-24T14:23:50Z</time>
      </trkpt>
      <trkpt lat="42.981900" lon="-4.350650">
        <ele>3136.0</ele>
        <time>2017-05-24T14:23:51Z</time>
      </trkpt>
      <trkpt lat="42.981950" lon="-4.350717">
        <ele>3141.0</ele>
        <time>2017-05-24T14:23:52Z</time>
      </trkpt>
      <trkpt lat="42.981967" lon="-4.350767">
        <ele>3145.0</ele>
        <time>2017-05-24T14:23:53Z</time>
      </trkpt>
      <trkpt lat="42.981967" lon="-4.350833">
        <ele>3148.0</ele>
        <time>2017-05-24T14:23:54Z</time>
      </trkpt>
      <trkpt lat="42.981950" lon="-4.350900">
        <ele>3151.0</ele>
        <time>2017-05-24T14:23:55Z</time>
      </trkpt>
      <trkpt lat="42.981933" lon="-4.350967">
        <ele>3153.0</ele>
        <time>2017-05-24T14:23:56Z</time>
      </trkpt>
      <trkpt lat="42.981917" lon="-4.351033">
        <ele>3154.0</ele>
        <time>2017-05-24T14:23:57Z</time>
      </trkpt>
      <trkpt lat="42.981867" lon="-4.351100">
        <ele>3156.0</ele>
        <time>2017-05-24T14:23:58Z</time>
      </trkpt>
      <trkpt lat="42.981817" lon="-4.351150">
        <ele>3157.0</ele>
        <time>2017-05-24T14:23:59Z</time>
      </trkpt>
      <trkpt lat="42.981750" lon="-4.351167">
        <ele>3159.0</ele>
        <time>2017-05-24T14:24:00Z</time>
      </trkpt>
      <trkpt lat="42.981683" lon="-4.351150">
        <ele>3160.0</ele>
        <time>2017-05-24T14:24:01Z</time>
      </trkpt>
      <trkpt lat="42.981617" lon="-4.351133">
        <ele>3160.0</ele>
        <time>2017-05-24T14:24:02Z</time>
      </trkpt>
      <trkpt lat="42.981550" lon="-4.351083">
        <ele>3161.0</ele>
        <time>2017-05-24T14:24:03Z</time>
      </trkpt>
      <trkpt lat="42.981483" lon="-4.351050">
        <ele>3161.0</ele>
        <time>2017-05-24T14:24:04Z</time>
      </trkpt>
      <trkpt lat="42.981417" lon="-4.351017">
        <ele>3161.0</ele>
        <time>2017-05-24T14:24:05Z</time>
      </trkpt>
      <trkpt lat="42.981350" lon="-4.350950">
        <ele>3161.0</ele>
        <time>2017-05-24T14:24:06Z</time>
      </trkpt>
      <trkpt lat="42.981283" lon="-4.350867">
        <ele>3161.0</ele>
        <time>2017-05-24T14:24:07Z</time>
      </trkpt>
      <trkpt lat="42.981233" lon="-4.350750">
        <ele>3162.0</ele>
        <time>2017-05-24T14:24:08Z</time>
      </trkpt>
      <trkpt lat="42.981217" lon="-4.350633">
        <ele>3162.0</ele>
        <time>2017-05-24T14:24:09Z</time>
      </trkpt>
      <trkpt lat="42.981200" lon="-4.350483">
        <ele>3163.0</ele>
        <time>2017-05-24T14:24:10Z</time>
      </trkpt>
      <trkpt lat="42.981233" lon="-4.350350">
        <ele>3164.0</ele>
        <time>2017-05-24T14:24:11Z</time>
      </trkpt>
      <trkpt lat="42.981300" lon="-4.350217">
        <ele>3164.0</ele>
        <time>2017-05-24T14:24:12Z</time>
      </trkpt>
      <trkpt lat="42.981367" lon="-4.350117">
        <ele>3165.0</ele>
        <time>2017-05-24T14:24:13Z</time>
      </trkpt>
      <trkpt lat="42.981467" lon="-4.350067">
        <ele>3167.0</ele>
        <time>2017-05-24T14:24:14Z</time>
      </trkpt>
      <trkpt lat="42.981583" lon="-4.350050">
        <ele>3169.0</ele>
        <time>2017-05-24T14:24:15Z</time>
      </trkpt>
      <trkpt lat="42.981667" lon="-4.350067">
        <ele>3171.0</ele>
        <time>2017-05-24T14:24:16Z</time>
      </trkpt>
      <trkpt lat="42.981700" lon="-4.350133">
        <ele>3174.0</ele>
        <time>2017-05-24T14:24:17Z</time>
      </trkpt>
      <trkpt lat="42.981717" lon="-4.350200">
        <ele>3176.0</ele>
        <time>2017-05-24T14:24:18Z</time>
      </trkpt>
      <trkpt lat="42.981700" lon="-4.350283">
        <ele>3177.0</ele>
        <time>2017-05-24T14:24:19Z</time>
      </trkpt>
      <trkpt lat="42.981667" lon="-4.350333">
        <ele>3179.0</ele>
        <time>2017-05-24T14:24:20Z</time>
      </trkpt>
      <trkpt lat="42.981633" lon="-4.350400">
        <ele>3181.0</ele>
        <time>2017-05-24T14:24:21Z</time>
      </trkpt>
      <trkpt lat="42.981617" lon="-4.350450">
        <ele>3182.0</ele>
        <time>2017-05-24T14:24:22Z</time>
      </trkpt>
      <trkpt lat="42.981583" lon="-4.350500">
        <ele>3183.0</ele>
        <time>2017-05-24T14:24:23Z</time>
      </trkpt>
      <trkpt lat="42.981550" lon="-4.350550">
        <ele>3183.0</ele>
        <time>2017-05-24T14:24:24Z</time>
      </trkpt>
      <trkpt lat="42.981500" lon="-4.350617">
        <ele>3182.0</ele>
        <time>2017-05-24T14:24:25Z</time>
      </trkpt>
      <trkpt lat="42.981433" lon="-4.350667">
        <ele>3183.0</ele>
        <time>2017-05-24T14:24:26Z</time>
      </trkpt>
      <trkpt lat="42.981367" lon="-4.350733">
        <ele>3184.0</ele>
        <time>2017-05-24T14:24:27Z</time>
      </trkpt>
      <trkpt lat="42.981300" lon="-4.350783">
        <ele>3185.0</ele>
        <time>2017-05-24T14:24:28Z</time>
      </trkpt>
      <trkpt lat="42.981233" lon="-4.350850">
        <ele>3186.0</ele>
        <time>2017-05-24T14:24:29Z</time>
      </trkpt>
      <trkpt lat="42.981167" lon="-4.350900">
        <ele>3186.0</ele>
        <time>2017-05-24T14:24:30Z</time>
      </trkpt>
      <trkpt lat="42.981117" lon="-4.350967">
        <ele>3187.0</ele>
        <time>2017-05-24T14:24:31Z</time>
      </trkpt>
      <trkpt lat="42.981050" lon="-4.351017">
        <ele>3188.0</ele>
        <time>2017-05-24T14:24:32Z</time>
      </trkpt>
      <trkpt lat="42.980983" lon="-4.351067">
        <ele>3189.0</ele>
        <time>2017-05-24T14:24:33Z</time>
      </trkpt>
      <trkpt lat="42.980917" lon="-4.351100">
        <ele>3190.0</ele>
        <time>2017-05-24T14:24:34Z</time>
      </trkpt>
      <trkpt lat="42.980867" lon="-4.351150">
        <ele>3191.0</ele>
        <time>2017-05-24T14:24:35Z</time>
      </trkpt>
      <trkpt lat="42.980800" lon="-4.351183">
        <ele>3193.0</ele>
        <time>2017-05-24T14:24:36Z</time>
      </trkpt>
      <trkpt lat="42.980767" lon="-4.351200">
        <ele>3194.0</ele>
        <time>2017-05-24T14:24:37Z</time>
      </trkpt>
      <trkpt lat="42.980700" lon="-4.351217">
        <ele>3194.0</ele>
        <time>2017-05-24T14:24:38Z</time>
      </trkpt>
      <trkpt lat="42.980650" lon="-4.351233">
        <ele>3194.0</ele>
        <time>2017-05-24T14:24:39Z</time>
      </trkpt>
      <trkpt lat="42.980583" lon="-4.351250">
        <ele>3194.0</ele>
        <time>2017-05-24T14:24:40Z</time>
      </trkpt>
      <trkpt lat="42.980517" lon="-4.351283">
        <ele>3195.0</ele>
        <time>2017-05-24T14:24:41Z</time>
      </trkpt>
      <trkpt lat="42.980450" lon="-4.351317">
        <ele>3196.0</ele>
        <time>2017-05-24T14:24:42Z</time>
      </trkpt>
      <trkpt lat="42.980400" lon="-4.351333">
        <ele>3197.0</ele>
        <time>2017-05-24T14:24:43Z</time>
      </trkpt>
      <trkpt lat="42.980333" lon="-4.351383">
        <ele>3198.0</ele>
        <time>2017-05-24T14:24:44Z</time>
      </trkpt>
      <trkpt lat="42.980267" lon="-4.351417">
        <ele>3200.0</ele>
        <time>2017-05-24T14:24:45Z</time>
      </trkpt>
      <trkpt lat="42.980217" lon="-4.351467">
        <ele>3201.0</ele>
        <time>2017-05-24T14:24:46Z</time>
      </trkpt>
      <trkpt lat="42.980183" lon="-4.351500">
        <ele>3203.0</ele>
        <time>2017-05-24T14:24:47Z</time>
      </trkpt>
      <trkpt lat="42.980150" lon="-4.351550">
        <ele>3203.0</ele>
        <time>2017-05-24T14:24:48Z</time>
      </trkpt>
      <trkpt lat="42.980133" lon="-4.351600">
        <ele>3203.0</ele>
        <time>2017-05-24T14:24:49Z</time>
      </trkpt>
      <trkpt lat="42.980100" lon="-4.351650">
        <ele>3202.0</ele>
        <time>2017-05-24T14:24:50Z</time>
      </trkpt>
      <trkpt lat="42.980083" lon="-4.351717">
        <ele>3202.0</ele>
        <time>2017-05-24T14:24:51Z</time>
      </trkpt>
      <trkpt lat="42.980050" lon="-4.351800">
        <ele>3201.0</ele>
        <time>2017-05-24T14:24:52Z</time>
      </trkpt>
      <trkpt lat="42.980017" lon="-4.351867">
        <ele>3201.0</ele>
        <time>2017-05-24T14:24:53Z</time>
      </trkpt>
      <trkpt lat="42.979983" lon="-4.351933">
        <ele>3200.0</ele>
        <time>2017-05-24T14:24:54Z</time>
      </trkpt>
      <trkpt lat="42.979950" lon="-4.352017">
        <ele>3199.0</ele>
        <time>2017-05-24T14:24:55Z</time>
      </trkpt>
      <trkpt lat="42.979900" lon="-4.352083">
        <ele>3197.0</ele>
        <time>2017-05-24T14:24:56Z</time>
      </trkpt>
      <trkpt lat="42.979850" lon="-4.352167">
        <ele>3195.0</ele>
        <time>2017-05-24T14:24:57Z</time>
      </trkpt>
      <trkpt lat="42.979783" lon="-4.352267">
        <ele>3192.0</ele>
        <time>2017-05-24T14:24:58Z</time>
      </trkpt>
      <trkpt lat="42.979700" lon="-4.352333">
        <ele>3189.0</ele>
        <time>2017-05-24T14:24:59Z</time>
      </trkpt>
      <trkpt lat="42.979633" lon="-4.352400">
        <ele>3187.0</ele>
        <time>2017-05-24T14:25:00Z</time>
      </trkpt>
      <trkpt lat="42.979550" lon="-4.352467">
        <ele>3184.0</ele>
        <time>2017-05-24T14:25:01Z</time>
      </trkpt>
      <trkpt lat="42.979467" lon="-4.352517">
        <ele>3181.0</ele>
        <time>2017-05-24T14:25:02Z</time>
      </trkpt>
      <trkpt lat="42.979350" lon="-4.352533">
        <ele>3177.0</ele>
        <time>2017-05-24T14:25:03Z</time>
      </trkpt>
      <trkpt lat="42.979217" lon="-4.352533">
        <ele>3173.0</ele>
        <time>2017-05-24T14:25:04Z</time>
      </trkpt>
      <trkpt lat="42.979100" lon="-4.352533">
        <ele>3171.0</ele>
        <time>2017-05-24T14:25:05Z</time>
      </trkpt>
      <trkpt lat="42.978967" lon="-4.352517">
        <ele>3170.0</ele>
        <time>2017-05-24T14:25:06Z</time>
      </trkpt>
      <trkpt lat="42.978867" lon="-4.352500">
        <ele>3169.0</ele>
        <time>2017-05-24T14:25:07Z</time>
      </trkpt>
      <trkpt lat="42.978767" lon="-4.352483">
        <ele>3167.0</ele>
        <time>2017-05-24T14:25:08Z</time>
      </trkpt>
      <trkpt lat="42.978650" lon="-4.352450">
        <ele>3165.0</ele>
        <time>2017-05-24T14:25:09Z</time>
      </trkpt>
      <trkpt lat="42.978533" lon="-4.352417">
        <ele>3162.0</ele>
        <time>2017-05-24T14:25:10Z</time>
      </trkpt>
      <trkpt lat="42.978417" lon="-4.352400">
        <ele>3159.0</ele>
        <time>2017-05-24T14:25:11Z</time>
      </trkpt>
      <trkpt lat="42.978300" lon="-4.352367">
        <ele>3157.0</ele>
        <time>2017-05-24T14:25:12Z</time>
      </trkpt>
      <trkpt lat="42.978183" lon="-4.352317">
        <ele>3155.0</ele>
        <time>2017-05-24T14:25:13Z</time>
      </trkpt>
      <trkpt lat="42.978083" lon="-4.352267">
        <ele>3155.0</ele>
        <time>2017-05-24T14:25:14Z</time>
      </trkpt>
      <trkpt lat="42.977983" lon="-4.352200">
        <ele>3154.0</ele>
        <time>2017-05-24T14:25:15Z</time>
      </trkpt>
      <trkpt lat="42.977883" lon="-4.352133">
        <ele>3152.0</ele>
        <time>2017-05-24T14:25:16Z</time>
      </trkpt>
      <trkpt lat="42.977783" lon="-4.352050">
        <ele>3151.0</ele>
        <time>2017-05-24T14:25:17Z</time>
      </trkpt>
      <trkpt lat="42.977683" lon="-4.351983">
        <ele>3150.0</ele>
        <time>2017-05-24T14:25:18Z</time>
      </trkpt>
      <trkpt lat="42.977567" lon="-4.351900">
        <ele>3150.0</ele>
        <time>2017-05-24T14:25:19Z</time>
      </trkpt>
      <trkpt lat="42.977483" lon="-4.351833">
        <ele>3150.0</ele>
        <time>2017-05-24T14:25:20Z</time>
      </trkpt>
      <trkpt lat="42.977383" lon="-4.351783">
        <ele>3151.0</ele>
        <time>2017-05-24T14:25:21Z</time>
      </trkpt>
      <trkpt lat="42.977283" lon="-4.351717">
        <ele>3150.0</ele>
        <time>2017-05-24T14:25:22Z</time>
      </trkpt>
      <trkpt lat="42.977183" lon="-4.351650">
        <ele>3150.0</ele>
        <time>2017-05-24T14:25:23Z</time>
      </trkpt>
      <trkpt lat="42.977083" lon="-4.351583">
        <ele>3149.0</ele>
        <time>2017-05-24T14:25:24Z</time>
      </trkpt>
      <trkpt lat="42.976967" lon="-4.351533">
        <ele>3148.0</ele>
        <time>2017-05-24T14:25:25Z</time>
      </trkpt>
      <trkpt lat="42.976867" lon="-4.351467">
        <ele>3148.0</ele>
        <time>2017-05-24T14:25:26Z</time>
      </trkpt>
      <trkpt lat="42.976783" lon="-4.351400">
        <ele>3149.0</ele>
        <time>2017-05-24T14:25:27Z</time>
      </trkpt>
      <trkpt lat="42.976700" lon="-4.351350">
        <ele>3151.0</ele>
        <time>2017-05-24T14:25:28Z</time>
      </trkpt>
      <trkpt lat="42.976617" lon="-4.351283">
        <ele>3151.0</ele>
        <time>2017-05-24T14:25:29Z</time>
      </trkpt>
      <trkpt lat="42.976533" lon="-4.351250">
        <ele>3150.0</ele>
        <time>2017-05-24T14:25:30Z</time>
      </trkpt>
      <trkpt lat="42.976433" lon="-4.351183">
        <ele>3149.0</ele>
        <time>2017-05-24T14:25:31Z</time>
      </trkpt>
      <trkpt lat="42.976333" lon="-4.351117">
        <ele>3148.0</ele>
        <time>2017-05-24T14:25:32Z</time>
      </trkpt>
      <trkpt lat="42.976233" lon="-4.351067">
        <ele>3147.0</ele>
        <time>2017-05-24T14:25:33Z</time>
      </trkpt>
      <trkpt lat="42.976117" lon="-4.351000">
        <ele>3148.0</ele>
        <time>2017-05-24T14:25:34Z</time>
      </trkpt>
      <trkpt lat="42.976033" lon="-4.350950">
        <ele>3150.0</ele>
        <time>2017-05-24T14:25:35Z</time>
      </trkpt>
      <trkpt lat="42.975950" lon="-4.350900">
        <ele>3151.0</ele>
        <time>2017-05-24T14:25:36Z</time>
      </trkpt>
      <trkpt lat="42.975867" lon="-4.350833">
        <ele>3151.0</ele>
        <time>2017-05-24T14:25:37Z</time>
      </trkpt>
      <trkpt lat="42.975767" lon="-4.350767">
        <ele>3150.0</ele>
        <time>2017-05-24T14:25:38Z</time>
      </trkpt>
      <trkpt lat="42.975667" lon="-4.350700">
        <ele>3149.0</ele>
        <time>2017-05-24T14:25:39Z</time>
      </trkpt>
      <trkpt lat="42.975550" lon="-4.350633">
        <ele>3150.0</ele>
        <time>2017-05-24T14:25:40Z</time>
      </trkpt>
      <trkpt lat="42.975467" lon="-4.350567">
        <ele>3151.0</ele>
        <time>2017-05-24T14:25:41Z</time>
      </trkpt>
      <trkpt lat="42.975383" lon="-4.350500">
        <ele>3152.0</ele>
        <time>2017-05-24T14:25:42Z</time>
      </trkpt>
      <trkpt lat="42.975283" lon="-4.350433">
        <ele>3151.0</ele>
        <time>2017-05-24T14:25:43Z</time>
      </trkpt>
      <trkpt lat="42.975200" lon="-4.350350">
        <ele>3151.0</ele>
        <time>2017-05-24T14:25:44Z</time>
      </trkpt>
      <trkpt lat="42.975117" lon="-4.350267">
        <ele>3151.0</ele>
        <time>2017-05-24T14:25:45Z</time>
      </trkpt>
      <trkpt lat="42.975033" lon="-4.350183">
        <ele>3151.0</ele>
        <time>2017-05-24T14:25:46Z</time>
      </trkpt>
      <trkpt lat="42.974950" lon="-4.350117">
        <ele>3152.0</ele>
        <time>2017-05-24T14:25:47Z</time>
      </trkpt>
      <trkpt lat="42.974867" lon="-4.350050">
        <ele>3152.0</ele>
        <time>2017-05-24T14:25:48Z</time>
      </trkpt>
      <trkpt lat="42.974800" lon="-4.349983">
        <ele>3150.0</ele>
        <time>2017-05-24T14:25:49Z</time>
      </trkpt>
      <trkpt lat="42.974717" lon="-4.349917">
        <ele>3149.0</ele>
        <time>2017-05-24T14:25:50Z</time>
      </trkpt>
      <trkpt lat="42.974617" lon="-4.349833">
        <ele>3148.0</ele>
        <time>2017-05-24T14:25:51Z</time>
      </trkpt>
      <trkpt lat="42.974517" lon="-4.349767">
        <ele>3147.0</ele>
        <time>2017-05-24T14:25:52Z</time>
      </trkpt>
      <trkpt lat="42.974433" lon="-4.349717">
        <ele>3147.0</ele>
        <time>2017-05-24T14:25:53Z</time>
      </trkpt>
      <trkpt lat="42.974350" lon="-4.349650">
        <ele>3146.0</ele>
        <time>2017-05-24T14:25:54Z</time>
      </trkpt>
      <trkpt lat="42.974283" lon="-4.349600">
        <ele>3145.0</ele>
        <time>2017-05-24T14:25:55Z</time>
      </trkpt>
      <trkpt lat="42.974200" lon="-4.349533">
        <ele>3143.0</ele>
        <time>2017-05-24T14:25:56Z</time>
      </trkpt>
      <trkpt lat="42.974100" lon="-4.349450">
        <ele>3141.0</ele>
        <time>2017-05-24T14:25:57Z</time>
      </trkpt>
      <trkpt lat="42.974000" lon="-4.349383">
        <ele>3139.0</ele>
        <time>2017-05-24T14:25:58Z</time>
      </trkpt>
      <trkpt lat="42.973900" lon="-4.349317">
        <ele>3139.0</ele>
        <time>2017-05-24T14:25:59Z</time>
      </trkpt>
      <trkpt lat="42.973817" lon="-4.349250">
        <ele>3139.0</ele>
        <time>2017-05-24T14:26:00Z</time>
      </trkpt>
      <trkpt lat="42.973717" lon="-4.349183">
        <ele>3138.0</ele>
        <time>2017-05-24T14:26:01Z</time>
      </trkpt>
      <trkpt lat="42.973633" lon="-4.349117">
        <ele>3136.0</ele>
        <time>2017-05-24T14:26:02Z</time>
      </trkpt>
      <trkpt lat="42.973533" lon="-4.349050">
        <ele>3134.0</ele>
        <time>2017-05-24T14:26:03Z</time>
      </trkpt>
      <trkpt lat="42.973433" lon="-4.348983">
        <ele>3133.0</ele>
        <time>2017-05-24T14:26:04Z</time>
      </trkpt>
      <trkpt lat="42.973317" lon="-4.348933">
        <ele>3132.0</ele>
        <time>2017-05-24T14:26:05Z</time>
      </trkpt>
      <trkpt lat="42.973217" lon="-4.348867">
        <ele>3131.0</ele>
        <time>2017-05-24T14:26:06Z</time>
      </trkpt>
      <trkpt lat="42.973133" lon="-4.348817">
        <ele>3131.0</ele>
        <time>2017-05-24T14:26:07Z</time>
      </trkpt>
      <trkpt lat="42.973033" lon="-4.348750">
        <ele>3131.0</ele>
        <time>2017-05-24T14:26:08Z</time>
      </trkpt>
      <trkpt lat="42.972950" lon="-4.348683">
        <ele>3129.0</ele>
        <time>2017-05-24T14:26:09Z</time>
      </trkpt>
      <trkpt lat="42.972867" lon="-4.348617">
        <ele>3128.0</ele>
        <time>2017-05-24T14:26:10Z</time>
      </trkpt>
      <trkpt lat="42.972767" lon="-4.348550">
        <ele>3126.0</ele>
        <time>2017-05-24T14:26:11Z</time>
      </trkpt>
      <trkpt lat="42.972667" lon="-4.348467">
        <ele>3125.0</ele>
        <time>2017-05-24T14:26:12Z</time>
      </trkpt>
      <trkpt lat="42.972567" lon="-4.348400">
        <ele>3124.0</ele>
        <time>2017-05-24T14:26:13Z</time>
      </trkpt>
      <trkpt lat="42.972483" lon="-4.348317">
        <ele>3123.0</ele>
        <time>2017-05-24T14:26:14Z</time>
      </trkpt>
      <trkpt lat="42.972400" lon="-4.348250">
        <ele>3122.0</ele>
        <time>2017-05-24T14:26:15Z</time>
      </trkpt>
      <trkpt lat="42.972300" lon="-4.348167">
        <ele>3121.0</ele>
        <time>2017-05-24T14:26:16Z</time>
      </trkpt>
      <trkpt lat="42.972217" lon="-4.348100">
        <ele>3119.0</ele>
        <time>2017-05-24T14:26:17Z</time>
      </trkpt>
      <trkpt lat="42.972117" lon="-4.348033">
        <ele>3118.0</ele>
        <time>2017-05-24T14:26:18Z</time>
      </trkpt>
      <trkpt lat="42.972017" lon="-4.347950">
        <ele>3116.0</ele>
        <time>2017-05-24T14:26:19Z</time>
      </trkpt>
      <trkpt lat="42.971933" lon="-4.347883">
        <ele>3115.0</ele>
        <time>2017-05-24T14:26:20Z</time>
      </trkpt>
      <trkpt lat="42.971833" lon="-4.347817">
        <ele>3113.0</ele>
        <time>2017-05-24T14:26:21Z</time>
      </trkpt>
      <trkpt lat="42.971750" lon="-4.347733">
        <ele>3111.0</ele>
        <time>2017-05-24T14:26:22Z</time>
      </trkpt>
      <trkpt lat="42.971650" lon="-4.347667">
        <ele>3108.0</ele>
        <time>2017-05-24T14:26:23Z</time>
      </trkpt>
      <trkpt lat="42.971550" lon="-4.347567">
        <ele>3106.0</ele>
        <time>2017-05-24T14:26:24Z</time>
      </trkpt>
      <trkpt lat="42.971450" lon="-4.347450">
        <ele>3105.0</ele>
        <time>2017-05-24T14:26:25Z</time>
      </trkpt>
      <trkpt lat="42.971367" lon="-4.347350">
        <ele>3105.0</ele>
        <time>2017-05-24T14:26:26Z</time>
      </trkpt>
      <trkpt lat="42.971267" lon="-4.347267">
        <ele>3106.0</ele>
        <time>2017-05-24T14:26:27Z</time>
      </trkpt>
      <trkpt lat="42.971167" lon="-4.347183">
        <ele>3108.0</ele>
        <time>2017-05-24T14:26:28Z</time>
      </trkpt>
      <trkpt lat="42.971083" lon="-4.347117">
        <ele>3110.0</ele>
        <time>2017-05-24T14:26:29Z</time>
      </trkpt>
      <trkpt lat="42.971000" lon="-4.347033">
        <ele>3111.0</ele>
        <time>2017-05-24T14:26:30Z</time>
      </trkpt>
      <trkpt lat="42.970917" lon="-4.346933">
        <ele>3112.0</ele>
        <time>2017-05-24T14:26:31Z</time>
      </trkpt>
      <trkpt lat="42.970817" lon="-4.346833">
        <ele>3112.0</ele>
        <time>2017-05-24T14:26:32Z</time>
      </trkpt>
      <trkpt lat="42.970717" lon="-4.346733">
        <ele>3114.0</ele>
        <time>2017-05-24T14:26:33Z</time>
      </trkpt>
      <trkpt lat="42.970633" lon="-4.346650">
        <ele>3116.0</ele>
        <time>2017-05-24T14:26:34Z</time>
      </trkpt>
      <trkpt lat="42.970533" lon="-4.346583">
        <ele>3118.0</ele>
        <time>2017-05-24T14:26:35Z</time>
      </trkpt>
      <trkpt lat="42.970467" lon="-4.346533">
        <ele>3119.0</ele>
        <time>2017-05-24T14:26:36Z</time>
      </trkpt>
      <trkpt lat="42.970383" lon="-4.346483">
        <ele>3118.0</ele>
        <time>2017-05-24T14:26:37Z</time>
      </trkpt>
      <trkpt lat="42.970317" lon="-4.346417">
        <ele>3118.0</ele>
        <time>2017-05-24T14:26:38Z</time>
      </trkpt>
      <trkpt lat="42.970233" lon="-4.346367">
        <ele>3117.0</ele>
        <time>2017-05-24T14:26:39Z</time>
      </trkpt>
      <trkpt lat="42.970133" lon="-4.346300">
        <ele>3116.0</ele>
        <time>2017-05-24T14:26:40Z</time>
      </trkpt>
      <trkpt lat="42.970033" lon="-4.346217">
        <ele>3115.0</ele>
        <time>2017-05-24T14:26:41Z</time>
      </trkpt>
      <trkpt lat="42.969933" lon="-4.346150">
        <ele>3114.0</ele>
        <time>2017-05-24T14:26:42Z</time>
      </trkpt>
      <trkpt lat="42.969817" lon="-4.346067">
        <ele>3114.0</ele>
        <time>2017-05-24T14:26:43Z</time>
      </trkpt>
      <trkpt lat="42.969700" lon="-4.345983">
        <ele>3115.0</ele>
        <time>2017-05-24T14:26:44Z</time>
      </trkpt>
      <trkpt lat="42.969600" lon="-4.345883">
        <ele>3118.0</ele>
        <time>2017-05-24T14:26:45Z</time>
      </trkpt>
      <trkpt lat="42.969500" lon="-4.345767">
        <ele>3120.0</ele>
        <time>2017-05-24T14:26:46Z</time>
      </trkpt>
      <trkpt lat="42.969400" lon="-4.345683">
        <ele>3123.0</ele>
        <time>2017-05-24T14:26:47Z</time>
      </trkpt>
      <trkpt lat="42.969317" lon="-4.345617">
        <ele>3126.0</ele>
        <time>2017-05-24T14:26:48Z</time>
      </trkpt>
      <trkpt lat="42.969250" lon="-4.345567">
        <ele>3128.0</ele>
        <time>2017-05-24T14:26:49Z</time>
      </trkpt>
      <trkpt lat="42.969200" lon="-4.345467">
        <ele>3130.0</ele>
        <time>2017-05-24T14:26:50Z</time>
      </trkpt>
      <trkpt lat="42.969133" lon="-4.345367">
        <ele>3131.0</ele>
        <time>2017-05-24T14:26:51Z</time>
      </trkpt>
      <trkpt lat="42.969067" lon="-4.345233">
        <ele>3132.0</ele>
        <time>2017-05-24T14:26:52Z</time>
      </trkpt>
      <trkpt lat="42.969017" lon="-4.345083">
        <ele>3134.0</ele>
        <time>2017-05-24T14:26:53Z</time>
      </trkpt>
      <trkpt lat="42.968983" lon="-4.344933">
        <ele>3136.0</ele>
        <time>2017-05-24T14:26:54Z</time>
      </trkpt>
      <trkpt lat="42.968967" lon="-4.344800">
        <ele>3138.0</ele>
        <time>2017-05-24T14:26:55Z</time>
      </trkpt>
      <trkpt lat="42.968933" lon="-4.344667">
        <ele>3140.0</ele>
        <time>2017-05-24T14:26:56Z</time>
      </trkpt>
      <trkpt lat="42.968917" lon="-4.344517">
        <ele>3141.0</ele>
        <time>2017-05-24T14:26:57Z</time>
      </trkpt>
      <trkpt lat="42.968917" lon="-4.344367">
        <ele>3141.0</ele>
        <time>2017-05-24T14:26:58Z</time>
      </trkpt>
      <trkpt lat="42.968967" lon="-4.344200">
        <ele>3141.0</ele>
        <time>2017-05-24T14:26:59Z</time>
      </trkpt>
      <trkpt lat="42.969033" lon="-4.344067">
        <ele>3143.0</ele>
        <time>2017-05-24T14:27:00Z</time>
      </trkpt>
      <trkpt lat="42.969100" lon="-4.343983">
        <ele>3146.0</ele>
        <time>2017-05-24T14:27:01Z</time>
      </trkpt>
      <trkpt lat="42.969150" lon="-4.343950">
        <ele>3149.0</ele>
        <time>2017-05-24T14:27:02Z</time>
      </trkpt>
      <trkpt lat="42.969200" lon="-4.343933">
        <ele>3152.0</ele>
        <time>2017-05-24T14:27:03Z</time>
      </trkpt>
      <trkpt lat="42.969233" lon="-4.343933">
        <ele>3153.0</ele>
        <time>2017-05-24T14:27:04Z</time>
      </trkpt>
      <trkpt lat="42.969283" lon="-4.343917">
        <ele>3155.0</ele>
        <time>2017-05-24T14:27:05Z</time>
      </trkpt>
      <trkpt lat="42.969317" lon="-4.343933">
        <ele>3156.0</ele>
        <time>2017-05-24T14:27:06Z</time>
      </trkpt>
      <trkpt lat="42.969333" lon="-4.343967">
        <ele>3158.0</ele>
        <time>2017-05-24T14:27:07Z</time>
      </trkpt>
      <trkpt lat="42.969333" lon="-4.344017">
        <ele>3160.0</ele>
        <time>2017-05-24T14:27:08Z</time>
      </trkpt>
      <trkpt lat="42.969300" lon="-4.344050">
        <ele>3161.0</ele>
        <time>2017-05-24T14:27:09Z</time>
      </trkpt>
      <trkpt lat="42.969233" lon="-4.344083">
        <ele>3163.0</ele>
        <time>2017-05-24T14:27:10Z</time>
      </trkpt>
      <trkpt lat="42.969167" lon="-4.344100">
        <ele>3164.0</ele>
        <time>2017-05-24T14:27:11Z</time>
      </trkpt>
      <trkpt lat="42.969083" lon="-4.344117">
        <ele>3166.0</ele>
        <time>2017-05-24T14:27:12Z</time>
      </trkpt>
      <trkpt lat="42.969000" lon="-4.344083">
        <ele>3169.0</ele>
        <time>2017-05-24T14:27:13Z</time>
      </trkpt>
      <trkpt lat="42.968917" lon="-4.344050">
        <ele>3171.0</ele>
        <time>2017-05-24T14:27:14Z</time>
      </trkpt>
      <trkpt lat="42.968833" lon="-4.343983">
        <ele>3173.0</ele>
        <time>2017-05-24T14:27:15Z</time>
      </trkpt>
      <trkpt lat="42.968750" lon="-4.343883">
        <ele>3175.0</ele>
        <time>2017-05-24T14:27:16Z</time>
      </trkpt>
      <trkpt lat="42.968667" lon="-4.343783">
        <ele>3177.0</ele>
        <time>2017-05-24T14:27:17Z</time>
      </trkpt>
      <trkpt lat="42.968617" lon="-4.343683">
        <ele>3179.0</ele>
        <time>2017-05-24T14:27:18Z</time>
      </trkpt>
      <trkpt lat="42.968550" lon="-4.343567">
        <ele>3181.0</ele>
        <time>2017-05-24T14:27:19Z</time>
      </trkpt>
      <trkpt lat="42.968483" lon="-4.343433">
        <ele>3183.0</ele>
        <time>2017-05-24T14:27:20Z</time>
      </trkpt>
      <trkpt lat="42.968433" lon="-4.343267">
        <ele>3184.0</ele>
        <time>2017-05-24T14:27:21Z</time>
      </trkpt>
      <trkpt lat="42.968417" lon="-4.343100">
        <ele>3186.0</ele>
        <time>2017-05-24T14:27:22Z</time>
      </trkpt>
      <trkpt lat="42.968450" lon="-4.342933">
        <ele>3188.0</ele>
        <time>2017-05-24T14:27:23Z</time>
      </trkpt>
      <trkpt lat="42.968500" lon="-4.342800">
        <ele>3189.0</ele>
        <time>2017-05-24T14:27:24Z</time>
      </trkpt>
      <trkpt lat="42.968567" lon="-4.342700">
        <ele>3190.0</ele>
        <time>2017-05-24T14:27:25Z</time>
      </trkpt>
      <trkpt lat="42.968633" lon="-4.342633">
        <ele>3192.0</ele>
        <time>2017-05-24T14:27:26Z</time>
      </trkpt>
      <trkpt lat="42.968700" lon="-4.342600">
        <ele>3195.0</ele>
        <time>2017-05-24T14:27:27Z</time>
      </trkpt>
      <trkpt lat="42.968767" lon="-4.342600">
        <ele>3197.0</ele>
        <time>2017-05-24T14:27:28Z</time>
      </trkpt>
      <trkpt lat="42.968817" lon="-4.342600">
        <ele>3198.0</ele>
        <time>2017-05-24T14:27:29Z</time>
      </trkpt>
      <trkpt lat="42.968850" lon="-4.342617">
        <ele>3201.0</ele>
        <time>2017-05-24T14:27:30Z</time>
      </trkpt>
      <trkpt lat="42.968883" lon="-4.342633">
        <ele>3203.0</ele>
        <time>2017-05-24T14:27:31Z</time>
      </trkpt>
      <trkpt lat="42.968900" lon="-4.342650">
        <ele>3205.0</ele>
        <time>2017-05-24T14:27:32Z</time>
      </trkpt>
      <trkpt lat="42.968917" lon="-4.342700">
        <ele>3207.0</ele>
        <time>2017-05-24T14:27:33Z</time>
      </trkpt>
      <trkpt lat="42.968917" lon="-4.342733">
        <ele>3208.0</ele>
        <time>2017-05-24T14:27:34Z</time>
      </trkpt>
      <trkpt lat="42.968883" lon="-4.342783">
        <ele>3209.0</ele>
        <time>2017-05-24T14:27:35Z</time>
      </trkpt>
      <trkpt lat="42.968867" lon="-4.342833">
        <ele>3211.0</ele>
        <time>2017-05-24T14:27:36Z</time>
      </trkpt>
      <trkpt lat="42.968817" lon="-4.342867">
        <ele>3212.0</ele>
        <time>2017-05-24T14:27:37Z</time>
      </trkpt>
      <trkpt lat="42.968750" lon="-4.342900">
        <ele>3213.0</ele>
        <time>2017-05-24T14:27:38Z</time>
      </trkpt>
      <trkpt lat="42.968667" lon="-4.342933">
        <ele>3214.0</ele>
        <time>2017-05-24T14:27:39Z</time>
      </trkpt>
      <trkpt lat="42.968600" lon="-4.342917">
        <ele>3215.0</ele>
        <time>2017-05-24T14:27:40Z</time>
      </trkpt>
      <trkpt lat="42.968500" lon="-4.342900">
        <ele>3217.0</ele>
        <time>2017-05-24T14:27:41Z</time>
      </trkpt>
      <trkpt lat="42.968417" lon="-4.342867">
        <ele>3218.0</ele>
        <time>2017-05-24T14:27:42Z</time>
      </trkpt>
      <trkpt lat="42.968317" lon="-4.342833">
        <ele>3219.0</ele>
        <time>2017-05-24T14:27:43Z</time>
      </trkpt>
      <trkpt lat="42.968217" lon="-4.342800">
        <ele>3220.0</ele>
        <time>2017-05-24T14:27:44Z</time>
      </trkpt>
      <trkpt lat="42.968117" lon="-4.342733">
        <ele>3221.0</ele>
        <time>2017-05-24T14:27:45Z</time>
      </trkpt>
      <trkpt lat="42.968000" lon="-4.342683">
        <ele>3223.0</ele>
        <time>2017-05-24T14:27:46Z</time>
      </trkpt>
      <trkpt lat="42.967900" lon="-4.342617">
        <ele>3225.0</ele>
        <time>2017-05-24T14:27:47Z</time>
      </trkpt>
      <trkpt lat="42.967800" lon="-4.342550">
        <ele>3227.0</ele>
        <time>2017-05-24T14:27:48Z</time>
      </trkpt>
      <trkpt lat="42.967700" lon="-4.342483">
        <ele>3228.0</ele>
        <time>2017-05-24T14:27:49Z</time>
      </trkpt>
      <trkpt lat="42.967600" lon="-4.342417">
        <ele>3230.0</ele>
        <time>2017-05-24T14:27:50Z</time>
      </trkpt>
      <trkpt lat="42.967500" lon="-4.342350">
        <ele>3231.0</ele>
        <time>2017-05-24T14:27:51Z</time>
      </trkpt>
      <trkpt lat="42.967417" lon="-4.342267">
        <ele>3232.0</ele>
        <time>2017-05-24T14:27:52Z</time>
      </trkpt>
      <trkpt lat="42.967317" lon="-4.342167">
        <ele>3233.0</ele>
        <time>2017-05-24T14:27:53Z</time>
      </trkpt>
      <trkpt lat="42.967233" lon="-4.342033">
        <ele>3234.0</ele>
        <time>2017-05-24T14:27:54Z</time>
      </trkpt>
      <trkpt lat="42.967150" lon="-4.341917">
        <ele>3234.0</ele>
        <time>2017-05-24T14:27:55Z</time>
      </trkpt>
      <trkpt lat="42.967083" lon="-4.341800">
        <ele>3235.0</ele>
        <time>2017-05-24T14:27:56Z</time>
      </trkpt>
      <trkpt lat="42.966983" lon="-4.341683">
        <ele>3236.0</ele>
        <time>2017-05-24T14:27:57Z</time>
      </trkpt>
      <trkpt lat="42.966917" lon="-4.341533">
        <ele>3237.0</ele>
        <time>2017-05-24T14:27:58Z</time>
      </trkpt>
      <trkpt lat="42.966850" lon="-4.341400">
        <ele>3238.0</ele>
        <time>2017-05-24T14:27:59Z</time>
      </trkpt>
      <trkpt lat="42.966767" lon="-4.341267">
        <ele>3238.0</ele>
        <time>2017-05-24T14:28:00Z</time>
      </trkpt>
      <trkpt lat="42.966700" lon="-4.341150">
        <ele>3238.0</ele>
        <time>2017-05-24T14:28:01Z</time>
      </trkpt>
      <trkpt lat="42.966617" lon="-4.341017">
        <ele>3238.0</ele>
        <time>2017-05-24T14:28:02Z</time>
      </trkpt>
      <trkpt lat="42.966550" lon="-4.340883">
        <ele>3237.0</ele>
        <time>2017-05-24T14:28:03Z</time>
      </trkpt>
      <trkpt lat="42.966500" lon="-4.340733">
        <ele>3236.0</ele>
        <time>2017-05-24T14:28:04Z</time>
      </trkpt>
      <trkpt lat="42.966450" lon="-4.340550">
        <ele>3235.0</ele>
        <time>2017-05-24T14:28:05Z</time>
      </trkpt>
      <trkpt lat="42.966417" lon="-4.340383">
        <ele>3235.0</ele>
        <time>2017-05-24T14:28:06Z</time>
      </trkpt>
      <trkpt lat="42.966400" lon="-4.340217">
        <ele>3234.0</ele>
        <time>2017-05-24T14:28:07Z</time>
      </trkpt>
      <trkpt lat="42.966400" lon="-4.340083">
        <ele>3234.0</ele>
        <time>2017-05-24T14:28:08Z</time>
      </trkpt>
      <trkpt lat="42.966417" lon="-4.339950">
        <ele>3232.0</ele>
        <time>2017-05-24T14:28:09Z</time>
      </trkpt>
      <trkpt lat="42.966450" lon="-4.339833">
        <ele>3230.0</ele>
        <time>2017-05-24T14:28:10Z</time>
      </trkpt>
      <trkpt lat="42.966517" lon="-4.339750">
        <ele>3227.0</ele>
        <time>2017-05-24T14:28:11Z</time>
      </trkpt>
      <trkpt lat="42.966600" lon="-4.339683">
        <ele>3226.0</ele>
        <time>2017-05-24T14:28:12Z</time>
      </trkpt>
      <trkpt lat="42.966667" lon="-4.339617">
        <ele>3224.0</ele>
        <time>2017-05-24T14:28:13Z</time>
      </trkpt>
      <trkpt lat="42.966750" lon="-4.339550">
        <ele>3223.0</ele>
        <time>2017-05-24T14:28:14Z</time>
      </trkpt>
      <trkpt lat="42.966817" lon="-4.339483">
        <ele>3222.0</ele>
        <time>2017-05-24T14:28:15Z</time>
      </trkpt>
      <trkpt lat="42.966883" lon="-4.339417">
        <ele>3221.0</ele>
        <time>2017-05-24T14:28:16Z</time>
      </trkpt>
      <trkpt lat="42.966950" lon="-4.339333">
        <ele>3220.0</ele>
        <time>2017-05-24T14:28:17Z</time>
      </trkpt>
      <trkpt lat="42.967033" lon="-4.339250">
        <ele>3220.0</ele>
        <time>2017-05-24T14:28:18Z</time>
      </trkpt>
      <trkpt lat="42.967100" lon="-4.339167">
        <ele>3219.0</ele>
        <time>2017-05-24T14:28:19Z</time>
      </trkpt>
      <trkpt lat="42.967183" lon="-4.339067">
        <ele>3219.0</ele>
        <time>2017-05-24T14:28:20Z</time>
      </trkpt>
      <trkpt lat="42.967250" lon="-4.338983">
        <ele>3218.0</ele>
        <time>2017-05-24T14:28:21Z</time>
      </trkpt>
      <trkpt lat="42.967333" lon="-4.338900">
        <ele>3217.0</ele>
        <time>2017-05-24T14:28:22Z</time>
      </trkpt>
      <trkpt lat="42.967433" lon="-4.338817">
        <ele>3216.0</ele>
        <time>2017-05-24T14:28:23Z</time>
      </trkpt>
      <trkpt lat="42.967517" lon="-4.338750">
        <ele>3216.0</ele>
        <time>2017-05-24T14:28:24Z</time>
      </trkpt>
      <trkpt lat="42.967617" lon="-4.338683">
        <ele>3215.0</ele>
        <time>2017-05-24T14:28:25Z</time>
      </trkpt>
      <trkpt lat="42.967700" lon="-4.338633">
        <ele>3215.0</ele>
        <time>2017-05-24T14:28:26Z</time>
      </trkpt>
      <trkpt lat="42.967783" lon="-4.338600">
        <ele>3214.0</ele>
        <time>2017-05-24T14:28:27Z</time>
      </trkpt>
      <trkpt lat="42.967867" lon="-4.338583">
        <ele>3213.0</ele>
        <time>2017-05-24T14:28:28Z</time>
      </trkpt>
      <trkpt lat="42.967933" lon="-4.338583">
        <ele>3212.0</ele>
        <time>2017-05-24T14:28:29Z</time>
      </trkpt>
      <trkpt lat="42.968017" lon="-4.338600">
        <ele>3210.0</ele>
        <time>2017-05-24T14:28:30Z</time>
      </trkpt>
      <trkpt lat="42.968100" lon="-4.338617">
        <ele>3209.0</ele>
        <time>2017-05-24T14:28:31Z</time>
      </trkpt>
      <trkpt lat="42.968167" lon="-4.338650">
        <ele>3209.0</ele>
        <time>2017-05-24T14:28:32Z</time>
      </trkpt>
      <trkpt lat="42.968233" lon="-4.338683">
        <ele>3210.0</ele>
        <time>2017-05-24T14:28:33Z</time>
      </trkpt>
      <trkpt lat="42.968283" lon="-4.338683">
        <ele>3211.0</ele>
        <time>2017-05-24T14:28:34Z</time>
      </trkpt>
      <trkpt lat="42.968333" lon="-4.338683">
        <ele>3212.0</ele>
        <time>2017-05-24T14:28:35Z</time>
      </trkpt>
      <trkpt lat="42.968367" lon="-4.338700">
        <ele>3210.0</ele>
        <time>2017-05-24T14:28:36Z</time>
      </trkpt>
      <trkpt lat="42.968417" lon="-4.338733">
        <ele>3209.0</ele>
        <time>2017-05-24T14:28:37Z</time>
      </trkpt>
      <trkpt lat="42.968450" lon="-4.338783">
        <ele>3208.0</ele>
        <time>2017-05-24T14:28:38Z</time>
      </trkpt>
      <trkpt lat="42.968467" lon="-4.338850">
        <ele>3206.0</ele>
        <time>2017-05-24T14:28:39Z</time>
      </trkpt>
      <trkpt lat="42.968500" lon="-4.338900">
        <ele>3205.0</ele>
        <time>2017-05-24T14:28:40Z</time>
      </trkpt>
      <trkpt lat="42.968517" lon="-4.338967">
        <ele>3203.0</ele>
        <time>2017-05-24T14:28:41Z</time>
      </trkpt>
      <trkpt lat="42.968533" lon="-4.339050">
        <ele>3202.0</ele>
        <time>2017-05-24T14:28:42Z</time>
      </trkpt>
      <trkpt lat="42.968533" lon="-4.339117">
        <ele>3201.0</ele>
        <time>2017-05-24T14:28:43Z</time>
      </trkpt>
      <trkpt lat="42.968533" lon="-4.339183">
        <ele>3201.0</ele>
        <time>2017-05-24T14:28:44Z</time>
      </trkpt>
      <trkpt lat="42.968517" lon="-4.339250">
        <ele>3200.0</ele>
        <time>2017-05-24T14:28:45Z</time>
      </trkpt>
      <trkpt lat="42.968500" lon="-4.339317">
        <ele>3199.0</ele>
        <time>2017-05-24T14:28:46Z</time>
      </trkpt>
      <trkpt lat="42.968483" lon="-4.339400">
        <ele>3198.0</ele>
        <time>2017-05-24T14:28:47Z</time>
      </trkpt>
      <trkpt lat="42.968483" lon="-4.339500">
        <ele>3197.0</ele>
        <time>2017-05-24T14:28:48Z</time>
      </trkpt>
      <trkpt lat="42.968467" lon="-4.339600">
        <ele>3196.0</ele>
        <time>2017-05-24T14:28:49Z</time>
      </trkpt>
      <trkpt lat="42.968433" lon="-4.339683">
        <ele>3196.0</ele>
        <time>2017-05-24T14:28:50Z</time>
      </trkpt>
      <trkpt lat="42.968417" lon="-4.339750">
        <ele>3197.0</ele>
        <time>2017-05-24T14:28:51Z</time>
      </trkpt>
      <trkpt lat="42.968400" lon="-4.339800">
        <ele>3198.0</ele>
        <time>2017-05-24T14:28:52Z</time>
      </trkpt>
      <trkpt lat="42.968383" lon="-4.339850">
        <ele>3196.0</ele>
        <time>2017-05-24T14:28:53Z</time>
      </trkpt>
      <trkpt lat="42.968383" lon="-4.339933">
        <ele>3194.0</ele>
        <time>2017-05-24T14:28:54Z</time>
      </trkpt>
      <trkpt lat="42.968383" lon="-4.340000">
        <ele>3192.0</ele>
        <time>2017-05-24T14:28:55Z</time>
      </trkpt>
      <trkpt lat="42.968417" lon="-4.340067">
        <ele>3191.0</ele>
        <time>2017-05-24T14:28:56Z</time>
      </trkpt>
      <trkpt lat="42.968450" lon="-4.340083">
        <ele>3191.0</ele>
        <time>2017-05-24T14:28:57Z</time>
      </trkpt>
      <trkpt lat="42.968483" lon="-4.340083">
        <ele>3191.0</ele>
        <time>2017-05-24T14:28:58Z</time>
      </trkpt>
      <trkpt lat="42.968517" lon="-4.340050">
        <ele>3189.0</ele>
        <time>2017-05-24T14:28:59Z</time>
      </trkpt>
      <trkpt lat="42.968550" lon="-4.340050">
        <ele>3187.0</ele>
        <time>2017-05-24T14:29:00Z</time>
      </trkpt>
      <trkpt lat="42.968600" lon="-4.340083">
        <ele>3184.0</ele>
        <time>2017-05-24T14:29:01Z</time>
      </trkpt>
      <trkpt lat="42.968650" lon="-4.340133">
        <ele>3182.0</ele>
        <time>2017-05-24T14:29:02Z</time>
      </trkpt>
      <trkpt lat="42.968700" lon="-4.340167">
        <ele>3183.0</ele>
        <time>2017-05-24T14:29:03Z</time>
      </trkpt>
      <trkpt lat="42.968750" lon="-4.340183">
        <ele>3185.0</ele>
        <time>2017-05-24T14:29:04Z</time>
      </trkpt>
      <trkpt lat="42.968800" lon="-4.340183">
        <ele>3185.0</ele>
        <time>2017-05-24T14:29:05Z</time>
      </trkpt>
      <trkpt lat="42.968850" lon="-4.340200">
        <ele>3186.0</ele>
        <time>2017-05-24T14:29:06Z</time>
      </trkpt>
      <trkpt lat="42.968867" lon="-4.340217">
        <ele>3185.0</ele>
        <time>2017-05-24T14:29:07Z</time>
      </trkpt>
      <trkpt lat="42.968883" lon="-4.340250">
        <ele>3184.0</ele>
        <time>2017-05-24T14:29:08Z</time>
      </trkpt>
      <trkpt lat="42.968867" lon="-4.340300">
        <ele>3183.0</ele>
        <time>2017-05-24T14:29:09Z</time>
      </trkpt>
      <trkpt lat="42.968850" lon="-4.340350">
        <ele>3183.0</ele>
        <time>2017-05-24T14:29:10Z</time>
      </trkpt>
      <trkpt lat="42.968817" lon="-4.340400">
        <ele>3182.0</ele>
        <time>2017-05-24T14:29:11Z</time>
      </trkpt>
      <trkpt lat="42.968783" lon="-4.340450">
        <ele>3182.0</ele>
        <time>2017-05-24T14:29:12Z</time>
      </trkpt>
      <trkpt lat="42.968750" lon="-4.340517">
        <ele>3182.0</ele>
        <time>2017-05-24T14:29:13Z</time>
      </trkpt>
      <trkpt lat="42.968717" lon="-4.340583">
        <ele>3183.0</ele>
        <time>2017-05-24T14:29:14Z</time>
      </trkpt>
      <trkpt lat="42.968700" lon="-4.340633">
        <ele>3184.0</ele>
        <time>2017-05-24T14:29:15Z</time>
      </trkpt>
      <trkpt lat="42.968683" lon="-4.340667">
        <ele>3185.0</ele>
        <time>2017-05-24T14:29:16Z</time>
      </trkpt>
      <trkpt lat="42.968667" lon="-4.340700">
        <ele>3186.0</ele>
        <time>2017-05-24T14:29:17Z</time>
      </trkpt>
      <trkpt lat="42.968650" lon="-4.340733">
        <ele>3186.0</ele>
        <time>2017-05-24T14:29:18Z</time>
      </trkpt>
      <trkpt lat="42.968600" lon="-4.340783">
        <ele>3185.0</ele>
        <time>2017-05-24T14:29:19Z</time>
      </trkpt>
      <trkpt lat="42.968567" lon="-4.340817">
        <ele>3184.0</ele>
        <time>2017-05-24T14:29:20Z</time>
      </trkpt>
      <trkpt lat="42.968517" lon="-4.340850">
        <ele>3183.0</ele>
        <time>2017-05-24T14:29:21Z</time>
      </trkpt>
      <trkpt lat="42.968467" lon="-4.340883">
        <ele>3182.0</ele>
        <time>2017-05-24T14:29:22Z</time>
      </trkpt>
      <trkpt lat="42.968400" lon="-4.340900">
        <ele>3182.0</ele>
        <time>2017-05-24T14:29:23Z</time>
      </trkpt>
      <trkpt lat="42.968350" lon="-4.340917">
        <ele>3181.0</ele>
        <time>2017-05-24T14:29:24Z</time>
      </trkpt>
      <trkpt lat="42.968283" lon="-4.340900">
        <ele>3180.0</ele>
        <time>2017-05-24T14:29:25Z</time>
      </trkpt>
      <trkpt lat="42.968233" lon="-4.340883">
        <ele>3180.0</ele>
        <time>2017-05-24T14:29:26Z</time>
      </trkpt>
      <trkpt lat="42.968167" lon="-4.340867">
        <ele>3178.0</ele>
        <time>2017-05-24T14:29:27Z</time>
      </trkpt>
      <trkpt lat="42.968100" lon="-4.340817">
        <ele>3176.0</ele>
        <time>2017-05-24T14:29:28Z</time>
      </trkpt>
      <trkpt lat="42.968033" lon="-4.340767">
        <ele>3175.0</ele>
        <time>2017-05-24T14:29:29Z</time>
      </trkpt>
      <trkpt lat="42.967950" lon="-4.340700">
        <ele>3173.0</ele>
        <time>2017-05-24T14:29:30Z</time>
      </trkpt>
      <trkpt lat="42.967883" lon="-4.340650">
        <ele>3173.0</ele>
        <time>2017-05-24T14:29:31Z</time>
      </trkpt>
      <trkpt lat="42.967817" lon="-4.340600">
        <ele>3172.0</ele>
        <time>2017-05-24T14:29:32Z</time>
      </trkpt>
      <trkpt lat="42.967750" lon="-4.340550">
        <ele>3170.0</ele>
        <time>2017-05-24T14:29:33Z</time>
      </trkpt>
      <trkpt lat="42.967683" lon="-4.340517">
        <ele>3168.0</ele>
        <time>2017-05-24T14:29:34Z</time>
      </trkpt>
      <trkpt lat="42.967583" lon="-4.340483">
        <ele>3165.0</ele>
        <time>2017-05-24T14:29:35Z</time>
      </trkpt>
      <trkpt lat="42.967500" lon="-4.340450">
        <ele>3164.0</ele>
        <time>2017-05-24T14:29:36Z</time>
      </trkpt>
      <trkpt lat="42.967400" lon="-4.340417">
        <ele>3163.0</ele>
        <time>2017-05-24T14:29:37Z</time>
      </trkpt>
      <trkpt lat="42.967317" lon="-4.340400">
        <ele>3164.0</ele>
        <time>2017-05-24T14:29:38Z</time>
      </trkpt>
      <trkpt lat="42.967233" lon="-4.340367">
        <ele>3164.0</ele>
        <time>2017-05-24T14:29:39Z</time>
      </trkpt>
      <trkpt lat="42.967167" lon="-4.340350">
        <ele>3163.0</ele>
        <time>2017-05-24T14:29:40Z</time>
      </trkpt>
      <trkpt lat="42.967100" lon="-4.340333">
        <ele>3161.0</ele>
        <time>2017-05-24T14:29:41Z</time>
      </trkpt>
      <trkpt lat="42.967050" lon="-4.340317">
        <ele>3159.0</ele>
        <time>2017-05-24T14:29:42Z</time>
      </trkpt>
      <trkpt lat="42.967000" lon="-4.340300">
        <ele>3154.0</ele>
        <time>2017-05-24T14:29:43Z</time>
      </trkpt>
      <trkpt lat="42.966933" lon="-4.340283">
        <ele>3148.0</ele>
        <time>2017-05-24T14:29:44Z</time>
      </trkpt>
      <trkpt lat="42.966867" lon="-4.340283">
        <ele>3142.0</ele>
        <time>2017-05-24T14:29:45Z</time>
      </trkpt>
      <trkpt lat="42.966800" lon="-4.340300">
        <ele>3136.0</ele>
        <time>2017-05-24T14:29:46Z</time>
      </trkpt>
      <trkpt lat="42.966750" lon="-4.340333">
        <ele>3132.0</ele>
        <time>2017-05-24T14:29:47Z</time>
      </trkpt>
      <trkpt lat="42.966717" lon="-4.340400">
        <ele>3128.0</ele>
        <time>2017-05-24T14:29:48Z</time>
      </trkpt>
      <trkpt lat="42.966700" lon="-4.340450">
        <ele>3123.0</ele>
        <time>2017-05-24T14:29:49Z</time>
      </trkpt>
      <trkpt lat="42.966717" lon="-4.340533">
        <ele>3118.0</ele>
        <time>2017-05-24T14:29:50Z</time>
      </trkpt>
      <trkpt lat="42.966750" lon="-4.340600">
        <ele>3114.0</ele>
        <time>2017-05-24T14:29:51Z</time>
      </trkpt>
      <trkpt lat="42.966817" lon="-4.340683">
        <ele>3110.0</ele>
        <time>2017-05-24T14:29:52Z</time>
      </trkpt>
      <trkpt lat="42.966883" lon="-4.340767">
        <ele>3106.0</ele>
        <time>2017-05-24T14:29:53Z</time>
      </trkpt>
      <trkpt lat="42.966967" lon="-4.340833">
        <ele>3103.0</ele>
        <time>2017-05-24T14:29:54Z</time>
      </trkpt>
      <trkpt lat="42.967067" lon="-4.340883">
        <ele>3102.0</ele>
        <time>2017-05-24T14:29:55Z</time>
      </trkpt>
      <trkpt lat="42.967133" lon="-4.340917">
        <ele>3101.0</ele>
        <time>2017-05-24T14:29:56Z</time>
      </trkpt>
      <trkpt lat="42.967217" lon="-4.340950">
        <ele>3101.0</ele>
        <time>2017-05-24T14:29:57Z</time>
      </trkpt>
      <trkpt lat="42.967283" lon="-4.340983">
        <ele>3100.0</ele>
        <time>2017-05-24T14:29:58Z</time>
      </trkpt>
      <trkpt lat="42.967367" lon="-4.341000">
        <ele>3098.0</ele>
        <time>2017-05-24T14:29:59Z</time>
      </trkpt>
      <trkpt lat="42.967450" lon="-4.341033">
        <ele>3095.0</ele>
        <time>2017-05-24T14:30:00Z</time>
      </trkpt>
      <trkpt lat="42.967533" lon="-4.341083">
        <ele>3092.0</ele>
        <time>2017-05-24T14:30:01Z</time>
      </trkpt>
      <trkpt lat="42.967633" lon="-4.341117">
        <ele>3091.0</ele>
        <time>2017-05-24T14:30:02Z</time>
      </trkpt>
      <trkpt lat="42.967733" lon="-4.341150">
        <ele>3090.0</ele>
        <time>2017-05-24T14:30:03Z</time>
      </trkpt>
      <trkpt lat="42.967833" lon="-4.341183">
        <ele>3089.0</ele>
        <time>2017-05-24T14:30:04Z</time>
      </trkpt>
      <trkpt lat="42.967933" lon="-4.341200">
        <ele>3088.0</ele>
        <time>2017-05-24T14:30:05Z</time>
      </trkpt>
      <trkpt lat="42.968033" lon="-4.341217">
        <ele>3085.0</ele>
        <time>2017-05-24T14:30:06Z</time>
      </trkpt>
      <trkpt lat="42.968150" lon="-4.341217">
        <ele>3083.0</ele>
        <time>2017-05-24T14:30:07Z</time>
      </trkpt>
      <trkpt lat="42.968250" lon="-4.341217">
        <ele>3081.0</ele>
        <time>2017-05-24T14:30:08Z</time>
      </trkpt>
      <trkpt lat="42.968367" lon="-4.341200">
        <ele>3080.0</ele>
        <time>2017-05-24T14:30:09Z</time>
      </trkpt>
      <trkpt lat="42.968483" lon="-4.341183">
        <ele>3079.0</ele>
        <time>2017-05-24T14:30:10Z</time>
      </trkpt>
      <trkpt lat="42.968617" lon="-4.341150">
        <ele>3078.0</ele>
        <time>2017-05-24T14:30:11Z</time>
      </trkpt>
      <trkpt lat="42.968733" lon="-4.341083">
        <ele>3077.0</ele>
        <time>2017-05-24T14:30:12Z</time>
      </trkpt>
      <trkpt lat="42.968833" lon="-4.341017">
        <ele>3076.0</ele>
        <time>2017-05-24T14:30:13Z</time>
      </trkpt>
      <trkpt lat="42.968950" lon="-4.340950">
        <ele>3076.0</ele>
        <time>2017-05-24T14:30:14Z</time>
      </trkpt>
      <trkpt lat="42.969067" lon="-4.340883">
        <ele>3075.0</ele>
        <time>2017-05-24T14:30:15Z</time>
      </trkpt>
      <trkpt lat="42.969167" lon="-4.340817">
        <ele>3074.0</ele>
        <time>2017-05-24T14:30:16Z</time>
      </trkpt>
      <trkpt lat="42.969267" lon="-4.340733">
        <ele>3073.0</ele>
        <time>2017-05-24T14:30:17Z</time>
      </trkpt>
      <trkpt lat="42.969367" lon="-4.340650">
        <ele>3072.0</ele>
        <time>2017-05-24T14:30:18Z</time>
      </trkpt>
      <trkpt lat="42.969467" lon="-4.340567">
        <ele>3070.0</ele>
        <time>2017-05-24T14:30:19Z</time>
      </trkpt>
      <trkpt lat="42.969550" lon="-4.340450">
        <ele>3070.0</ele>
        <time>2017-05-24T14:30:20Z</time>
      </trkpt>
      <trkpt lat="42.969617" lon="-4.340333">
        <ele>3069.0</ele>
        <time>2017-05-24T14:30:21Z</time>
      </trkpt>
      <trkpt lat="42.969633" lon="-4.340200">
        <ele>3067.0</ele>
        <time>2017-05-24T14:30:22Z</time>
      </trkpt>
      <trkpt lat="42.969650" lon="-4.340033">
        <ele>3066.0</ele>
        <time>2017-05-24T14:30:23Z</time>
      </trkpt>
      <trkpt lat="42.969667" lon="-4.339883">
        <ele>3065.0</ele>
        <time>2017-05-24T14:30:24Z</time>
      </trkpt>
      <trkpt lat="42.969683" lon="-4.339733">
        <ele>3065.0</ele>
        <time>2017-05-24T14:30:25Z</time>
      </trkpt>
      <trkpt lat="42.969683" lon="-4.339567">
        <ele>3063.0</ele>
        <time>2017-05-24T14:30:26Z</time>
      </trkpt>
      <trkpt lat="42.969667" lon="-4.339400">
        <ele>3060.0</ele>
        <time>2017-05-24T14:30:27Z</time>
      </trkpt>
      <trkpt lat="42.969633" lon="-4.339217">
        <ele>3057.0</ele>
        <time>2017-05-24T14:30:28Z</time>
      </trkpt>
      <trkpt lat="42.969600" lon="-4.339017">
        <ele>3054.0</ele>
        <time>2017-05-24T14:30:29Z</time>
      </trkpt>
      <trkpt lat="42.969567" lon="-4.338817">
        <ele>3054.0</ele>
        <time>2017-05-24T14:30:30Z</time>
      </trkpt>
      <trkpt lat="42.969517" lon="-4.338633">
        <ele>3054.0</ele>
        <time>2017-05-24T14:30:31Z</time>
      </trkpt>
      <trkpt lat="42.969467" lon="-4.338483">
        <ele>3055.0</ele>
        <time>2017-05-24T14:30:32Z</time>
      </trkpt>
      <trkpt lat="42.969400" lon="-4.338350">
        <ele>3056.0</ele>
        <time>2017-05-24T14:30:33Z</time>
      </trkpt>
      <trkpt lat="42.969317" lon="-4.338233">
        <ele>3056.0</ele>
        <time>2017-05-24T14:30:34Z</time>
      </trkpt>
      <trkpt lat="42.969250" lon="-4.338100">
        <ele>3055.0</ele>
        <time>2017-05-24T14:30:35Z</time>
      </trkpt>
      <trkpt lat="42.969167" lon="-4.337983">
        <ele>3055.0</ele>
        <time>2017-05-24T14:30:36Z</time>
      </trkpt>
      <trkpt lat="42.969100" lon="-4.337850">
        <ele>3053.0</ele>
        <time>2017-05-24T14:30:37Z</time>
      </trkpt>
      <trkpt lat="42.969017" lon="-4.337733">
        <ele>3053.0</ele>
        <time>2017-05-24T14:30:38Z</time>
      </trkpt>
      <trkpt lat="42.968950" lon="-4.337617">
        <ele>3052.0</ele>
        <time>2017-05-24T14:30:39Z</time>
      </trkpt>
      <trkpt lat="42.968900" lon="-4.337483">
        <ele>3050.0</ele>
        <time>2017-05-24T14:30:40Z</time>
      </trkpt>
      <trkpt lat="42.968850" lon="-4.337367">
        <ele>3047.0</ele>
        <time>2017-05-24T14:30:41Z</time>
      </trkpt>
      <trkpt lat="42.968800" lon="-4.337250">
        <ele>3044.0</ele>
        <time>2017-05-24T14:30:42Z</time>
      </trkpt>
      <trkpt lat="42.968733" lon="-4.337117">
        <ele>3041.0</ele>
        <time>2017-05-24T14:30:43Z</time>
      </trkpt>
      <trkpt lat="42.968683" lon="-4.336983">
        <ele>3038.0</ele>
        <time>2017-05-24T14:30:44Z</time>
      </trkpt>
      <trkpt lat="42.968633" lon="-4.336817">
        <ele>3035.0</ele>
        <time>2017-05-24T14:30:45Z</time>
      </trkpt>
      <trkpt lat="42.968600" lon="-4.336617">
        <ele>3034.0</ele>
        <time>2017-05-24T14:30:46Z</time>
      </trkpt>
      <trkpt lat="42.968567" lon="-4.336450">
        <ele>3033.0</ele>
        <time>2017-05-24T14:30:47Z</time>
      </trkpt>
      <trkpt lat="42.968533" lon="-4.336283">
        <ele>3034.0</ele>
        <time>2017-05-24T14:30:48Z</time>
      </trkpt>
      <trkpt lat="42.968500" lon="-4.336133">
        <ele>3035.0</ele>
        <time>2017-05-24T14:30:49Z</time>
      </trkpt>
      <trkpt lat="42.968483" lon="-4.336000">
        <ele>3035.0</ele>
        <time>2017-05-24T14:30:50Z</time>
      </trkpt>
      <trkpt lat="42.968450" lon="-4.335833">
        <ele>3033.0</ele>
        <time>2017-05-24T14:30:51Z</time>
      </trkpt>
      <trkpt lat="42.968433" lon="-4.335667">
        <ele>3031.0</ele>
        <time>2017-05-24T14:30:52Z</time>
      </trkpt>
      <trkpt lat="42.968400" lon="-4.335500">
        <ele>3030.0</ele>
        <time>2017-05-24T14:30:53Z</time>
      </trkpt>
      <trkpt lat="42.968383" lon="-4.335317">
        <ele>3029.0</ele>
        <time>2017-05-24T14:30:54Z</time>
      </trkpt>
      <trkpt lat="42.968367" lon="-4.335167">
        <ele>3028.0</ele>
        <time>2017-05-24T14:30:55Z</time>
      </trkpt>
      <trkpt lat="42.968333" lon="-4.335033">
        <ele>3027.0</ele>
        <time>2017-05-24T14:30:56Z</time>
      </trkpt>
      <trkpt lat="42.968300" lon="-4.334883">
        <ele>3026.0</ele>
        <time>2017-05-24T14:30:57Z</time>
      </trkpt>
      <trkpt lat="42.968283" lon="-4.334717">
        <ele>3024.0</ele>
        <time>2017-05-24T14:30:58Z</time>
      </trkpt>
      <trkpt lat="42.968250" lon="-4.334567">
        <ele>3022.0</ele>
        <time>2017-05-24T14:30:59Z</time>
      </trkpt>
      <trkpt lat="42.968217" lon="-4.334400">
        <ele>3022.0</ele>
        <time>2017-05-24T14:31:00Z</time>
      </trkpt>
      <trkpt lat="42.968183" lon="-4.334233">
        <ele>3021.0</ele>
        <time>2017-05-24T14:31:01Z</time>
      </trkpt>
      <trkpt lat="42.968167" lon="-4.334067">
        <ele>3020.0</ele>
        <time>2017-05-24T14:31:02Z</time>
      </trkpt>
      <trkpt lat="42.968133" lon="-4.333900">
        <ele>3019.0</ele>
        <time>2017-05-24T14:31:03Z</time>
      </trkpt>
      <trkpt lat="42.968133" lon="-4.333733">
        <ele>3018.0</ele>
        <time>2017-05-24T14:31:04Z</time>
      </trkpt>
      <trkpt lat="42.968117" lon="-4.333567">
        <ele>3018.0</ele>
        <time>2017-05-24T14:31:05Z</time>
      </trkpt>
      <trkpt lat="42.968100" lon="-4.333417">
        <ele>3017.0</ele>
        <time>2017-05-24T14:31:06Z</time>
      </trkpt>
      <trkpt lat="42.968100" lon="-4.333283">
        <ele>3014.0</ele>
        <time>2017-05-24T14:31:07Z</time>
      </trkpt>
      <trkpt lat="42.968083" lon="-4.333133">
        <ele>3010.0</ele>
        <time>2017-05-24T14:31:08Z</time>
      </trkpt>
      <trkpt lat="42.968050" lon="-4.332950">
        <ele>3006.0</ele>
        <time>2017-05-24T14:31:09Z</time>
      </trkpt>
      <trkpt lat="42.968017" lon="-4.332767">
        <ele>3003.0</ele>
        <time>2017-05-24T14:31:10Z</time>
      </trkpt>
      <trkpt lat="42.967983" lon="-4.332600">
        <ele>3002.0</ele>
        <time>2017-05-24T14:31:11Z</time>
      </trkpt>
      <trkpt lat="42.967950" lon="-4.332433">
        <ele>3001.0</ele>
        <time>2017-05-24T14:31:12Z</time>
      </trkpt>
      <trkpt lat="42.967917" lon="-4.332267">
        <ele>3000.0</ele>
        <time>2017-05-24T14:31:13Z</time>
      </trkpt>
      <trkpt lat="42.967900" lon="-4.332117">
        <ele>2998.0</ele>
        <time>2017-05-24T14:31:14Z</time>
      </trkpt>
      <trkpt lat="42.967883" lon="-4.331950">
        <ele>2996.0</ele>
        <time>2017-05-24T14:31:15Z</time>
      </trkpt>
      <trkpt lat="42.967850" lon="-4.331783">
        <ele>2993.0</ele>
        <time>2017-05-24T14:31:16Z</time>
      </trkpt>
      <trkpt lat="42.967817" lon="-4.331617">
        <ele>2991.0</ele>
        <time>2017-05-24T14:31:17Z</time>
      </trkpt>
      <trkpt lat="42.967783" lon="-4.331467">
        <ele>2989.0</ele>
        <time>2017-05-24T14:31:18Z</time>
      </trkpt>
      <trkpt lat="42.967767" lon="-4.331317">
        <ele>2987.0</ele>
        <time>2017-05-24T14:31:19Z</time>
      </trkpt>
      <trkpt lat="42.967733" lon="-4.331167">
        <ele>2984.0</ele>
        <time>2017-05-24T14:31:20Z</time>
      </trkpt>
      <trkpt lat="42.967717" lon="-4.331017">
        <ele>2980.0</ele>
        <time>2017-05-24T14:31:21Z</time>
      </trkpt>
      <trkpt lat="42.967700" lon="-4.330833">
        <ele>2976.0</ele>
        <time>2017-05-24T14:31:22Z</time>
      </trkpt>
      <trkpt lat="42.967683" lon="-4.330650">
        <ele>2972.0</ele>
        <time>2017-05-24T14:31:23Z</time>
      </trkpt>
      <trkpt lat="42.967650" lon="-4.330467">
        <ele>2970.0</ele>
        <time>2017-05-24T14:31:24Z</time>
      </trkpt>
      <trkpt lat="42.967617" lon="-4.330283">
        <ele>2968.0</ele>
        <time>2017-05-24T14:31:25Z</time>
      </trkpt>
      <trkpt lat="42.967583" lon="-4.330117">
        <ele>2966.0</ele>
        <time>2017-05-24T14:31:26Z</time>
      </trkpt>
      <trkpt lat="42.967533" lon="-4.329950">
        <ele>2964.0</ele>
        <time>2017-05-24T14:31:27Z</time>
      </trkpt>
      <trkpt lat="42.967500" lon="-4.329767">
        <ele>2963.0</ele>
        <time>2017-05-24T14:31:28Z</time>
      </trkpt>
      <trkpt lat="42.967450" lon="-4.329600">
        <ele>2961.0</ele>
        <time>2017-05-24T14:31:29Z</time>
      </trkpt>
      <trkpt lat="42.967400" lon="-4.329433">
        <ele>2959.0</ele>
        <time>2017-05-24T14:31:30Z</time>
      </trkpt>
      <trkpt lat="42.967367" lon="-4.329267">
        <ele>2957.0</ele>
        <time>2017-05-24T14:31:31Z</time>
      </trkpt>
      <trkpt lat="42.967317" lon="-4.329100">
        <ele>2955.0</ele>
        <time>2017-05-24T14:31:32Z</time>
      </trkpt>
      <trkpt lat="42.967267" lon="-4.328933">
        <ele>2953.0</ele>
        <time>2017-05-24T14:31:33Z</time>
      </trkpt>
      <trkpt lat="42.967233" lon="-4.328767">
        <ele>2950.0</ele>
        <time>2017-05-24T14:31:34Z</time>
      </trkpt>
      <trkpt lat="42.967183" lon="-4.328583">
        <ele>2948.0</ele>
        <time>2017-05-24T14:31:35Z</time>
      </trkpt>
      <trkpt lat="42.967150" lon="-4.328400">
        <ele>2945.0</ele>
        <time>2017-05-24T14:31:36Z</time>
      </trkpt>
      <trkpt lat="42.967117" lon="-4.328200">
        <ele>2943.0</ele>
        <time>2017-05-24T14:31:37Z</time>
      </trkpt>
      <trkpt lat="42.967067" lon="-4.328017">
        <ele>2941.0</ele>
        <time>2017-05-24T14:31:38Z</time>
      </trkpt>
      <trkpt lat="42.967033" lon="-4.327833">
        <ele>2939.0</ele>
        <time>2017-05-24T14:31:39Z</time>
      </trkpt>
      <trkpt lat="42.966983" lon="-4.327650">
        <ele>2938.0</ele>
        <time>2017-05-24T14:31:40Z</time>
      </trkpt>
      <trkpt lat="42.966950" lon="-4.327483">
        <ele>2937.0</ele>
        <time>2017-05-24T14:31:41Z</time>
      </trkpt>
      <trkpt lat="42.966900" lon="-4.327300">
        <ele>2934.0</ele>
        <time>2017-05-24T14:31:42Z</time>
      </trkpt>
      <trkpt lat="42.966867" lon="-4.327117">
        <ele>2930.0</ele>
        <time>2017-05-24T14:31:43Z</time>
      </trkpt>
      <trkpt lat="42.966817" lon="-4.326933">
        <ele>2927.0</ele>
        <time>2017-05-24T14:31:44Z</time>
      </trkpt>
      <trkpt lat="42.966767" lon="-4.326717">
        <ele>2925.0</ele>
        <time>2017-05-24T14:31:45Z</time>
      </trkpt>
      <trkpt lat="42.966733" lon="-4.326517">
        <ele>2922.0</ele>
        <time>2017-05-24T14:31:46Z</time>
      </trkpt>
      <trkpt lat="42.966683" lon="-4.326317">
        <ele>2921.0</ele>
        <time>2017-05-24T14:31:47Z</time>
      </trkpt>
      <trkpt lat="42.966650" lon="-4.326117">
        <ele>2919.0</ele>
        <time>2017-05-24T14:31:48Z</time>
      </trkpt>
      <trkpt lat="42.966600" lon="-4.325917">
        <ele>2918.0</ele>
        <time>2017-05-24T14:31:49Z</time>
      </trkpt>
      <trkpt lat="42.966567" lon="-4.325733">
        <ele>2916.0</ele>
        <time>2017-05-24T14:31:50Z</time>
      </trkpt>
      <trkpt lat="42.966533" lon="-4.325533">
        <ele>2915.0</ele>
        <time>2017-05-24T14:31:51Z</time>
      </trkpt>
      <trkpt lat="42.966483" lon="-4.325317">
        <ele>2913.0</ele>
        <time>2017-05-24T14:31:52Z</time>
      </trkpt>
      <trkpt lat="42.966433" lon="-4.325117">
        <ele>2912.0</ele>
        <time>2017-05-24T14:31:53Z</time>
      </trkpt>
      <trkpt lat="42.966383" lon="-4.324933">
        <ele>2912.0</ele>
        <time>2017-05-24T14:31:54Z</time>
      </trkpt>
      <trkpt lat="42.966333" lon="-4.324750">
        <ele>2912.0</ele>
        <time>2017-05-24T14:31:55Z</time>
      </trkpt>
      <trkpt lat="42.966300" lon="-4.324600">
        <ele>2912.0</ele>
        <time>2017-05-24T14:31:56Z</time>
      </trkpt>
      <trkpt lat="42.966250" lon="-4.324417">
        <ele>2910.0</ele>
        <time>2017-05-24T14:31:57Z</time>
      </trkpt>
      <trkpt lat="42.966217" lon="-4.324233">
        <ele>2907.0</ele>
        <time>2017-05-24T14:31:58Z</time>
      </trkpt>
      <trkpt lat="42.966183" lon="-4.324033">
        <ele>2905.0</ele>
        <time>2017-05-24T14:31:59Z</time>
      </trkpt>
      <trkpt lat="42.966150" lon="-4.323817">
        <ele>2904.0</ele>
        <time>2017-05-24T14:32:00Z</time>
      </trkpt>
      <trkpt lat="42.966117" lon="-4.323650">
        <ele>2904.0</ele>
        <time>2017-05-24T14:32:01Z</time>
      </trkpt>
      <trkpt lat="42.966083" lon="-4.323483">
        <ele>2904.0</ele>
        <time>2017-05-24T14:32:02Z</time>
      </trkpt>
      <trkpt lat="42.966067" lon="-4.323317">
        <ele>2902.0</ele>
        <time>2017-05-24T14:32:03Z</time>
      </trkpt>
      <trkpt lat="42.966050" lon="-4.323150">
        <ele>2900.0</ele>
        <time>2017-05-24T14:32:04Z</time>
      </trkpt>
      <trkpt lat="42.966033" lon="-4.322967">
        <ele>2897.0</ele>
        <time>2017-05-24T14:32:05Z</time>
      </trkpt>
      <trkpt lat="42.966000" lon="-4.322767">
        <ele>2895.0</ele>
        <time>2017-05-24T14:32:06Z</time>
      </trkpt>
      <trkpt lat="42.965967" lon="-4.322583">
        <ele>2894.0</ele>
        <time>2017-05-24T14:32:07Z</time>
      </trkpt>
      <trkpt lat="42.965950" lon="-4.322400">
        <ele>2893.0</ele>
        <time>2017-05-24T14:32:08Z</time>
      </trkpt>
      <trkpt lat="42.965933" lon="-4.322217">
        <ele>2893.0</ele>
        <time>2017-05-24T14:32:09Z</time>
      </trkpt>
      <trkpt lat="42.965917" lon="-4.322033">
        <ele>2892.0</ele>
        <time>2017-05-24T14:32:10Z</time>
      </trkpt>
      <trkpt lat="42.965900" lon="-4.321833">
        <ele>2891.0</ele>
        <time>2017-05-24T14:32:11Z</time>
      </trkpt>
      <trkpt lat="42.965900" lon="-4.321650">
        <ele>2890.0</ele>
        <time>2017-05-24T14:32:12Z</time>
      </trkpt>
      <trkpt lat="42.965900" lon="-4.321450">
        <ele>2889.0</ele>
        <time>2017-05-24T14:32:13Z</time>
      </trkpt>
      <trkpt lat="42.965900" lon="-4.321267">
        <ele>2888.0</ele>
        <time>2017-05-24T14:32:14Z</time>
      </trkpt>
      <trkpt lat="42.965900" lon="-4.321083">
        <ele>2887.0</ele>
        <time>2017-05-24T14:32:15Z</time>
      </trkpt>
      <trkpt lat="42.965900" lon="-4.320900">
        <ele>2885.0</ele>
        <time>2017-05-24T14:32:16Z</time>
      </trkpt>
      <trkpt lat="42.965883" lon="-4.320717">
        <ele>2883.0</ele>
        <time>2017-05-24T14:32:17Z</time>
      </trkpt>
      <trkpt lat="42.965867" lon="-4.320517">
        <ele>2881.0</ele>
        <time>2017-05-24T14:32:18Z</time>
      </trkpt>
      <trkpt lat="42.965867" lon="-4.320333">
        <ele>2879.0</ele>
        <time>2017-05-24T14:32:19Z</time>
      </trkpt>
      <trkpt lat="42.965850" lon="-4.320150">
        <ele>2877.0</ele>
        <time>2017-05-24T14:32:20Z</time>
      </trkpt>
      <trkpt lat="42.965850" lon="-4.319950">
        <ele>2875.0</ele>
        <time>2017-05-24T14:32:21Z</time>
      </trkpt>
      <trkpt lat="42.965850" lon="-4.319750">
        <ele>2874.0</ele>
        <time>2017-05-24T14:32:22Z</time>
      </trkpt>
      <trkpt lat="42.965850" lon="-4.319567">
        <ele>2873.0</ele>
        <time>2017-05-24T14:32:23Z</time>
      </trkpt>
      <trkpt lat="42.965850" lon="-4.319367">
        <ele>2874.0</ele>
        <time>2017-05-24T14:32:24Z</time>
      </trkpt>
      <trkpt lat="42.965850" lon="-4.319183">
        <ele>2874.0</ele>
        <time>2017-05-24T14:32:25Z</time>
      </trkpt>
      <trkpt lat="42.965867" lon="-4.319017">
        <ele>2873.0</ele>
        <time>2017-05-24T14:32:26Z</time>
      </trkpt>
      <trkpt lat="42.965867" lon="-4.318833">
        <ele>2872.0</ele>
        <time>2017-05-24T14:32:27Z</time>
      </trkpt>
      <trkpt lat="42.965883" lon="-4.318650">
        <ele>2869.0</ele>
        <time>2017-05-24T14:32:28Z</time>
      </trkpt>
      <trkpt lat="42.965883" lon="-4.318467">
        <ele>2866.0</ele>
        <time>2017-05-24T14:32:29Z</time>
      </trkpt>
      <trkpt lat="42.965883" lon="-4.318250">
        <ele>2863.0</ele>
        <time>2017-05-24T14:32:30Z</time>
      </trkpt>
      <trkpt lat="42.965883" lon="-4.318050">
        <ele>2862.0</ele>
        <time>2017-05-24T14:32:31Z</time>
      </trkpt>
      <trkpt lat="42.965867" lon="-4.317867">
        <ele>2861.0</ele>
        <time>2017-05-24T14:32:32Z</time>
      </trkpt>
      <trkpt lat="42.965867" lon="-4.317683">
        <ele>2860.0</ele>
        <time>2017-05-24T14:32:33Z</time>
      </trkpt>
      <trkpt lat="42.965867" lon="-4.317500">
        <ele>2858.0</ele>
        <time>2017-05-24T14:32:34Z</time>
      </trkpt>
      <trkpt lat="42.965867" lon="-4.317300">
        <ele>2857.0</ele>
        <time>2017-05-24T14:32:35Z</time>
      </trkpt>
      <trkpt lat="42.965883" lon="-4.317117">
        <ele>2855.0</ele>
        <time>2017-05-24T14:32:36Z</time>
      </trkpt>
      <trkpt lat="42.965883" lon="-4.316917">
        <ele>2853.0</ele>
        <time>2017-05-24T14:32:37Z</time>
      </trkpt>
      <trkpt lat="42.965883" lon="-4.316700">
        <ele>2851.0</ele>
        <time>2017-05-24T14:32:38Z</time>
      </trkpt>
      <trkpt lat="42.965883" lon="-4.316483">
        <ele>2850.0</ele>
        <time>2017-05-24T14:32:39Z</time>
      </trkpt>
      <trkpt lat="42.965883" lon="-4.316283">
        <ele>2848.0</ele>
        <time>2017-05-24T14:32:40Z</time>
      </trkpt>
      <trkpt lat="42.965883" lon="-4.316083">
        <ele>2847.0</ele>
        <time>2017-05-24T14:32:41Z</time>
      </trkpt>
      <trkpt lat="42.965883" lon="-4.315883">
        <ele>2846.0</ele>
        <time>2017-05-24T14:32:42Z</time>
      </trkpt>
      <trkpt lat="42.965900" lon="-4.315683">
        <ele>2845.0</ele>
        <time>2017-05-24T14:32:43Z</time>
      </trkpt>
      <trkpt lat="42.965900" lon="-4.315483">
        <ele>2844.0</ele>
        <time>2017-05-24T14:32:44Z</time>
      </trkpt>
      <trkpt lat="42.965917" lon="-4.315300">
        <ele>2842.0</ele>
        <time>2017-05-24T14:32:45Z</time>
      </trkpt>
      <trkpt lat="42.965950" lon="-4.315100">
        <ele>2840.0</ele>
        <time>2017-05-24T14:32:46Z</time>
      </trkpt>
      <trkpt lat="42.965967" lon="-4.314917">
        <ele>2837.0</ele>
        <time>2017-05-24T14:32:47Z</time>
      </trkpt>
      <trkpt lat="42.966000" lon="-4.314717">
        <ele>2835.0</ele>
        <time>2017-05-24T14:32:48Z</time>
      </trkpt>
      <trkpt lat="42.966033" lon="-4.314500">
        <ele>2833.0</ele>
        <time>2017-05-24T14:32:49Z</time>
      </trkpt>
      <trkpt lat="42.966067" lon="-4.314283">
        <ele>2832.0</ele>
        <time>2017-05-24T14:32:50Z</time>
      </trkpt>
      <trkpt lat="42.966083" lon="-4.314083">
        <ele>2832.0</ele>
        <time>2017-05-24T14:32:51Z</time>
      </trkpt>
      <trkpt lat="42.966117" lon="-4.313883">
        <ele>2832.0</ele>
        <time>2017-05-24T14:32:52Z</time>
      </trkpt>
      <trkpt lat="42.966150" lon="-4.313700">
        <ele>2830.0</ele>
        <time>2017-05-24T14:32:53Z</time>
      </trkpt>
      <trkpt lat="42.966183" lon="-4.313517">
        <ele>2828.0</ele>
        <time>2017-05-24T14:32:54Z</time>
      </trkpt>
      <trkpt lat="42.966217" lon="-4.313317">
        <ele>2825.0</ele>
        <time>2017-05-24T14:32:55Z</time>
      </trkpt>
      <trkpt lat="42.966233" lon="-4.313100">
        <ele>2823.0</ele>
        <time>2017-05-24T14:32:56Z</time>
      </trkpt>
      <trkpt lat="42.966250" lon="-4.312883">
        <ele>2822.0</ele>
        <time>2017-05-24T14:32:57Z</time>
      </trkpt>
      <trkpt lat="42.966267" lon="-4.312667">
        <ele>2822.0</ele>
        <time>2017-05-24T14:32:58Z</time>
      </trkpt>
      <trkpt lat="42.966283" lon="-4.312467">
        <ele>2821.0</ele>
        <time>2017-05-24T14:32:59Z</time>
      </trkpt>
      <trkpt lat="42.966317" lon="-4.312283">
        <ele>2820.0</ele>
        <time>2017-05-24T14:33:00Z</time>
      </trkpt>
      <trkpt lat="42.966333" lon="-4.312100">
        <ele>2818.0</ele>
        <time>2017-05-24T14:33:01Z</time>
      </trkpt>
      <trkpt lat="42.966350" lon="-4.311900">
        <ele>2816.0</ele>
        <time>2017-05-24T14:33:02Z</time>
      </trkpt>
      <trkpt lat="42.966367" lon="-4.311683">
        <ele>2814.0</ele>
        <time>2017-05-24T14:33:03Z</time>
      </trkpt>
      <trkpt lat="42.966367" lon="-4.311467">
        <ele>2814.0</ele>
        <time>2017-05-24T14:33:04Z</time>
      </trkpt>
      <trkpt lat="42.966367" lon="-4.311267">
        <ele>2814.0</ele>
        <time>2017-05-24T14:33:05Z</time>
      </trkpt>
      <trkpt lat="42.966383" lon="-4.311083">
        <ele>2814.0</ele>
        <time>2017-05-24T14:33:06Z</time>
      </trkpt>
      <trkpt lat="42.966383" lon="-4.310917">
        <ele>2814.0</ele>
        <time>2017-05-24T14:33:07Z</time>
      </trkpt>
      <trkpt lat="42.966400" lon="-4.310750">
        <ele>2812.0</ele>
        <time>2017-05-24T14:33:08Z</time>
      </trkpt>
      <trkpt lat="42.966400" lon="-4.310567">
        <ele>2809.0</ele>
        <time>2017-05-24T14:33:09Z</time>
      </trkpt>
      <trkpt lat="42.966400" lon="-4.310350">
        <ele>2807.0</ele>
        <time>2017-05-24T14:33:10Z</time>
      </trkpt>
      <trkpt lat="42.966400" lon="-4.310150">
        <ele>2805.0</ele>
        <time>2017-05-24T14:33:11Z</time>
      </trkpt>
      <trkpt lat="42.966400" lon="-4.309950">
        <ele>2805.0</ele>
        <time>2017-05-24T14:33:12Z</time>
      </trkpt>
      <trkpt lat="42.966400" lon="-4.309767">
        <ele>2805.0</ele>
        <time>2017-05-24T14:33:13Z</time>
      </trkpt>
      <trkpt lat="42.966383" lon="-4.309600">
        <ele>2803.0</ele>
        <time>2017-05-24T14:33:14Z</time>
      </trkpt>
      <trkpt lat="42.966383" lon="-4.309417">
        <ele>2801.0</ele>
        <time>2017-05-24T14:33:15Z</time>
      </trkpt>
      <trkpt lat="42.966350" lon="-4.309233">
        <ele>2799.0</ele>
        <time>2017-05-24T14:33:16Z</time>
      </trkpt>
      <trkpt lat="42.966333" lon="-4.309033">
        <ele>2797.0</ele>
        <time>2017-05-24T14:33:17Z</time>
      </trkpt>
      <trkpt lat="42.966300" lon="-4.308833">
        <ele>2796.0</ele>
        <time>2017-05-24T14:33:18Z</time>
      </trkpt>
      <trkpt lat="42.966283" lon="-4.308633">
        <ele>2795.0</ele>
        <time>2017-05-24T14:33:19Z</time>
      </trkpt>
      <trkpt lat="42.966250" lon="-4.308450">
        <ele>2795.0</ele>
        <time>2017-05-24T14:33:20Z</time>
      </trkpt>
      <trkpt lat="42.966233" lon="-4.308267">
        <ele>2795.0</ele>
        <time>2017-05-24T14:33:21Z</time>
      </trkpt>
      <trkpt lat="42.966200" lon="-4.308083">
        <ele>2794.0</ele>
        <time>2017-05-24T14:33:22Z</time>
      </trkpt>
      <trkpt lat="42.966183" lon="-4.307900">
        <ele>2793.0</ele>
        <time>2017-05-24T14:33:23Z</time>
      </trkpt>
      <trkpt lat="42.966167" lon="-4.307717">
        <ele>2792.0</ele>
        <time>2017-05-24T14:33:24Z</time>
      </trkpt>
      <trkpt lat="42.966150" lon="-4.307517">
        <ele>2793.0</ele>
        <time>2017-05-24T14:33:25Z</time>
      </trkpt>
      <trkpt lat="42.966150" lon="-4.307350">
        <ele>2793.0</ele>
        <time>2017-05-24T14:33:26Z</time>
      </trkpt>
      <trkpt lat="42.966133" lon="-4.307167">
        <ele>2793.0</ele>
        <time>2017-05-24T14:33:27Z</time>
      </trkpt>
      <trkpt lat="42.966133" lon="-4.307000">
        <ele>2792.0</ele>
        <time>2017-05-24T14:33:28Z</time>
      </trkpt>
      <trkpt lat="42.966117" lon="-4.306817">
        <ele>2792.0</ele>
        <time>2017-05-24T14:33:29Z</time>
      </trkpt>
      <trkpt lat="42.966100" lon="-4.306633">
        <ele>2792.0</ele>
        <time>2017-05-24T14:33:30Z</time>
      </trkpt>
      <trkpt lat="42.966100" lon="-4.306450">
        <ele>2792.0</ele>
        <time>2017-05-24T14:33:31Z</time>
      </trkpt>
      <trkpt lat="42.966100" lon="-4.306267">
        <ele>2792.0</ele>
        <time>2017-05-24T14:33:32Z</time>
      </trkpt>
      <trkpt lat="42.966100" lon="-4.306083">
        <ele>2792.0</ele>
        <time>2017-05-24T14:33:33Z</time>
      </trkpt>
      <trkpt lat="42.966100" lon="-4.305900">
        <ele>2792.0</ele>
        <time>2017-05-24T14:33:34Z</time>
      </trkpt>
      <trkpt lat="42.966100" lon="-4.305717">
        <ele>2791.0</ele>
        <time>2017-05-24T14:33:35Z</time>
      </trkpt>
      <trkpt lat="42.966083" lon="-4.305550">
        <ele>2790.0</ele>
        <time>2017-05-24T14:33:36Z</time>
      </trkpt>
      <trkpt lat="42.966083" lon="-4.305350">
        <ele>2789.0</ele>
        <time>2017-05-24T14:33:37Z</time>
      </trkpt>
      <trkpt lat="42.966083" lon="-4.305150">
        <ele>2787.0</ele>
        <time>2017-05-24T14:33:38Z</time>
      </trkpt>
      <trkpt lat="42.966083" lon="-4.304967">
        <ele>2787.0</ele>
        <time>2017-05-24T14:33:39Z</time>
      </trkpt>
      <trkpt lat="42.966067" lon="-4.304767">
        <ele>2786.0</ele>
        <time>2017-05-24T14:33:40Z</time>
      </trkpt>
      <trkpt lat="42.966067" lon="-4.304583">
        <ele>2785.0</ele>
        <time>2017-05-24T14:33:41Z</time>
      </trkpt>
      <trkpt lat="42.966067" lon="-4.304400">
        <ele>2784.0</ele>
        <time>2017-05-24T14:33:42Z</time>
      </trkpt>
      <trkpt lat="42.966050" lon="-4.304217">
        <ele>2782.0</ele>
        <time>2017-05-24T14:33:43Z</time>
      </trkpt>
      <trkpt lat="42.966033" lon="-4.304033">
        <ele>2781.0</ele>
        <time>2017-05-24T14:33:44Z</time>
      </trkpt>
      <trkpt lat="42.966000" lon="-4.303833">
        <ele>2780.0</ele>
        <time>2017-05-24T14:33:45Z</time>
      </trkpt>
      <trkpt lat="42.965967" lon="-4.303650">
        <ele>2779.0</ele>
        <time>2017-05-24T14:33:46Z</time>
      </trkpt>
      <trkpt lat="42.965950" lon="-4.303467">
        <ele>2779.0</ele>
        <time>2017-05-24T14:33:47Z</time>
      </trkpt>
      <trkpt lat="42.965933" lon="-4.303283">
        <ele>2779.0</ele>
        <time>2017-05-24T14:33:48Z</time>
      </trkpt>
      <trkpt lat="42.965933" lon="-4.303117">
        <ele>2778.0</ele>
        <time>2017-05-24T14:33:49Z</time>
      </trkpt>
      <trkpt lat="42.965917" lon="-4.302933">
        <ele>2776.0</ele>
        <time>2017-05-24T14:33:50Z</time>
      </trkpt>
      <trkpt lat="42.965917" lon="-4.302733">
        <ele>2774.0</ele>
        <time>2017-05-24T14:33:51Z</time>
      </trkpt>
      <trkpt lat="42.965900" lon="-4.302533">
        <ele>2773.0</ele>
        <time>2017-05-24T14:33:52Z</time>
      </trkpt>
      <trkpt lat="42.965883" lon="-4.302350">
        <ele>2773.0</ele>
        <time>2017-05-24T14:33:53Z</time>
      </trkpt>
      <trkpt lat="42.965867" lon="-4.302150">
        <ele>2772.0</ele>
        <time>2017-05-24T14:33:54Z</time>
      </trkpt>
      <trkpt lat="42.965867" lon="-4.301967">
        <ele>2772.0</ele>
        <time>2017-05-24T14:33:55Z</time>
      </trkpt>
      <trkpt lat="42.965850" lon="-4.301800">
        <ele>2771.0</ele>
        <time>2017-05-24T14:33:56Z</time>
      </trkpt>
      <trkpt lat="42.965850" lon="-4.301617">
        <ele>2770.0</ele>
        <time>2017-05-24T14:33:57Z</time>
      </trkpt>
      <trkpt lat="42.965833" lon="-4.301450">
        <ele>2769.0</ele>
        <time>2017-05-24T14:33:58Z</time>
      </trkpt>
      <trkpt lat="42.965833" lon="-4.301267">
        <ele>2767.0</ele>
        <time>2017-05-24T14:33:59Z</time>
      </trkpt>
      <trkpt lat="42.965817" lon="-4.301067">
        <ele>2765.0</ele>
        <time>2017-05-24T14:34:00Z</time>
      </trkpt>
      <trkpt lat="42.965817" lon="-4.300883">
        <ele>2764.0</ele>
        <time>2017-05-24T14:34:01Z</time>
      </trkpt>
      <trkpt lat="42.965800" lon="-4.300683">
        <ele>2762.0</ele>
        <time>2017-05-24T14:34:02Z</time>
      </trkpt>
      <trkpt lat="42.965800" lon="-4.300500">
        <ele>2761.0</ele>
        <time>2017-05-24T14:34:03Z</time>
      </trkpt>
      <trkpt lat="42.965783" lon="-4.300317">
        <ele>2760.0</ele>
        <time>2017-05-24T14:34:04Z</time>
      </trkpt>
      <trkpt lat="42.965750" lon="-4.300133">
        <ele>2759.0</ele>
        <time>2017-05-24T14:34:05Z</time>
      </trkpt>
      <trkpt lat="42.965717" lon="-4.299967">
        <ele>2757.0</ele>
        <time>2017-05-24T14:34:06Z</time>
      </trkpt>
      <trkpt lat="42.965667" lon="-4.299783">
        <ele>2756.0</ele>
        <time>2017-05-24T14:34:07Z</time>
      </trkpt>
      <trkpt lat="42.965617" lon="-4.299600">
        <ele>2754.0</ele>
        <time>2017-05-24T14:34:08Z</time>
      </trkpt>
      <trkpt lat="42.965567" lon="-4.299433">
        <ele>2754.0</ele>
        <time>2017-05-24T14:34:09Z</time>
      </trkpt>
      <trkpt lat="42.965517" lon="-4.299283">
        <ele>2753.0</ele>
        <time>2017-05-24T14:34:10Z</time>
      </trkpt>
      <trkpt lat="42.965450" lon="-4.299117">
        <ele>2752.0</ele>
        <time>2017-05-24T14:34:11Z</time>
      </trkpt>
      <trkpt lat="42.965383" lon="-4.298967">
        <ele>2750.0</ele>
        <time>2017-05-24T14:34:12Z</time>
      </trkpt>
      <trkpt lat="42.965333" lon="-4.298800">
        <ele>2748.0</ele>
        <time>2017-05-24T14:34:13Z</time>
      </trkpt>
      <trkpt lat="42.965283" lon="-4.298617">
        <ele>2746.0</ele>
        <time>2017-05-24T14:34:14Z</time>
      </trkpt>
      <trkpt lat="42.965250" lon="-4.298450">
        <ele>2745.0</ele>
        <time>2017-05-24T14:34:15Z</time>
      </trkpt>
      <trkpt lat="42.965200" lon="-4.298267">
        <ele>2744.0</ele>
        <time>2017-05-24T14:34:16Z</time>
      </trkpt>
      <trkpt lat="42.965167" lon="-4.298100">
        <ele>2743.0</ele>
        <time>2017-05-24T14:34:17Z</time>
      </trkpt>
      <trkpt lat="42.965150" lon="-4.297933">
        <ele>2741.0</ele>
        <time>2017-05-24T14:34:18Z</time>
      </trkpt>
      <trkpt lat="42.965117" lon="-4.297750">
        <ele>2738.0</ele>
        <time>2017-05-24T14:34:19Z</time>
      </trkpt>
      <trkpt lat="42.965100" lon="-4.297567">
        <ele>2736.0</ele>
        <time>2017-05-24T14:34:20Z</time>
      </trkpt>
      <trkpt lat="42.965067" lon="-4.297383">
        <ele>2734.0</ele>
        <time>2017-05-24T14:34:21Z</time>
      </trkpt>
      <trkpt lat="42.965017" lon="-4.297217">
        <ele>2733.0</ele>
        <time>2017-05-24T14:34:22Z</time>
      </trkpt>
      <trkpt lat="42.964967" lon="-4.297067">
        <ele>2732.0</ele>
        <time>2017-05-24T14:34:23Z</time>
      </trkpt>
      <trkpt lat="42.964917" lon="-4.296917">
        <ele>2731.0</ele>
        <time>2017-05-24T14:34:24Z</time>
      </trkpt>
      <trkpt lat="42.964883" lon="-4.296767">
        <ele>2729.0</ele>
        <time>2017-05-24T14:34:25Z</time>
      </trkpt>
      <trkpt lat="42.964833" lon="-4.296583">
        <ele>2726.0</ele>
        <time>2017-05-24T14:34:26Z</time>
      </trkpt>
      <trkpt lat="42.964800" lon="-4.296400">
        <ele>2723.0</ele>
        <time>2017-05-24T14:34:27Z</time>
      </trkpt>
      <trkpt lat="42.964800" lon="-4.296200">
        <ele>2721.0</ele>
        <time>2017-05-24T14:34:28Z</time>
      </trkpt>
      <trkpt lat="42.964817" lon="-4.296000">
        <ele>2720.0</ele>
        <time>2017-05-24T14:34:29Z</time>
      </trkpt>
      <trkpt lat="42.964817" lon="-4.295817">
        <ele>2719.0</ele>
        <time>2017-05-24T14:34:30Z</time>
      </trkpt>
      <trkpt lat="42.964833" lon="-4.295633">
        <ele>2718.0</ele>
        <time>2017-05-24T14:34:31Z</time>
      </trkpt>
      <trkpt lat="42.964850" lon="-4.295467">
        <ele>2716.0</ele>
        <time>2017-05-24T14:34:32Z</time>
      </trkpt>
      <trkpt lat="42.964867" lon="-4.295283">
        <ele>2714.0</ele>
        <time>2017-05-24T14:34:33Z</time>
      </trkpt>
      <trkpt lat="42.964883" lon="-4.295100">
        <ele>2712.0</ele>
        <time>2017-05-24T14:34:34Z</time>
      </trkpt>
      <trkpt lat="42.964917" lon="-4.294917">
        <ele>2710.0</ele>
        <time>2017-05-24T14:34:35Z</time>
      </trkpt>
      <trkpt lat="42.964933" lon="-4.294733">
        <ele>2710.0</ele>
        <time>2017-05-24T14:34:36Z</time>
      </trkpt>
      <trkpt lat="42.964967" lon="-4.294567">
        <ele>2711.0</ele>
        <time>2017-05-24T14:34:37Z</time>
      </trkpt>
      <trkpt lat="42.964983" lon="-4.294417">
        <ele>2712.0</ele>
        <time>2017-05-24T14:34:38Z</time>
      </trkpt>
      <trkpt lat="42.965000" lon="-4.294267">
        <ele>2711.0</ele>
        <time>2017-05-24T14:34:39Z</time>
      </trkpt>
      <trkpt lat="42.965017" lon="-4.294117">
        <ele>2710.0</ele>
        <time>2017-05-24T14:34:40Z</time>
      </trkpt>
      <trkpt lat="42.965033" lon="-4.293950">
        <ele>2708.0</ele>
        <time>2017-05-24T14:34:41Z</time>
      </trkpt>
      <trkpt lat="42.965050" lon="-4.293783">
        <ele>2706.0</ele>
        <time>2017-05-24T14:34:42Z</time>
      </trkpt>
      <trkpt lat="42.965067" lon="-4.293617">
        <ele>2706.0</ele>
        <time>2017-05-24T14:34:43Z</time>
      </trkpt>
      <trkpt lat="42.965083" lon="-4.293450">
        <ele>2706.0</ele>
        <time>2017-05-24T14:34:44Z</time>
      </trkpt>
      <trkpt lat="42.965083" lon="-4.293300">
        <ele>2705.0</ele>
        <time>2017-05-24T14:34:45Z</time>
      </trkpt>
      <trkpt lat="42.965100" lon="-4.293133">
        <ele>2704.0</ele>
        <time>2017-05-24T14:34:46Z</time>
      </trkpt>
      <trkpt lat="42.965083" lon="-4.292967">
        <ele>2703.0</ele>
        <time>2017-05-24T14:34:47Z</time>
      </trkpt>
      <trkpt lat="42.965083" lon="-4.292783">
        <ele>2702.0</ele>
        <time>2017-05-24T14:34:48Z</time>
      </trkpt>
      <trkpt lat="42.965083" lon="-4.292600">
        <ele>2702.0</ele>
        <time>2017-05-24T14:34:49Z</time>
      </trkpt>
      <trkpt lat="42.965083" lon="-4.292433">
        <ele>2703.0</ele>
        <time>2017-05-24T14:34:50Z</time>
      </trkpt>
      <trkpt lat="42.965100" lon="-4.292267">
        <ele>2703.0</ele>
        <time>2017-05-24T14:34:51Z</time>
      </trkpt>
      <trkpt lat="42.965083" lon="-4.292117">
        <ele>2703.0</ele>
        <time>2017-05-24T14:34:52Z</time>
      </trkpt>
      <trkpt lat="42.965083" lon="-4.291983">
        <ele>2703.0</ele>
        <time>2017-05-24T14:34:53Z</time>
      </trkpt>
      <trkpt lat="42.965083" lon="-4.291817">
        <ele>2702.0</ele>
        <time>2017-05-24T14:34:54Z</time>
      </trkpt>
      <trkpt lat="42.965067" lon="-4.291650">
        <ele>2700.0</ele>
        <time>2017-05-24T14:34:55Z</time>
      </trkpt>
      <trkpt lat="42.965067" lon="-4.291483">
        <ele>2698.0</ele>
        <time>2017-05-24T14:34:56Z</time>
      </trkpt>
      <trkpt lat="42.965067" lon="-4.291317">
        <ele>2697.0</ele>
        <time>2017-05-24T14:34:57Z</time>
      </trkpt>
      <trkpt lat="42.965050" lon="-4.291150">
        <ele>2698.0</ele>
        <time>2017-05-24T14:34:58Z</time>
      </trkpt>
      <trkpt lat="42.965050" lon="-4.291000">
        <ele>2697.0</ele>
        <time>2017-05-24T14:34:59Z</time>
      </trkpt>
      <trkpt lat="42.965050" lon="-4.290850">
        <ele>2697.0</ele>
        <time>2017-05-24T14:35:00Z</time>
      </trkpt>
      <trkpt lat="42.965050" lon="-4.290700">
        <ele>2694.0</ele>
        <time>2017-05-24T14:35:01Z</time>
      </trkpt>
      <trkpt lat="42.965050" lon="-4.290533">
        <ele>2692.0</ele>
        <time>2017-05-24T14:35:02Z</time>
      </trkpt>
      <trkpt lat="42.965067" lon="-4.290367">
        <ele>2689.0</ele>
        <time>2017-05-24T14:35:03Z</time>
      </trkpt>
      <trkpt lat="42.965067" lon="-4.290200">
        <ele>2688.0</ele>
        <time>2017-05-24T14:35:04Z</time>
      </trkpt>
      <trkpt lat="42.965067" lon="-4.290033">
        <ele>2687.0</ele>
        <time>2017-05-24T14:35:05Z</time>
      </trkpt>
      <trkpt lat="42.965067" lon="-4.289867">
        <ele>2685.0</ele>
        <time>2017-05-24T14:35:06Z</time>
      </trkpt>
      <trkpt lat="42.965083" lon="-4.289717">
        <ele>2683.0</ele>
        <time>2017-05-24T14:35:07Z</time>
      </trkpt>
      <trkpt lat="42.965083" lon="-4.289550">
        <ele>2681.0</ele>
        <time>2017-05-24T14:35:08Z</time>
      </trkpt>
      <trkpt lat="42.965083" lon="-4.289383">
        <ele>2679.0</ele>
        <time>2017-05-24T14:35:09Z</time>
      </trkpt>
      <trkpt lat="42.965083" lon="-4.289233">
        <ele>2678.0</ele>
        <time>2017-05-24T14:35:10Z</time>
      </trkpt>
      <trkpt lat="42.965117" lon="-4.289067">
        <ele>2677.0</ele>
        <time>2017-05-24T14:35:11Z</time>
      </trkpt>
      <trkpt lat="42.965133" lon="-4.288917">
        <ele>2676.0</ele>
        <time>2017-05-24T14:35:12Z</time>
      </trkpt>
      <trkpt lat="42.965167" lon="-4.288767">
        <ele>2674.0</ele>
        <time>2017-05-24T14:35:13Z</time>
      </trkpt>
      <trkpt lat="42.965183" lon="-4.288617">
        <ele>2672.0</ele>
        <time>2017-05-24T14:35:14Z</time>
      </trkpt>
      <trkpt lat="42.965233" lon="-4.288450">
        <ele>2671.0</ele>
        <time>2017-05-24T14:35:15Z</time>
      </trkpt>
      <trkpt lat="42.965283" lon="-4.288300">
        <ele>2670.0</ele>
        <time>2017-05-24T14:35:16Z</time>
      </trkpt>
      <trkpt lat="42.965333" lon="-4.288167">
        <ele>2669.0</ele>
        <time>2017-05-24T14:35:17Z</time>
      </trkpt>
      <trkpt lat="42.965400" lon="-4.288033">
        <ele>2669.0</ele>
        <time>2017-05-24T14:35:18Z</time>
      </trkpt>
      <trkpt lat="42.965467" lon="-4.287917">
        <ele>2668.0</ele>
        <time>2017-05-24T14:35:19Z</time>
      </trkpt>
      <trkpt lat="42.965550" lon="-4.287783">
        <ele>2667.0</ele>
        <time>2017-05-24T14:35:20Z</time>
      </trkpt>
      <trkpt lat="42.965633" lon="-4.287667">
        <ele>2665.0</ele>
        <time>2017-05-24T14:35:21Z</time>
      </trkpt>
      <trkpt lat="42.965700" lon="-4.287533">
        <ele>2664.0</ele>
        <time>2017-05-24T14:35:22Z</time>
      </trkpt>
      <trkpt lat="42.965783" lon="-4.287383">
        <ele>2663.0</ele>
        <time>2017-05-24T14:35:23Z</time>
      </trkpt>
      <trkpt lat="42.965833" lon="-4.287250">
        <ele>2662.0</ele>
        <time>2017-05-24T14:35:24Z</time>
      </trkpt>
      <trkpt lat="42.965883" lon="-4.287100">
        <ele>2660.0</ele>
        <time>2017-05-24T14:35:25Z</time>
      </trkpt>
      <trkpt lat="42.965933" lon="-4.286950">
        <ele>2658.0</ele>
        <time>2017-05-24T14:35:26Z</time>
      </trkpt>
      <trkpt lat="42.966000" lon="-4.286800">
        <ele>2656.0</ele>
        <time>2017-05-24T14:35:27Z</time>
      </trkpt>
      <trkpt lat="42.966050" lon="-4.286650">
        <ele>2653.0</ele>
        <time>2017-05-24T14:35:28Z</time>
      </trkpt>
      <trkpt lat="42.966100" lon="-4.286483">
        <ele>2652.0</ele>
        <time>2017-05-24T14:35:29Z</time>
      </trkpt>
      <trkpt lat="42.966133" lon="-4.286317">
        <ele>2650.0</ele>
        <time>2017-05-24T14:35:30Z</time>
      </trkpt>
      <trkpt lat="42.966167" lon="-4.286167">
        <ele>2649.0</ele>
        <time>2017-05-24T14:35:31Z</time>
      </trkpt>
      <trkpt lat="42.966200" lon="-4.286000">
        <ele>2648.0</ele>
        <time>2017-05-24T14:35:32Z</time>
      </trkpt>
      <trkpt lat="42.966233" lon="-4.285850">
        <ele>2648.0</ele>
        <time>2017-05-24T14:35:33Z</time>
      </trkpt>
      <trkpt lat="42.966267" lon="-4.285700">
        <ele>2648.0</ele>
        <time>2017-05-24T14:35:34Z</time>
      </trkpt>
      <trkpt lat="42.966283" lon="-4.285550">
        <ele>2648.0</ele>
        <time>2017-05-24T14:35:35Z</time>
      </trkpt>
      <trkpt lat="42.966300" lon="-4.285383">
        <ele>2648.0</ele>
        <time>2017-05-24T14:35:36Z</time>
      </trkpt>
      <trkpt lat="42.966317" lon="-4.285233">
        <ele>2647.0</ele>
        <time>2017-05-24T14:35:37Z</time>
      </trkpt>
      <trkpt lat="42.966350" lon="-4.285067">
        <ele>2646.0</ele>
        <time>2017-05-24T14:35:38Z</time>
      </trkpt>
      <trkpt lat="42.966400" lon="-4.284900">
        <ele>2646.0</ele>
        <time>2017-05-24T14:35:39Z</time>
      </trkpt>
      <trkpt lat="42.966433" lon="-4.284733">
        <ele>2646.0</ele>
        <time>2017-05-24T14:35:40Z</time>
      </trkpt>
      <trkpt lat="42.966467" lon="-4.284583">
        <ele>2645.0</ele>
        <time>2017-05-24T14:35:41Z</time>
      </trkpt>
      <trkpt lat="42.966500" lon="-4.284433">
        <ele>2644.0</ele>
        <time>2017-05-24T14:35:42Z</time>
      </trkpt>
      <trkpt lat="42.966533" lon="-4.284267">
        <ele>2642.0</ele>
        <time>2017-05-24T14:35:43Z</time>
      </trkpt>
      <trkpt lat="42.966567" lon="-4.284083">
        <ele>2640.0</ele>
        <time>2017-05-24T14:35:44Z</time>
      </trkpt>
      <trkpt lat="42.966600" lon="-4.283900">
        <ele>2639.0</ele>
        <time>2017-05-24T14:35:45Z</time>
      </trkpt>
      <trkpt lat="42.966633" lon="-4.283717">
        <ele>2639.0</ele>
        <time>2017-05-24T14:35:46Z</time>
      </trkpt>
      <trkpt lat="42.966667" lon="-4.283550">
        <ele>2639.0</ele>
        <time>2017-05-24T14:35:47Z</time>
      </trkpt>
      <trkpt lat="42.966700" lon="-4.283400">
        <ele>2640.0</ele>
        <time>2017-05-24T14:35:48Z</time>
      </trkpt>
      <trkpt lat="42.966717" lon="-4.283250">
        <ele>2639.0</ele>
        <time>2017-05-24T14:35:49Z</time>
      </trkpt>
      <trkpt lat="42.966750" lon="-4.283100">
        <ele>2638.0</ele>
        <time>2017-05-24T14:35:50Z</time>
      </trkpt>
      <trkpt lat="42.966767" lon="-4.282950">
        <ele>2636.0</ele>
        <time>2017-05-24T14:35:51Z</time>
      </trkpt>
      <trkpt lat="42.966783" lon="-4.282800">
        <ele>2634.0</ele>
        <time>2017-05-24T14:35:52Z</time>
      </trkpt>
      <trkpt lat="42.966817" lon="-4.282650">
        <ele>2633.0</ele>
        <time>2017-05-24T14:35:53Z</time>
      </trkpt>
      <trkpt lat="42.966867" lon="-4.282500">
        <ele>2631.0</ele>
        <time>2017-05-24T14:35:54Z</time>
      </trkpt>
      <trkpt lat="42.966900" lon="-4.282350">
        <ele>2629.0</ele>
        <time>2017-05-24T14:35:55Z</time>
      </trkpt>
      <trkpt lat="42.966933" lon="-4.282183">
        <ele>2628.0</ele>
        <time>2017-05-24T14:35:56Z</time>
      </trkpt>
      <trkpt lat="42.966950" lon="-4.282050">
        <ele>2629.0</ele>
        <time>2017-05-24T14:35:57Z</time>
      </trkpt>
      <trkpt lat="42.966967" lon="-4.281917">
        <ele>2630.0</ele>
        <time>2017-05-24T14:35:58Z</time>
      </trkpt>
      <trkpt lat="42.966983" lon="-4.281800">
        <ele>2630.0</ele>
        <time>2017-05-24T14:35:59Z</time>
      </trkpt>
      <trkpt lat="42.967000" lon="-4.281683">
        <ele>2630.0</ele>
        <time>2017-05-24T14:36:00Z</time>
      </trkpt>
      <trkpt lat="42.967033" lon="-4.281567">
        <ele>2628.0</ele>
        <time>2017-05-24T14:36:01Z</time>
      </trkpt>
      <trkpt lat="42.967050" lon="-4.281417">
        <ele>2627.0</ele>
        <time>2017-05-24T14:36:02Z</time>
      </trkpt>
      <trkpt lat="42.967067" lon="-4.281267">
        <ele>2627.0</ele>
        <time>2017-05-24T14:36:03Z</time>
      </trkpt>
      <trkpt lat="42.967083" lon="-4.281133">
        <ele>2628.0</ele>
        <time>2017-05-24T14:36:04Z</time>
      </trkpt>
      <trkpt lat="42.967100" lon="-4.281000">
        <ele>2629.0</ele>
        <time>2017-05-24T14:36:05Z</time>
      </trkpt>
      <trkpt lat="42.967100" lon="-4.280883">
        <ele>2630.0</ele>
        <time>2017-05-24T14:36:06Z</time>
      </trkpt>
      <trkpt lat="42.967117" lon="-4.280767">
        <ele>2632.0</ele>
        <time>2017-05-24T14:36:07Z</time>
      </trkpt>
      <trkpt lat="42.967133" lon="-4.280667">
        <ele>2635.0</ele>
        <time>2017-05-24T14:36:08Z</time>
      </trkpt>
      <trkpt lat="42.967150" lon="-4.280583">
        <ele>2637.0</ele>
        <time>2017-05-24T14:36:09Z</time>
      </trkpt>
      <trkpt lat="42.967183" lon="-4.280500">
        <ele>2639.0</ele>
        <time>2017-05-24T14:36:10Z</time>
      </trkpt>
      <trkpt lat="42.967200" lon="-4.280433">
        <ele>2640.0</ele>
        <time>2017-05-24T14:36:11Z</time>
      </trkpt>
      <trkpt lat="42.967233" lon="-4.280350">
        <ele>2640.0</ele>
        <time>2017-05-24T14:36:12Z</time>
      </trkpt>
      <trkpt lat="42.967250" lon="-4.280233">
        <ele>2641.0</ele>
        <time>2017-05-24T14:36:13Z</time>
      </trkpt>
      <trkpt lat="42.967267" lon="-4.280133">
        <ele>2643.0</ele>
        <time>2017-05-24T14:36:14Z</time>
      </trkpt>
      <trkpt lat="42.967283" lon="-4.280017">
        <ele>2645.0</ele>
        <time>2017-05-24T14:36:15Z</time>
      </trkpt>
      <trkpt lat="42.967300" lon="-4.279933">
        <ele>2647.0</ele>
        <time>2017-05-24T14:36:16Z</time>
      </trkpt>
      <trkpt lat="42.967317" lon="-4.279833">
        <ele>2649.0</ele>
        <time>2017-05-24T14:36:17Z</time>
      </trkpt>
      <trkpt lat="42.967333" lon="-4.279733">
        <ele>2650.0</ele>
        <time>2017-05-24T14:36:18Z</time>
      </trkpt>
      <trkpt lat="42.967367" lon="-4.279633">
        <ele>2652.0</ele>
        <time>2017-05-24T14:36:19Z</time>
      </trkpt>
      <trkpt lat="42.967367" lon="-4.279517">
        <ele>2653.0</ele>
        <time>2017-05-24T14:36:20Z</time>
      </trkpt>
      <trkpt lat="42.967383" lon="-4.279433">
        <ele>2656.0</ele>
        <time>2017-05-24T14:36:21Z</time>
      </trkpt>
      <trkpt lat="42.967383" lon="-4.279350">
        <ele>2659.0</ele>
        <time>2017-05-24T14:36:22Z</time>
      </trkpt>
      <trkpt lat="42.967383" lon="-4.279267">
        <ele>2662.0</ele>
        <time>2017-05-24T14:36:23Z</time>
      </trkpt>
      <trkpt lat="42.967400" lon="-4.279200">
        <ele>2665.0</ele>
        <time>2017-05-24T14:36:24Z</time>
      </trkpt>
      <trkpt lat="42.967400" lon="-4.279133">
        <ele>2668.0</ele>
        <time>2017-05-24T14:36:25Z</time>
      </trkpt>
      <trkpt lat="42.967400" lon="-4.279067">
        <ele>2672.0</ele>
        <time>2017-05-24T14:36:26Z</time>
      </trkpt>
      <trkpt lat="42.967417" lon="-4.278983">
        <ele>2675.0</ele>
        <time>2017-05-24T14:36:27Z</time>
      </trkpt>
      <trkpt lat="42.967450" lon="-4.278883">
        <ele>2678.0</ele>
        <time>2017-05-24T14:36:28Z</time>
      </trkpt>
      <trkpt lat="42.967483" lon="-4.278800">
        <ele>2681.0</ele>
        <time>2017-05-24T14:36:29Z</time>
      </trkpt>
      <trkpt lat="42.967483" lon="-4.278683">
        <ele>2683.0</ele>
        <time>2017-05-24T14:36:30Z</time>
      </trkpt>
      <trkpt lat="42.967467" lon="-4.278583">
        <ele>2686.0</ele>
        <time>2017-05-24T14:36:31Z</time>
      </trkpt>
      <trkpt lat="42.967450" lon="-4.278483">
        <ele>2688.0</ele>
        <time>2017-05-24T14:36:32Z</time>
      </trkpt>
      <trkpt lat="42.967433" lon="-4.278383">
        <ele>2690.0</ele>
        <time>2017-05-24T14:36:33Z</time>
      </trkpt>
      <trkpt lat="42.967433" lon="-4.278267">
        <ele>2692.0</ele>
        <time>2017-05-24T14:36:34Z</time>
      </trkpt>
      <trkpt lat="42.967450" lon="-4.278150">
        <ele>2693.0</ele>
        <time>2017-05-24T14:36:35Z</time>
      </trkpt>
      <trkpt lat="42.967500" lon="-4.278033">
        <ele>2695.0</ele>
        <time>2017-05-24T14:36:36Z</time>
      </trkpt>
      <trkpt lat="42.967583" lon="-4.277950">
        <ele>2696.0</ele>
        <time>2017-05-24T14:36:37Z</time>
      </trkpt>
      <trkpt lat="42.967683" lon="-4.277917">
        <ele>2698.0</ele>
        <time>2017-05-24T14:36:38Z</time>
      </trkpt>
      <trkpt lat="42.967783" lon="-4.277967">
        <ele>2701.0</ele>
        <time>2017-05-24T14:36:39Z</time>
      </trkpt>
      <trkpt lat="42.967833" lon="-4.278067">
        <ele>2705.0</ele>
        <time>2017-05-24T14:36:40Z</time>
      </trkpt>
      <trkpt lat="42.967833" lon="-4.278150">
        <ele>2710.0</ele>
        <time>2017-05-24T14:36:41Z</time>
      </trkpt>
      <trkpt lat="42.967833" lon="-4.278200">
        <ele>2714.0</ele>
        <time>2017-05-24T14:36:42Z</time>
      </trkpt>
      <trkpt lat="42.967833" lon="-4.278250">
        <ele>2718.0</ele>
        <time>2017-05-24T14:36:43Z</time>
      </trkpt>
      <trkpt lat="42.967833" lon="-4.278317">
        <ele>2721.0</ele>
        <time>2017-05-24T14:36:44Z</time>
      </trkpt>
      <trkpt lat="42.967850" lon="-4.278400">
        <ele>2723.0</ele>
        <time>2017-05-24T14:36:45Z</time>
      </trkpt>
      <trkpt lat="42.967833" lon="-4.278483">
        <ele>2723.0</ele>
        <time>2017-05-24T14:36:46Z</time>
      </trkpt>
      <trkpt lat="42.967783" lon="-4.278533">
        <ele>2724.0</ele>
        <time>2017-05-24T14:36:47Z</time>
      </trkpt>
      <trkpt lat="42.967733" lon="-4.278500">
        <ele>2725.0</ele>
        <time>2017-05-24T14:36:48Z</time>
      </trkpt>
      <trkpt lat="42.967683" lon="-4.278450">
        <ele>2726.0</ele>
        <time>2017-05-24T14:36:49Z</time>
      </trkpt>
      <trkpt lat="42.967650" lon="-4.278383">
        <ele>2728.0</ele>
        <time>2017-05-24T14:36:50Z</time>
      </trkpt>
      <trkpt lat="42.967617" lon="-4.278350">
        <ele>2729.0</ele>
        <time>2017-05-24T14:36:51Z</time>
      </trkpt>
      <trkpt lat="42.967583" lon="-4.278317">
        <ele>2730.0</ele>
        <time>2017-05-24T14:36:52Z</time>
      </trkpt>
      <trkpt lat="42.967550" lon="-4.278283">
        <ele>2730.0</ele>
        <time>2017-05-24T14:36:53Z</time>
      </trkpt>
      <trkpt lat="42.967500" lon="-4.278233">
        <ele>2730.0</ele>
        <time>2017-05-24T14:36:54Z</time>
      </trkpt>
      <trkpt lat="42.967467" lon="-4.278150">
        <ele>2731.0</ele>
        <time>2017-05-24T14:36:55Z</time>
      </trkpt>
      <trkpt lat="42.967433" lon="-4.278083">
        <ele>2732.0</ele>
        <time>2017-05-24T14:36:56Z</time>
      </trkpt>
      <trkpt lat="42.967417" lon="-4.278017">
        <ele>2733.0</ele>
        <time>2017-05-24T14:36:57Z</time>
      </trkpt>
      <trkpt lat="42.967400" lon="-4.277933">
        <ele>2734.0</ele>
        <time>2017-05-24T14:36:58Z</time>
      </trkpt>
      <trkpt lat="42.967383" lon="-4.277867">
        <ele>2734.0</ele>
        <time>2017-05-24T14:36:59Z</time>
      </trkpt>
      <trkpt lat="42.967383" lon="-4.277767">
        <ele>2733.0</ele>
        <time>2017-05-24T14:37:00Z</time>
      </trkpt>
      <trkpt lat="42.967383" lon="-4.277650">
        <ele>2733.0</ele>
        <time>2017-05-24T14:37:01Z</time>
      </trkpt>
      <trkpt lat="42.967417" lon="-4.277517">
        <ele>2731.0</ele>
        <time>2017-05-24T14:37:02Z</time>
      </trkpt>
      <trkpt lat="42.967467" lon="-4.277367">
        <ele>2732.0</ele>
        <time>2017-05-24T14:37:03Z</time>
      </trkpt>
      <trkpt lat="42.967500" lon="-4.277233">
        <ele>2733.0</ele>
        <time>2017-05-24T14:37:04Z</time>
      </trkpt>
      <trkpt lat="42.967550" lon="-4.277117">
        <ele>2735.0</ele>
        <time>2017-05-24T14:37:05Z</time>
      </trkpt>
      <trkpt lat="42.967600" lon="-4.276983">
        <ele>2736.0</ele>
        <time>2017-05-24T14:37:06Z</time>
      </trkpt>
      <trkpt lat="42.967633" lon="-4.276867">
        <ele>2737.0</ele>
        <time>2017-05-24T14:37:07Z</time>
      </trkpt>
      <trkpt lat="42.967683" lon="-4.276750">
        <ele>2739.0</ele>
        <time>2017-05-24T14:37:08Z</time>
      </trkpt>
      <trkpt lat="42.967733" lon="-4.276667">
        <ele>2741.0</ele>
        <time>2017-05-24T14:37:09Z</time>
      </trkpt>
      <trkpt lat="42.967800" lon="-4.276567">
        <ele>2742.0</ele>
        <time>2017-05-24T14:37:10Z</time>
      </trkpt>
      <trkpt lat="42.967850" lon="-4.276450">
        <ele>2742.0</ele>
        <time>2017-05-24T14:37:11Z</time>
      </trkpt>
      <trkpt lat="42.967917" lon="-4.276300">
        <ele>2742.0</ele>
        <time>2017-05-24T14:37:12Z</time>
      </trkpt>
      <trkpt lat="42.967983" lon="-4.276183">
        <ele>2744.0</ele>
        <time>2017-05-24T14:37:13Z</time>
      </trkpt>
      <trkpt lat="42.968083" lon="-4.276117">
        <ele>2743.0</ele>
        <time>2017-05-24T14:37:14Z</time>
      </trkpt>
      <trkpt lat="42.968200" lon="-4.276100">
        <ele>2742.0</ele>
        <time>2017-05-24T14:37:15Z</time>
      </trkpt>
      <trkpt lat="42.968317" lon="-4.276133">
        <ele>2740.0</ele>
        <time>2017-05-24T14:37:16Z</time>
      </trkpt>
      <trkpt lat="42.968417" lon="-4.276217">
        <ele>2740.0</ele>
        <time>2017-05-24T14:37:17Z</time>
      </trkpt>
      <trkpt lat="42.968500" lon="-4.276317">
        <ele>2742.0</ele>
        <time>2017-05-24T14:37:18Z</time>
      </trkpt>
      <trkpt lat="42.968550" lon="-4.276417">
        <ele>2744.0</ele>
        <time>2017-05-24T14:37:19Z</time>
      </trkpt>
      <trkpt lat="42.968583" lon="-4.276500">
        <ele>2746.0</ele>
        <time>2017-05-24T14:37:20Z</time>
      </trkpt>
      <trkpt lat="42.968617" lon="-4.276583">
        <ele>2747.0</ele>
        <time>2017-05-24T14:37:21Z</time>
      </trkpt>
      <trkpt lat="42.968667" lon="-4.276667">
        <ele>2748.0</ele>
        <time>2017-05-24T14:37:22Z</time>
      </trkpt>
      <trkpt lat="42.968683" lon="-4.276750">
        <ele>2749.0</ele>
        <time>2017-05-24T14:37:23Z</time>
      </trkpt>
      <trkpt lat="42.968700" lon="-4.276850">
        <ele>2750.0</ele>
        <time>2017-05-24T14:37:24Z</time>
      </trkpt>
      <trkpt lat="42.968683" lon="-4.276933">
        <ele>2750.0</ele>
        <time>2017-05-24T14:37:25Z</time>
      </trkpt>
      <trkpt lat="42.968650" lon="-4.277000">
        <ele>2752.0</ele>
        <time>2017-05-24T14:37:26Z</time>
      </trkpt>
      <trkpt lat="42.968617" lon="-4.277067">
        <ele>2754.0</ele>
        <time>2017-05-24T14:37:27Z</time>
      </trkpt>
      <trkpt lat="42.968583" lon="-4.277083">
        <ele>2756.0</ele>
        <time>2017-05-24T14:37:28Z</time>
      </trkpt>
      <trkpt lat="42.968550" lon="-4.277117">
        <ele>2758.0</ele>
        <time>2017-05-24T14:37:29Z</time>
      </trkpt>
      <trkpt lat="42.968517" lon="-4.277167">
        <ele>2760.0</ele>
        <time>2017-05-24T14:37:30Z</time>
      </trkpt>
      <trkpt lat="42.968483" lon="-4.277200">
        <ele>2761.0</ele>
        <time>2017-05-24T14:37:31Z</time>
      </trkpt>
      <trkpt lat="42.968450" lon="-4.277217">
        <ele>2763.0</ele>
        <time>2017-05-24T14:37:32Z</time>
      </trkpt>
      <trkpt lat="42.968433" lon="-4.277217">
        <ele>2764.0</ele>
        <time>2017-05-24T14:37:33Z</time>
      </trkpt>
      <trkpt lat="42.968400" lon="-4.277183">
        <ele>2765.0</ele>
        <time>2017-05-24T14:37:34Z</time>
      </trkpt>
      <trkpt lat="42.968367" lon="-4.277133">
        <ele>2766.0</ele>
        <time>2017-05-24T14:37:35Z</time>
      </trkpt>
      <trkpt lat="42.968333" lon="-4.277067">
        <ele>2767.0</ele>
        <time>2017-05-24T14:37:36Z</time>
      </trkpt>
      <trkpt lat="42.968300" lon="-4.276983">
        <ele>2768.0</ele>
        <time>2017-05-24T14:37:37Z</time>
      </trkpt>
      <trkpt lat="42.968283" lon="-4.276900">
        <ele>2769.0</ele>
        <time>2017-05-24T14:37:38Z</time>
      </trkpt>
      <trkpt lat="42.968267" lon="-4.276800">
        <ele>2769.0</ele>
        <time>2017-05-24T14:37:39Z</time>
      </trkpt>
      <trkpt lat="42.968250" lon="-4.276683">
        <ele>2769.0</ele>
        <time>2017-05-24T14:37:40Z</time>
      </trkpt>
      <trkpt lat="42.968267" lon="-4.276533">
        <ele>2769.0</ele>
        <time>2017-05-24T14:37:41Z</time>
      </trkpt>
      <trkpt lat="42.968300" lon="-4.276383">
        <ele>2769.0</ele>
        <time>2017-05-24T14:37:42Z</time>
      </trkpt>
      <trkpt lat="42.968350" lon="-4.276233">
        <ele>2770.0</ele>
        <time>2017-05-24T14:37:43Z</time>
      </trkpt>
      <trkpt lat="42.968433" lon="-4.276100">
        <ele>2770.0</ele>
        <time>2017-05-24T14:37:44Z</time>
      </trkpt>
      <trkpt lat="42.968533" lon="-4.276017">
        <ele>2769.0</ele>
        <time>2017-05-24T14:37:45Z</time>
      </trkpt>
      <trkpt lat="42.968650" lon="-4.275950">
        <ele>2768.0</ele>
        <time>2017-05-24T14:37:46Z</time>
      </trkpt>
      <trkpt lat="42.968767" lon="-4.275900">
        <ele>2768.0</ele>
        <time>2017-05-24T14:37:47Z</time>
      </trkpt>
      <trkpt lat="42.968883" lon="-4.275900">
        <ele>2769.0</ele>
        <time>2017-05-24T14:37:48Z</time>
      </trkpt>
      <trkpt lat="42.969000" lon="-4.275917">
        <ele>2770.0</ele>
        <time>2017-05-24T14:37:49Z</time>
      </trkpt>
      <trkpt lat="42.969100" lon="-4.275933">
        <ele>2772.0</ele>
        <time>2017-05-24T14:37:50Z</time>
      </trkpt>
      <trkpt lat="42.969183" lon="-4.275967">
        <ele>2774.0</ele>
        <time>2017-05-24T14:37:51Z</time>
      </trkpt>
      <trkpt lat="42.969283" lon="-4.276000">
        <ele>2776.0</ele>
        <time>2017-05-24T14:37:52Z</time>
      </trkpt>
      <trkpt lat="42.969367" lon="-4.276050">
        <ele>2777.0</ele>
        <time>2017-05-24T14:37:53Z</time>
      </trkpt>
      <trkpt lat="42.969433" lon="-4.276117">
        <ele>2777.0</ele>
        <time>2017-05-24T14:37:54Z</time>
      </trkpt>
      <trkpt lat="42.969483" lon="-4.276200">
        <ele>2778.0</ele>
        <time>2017-05-24T14:37:55Z</time>
      </trkpt>
      <trkpt lat="42.969533" lon="-4.276283">
        <ele>2778.0</ele>
        <time>2017-05-24T14:37:56Z</time>
      </trkpt>
      <trkpt lat="42.969533" lon="-4.276383">
        <ele>2779.0</ele>
        <time>2017-05-24T14:37:57Z</time>
      </trkpt>
      <trkpt lat="42.969533" lon="-4.276467">
        <ele>2781.0</ele>
        <time>2017-05-24T14:37:58Z</time>
      </trkpt>
      <trkpt lat="42.969533" lon="-4.276550">
        <ele>2783.0</ele>
        <time>2017-05-24T14:37:59Z</time>
      </trkpt>
      <trkpt lat="42.969533" lon="-4.276617">
        <ele>2786.0</ele>
        <time>2017-05-24T14:38:00Z</time>
      </trkpt>
      <trkpt lat="42.969533" lon="-4.276683">
        <ele>2788.0</ele>
        <time>2017-05-24T14:38:01Z</time>
      </trkpt>
      <trkpt lat="42.969517" lon="-4.276733">
        <ele>2789.0</ele>
        <time>2017-05-24T14:38:02Z</time>
      </trkpt>
      <trkpt lat="42.969483" lon="-4.276783">
        <ele>2789.0</ele>
        <time>2017-05-24T14:38:03Z</time>
      </trkpt>
      <trkpt lat="42.969433" lon="-4.276817">
        <ele>2790.0</ele>
        <time>2017-05-24T14:38:04Z</time>
      </trkpt>
      <trkpt lat="42.969383" lon="-4.276817">
        <ele>2791.0</ele>
        <time>2017-05-24T14:38:05Z</time>
      </trkpt>
      <trkpt lat="42.969333" lon="-4.276800">
        <ele>2793.0</ele>
        <time>2017-05-24T14:38:06Z</time>
      </trkpt>
      <trkpt lat="42.969300" lon="-4.276750">
        <ele>2795.0</ele>
        <time>2017-05-24T14:38:07Z</time>
      </trkpt>
      <trkpt lat="42.969267" lon="-4.276700">
        <ele>2796.0</ele>
        <time>2017-05-24T14:38:08Z</time>
      </trkpt>
      <trkpt lat="42.969233" lon="-4.276617">
        <ele>2797.0</ele>
        <time>2017-05-24T14:38:09Z</time>
      </trkpt>
      <trkpt lat="42.969217" lon="-4.276483">
        <ele>2797.0</ele>
        <time>2017-05-24T14:38:10Z</time>
      </trkpt>
      <trkpt lat="42.969233" lon="-4.276333">
        <ele>2797.0</ele>
        <time>2017-05-24T14:38:11Z</time>
      </trkpt>
      <trkpt lat="42.969300" lon="-4.276167">
        <ele>2797.0</ele>
        <time>2017-05-24T14:38:12Z</time>
      </trkpt>
      <trkpt lat="42.969367" lon="-4.276050">
        <ele>2798.0</ele>
        <time>2017-05-24T14:38:13Z</time>
      </trkpt>
      <trkpt lat="42.969467" lon="-4.275950">
        <ele>2799.0</ele>
        <time>2017-05-24T14:38:14Z</time>
      </trkpt>
      <trkpt lat="42.969567" lon="-4.275900">
        <ele>2800.0</ele>
        <time>2017-05-24T14:38:15Z</time>
      </trkpt>
      <trkpt lat="42.969667" lon="-4.275883">
        <ele>2801.0</ele>
        <time>2017-05-24T14:38:16Z</time>
      </trkpt>
      <trkpt lat="42.969750" lon="-4.275883">
        <ele>2802.0</ele>
        <time>2017-05-24T14:38:17Z</time>
      </trkpt>
      <trkpt lat="42.969850" lon="-4.275933">
        <ele>2802.0</ele>
        <time>2017-05-24T14:38:18Z</time>
      </trkpt>
      <trkpt lat="42.969917" lon="-4.276000">
        <ele>2802.0</ele>
        <time>2017-05-24T14:38:19Z</time>
      </trkpt>
      <trkpt lat="42.969967" lon="-4.276083">
        <ele>2803.0</ele>
        <time>2017-05-24T14:38:20Z</time>
      </trkpt>
      <trkpt lat="42.969983" lon="-4.276167">
        <ele>2805.0</ele>
        <time>2017-05-24T14:38:21Z</time>
      </trkpt>
      <trkpt lat="42.969983" lon="-4.276233">
        <ele>2806.0</ele>
        <time>2017-05-24T14:38:22Z</time>
      </trkpt>
      <trkpt lat="42.969950" lon="-4.276250">
        <ele>2808.0</ele>
        <time>2017-05-24T14:38:23Z</time>
      </trkpt>
      <trkpt lat="42.969900" lon="-4.276267">
        <ele>2809.0</ele>
        <time>2017-05-24T14:38:24Z</time>
      </trkpt>
      <trkpt lat="42.969867" lon="-4.276267">
        <ele>2810.0</ele>
        <time>2017-05-24T14:38:25Z</time>
      </trkpt>
      <trkpt lat="42.969817" lon="-4.276233">
        <ele>2811.0</ele>
        <time>2017-05-24T14:38:26Z</time>
      </trkpt>
      <trkpt lat="42.969750" lon="-4.276167">
        <ele>2812.0</ele>
        <time>2017-05-24T14:38:27Z</time>
      </trkpt>
      <trkpt lat="42.969717" lon="-4.276083">
        <ele>2812.0</ele>
        <time>2017-05-24T14:38:28Z</time>
      </trkpt>
      <trkpt lat="42.969683" lon="-4.275967">
        <ele>2812.0</ele>
        <time>2017-05-24T14:38:29Z</time>
      </trkpt>
      <trkpt lat="42.969683" lon="-4.275833">
        <ele>2813.0</ele>
        <time>2017-05-24T14:38:30Z</time>
      </trkpt>
      <trkpt lat="42.969700" lon="-4.275683">
        <ele>2813.0</ele>
        <time>2017-05-24T14:38:31Z</time>
      </trkpt>
      <trkpt lat="42.969750" lon="-4.275533">
        <ele>2813.0</ele>
        <time>2017-05-24T14:38:32Z</time>
      </trkpt>
      <trkpt lat="42.969817" lon="-4.275400">
        <ele>2813.0</ele>
        <time>2017-05-24T14:38:33Z</time>
      </trkpt>
      <trkpt lat="42.969900" lon="-4.275283">
        <ele>2814.0</ele>
        <time>2017-05-24T14:38:34Z</time>
      </trkpt>
      <trkpt lat="42.969967" lon="-4.275167">
        <ele>2815.0</ele>
        <time>2017-05-24T14:38:35Z</time>
      </trkpt>
      <trkpt lat="42.970067" lon="-4.275083">
        <ele>2817.0</ele>
        <time>2017-05-24T14:38:36Z</time>
      </trkpt>
      <trkpt lat="42.970167" lon="-4.275033">
        <ele>2817.0</ele>
        <time>2017-05-24T14:38:37Z</time>
      </trkpt>
      <trkpt lat="42.970267" lon="-4.275017">
        <ele>2818.0</ele>
        <time>2017-05-24T14:38:38Z</time>
      </trkpt>
      <trkpt lat="42.970367" lon="-4.275000">
        <ele>2819.0</ele>
        <time>2017-05-24T14:38:39Z</time>
      </trkpt>
      <trkpt lat="42.970467" lon="-4.275033">
        <ele>2821.0</ele>
        <time>2017-05-24T14:38:40Z</time>
      </trkpt>
      <trkpt lat="42.970533" lon="-4.275067">
        <ele>2822.0</ele>
        <time>2017-05-24T14:38:41Z</time>
      </trkpt>
      <trkpt lat="42.970583" lon="-4.275117">
        <ele>2823.0</ele>
        <time>2017-05-24T14:38:42Z</time>
      </trkpt>
      <trkpt lat="42.970633" lon="-4.275183">
        <ele>2822.0</ele>
        <time>2017-05-24T14:38:43Z</time>
      </trkpt>
      <trkpt lat="42.970683" lon="-4.275267">
        <ele>2822.0</ele>
        <time>2017-05-24T14:38:44Z</time>
      </trkpt>
      <trkpt lat="42.970717" lon="-4.275367">
        <ele>2822.0</ele>
        <time>2017-05-24T14:38:45Z</time>
      </trkpt>
      <trkpt lat="42.970733" lon="-4.275467">
        <ele>2824.0</ele>
        <time>2017-05-24T14:38:46Z</time>
      </trkpt>
      <trkpt lat="42.970733" lon="-4.275550">
        <ele>2825.0</ele>
        <time>2017-05-24T14:38:47Z</time>
      </trkpt>
      <trkpt lat="42.970700" lon="-4.275617">
        <ele>2827.0</ele>
        <time>2017-05-24T14:38:48Z</time>
      </trkpt>
      <trkpt lat="42.970650" lon="-4.275650">
        <ele>2828.0</ele>
        <time>2017-05-24T14:38:49Z</time>
      </trkpt>
      <trkpt lat="42.970600" lon="-4.275667">
        <ele>2829.0</ele>
        <time>2017-05-24T14:38:50Z</time>
      </trkpt>
      <trkpt lat="42.970533" lon="-4.275650">
        <ele>2830.0</ele>
        <time>2017-05-24T14:38:51Z</time>
      </trkpt>
      <trkpt lat="42.970483" lon="-4.275617">
        <ele>2831.0</ele>
        <time>2017-05-24T14:38:52Z</time>
      </trkpt>
      <trkpt lat="42.970433" lon="-4.275550">
        <ele>2832.0</ele>
        <time>2017-05-24T14:38:53Z</time>
      </trkpt>
      <trkpt lat="42.970400" lon="-4.275433">
        <ele>2832.0</ele>
        <time>2017-05-24T14:38:54Z</time>
      </trkpt>
      <trkpt lat="42.970367" lon="-4.275317">
        <ele>2832.0</ele>
        <time>2017-05-24T14:38:55Z</time>
      </trkpt>
      <trkpt lat="42.970350" lon="-4.275183">
        <ele>2832.0</ele>
        <time>2017-05-24T14:38:56Z</time>
      </trkpt>
      <trkpt lat="42.970350" lon="-4.275033">
        <ele>2832.0</ele>
        <time>2017-05-24T14:38:57Z</time>
      </trkpt>
      <trkpt lat="42.970367" lon="-4.274883">
        <ele>2832.0</ele>
        <time>2017-05-24T14:38:58Z</time>
      </trkpt>
      <trkpt lat="42.970400" lon="-4.274733">
        <ele>2831.0</ele>
        <time>2017-05-24T14:38:59Z</time>
      </trkpt>
      <trkpt lat="42.970450" lon="-4.274583">
        <ele>2831.0</ele>
        <time>2017-05-24T14:39:00Z</time>
      </trkpt>
      <trkpt lat="42.970533" lon="-4.274450">
        <ele>2830.0</ele>
        <time>2017-05-24T14:39:01Z</time>
      </trkpt>
      <trkpt lat="42.970617" lon="-4.274333">
        <ele>2828.0</ele>
        <time>2017-05-24T14:39:02Z</time>
      </trkpt>
      <trkpt lat="42.970717" lon="-4.274233">
        <ele>2827.0</ele>
        <time>2017-05-24T14:39:03Z</time>
      </trkpt>
      <trkpt lat="42.970850" lon="-4.274183">
        <ele>2825.0</ele>
        <time>2017-05-24T14:39:04Z</time>
      </trkpt>
      <trkpt lat="42.970967" lon="-4.274167">
        <ele>2824.0</ele>
        <time>2017-05-24T14:39:05Z</time>
      </trkpt>
      <trkpt lat="42.971083" lon="-4.274183">
        <ele>2825.0</ele>
        <time>2017-05-24T14:39:06Z</time>
      </trkpt>
      <trkpt lat="42.971200" lon="-4.274233">
        <ele>2826.0</ele>
        <time>2017-05-24T14:39:07Z</time>
      </trkpt>
      <trkpt lat="42.971283" lon="-4.274267">
        <ele>2828.0</ele>
        <time>2017-05-24T14:39:08Z</time>
      </trkpt>
      <trkpt lat="42.971367" lon="-4.274300">
        <ele>2829.0</ele>
        <time>2017-05-24T14:39:09Z</time>
      </trkpt>
      <trkpt lat="42.971433" lon="-4.274333">
        <ele>2830.0</ele>
        <time>2017-05-24T14:39:10Z</time>
      </trkpt>
      <trkpt lat="42.971500" lon="-4.274383">
        <ele>2830.0</ele>
        <time>2017-05-24T14:39:11Z</time>
      </trkpt>
      <trkpt lat="42.971550" lon="-4.274450">
        <ele>2830.0</ele>
        <time>2017-05-24T14:39:12Z</time>
      </trkpt>
      <trkpt lat="42.971600" lon="-4.274533">
        <ele>2830.0</ele>
        <time>2017-05-24T14:39:13Z</time>
      </trkpt>
      <trkpt lat="42.971633" lon="-4.274617">
        <ele>2830.0</ele>
        <time>2017-05-24T14:39:14Z</time>
      </trkpt>
      <trkpt lat="42.971650" lon="-4.274700">
        <ele>2830.0</ele>
        <time>2017-05-24T14:39:15Z</time>
      </trkpt>
      <trkpt lat="42.971683" lon="-4.274783">
        <ele>2831.0</ele>
        <time>2017-05-24T14:39:16Z</time>
      </trkpt>
      <trkpt lat="42.971683" lon="-4.274867">
        <ele>2832.0</ele>
        <time>2017-05-24T14:39:17Z</time>
      </trkpt>
      <trkpt lat="42.971700" lon="-4.274950">
        <ele>2832.0</ele>
        <time>2017-05-24T14:39:18Z</time>
      </trkpt>
      <trkpt lat="42.971717" lon="-4.275017">
        <ele>2834.0</ele>
        <time>2017-05-24T14:39:19Z</time>
      </trkpt>
      <trkpt lat="42.971733" lon="-4.275083">
        <ele>2835.0</ele>
        <time>2017-05-24T14:39:20Z</time>
      </trkpt>
      <trkpt lat="42.971733" lon="-4.275150">
        <ele>2836.0</ele>
        <time>2017-05-24T14:39:21Z</time>
      </trkpt>
      <trkpt lat="42.971717" lon="-4.275217">
        <ele>2837.0</ele>
        <time>2017-05-24T14:39:22Z</time>
      </trkpt>
      <trkpt lat="42.971700" lon="-4.275267">
        <ele>2836.0</ele>
        <time>2017-05-24T14:39:23Z</time>
      </trkpt>
      <trkpt lat="42.971650" lon="-4.275317">
        <ele>2837.0</ele>
        <time>2017-05-24T14:39:24Z</time>
      </trkpt>
      <trkpt lat="42.971633" lon="-4.275367">
        <ele>2837.0</ele>
        <time>2017-05-24T14:39:25Z</time>
      </trkpt>
      <trkpt lat="42.971600" lon="-4.275417">
        <ele>2837.0</ele>
        <time>2017-05-24T14:39:26Z</time>
      </trkpt>
      <trkpt lat="42.971567" lon="-4.275450">
        <ele>2838.0</ele>
        <time>2017-05-24T14:39:27Z</time>
      </trkpt>
      <trkpt lat="42.971533" lon="-4.275483">
        <ele>2838.0</ele>
        <time>2017-05-24T14:39:28Z</time>
      </trkpt>
      <trkpt lat="42.971483" lon="-4.275500">
        <ele>2837.0</ele>
        <time>2017-05-24T14:39:29Z</time>
      </trkpt>
      <trkpt lat="42.971433" lon="-4.275500">
        <ele>2837.0</ele>
        <time>2017-05-24T14:39:30Z</time>
      </trkpt>
      <trkpt lat="42.971383" lon="-4.275500">
        <ele>2837.0</ele>
        <time>2017-05-24T14:39:31Z</time>
      </trkpt>
      <trkpt lat="42.971317" lon="-4.275483">
        <ele>2838.0</ele>
        <time>2017-05-24T14:39:32Z</time>
      </trkpt>
      <trkpt lat="42.971267" lon="-4.275450">
        <ele>2839.0</ele>
        <time>2017-05-24T14:39:33Z</time>
      </trkpt>
      <trkpt lat="42.971200" lon="-4.275417">
        <ele>2839.0</ele>
        <time>2017-05-24T14:39:34Z</time>
      </trkpt>
      <trkpt lat="42.971150" lon="-4.275367">
        <ele>2840.0</ele>
        <time>2017-05-24T14:39:35Z</time>
      </trkpt>
      <trkpt lat="42.971100" lon="-4.275300">
        <ele>2841.0</ele>
        <time>2017-05-24T14:39:36Z</time>
      </trkpt>
      <trkpt lat="42.971067" lon="-4.275250">
        <ele>2841.0</ele>
        <time>2017-05-24T14:39:37Z</time>
      </trkpt>
      <trkpt lat="42.971017" lon="-4.275183">
        <ele>2841.0</ele>
        <time>2017-05-24T14:39:38Z</time>
      </trkpt>
      <trkpt lat="42.970983" lon="-4.275100">
        <ele>2841.0</ele>
        <time>2017-05-24T14:39:39Z</time>
      </trkpt>
      <trkpt lat="42.970950" lon="-4.274967">
        <ele>2840.0</ele>
        <time>2017-05-24T14:39:40Z</time>
      </trkpt>
      <trkpt lat="42.970967" lon="-4.274817">
        <ele>2839.0</ele>
        <time>2017-05-24T14:39:41Z</time>
      </trkpt>
      <trkpt lat="42.970983" lon="-4.274650">
        <ele>2838.0</ele>
        <time>2017-05-24T14:39:42Z</time>
      </trkpt>
      <trkpt lat="42.971033" lon="-4.274517">
        <ele>2838.0</ele>
        <time>2017-05-24T14:39:43Z</time>
      </trkpt>
      <trkpt lat="42.971100" lon="-4.274383">
        <ele>2838.0</ele>
        <time>2017-05-24T14:39:44Z</time>
      </trkpt>
      <trkpt lat="42.971167" lon="-4.274250">
        <ele>2838.0</ele>
        <time>2017-05-24T14:39:45Z</time>
      </trkpt>
      <trkpt lat="42.971233" lon="-4.274133">
        <ele>2838.0</ele>
        <time>2017-05-24T14:39:46Z</time>
      </trkpt>
      <trkpt lat="42.971300" lon="-4.274017">
        <ele>2837.0</ele>
        <time>2017-05-24T14:39:47Z</time>
      </trkpt>
      <trkpt lat="42.971383" lon="-4.273900">
        <ele>2835.0</ele>
        <time>2017-05-24T14:39:48Z</time>
      </trkpt>
      <trkpt lat="42.971483" lon="-4.273800">
        <ele>2833.0</ele>
        <time>2017-05-24T14:39:49Z</time>
      </trkpt>
      <trkpt lat="42.971617" lon="-4.273700">
        <ele>2832.0</ele>
        <time>2017-05-24T14:39:50Z</time>
      </trkpt>
      <trkpt lat="42.971733" lon="-4.273617">
        <ele>2832.0</ele>
        <time>2017-05-24T14:39:51Z</time>
      </trkpt>
      <trkpt lat="42.971867" lon="-4.273533">
        <ele>2836.0</ele>
        <time>2017-05-24T14:39:52Z</time>
      </trkpt>
      <trkpt lat="42.971950" lon="-4.273467">
        <ele>2840.0</ele>
        <time>2017-05-24T14:39:53Z</time>
      </trkpt>
      <trkpt lat="42.972033" lon="-4.273417">
        <ele>2843.0</ele>
        <time>2017-05-24T14:39:54Z</time>
      </trkpt>
      <trkpt lat="42.972117" lon="-4.273367">
        <ele>2845.0</ele>
        <time>2017-05-24T14:39:55Z</time>
      </trkpt>
      <trkpt lat="42.972200" lon="-4.273333">
        <ele>2845.0</ele>
        <time>2017-05-24T14:39:56Z</time>
      </trkpt>
      <trkpt lat="42.972283" lon="-4.273333">
        <ele>2846.0</ele>
        <time>2017-05-24T14:39:57Z</time>
      </trkpt>
      <trkpt lat="42.972350" lon="-4.273367">
        <ele>2846.0</ele>
        <time>2017-05-24T14:39:58Z</time>
      </trkpt>
      <trkpt lat="42.972400" lon="-4.273433">
        <ele>2846.0</ele>
        <time>2017-05-24T14:39:59Z</time>
      </trkpt>
      <trkpt lat="42.972450" lon="-4.273500">
        <ele>2847.0</ele>
        <time>2017-05-24T14:40:00Z</time>
      </trkpt>
      <trkpt lat="42.972483" lon="-4.273550">
        <ele>2849.0</ele>
        <time>2017-05-24T14:40:01Z</time>
      </trkpt>
      <trkpt lat="42.972517" lon="-4.273600">
        <ele>2851.0</ele>
        <time>2017-05-24T14:40:02Z</time>
      </trkpt>
      <trkpt lat="42.972533" lon="-4.273633">
        <ele>2852.0</ele>
        <time>2017-05-24T14:40:03Z</time>
      </trkpt>
      <trkpt lat="42.972567" lon="-4.273667">
        <ele>2852.0</ele>
        <time>2017-05-24T14:40:04Z</time>
      </trkpt>
      <trkpt lat="42.972583" lon="-4.273717">
        <ele>2852.0</ele>
        <time>2017-05-24T14:40:05Z</time>
      </trkpt>
      <trkpt lat="42.972583" lon="-4.273783">
        <ele>2851.0</ele>
        <time>2017-05-24T14:40:06Z</time>
      </trkpt>
      <trkpt lat="42.972583" lon="-4.273850">
        <ele>2851.0</ele>
        <time>2017-05-24T14:40:07Z</time>
      </trkpt>
      <trkpt lat="42.972567" lon="-4.273900">
        <ele>2851.0</ele>
        <time>2017-05-24T14:40:08Z</time>
      </trkpt>
      <trkpt lat="42.972533" lon="-4.273950">
        <ele>2852.0</ele>
        <time>2017-05-24T14:40:09Z</time>
      </trkpt>
      <trkpt lat="42.972517" lon="-4.273983">
        <ele>2853.0</ele>
        <time>2017-05-24T14:40:10Z</time>
      </trkpt>
      <trkpt lat="42.972483" lon="-4.274017">
        <ele>2853.0</ele>
        <time>2017-05-24T14:40:11Z</time>
      </trkpt>
      <trkpt lat="42.972450" lon="-4.274050">
        <ele>2853.0</ele>
        <time>2017-05-24T14:40:12Z</time>
      </trkpt>
      <trkpt lat="42.972417" lon="-4.274083">
        <ele>2854.0</ele>
        <time>2017-05-24T14:40:13Z</time>
      </trkpt>
      <trkpt lat="42.972383" lon="-4.274100">
        <ele>2853.0</ele>
        <time>2017-05-24T14:40:14Z</time>
      </trkpt>
      <trkpt lat="42.972350" lon="-4.274133">
        <ele>2853.0</ele>
        <time>2017-05-24T14:40:15Z</time>
      </trkpt>
      <trkpt lat="42.972300" lon="-4.274167">
        <ele>2852.0</ele>
        <time>2017-05-24T14:40:16Z</time>
      </trkpt>
      <trkpt lat="42.972250" lon="-4.274200">
        <ele>2851.0</ele>
        <time>2017-05-24T14:40:17Z</time>
      </trkpt>
      <trkpt lat="42.972200" lon="-4.274233">
        <ele>2851.0</ele>
        <time>2017-05-24T14:40:18Z</time>
      </trkpt>
      <trkpt lat="42.972150" lon="-4.274233">
        <ele>2852.0</ele>
        <time>2017-05-24T14:40:19Z</time>
      </trkpt>
      <trkpt lat="42.972117" lon="-4.274250">
        <ele>2852.0</ele>
        <time>2017-05-24T14:40:20Z</time>
      </trkpt>
      <trkpt lat="42.972083" lon="-4.274283">
        <ele>2851.0</ele>
        <time>2017-05-24T14:40:21Z</time>
      </trkpt>
      <trkpt lat="42.972050" lon="-4.274300">
        <ele>2850.0</ele>
        <time>2017-05-24T14:40:22Z</time>
      </trkpt>
      <trkpt lat="42.972000" lon="-4.274317">
        <ele>2849.0</ele>
        <time>2017-05-24T14:40:23Z</time>
      </trkpt>
      <trkpt lat="42.971950" lon="-4.274333">
        <ele>2848.0</ele>
        <time>2017-05-24T14:40:24Z</time>
      </trkpt>
      <trkpt lat="42.971883" lon="-4.274333">
        <ele>2849.0</ele>
        <time>2017-05-24T14:40:25Z</time>
      </trkpt>
      <trkpt lat="42.971833" lon="-4.274333">
        <ele>2849.0</ele>
        <time>2017-05-24T14:40:26Z</time>
      </trkpt>
      <trkpt lat="42.971783" lon="-4.274333">
        <ele>2849.0</ele>
        <time>2017-05-24T14:40:27Z</time>
      </trkpt>
      <trkpt lat="42.971733" lon="-4.274333">
        <ele>2849.0</ele>
        <time>2017-05-24T14:40:28Z</time>
      </trkpt>
      <trkpt lat="42.971683" lon="-4.274333">
        <ele>2849.0</ele>
        <time>2017-05-24T14:40:29Z</time>
      </trkpt>
      <trkpt lat="42.971633" lon="-4.274350">
        <ele>2849.0</ele>
        <time>2017-05-24T14:40:30Z</time>
      </trkpt>
      <trkpt lat="42.971583" lon="-4.274367">
        <ele>2849.0</ele>
        <time>2017-05-24T14:40:31Z</time>
      </trkpt>
      <trkpt lat="42.971550" lon="-4.274383">
        <ele>2848.0</ele>
        <time>2017-05-24T14:40:32Z</time>
      </trkpt>
      <trkpt lat="42.971517" lon="-4.274433">
        <ele>2846.0</ele>
        <time>2017-05-24T14:40:33Z</time>
      </trkpt>
      <trkpt lat="42.971483" lon="-4.274483">
        <ele>2846.0</ele>
        <time>2017-05-24T14:40:34Z</time>
      </trkpt>
      <trkpt lat="42.971433" lon="-4.274533">
        <ele>2844.0</ele>
        <time>2017-05-24T14:40:35Z</time>
      </trkpt>
      <trkpt lat="42.971383" lon="-4.274567">
        <ele>2842.0</ele>
        <time>2017-05-24T14:40:36Z</time>
      </trkpt>
      <trkpt lat="42.971317" lon="-4.274600">
        <ele>2842.0</ele>
        <time>2017-05-24T14:40:37Z</time>
      </trkpt>
      <trkpt lat="42.971250" lon="-4.274633">
        <ele>2841.0</ele>
        <time>2017-05-24T14:40:38Z</time>
      </trkpt>
      <trkpt lat="42.971183" lon="-4.274667">
        <ele>2842.0</ele>
        <time>2017-05-24T14:40:39Z</time>
      </trkpt>
      <trkpt lat="42.971133" lon="-4.274700">
        <ele>2841.0</ele>
        <time>2017-05-24T14:40:40Z</time>
      </trkpt>
      <trkpt lat="42.971067" lon="-4.274733">
        <ele>2841.0</ele>
        <time>2017-05-24T14:40:41Z</time>
      </trkpt>
      <trkpt lat="42.971000" lon="-4.274783">
        <ele>2840.0</ele>
        <time>2017-05-24T14:40:42Z</time>
      </trkpt>
      <trkpt lat="42.970917" lon="-4.274817">
        <ele>2840.0</ele>
        <time>2017-05-24T14:40:43Z</time>
      </trkpt>
      <trkpt lat="42.970833" lon="-4.274867">
        <ele>2840.0</ele>
        <time>2017-05-24T14:40:44Z</time>
      </trkpt>
      <trkpt lat="42.970750" lon="-4.274883">
        <ele>2841.0</ele>
        <time>2017-05-24T14:40:45Z</time>
      </trkpt>
      <trkpt lat="42.970683" lon="-4.274900">
        <ele>2843.0</ele>
        <time>2017-05-24T14:40:46Z</time>
      </trkpt>
      <trkpt lat="42.970617" lon="-4.274933">
        <ele>2846.0</ele>
        <time>2017-05-24T14:40:47Z</time>
      </trkpt>
      <trkpt lat="42.970583" lon="-4.274950">
        <ele>2848.0</ele>
        <time>2017-05-24T14:40:48Z</time>
      </trkpt>
      <trkpt lat="42.970583" lon="-4.274967">
        <ele>2850.0</ele>
        <time>2017-05-24T14:40:49Z</time>
      </trkpt>
      <trkpt lat="42.970583" lon="-4.275000">
        <ele>2849.0</ele>
        <time>2017-05-24T14:40:50Z</time>
      </trkpt>
      <trkpt lat="42.970583" lon="-4.275033">
        <ele>2848.0</ele>
        <time>2017-05-24T14:40:51Z</time>
      </trkpt>
      <trkpt lat="42.970583" lon="-4.275100">
        <ele>2848.0</ele>
        <time>2017-05-24T14:40:52Z</time>
      </trkpt>
      <trkpt lat="42.970600" lon="-4.275150">
        <ele>2848.0</ele>
        <time>2017-05-24T14:40:53Z</time>
      </trkpt>
      <trkpt lat="42.970650" lon="-4.275183">
        <ele>2847.0</ele>
        <time>2017-05-24T14:40:54Z</time>
      </trkpt>
      <trkpt lat="42.970733" lon="-4.275167">
        <ele>2845.0</ele>
        <time>2017-05-24T14:40:55Z</time>
      </trkpt>
      <trkpt lat="42.970833" lon="-4.275100">
        <ele>2844.0</ele>
        <time>2017-05-24T14:40:56Z</time>
      </trkpt>
      <trkpt lat="42.970900" lon="-4.274983">
        <ele>2843.0</ele>
        <time>2017-05-24T14:40:57Z</time>
      </trkpt>
      <trkpt lat="42.970950" lon="-4.274867">
        <ele>2843.0</ele>
        <time>2017-05-24T14:40:58Z</time>
      </trkpt>
      <trkpt lat="42.970967" lon="-4.274717">
        <ele>2843.0</ele>
        <time>2017-05-24T14:40:59Z</time>
      </trkpt>
      <trkpt lat="42.970933" lon="-4.274567">
        <ele>2844.0</ele>
        <time>2017-05-24T14:41:00Z</time>
      </trkpt>
      <trkpt lat="42.970917" lon="-4.274433">
        <ele>2846.0</ele>
        <time>2017-05-24T14:41:01Z</time>
      </trkpt>
      <trkpt lat="42.970900" lon="-4.274317">
        <ele>2849.0</ele>
        <time>2017-05-24T14:41:02Z</time>
      </trkpt>
      <trkpt lat="42.970883" lon="-4.274200">
        <ele>2850.0</ele>
        <time>2017-05-24T14:41:03Z</time>
      </trkpt>
      <trkpt lat="42.970867" lon="-4.274100">
        <ele>2850.0</ele>
        <time>2017-05-24T14:41:04Z</time>
      </trkpt>
      <trkpt lat="42.970833" lon="-4.273983">
        <ele>2849.0</ele>
        <time>2017-05-24T14:41:05Z</time>
      </trkpt>
      <trkpt lat="42.970800" lon="-4.273850">
        <ele>2848.0</ele>
        <time>2017-05-24T14:41:06Z</time>
      </trkpt>
      <trkpt lat="42.970733" lon="-4.273767">
        <ele>2848.0</ele>
        <time>2017-05-24T14:41:07Z</time>
      </trkpt>
      <trkpt lat="42.970683" lon="-4.273733">
        <ele>2848.0</ele>
        <time>2017-05-24T14:41:08Z</time>
      </trkpt>
      <trkpt lat="42.970617" lon="-4.273750">
        <ele>2847.0</ele>
        <time>2017-05-24T14:41:09Z</time>
      </trkpt>
      <trkpt lat="42.970583" lon="-4.273833">
        <ele>2847.0</ele>
        <time>2017-05-24T14:41:10Z</time>
      </trkpt>
      <trkpt lat="42.970567" lon="-4.273917">
        <ele>2847.0</ele>
        <time>2017-05-24T14:41:11Z</time>
      </trkpt>
      <trkpt lat="42.970567" lon="-4.273983">
        <ele>2851.0</ele>
        <time>2017-05-24T14:41:12Z</time>
      </trkpt>
      <trkpt lat="42.970567" lon="-4.274033">
        <ele>2853.0</ele>
        <time>2017-05-24T14:41:13Z</time>
      </trkpt>
      <trkpt lat="42.970567" lon="-4.274083">
        <ele>2854.0</ele>
        <time>2017-05-24T14:41:14Z</time>
      </trkpt>
      <trkpt lat="42.970583" lon="-4.274117">
        <ele>2855.0</ele>
        <time>2017-05-24T14:41:15Z</time>
      </trkpt>
      <trkpt lat="42.970583" lon="-4.274167">
        <ele>2855.0</ele>
        <time>2017-05-24T14:41:16Z</time>
      </trkpt>
      <trkpt lat="42.970583" lon="-4.274217">
        <ele>2855.0</ele>
        <time>2017-05-24T14:41:17Z</time>
      </trkpt>
      <trkpt lat="42.970617" lon="-4.274267">
        <ele>2856.0</ele>
        <time>2017-05-24T14:41:18Z</time>
      </trkpt>
      <trkpt lat="42.970650" lon="-4.274300">
        <ele>2856.0</ele>
        <time>2017-05-24T14:41:19Z</time>
      </trkpt>
      <trkpt lat="42.970717" lon="-4.274300">
        <ele>2855.0</ele>
        <time>2017-05-24T14:41:20Z</time>
      </trkpt>
      <trkpt lat="42.970800" lon="-4.274283">
        <ele>2853.0</ele>
        <time>2017-05-24T14:41:21Z</time>
      </trkpt>
      <trkpt lat="42.970883" lon="-4.274233">
        <ele>2849.0</ele>
        <time>2017-05-24T14:41:22Z</time>
      </trkpt>
      <trkpt lat="42.970967" lon="-4.274200">
        <ele>2846.0</ele>
        <time>2017-05-24T14:41:23Z</time>
      </trkpt>
      <trkpt lat="42.971067" lon="-4.274183">
        <ele>2844.0</ele>
        <time>2017-05-24T14:41:24Z</time>
      </trkpt>
      <trkpt lat="42.971150" lon="-4.274200">
        <ele>2841.0</ele>
        <time>2017-05-24T14:41:25Z</time>
      </trkpt>
      <trkpt lat="42.971217" lon="-4.274250">
        <ele>2839.0</ele>
        <time>2017-05-24T14:41:26Z</time>
      </trkpt>
      <trkpt lat="42.971267" lon="-4.274317">
        <ele>2838.0</ele>
        <time>2017-05-24T14:41:27Z</time>
      </trkpt>
      <trkpt lat="42.971317" lon="-4.274400">
        <ele>2837.0</ele>
        <time>2017-05-24T14:41:28Z</time>
      </trkpt>
      <trkpt lat="42.971333" lon="-4.274483">
        <ele>2836.0</ele>
        <time>2017-05-24T14:41:29Z</time>
      </trkpt>
      <trkpt lat="42.971333" lon="-4.274567">
        <ele>2835.0</ele>
        <time>2017-05-24T14:41:30Z</time>
      </trkpt>
      <trkpt lat="42.971317" lon="-4.274633">
        <ele>2833.0</ele>
        <time>2017-05-24T14:41:31Z</time>
      </trkpt>
      <trkpt lat="42.971317" lon="-4.274717">
        <ele>2831.0</ele>
        <time>2017-05-24T14:41:32Z</time>
      </trkpt>
      <trkpt lat="42.971317" lon="-4.274817">
        <ele>2829.0</ele>
        <time>2017-05-24T14:41:33Z</time>
      </trkpt>
      <trkpt lat="42.971300" lon="-4.274917">
        <ele>2826.0</ele>
        <time>2017-05-24T14:41:34Z</time>
      </trkpt>
      <trkpt lat="42.971267" lon="-4.275000">
        <ele>2825.0</ele>
        <time>2017-05-24T14:41:35Z</time>
      </trkpt>
      <trkpt lat="42.971183" lon="-4.275067">
        <ele>2823.0</ele>
        <time>2017-05-24T14:41:36Z</time>
      </trkpt>
      <trkpt lat="42.971100" lon="-4.275083">
        <ele>2822.0</ele>
        <time>2017-05-24T14:41:37Z</time>
      </trkpt>
      <trkpt lat="42.971017" lon="-4.275083">
        <ele>2821.0</ele>
        <time>2017-05-24T14:41:38Z</time>
      </trkpt>
      <trkpt lat="42.970950" lon="-4.275117">
        <ele>2819.0</ele>
        <time>2017-05-24T14:41:39Z</time>
      </trkpt>
      <trkpt lat="42.970883" lon="-4.275167">
        <ele>2818.0</ele>
        <time>2017-05-24T14:41:40Z</time>
      </trkpt>
      <trkpt lat="42.970833" lon="-4.275217">
        <ele>2816.0</ele>
        <time>2017-05-24T14:41:41Z</time>
      </trkpt>
      <trkpt lat="42.970767" lon="-4.275267">
        <ele>2813.0</ele>
        <time>2017-05-24T14:41:42Z</time>
      </trkpt>
      <trkpt lat="42.970683" lon="-4.275317">
        <ele>2810.0</ele>
        <time>2017-05-24T14:41:43Z</time>
      </trkpt>
      <trkpt lat="42.970600" lon="-4.275350">
        <ele>2809.0</ele>
        <time>2017-05-24T14:41:44Z</time>
      </trkpt>
      <trkpt lat="42.970517" lon="-4.275400">
        <ele>2809.0</ele>
        <time>2017-05-24T14:41:45Z</time>
      </trkpt>
      <trkpt lat="42.970433" lon="-4.275450">
        <ele>2809.0</ele>
        <time>2017-05-24T14:41:46Z</time>
      </trkpt>
      <trkpt lat="42.970367" lon="-4.275483">
        <ele>2809.0</ele>
        <time>2017-05-24T14:41:47Z</time>
      </trkpt>
      <trkpt lat="42.970333" lon="-4.275517">
        <ele>2808.0</ele>
        <time>2017-05-24T14:41:48Z</time>
      </trkpt>
      <trkpt lat="42.970317" lon="-4.275583">
        <ele>2805.0</ele>
        <time>2017-05-24T14:41:49Z</time>
      </trkpt>
      <trkpt lat="42.970283" lon="-4.275650">
        <ele>2803.0</ele>
        <time>2017-05-24T14:41:50Z</time>
      </trkpt>
      <trkpt lat="42.970250" lon="-4.275733">
        <ele>2801.0</ele>
        <time>2017-05-24T14:41:51Z</time>
      </trkpt>
      <trkpt lat="42.970217" lon="-4.275800">
        <ele>2800.0</ele>
        <time>2017-05-24T14:41:52Z</time>
      </trkpt>
      <trkpt lat="42.970167" lon="-4.275867">
        <ele>2800.0</ele>
        <time>2017-05-24T14:41:53Z</time>
      </trkpt>
      <trkpt lat="42.970117" lon="-4.275917">
        <ele>2800.0</ele>
        <time>2017-05-24T14:41:54Z</time>
      </trkpt>
      <trkpt lat="42.970050" lon="-4.275950">
        <ele>2799.0</ele>
        <time>2017-05-24T14:41:55Z</time>
      </trkpt>
      <trkpt lat="42.969983" lon="-4.275983">
        <ele>2798.0</ele>
        <time>2017-05-24T14:41:56Z</time>
      </trkpt>
      <trkpt lat="42.969900" lon="-4.275983">
        <ele>2797.0</ele>
        <time>2017-05-24T14:41:57Z</time>
      </trkpt>
      <trkpt lat="42.969833" lon="-4.275967">
        <ele>2796.0</ele>
        <time>2017-05-24T14:41:58Z</time>
      </trkpt>
      <trkpt lat="42.969750" lon="-4.275967">
        <ele>2796.0</ele>
        <time>2017-05-24T14:41:59Z</time>
      </trkpt>
      <trkpt lat="42.969667" lon="-4.275967">
        <ele>2795.0</ele>
        <time>2017-05-24T14:42:00Z</time>
      </trkpt>
      <trkpt lat="42.969600" lon="-4.275950">
        <ele>2794.0</ele>
        <time>2017-05-24T14:42:01Z</time>
      </trkpt>
      <trkpt lat="42.969550" lon="-4.275933">
        <ele>2793.0</ele>
        <time>2017-05-24T14:42:02Z</time>
      </trkpt>
      <trkpt lat="42.969483" lon="-4.275917">
        <ele>2792.0</ele>
        <time>2017-05-24T14:42:03Z</time>
      </trkpt>
      <trkpt lat="42.969417" lon="-4.275917">
        <ele>2790.0</ele>
        <time>2017-05-24T14:42:04Z</time>
      </trkpt>
      <trkpt lat="42.969350" lon="-4.275917">
        <ele>2788.0</ele>
        <time>2017-05-24T14:42:05Z</time>
      </trkpt>
      <trkpt lat="42.969267" lon="-4.275883">
        <ele>2786.0</ele>
        <time>2017-05-24T14:42:06Z</time>
      </trkpt>
      <trkpt lat="42.969183" lon="-4.275850">
        <ele>2785.0</ele>
        <time>2017-05-24T14:42:07Z</time>
      </trkpt>
      <trkpt lat="42.969100" lon="-4.275817">
        <ele>2784.0</ele>
        <time>2017-05-24T14:42:08Z</time>
      </trkpt>
      <trkpt lat="42.969017" lon="-4.275783">
        <ele>2784.0</ele>
        <time>2017-05-24T14:42:09Z</time>
      </trkpt>
      <trkpt lat="42.968933" lon="-4.275750">
        <ele>2783.0</ele>
        <time>2017-05-24T14:42:10Z</time>
      </trkpt>
      <trkpt lat="42.968850" lon="-4.275750">
        <ele>2783.0</ele>
        <time>2017-05-24T14:42:11Z</time>
      </trkpt>
      <trkpt lat="42.968767" lon="-4.275733">
        <ele>2783.0</ele>
        <time>2017-05-24T14:42:12Z</time>
      </trkpt>
      <trkpt lat="42.968683" lon="-4.275733">
        <ele>2782.0</ele>
        <time>2017-05-24T14:42:13Z</time>
      </trkpt>
      <trkpt lat="42.968600" lon="-4.275733">
        <ele>2781.0</ele>
        <time>2017-05-24T14:42:14Z</time>
      </trkpt>
      <trkpt lat="42.968517" lon="-4.275717">
        <ele>2780.0</ele>
        <time>2017-05-24T14:42:15Z</time>
      </trkpt>
      <trkpt lat="42.968417" lon="-4.275667">
        <ele>2779.0</ele>
        <time>2017-05-24T14:42:16Z</time>
      </trkpt>
      <trkpt lat="42.968350" lon="-4.275600">
        <ele>2777.0</ele>
        <time>2017-05-24T14:42:17Z</time>
      </trkpt>
      <trkpt lat="42.968267" lon="-4.275483">
        <ele>2775.0</ele>
        <time>2017-05-24T14:42:18Z</time>
      </trkpt>
      <trkpt lat="42.968183" lon="-4.275367">
        <ele>2774.0</ele>
        <time>2017-05-24T14:42:19Z</time>
      </trkpt>
      <trkpt lat="42.968117" lon="-4.275267">
        <ele>2774.0</ele>
        <time>2017-05-24T14:42:20Z</time>
      </trkpt>
      <trkpt lat="42.968067" lon="-4.275167">
        <ele>2773.0</ele>
        <time>2017-05-24T14:42:21Z</time>
      </trkpt>
      <trkpt lat="42.968000" lon="-4.275083">
        <ele>2771.0</ele>
        <time>2017-05-24T14:42:22Z</time>
      </trkpt>
      <trkpt lat="42.967950" lon="-4.274967">
        <ele>2768.0</ele>
        <time>2017-05-24T14:42:23Z</time>
      </trkpt>
      <trkpt lat="42.967900" lon="-4.274850">
        <ele>2763.0</ele>
        <time>2017-05-24T14:42:24Z</time>
      </trkpt>
      <trkpt lat="42.967833" lon="-4.274700">
        <ele>2759.0</ele>
        <time>2017-05-24T14:42:25Z</time>
      </trkpt>
      <trkpt lat="42.967767" lon="-4.274567">
        <ele>2756.0</ele>
        <time>2017-05-24T14:42:26Z</time>
      </trkpt>
      <trkpt lat="42.967700" lon="-4.274450">
        <ele>2754.0</ele>
        <time>2017-05-24T14:42:27Z</time>
      </trkpt>
      <trkpt lat="42.967633" lon="-4.274367">
        <ele>2752.0</ele>
        <time>2017-05-24T14:42:28Z</time>
      </trkpt>
      <trkpt lat="42.967567" lon="-4.274267">
        <ele>2749.0</ele>
        <time>2017-05-24T14:42:29Z</time>
      </trkpt>
      <trkpt lat="42.967517" lon="-4.274133">
        <ele>2746.0</ele>
        <time>2017-05-24T14:42:30Z</time>
      </trkpt>
      <trkpt lat="42.967450" lon="-4.274000">
        <ele>2742.0</ele>
        <time>2017-05-24T14:42:31Z</time>
      </trkpt>
      <trkpt lat="42.967383" lon="-4.273850">
        <ele>2740.0</ele>
        <time>2017-05-24T14:42:32Z</time>
      </trkpt>
      <trkpt lat="42.967317" lon="-4.273700">
        <ele>2740.0</ele>
        <time>2017-05-24T14:42:33Z</time>
      </trkpt>
      <trkpt lat="42.967283" lon="-4.273567">
        <ele>2740.0</ele>
        <time>2017-05-24T14:42:34Z</time>
      </trkpt>
      <trkpt lat="42.967250" lon="-4.273467">
        <ele>2739.0</ele>
        <time>2017-05-24T14:42:35Z</time>
      </trkpt>
      <trkpt lat="42.967233" lon="-4.273367">
        <ele>2737.0</ele>
        <time>2017-05-24T14:42:36Z</time>
      </trkpt>
      <trkpt lat="42.967200" lon="-4.273283">
        <ele>2733.0</ele>
        <time>2017-05-24T14:42:37Z</time>
      </trkpt>
      <trkpt lat="42.967150" lon="-4.273200">
        <ele>2729.0</ele>
        <time>2017-05-24T14:42:38Z</time>
      </trkpt>
      <trkpt lat="42.967083" lon="-4.273100">
        <ele>2725.0</ele>
        <time>2017-05-24T14:42:39Z</time>
      </trkpt>
      <trkpt lat="42.967017" lon="-4.273017">
        <ele>2721.0</ele>
        <time>2017-05-24T14:42:40Z</time>
      </trkpt>
      <trkpt lat="42.966950" lon="-4.272950">
        <ele>2718.0</ele>
        <time>2017-05-24T14:42:41Z</time>
      </trkpt>
      <trkpt lat="42.966867" lon="-4.272850">
        <ele>2715.0</ele>
        <time>2017-05-24T14:42:42Z</time>
      </trkpt>
      <trkpt lat="42.966800" lon="-4.272733">
        <ele>2713.0</ele>
        <time>2017-05-24T14:42:43Z</time>
      </trkpt>
      <trkpt lat="42.966750" lon="-4.272600">
        <ele>2713.0</ele>
        <time>2017-05-24T14:42:44Z</time>
      </trkpt>
      <trkpt lat="42.966700" lon="-4.272467">
        <ele>2712.0</ele>
        <time>2017-05-24T14:42:45Z</time>
      </trkpt>
      <trkpt lat="42.966650" lon="-4.272317">
        <ele>2710.0</ele>
        <time>2017-05-24T14:42:46Z</time>
      </trkpt>
      <trkpt lat="42.966600" lon="-4.272167">
        <ele>2708.0</ele>
        <time>2017-05-24T14:42:47Z</time>
      </trkpt>
      <trkpt lat="42.966533" lon="-4.272017">
        <ele>2705.0</ele>
        <time>2017-05-24T14:42:48Z</time>
      </trkpt>
      <trkpt lat="42.966467" lon="-4.271833">
        <ele>2702.0</ele>
        <time>2017-05-24T14:42:49Z</time>
      </trkpt>
      <trkpt lat="42.966417" lon="-4.271650">
        <ele>2700.0</ele>
        <time>2017-05-24T14:42:50Z</time>
      </trkpt>
      <trkpt lat="42.966350" lon="-4.271483">
        <ele>2699.0</ele>
        <time>2017-05-24T14:42:51Z</time>
      </trkpt>
      <trkpt lat="42.966300" lon="-4.271300">
        <ele>2697.0</ele>
        <time>2017-05-24T14:42:52Z</time>
      </trkpt>
      <trkpt lat="42.966250" lon="-4.271133">
        <ele>2697.0</ele>
        <time>2017-05-24T14:42:53Z</time>
      </trkpt>
      <trkpt lat="42.966200" lon="-4.270967">
        <ele>2696.0</ele>
        <time>2017-05-24T14:42:54Z</time>
      </trkpt>
      <trkpt lat="42.966167" lon="-4.270800">
        <ele>2695.0</ele>
        <time>2017-05-24T14:42:55Z</time>
      </trkpt>
      <trkpt lat="42.966150" lon="-4.270650">
        <ele>2693.0</ele>
        <time>2017-05-24T14:42:56Z</time>
      </trkpt>
      <trkpt lat="42.966133" lon="-4.270483">
        <ele>2691.0</ele>
        <time>2017-05-24T14:42:57Z</time>
      </trkpt>
      <trkpt lat="42.966100" lon="-4.270333">
        <ele>2688.0</ele>
        <time>2017-05-24T14:42:58Z</time>
      </trkpt>
      <trkpt lat="42.966067" lon="-4.270167">
        <ele>2684.0</ele>
        <time>2017-05-24T14:42:59Z</time>
      </trkpt>
      <trkpt lat="42.966017" lon="-4.270017">
        <ele>2682.0</ele>
        <time>2017-05-24T14:43:00Z</time>
      </trkpt>
      <trkpt lat="42.965983" lon="-4.269883">
        <ele>2681.0</ele>
        <time>2017-05-24T14:43:01Z</time>
      </trkpt>
      <trkpt lat="42.965933" lon="-4.269767">
        <ele>2680.0</ele>
        <time>2017-05-24T14:43:02Z</time>
      </trkpt>
      <trkpt lat="42.965900" lon="-4.269650">
        <ele>2677.0</ele>
        <time>2017-05-24T14:43:03Z</time>
      </trkpt>
      <trkpt lat="42.965850" lon="-4.269500">
        <ele>2674.0</ele>
        <time>2017-05-24T14:43:04Z</time>
      </trkpt>
      <trkpt lat="42.965800" lon="-4.269350">
        <ele>2670.0</ele>
        <time>2017-05-24T14:43:05Z</time>
      </trkpt>
      <trkpt lat="42.965750" lon="-4.269183">
        <ele>2667.0</ele>
        <time>2017-05-24T14:43:06Z</time>
      </trkpt>
      <trkpt lat="42.965700" lon="-4.269050">
        <ele>2665.0</ele>
        <time>2017-05-24T14:43:07Z</time>
      </trkpt>
      <trkpt lat="42.965650" lon="-4.268917">
        <ele>2663.0</ele>
        <time>2017-05-24T14:43:08Z</time>
      </trkpt>
      <trkpt lat="42.965600" lon="-4.268767">
        <ele>2660.0</ele>
        <time>2017-05-24T14:43:09Z</time>
      </trkpt>
      <trkpt lat="42.965550" lon="-4.268633">
        <ele>2656.0</ele>
        <time>2017-05-24T14:43:10Z</time>
      </trkpt>
      <trkpt lat="42.965500" lon="-4.268467">
        <ele>2653.0</ele>
        <time>2017-05-24T14:43:11Z</time>
      </trkpt>
      <trkpt lat="42.965450" lon="-4.268300">
        <ele>2650.0</ele>
        <time>2017-05-24T14:43:12Z</time>
      </trkpt>
      <trkpt lat="42.965417" lon="-4.268150">
        <ele>2648.0</ele>
        <time>2017-05-24T14:43:13Z</time>
      </trkpt>
      <trkpt lat="42.965367" lon="-4.268000">
        <ele>2646.0</ele>
        <time>2017-05-24T14:43:14Z</time>
      </trkpt>
      <trkpt lat="42.965333" lon="-4.267833">
        <ele>2643.0</ele>
        <time>2017-05-24T14:43:15Z</time>
      </trkpt>
      <trkpt lat="42.965300" lon="-4.267683">
        <ele>2640.0</ele>
        <time>2017-05-24T14:43:16Z</time>
      </trkpt>
      <trkpt lat="42.965250" lon="-4.267517">
        <ele>2637.0</ele>
        <time>2017-05-24T14:43:17Z</time>
      </trkpt>
      <trkpt lat="42.965200" lon="-4.267350">
        <ele>2635.0</ele>
        <time>2017-05-24T14:43:18Z</time>
      </trkpt>
      <trkpt lat="42.965150" lon="-4.267183">
        <ele>2634.0</ele>
        <time>2017-05-24T14:43:19Z</time>
      </trkpt>
      <trkpt lat="42.965100" lon="-4.267017">
        <ele>2632.0</ele>
        <time>2017-05-24T14:43:20Z</time>
      </trkpt>
      <trkpt lat="42.965067" lon="-4.266867">
        <ele>2631.0</ele>
        <time>2017-05-24T14:43:21Z</time>
      </trkpt>
      <trkpt lat="42.965033" lon="-4.266700">
        <ele>2630.0</ele>
        <time>2017-05-24T14:43:22Z</time>
      </trkpt>
      <trkpt lat="42.965000" lon="-4.266533">
        <ele>2628.0</ele>
        <time>2017-05-24T14:43:23Z</time>
      </trkpt>
      <trkpt lat="42.964983" lon="-4.266367">
        <ele>2625.0</ele>
        <time>2017-05-24T14:43:24Z</time>
      </trkpt>
      <trkpt lat="42.964950" lon="-4.266183">
        <ele>2623.0</ele>
        <time>2017-05-24T14:43:25Z</time>
      </trkpt>
      <trkpt lat="42.964900" lon="-4.266017">
        <ele>2623.0</ele>
        <time>2017-05-24T14:43:26Z</time>
      </trkpt>
      <trkpt lat="42.964867" lon="-4.265867">
        <ele>2622.0</ele>
        <time>2017-05-24T14:43:27Z</time>
      </trkpt>
      <trkpt lat="42.964850" lon="-4.265717">
        <ele>2622.0</ele>
        <time>2017-05-24T14:43:28Z</time>
      </trkpt>
      <trkpt lat="42.964817" lon="-4.265583">
        <ele>2621.0</ele>
        <time>2017-05-24T14:43:29Z</time>
      </trkpt>
      <trkpt lat="42.964817" lon="-4.265433">
        <ele>2619.0</ele>
        <time>2017-05-24T14:43:30Z</time>
      </trkpt>
      <trkpt lat="42.964783" lon="-4.265300">
        <ele>2616.0</ele>
        <time>2017-05-24T14:43:31Z</time>
      </trkpt>
      <trkpt lat="42.964767" lon="-4.265167">
        <ele>2611.0</ele>
        <time>2017-05-24T14:43:32Z</time>
      </trkpt>
      <trkpt lat="42.964733" lon="-4.265017">
        <ele>2607.0</ele>
        <time>2017-05-24T14:43:33Z</time>
      </trkpt>
      <trkpt lat="42.964717" lon="-4.264850">
        <ele>2603.0</ele>
        <time>2017-05-24T14:43:34Z</time>
      </trkpt>
      <trkpt lat="42.964700" lon="-4.264667">
        <ele>2600.0</ele>
        <time>2017-05-24T14:43:35Z</time>
      </trkpt>
      <trkpt lat="42.964683" lon="-4.264500">
        <ele>2597.0</ele>
        <time>2017-05-24T14:43:36Z</time>
      </trkpt>
      <trkpt lat="42.964667" lon="-4.264333">
        <ele>2595.0</ele>
        <time>2017-05-24T14:43:37Z</time>
      </trkpt>
      <trkpt lat="42.964650" lon="-4.264200">
        <ele>2592.0</ele>
        <time>2017-05-24T14:43:38Z</time>
      </trkpt>
      <trkpt lat="42.964633" lon="-4.264050">
        <ele>2589.0</ele>
        <time>2017-05-24T14:43:39Z</time>
      </trkpt>
      <trkpt lat="42.964600" lon="-4.263900">
        <ele>2586.0</ele>
        <time>2017-05-24T14:43:40Z</time>
      </trkpt>
      <trkpt lat="42.964567" lon="-4.263750">
        <ele>2584.0</ele>
        <time>2017-05-24T14:43:41Z</time>
      </trkpt>
      <trkpt lat="42.964550" lon="-4.263600">
        <ele>2584.0</ele>
        <time>2017-05-24T14:43:42Z</time>
      </trkpt>
      <trkpt lat="42.964550" lon="-4.263467">
        <ele>2584.0</ele>
        <time>2017-05-24T14:43:43Z</time>
      </trkpt>
      <trkpt lat="42.964533" lon="-4.263333">
        <ele>2583.0</ele>
        <time>2017-05-24T14:43:44Z</time>
      </trkpt>
      <trkpt lat="42.964517" lon="-4.263200">
        <ele>2581.0</ele>
        <time>2017-05-24T14:43:45Z</time>
      </trkpt>
      <trkpt lat="42.964517" lon="-4.263050">
        <ele>2578.0</ele>
        <time>2017-05-24T14:43:46Z</time>
      </trkpt>
      <trkpt lat="42.964500" lon="-4.262900">
        <ele>2574.0</ele>
        <time>2017-05-24T14:43:47Z</time>
      </trkpt>
      <trkpt lat="42.964483" lon="-4.262717">
        <ele>2572.0</ele>
        <time>2017-05-24T14:43:48Z</time>
      </trkpt>
      <trkpt lat="42.964450" lon="-4.262550">
        <ele>2571.0</ele>
        <time>2017-05-24T14:43:49Z</time>
      </trkpt>
      <trkpt lat="42.964417" lon="-4.262400">
        <ele>2572.0</ele>
        <time>2017-05-24T14:43:50Z</time>
      </trkpt>
      <trkpt lat="42.964400" lon="-4.262267">
        <ele>2572.0</ele>
        <time>2017-05-24T14:43:51Z</time>
      </trkpt>
      <trkpt lat="42.964383" lon="-4.262133">
        <ele>2572.0</ele>
        <time>2017-05-24T14:43:52Z</time>
      </trkpt>
      <trkpt lat="42.964367" lon="-4.262000">
        <ele>2570.0</ele>
        <time>2017-05-24T14:43:53Z</time>
      </trkpt>
      <trkpt lat="42.964350" lon="-4.261833">
        <ele>2568.0</ele>
        <time>2017-05-24T14:43:54Z</time>
      </trkpt>
      <trkpt lat="42.964317" lon="-4.261667">
        <ele>2566.0</ele>
        <time>2017-05-24T14:43:55Z</time>
      </trkpt>
      <trkpt lat="42.964283" lon="-4.261517">
        <ele>2565.0</ele>
        <time>2017-05-24T14:43:56Z</time>
      </trkpt>
      <trkpt lat="42.964233" lon="-4.261367">
        <ele>2566.0</ele>
        <time>2017-05-24T14:43:57Z</time>
      </trkpt>
      <trkpt lat="42.964217" lon="-4.261233">
        <ele>2567.0</ele>
        <time>2017-05-24T14:43:58Z</time>
      </trkpt>
      <trkpt lat="42.964200" lon="-4.261117">
        <ele>2567.0</ele>
        <time>2017-05-24T14:43:59Z</time>
      </trkpt>
      <trkpt lat="42.964183" lon="-4.261000">
        <ele>2567.0</ele>
        <time>2017-05-24T14:44:00Z</time>
      </trkpt>
      <trkpt lat="42.964150" lon="-4.260883">
        <ele>2565.0</ele>
        <time>2017-05-24T14:44:01Z</time>
      </trkpt>
      <trkpt lat="42.964133" lon="-4.260767">
        <ele>2564.0</ele>
        <time>2017-05-24T14:44:02Z</time>
      </trkpt>
      <trkpt lat="42.964100" lon="-4.260633">
        <ele>2563.0</ele>
        <time>2017-05-24T14:44:03Z</time>
      </trkpt>
      <trkpt lat="42.964083" lon="-4.260500">
        <ele>2562.0</ele>
        <time>2017-05-24T14:44:04Z</time>
      </trkpt>
      <trkpt lat="42.964083" lon="-4.260383">
        <ele>2561.0</ele>
        <time>2017-05-24T14:44:05Z</time>
      </trkpt>
      <trkpt lat="42.964083" lon="-4.260267">
        <ele>2561.0</ele>
        <time>2017-05-24T14:44:06Z</time>
      </trkpt>
      <trkpt lat="42.964067" lon="-4.260133">
        <ele>2559.0</ele>
        <time>2017-05-24T14:44:07Z</time>
      </trkpt>
      <trkpt lat="42.964067" lon="-4.260000">
        <ele>2556.0</ele>
        <time>2017-05-24T14:44:08Z</time>
      </trkpt>
      <trkpt lat="42.964050" lon="-4.259867">
        <ele>2554.0</ele>
        <time>2017-05-24T14:44:09Z</time>
      </trkpt>
      <trkpt lat="42.964033" lon="-4.259733">
        <ele>2553.0</ele>
        <time>2017-05-24T14:44:10Z</time>
      </trkpt>
      <trkpt lat="42.964017" lon="-4.259617">
        <ele>2552.0</ele>
        <time>2017-05-24T14:44:11Z</time>
      </trkpt>
      <trkpt lat="42.964000" lon="-4.259517">
        <ele>2550.0</ele>
        <time>2017-05-24T14:44:12Z</time>
      </trkpt>
      <trkpt lat="42.963983" lon="-4.259400">
        <ele>2547.0</ele>
        <time>2017-05-24T14:44:13Z</time>
      </trkpt>
      <trkpt lat="42.963967" lon="-4.259283">
        <ele>2543.0</ele>
        <time>2017-05-24T14:44:14Z</time>
      </trkpt>
      <trkpt lat="42.963950" lon="-4.259150">
        <ele>2539.0</ele>
        <time>2017-05-24T14:44:15Z</time>
      </trkpt>
      <trkpt lat="42.963917" lon="-4.259017">
        <ele>2536.0</ele>
        <time>2017-05-24T14:44:16Z</time>
      </trkpt>
      <trkpt lat="42.963900" lon="-4.258883">
        <ele>2534.0</ele>
        <time>2017-05-24T14:44:17Z</time>
      </trkpt>
      <trkpt lat="42.963867" lon="-4.258767">
        <ele>2532.0</ele>
        <time>2017-05-24T14:44:18Z</time>
      </trkpt>
      <trkpt lat="42.963850" lon="-4.258667">
        <ele>2530.0</ele>
        <time>2017-05-24T14:44:19Z</time>
      </trkpt>
      <trkpt lat="42.963817" lon="-4.258567">
        <ele>2528.0</ele>
        <time>2017-05-24T14:44:20Z</time>
      </trkpt>
      <trkpt lat="42.963800" lon="-4.258433">
        <ele>2525.0</ele>
        <time>2017-05-24T14:44:21Z</time>
      </trkpt>
      <trkpt lat="42.963783" lon="-4.258300">
        <ele>2522.0</ele>
        <time>2017-05-24T14:44:22Z</time>
      </trkpt>
      <trkpt lat="42.963767" lon="-4.258167">
        <ele>2519.0</ele>
        <time>2017-05-24T14:44:23Z</time>
      </trkpt>
      <trkpt lat="42.963733" lon="-4.258033">
        <ele>2517.0</ele>
        <time>2017-05-24T14:44:24Z</time>
      </trkpt>
      <trkpt lat="42.963717" lon="-4.257917">
        <ele>2515.0</ele>
        <time>2017-05-24T14:44:25Z</time>
      </trkpt>
      <trkpt lat="42.963700" lon="-4.257783">
        <ele>2512.0</ele>
        <time>2017-05-24T14:44:26Z</time>
      </trkpt>
      <trkpt lat="42.963700" lon="-4.257633">
        <ele>2509.0</ele>
        <time>2017-05-24T14:44:27Z</time>
      </trkpt>
      <trkpt lat="42.963683" lon="-4.257500">
        <ele>2506.0</ele>
        <time>2017-05-24T14:44:28Z</time>
      </trkpt>
      <trkpt lat="42.963683" lon="-4.257350">
        <ele>2504.0</ele>
        <time>2017-05-24T14:44:29Z</time>
      </trkpt>
      <trkpt lat="42.963667" lon="-4.257200">
        <ele>2503.0</ele>
        <time>2017-05-24T14:44:30Z</time>
      </trkpt>
      <trkpt lat="42.963667" lon="-4.257067">
        <ele>2502.0</ele>
        <time>2017-05-24T14:44:31Z</time>
      </trkpt>
      <trkpt lat="42.963700" lon="-4.256950">
        <ele>2500.0</ele>
        <time>2017-05-24T14:44:32Z</time>
      </trkpt>
      <trkpt lat="42.963717" lon="-4.256817">
        <ele>2497.0</ele>
        <time>2017-05-24T14:44:33Z</time>
      </trkpt>
      <trkpt lat="42.963733" lon="-4.256683">
        <ele>2494.0</ele>
        <time>2017-05-24T14:44:34Z</time>
      </trkpt>
      <trkpt lat="42.963717" lon="-4.256533">
        <ele>2491.0</ele>
        <time>2017-05-24T14:44:35Z</time>
      </trkpt>
      <trkpt lat="42.963700" lon="-4.256400">
        <ele>2489.0</ele>
        <time>2017-05-24T14:44:36Z</time>
      </trkpt>
      <trkpt lat="42.963683" lon="-4.256250">
        <ele>2488.0</ele>
        <time>2017-05-24T14:44:37Z</time>
      </trkpt>
      <trkpt lat="42.963667" lon="-4.256117">
        <ele>2486.0</ele>
        <time>2017-05-24T14:44:38Z</time>
      </trkpt>
      <trkpt lat="42.963650" lon="-4.255983">
        <ele>2484.0</ele>
        <time>2017-05-24T14:44:39Z</time>
      </trkpt>
      <trkpt lat="42.963633" lon="-4.255833">
        <ele>2481.0</ele>
        <time>2017-05-24T14:44:40Z</time>
      </trkpt>
      <trkpt lat="42.963617" lon="-4.255683">
        <ele>2479.0</ele>
        <time>2017-05-24T14:44:41Z</time>
      </trkpt>
      <trkpt lat="42.963617" lon="-4.255533">
        <ele>2477.0</ele>
        <time>2017-05-24T14:44:42Z</time>
      </trkpt>
      <trkpt lat="42.963600" lon="-4.255383">
        <ele>2476.0</ele>
        <time>2017-05-24T14:44:43Z</time>
      </trkpt>
      <trkpt lat="42.963583" lon="-4.255250">
        <ele>2475.0</ele>
        <time>2017-05-24T14:44:44Z</time>
      </trkpt>
      <trkpt lat="42.963550" lon="-4.255117">
        <ele>2473.0</ele>
        <time>2017-05-24T14:44:45Z</time>
      </trkpt>
      <trkpt lat="42.963533" lon="-4.254983">
        <ele>2471.0</ele>
        <time>2017-05-24T14:44:46Z</time>
      </trkpt>
      <trkpt lat="42.963517" lon="-4.254850">
        <ele>2470.0</ele>
        <time>2017-05-24T14:44:47Z</time>
      </trkpt>
      <trkpt lat="42.963483" lon="-4.254717">
        <ele>2468.0</ele>
        <time>2017-05-24T14:44:48Z</time>
      </trkpt>
      <trkpt lat="42.963467" lon="-4.254583">
        <ele>2466.0</ele>
        <time>2017-05-24T14:44:49Z</time>
      </trkpt>
      <trkpt lat="42.963433" lon="-4.254450">
        <ele>2464.0</ele>
        <time>2017-05-24T14:44:50Z</time>
      </trkpt>
      <trkpt lat="42.963417" lon="-4.254300">
        <ele>2462.0</ele>
        <time>2017-05-24T14:44:51Z</time>
      </trkpt>
      <trkpt lat="42.963383" lon="-4.254167">
        <ele>2460.0</ele>
        <time>2017-05-24T14:44:52Z</time>
      </trkpt>
      <trkpt lat="42.963350" lon="-4.254017">
        <ele>2458.0</ele>
        <time>2017-05-24T14:44:53Z</time>
      </trkpt>
      <trkpt lat="42.963333" lon="-4.253850">
        <ele>2456.0</ele>
        <time>2017-05-24T14:44:54Z</time>
      </trkpt>
      <trkpt lat="42.963300" lon="-4.253700">
        <ele>2454.0</ele>
        <time>2017-05-24T14:44:55Z</time>
      </trkpt>
      <trkpt lat="42.963283" lon="-4.253550">
        <ele>2453.0</ele>
        <time>2017-05-24T14:44:56Z</time>
      </trkpt>
      <trkpt lat="42.963250" lon="-4.253400">
        <ele>2451.0</ele>
        <time>2017-05-24T14:44:57Z</time>
      </trkpt>
      <trkpt lat="42.963217" lon="-4.253250">
        <ele>2448.0</ele>
        <time>2017-05-24T14:44:58Z</time>
      </trkpt>
      <trkpt lat="42.963183" lon="-4.253100">
        <ele>2445.0</ele>
        <time>2017-05-24T14:44:59Z</time>
      </trkpt>
      <trkpt lat="42.963150" lon="-4.252950">
        <ele>2443.0</ele>
        <time>2017-05-24T14:45:00Z</time>
      </trkpt>
      <trkpt lat="42.963100" lon="-4.252817">
        <ele>2441.0</ele>
        <time>2017-05-24T14:45:01Z</time>
      </trkpt>
      <trkpt lat="42.963050" lon="-4.252683">
        <ele>2440.0</ele>
        <time>2017-05-24T14:45:02Z</time>
      </trkpt>
      <trkpt lat="42.963017" lon="-4.252550">
        <ele>2439.0</ele>
        <time>2017-05-24T14:45:03Z</time>
      </trkpt>
      <trkpt lat="42.962983" lon="-4.252433">
        <ele>2437.0</ele>
        <time>2017-05-24T14:45:04Z</time>
      </trkpt>
      <trkpt lat="42.962967" lon="-4.252300">
        <ele>2435.0</ele>
        <time>2017-05-24T14:45:05Z</time>
      </trkpt>
      <trkpt lat="42.962933" lon="-4.252167">
        <ele>2433.0</ele>
        <time>2017-05-24T14:45:06Z</time>
      </trkpt>
      <trkpt lat="42.962917" lon="-4.252017">
        <ele>2430.0</ele>
        <time>2017-05-24T14:45:07Z</time>
      </trkpt>
      <trkpt lat="42.962883" lon="-4.251883">
        <ele>2428.0</ele>
        <time>2017-05-24T14:45:08Z</time>
      </trkpt>
      <trkpt lat="42.962867" lon="-4.251750">
        <ele>2426.0</ele>
        <time>2017-05-24T14:45:09Z</time>
      </trkpt>
      <trkpt lat="42.962833" lon="-4.251617">
        <ele>2425.0</ele>
        <time>2017-05-24T14:45:10Z</time>
      </trkpt>
      <trkpt lat="42.962817" lon="-4.251500">
        <ele>2424.0</ele>
        <time>2017-05-24T14:45:11Z</time>
      </trkpt>
      <trkpt lat="42.962783" lon="-4.251383">
        <ele>2422.0</ele>
        <time>2017-05-24T14:45:12Z</time>
      </trkpt>
      <trkpt lat="42.962767" lon="-4.251267">
        <ele>2420.0</ele>
        <time>2017-05-24T14:45:13Z</time>
      </trkpt>
      <trkpt lat="42.962717" lon="-4.251167">
        <ele>2417.0</ele>
        <time>2017-05-24T14:45:14Z</time>
      </trkpt>
      <trkpt lat="42.962700" lon="-4.251033">
        <ele>2415.0</ele>
        <time>2017-05-24T14:45:15Z</time>
      </trkpt>
      <trkpt lat="42.962667" lon="-4.250917">
        <ele>2413.0</ele>
        <time>2017-05-24T14:45:16Z</time>
      </trkpt>
      <trkpt lat="42.962633" lon="-4.250800">
        <ele>2412.0</ele>
        <time>2017-05-24T14:45:17Z</time>
      </trkpt>
      <trkpt lat="42.962600" lon="-4.250700">
        <ele>2411.0</ele>
        <time>2017-05-24T14:45:18Z</time>
      </trkpt>
      <trkpt lat="42.962567" lon="-4.250600">
        <ele>2409.0</ele>
        <time>2017-05-24T14:45:19Z</time>
      </trkpt>
      <trkpt lat="42.962517" lon="-4.250517">
        <ele>2408.0</ele>
        <time>2017-05-24T14:45:20Z</time>
      </trkpt>
      <trkpt lat="42.962483" lon="-4.250417">
        <ele>2406.0</ele>
        <time>2017-05-24T14:45:21Z</time>
      </trkpt>
      <trkpt lat="42.962450" lon="-4.250300">
        <ele>2405.0</ele>
        <time>2017-05-24T14:45:22Z</time>
      </trkpt>
      <trkpt lat="42.962417" lon="-4.250200">
        <ele>2404.0</ele>
        <time>2017-05-24T14:45:23Z</time>
      </trkpt>
      <trkpt lat="42.962383" lon="-4.250100">
        <ele>2403.0</ele>
        <time>2017-05-24T14:45:24Z</time>
      </trkpt>
      <trkpt lat="42.962350" lon="-4.250000">
        <ele>2401.0</ele>
        <time>2017-05-24T14:45:25Z</time>
      </trkpt>
      <trkpt lat="42.962333" lon="-4.249883">
        <ele>2399.0</ele>
        <time>2017-05-24T14:45:26Z</time>
      </trkpt>
      <trkpt lat="42.962300" lon="-4.249767">
        <ele>2397.0</ele>
        <time>2017-05-24T14:45:27Z</time>
      </trkpt>
      <trkpt lat="42.962267" lon="-4.249667">
        <ele>2394.0</ele>
        <time>2017-05-24T14:45:28Z</time>
      </trkpt>
      <trkpt lat="42.962233" lon="-4.249550">
        <ele>2392.0</ele>
        <time>2017-05-24T14:45:29Z</time>
      </trkpt>
      <trkpt lat="42.962183" lon="-4.249450">
        <ele>2390.0</ele>
        <time>2017-05-24T14:45:30Z</time>
      </trkpt>
      <trkpt lat="42.962150" lon="-4.249333">
        <ele>2388.0</ele>
        <time>2017-05-24T14:45:31Z</time>
      </trkpt>
      <trkpt lat="42.962117" lon="-4.249183">
        <ele>2386.0</ele>
        <time>2017-05-24T14:45:32Z</time>
      </trkpt>
      <trkpt lat="42.962100" lon="-4.249050">
        <ele>2384.0</ele>
        <time>2017-05-24T14:45:33Z</time>
      </trkpt>
      <trkpt lat="42.962083" lon="-4.248900">
        <ele>2383.0</ele>
        <time>2017-05-24T14:45:34Z</time>
      </trkpt>
      <trkpt lat="42.962067" lon="-4.248767">
        <ele>2381.0</ele>
        <time>2017-05-24T14:45:35Z</time>
      </trkpt>
      <trkpt lat="42.962067" lon="-4.248633">
        <ele>2379.0</ele>
        <time>2017-05-24T14:45:36Z</time>
      </trkpt>
      <trkpt lat="42.962050" lon="-4.248483">
        <ele>2377.0</ele>
        <time>2017-05-24T14:45:37Z</time>
      </trkpt>
      <trkpt lat="42.962033" lon="-4.248333">
        <ele>2374.0</ele>
        <time>2017-05-24T14:45:38Z</time>
      </trkpt>
      <trkpt lat="42.962033" lon="-4.248183">
        <ele>2372.0</ele>
        <time>2017-05-24T14:45:39Z</time>
      </trkpt>
      <trkpt lat="42.962017" lon="-4.248033">
        <ele>2370.0</ele>
        <time>2017-05-24T14:45:40Z</time>
      </trkpt>
      <trkpt lat="42.962017" lon="-4.247883">
        <ele>2368.0</ele>
        <time>2017-05-24T14:45:41Z</time>
      </trkpt>
      <trkpt lat="42.962017" lon="-4.247750">
        <ele>2367.0</ele>
        <time>2017-05-24T14:45:42Z</time>
      </trkpt>
      <trkpt lat="42.962017" lon="-4.247600">
        <ele>2365.0</ele>
        <time>2017-05-24T14:45:43Z</time>
      </trkpt>
      <trkpt lat="42.962017" lon="-4.247450">
        <ele>2362.0</ele>
        <time>2017-05-24T14:45:44Z</time>
      </trkpt>
      <trkpt lat="42.962000" lon="-4.247300">
        <ele>2360.0</ele>
        <time>2017-05-24T14:45:45Z</time>
      </trkpt>
      <trkpt lat="42.962000" lon="-4.247150">
        <ele>2358.0</ele>
        <time>2017-05-24T14:45:46Z</time>
      </trkpt>
      <trkpt lat="42.962000" lon="-4.246983">
        <ele>2355.0</ele>
        <time>2017-05-24T14:45:47Z</time>
      </trkpt>
      <trkpt lat="42.962000" lon="-4.246833">
        <ele>2352.0</ele>
        <time>2017-05-24T14:45:48Z</time>
      </trkpt>
      <trkpt lat="42.961983" lon="-4.246667">
        <ele>2349.0</ele>
        <time>2017-05-24T14:45:49Z</time>
      </trkpt>
      <trkpt lat="42.961967" lon="-4.246517">
        <ele>2346.0</ele>
        <time>2017-05-24T14:45:50Z</time>
      </trkpt>
      <trkpt lat="42.961967" lon="-4.246350">
        <ele>2343.0</ele>
        <time>2017-05-24T14:45:51Z</time>
      </trkpt>
      <trkpt lat="42.961967" lon="-4.246183">
        <ele>2341.0</ele>
        <time>2017-05-24T14:45:52Z</time>
      </trkpt>
      <trkpt lat="42.961967" lon="-4.246033">
        <ele>2338.0</ele>
        <time>2017-05-24T14:45:53Z</time>
      </trkpt>
      <trkpt lat="42.961950" lon="-4.245867">
        <ele>2336.0</ele>
        <time>2017-05-24T14:45:54Z</time>
      </trkpt>
      <trkpt lat="42.961950" lon="-4.245717">
        <ele>2334.0</ele>
        <time>2017-05-24T14:45:55Z</time>
      </trkpt>
      <trkpt lat="42.961917" lon="-4.245550">
        <ele>2331.0</ele>
        <time>2017-05-24T14:45:56Z</time>
      </trkpt>
      <trkpt lat="42.961883" lon="-4.245383">
        <ele>2330.0</ele>
        <time>2017-05-24T14:45:57Z</time>
      </trkpt>
      <trkpt lat="42.961850" lon="-4.245217">
        <ele>2328.0</ele>
        <time>2017-05-24T14:45:58Z</time>
      </trkpt>
      <trkpt lat="42.961817" lon="-4.245083">
        <ele>2328.0</ele>
        <time>2017-05-24T14:45:59Z</time>
      </trkpt>
      <trkpt lat="42.961783" lon="-4.244933">
        <ele>2327.0</ele>
        <time>2017-05-24T14:46:00Z</time>
      </trkpt>
      <trkpt lat="42.961767" lon="-4.244800">
        <ele>2326.0</ele>
        <time>2017-05-24T14:46:01Z</time>
      </trkpt>
      <trkpt lat="42.961733" lon="-4.244667">
        <ele>2324.0</ele>
        <time>2017-05-24T14:46:02Z</time>
      </trkpt>
      <trkpt lat="42.961700" lon="-4.244500">
        <ele>2321.0</ele>
        <time>2017-05-24T14:46:03Z</time>
      </trkpt>
      <trkpt lat="42.961667" lon="-4.244350">
        <ele>2319.0</ele>
        <time>2017-05-24T14:46:04Z</time>
      </trkpt>
      <trkpt lat="42.961633" lon="-4.244200">
        <ele>2318.0</ele>
        <time>2017-05-24T14:46:05Z</time>
      </trkpt>
      <trkpt lat="42.961600" lon="-4.244067">
        <ele>2317.0</ele>
        <time>2017-05-24T14:46:06Z</time>
      </trkpt>
      <trkpt lat="42.961583" lon="-4.243933">
        <ele>2316.0</ele>
        <time>2017-05-24T14:46:07Z</time>
      </trkpt>
      <trkpt lat="42.961567" lon="-4.243800">
        <ele>2314.0</ele>
        <time>2017-05-24T14:46:08Z</time>
      </trkpt>
      <trkpt lat="42.961583" lon="-4.243633">
        <ele>2311.0</ele>
        <time>2017-05-24T14:46:09Z</time>
      </trkpt>
      <trkpt lat="42.961600" lon="-4.243483">
        <ele>2308.0</ele>
        <time>2017-05-24T14:46:10Z</time>
      </trkpt>
      <trkpt lat="42.961633" lon="-4.243317">
        <ele>2307.0</ele>
        <time>2017-05-24T14:46:11Z</time>
      </trkpt>
      <trkpt lat="42.961683" lon="-4.243183">
        <ele>2306.0</ele>
        <time>2017-05-24T14:46:12Z</time>
      </trkpt>
      <trkpt lat="42.961733" lon="-4.243067">
        <ele>2305.0</ele>
        <time>2017-05-24T14:46:13Z</time>
      </trkpt>
      <trkpt lat="42.961783" lon="-4.242967">
        <ele>2304.0</ele>
        <time>2017-05-24T14:46:14Z</time>
      </trkpt>
      <trkpt lat="42.961817" lon="-4.242850">
        <ele>2300.0</ele>
        <time>2017-05-24T14:46:15Z</time>
      </trkpt>
      <trkpt lat="42.961817" lon="-4.242717">
        <ele>2297.0</ele>
        <time>2017-05-24T14:46:16Z</time>
      </trkpt>
      <trkpt lat="42.961783" lon="-4.242583">
        <ele>2293.0</ele>
        <time>2017-05-24T14:46:17Z</time>
      </trkpt>
      <trkpt lat="42.961717" lon="-4.242467">
        <ele>2290.0</ele>
        <time>2017-05-24T14:46:18Z</time>
      </trkpt>
      <trkpt lat="42.961683" lon="-4.242333">
        <ele>2288.0</ele>
        <time>2017-05-24T14:46:19Z</time>
      </trkpt>
      <trkpt lat="42.961650" lon="-4.242200">
        <ele>2286.0</ele>
        <time>2017-05-24T14:46:20Z</time>
      </trkpt>
      <trkpt lat="42.961633" lon="-4.242050">
        <ele>2284.0</ele>
        <time>2017-05-24T14:46:21Z</time>
      </trkpt>
      <trkpt lat="42.961600" lon="-4.241917">
        <ele>2283.0</ele>
        <time>2017-05-24T14:46:22Z</time>
      </trkpt>
      <trkpt lat="42.961550" lon="-4.241800">
        <ele>2281.0</ele>
        <time>2017-05-24T14:46:23Z</time>
      </trkpt>
      <trkpt lat="42.961500" lon="-4.241667">
        <ele>2279.0</ele>
        <time>2017-05-24T14:46:24Z</time>
      </trkpt>
      <trkpt lat="42.961467" lon="-4.241550">
        <ele>2277.0</ele>
        <time>2017-05-24T14:46:25Z</time>
      </trkpt>
      <trkpt lat="42.961433" lon="-4.241417">
        <ele>2274.0</ele>
        <time>2017-05-24T14:46:26Z</time>
      </trkpt>
      <trkpt lat="42.961383" lon="-4.241283">
        <ele>2272.0</ele>
        <time>2017-05-24T14:46:27Z</time>
      </trkpt>
      <trkpt lat="42.961333" lon="-4.241167">
        <ele>2269.0</ele>
        <time>2017-05-24T14:46:28Z</time>
      </trkpt>
      <trkpt lat="42.961300" lon="-4.241050">
        <ele>2267.0</ele>
        <time>2017-05-24T14:46:29Z</time>
      </trkpt>
      <trkpt lat="42.961250" lon="-4.240933">
        <ele>2264.0</ele>
        <time>2017-05-24T14:46:30Z</time>
      </trkpt>
      <trkpt lat="42.961183" lon="-4.240817">
        <ele>2262.0</ele>
        <time>2017-05-24T14:46:31Z</time>
      </trkpt>
      <trkpt lat="42.961117" lon="-4.240717">
        <ele>2260.0</ele>
        <time>2017-05-24T14:46:32Z</time>
      </trkpt>
      <trkpt lat="42.961050" lon="-4.240600">
        <ele>2257.0</ele>
        <time>2017-05-24T14:46:33Z</time>
      </trkpt>
      <trkpt lat="42.961000" lon="-4.240483">
        <ele>2256.0</ele>
        <time>2017-05-24T14:46:34Z</time>
      </trkpt>
      <trkpt lat="42.960950" lon="-4.240367">
        <ele>2254.0</ele>
        <time>2017-05-24T14:46:35Z</time>
      </trkpt>
      <trkpt lat="42.960917" lon="-4.240233">
        <ele>2253.0</ele>
        <time>2017-05-24T14:46:36Z</time>
      </trkpt>
      <trkpt lat="42.960867" lon="-4.240100">
        <ele>2251.0</ele>
        <time>2017-05-24T14:46:37Z</time>
      </trkpt>
      <trkpt lat="42.960833" lon="-4.239967">
        <ele>2249.0</ele>
        <time>2017-05-24T14:46:38Z</time>
      </trkpt>
      <trkpt lat="42.960800" lon="-4.239817">
        <ele>2247.0</ele>
        <time>2017-05-24T14:46:39Z</time>
      </trkpt>
      <trkpt lat="42.960750" lon="-4.239683">
        <ele>2245.0</ele>
        <time>2017-05-24T14:46:40Z</time>
      </trkpt>
      <trkpt lat="42.960717" lon="-4.239533">
        <ele>2244.0</ele>
        <time>2017-05-24T14:46:41Z</time>
      </trkpt>
      <trkpt lat="42.960683" lon="-4.239400">
        <ele>2242.0</ele>
        <time>2017-05-24T14:46:42Z</time>
      </trkpt>
      <trkpt lat="42.960650" lon="-4.239267">
        <ele>2240.0</ele>
        <time>2017-05-24T14:46:43Z</time>
      </trkpt>
      <trkpt lat="42.960617" lon="-4.239117">
        <ele>2238.0</ele>
        <time>2017-05-24T14:46:44Z</time>
      </trkpt>
      <trkpt lat="42.960583" lon="-4.238983">
        <ele>2235.0</ele>
        <time>2017-05-24T14:46:45Z</time>
      </trkpt>
      <trkpt lat="42.960550" lon="-4.238833">
        <ele>2233.0</ele>
        <time>2017-05-24T14:46:46Z</time>
      </trkpt>
      <trkpt lat="42.960517" lon="-4.238683">
        <ele>2231.0</ele>
        <time>2017-05-24T14:46:47Z</time>
      </trkpt>
      <trkpt lat="42.960467" lon="-4.238533">
        <ele>2228.0</ele>
        <time>2017-05-24T14:46:48Z</time>
      </trkpt>
      <trkpt lat="42.960450" lon="-4.238383">
        <ele>2227.0</ele>
        <time>2017-05-24T14:46:49Z</time>
      </trkpt>
      <trkpt lat="42.960417" lon="-4.238233">
        <ele>2225.0</ele>
        <time>2017-05-24T14:46:50Z</time>
      </trkpt>
      <trkpt lat="42.960383" lon="-4.238083">
        <ele>2222.0</ele>
        <time>2017-05-24T14:46:51Z</time>
      </trkpt>
      <trkpt lat="42.960350" lon="-4.237950">
        <ele>2220.0</ele>
        <time>2017-05-24T14:46:52Z</time>
      </trkpt>
      <trkpt lat="42.960317" lon="-4.237800">
        <ele>2217.0</ele>
        <time>2017-05-24T14:46:53Z</time>
      </trkpt>
      <trkpt lat="42.960283" lon="-4.237650">
        <ele>2215.0</ele>
        <time>2017-05-24T14:46:54Z</time>
      </trkpt>
      <trkpt lat="42.960250" lon="-4.237500">
        <ele>2213.0</ele>
        <time>2017-05-24T14:46:55Z</time>
      </trkpt>
      <trkpt lat="42.960217" lon="-4.237350">
        <ele>2212.0</ele>
        <time>2017-05-24T14:46:56Z</time>
      </trkpt>
      <trkpt lat="42.960183" lon="-4.237217">
        <ele>2211.0</ele>
        <time>2017-05-24T14:46:57Z</time>
      </trkpt>
      <trkpt lat="42.960150" lon="-4.237083">
        <ele>2209.0</ele>
        <time>2017-05-24T14:46:58Z</time>
      </trkpt>
      <trkpt lat="42.960117" lon="-4.236950">
        <ele>2207.0</ele>
        <time>2017-05-24T14:46:59Z</time>
      </trkpt>
      <trkpt lat="42.960083" lon="-4.236817">
        <ele>2204.0</ele>
        <time>2017-05-24T14:47:00Z</time>
      </trkpt>
      <trkpt lat="42.960067" lon="-4.236667">
        <ele>2202.0</ele>
        <time>2017-05-24T14:47:01Z</time>
      </trkpt>
      <trkpt lat="42.960033" lon="-4.236517">
        <ele>2200.0</ele>
        <time>2017-05-24T14:47:02Z</time>
      </trkpt>
      <trkpt lat="42.960000" lon="-4.236383">
        <ele>2200.0</ele>
        <time>2017-05-24T14:47:03Z</time>
      </trkpt>
      <trkpt lat="42.959967" lon="-4.236267">
        <ele>2200.0</ele>
        <time>2017-05-24T14:47:04Z</time>
      </trkpt>
      <trkpt lat="42.959950" lon="-4.236150">
        <ele>2199.0</ele>
        <time>2017-05-24T14:47:05Z</time>
      </trkpt>
      <trkpt lat="42.959933" lon="-4.236033">
        <ele>2198.0</ele>
        <time>2017-05-24T14:47:06Z</time>
      </trkpt>
      <trkpt lat="42.959933" lon="-4.235917">
        <ele>2196.0</ele>
        <time>2017-05-24T14:47:07Z</time>
      </trkpt>
      <trkpt lat="42.959917" lon="-4.235800">
        <ele>2194.0</ele>
        <time>2017-05-24T14:47:08Z</time>
      </trkpt>
      <trkpt lat="42.959900" lon="-4.235650">
        <ele>2192.0</ele>
        <time>2017-05-24T14:47:09Z</time>
      </trkpt>
      <trkpt lat="42.959883" lon="-4.235517">
        <ele>2191.0</ele>
        <time>2017-05-24T14:47:10Z</time>
      </trkpt>
      <trkpt lat="42.959883" lon="-4.235400">
        <ele>2190.0</ele>
        <time>2017-05-24T14:47:11Z</time>
      </trkpt>
      <trkpt lat="42.959867" lon="-4.235283">
        <ele>2190.0</ele>
        <time>2017-05-24T14:47:12Z</time>
      </trkpt>
      <trkpt lat="42.959867" lon="-4.235150">
        <ele>2189.0</ele>
        <time>2017-05-24T14:47:13Z</time>
      </trkpt>
      <trkpt lat="42.959850" lon="-4.235033">
        <ele>2187.0</ele>
        <time>2017-05-24T14:47:14Z</time>
      </trkpt>
      <trkpt lat="42.959850" lon="-4.234900">
        <ele>2185.0</ele>
        <time>2017-05-24T14:47:15Z</time>
      </trkpt>
      <trkpt lat="42.959833" lon="-4.234767">
        <ele>2184.0</ele>
        <time>2017-05-24T14:47:16Z</time>
      </trkpt>
      <trkpt lat="42.959833" lon="-4.234650">
        <ele>2183.0</ele>
        <time>2017-05-24T14:47:17Z</time>
      </trkpt>
      <trkpt lat="42.959817" lon="-4.234533">
        <ele>2182.0</ele>
        <time>2017-05-24T14:47:18Z</time>
      </trkpt>
      <trkpt lat="42.959800" lon="-4.234400">
        <ele>2181.0</ele>
        <time>2017-05-24T14:47:19Z</time>
      </trkpt>
      <trkpt lat="42.959783" lon="-4.234283">
        <ele>2180.0</ele>
        <time>2017-05-24T14:47:20Z</time>
      </trkpt>
      <trkpt lat="42.959767" lon="-4.234150">
        <ele>2180.0</ele>
        <time>2017-05-24T14:47:21Z</time>
      </trkpt>
      <trkpt lat="42.959750" lon="-4.234033">
        <ele>2180.0</ele>
        <time>2017-05-24T14:47:22Z</time>
      </trkpt>
      <trkpt lat="42.959733" lon="-4.233917">
        <ele>2179.0</ele>
        <time>2017-05-24T14:47:23Z</time>
      </trkpt>
      <trkpt lat="42.959733" lon="-4.233817">
        <ele>2179.0</ele>
        <time>2017-05-24T14:47:24Z</time>
      </trkpt>
      <trkpt lat="42.959717" lon="-4.233700">
        <ele>2178.0</ele>
        <time>2017-05-24T14:47:25Z</time>
      </trkpt>
      <trkpt lat="42.959717" lon="-4.233583">
        <ele>2176.0</ele>
        <time>2017-05-24T14:47:26Z</time>
      </trkpt>
      <trkpt lat="42.959700" lon="-4.233467">
        <ele>2175.0</ele>
        <time>2017-05-24T14:47:27Z</time>
      </trkpt>
      <trkpt lat="42.959683" lon="-4.233317">
        <ele>2173.0</ele>
        <time>2017-05-24T14:47:28Z</time>
      </trkpt>
      <trkpt lat="42.959667" lon="-4.233200">
        <ele>2173.0</ele>
        <time>2017-05-24T14:47:29Z</time>
      </trkpt>
      <trkpt lat="42.959650" lon="-4.233067">
        <ele>2174.0</ele>
        <time>2017-05-24T14:47:30Z</time>
      </trkpt>
      <trkpt lat="42.959650" lon="-4.232967">
        <ele>2174.0</ele>
        <time>2017-05-24T14:47:31Z</time>
      </trkpt>
      <trkpt lat="42.959633" lon="-4.232867">
        <ele>2174.0</ele>
        <time>2017-05-24T14:47:32Z</time>
      </trkpt>
      <trkpt lat="42.959633" lon="-4.232750">
        <ele>2173.0</ele>
        <time>2017-05-24T14:47:33Z</time>
      </trkpt>
      <trkpt lat="42.959600" lon="-4.232633">
        <ele>2171.0</ele>
        <time>2017-05-24T14:47:34Z</time>
      </trkpt>
      <trkpt lat="42.959583" lon="-4.232517">
        <ele>2170.0</ele>
        <time>2017-05-24T14:47:35Z</time>
      </trkpt>
      <trkpt lat="42.959567" lon="-4.232400">
        <ele>2169.0</ele>
        <time>2017-05-24T14:47:36Z</time>
      </trkpt>
      <trkpt lat="42.959567" lon="-4.232283">
        <ele>2168.0</ele>
        <time>2017-05-24T14:47:37Z</time>
      </trkpt>
      <trkpt lat="42.959550" lon="-4.232183">
        <ele>2168.0</ele>
        <time>2017-05-24T14:47:38Z</time>
      </trkpt>
      <trkpt lat="42.959550" lon="-4.232067">
        <ele>2166.0</ele>
        <time>2017-05-24T14:47:39Z</time>
      </trkpt>
      <trkpt lat="42.959550" lon="-4.231950">
        <ele>2165.0</ele>
        <time>2017-05-24T14:47:40Z</time>
      </trkpt>
      <trkpt lat="42.959533" lon="-4.231833">
        <ele>2163.0</ele>
        <time>2017-05-24T14:47:41Z</time>
      </trkpt>
      <trkpt lat="42.959500" lon="-4.231717">
        <ele>2162.0</ele>
        <time>2017-05-24T14:47:42Z</time>
      </trkpt>
      <trkpt lat="42.959483" lon="-4.231617">
        <ele>2161.0</ele>
        <time>2017-05-24T14:47:43Z</time>
      </trkpt>
      <trkpt lat="42.959467" lon="-4.231533">
        <ele>2160.0</ele>
        <time>2017-05-24T14:47:44Z</time>
      </trkpt>
      <trkpt lat="42.959450" lon="-4.231433">
        <ele>2158.0</ele>
        <time>2017-05-24T14:47:45Z</time>
      </trkpt>
      <trkpt lat="42.959433" lon="-4.231333">
        <ele>2156.0</ele>
        <time>2017-05-24T14:47:46Z</time>
      </trkpt>
      <trkpt lat="42.959417" lon="-4.231250">
        <ele>2154.0</ele>
        <time>2017-05-24T14:47:47Z</time>
      </trkpt>
      <trkpt lat="42.959383" lon="-4.231150">
        <ele>2152.0</ele>
        <time>2017-05-24T14:47:48Z</time>
      </trkpt>
      <trkpt lat="42.959350" lon="-4.231067">
        <ele>2150.0</ele>
        <time>2017-05-24T14:47:49Z</time>
      </trkpt>
      <trkpt lat="42.959317" lon="-4.231000">
        <ele>2149.0</ele>
        <time>2017-05-24T14:47:50Z</time>
      </trkpt>
      <trkpt lat="42.959300" lon="-4.230917">
        <ele>2147.0</ele>
        <time>2017-05-24T14:47:51Z</time>
      </trkpt>
      <trkpt lat="42.959267" lon="-4.230817">
        <ele>2145.0</ele>
        <time>2017-05-24T14:47:52Z</time>
      </trkpt>
      <trkpt lat="42.959250" lon="-4.230717">
        <ele>2143.0</ele>
        <time>2017-05-24T14:47:53Z</time>
      </trkpt>
      <trkpt lat="42.959233" lon="-4.230600">
        <ele>2141.0</ele>
        <time>2017-05-24T14:47:54Z</time>
      </trkpt>
      <trkpt lat="42.959200" lon="-4.230500">
        <ele>2139.0</ele>
        <time>2017-05-24T14:47:55Z</time>
      </trkpt>
      <trkpt lat="42.959183" lon="-4.230400">
        <ele>2138.0</ele>
        <time>2017-05-24T14:47:56Z</time>
      </trkpt>
      <trkpt lat="42.959167" lon="-4.230300">
        <ele>2137.0</ele>
        <time>2017-05-24T14:47:57Z</time>
      </trkpt>
      <trkpt lat="42.959150" lon="-4.230200">
        <ele>2137.0</ele>
        <time>2017-05-24T14:47:58Z</time>
      </trkpt>
      <trkpt lat="42.959117" lon="-4.230117">
        <ele>2135.0</ele>
        <time>2017-05-24T14:47:59Z</time>
      </trkpt>
      <trkpt lat="42.959100" lon="-4.230017">
        <ele>2134.0</ele>
        <time>2017-05-24T14:48:00Z</time>
      </trkpt>
      <trkpt lat="42.959083" lon="-4.229933">
        <ele>2131.0</ele>
        <time>2017-05-24T14:48:01Z</time>
      </trkpt>
      <trkpt lat="42.959067" lon="-4.229833">
        <ele>2129.0</ele>
        <time>2017-05-24T14:48:02Z</time>
      </trkpt>
      <trkpt lat="42.959033" lon="-4.229750">
        <ele>2127.0</ele>
        <time>2017-05-24T14:48:03Z</time>
      </trkpt>
      <trkpt lat="42.959017" lon="-4.229667">
        <ele>2124.0</ele>
        <time>2017-05-24T14:48:04Z</time>
      </trkpt>
      <trkpt lat="42.958983" lon="-4.229583">
        <ele>2122.0</ele>
        <time>2017-05-24T14:48:05Z</time>
      </trkpt>
      <trkpt lat="42.958967" lon="-4.229500">
        <ele>2120.0</ele>
        <time>2017-05-24T14:48:06Z</time>
      </trkpt>
      <trkpt lat="42.958933" lon="-4.229417">
        <ele>2117.0</ele>
        <time>2017-05-24T14:48:07Z</time>
      </trkpt>
      <trkpt lat="42.958900" lon="-4.229333">
        <ele>2115.0</ele>
        <time>2017-05-24T14:48:08Z</time>
      </trkpt>
      <trkpt lat="42.958867" lon="-4.229250">
        <ele>2114.0</ele>
        <time>2017-05-24T14:48:09Z</time>
      </trkpt>
      <trkpt lat="42.958833" lon="-4.229167">
        <ele>2112.0</ele>
        <time>2017-05-24T14:48:10Z</time>
      </trkpt>
      <trkpt lat="42.958800" lon="-4.229083">
        <ele>2109.0</ele>
        <time>2017-05-24T14:48:11Z</time>
      </trkpt>
      <trkpt lat="42.958767" lon="-4.229017">
        <ele>2107.0</ele>
        <time>2017-05-24T14:48:12Z</time>
      </trkpt>
      <trkpt lat="42.958717" lon="-4.228933">
        <ele>2104.0</ele>
        <time>2017-05-24T14:48:13Z</time>
      </trkpt>
      <trkpt lat="42.958683" lon="-4.228867">
        <ele>2102.0</ele>
        <time>2017-05-24T14:48:14Z</time>
      </trkpt>
      <trkpt lat="42.958633" lon="-4.228800">
        <ele>2100.0</ele>
        <time>2017-05-24T14:48:15Z</time>
      </trkpt>
      <trkpt lat="42.958600" lon="-4.228750">
        <ele>2097.0</ele>
        <time>2017-05-24T14:48:16Z</time>
      </trkpt>
      <trkpt lat="42.958550" lon="-4.228700">
        <ele>2095.0</ele>
        <time>2017-05-24T14:48:17Z</time>
      </trkpt>
      <trkpt lat="42.958500" lon="-4.228650">
        <ele>2092.0</ele>
        <time>2017-05-24T14:48:18Z</time>
      </trkpt>
      <trkpt lat="42.958450" lon="-4.228600">
        <ele>2090.0</ele>
        <time>2017-05-24T14:48:19Z</time>
      </trkpt>
      <trkpt lat="42.958417" lon="-4.228567">
        <ele>2087.0</ele>
        <time>2017-05-24T14:48:20Z</time>
      </trkpt>
      <trkpt lat="42.958367" lon="-4.228517">
        <ele>2084.0</ele>
        <time>2017-05-24T14:48:21Z</time>
      </trkpt>
      <trkpt lat="42.958317" lon="-4.228467">
        <ele>2081.0</ele>
        <time>2017-05-24T14:48:22Z</time>
      </trkpt>
      <trkpt lat="42.958283" lon="-4.228433">
        <ele>2078.0</ele>
        <time>2017-05-24T14:48:23Z</time>
      </trkpt>
      <trkpt lat="42.958233" lon="-4.228383">
        <ele>2076.0</ele>
        <time>2017-05-24T14:48:24Z</time>
      </trkpt>
      <trkpt lat="42.958200" lon="-4.228300">
        <ele>2074.0</ele>
        <time>2017-05-24T14:48:25Z</time>
      </trkpt>
      <trkpt lat="42.958200" lon="-4.228217">
        <ele>2073.0</ele>
        <time>2017-05-24T14:48:26Z</time>
      </trkpt>
      <trkpt lat="42.958183" lon="-4.228133">
        <ele>2071.0</ele>
        <time>2017-05-24T14:48:27Z</time>
      </trkpt>
      <trkpt lat="42.958167" lon="-4.228050">
        <ele>2070.0</ele>
        <time>2017-05-24T14:48:28Z</time>
      </trkpt>
      <trkpt lat="42.958150" lon="-4.227967">
        <ele>2068.0</ele>
        <time>2017-05-24T14:48:29Z</time>
      </trkpt>
      <trkpt lat="42.958150" lon="-4.227867">
        <ele>2065.0</ele>
        <time>2017-05-24T14:48:30Z</time>
      </trkpt>
      <trkpt lat="42.958150" lon="-4.227767">
        <ele>2062.0</ele>
        <time>2017-05-24T14:48:31Z</time>
      </trkpt>
      <trkpt lat="42.958150" lon="-4.227650">
        <ele>2060.0</ele>
        <time>2017-05-24T14:48:32Z</time>
      </trkpt>
      <trkpt lat="42.958133" lon="-4.227533">
        <ele>2058.0</ele>
        <time>2017-05-24T14:48:33Z</time>
      </trkpt>
      <trkpt lat="42.958117" lon="-4.227433">
        <ele>2057.0</ele>
        <time>2017-05-24T14:48:34Z</time>
      </trkpt>
      <trkpt lat="42.958083" lon="-4.227350">
        <ele>2056.0</ele>
        <time>2017-05-24T14:48:35Z</time>
      </trkpt>
      <trkpt lat="42.958067" lon="-4.227283">
        <ele>2056.0</ele>
        <time>2017-05-24T14:48:36Z</time>
      </trkpt>
      <trkpt lat="42.958033" lon="-4.227233">
        <ele>2055.0</ele>
        <time>2017-05-24T14:48:37Z</time>
      </trkpt>
      <trkpt lat="42.958000" lon="-4.227167">
        <ele>2053.0</ele>
        <time>2017-05-24T14:48:38Z</time>
      </trkpt>
      <trkpt lat="42.957967" lon="-4.227100">
        <ele>2051.0</ele>
        <time>2017-05-24T14:48:39Z</time>
      </trkpt>
      <trkpt lat="42.957933" lon="-4.227017">
        <ele>2049.0</ele>
        <time>2017-05-24T14:48:40Z</time>
      </trkpt>
      <trkpt lat="42.957917" lon="-4.226933">
        <ele>2048.0</ele>
        <time>2017-05-24T14:48:41Z</time>
      </trkpt>
      <trkpt lat="42.957900" lon="-4.226850">
        <ele>2049.0</ele>
        <time>2017-05-24T14:48:42Z</time>
      </trkpt>
      <trkpt lat="42.957883" lon="-4.226783">
        <ele>2051.0</ele>
        <time>2017-05-24T14:48:43Z</time>
      </trkpt>
      <trkpt lat="42.957850" lon="-4.226733">
        <ele>2053.0</ele>
        <time>2017-05-24T14:48:44Z</time>
      </trkpt>
      <trkpt lat="42.957817" lon="-4.226667">
        <ele>2054.0</ele>
        <time>2017-05-24T14:48:45Z</time>
      </trkpt>
      <trkpt lat="42.957800" lon="-4.226617">
        <ele>2055.0</ele>
        <time>2017-05-24T14:48:46Z</time>
      </trkpt>
      <trkpt lat="42.957767" lon="-4.226583">
        <ele>2057.0</ele>
        <time>2017-05-24T14:48:47Z</time>
      </trkpt>
      <trkpt lat="42.957733" lon="-4.226550">
        <ele>2059.0</ele>
        <time>2017-05-24T14:48:48Z</time>
      </trkpt>
      <trkpt lat="42.957700" lon="-4.226533">
        <ele>2059.0</ele>
        <time>2017-05-24T14:48:49Z</time>
      </trkpt>
      <trkpt lat="42.957667" lon="-4.226517">
        <ele>2060.0</ele>
        <time>2017-05-24T14:48:50Z</time>
      </trkpt>
      <trkpt lat="42.957633" lon="-4.226500">
        <ele>2062.0</ele>
        <time>2017-05-24T14:48:51Z</time>
      </trkpt>
      <trkpt lat="42.957600" lon="-4.226500">
        <ele>2063.0</ele>
        <time>2017-05-24T14:48:52Z</time>
      </trkpt>
      <trkpt lat="42.957583" lon="-4.226483">
        <ele>2064.0</ele>
        <time>2017-05-24T14:48:53Z</time>
      </trkpt>
      <trkpt lat="42.957567" lon="-4.226483">
        <ele>2064.0</ele>
        <time>2017-05-24T14:48:54Z</time>
      </trkpt>
      <trkpt lat="42.957533" lon="-4.226483">
        <ele>2064.0</ele>
        <time>2017-05-24T14:48:55Z</time>
      </trkpt>
      <trkpt lat="42.957500" lon="-4.226517">
        <ele>2064.0</ele>
        <time>2017-05-24T14:48:56Z</time>
      </trkpt>
      <trkpt lat="42.957467" lon="-4.226583">
        <ele>2063.0</ele>
        <time>2017-05-24T14:48:57Z</time>
      </trkpt>
      <trkpt lat="42.957433" lon="-4.226667">
        <ele>2063.0</ele>
        <time>2017-05-24T14:48:58Z</time>
      </trkpt>
      <trkpt lat="42.957433" lon="-4.226783">
        <ele>2062.0</ele>
        <time>2017-05-24T14:48:59Z</time>
      </trkpt>
      <trkpt lat="42.957450" lon="-4.226917">
        <ele>2062.0</ele>
        <time>2017-05-24T14:49:00Z</time>
      </trkpt>
      <trkpt lat="42.957500" lon="-4.227067">
        <ele>2061.0</ele>
        <time>2017-05-24T14:49:01Z</time>
      </trkpt>
      <trkpt lat="42.957567" lon="-4.227183">
        <ele>2061.0</ele>
        <time>2017-05-24T14:49:02Z</time>
      </trkpt>
      <trkpt lat="42.957650" lon="-4.227283">
        <ele>2062.0</ele>
        <time>2017-05-24T14:49:03Z</time>
      </trkpt>
      <trkpt lat="42.957717" lon="-4.227383">
        <ele>2064.0</ele>
        <time>2017-05-24T14:49:04Z</time>
      </trkpt>
      <trkpt lat="42.957783" lon="-4.227467">
        <ele>2067.0</ele>
        <time>2017-05-24T14:49:05Z</time>
      </trkpt>
      <trkpt lat="42.957850" lon="-4.227533">
        <ele>2068.0</ele>
        <time>2017-05-24T14:49:06Z</time>
      </trkpt>
      <trkpt lat="42.957917" lon="-4.227583">
        <ele>2068.0</ele>
        <time>2017-05-24T14:49:07Z</time>
      </trkpt>
      <trkpt lat="42.958000" lon="-4.227633">
        <ele>2067.0</ele>
        <time>2017-05-24T14:49:08Z</time>
      </trkpt>
      <trkpt lat="42.958100" lon="-4.227650">
        <ele>2068.0</ele>
        <time>2017-05-24T14:49:09Z</time>
      </trkpt>
      <trkpt lat="42.958183" lon="-4.227650">
        <ele>2069.0</ele>
        <time>2017-05-24T14:49:10Z</time>
      </trkpt>
      <trkpt lat="42.958250" lon="-4.227600">
        <ele>2070.0</ele>
        <time>2017-05-24T14:49:11Z</time>
      </trkpt>
      <trkpt lat="42.958267" lon="-4.227533">
        <ele>2070.0</ele>
        <time>2017-05-24T14:49:12Z</time>
      </trkpt>
      <trkpt lat="42.958283" lon="-4.227467">
        <ele>2071.0</ele>
        <time>2017-05-24T14:49:13Z</time>
      </trkpt>
      <trkpt lat="42.958283" lon="-4.227433">
        <ele>2072.0</ele>
        <time>2017-05-24T14:49:14Z</time>
      </trkpt>
      <trkpt lat="42.958267" lon="-4.227400">
        <ele>2073.0</ele>
        <time>2017-05-24T14:49:15Z</time>
      </trkpt>
      <trkpt lat="42.958250" lon="-4.227383">
        <ele>2073.0</ele>
        <time>2017-05-24T14:49:16Z</time>
      </trkpt>
      <trkpt lat="42.958233" lon="-4.227383">
        <ele>2072.0</ele>
        <time>2017-05-24T14:49:17Z</time>
      </trkpt>
      <trkpt lat="42.958200" lon="-4.227383">
        <ele>2071.0</ele>
        <time>2017-05-24T14:49:18Z</time>
      </trkpt>
      <trkpt lat="42.958167" lon="-4.227400">
        <ele>2069.0</ele>
        <time>2017-05-24T14:49:19Z</time>
      </trkpt>
      <trkpt lat="42.958117" lon="-4.227400">
        <ele>2068.0</ele>
        <time>2017-05-24T14:49:20Z</time>
      </trkpt>
      <trkpt lat="42.958083" lon="-4.227383">
        <ele>2067.0</ele>
        <time>2017-05-24T14:49:21Z</time>
      </trkpt>
      <trkpt lat="42.958033" lon="-4.227383">
        <ele>2066.0</ele>
        <time>2017-05-24T14:49:22Z</time>
      </trkpt>
      <trkpt lat="42.957967" lon="-4.227367">
        <ele>2064.0</ele>
        <time>2017-05-24T14:49:23Z</time>
      </trkpt>
      <trkpt lat="42.957917" lon="-4.227333">
        <ele>2063.0</ele>
        <time>2017-05-24T14:49:24Z</time>
      </trkpt>
      <trkpt lat="42.957867" lon="-4.227283">
        <ele>2063.0</ele>
        <time>2017-05-24T14:49:25Z</time>
      </trkpt>
      <trkpt lat="42.957833" lon="-4.227233">
        <ele>2065.0</ele>
        <time>2017-05-24T14:49:26Z</time>
      </trkpt>
      <trkpt lat="42.957817" lon="-4.227200">
        <ele>2067.0</ele>
        <time>2017-05-24T14:49:27Z</time>
      </trkpt>
      <trkpt lat="42.957783" lon="-4.227167">
        <ele>2068.0</ele>
        <time>2017-05-24T14:49:28Z</time>
      </trkpt>
      <trkpt lat="42.957750" lon="-4.227133">
        <ele>2069.0</ele>
        <time>2017-05-24T14:49:29Z</time>
      </trkpt>
      <trkpt lat="42.957733" lon="-4.227083">
        <ele>2070.0</ele>
        <time>2017-05-24T14:49:30Z</time>
      </trkpt>
      <trkpt lat="42.957700" lon="-4.227033">
        <ele>2070.0</ele>
        <time>2017-05-24T14:49:31Z</time>
      </trkpt>
      <trkpt lat="42.957683" lon="-4.226967">
        <ele>2071.0</ele>
        <time>2017-05-24T14:49:32Z</time>
      </trkpt>
      <trkpt lat="42.957667" lon="-4.226900">
        <ele>2072.0</ele>
        <time>2017-05-24T14:49:33Z</time>
      </trkpt>
      <trkpt lat="42.957650" lon="-4.226833">
        <ele>2074.0</ele>
        <time>2017-05-24T14:49:34Z</time>
      </trkpt>
      <trkpt lat="42.957633" lon="-4.226767">
        <ele>2075.0</ele>
        <time>2017-05-24T14:49:35Z</time>
      </trkpt>
      <trkpt lat="42.957633" lon="-4.226683">
        <ele>2075.0</ele>
        <time>2017-05-24T14:49:36Z</time>
      </trkpt>
      <trkpt lat="42.957650" lon="-4.226617">
        <ele>2075.0</ele>
        <time>2017-05-24T14:49:37Z</time>
      </trkpt>
      <trkpt lat="42.957667" lon="-4.226550">
        <ele>2075.0</ele>
        <time>2017-05-24T14:49:38Z</time>
      </trkpt>
      <trkpt lat="42.957700" lon="-4.226467">
        <ele>2074.0</ele>
        <time>2017-05-24T14:49:39Z</time>
      </trkpt>
      <trkpt lat="42.957733" lon="-4.226383">
        <ele>2073.0</ele>
        <time>2017-05-24T14:49:40Z</time>
      </trkpt>
      <trkpt lat="42.957750" lon="-4.226283">
        <ele>2073.0</ele>
        <time>2017-05-24T14:49:41Z</time>
      </trkpt>
      <trkpt lat="42.957783" lon="-4.226200">
        <ele>2073.0</ele>
        <time>2017-05-24T14:49:42Z</time>
      </trkpt>
      <trkpt lat="42.957817" lon="-4.226117">
        <ele>2074.0</ele>
        <time>2017-05-24T14:49:43Z</time>
      </trkpt>
      <trkpt lat="42.957833" lon="-4.226050">
        <ele>2074.0</ele>
        <time>2017-05-24T14:49:44Z</time>
      </trkpt>
      <trkpt lat="42.957850" lon="-4.225983">
        <ele>2074.0</ele>
        <time>2017-05-24T14:49:45Z</time>
      </trkpt>
      <trkpt lat="42.957867" lon="-4.225917">
        <ele>2073.0</ele>
        <time>2017-05-24T14:49:46Z</time>
      </trkpt>
      <trkpt lat="42.957883" lon="-4.225850">
        <ele>2073.0</ele>
        <time>2017-05-24T14:49:47Z</time>
      </trkpt>
      <trkpt lat="42.957917" lon="-4.225783">
        <ele>2072.0</ele>
        <time>2017-05-24T14:49:48Z</time>
      </trkpt>
      <trkpt lat="42.957950" lon="-4.225700">
        <ele>2071.0</ele>
        <time>2017-05-24T14:49:49Z</time>
      </trkpt>
      <trkpt lat="42.957983" lon="-4.225600">
        <ele>2071.0</ele>
        <time>2017-05-24T14:49:50Z</time>
      </trkpt>
      <trkpt lat="42.958000" lon="-4.225500">
        <ele>2073.0</ele>
        <time>2017-05-24T14:49:51Z</time>
      </trkpt>
      <trkpt lat="42.957983" lon="-4.225400">
        <ele>2075.0</ele>
        <time>2017-05-24T14:49:52Z</time>
      </trkpt>
      <trkpt lat="42.957967" lon="-4.225333">
        <ele>2078.0</ele>
        <time>2017-05-24T14:49:53Z</time>
      </trkpt>
      <trkpt lat="42.957967" lon="-4.225283">
        <ele>2080.0</ele>
        <time>2017-05-24T14:49:54Z</time>
      </trkpt>
      <trkpt lat="42.957967" lon="-4.225233">
        <ele>2083.0</ele>
        <time>2017-05-24T14:49:55Z</time>
      </trkpt>
      <trkpt lat="42.957983" lon="-4.225200">
        <ele>2085.0</ele>
        <time>2017-05-24T14:49:56Z</time>
      </trkpt>
      <trkpt lat="42.957983" lon="-4.225167">
        <ele>2086.0</ele>
        <time>2017-05-24T14:49:57Z</time>
      </trkpt>
      <trkpt lat="42.957967" lon="-4.225150">
        <ele>2088.0</ele>
        <time>2017-05-24T14:49:58Z</time>
      </trkpt>
      <trkpt lat="42.957950" lon="-4.225133">
        <ele>2089.0</ele>
        <time>2017-05-24T14:49:59Z</time>
      </trkpt>
      <trkpt lat="42.957933" lon="-4.225133">
        <ele>2090.0</ele>
        <time>2017-05-24T14:50:00Z</time>
      </trkpt>
      <trkpt lat="42.957900" lon="-4.225133">
        <ele>2092.0</ele>
        <time>2017-05-24T14:50:01Z</time>
      </trkpt>
      <trkpt lat="42.957867" lon="-4.225167">
        <ele>2093.0</ele>
        <time>2017-05-24T14:50:02Z</time>
      </trkpt>
      <trkpt lat="42.957833" lon="-4.225250">
        <ele>2095.0</ele>
        <time>2017-05-24T14:50:03Z</time>
      </trkpt>
      <trkpt lat="42.957800" lon="-4.225350">
        <ele>2096.0</ele>
        <time>2017-05-24T14:50:04Z</time>
      </trkpt>
      <trkpt lat="42.957783" lon="-4.225467">
        <ele>2097.0</ele>
        <time>2017-05-24T14:50:05Z</time>
      </trkpt>
      <trkpt lat="42.957783" lon="-4.225617">
        <ele>2098.0</ele>
        <time>2017-05-24T14:50:06Z</time>
      </trkpt>
      <trkpt lat="42.957817" lon="-4.225767">
        <ele>2100.0</ele>
        <time>2017-05-24T14:50:07Z</time>
      </trkpt>
      <trkpt lat="42.957883" lon="-4.225900">
        <ele>2101.0</ele>
        <time>2017-05-24T14:50:08Z</time>
      </trkpt>
      <trkpt lat="42.957967" lon="-4.226017">
        <ele>2102.0</ele>
        <time>2017-05-24T14:50:09Z</time>
      </trkpt>
      <trkpt lat="42.958050" lon="-4.226083">
        <ele>2104.0</ele>
        <time>2017-05-24T14:50:10Z</time>
      </trkpt>
      <trkpt lat="42.958150" lon="-4.226100">
        <ele>2104.0</ele>
        <time>2017-05-24T14:50:11Z</time>
      </trkpt>
      <trkpt lat="42.958250" lon="-4.226083">
        <ele>2105.0</ele>
        <time>2017-05-24T14:50:12Z</time>
      </trkpt>
      <trkpt lat="42.958333" lon="-4.226033">
        <ele>2107.0</ele>
        <time>2017-05-24T14:50:13Z</time>
      </trkpt>
      <trkpt lat="42.958383" lon="-4.226000">
        <ele>2109.0</ele>
        <time>2017-05-24T14:50:14Z</time>
      </trkpt>
      <trkpt lat="42.958450" lon="-4.225967">
        <ele>2111.0</ele>
        <time>2017-05-24T14:50:15Z</time>
      </trkpt>
      <trkpt lat="42.958500" lon="-4.225933">
        <ele>2113.0</ele>
        <time>2017-05-24T14:50:16Z</time>
      </trkpt>
      <trkpt lat="42.958550" lon="-4.225900">
        <ele>2114.0</ele>
        <time>2017-05-24T14:50:17Z</time>
      </trkpt>
      <trkpt lat="42.958567" lon="-4.225833">
        <ele>2114.0</ele>
        <time>2017-05-24T14:50:18Z</time>
      </trkpt>
      <trkpt lat="42.958567" lon="-4.225783">
        <ele>2115.0</ele>
        <time>2017-05-24T14:50:19Z</time>
      </trkpt>
      <trkpt lat="42.958550" lon="-4.225750">
        <ele>2117.0</ele>
        <time>2017-05-24T14:50:20Z</time>
      </trkpt>
      <trkpt lat="42.958517" lon="-4.225733">
        <ele>2120.0</ele>
        <time>2017-05-24T14:50:21Z</time>
      </trkpt>
      <trkpt lat="42.958483" lon="-4.225733">
        <ele>2122.0</ele>
        <time>2017-05-24T14:50:22Z</time>
      </trkpt>
      <trkpt lat="42.958450" lon="-4.225733">
        <ele>2124.0</ele>
        <time>2017-05-24T14:50:23Z</time>
      </trkpt>
      <trkpt lat="42.958417" lon="-4.225733">
        <ele>2126.0</ele>
        <time>2017-05-24T14:50:24Z</time>
      </trkpt>
      <trkpt lat="42.958400" lon="-4.225750">
        <ele>2127.0</ele>
        <time>2017-05-24T14:50:25Z</time>
      </trkpt>
      <trkpt lat="42.958350" lon="-4.225767">
        <ele>2128.0</ele>
        <time>2017-05-24T14:50:26Z</time>
      </trkpt>
      <trkpt lat="42.958317" lon="-4.225817">
        <ele>2129.0</ele>
        <time>2017-05-24T14:50:27Z</time>
      </trkpt>
      <trkpt lat="42.958283" lon="-4.225883">
        <ele>2130.0</ele>
        <time>2017-05-24T14:50:28Z</time>
      </trkpt>
      <trkpt lat="42.958250" lon="-4.225967">
        <ele>2129.0</ele>
        <time>2017-05-24T14:50:29Z</time>
      </trkpt>
      <trkpt lat="42.958233" lon="-4.226067">
        <ele>2129.0</ele>
        <time>2017-05-24T14:50:30Z</time>
      </trkpt>
      <trkpt lat="42.958233" lon="-4.226200">
        <ele>2129.0</ele>
        <time>2017-05-24T14:50:31Z</time>
      </trkpt>
      <trkpt lat="42.958250" lon="-4.226350">
        <ele>2130.0</ele>
        <time>2017-05-24T14:50:32Z</time>
      </trkpt>
      <trkpt lat="42.958300" lon="-4.226483">
        <ele>2129.0</ele>
        <time>2017-05-24T14:50:33Z</time>
      </trkpt>
      <trkpt lat="42.958367" lon="-4.226617">
        <ele>2130.0</ele>
        <time>2017-05-24T14:50:34Z</time>
      </trkpt>
      <trkpt lat="42.958433" lon="-4.226733">
        <ele>2133.0</ele>
        <time>2017-05-24T14:50:35Z</time>
      </trkpt>
      <trkpt lat="42.958500" lon="-4.226817">
        <ele>2135.0</ele>
        <time>2017-05-24T14:50:36Z</time>
      </trkpt>
      <trkpt lat="42.958567" lon="-4.226867">
        <ele>2136.0</ele>
        <time>2017-05-24T14:50:37Z</time>
      </trkpt>
      <trkpt lat="42.958633" lon="-4.226917">
        <ele>2136.0</ele>
        <time>2017-05-24T14:50:38Z</time>
      </trkpt>
      <trkpt lat="42.958717" lon="-4.226983">
        <ele>2136.0</ele>
        <time>2017-05-24T14:50:39Z</time>
      </trkpt>
      <trkpt lat="42.958800" lon="-4.227050">
        <ele>2136.0</ele>
        <time>2017-05-24T14:50:40Z</time>
      </trkpt>
      <trkpt lat="42.958883" lon="-4.227083">
        <ele>2137.0</ele>
        <time>2017-05-24T14:50:41Z</time>
      </trkpt>
      <trkpt lat="42.958983" lon="-4.227067">
        <ele>2137.0</ele>
        <time>2017-05-24T14:50:42Z</time>
      </trkpt>
      <trkpt lat="42.959067" lon="-4.227050">
        <ele>2138.0</ele>
        <time>2017-05-24T14:50:43Z</time>
      </trkpt>
      <trkpt lat="42.959117" lon="-4.227000">
        <ele>2139.0</ele>
        <time>2017-05-24T14:50:44Z</time>
      </trkpt>
      <trkpt lat="42.959167" lon="-4.226967">
        <ele>2141.0</ele>
        <time>2017-05-24T14:50:45Z</time>
      </trkpt>
      <trkpt lat="42.959200" lon="-4.226933">
        <ele>2143.0</ele>
        <time>2017-05-24T14:50:46Z</time>
      </trkpt>
      <trkpt lat="42.959217" lon="-4.226883">
        <ele>2145.0</ele>
        <time>2017-05-24T14:50:47Z</time>
      </trkpt>
      <trkpt lat="42.959233" lon="-4.226850">
        <ele>2146.0</ele>
        <time>2017-05-24T14:50:48Z</time>
      </trkpt>
      <trkpt lat="42.959250" lon="-4.226783">
        <ele>2147.0</ele>
        <time>2017-05-24T14:50:49Z</time>
      </trkpt>
      <trkpt lat="42.959250" lon="-4.226733">
        <ele>2148.0</ele>
        <time>2017-05-24T14:50:50Z</time>
      </trkpt>
      <trkpt lat="42.959250" lon="-4.226700">
        <ele>2149.0</ele>
        <time>2017-05-24T14:50:51Z</time>
      </trkpt>
      <trkpt lat="42.959233" lon="-4.226683">
        <ele>2149.0</ele>
        <time>2017-05-24T14:50:52Z</time>
      </trkpt>
      <trkpt lat="42.959217" lon="-4.226667">
        <ele>2150.0</ele>
        <time>2017-05-24T14:50:53Z</time>
      </trkpt>
      <trkpt lat="42.959183" lon="-4.226650">
        <ele>2150.0</ele>
        <time>2017-05-24T14:50:54Z</time>
      </trkpt>
      <trkpt lat="42.959167" lon="-4.226650">
        <ele>2150.0</ele>
        <time>2017-05-24T14:50:55Z</time>
      </trkpt>
      <trkpt lat="42.959117" lon="-4.226667">
        <ele>2151.0</ele>
        <time>2017-05-24T14:50:56Z</time>
      </trkpt>
      <trkpt lat="42.959083" lon="-4.226700">
        <ele>2152.0</ele>
        <time>2017-05-24T14:50:57Z</time>
      </trkpt>
      <trkpt lat="42.959033" lon="-4.226750">
        <ele>2153.0</ele>
        <time>2017-05-24T14:50:58Z</time>
      </trkpt>
      <trkpt lat="42.959000" lon="-4.226800">
        <ele>2155.0</ele>
        <time>2017-05-24T14:50:59Z</time>
      </trkpt>
      <trkpt lat="42.958967" lon="-4.226850">
        <ele>2155.0</ele>
        <time>2017-05-24T14:51:00Z</time>
      </trkpt>
      <trkpt lat="42.958933" lon="-4.226933">
        <ele>2155.0</ele>
        <time>2017-05-24T14:51:01Z</time>
      </trkpt>
      <trkpt lat="42.958917" lon="-4.227033">
        <ele>2154.0</ele>
        <time>2017-05-24T14:51:02Z</time>
      </trkpt>
      <trkpt lat="42.958883" lon="-4.227133">
        <ele>2154.0</ele>
        <time>2017-05-24T14:51:03Z</time>
      </trkpt>
      <trkpt lat="42.958850" lon="-4.227233">
        <ele>2154.0</ele>
        <time>2017-05-24T14:51:04Z</time>
      </trkpt>
      <trkpt lat="42.958833" lon="-4.227333">
        <ele>2155.0</ele>
        <time>2017-05-24T14:51:05Z</time>
      </trkpt>
      <trkpt lat="42.958817" lon="-4.227450">
        <ele>2155.0</ele>
        <time>2017-05-24T14:51:06Z</time>
      </trkpt>
      <trkpt lat="42.958817" lon="-4.227550">
        <ele>2155.0</ele>
        <time>2017-05-24T14:51:07Z</time>
      </trkpt>
      <trkpt lat="42.958800" lon="-4.227650">
        <ele>2155.0</ele>
        <time>2017-05-24T14:51:08Z</time>
      </trkpt>
      <trkpt lat="42.958800" lon="-4.227750">
        <ele>2154.0</ele>
        <time>2017-05-24T14:51:09Z</time>
      </trkpt>
      <trkpt lat="42.958817" lon="-4.227867">
        <ele>2154.0</ele>
        <time>2017-05-24T14:51:10Z</time>
      </trkpt>
      <trkpt lat="42.958850" lon="-4.228000">
        <ele>2153.0</ele>
        <time>2017-05-24T14:51:11Z</time>
      </trkpt>
      <trkpt lat="42.958917" lon="-4.228100">
        <ele>2151.0</ele>
        <time>2017-05-24T14:51:12Z</time>
      </trkpt>
      <trkpt lat="42.959000" lon="-4.228200">
        <ele>2149.0</ele>
        <time>2017-05-24T14:51:13Z</time>
      </trkpt>
      <trkpt lat="42.959117" lon="-4.228267">
        <ele>2148.0</ele>
        <time>2017-05-24T14:51:14Z</time>
      </trkpt>
      <trkpt lat="42.959217" lon="-4.228283">
        <ele>2147.0</ele>
        <time>2017-05-24T14:51:15Z</time>
      </trkpt>
      <trkpt lat="42.959317" lon="-4.228300">
        <ele>2147.0</ele>
        <time>2017-05-24T14:51:16Z</time>
      </trkpt>
      <trkpt lat="42.959417" lon="-4.228300">
        <ele>2147.0</ele>
        <time>2017-05-24T14:51:17Z</time>
      </trkpt>
      <trkpt lat="42.959483" lon="-4.228317">
        <ele>2146.0</ele>
        <time>2017-05-24T14:51:18Z</time>
      </trkpt>
      <trkpt lat="42.959567" lon="-4.228333">
        <ele>2146.0</ele>
        <time>2017-05-24T14:51:19Z</time>
      </trkpt>
      <trkpt lat="42.959633" lon="-4.228350">
        <ele>2145.0</ele>
        <time>2017-05-24T14:51:20Z</time>
      </trkpt>
      <trkpt lat="42.959700" lon="-4.228350">
        <ele>2144.0</ele>
        <time>2017-05-24T14:51:21Z</time>
      </trkpt>
      <trkpt lat="42.959767" lon="-4.228333">
        <ele>2144.0</ele>
        <time>2017-05-24T14:51:22Z</time>
      </trkpt>
      <trkpt lat="42.959817" lon="-4.228300">
        <ele>2143.0</ele>
        <time>2017-05-24T14:51:23Z</time>
      </trkpt>
      <trkpt lat="42.959867" lon="-4.228250">
        <ele>2143.0</ele>
        <time>2017-05-24T14:51:24Z</time>
      </trkpt>
      <trkpt lat="42.959900" lon="-4.228183">
        <ele>2142.0</ele>
        <time>2017-05-24T14:51:25Z</time>
      </trkpt>
      <trkpt lat="42.959917" lon="-4.228117">
        <ele>2142.0</ele>
        <time>2017-05-24T14:51:26Z</time>
      </trkpt>
      <trkpt lat="42.959917" lon="-4.228033">
        <ele>2142.0</ele>
        <time>2017-05-24T14:51:27Z</time>
      </trkpt>
      <trkpt lat="42.959900" lon="-4.227950">
        <ele>2141.0</ele>
        <time>2017-05-24T14:51:28Z</time>
      </trkpt>
      <trkpt lat="42.959900" lon="-4.227867">
        <ele>2142.0</ele>
        <time>2017-05-24T14:51:29Z</time>
      </trkpt>
      <trkpt lat="42.959883" lon="-4.227800">
        <ele>2141.0</ele>
        <time>2017-05-24T14:51:30Z</time>
      </trkpt>
      <trkpt lat="42.959850" lon="-4.227733">
        <ele>2141.0</ele>
        <time>2017-05-24T14:51:31Z</time>
      </trkpt>
      <trkpt lat="42.959833" lon="-4.227667">
        <ele>2140.0</ele>
        <time>2017-05-24T14:51:32Z</time>
      </trkpt>
      <trkpt lat="42.959800" lon="-4.227600">
        <ele>2140.0</ele>
        <time>2017-05-24T14:51:33Z</time>
      </trkpt>
      <trkpt lat="42.959783" lon="-4.227533">
        <ele>2140.0</ele>
        <time>2017-05-24T14:51:34Z</time>
      </trkpt>
      <trkpt lat="42.959750" lon="-4.227467">
        <ele>2139.0</ele>
        <time>2017-05-24T14:51:35Z</time>
      </trkpt>
      <trkpt lat="42.959733" lon="-4.227417">
        <ele>2139.0</ele>
        <time>2017-05-24T14:51:36Z</time>
      </trkpt>
      <trkpt lat="42.959700" lon="-4.227350">
        <ele>2139.0</ele>
        <time>2017-05-24T14:51:37Z</time>
      </trkpt>
      <trkpt lat="42.959667" lon="-4.227283">
        <ele>2139.0</ele>
        <time>2017-05-24T14:51:38Z</time>
      </trkpt>
      <trkpt lat="42.959633" lon="-4.227233">
        <ele>2140.0</ele>
        <time>2017-05-24T14:51:39Z</time>
      </trkpt>
      <trkpt lat="42.959583" lon="-4.227167">
        <ele>2141.0</ele>
        <time>2017-05-24T14:51:40Z</time>
      </trkpt>
      <trkpt lat="42.959550" lon="-4.227117">
        <ele>2142.0</ele>
        <time>2017-05-24T14:51:41Z</time>
      </trkpt>
      <trkpt lat="42.959500" lon="-4.227067">
        <ele>2144.0</ele>
        <time>2017-05-24T14:51:42Z</time>
      </trkpt>
      <trkpt lat="42.959467" lon="-4.227017">
        <ele>2145.0</ele>
        <time>2017-05-24T14:51:43Z</time>
      </trkpt>
      <trkpt lat="42.959433" lon="-4.226967">
        <ele>2146.0</ele>
        <time>2017-05-24T14:51:44Z</time>
      </trkpt>
      <trkpt lat="42.959400" lon="-4.226917">
        <ele>2145.0</ele>
        <time>2017-05-24T14:51:45Z</time>
      </trkpt>
      <trkpt lat="42.959367" lon="-4.226867">
        <ele>2145.0</ele>
        <time>2017-05-24T14:51:46Z</time>
      </trkpt>
      <trkpt lat="42.959333" lon="-4.226800">
        <ele>2145.0</ele>
        <time>2017-05-24T14:51:47Z</time>
      </trkpt>
      <trkpt lat="42.959283" lon="-4.226750">
        <ele>2145.0</ele>
        <time>2017-05-24T14:51:48Z</time>
      </trkpt>
      <trkpt lat="42.959250" lon="-4.226700">
        <ele>2145.0</ele>
        <time>2017-05-24T14:51:49Z</time>
      </trkpt>
      <trkpt lat="42.959217" lon="-4.226650">
        <ele>2146.0</ele>
        <time>2017-05-24T14:51:50Z</time>
      </trkpt>
      <trkpt lat="42.959183" lon="-4.226600">
        <ele>2146.0</ele>
        <time>2017-05-24T14:51:51Z</time>
      </trkpt>
      <trkpt lat="42.959150" lon="-4.226533">
        <ele>2145.0</ele>
        <time>2017-05-24T14:51:52Z</time>
      </trkpt>
      <trkpt lat="42.959117" lon="-4.226467">
        <ele>2143.0</ele>
        <time>2017-05-24T14:51:53Z</time>
      </trkpt>
      <trkpt lat="42.959083" lon="-4.226400">
        <ele>2142.0</ele>
        <time>2017-05-24T14:51:54Z</time>
      </trkpt>
      <trkpt lat="42.959050" lon="-4.226317">
        <ele>2142.0</ele>
        <time>2017-05-24T14:51:55Z</time>
      </trkpt>
      <trkpt lat="42.959017" lon="-4.226250">
        <ele>2143.0</ele>
        <time>2017-05-24T14:51:56Z</time>
      </trkpt>
      <trkpt lat="42.959000" lon="-4.226183">
        <ele>2144.0</ele>
        <time>2017-05-24T14:51:57Z</time>
      </trkpt>
      <trkpt lat="42.958983" lon="-4.226117">
        <ele>2145.0</ele>
        <time>2017-05-24T14:51:58Z</time>
      </trkpt>
      <trkpt lat="42.958967" lon="-4.226050">
        <ele>2145.0</ele>
        <time>2017-05-24T14:51:59Z</time>
      </trkpt>
      <trkpt lat="42.958950" lon="-4.225983">
        <ele>2145.0</ele>
        <time>2017-05-24T14:52:00Z</time>
      </trkpt>
      <trkpt lat="42.958933" lon="-4.225900">
        <ele>2145.0</ele>
        <time>2017-05-24T14:52:01Z</time>
      </trkpt>
      <trkpt lat="42.958933" lon="-4.225817">
        <ele>2146.0</ele>
        <time>2017-05-24T14:52:02Z</time>
      </trkpt>
      <trkpt lat="42.958933" lon="-4.225733">
        <ele>2147.0</ele>
        <time>2017-05-24T14:52:03Z</time>
      </trkpt>
      <trkpt lat="42.958933" lon="-4.225667">
        <ele>2149.0</ele>
        <time>2017-05-24T14:52:04Z</time>
      </trkpt>
      <trkpt lat="42.958917" lon="-4.225600">
        <ele>2150.0</ele>
        <time>2017-05-24T14:52:05Z</time>
      </trkpt>
      <trkpt lat="42.958900" lon="-4.225533">
        <ele>2149.0</ele>
        <time>2017-05-24T14:52:06Z</time>
      </trkpt>
      <trkpt lat="42.958900" lon="-4.225450">
        <ele>2149.0</ele>
        <time>2017-05-24T14:52:07Z</time>
      </trkpt>
      <trkpt lat="42.958883" lon="-4.225350">
        <ele>2149.0</ele>
        <time>2017-05-24T14:52:08Z</time>
      </trkpt>
      <trkpt lat="42.958867" lon="-4.225267">
        <ele>2151.0</ele>
        <time>2017-05-24T14:52:09Z</time>
      </trkpt>
      <trkpt lat="42.958867" lon="-4.225200">
        <ele>2152.0</ele>
        <time>2017-05-24T14:52:10Z</time>
      </trkpt>
      <trkpt lat="42.958850" lon="-4.225150">
        <ele>2152.0</ele>
        <time>2017-05-24T14:52:11Z</time>
      </trkpt>
      <trkpt lat="42.958833" lon="-4.225083">
        <ele>2152.0</ele>
        <time>2017-05-24T14:52:12Z</time>
      </trkpt>
      <trkpt lat="42.958833" lon="-4.225017">
        <ele>2151.0</ele>
        <time>2017-05-24T14:52:13Z</time>
      </trkpt>
      <trkpt lat="42.958817" lon="-4.224933">
        <ele>2150.0</ele>
        <time>2017-05-24T14:52:14Z</time>
      </trkpt>
      <trkpt lat="42.958800" lon="-4.224833">
        <ele>2150.0</ele>
        <time>2017-05-24T14:52:15Z</time>
      </trkpt>
      <trkpt lat="42.958783" lon="-4.224767">
        <ele>2149.0</ele>
        <time>2017-05-24T14:52:16Z</time>
      </trkpt>
      <trkpt lat="42.958750" lon="-4.224717">
        <ele>2150.0</ele>
        <time>2017-05-24T14:52:17Z</time>
      </trkpt>
      <trkpt lat="42.958750" lon="-4.224683">
        <ele>2150.0</ele>
        <time>2017-05-24T14:52:18Z</time>
      </trkpt>
      <trkpt lat="42.958733" lon="-4.224633">
        <ele>2148.0</ele>
        <time>2017-05-24T14:52:19Z</time>
      </trkpt>
      <trkpt lat="42.958733" lon="-4.224567">
        <ele>2145.0</ele>
        <time>2017-05-24T14:52:20Z</time>
      </trkpt>
      <trkpt lat="42.958700" lon="-4.224483">
        <ele>2142.0</ele>
        <time>2017-05-24T14:52:21Z</time>
      </trkpt>
      <trkpt lat="42.958683" lon="-4.224400">
        <ele>2140.0</ele>
        <time>2017-05-24T14:52:22Z</time>
      </trkpt>
      <trkpt lat="42.958667" lon="-4.224333">
        <ele>2139.0</ele>
        <time>2017-05-24T14:52:23Z</time>
      </trkpt>
      <trkpt lat="42.958650" lon="-4.224250">
        <ele>2139.0</ele>
        <time>2017-05-24T14:52:24Z</time>
      </trkpt>
      <trkpt lat="42.958650" lon="-4.224167">
        <ele>2139.0</ele>
        <time>2017-05-24T14:52:25Z</time>
      </trkpt>
      <trkpt lat="42.958650" lon="-4.224083">
        <ele>2139.0</ele>
        <time>2017-05-24T14:52:26Z</time>
      </trkpt>
      <trkpt lat="42.958633" lon="-4.224017">
        <ele>2138.0</ele>
        <time>2017-05-24T14:52:27Z</time>
      </trkpt>
      <trkpt lat="42.958600" lon="-4.223933">
        <ele>2137.0</ele>
        <time>2017-05-24T14:52:28Z</time>
      </trkpt>
      <trkpt lat="42.958567" lon="-4.223833">
        <ele>2137.0</ele>
        <time>2017-05-24T14:52:29Z</time>
      </trkpt>
      <trkpt lat="42.958550" lon="-4.223750">
        <ele>2138.0</ele>
        <time>2017-05-24T14:52:30Z</time>
      </trkpt>
      <trkpt lat="42.958533" lon="-4.223683">
        <ele>2139.0</ele>
        <time>2017-05-24T14:52:31Z</time>
      </trkpt>
      <trkpt lat="42.958500" lon="-4.223633">
        <ele>2140.0</ele>
        <time>2017-05-24T14:52:32Z</time>
      </trkpt>
      <trkpt lat="42.958483" lon="-4.223567">
        <ele>2140.0</ele>
        <time>2017-05-24T14:52:33Z</time>
      </trkpt>
      <trkpt lat="42.958433" lon="-4.223500">
        <ele>2139.0</ele>
        <time>2017-05-24T14:52:34Z</time>
      </trkpt>
      <trkpt lat="42.958400" lon="-4.223433">
        <ele>2139.0</ele>
        <time>2017-05-24T14:52:35Z</time>
      </trkpt>
      <trkpt lat="42.958367" lon="-4.223367">
        <ele>2139.0</ele>
        <time>2017-05-24T14:52:36Z</time>
      </trkpt>
      <trkpt lat="42.958333" lon="-4.223317">
        <ele>2139.0</ele>
        <time>2017-05-24T14:52:37Z</time>
      </trkpt>
      <trkpt lat="42.958300" lon="-4.223267">
        <ele>2140.0</ele>
        <time>2017-05-24T14:52:38Z</time>
      </trkpt>
      <trkpt lat="42.958250" lon="-4.223217">
        <ele>2141.0</ele>
        <time>2017-05-24T14:52:39Z</time>
      </trkpt>
      <trkpt lat="42.958217" lon="-4.223167">
        <ele>2141.0</ele>
        <time>2017-05-24T14:52:40Z</time>
      </trkpt>
      <trkpt lat="42.958167" lon="-4.223133">
        <ele>2140.0</ele>
        <time>2017-05-24T14:52:41Z</time>
      </trkpt>
      <trkpt lat="42.958117" lon="-4.223083">
        <ele>2140.0</ele>
        <time>2017-05-24T14:52:42Z</time>
      </trkpt>
      <trkpt lat="42.958067" lon="-4.223050">
        <ele>2140.0</ele>
        <time>2017-05-24T14:52:43Z</time>
      </trkpt>
      <trkpt lat="42.958017" lon="-4.223017">
        <ele>2140.0</ele>
        <time>2017-05-24T14:52:44Z</time>
      </trkpt>
      <trkpt lat="42.957983" lon="-4.222983">
        <ele>2140.0</ele>
        <time>2017-05-24T14:52:45Z</time>
      </trkpt>
      <trkpt lat="42.957933" lon="-4.222950">
        <ele>2140.0</ele>
        <time>2017-05-24T14:52:46Z</time>
      </trkpt>
      <trkpt lat="42.957867" lon="-4.222900">
        <ele>2139.0</ele>
        <time>2017-05-24T14:52:47Z</time>
      </trkpt>
      <trkpt lat="42.957817" lon="-4.222867">
        <ele>2138.0</ele>
        <time>2017-05-24T14:52:48Z</time>
      </trkpt>
      <trkpt lat="42.957767" lon="-4.222817">
        <ele>2138.0</ele>
        <time>2017-05-24T14:52:49Z</time>
      </trkpt>
      <trkpt lat="42.957717" lon="-4.222750">
        <ele>2138.0</ele>
        <time>2017-05-24T14:52:50Z</time>
      </trkpt>
      <trkpt lat="42.957667" lon="-4.222700">
        <ele>2137.0</ele>
        <time>2017-05-24T14:52:51Z</time>
      </trkpt>
      <trkpt lat="42.957633" lon="-4.222617">
        <ele>2136.0</ele>
        <time>2017-05-24T14:52:52Z</time>
      </trkpt>
      <trkpt lat="42.957600" lon="-4.222550">
        <ele>2135.0</ele>
        <time>2017-05-24T14:52:53Z</time>
      </trkpt>
      <trkpt lat="42.957567" lon="-4.222467">
        <ele>2135.0</ele>
        <time>2017-05-24T14:52:54Z</time>
      </trkpt>
      <trkpt lat="42.957567" lon="-4.222367">
        <ele>2134.0</ele>
        <time>2017-05-24T14:52:55Z</time>
      </trkpt>
      <trkpt lat="42.957600" lon="-4.222283">
        <ele>2133.0</ele>
        <time>2017-05-24T14:52:56Z</time>
      </trkpt>
      <trkpt lat="42.957683" lon="-4.222200">
        <ele>2131.0</ele>
        <time>2017-05-24T14:52:57Z</time>
      </trkpt>
      <trkpt lat="42.957800" lon="-4.222167">
        <ele>2128.0</ele>
        <time>2017-05-24T14:52:58Z</time>
      </trkpt>
      <trkpt lat="42.957917" lon="-4.222167">
        <ele>2126.0</ele>
        <time>2017-05-24T14:52:59Z</time>
      </trkpt>
      <trkpt lat="42.958050" lon="-4.222200">
        <ele>2127.0</ele>
        <time>2017-05-24T14:53:00Z</time>
      </trkpt>
      <trkpt lat="42.958183" lon="-4.222217">
        <ele>2129.0</ele>
        <time>2017-05-24T14:53:01Z</time>
      </trkpt>
      <trkpt lat="42.958283" lon="-4.222200">
        <ele>2129.0</ele>
        <time>2017-05-24T14:53:02Z</time>
      </trkpt>
      <trkpt lat="42.958400" lon="-4.222217">
        <ele>2130.0</ele>
        <time>2017-05-24T14:53:03Z</time>
      </trkpt>
      <trkpt lat="42.958500" lon="-4.222233">
        <ele>2130.0</ele>
        <time>2017-05-24T14:53:04Z</time>
      </trkpt>
      <trkpt lat="42.958617" lon="-4.222283">
        <ele>2129.0</ele>
        <time>2017-05-24T14:53:05Z</time>
      </trkpt>
      <trkpt lat="42.958717" lon="-4.222350">
        <ele>2129.0</ele>
        <time>2017-05-24T14:53:06Z</time>
      </trkpt>
      <trkpt lat="42.958817" lon="-4.222417">
        <ele>2128.0</ele>
        <time>2017-05-24T14:53:07Z</time>
      </trkpt>
      <trkpt lat="42.958917" lon="-4.222500">
        <ele>2128.0</ele>
        <time>2017-05-24T14:53:08Z</time>
      </trkpt>
      <trkpt lat="42.959017" lon="-4.222583">
        <ele>2127.0</ele>
        <time>2017-05-24T14:53:09Z</time>
      </trkpt>
      <trkpt lat="42.959117" lon="-4.222683">
        <ele>2127.0</ele>
        <time>2017-05-24T14:53:10Z</time>
      </trkpt>
      <trkpt lat="42.959200" lon="-4.222767">
        <ele>2128.0</ele>
        <time>2017-05-24T14:53:11Z</time>
      </trkpt>
      <trkpt lat="42.959300" lon="-4.222867">
        <ele>2128.0</ele>
        <time>2017-05-24T14:53:12Z</time>
      </trkpt>
      <trkpt lat="42.959383" lon="-4.222950">
        <ele>2129.0</ele>
        <time>2017-05-24T14:53:13Z</time>
      </trkpt>
      <trkpt lat="42.959467" lon="-4.223033">
        <ele>2129.0</ele>
        <time>2017-05-24T14:53:14Z</time>
      </trkpt>
      <trkpt lat="42.959567" lon="-4.223100">
        <ele>2128.0</ele>
        <time>2017-05-24T14:53:15Z</time>
      </trkpt>
      <trkpt lat="42.959650" lon="-4.223183">
        <ele>2128.0</ele>
        <time>2017-05-24T14:53:16Z</time>
      </trkpt>
      <trkpt lat="42.959733" lon="-4.223267">
        <ele>2128.0</ele>
        <time>2017-05-24T14:53:17Z</time>
      </trkpt>
      <trkpt lat="42.959833" lon="-4.223367">
        <ele>2128.0</ele>
        <time>2017-05-24T14:53:18Z</time>
      </trkpt>
      <trkpt lat="42.959917" lon="-4.223450">
        <ele>2128.0</ele>
        <time>2017-05-24T14:53:19Z</time>
      </trkpt>
      <trkpt lat="42.960017" lon="-4.223550">
        <ele>2127.0</ele>
        <time>2017-05-24T14:53:20Z</time>
      </trkpt>
      <trkpt lat="42.960100" lon="-4.223650">
        <ele>2126.0</ele>
        <time>2017-05-24T14:53:21Z</time>
      </trkpt>
      <trkpt lat="42.960200" lon="-4.223767">
        <ele>2125.0</ele>
        <time>2017-05-24T14:53:22Z</time>
      </trkpt>
      <trkpt lat="42.960300" lon="-4.223900">
        <ele>2125.0</ele>
        <time>2017-05-24T14:53:23Z</time>
      </trkpt>
      <trkpt lat="42.960400" lon="-4.224033">
        <ele>2125.0</ele>
        <time>2017-05-24T14:53:24Z</time>
      </trkpt>
      <trkpt lat="42.960500" lon="-4.224167">
        <ele>2125.0</ele>
        <time>2017-05-24T14:53:25Z</time>
      </trkpt>
      <trkpt lat="42.960600" lon="-4.224300">
        <ele>2126.0</ele>
        <time>2017-05-24T14:53:26Z</time>
      </trkpt>
      <trkpt lat="42.960700" lon="-4.224417">
        <ele>2129.0</ele>
        <time>2017-05-24T14:53:27Z</time>
      </trkpt>
      <trkpt lat="42.960800" lon="-4.224483">
        <ele>2132.0</ele>
        <time>2017-05-24T14:53:28Z</time>
      </trkpt>
      <trkpt lat="42.960900" lon="-4.224517">
        <ele>2134.0</ele>
        <time>2017-05-24T14:53:29Z</time>
      </trkpt>
      <trkpt lat="42.961000" lon="-4.224533">
        <ele>2134.0</ele>
        <time>2017-05-24T14:53:30Z</time>
      </trkpt>
      <trkpt lat="42.961100" lon="-4.224533">
        <ele>2134.0</ele>
        <time>2017-05-24T14:53:31Z</time>
      </trkpt>
      <trkpt lat="42.961217" lon="-4.224533">
        <ele>2134.0</ele>
        <time>2017-05-24T14:53:32Z</time>
      </trkpt>
      <trkpt lat="42.961300" lon="-4.224500">
        <ele>2134.0</ele>
        <time>2017-05-24T14:53:33Z</time>
      </trkpt>
      <trkpt lat="42.961367" lon="-4.224433">
        <ele>2133.0</ele>
        <time>2017-05-24T14:53:34Z</time>
      </trkpt>
      <trkpt lat="42.961383" lon="-4.224367">
        <ele>2132.0</ele>
        <time>2017-05-24T14:53:35Z</time>
      </trkpt>
      <trkpt lat="42.961383" lon="-4.224300">
        <ele>2132.0</ele>
        <time>2017-05-24T14:53:36Z</time>
      </trkpt>
      <trkpt lat="42.961350" lon="-4.224283">
        <ele>2133.0</ele>
        <time>2017-05-24T14:53:37Z</time>
      </trkpt>
      <trkpt lat="42.961333" lon="-4.224300">
        <ele>2133.0</ele>
        <time>2017-05-24T14:53:38Z</time>
      </trkpt>
      <trkpt lat="42.961300" lon="-4.224350">
        <ele>2133.0</ele>
        <time>2017-05-24T14:53:39Z</time>
      </trkpt>
      <trkpt lat="42.961267" lon="-4.224433">
        <ele>2133.0</ele>
        <time>2017-05-24T14:53:40Z</time>
      </trkpt>
      <trkpt lat="42.961250" lon="-4.224533">
        <ele>2133.0</ele>
        <time>2017-05-24T14:53:41Z</time>
      </trkpt>
      <trkpt lat="42.961233" lon="-4.224633">
        <ele>2134.0</ele>
        <time>2017-05-24T14:53:42Z</time>
      </trkpt>
      <trkpt lat="42.961250" lon="-4.224767">
        <ele>2135.0</ele>
        <time>2017-05-24T14:53:43Z</time>
      </trkpt>
      <trkpt lat="42.961283" lon="-4.224900">
        <ele>2137.0</ele>
        <time>2017-05-24T14:53:44Z</time>
      </trkpt>
      <trkpt lat="42.961333" lon="-4.225033">
        <ele>2140.0</ele>
        <time>2017-05-24T14:53:45Z</time>
      </trkpt>
      <trkpt lat="42.961383" lon="-4.225150">
        <ele>2143.0</ele>
        <time>2017-05-24T14:53:46Z</time>
      </trkpt>
      <trkpt lat="42.961433" lon="-4.225250">
        <ele>2145.0</ele>
        <time>2017-05-24T14:53:47Z</time>
      </trkpt>
      <trkpt lat="42.961500" lon="-4.225383">
        <ele>2146.0</ele>
        <time>2017-05-24T14:53:48Z</time>
      </trkpt>
      <trkpt lat="42.961567" lon="-4.225483">
        <ele>2148.0</ele>
        <time>2017-05-24T14:53:49Z</time>
      </trkpt>
      <trkpt lat="42.961667" lon="-4.225567">
        <ele>2150.0</ele>
        <time>2017-05-24T14:53:50Z</time>
      </trkpt>
      <trkpt lat="42.961767" lon="-4.225633">
        <ele>2151.0</ele>
        <time>2017-05-24T14:53:51Z</time>
      </trkpt>
      <trkpt lat="42.961867" lon="-4.225650">
        <ele>2153.0</ele>
        <time>2017-05-24T14:53:52Z</time>
      </trkpt>
      <trkpt lat="42.961967" lon="-4.225667">
        <ele>2154.0</ele>
        <time>2017-05-24T14:53:53Z</time>
      </trkpt>
      <trkpt lat="42.962067" lon="-4.225667">
        <ele>2156.0</ele>
        <time>2017-05-24T14:53:54Z</time>
      </trkpt>
      <trkpt lat="42.962167" lon="-4.225633">
        <ele>2156.0</ele>
        <time>2017-05-24T14:53:55Z</time>
      </trkpt>
      <trkpt lat="42.962233" lon="-4.225600">
        <ele>2157.0</ele>
        <time>2017-05-24T14:53:56Z</time>
      </trkpt>
      <trkpt lat="42.962300" lon="-4.225533">
        <ele>2156.0</ele>
        <time>2017-05-24T14:53:57Z</time>
      </trkpt>
      <trkpt lat="42.962333" lon="-4.225467">
        <ele>2156.0</ele>
        <time>2017-05-24T14:53:58Z</time>
      </trkpt>
      <trkpt lat="42.962350" lon="-4.225417">
        <ele>2157.0</ele>
        <time>2017-05-24T14:53:59Z</time>
      </trkpt>
      <trkpt lat="42.962333" lon="-4.225383">
        <ele>2157.0</ele>
        <time>2017-05-24T14:54:00Z</time>
      </trkpt>
      <trkpt lat="42.962317" lon="-4.225367">
        <ele>2155.0</ele>
        <time>2017-05-24T14:54:01Z</time>
      </trkpt>
      <trkpt lat="42.962300" lon="-4.225367">
        <ele>2155.0</ele>
        <time>2017-05-24T14:54:02Z</time>
      </trkpt>
      <trkpt lat="42.962250" lon="-4.225383">
        <ele>2155.0</ele>
        <time>2017-05-24T14:54:03Z</time>
      </trkpt>
      <trkpt lat="42.962217" lon="-4.225433">
        <ele>2155.0</ele>
        <time>2017-05-24T14:54:04Z</time>
      </trkpt>
      <trkpt lat="42.962183" lon="-4.225517">
        <ele>2156.0</ele>
        <time>2017-05-24T14:54:05Z</time>
      </trkpt>
      <trkpt lat="42.962150" lon="-4.225600">
        <ele>2156.0</ele>
        <time>2017-05-24T14:54:06Z</time>
      </trkpt>
      <trkpt lat="42.962133" lon="-4.225717">
        <ele>2157.0</ele>
        <time>2017-05-24T14:54:07Z</time>
      </trkpt>
      <trkpt lat="42.962150" lon="-4.225850">
        <ele>2157.0</ele>
        <time>2017-05-24T14:54:08Z</time>
      </trkpt>
      <trkpt lat="42.962167" lon="-4.226000">
        <ele>2159.0</ele>
        <time>2017-05-24T14:54:09Z</time>
      </trkpt>
      <trkpt lat="42.962200" lon="-4.226133">
        <ele>2161.0</ele>
        <time>2017-05-24T14:54:10Z</time>
      </trkpt>
      <trkpt lat="42.962233" lon="-4.226250">
        <ele>2164.0</ele>
        <time>2017-05-24T14:54:11Z</time>
      </trkpt>
      <trkpt lat="42.962250" lon="-4.226383">
        <ele>2165.0</ele>
        <time>2017-05-24T14:54:12Z</time>
      </trkpt>
      <trkpt lat="42.962283" lon="-4.226500">
        <ele>2166.0</ele>
        <time>2017-05-24T14:54:13Z</time>
      </trkpt>
      <trkpt lat="42.962317" lon="-4.226633">
        <ele>2166.0</ele>
        <time>2017-05-24T14:54:14Z</time>
      </trkpt>
      <trkpt lat="42.962383" lon="-4.226767">
        <ele>2167.0</ele>
        <time>2017-05-24T14:54:15Z</time>
      </trkpt>
      <trkpt lat="42.962450" lon="-4.226917">
        <ele>2169.0</ele>
        <time>2017-05-24T14:54:16Z</time>
      </trkpt>
      <trkpt lat="42.962533" lon="-4.227033">
        <ele>2172.0</ele>
        <time>2017-05-24T14:54:17Z</time>
      </trkpt>
      <trkpt lat="42.962600" lon="-4.227150">
        <ele>2175.0</ele>
        <time>2017-05-24T14:54:18Z</time>
      </trkpt>
      <trkpt lat="42.962667" lon="-4.227233">
        <ele>2177.0</ele>
        <time>2017-05-24T14:54:19Z</time>
      </trkpt>
      <trkpt lat="42.962733" lon="-4.227333">
        <ele>2179.0</ele>
        <time>2017-05-24T14:54:20Z</time>
      </trkpt>
      <trkpt lat="42.962817" lon="-4.227433">
        <ele>2180.0</ele>
        <time>2017-05-24T14:54:21Z</time>
      </trkpt>
      <trkpt lat="42.962917" lon="-4.227500">
        <ele>2180.0</ele>
        <time>2017-05-24T14:54:22Z</time>
      </trkpt>
      <trkpt lat="42.963033" lon="-4.227517">
        <ele>2179.0</ele>
        <time>2017-05-24T14:54:23Z</time>
      </trkpt>
      <trkpt lat="42.963133" lon="-4.227483">
        <ele>2179.0</ele>
        <time>2017-05-24T14:54:24Z</time>
      </trkpt>
      <trkpt lat="42.963217" lon="-4.227417">
        <ele>2180.0</ele>
        <time>2017-05-24T14:54:25Z</time>
      </trkpt>
      <trkpt lat="42.963267" lon="-4.227367">
        <ele>2182.0</ele>
        <time>2017-05-24T14:54:26Z</time>
      </trkpt>
      <trkpt lat="42.963267" lon="-4.227333">
        <ele>2183.0</ele>
        <time>2017-05-24T14:54:27Z</time>
      </trkpt>
      <trkpt lat="42.963250" lon="-4.227300">
        <ele>2184.0</ele>
        <time>2017-05-24T14:54:28Z</time>
      </trkpt>
      <trkpt lat="42.963233" lon="-4.227300">
        <ele>2185.0</ele>
        <time>2017-05-24T14:54:29Z</time>
      </trkpt>
      <trkpt lat="42.963200" lon="-4.227333">
        <ele>2187.0</ele>
        <time>2017-05-24T14:54:30Z</time>
      </trkpt>
      <trkpt lat="42.963183" lon="-4.227400">
        <ele>2188.0</ele>
        <time>2017-05-24T14:54:31Z</time>
      </trkpt>
      <trkpt lat="42.963183" lon="-4.227517">
        <ele>2188.0</ele>
        <time>2017-05-24T14:54:32Z</time>
      </trkpt>
      <trkpt lat="42.963200" lon="-4.227650">
        <ele>2188.0</ele>
        <time>2017-05-24T14:54:33Z</time>
      </trkpt>
      <trkpt lat="42.963250" lon="-4.227800">
        <ele>2189.0</ele>
        <time>2017-05-24T14:54:34Z</time>
      </trkpt>
      <trkpt lat="42.963317" lon="-4.227933">
        <ele>2191.0</ele>
        <time>2017-05-24T14:54:35Z</time>
      </trkpt>
      <trkpt lat="42.963400" lon="-4.228050">
        <ele>2193.0</ele>
        <time>2017-05-24T14:54:36Z</time>
      </trkpt>
      <trkpt lat="42.963483" lon="-4.228150">
        <ele>2195.0</ele>
        <time>2017-05-24T14:54:37Z</time>
      </trkpt>
      <trkpt lat="42.963583" lon="-4.228233">
        <ele>2196.0</ele>
        <time>2017-05-24T14:54:38Z</time>
      </trkpt>
      <trkpt lat="42.963683" lon="-4.228333">
        <ele>2196.0</ele>
        <time>2017-05-24T14:54:39Z</time>
      </trkpt>
      <trkpt lat="42.963783" lon="-4.228433">
        <ele>2197.0</ele>
        <time>2017-05-24T14:54:40Z</time>
      </trkpt>
      <trkpt lat="42.963900" lon="-4.228533">
        <ele>2198.0</ele>
        <time>2017-05-24T14:54:41Z</time>
      </trkpt>
      <trkpt lat="42.964017" lon="-4.228617">
        <ele>2199.0</ele>
        <time>2017-05-24T14:54:42Z</time>
      </trkpt>
      <trkpt lat="42.964133" lon="-4.228717">
        <ele>2201.0</ele>
        <time>2017-05-24T14:54:43Z</time>
      </trkpt>
      <trkpt lat="42.964250" lon="-4.228800">
        <ele>2203.0</ele>
        <time>2017-05-24T14:54:44Z</time>
      </trkpt>
      <trkpt lat="42.964350" lon="-4.228867">
        <ele>2204.0</ele>
        <time>2017-05-24T14:54:45Z</time>
      </trkpt>
      <trkpt lat="42.964450" lon="-4.228950">
        <ele>2206.0</ele>
        <time>2017-05-24T14:54:46Z</time>
      </trkpt>
      <trkpt lat="42.964550" lon="-4.229050">
        <ele>2208.0</ele>
        <time>2017-05-24T14:54:47Z</time>
      </trkpt>
      <trkpt lat="42.964633" lon="-4.229133">
        <ele>2209.0</ele>
        <time>2017-05-24T14:54:48Z</time>
      </trkpt>
      <trkpt lat="42.964717" lon="-4.229200">
        <ele>2209.0</ele>
        <time>2017-05-24T14:54:49Z</time>
      </trkpt>
      <trkpt lat="42.964817" lon="-4.229267">
        <ele>2209.0</ele>
        <time>2017-05-24T14:54:50Z</time>
      </trkpt>
      <trkpt lat="42.964933" lon="-4.229350">
        <ele>2208.0</ele>
        <time>2017-05-24T14:54:51Z</time>
      </trkpt>
      <trkpt lat="42.965033" lon="-4.229433">
        <ele>2208.0</ele>
        <time>2017-05-24T14:54:52Z</time>
      </trkpt>
      <trkpt lat="42.965150" lon="-4.229533">
        <ele>2208.0</ele>
        <time>2017-05-24T14:54:53Z</time>
      </trkpt>
      <trkpt lat="42.965267" lon="-4.229633">
        <ele>2209.0</ele>
        <time>2017-05-24T14:54:54Z</time>
      </trkpt>
      <trkpt lat="42.965383" lon="-4.229733">
        <ele>2210.0</ele>
        <time>2017-05-24T14:54:55Z</time>
      </trkpt>
      <trkpt lat="42.965517" lon="-4.229833">
        <ele>2212.0</ele>
        <time>2017-05-24T14:54:56Z</time>
      </trkpt>
      <trkpt lat="42.965650" lon="-4.229917">
        <ele>2215.0</ele>
        <time>2017-05-24T14:54:57Z</time>
      </trkpt>
      <trkpt lat="42.965767" lon="-4.230000">
        <ele>2219.0</ele>
        <time>2017-05-24T14:54:58Z</time>
      </trkpt>
      <trkpt lat="42.965883" lon="-4.230067">
        <ele>2225.0</ele>
        <time>2017-05-24T14:54:59Z</time>
      </trkpt>
      <trkpt lat="42.965983" lon="-4.230117">
        <ele>2233.0</ele>
        <time>2017-05-24T14:55:00Z</time>
      </trkpt>
      <trkpt lat="42.966067" lon="-4.230150">
        <ele>2240.0</ele>
        <time>2017-05-24T14:55:01Z</time>
      </trkpt>
      <trkpt lat="42.966150" lon="-4.230167">
        <ele>2247.0</ele>
        <time>2017-05-24T14:55:02Z</time>
      </trkpt>
      <trkpt lat="42.966217" lon="-4.230200">
        <ele>2252.0</ele>
        <time>2017-05-24T14:55:03Z</time>
      </trkpt>
      <trkpt lat="42.966267" lon="-4.230300">
        <ele>2255.0</ele>
        <time>2017-05-24T14:55:04Z</time>
      </trkpt>
      <trkpt lat="42.966300" lon="-4.230417">
        <ele>2258.0</ele>
        <time>2017-05-24T14:55:05Z</time>
      </trkpt>
      <trkpt lat="42.966300" lon="-4.230567">
        <ele>2262.0</ele>
        <time>2017-05-24T14:55:06Z</time>
      </trkpt>
      <trkpt lat="42.966267" lon="-4.230667">
        <ele>2267.0</ele>
        <time>2017-05-24T14:55:07Z</time>
      </trkpt>
      <trkpt lat="42.966217" lon="-4.230733">
        <ele>2271.0</ele>
        <time>2017-05-24T14:55:08Z</time>
      </trkpt>
      <trkpt lat="42.966150" lon="-4.230733">
        <ele>2276.0</ele>
        <time>2017-05-24T14:55:09Z</time>
      </trkpt>
      <trkpt lat="42.966100" lon="-4.230700">
        <ele>2281.0</ele>
        <time>2017-05-24T14:55:10Z</time>
      </trkpt>
      <trkpt lat="42.966067" lon="-4.230650">
        <ele>2288.0</ele>
        <time>2017-05-24T14:55:11Z</time>
      </trkpt>
      <trkpt lat="42.966083" lon="-4.230617">
        <ele>2294.0</ele>
        <time>2017-05-24T14:55:12Z</time>
      </trkpt>
      <trkpt lat="42.966133" lon="-4.230583">
        <ele>2299.0</ele>
        <time>2017-05-24T14:55:13Z</time>
      </trkpt>
      <trkpt lat="42.966183" lon="-4.230533">
        <ele>2302.0</ele>
        <time>2017-05-24T14:55:14Z</time>
      </trkpt>
      <trkpt lat="42.966250" lon="-4.230483">
        <ele>2306.0</ele>
        <time>2017-05-24T14:55:15Z</time>
      </trkpt>
      <trkpt lat="42.966333" lon="-4.230450">
        <ele>2310.0</ele>
        <time>2017-05-24T14:55:16Z</time>
      </trkpt>
      <trkpt lat="42.966417" lon="-4.230450">
        <ele>2314.0</ele>
        <time>2017-05-24T14:55:17Z</time>
      </trkpt>
      <trkpt lat="42.966517" lon="-4.230500">
        <ele>2318.0</ele>
        <time>2017-05-24T14:55:18Z</time>
      </trkpt>
      <trkpt lat="42.966600" lon="-4.230583">
        <ele>2321.0</ele>
        <time>2017-05-24T14:55:19Z</time>
      </trkpt>
      <trkpt lat="42.966650" lon="-4.230700">
        <ele>2324.0</ele>
        <time>2017-05-24T14:55:20Z</time>
      </trkpt>
      <trkpt lat="42.966683" lon="-4.230817">
        <ele>2330.0</ele>
        <time>2017-05-24T14:55:21Z</time>
      </trkpt>
      <trkpt lat="42.966700" lon="-4.230917">
        <ele>2336.0</ele>
        <time>2017-05-24T14:55:22Z</time>
      </trkpt>
      <trkpt lat="42.966683" lon="-4.231000">
        <ele>2342.0</ele>
        <time>2017-05-24T14:55:23Z</time>
      </trkpt>
      <trkpt lat="42.966650" lon="-4.231067">
        <ele>2346.0</ele>
        <time>2017-05-24T14:55:24Z</time>
      </trkpt>
      <trkpt lat="42.966600" lon="-4.231100">
        <ele>2349.0</ele>
        <time>2017-05-24T14:55:25Z</time>
      </trkpt>
      <trkpt lat="42.966550" lon="-4.231117">
        <ele>2352.0</ele>
        <time>2017-05-24T14:55:26Z</time>
      </trkpt>
      <trkpt lat="42.966500" lon="-4.231100">
        <ele>2355.0</ele>
        <time>2017-05-24T14:55:27Z</time>
      </trkpt>
      <trkpt lat="42.966450" lon="-4.231067">
        <ele>2359.0</ele>
        <time>2017-05-24T14:55:28Z</time>
      </trkpt>
      <trkpt lat="42.966450" lon="-4.231033">
        <ele>2363.0</ele>
        <time>2017-05-24T14:55:29Z</time>
      </trkpt>
      <trkpt lat="42.966467" lon="-4.230983">
        <ele>2366.0</ele>
        <time>2017-05-24T14:55:30Z</time>
      </trkpt>
      <trkpt lat="42.966500" lon="-4.230950">
        <ele>2367.0</ele>
        <time>2017-05-24T14:55:31Z</time>
      </trkpt>
      <trkpt lat="42.966550" lon="-4.230900">
        <ele>2368.0</ele>
        <time>2017-05-24T14:55:32Z</time>
      </trkpt>
      <trkpt lat="42.966617" lon="-4.230833">
        <ele>2369.0</ele>
        <time>2017-05-24T14:55:33Z</time>
      </trkpt>
      <trkpt lat="42.966683" lon="-4.230783">
        <ele>2370.0</ele>
        <time>2017-05-24T14:55:34Z</time>
      </trkpt>
      <trkpt lat="42.966767" lon="-4.230733">
        <ele>2371.0</ele>
        <time>2017-05-24T14:55:35Z</time>
      </trkpt>
      <trkpt lat="42.966867" lon="-4.230717">
        <ele>2372.0</ele>
        <time>2017-05-24T14:55:36Z</time>
      </trkpt>
      <trkpt lat="42.966983" lon="-4.230717">
        <ele>2373.0</ele>
        <time>2017-05-24T14:55:37Z</time>
      </trkpt>
      <trkpt lat="42.967117" lon="-4.230733">
        <ele>2376.0</ele>
        <time>2017-05-24T14:55:38Z</time>
      </trkpt>
      <trkpt lat="42.967217" lon="-4.230750">
        <ele>2379.0</ele>
        <time>2017-05-24T14:55:39Z</time>
      </trkpt>
      <trkpt lat="42.967317" lon="-4.230783">
        <ele>2383.0</ele>
        <time>2017-05-24T14:55:40Z</time>
      </trkpt>
      <trkpt lat="42.967417" lon="-4.230800">
        <ele>2387.0</ele>
        <time>2017-05-24T14:55:41Z</time>
      </trkpt>
      <trkpt lat="42.967517" lon="-4.230800">
        <ele>2392.0</ele>
        <time>2017-05-24T14:55:42Z</time>
      </trkpt>
      <trkpt lat="42.967617" lon="-4.230800">
        <ele>2397.0</ele>
        <time>2017-05-24T14:55:43Z</time>
      </trkpt>
      <trkpt lat="42.967700" lon="-4.230833">
        <ele>2401.0</ele>
        <time>2017-05-24T14:55:44Z</time>
      </trkpt>
      <trkpt lat="42.967800" lon="-4.230867">
        <ele>2406.0</ele>
        <time>2017-05-24T14:55:45Z</time>
      </trkpt>
      <trkpt lat="42.967883" lon="-4.230933">
        <ele>2410.0</ele>
        <time>2017-05-24T14:55:46Z</time>
      </trkpt>
      <trkpt lat="42.967933" lon="-4.231017">
        <ele>2415.0</ele>
        <time>2017-05-24T14:55:47Z</time>
      </trkpt>
      <trkpt lat="42.967983" lon="-4.231117">
        <ele>2420.0</ele>
        <time>2017-05-24T14:55:48Z</time>
      </trkpt>
      <trkpt lat="42.968000" lon="-4.231217">
        <ele>2424.0</ele>
        <time>2017-05-24T14:55:49Z</time>
      </trkpt>
      <trkpt lat="42.968017" lon="-4.231317">
        <ele>2428.0</ele>
        <time>2017-05-24T14:55:50Z</time>
      </trkpt>
      <trkpt lat="42.968033" lon="-4.231433">
        <ele>2433.0</ele>
        <time>2017-05-24T14:55:51Z</time>
      </trkpt>
      <trkpt lat="42.968050" lon="-4.231550">
        <ele>2437.0</ele>
        <time>2017-05-24T14:55:52Z</time>
      </trkpt>
      <trkpt lat="42.968033" lon="-4.231667">
        <ele>2442.0</ele>
        <time>2017-05-24T14:55:53Z</time>
      </trkpt>
      <trkpt lat="42.968017" lon="-4.231767">
        <ele>2446.0</ele>
        <time>2017-05-24T14:55:54Z</time>
      </trkpt>
      <trkpt lat="42.967967" lon="-4.231850">
        <ele>2450.0</ele>
        <time>2017-05-24T14:55:55Z</time>
      </trkpt>
      <trkpt lat="42.967917" lon="-4.231917">
        <ele>2454.0</ele>
        <time>2017-05-24T14:55:56Z</time>
      </trkpt>
      <trkpt lat="42.967883" lon="-4.231950">
        <ele>2458.0</ele>
        <time>2017-05-24T14:55:57Z</time>
      </trkpt>
      <trkpt lat="42.967833" lon="-4.231950">
        <ele>2463.0</ele>
        <time>2017-05-24T14:55:58Z</time>
      </trkpt>
      <trkpt lat="42.967800" lon="-4.231917">
        <ele>2467.0</ele>
        <time>2017-05-24T14:55:59Z</time>
      </trkpt>
      <trkpt lat="42.967783" lon="-4.231867">
        <ele>2470.0</ele>
        <time>2017-05-24T14:56:00Z</time>
      </trkpt>
      <trkpt lat="42.967800" lon="-4.231800">
        <ele>2473.0</ele>
        <time>2017-05-24T14:56:01Z</time>
      </trkpt>
      <trkpt lat="42.967850" lon="-4.231717">
        <ele>2475.0</ele>
        <time>2017-05-24T14:56:02Z</time>
      </trkpt>
      <trkpt lat="42.967933" lon="-4.231633">
        <ele>2478.0</ele>
        <time>2017-05-24T14:56:03Z</time>
      </trkpt>
      <trkpt lat="42.968017" lon="-4.231567">
        <ele>2483.0</ele>
        <time>2017-05-24T14:56:04Z</time>
      </trkpt>
      <trkpt lat="42.968117" lon="-4.231550">
        <ele>2487.0</ele>
        <time>2017-05-24T14:56:05Z</time>
      </trkpt>
      <trkpt lat="42.968217" lon="-4.231550">
        <ele>2492.0</ele>
        <time>2017-05-24T14:56:06Z</time>
      </trkpt>
      <trkpt lat="42.968317" lon="-4.231567">
        <ele>2496.0</ele>
        <time>2017-05-24T14:56:07Z</time>
      </trkpt>
      <trkpt lat="42.968400" lon="-4.231567">
        <ele>2500.0</ele>
        <time>2017-05-24T14:56:08Z</time>
      </trkpt>
      <trkpt lat="42.968500" lon="-4.231583">
        <ele>2504.0</ele>
        <time>2017-05-24T14:56:09Z</time>
      </trkpt>
      <trkpt lat="42.968600" lon="-4.231633">
        <ele>2508.0</ele>
        <time>2017-05-24T14:56:10Z</time>
      </trkpt>
      <trkpt lat="42.968700" lon="-4.231700">
        <ele>2512.0</ele>
        <time>2017-05-24T14:56:11Z</time>
      </trkpt>
      <trkpt lat="42.968783" lon="-4.231767">
        <ele>2517.0</ele>
        <time>2017-05-24T14:56:12Z</time>
      </trkpt>
      <trkpt lat="42.968850" lon="-4.231850">
        <ele>2520.0</ele>
        <time>2017-05-24T14:56:13Z</time>
      </trkpt>
      <trkpt lat="42.968900" lon="-4.231950">
        <ele>2523.0</ele>
        <time>2017-05-24T14:56:14Z</time>
      </trkpt>
      <trkpt lat="42.968950" lon="-4.232050">
        <ele>2526.0</ele>
        <time>2017-05-24T14:56:15Z</time>
      </trkpt>
      <trkpt lat="42.968983" lon="-4.232167">
        <ele>2527.0</ele>
        <time>2017-05-24T14:56:16Z</time>
      </trkpt>
      <trkpt lat="42.969000" lon="-4.232283">
        <ele>2529.0</ele>
        <time>2017-05-24T14:56:17Z</time>
      </trkpt>
      <trkpt lat="42.968983" lon="-4.232400">
        <ele>2531.0</ele>
        <time>2017-05-24T14:56:18Z</time>
      </trkpt>
      <trkpt lat="42.968967" lon="-4.232517">
        <ele>2533.0</ele>
        <time>2017-05-24T14:56:19Z</time>
      </trkpt>
      <trkpt lat="42.968917" lon="-4.232583">
        <ele>2536.0</ele>
        <time>2017-05-24T14:56:20Z</time>
      </trkpt>
      <trkpt lat="42.968850" lon="-4.232617">
        <ele>2540.0</ele>
        <time>2017-05-24T14:56:21Z</time>
      </trkpt>
      <trkpt lat="42.968817" lon="-4.232600">
        <ele>2544.0</ele>
        <time>2017-05-24T14:56:22Z</time>
      </trkpt>
      <trkpt lat="42.968783" lon="-4.232550">
        <ele>2548.0</ele>
        <time>2017-05-24T14:56:23Z</time>
      </trkpt>
      <trkpt lat="42.968783" lon="-4.232500">
        <ele>2553.0</ele>
        <time>2017-05-24T14:56:24Z</time>
      </trkpt>
      <trkpt lat="42.968783" lon="-4.232483">
        <ele>2557.0</ele>
        <time>2017-05-24T14:56:25Z</time>
      </trkpt>
      <trkpt lat="42.968800" lon="-4.232450">
        <ele>2561.0</ele>
        <time>2017-05-24T14:56:26Z</time>
      </trkpt>
      <trkpt lat="42.968817" lon="-4.232383">
        <ele>2563.0</ele>
        <time>2017-05-24T14:56:27Z</time>
      </trkpt>
      <trkpt lat="42.968833" lon="-4.232300">
        <ele>2566.0</ele>
        <time>2017-05-24T14:56:28Z</time>
      </trkpt>
      <trkpt lat="42.968883" lon="-4.232200">
        <ele>2570.0</ele>
        <time>2017-05-24T14:56:29Z</time>
      </trkpt>
      <trkpt lat="42.968950" lon="-4.232117">
        <ele>2576.0</ele>
        <time>2017-05-24T14:56:30Z</time>
      </trkpt>
      <trkpt lat="42.969033" lon="-4.232083">
        <ele>2582.0</ele>
        <time>2017-05-24T14:56:31Z</time>
      </trkpt>
      <trkpt lat="42.969133" lon="-4.232083">
        <ele>2586.0</ele>
        <time>2017-05-24T14:56:32Z</time>
      </trkpt>
      <trkpt lat="42.969233" lon="-4.232083">
        <ele>2589.0</ele>
        <time>2017-05-24T14:56:33Z</time>
      </trkpt>
      <trkpt lat="42.969333" lon="-4.232100">
        <ele>2592.0</ele>
        <time>2017-05-24T14:56:34Z</time>
      </trkpt>
      <trkpt lat="42.969417" lon="-4.232133">
        <ele>2595.0</ele>
        <time>2017-05-24T14:56:35Z</time>
      </trkpt>
      <trkpt lat="42.969517" lon="-4.232200">
        <ele>2597.0</ele>
        <time>2017-05-24T14:56:36Z</time>
      </trkpt>
      <trkpt lat="42.969583" lon="-4.232267">
        <ele>2598.0</ele>
        <time>2017-05-24T14:56:37Z</time>
      </trkpt>
      <trkpt lat="42.969667" lon="-4.232383">
        <ele>2600.0</ele>
        <time>2017-05-24T14:56:38Z</time>
      </trkpt>
      <trkpt lat="42.969733" lon="-4.232483">
        <ele>2602.0</ele>
        <time>2017-05-24T14:56:39Z</time>
      </trkpt>
      <trkpt lat="42.969783" lon="-4.232583">
        <ele>2604.0</ele>
        <time>2017-05-24T14:56:40Z</time>
      </trkpt>
      <trkpt lat="42.969783" lon="-4.232700">
        <ele>2605.0</ele>
        <time>2017-05-24T14:56:41Z</time>
      </trkpt>
      <trkpt lat="42.969783" lon="-4.232800">
        <ele>2606.0</ele>
        <time>2017-05-24T14:56:42Z</time>
      </trkpt>
      <trkpt lat="42.969767" lon="-4.232917">
        <ele>2608.0</ele>
        <time>2017-05-24T14:56:43Z</time>
      </trkpt>
      <trkpt lat="42.969733" lon="-4.232983">
        <ele>2610.0</ele>
        <time>2017-05-24T14:56:44Z</time>
      </trkpt>
      <trkpt lat="42.969700" lon="-4.233033">
        <ele>2612.0</ele>
        <time>2017-05-24T14:56:45Z</time>
      </trkpt>
      <trkpt lat="42.969650" lon="-4.233033">
        <ele>2613.0</ele>
        <time>2017-05-24T14:56:46Z</time>
      </trkpt>
      <trkpt lat="42.969583" lon="-4.233033">
        <ele>2616.0</ele>
        <time>2017-05-24T14:56:47Z</time>
      </trkpt>
      <trkpt lat="42.969533" lon="-4.233000">
        <ele>2619.0</ele>
        <time>2017-05-24T14:56:48Z</time>
      </trkpt>
      <trkpt lat="42.969517" lon="-4.232950">
        <ele>2622.0</ele>
        <time>2017-05-24T14:56:49Z</time>
      </trkpt>
      <trkpt lat="42.969500" lon="-4.232883">
        <ele>2625.0</ele>
        <time>2017-05-24T14:56:50Z</time>
      </trkpt>
      <trkpt lat="42.969483" lon="-4.232800">
        <ele>2627.0</ele>
        <time>2017-05-24T14:56:51Z</time>
      </trkpt>
      <trkpt lat="42.969483" lon="-4.232717">
        <ele>2629.0</ele>
        <time>2017-05-24T14:56:52Z</time>
      </trkpt>
      <trkpt lat="42.969483" lon="-4.232617">
        <ele>2632.0</ele>
        <time>2017-05-24T14:56:53Z</time>
      </trkpt>
      <trkpt lat="42.969517" lon="-4.232517">
        <ele>2635.0</ele>
        <time>2017-05-24T14:56:54Z</time>
      </trkpt>
      <trkpt lat="42.969550" lon="-4.232433">
        <ele>2639.0</ele>
        <time>2017-05-24T14:56:55Z</time>
      </trkpt>
      <trkpt lat="42.969583" lon="-4.232367">
        <ele>2643.0</ele>
        <time>2017-05-24T14:56:56Z</time>
      </trkpt>
      <trkpt lat="42.969600" lon="-4.232300">
        <ele>2645.0</ele>
        <time>2017-05-24T14:56:57Z</time>
      </trkpt>
      <trkpt lat="42.969650" lon="-4.232233">
        <ele>2648.0</ele>
        <time>2017-05-24T14:56:58Z</time>
      </trkpt>
      <trkpt lat="42.969683" lon="-4.232167">
        <ele>2651.0</ele>
        <time>2017-05-24T14:56:59Z</time>
      </trkpt>
      <trkpt lat="42.969750" lon="-4.232117">
        <ele>2653.0</ele>
        <time>2017-05-24T14:57:00Z</time>
      </trkpt>
      <trkpt lat="42.969833" lon="-4.232067">
        <ele>2656.0</ele>
        <time>2017-05-24T14:57:01Z</time>
      </trkpt>
      <trkpt lat="42.969900" lon="-4.232050">
        <ele>2659.0</ele>
        <time>2017-05-24T14:57:02Z</time>
      </trkpt>
      <trkpt lat="42.969983" lon="-4.232033">
        <ele>2662.0</ele>
        <time>2017-05-24T14:57:03Z</time>
      </trkpt>
      <trkpt lat="42.970067" lon="-4.232017">
        <ele>2664.0</ele>
        <time>2017-05-24T14:57:04Z</time>
      </trkpt>
      <trkpt lat="42.970150" lon="-4.232017">
        <ele>2666.0</ele>
        <time>2017-05-24T14:57:05Z</time>
      </trkpt>
      <trkpt lat="42.970233" lon="-4.232000">
        <ele>2668.0</ele>
        <time>2017-05-24T14:57:06Z</time>
      </trkpt>
      <trkpt lat="42.970333" lon="-4.231983">
        <ele>2670.0</ele>
        <time>2017-05-24T14:57:07Z</time>
      </trkpt>
      <trkpt lat="42.970433" lon="-4.231983">
        <ele>2673.0</ele>
        <time>2017-05-24T14:57:08Z</time>
      </trkpt>
      <trkpt lat="42.970533" lon="-4.231983">
        <ele>2677.0</ele>
        <time>2017-05-24T14:57:09Z</time>
      </trkpt>
      <trkpt lat="42.970617" lon="-4.232017">
        <ele>2680.0</ele>
        <time>2017-05-24T14:57:10Z</time>
      </trkpt>
      <trkpt lat="42.970700" lon="-4.232017">
        <ele>2682.0</ele>
        <time>2017-05-24T14:57:11Z</time>
      </trkpt>
      <trkpt lat="42.970783" lon="-4.232017">
        <ele>2682.0</ele>
        <time>2017-05-24T14:57:12Z</time>
      </trkpt>
      <trkpt lat="42.970883" lon="-4.232017">
        <ele>2681.0</ele>
        <time>2017-05-24T14:57:13Z</time>
      </trkpt>
      <trkpt lat="42.971000" lon="-4.232017">
        <ele>2681.0</ele>
        <time>2017-05-24T14:57:14Z</time>
      </trkpt>
      <trkpt lat="42.971133" lon="-4.232000">
        <ele>2681.0</ele>
        <time>2017-05-24T14:57:15Z</time>
      </trkpt>
      <trkpt lat="42.971267" lon="-4.231983">
        <ele>2683.0</ele>
        <time>2017-05-24T14:57:16Z</time>
      </trkpt>
      <trkpt lat="42.971383" lon="-4.231967">
        <ele>2686.0</ele>
        <time>2017-05-24T14:57:17Z</time>
      </trkpt>
      <trkpt lat="42.971500" lon="-4.231933">
        <ele>2690.0</ele>
        <time>2017-05-24T14:57:18Z</time>
      </trkpt>
      <trkpt lat="42.971583" lon="-4.231900">
        <ele>2693.0</ele>
        <time>2017-05-24T14:57:19Z</time>
      </trkpt>
      <trkpt lat="42.971683" lon="-4.231883">
        <ele>2696.0</ele>
        <time>2017-05-24T14:57:20Z</time>
      </trkpt>
      <trkpt lat="42.971783" lon="-4.231867">
        <ele>2698.0</ele>
        <time>2017-05-24T14:57:21Z</time>
      </trkpt>
      <trkpt lat="42.971883" lon="-4.231867">
        <ele>2699.0</ele>
        <time>2017-05-24T14:57:22Z</time>
      </trkpt>
      <trkpt lat="42.972000" lon="-4.231883">
        <ele>2701.0</ele>
        <time>2017-05-24T14:57:23Z</time>
      </trkpt>
      <trkpt lat="42.972100" lon="-4.231883">
        <ele>2704.0</ele>
        <time>2017-05-24T14:57:24Z</time>
      </trkpt>
      <trkpt lat="42.972200" lon="-4.231917">
        <ele>2706.0</ele>
        <time>2017-05-24T14:57:25Z</time>
      </trkpt>
      <trkpt lat="42.972283" lon="-4.231967">
        <ele>2709.0</ele>
        <time>2017-05-24T14:57:26Z</time>
      </trkpt>
      <trkpt lat="42.972350" lon="-4.232033">
        <ele>2711.0</ele>
        <time>2017-05-24T14:57:27Z</time>
      </trkpt>
      <trkpt lat="42.972400" lon="-4.232100">
        <ele>2714.0</ele>
        <time>2017-05-24T14:57:28Z</time>
      </trkpt>
      <trkpt lat="42.972450" lon="-4.232200">
        <ele>2716.0</ele>
        <time>2017-05-24T14:57:29Z</time>
      </trkpt>
      <trkpt lat="42.972483" lon="-4.232283">
        <ele>2719.0</ele>
        <time>2017-05-24T14:57:30Z</time>
      </trkpt>
      <trkpt lat="42.972483" lon="-4.232333">
        <ele>2722.0</ele>
        <time>2017-05-24T14:57:31Z</time>
      </trkpt>
      <trkpt lat="42.972483" lon="-4.232383">
        <ele>2724.0</ele>
        <time>2017-05-24T14:57:32Z</time>
      </trkpt>
      <trkpt lat="42.972483" lon="-4.232433">
        <ele>2725.0</ele>
        <time>2017-05-24T14:57:33Z</time>
      </trkpt>
      <trkpt lat="42.972450" lon="-4.232483">
        <ele>2725.0</ele>
        <time>2017-05-24T14:57:34Z</time>
      </trkpt>
      <trkpt lat="42.972433" lon="-4.232517">
        <ele>2727.0</ele>
        <time>2017-05-24T14:57:35Z</time>
      </trkpt>
      <trkpt lat="42.972400" lon="-4.232517">
        <ele>2728.0</ele>
        <time>2017-05-24T14:57:36Z</time>
      </trkpt>
      <trkpt lat="42.972367" lon="-4.232500">
        <ele>2730.0</ele>
        <time>2017-05-24T14:57:37Z</time>
      </trkpt>
      <trkpt lat="42.972350" lon="-4.232483">
        <ele>2731.0</ele>
        <time>2017-05-24T14:57:38Z</time>
      </trkpt>
      <trkpt lat="42.972317" lon="-4.232433">
        <ele>2732.0</ele>
        <time>2017-05-24T14:57:39Z</time>
      </trkpt>
      <trkpt lat="42.972300" lon="-4.232383">
        <ele>2732.0</ele>
        <time>2017-05-24T14:57:40Z</time>
      </trkpt>
      <trkpt lat="42.972267" lon="-4.232317">
        <ele>2734.0</ele>
        <time>2017-05-24T14:57:41Z</time>
      </trkpt>
      <trkpt lat="42.972283" lon="-4.232250">
        <ele>2738.0</ele>
        <time>2017-05-24T14:57:42Z</time>
      </trkpt>
      <trkpt lat="42.972317" lon="-4.232167">
        <ele>2741.0</ele>
        <time>2017-05-24T14:57:43Z</time>
      </trkpt>
      <trkpt lat="42.972350" lon="-4.232100">
        <ele>2743.0</ele>
        <time>2017-05-24T14:57:44Z</time>
      </trkpt>
      <trkpt lat="42.972367" lon="-4.232033">
        <ele>2745.0</ele>
        <time>2017-05-24T14:57:45Z</time>
      </trkpt>
      <trkpt lat="42.972400" lon="-4.231950">
        <ele>2747.0</ele>
        <time>2017-05-24T14:57:46Z</time>
      </trkpt>
      <trkpt lat="42.972433" lon="-4.231867">
        <ele>2748.0</ele>
        <time>2017-05-24T14:57:47Z</time>
      </trkpt>
      <trkpt lat="42.972483" lon="-4.231783">
        <ele>2748.0</ele>
        <time>2017-05-24T14:57:48Z</time>
      </trkpt>
      <trkpt lat="42.972567" lon="-4.231717">
        <ele>2748.0</ele>
        <time>2017-05-24T14:57:49Z</time>
      </trkpt>
      <trkpt lat="42.972667" lon="-4.231650">
        <ele>2749.0</ele>
        <time>2017-05-24T14:57:50Z</time>
      </trkpt>
      <trkpt lat="42.972750" lon="-4.231600">
        <ele>2750.0</ele>
        <time>2017-05-24T14:57:51Z</time>
      </trkpt>
      <trkpt lat="42.972867" lon="-4.231550">
        <ele>2752.0</ele>
        <time>2017-05-24T14:57:52Z</time>
      </trkpt>
      <trkpt lat="42.972983" lon="-4.231500">
        <ele>2753.0</ele>
        <time>2017-05-24T14:57:53Z</time>
      </trkpt>
      <trkpt lat="42.973083" lon="-4.231433">
        <ele>2754.0</ele>
        <time>2017-05-24T14:57:54Z</time>
      </trkpt>
      <trkpt lat="42.973183" lon="-4.231333">
        <ele>2755.0</ele>
        <time>2017-05-24T14:57:55Z</time>
      </trkpt>
      <trkpt lat="42.973300" lon="-4.231250">
        <ele>2756.0</ele>
        <time>2017-05-24T14:57:56Z</time>
      </trkpt>
      <trkpt lat="42.973417" lon="-4.231183">
        <ele>2757.0</ele>
        <time>2017-05-24T14:57:57Z</time>
      </trkpt>
      <trkpt lat="42.973533" lon="-4.231133">
        <ele>2759.0</ele>
        <time>2017-05-24T14:57:58Z</time>
      </trkpt>
      <trkpt lat="42.973633" lon="-4.231083">
        <ele>2761.0</ele>
        <time>2017-05-24T14:57:59Z</time>
      </trkpt>
      <trkpt lat="42.973733" lon="-4.231033">
        <ele>2762.0</ele>
        <time>2017-05-24T14:58:00Z</time>
      </trkpt>
      <trkpt lat="42.973833" lon="-4.230983">
        <ele>2762.0</ele>
        <time>2017-05-24T14:58:01Z</time>
      </trkpt>
      <trkpt lat="42.973933" lon="-4.230917">
        <ele>2761.0</ele>
        <time>2017-05-24T14:58:02Z</time>
      </trkpt>
      <trkpt lat="42.974050" lon="-4.230850">
        <ele>2760.0</ele>
        <time>2017-05-24T14:58:03Z</time>
      </trkpt>
      <trkpt lat="42.974183" lon="-4.230800">
        <ele>2759.0</ele>
        <time>2017-05-24T14:58:04Z</time>
      </trkpt>
      <trkpt lat="42.974317" lon="-4.230767">
        <ele>2759.0</ele>
        <time>2017-05-24T14:58:05Z</time>
      </trkpt>
      <trkpt lat="42.974450" lon="-4.230750">
        <ele>2759.0</ele>
        <time>2017-05-24T14:58:06Z</time>
      </trkpt>
      <trkpt lat="42.974600" lon="-4.230733">
        <ele>2760.0</ele>
        <time>2017-05-24T14:58:07Z</time>
      </trkpt>
      <trkpt lat="42.974733" lon="-4.230717">
        <ele>2761.0</ele>
        <time>2017-05-24T14:58:08Z</time>
      </trkpt>
      <trkpt lat="42.974883" lon="-4.230717">
        <ele>2763.0</ele>
        <time>2017-05-24T14:58:09Z</time>
      </trkpt>
      <trkpt lat="42.975000" lon="-4.230717">
        <ele>2765.0</ele>
        <time>2017-05-24T14:58:10Z</time>
      </trkpt>
      <trkpt lat="42.975117" lon="-4.230717">
        <ele>2767.0</ele>
        <time>2017-05-24T14:58:11Z</time>
      </trkpt>
      <trkpt lat="42.975233" lon="-4.230700">
        <ele>2769.0</ele>
        <time>2017-05-24T14:58:12Z</time>
      </trkpt>
      <trkpt lat="42.975333" lon="-4.230700">
        <ele>2770.0</ele>
        <time>2017-05-24T14:58:13Z</time>
      </trkpt>
      <trkpt lat="42.975450" lon="-4.230717">
        <ele>2771.0</ele>
        <time>2017-05-24T14:58:14Z</time>
      </trkpt>
      <trkpt lat="42.975550" lon="-4.230783">
        <ele>2772.0</ele>
        <time>2017-05-24T14:58:15Z</time>
      </trkpt>
      <trkpt lat="42.975650" lon="-4.230850">
        <ele>2775.0</ele>
        <time>2017-05-24T14:58:16Z</time>
      </trkpt>
      <trkpt lat="42.975750" lon="-4.230917">
        <ele>2778.0</ele>
        <time>2017-05-24T14:58:17Z</time>
      </trkpt>
      <trkpt lat="42.975833" lon="-4.230967">
        <ele>2780.0</ele>
        <time>2017-05-24T14:58:18Z</time>
      </trkpt>
      <trkpt lat="42.975950" lon="-4.231017">
        <ele>2781.0</ele>
        <time>2017-05-24T14:58:19Z</time>
      </trkpt>
      <trkpt lat="42.976050" lon="-4.231100">
        <ele>2783.0</ele>
        <time>2017-05-24T14:58:20Z</time>
      </trkpt>
      <trkpt lat="42.976150" lon="-4.231183">
        <ele>2787.0</ele>
        <time>2017-05-24T14:58:21Z</time>
      </trkpt>
      <trkpt lat="42.976217" lon="-4.231267">
        <ele>2790.0</ele>
        <time>2017-05-24T14:58:22Z</time>
      </trkpt>
      <trkpt lat="42.976283" lon="-4.231333">
        <ele>2793.0</ele>
        <time>2017-05-24T14:58:23Z</time>
      </trkpt>
      <trkpt lat="42.976333" lon="-4.231400">
        <ele>2796.0</ele>
        <time>2017-05-24T14:58:24Z</time>
      </trkpt>
      <trkpt lat="42.976400" lon="-4.231467">
        <ele>2798.0</ele>
        <time>2017-05-24T14:58:25Z</time>
      </trkpt>
      <trkpt lat="42.976450" lon="-4.231550">
        <ele>2799.0</ele>
        <time>2017-05-24T14:58:26Z</time>
      </trkpt>
      <trkpt lat="42.976483" lon="-4.231650">
        <ele>2800.0</ele>
        <time>2017-05-24T14:58:27Z</time>
      </trkpt>
      <trkpt lat="42.976500" lon="-4.231767">
        <ele>2802.0</ele>
        <time>2017-05-24T14:58:28Z</time>
      </trkpt>
      <trkpt lat="42.976517" lon="-4.231867">
        <ele>2804.0</ele>
        <time>2017-05-24T14:58:29Z</time>
      </trkpt>
      <trkpt lat="42.976500" lon="-4.231933">
        <ele>2807.0</ele>
        <time>2017-05-24T14:58:30Z</time>
      </trkpt>
      <trkpt lat="42.976483" lon="-4.231967">
        <ele>2809.0</ele>
        <time>2017-05-24T14:58:31Z</time>
      </trkpt>
      <trkpt lat="42.976450" lon="-4.232000">
        <ele>2811.0</ele>
        <time>2017-05-24T14:58:32Z</time>
      </trkpt>
      <trkpt lat="42.976433" lon="-4.232017">
        <ele>2813.0</ele>
        <time>2017-05-24T14:58:33Z</time>
      </trkpt>
      <trkpt lat="42.976400" lon="-4.232050">
        <ele>2814.0</ele>
        <time>2017-05-24T14:58:34Z</time>
      </trkpt>
      <trkpt lat="42.976367" lon="-4.232050">
        <ele>2815.0</ele>
        <time>2017-05-24T14:58:35Z</time>
      </trkpt>
      <trkpt lat="42.976333" lon="-4.232067">
        <ele>2816.0</ele>
        <time>2017-05-24T14:58:36Z</time>
      </trkpt>
      <trkpt lat="42.976300" lon="-4.232050">
        <ele>2817.0</ele>
        <time>2017-05-24T14:58:37Z</time>
      </trkpt>
      <trkpt lat="42.976250" lon="-4.232050">
        <ele>2817.0</ele>
        <time>2017-05-24T14:58:38Z</time>
      </trkpt>
      <trkpt lat="42.976217" lon="-4.232050">
        <ele>2819.0</ele>
        <time>2017-05-24T14:58:39Z</time>
      </trkpt>
      <trkpt lat="42.976167" lon="-4.232033">
        <ele>2820.0</ele>
        <time>2017-05-24T14:58:40Z</time>
      </trkpt>
      <trkpt lat="42.976117" lon="-4.232000">
        <ele>2821.0</ele>
        <time>2017-05-24T14:58:41Z</time>
      </trkpt>
      <trkpt lat="42.976083" lon="-4.231967">
        <ele>2824.0</ele>
        <time>2017-05-24T14:58:42Z</time>
      </trkpt>
      <trkpt lat="42.976050" lon="-4.231950">
        <ele>2827.0</ele>
        <time>2017-05-24T14:58:43Z</time>
      </trkpt>
      <trkpt lat="42.976033" lon="-4.231933">
        <ele>2830.0</ele>
        <time>2017-05-24T14:58:44Z</time>
      </trkpt>
      <trkpt lat="42.976017" lon="-4.231917">
        <ele>2833.0</ele>
        <time>2017-05-24T14:58:45Z</time>
      </trkpt>
      <trkpt lat="42.976017" lon="-4.231883">
        <ele>2835.0</ele>
        <time>2017-05-24T14:58:46Z</time>
      </trkpt>
      <trkpt lat="42.976017" lon="-4.231867">
        <ele>2837.0</ele>
        <time>2017-05-24T14:58:47Z</time>
      </trkpt>
      <trkpt lat="42.976017" lon="-4.231833">
        <ele>2836.0</ele>
        <time>2017-05-24T14:58:48Z</time>
      </trkpt>
      <trkpt lat="42.976000" lon="-4.231817">
        <ele>2835.0</ele>
        <time>2017-05-24T14:58:49Z</time>
      </trkpt>
      <trkpt lat="42.975983" lon="-4.231783">
        <ele>2834.0</ele>
        <time>2017-05-24T14:58:50Z</time>
      </trkpt>
      <trkpt lat="42.975950" lon="-4.231733">
        <ele>2835.0</ele>
        <time>2017-05-24T14:58:51Z</time>
      </trkpt>
      <trkpt lat="42.975917" lon="-4.231667">
        <ele>2836.0</ele>
        <time>2017-05-24T14:58:52Z</time>
      </trkpt>
      <trkpt lat="42.975917" lon="-4.231583">
        <ele>2839.0</ele>
        <time>2017-05-24T14:58:53Z</time>
      </trkpt>
      <trkpt lat="42.975917" lon="-4.231517">
        <ele>2841.0</ele>
        <time>2017-05-24T14:58:54Z</time>
      </trkpt>
      <trkpt lat="42.975933" lon="-4.231450">
        <ele>2843.0</ele>
        <time>2017-05-24T14:58:55Z</time>
      </trkpt>
      <trkpt lat="42.975933" lon="-4.231383">
        <ele>2844.0</ele>
        <time>2017-05-24T14:58:56Z</time>
      </trkpt>
      <trkpt lat="42.975933" lon="-4.231317">
        <ele>2847.0</ele>
        <time>2017-05-24T14:58:57Z</time>
      </trkpt>
      <trkpt lat="42.975917" lon="-4.231283">
        <ele>2849.0</ele>
        <time>2017-05-24T14:58:58Z</time>
      </trkpt>
      <trkpt lat="42.975917" lon="-4.231250">
        <ele>2852.0</ele>
        <time>2017-05-24T14:58:59Z</time>
      </trkpt>
      <trkpt lat="42.975917" lon="-4.231200">
        <ele>2854.0</ele>
        <time>2017-05-24T14:59:00Z</time>
      </trkpt>
      <trkpt lat="42.975933" lon="-4.231100">
        <ele>2856.0</ele>
        <time>2017-05-24T14:59:01Z</time>
      </trkpt>
      <trkpt lat="42.975950" lon="-4.230983">
        <ele>2857.0</ele>
        <time>2017-05-24T14:59:02Z</time>
      </trkpt>
      <trkpt lat="42.975967" lon="-4.230867">
        <ele>2860.0</ele>
        <time>2017-05-24T14:59:03Z</time>
      </trkpt>
      <trkpt lat="42.976017" lon="-4.230767">
        <ele>2863.0</ele>
        <time>2017-05-24T14:59:04Z</time>
      </trkpt>
      <trkpt lat="42.976067" lon="-4.230683">
        <ele>2865.0</ele>
        <time>2017-05-24T14:59:05Z</time>
      </trkpt>
      <trkpt lat="42.976117" lon="-4.230600">
        <ele>2866.0</ele>
        <time>2017-05-24T14:59:06Z</time>
      </trkpt>
      <trkpt lat="42.976183" lon="-4.230517">
        <ele>2866.0</ele>
        <time>2017-05-24T14:59:07Z</time>
      </trkpt>
      <trkpt lat="42.976250" lon="-4.230433">
        <ele>2866.0</ele>
        <time>2017-05-24T14:59:08Z</time>
      </trkpt>
      <trkpt lat="42.976350" lon="-4.230367">
        <ele>2864.0</ele>
        <time>2017-05-24T14:59:09Z</time>
      </trkpt>
      <trkpt lat="42.976450" lon="-4.230317">
        <ele>2862.0</ele>
        <time>2017-05-24T14:59:10Z</time>
      </trkpt>
      <trkpt lat="42.976583" lon="-4.230300">
        <ele>2860.0</ele>
        <time>2017-05-24T14:59:11Z</time>
      </trkpt>
      <trkpt lat="42.976717" lon="-4.230283">
        <ele>2859.0</ele>
        <time>2017-05-24T14:59:12Z</time>
      </trkpt>
      <trkpt lat="42.976833" lon="-4.230267">
        <ele>2859.0</ele>
        <time>2017-05-24T14:59:13Z</time>
      </trkpt>
      <trkpt lat="42.976967" lon="-4.230250">
        <ele>2860.0</ele>
        <time>2017-05-24T14:59:14Z</time>
      </trkpt>
      <trkpt lat="42.977100" lon="-4.230233">
        <ele>2862.0</ele>
        <time>2017-05-24T14:59:15Z</time>
      </trkpt>
      <trkpt lat="42.977217" lon="-4.230200">
        <ele>2863.0</ele>
        <time>2017-05-24T14:59:16Z</time>
      </trkpt>
      <trkpt lat="42.977333" lon="-4.230167">
        <ele>2865.0</ele>
        <time>2017-05-24T14:59:17Z</time>
      </trkpt>
      <trkpt lat="42.977450" lon="-4.230150">
        <ele>2866.0</ele>
        <time>2017-05-24T14:59:18Z</time>
      </trkpt>
      <trkpt lat="42.977550" lon="-4.230150">
        <ele>2866.0</ele>
        <time>2017-05-24T14:59:19Z</time>
      </trkpt>
      <trkpt lat="42.977683" lon="-4.230183">
        <ele>2866.0</ele>
        <time>2017-05-24T14:59:20Z</time>
      </trkpt>
      <trkpt lat="42.977817" lon="-4.230200">
        <ele>2867.0</ele>
        <time>2017-05-24T14:59:21Z</time>
      </trkpt>
      <trkpt lat="42.977967" lon="-4.230233">
        <ele>2869.0</ele>
        <time>2017-05-24T14:59:22Z</time>
      </trkpt>
      <trkpt lat="42.978083" lon="-4.230267">
        <ele>2873.0</ele>
        <time>2017-05-24T14:59:23Z</time>
      </trkpt>
      <trkpt lat="42.978183" lon="-4.230317">
        <ele>2876.0</ele>
        <time>2017-05-24T14:59:24Z</time>
      </trkpt>
      <trkpt lat="42.978283" lon="-4.230350">
        <ele>2879.0</ele>
        <time>2017-05-24T14:59:25Z</time>
      </trkpt>
      <trkpt lat="42.978383" lon="-4.230383">
        <ele>2880.0</ele>
        <time>2017-05-24T14:59:26Z</time>
      </trkpt>
      <trkpt lat="42.978500" lon="-4.230450">
        <ele>2881.0</ele>
        <time>2017-05-24T14:59:27Z</time>
      </trkpt>
      <trkpt lat="42.978583" lon="-4.230550">
        <ele>2881.0</ele>
        <time>2017-05-24T14:59:28Z</time>
      </trkpt>
      <trkpt lat="42.978633" lon="-4.230650">
        <ele>2882.0</ele>
        <time>2017-05-24T14:59:29Z</time>
      </trkpt>
      <trkpt lat="42.978650" lon="-4.230767">
        <ele>2883.0</ele>
        <time>2017-05-24T14:59:30Z</time>
      </trkpt>
      <trkpt lat="42.978650" lon="-4.230867">
        <ele>2885.0</ele>
        <time>2017-05-24T14:59:31Z</time>
      </trkpt>
      <trkpt lat="42.978650" lon="-4.230917">
        <ele>2886.0</ele>
        <time>2017-05-24T14:59:32Z</time>
      </trkpt>
      <trkpt lat="42.978633" lon="-4.230933">
        <ele>2887.0</ele>
        <time>2017-05-24T14:59:33Z</time>
      </trkpt>
      <trkpt lat="42.978617" lon="-4.230933">
        <ele>2888.0</ele>
        <time>2017-05-24T14:59:34Z</time>
      </trkpt>
      <trkpt lat="42.978600" lon="-4.230933">
        <ele>2887.0</ele>
        <time>2017-05-24T14:59:35Z</time>
      </trkpt>
      <trkpt lat="42.978583" lon="-4.230933">
        <ele>2886.0</ele>
        <time>2017-05-24T14:59:36Z</time>
      </trkpt>
      <trkpt lat="42.978550" lon="-4.230900">
        <ele>2886.0</ele>
        <time>2017-05-24T14:59:37Z</time>
      </trkpt>
      <trkpt lat="42.978533" lon="-4.230833">
        <ele>2885.0</ele>
        <time>2017-05-24T14:59:38Z</time>
      </trkpt>
      <trkpt lat="42.978517" lon="-4.230733">
        <ele>2886.0</ele>
        <time>2017-05-24T14:59:39Z</time>
      </trkpt>
      <trkpt lat="42.978533" lon="-4.230633">
        <ele>2888.0</ele>
        <time>2017-05-24T14:59:40Z</time>
      </trkpt>
      <trkpt lat="42.978567" lon="-4.230517">
        <ele>2890.0</ele>
        <time>2017-05-24T14:59:41Z</time>
      </trkpt>
      <trkpt lat="42.978617" lon="-4.230417">
        <ele>2890.0</ele>
        <time>2017-05-24T14:59:42Z</time>
      </trkpt>
      <trkpt lat="42.978683" lon="-4.230300">
        <ele>2891.0</ele>
        <time>2017-05-24T14:59:43Z</time>
      </trkpt>
      <trkpt lat="42.978767" lon="-4.230183">
        <ele>2891.0</ele>
        <time>2017-05-24T14:59:44Z</time>
      </trkpt>
      <trkpt lat="42.978850" lon="-4.230067">
        <ele>2892.0</ele>
        <time>2017-05-24T14:59:45Z</time>
      </trkpt>
      <trkpt lat="42.978950" lon="-4.229967">
        <ele>2892.0</ele>
        <time>2017-05-24T14:59:46Z</time>
      </trkpt>
      <trkpt lat="42.979067" lon="-4.229900">
        <ele>2893.0</ele>
        <time>2017-05-24T14:59:47Z</time>
      </trkpt>
      <trkpt lat="42.979183" lon="-4.229833">
        <ele>2893.0</ele>
        <time>2017-05-24T14:59:48Z</time>
      </trkpt>
      <trkpt lat="42.979300" lon="-4.229750">
        <ele>2894.0</ele>
        <time>2017-05-24T14:59:49Z</time>
      </trkpt>
      <trkpt lat="42.979417" lon="-4.229683">
        <ele>2894.0</ele>
        <time>2017-05-24T14:59:50Z</time>
      </trkpt>
      <trkpt lat="42.979567" lon="-4.229633">
        <ele>2895.0</ele>
        <time>2017-05-24T14:59:51Z</time>
      </trkpt>
      <trkpt lat="42.979717" lon="-4.229617">
        <ele>2896.0</ele>
        <time>2017-05-24T14:59:52Z</time>
      </trkpt>
      <trkpt lat="42.979850" lon="-4.229617">
        <ele>2898.0</ele>
        <time>2017-05-24T14:59:53Z</time>
      </trkpt>
      <trkpt lat="42.979967" lon="-4.229633">
        <ele>2898.0</ele>
        <time>2017-05-24T14:59:54Z</time>
      </trkpt>
      <trkpt lat="42.980067" lon="-4.229617">
        <ele>2898.0</ele>
        <time>2017-05-24T14:59:55Z</time>
      </trkpt>
      <trkpt lat="42.980167" lon="-4.229600">
        <ele>2896.0</ele>
        <time>2017-05-24T14:59:56Z</time>
      </trkpt>
      <trkpt lat="42.980283" lon="-4.229617">
        <ele>2893.0</ele>
        <time>2017-05-24T14:59:57Z</time>
      </trkpt>
      <trkpt lat="42.980400" lon="-4.229650">
        <ele>2889.0</ele>
        <time>2017-05-24T14:59:58Z</time>
      </trkpt>
      <trkpt lat="42.980500" lon="-4.229733">
        <ele>2884.0</ele>
        <time>2017-05-24T14:59:59Z</time>
      </trkpt>
      <trkpt lat="42.980583" lon="-4.229850">
        <ele>2881.0</ele>
        <time>2017-05-24T15:00:00Z</time>
      </trkpt>
      <trkpt lat="42.980617" lon="-4.229967">
        <ele>2879.0</ele>
        <time>2017-05-24T15:00:01Z</time>
      </trkpt>
      <trkpt lat="42.980617" lon="-4.230050">
        <ele>2878.0</ele>
        <time>2017-05-24T15:00:02Z</time>
      </trkpt>
      <trkpt lat="42.980583" lon="-4.230100">
        <ele>2878.0</ele>
        <time>2017-05-24T15:00:03Z</time>
      </trkpt>
      <trkpt lat="42.980567" lon="-4.230133">
        <ele>2880.0</ele>
        <time>2017-05-24T15:00:04Z</time>
      </trkpt>
      <trkpt lat="42.980583" lon="-4.230183">
        <ele>2882.0</ele>
        <time>2017-05-24T15:00:05Z</time>
      </trkpt>
      <trkpt lat="42.980600" lon="-4.230250">
        <ele>2882.0</ele>
        <time>2017-05-24T15:00:06Z</time>
      </trkpt>
      <trkpt lat="42.980633" lon="-4.230333">
        <ele>2883.0</ele>
        <time>2017-05-24T15:00:07Z</time>
      </trkpt>
      <trkpt lat="42.980633" lon="-4.230383">
        <ele>2884.0</ele>
        <time>2017-05-24T15:00:08Z</time>
      </trkpt>
      <trkpt lat="42.980650" lon="-4.230417">
        <ele>2885.0</ele>
        <time>2017-05-24T15:00:09Z</time>
      </trkpt>
      <trkpt lat="42.980667" lon="-4.230450">
        <ele>2884.0</ele>
        <time>2017-05-24T15:00:10Z</time>
      </trkpt>
      <trkpt lat="42.980683" lon="-4.230517">
        <ele>2882.0</ele>
        <time>2017-05-24T15:00:11Z</time>
      </trkpt>
      <trkpt lat="42.980700" lon="-4.230583">
        <ele>2880.0</ele>
        <time>2017-05-24T15:00:12Z</time>
      </trkpt>
      <trkpt lat="42.980683" lon="-4.230650">
        <ele>2878.0</ele>
        <time>2017-05-24T15:00:13Z</time>
      </trkpt>
      <trkpt lat="42.980650" lon="-4.230700">
        <ele>2877.0</ele>
        <time>2017-05-24T15:00:14Z</time>
      </trkpt>
      <trkpt lat="42.980633" lon="-4.230767">
        <ele>2876.0</ele>
        <time>2017-05-24T15:00:15Z</time>
      </trkpt>
      <trkpt lat="42.980617" lon="-4.230833">
        <ele>2875.0</ele>
        <time>2017-05-24T15:00:16Z</time>
      </trkpt>
      <trkpt lat="42.980600" lon="-4.230900">
        <ele>2874.0</ele>
        <time>2017-05-24T15:00:17Z</time>
      </trkpt>
      <trkpt lat="42.980567" lon="-4.230967">
        <ele>2872.0</ele>
        <time>2017-05-24T15:00:18Z</time>
      </trkpt>
      <trkpt lat="42.980533" lon="-4.231033">
        <ele>2871.0</ele>
        <time>2017-05-24T15:00:19Z</time>
      </trkpt>
      <trkpt lat="42.980483" lon="-4.231100">
        <ele>2871.0</ele>
        <time>2017-05-24T15:00:20Z</time>
      </trkpt>
      <trkpt lat="42.980450" lon="-4.231167">
        <ele>2872.0</ele>
        <time>2017-05-24T15:00:21Z</time>
      </trkpt>
      <trkpt lat="42.980433" lon="-4.231250">
        <ele>2871.0</ele>
        <time>2017-05-24T15:00:22Z</time>
      </trkpt>
      <trkpt lat="42.980417" lon="-4.231317">
        <ele>2871.0</ele>
        <time>2017-05-24T15:00:23Z</time>
      </trkpt>
      <trkpt lat="42.980383" lon="-4.231400">
        <ele>2871.0</ele>
        <time>2017-05-24T15:00:24Z</time>
      </trkpt>
      <trkpt lat="42.980367" lon="-4.231467">
        <ele>2871.0</ele>
        <time>2017-05-24T15:00:25Z</time>
      </trkpt>
      <trkpt lat="42.980333" lon="-4.231533">
        <ele>2872.0</ele>
        <time>2017-05-24T15:00:26Z</time>
      </trkpt>
      <trkpt lat="42.980317" lon="-4.231583">
        <ele>2872.0</ele>
        <time>2017-05-24T15:00:27Z</time>
      </trkpt>
      <trkpt lat="42.980300" lon="-4.231633">
        <ele>2872.0</ele>
        <time>2017-05-24T15:00:28Z</time>
      </trkpt>
      <trkpt lat="42.980300" lon="-4.231667">
        <ele>2871.0</ele>
        <time>2017-05-24T15:00:29Z</time>
      </trkpt>
      <trkpt lat="42.980283" lon="-4.231700">
        <ele>2870.0</ele>
        <time>2017-05-24T15:00:30Z</time>
      </trkpt>
      <trkpt lat="42.980250" lon="-4.231717">
        <ele>2869.0</ele>
        <time>2017-05-24T15:00:31Z</time>
      </trkpt>
      <trkpt lat="42.980217" lon="-4.231717">
        <ele>2869.0</ele>
        <time>2017-05-24T15:00:32Z</time>
      </trkpt>
      <trkpt lat="42.980183" lon="-4.231717">
        <ele>2868.0</ele>
        <time>2017-05-24T15:00:33Z</time>
      </trkpt>
      <trkpt lat="42.980167" lon="-4.231733">
        <ele>2867.0</ele>
        <time>2017-05-24T15:00:34Z</time>
      </trkpt>
      <trkpt lat="42.980133" lon="-4.231750">
        <ele>2866.0</ele>
        <time>2017-05-24T15:00:35Z</time>
      </trkpt>
      <trkpt lat="42.980117" lon="-4.231783">
        <ele>2865.0</ele>
        <time>2017-05-24T15:00:36Z</time>
      </trkpt>
      <trkpt lat="42.980083" lon="-4.231850">
        <ele>2863.0</ele>
        <time>2017-05-24T15:00:37Z</time>
      </trkpt>
      <trkpt lat="42.980067" lon="-4.231917">
        <ele>2861.0</ele>
        <time>2017-05-24T15:00:38Z</time>
      </trkpt>
      <trkpt lat="42.980033" lon="-4.232000">
        <ele>2859.0</ele>
        <time>2017-05-24T15:00:39Z</time>
      </trkpt>
      <trkpt lat="42.980017" lon="-4.232083">
        <ele>2857.0</ele>
        <time>2017-05-24T15:00:40Z</time>
      </trkpt>
      <trkpt lat="42.980000" lon="-4.232183">
        <ele>2854.0</ele>
        <time>2017-05-24T15:00:41Z</time>
      </trkpt>
      <trkpt lat="42.979967" lon="-4.232267">
        <ele>2852.0</ele>
        <time>2017-05-24T15:00:42Z</time>
      </trkpt>
      <trkpt lat="42.979933" lon="-4.232350">
        <ele>2851.0</ele>
        <time>2017-05-24T15:00:43Z</time>
      </trkpt>
      <trkpt lat="42.979900" lon="-4.232450">
        <ele>2850.0</ele>
        <time>2017-05-24T15:00:44Z</time>
      </trkpt>
      <trkpt lat="42.979883" lon="-4.232533">
        <ele>2850.0</ele>
        <time>2017-05-24T15:00:45Z</time>
      </trkpt>
      <trkpt lat="42.979883" lon="-4.232633">
        <ele>2849.0</ele>
        <time>2017-05-24T15:00:46Z</time>
      </trkpt>
      <trkpt lat="42.979867" lon="-4.232717">
        <ele>2849.0</ele>
        <time>2017-05-24T15:00:47Z</time>
      </trkpt>
      <trkpt lat="42.979850" lon="-4.232800">
        <ele>2848.0</ele>
        <time>2017-05-24T15:00:48Z</time>
      </trkpt>
      <trkpt lat="42.979833" lon="-4.232883">
        <ele>2847.0</ele>
        <time>2017-05-24T15:00:49Z</time>
      </trkpt>
      <trkpt lat="42.979800" lon="-4.232967">
        <ele>2846.0</ele>
        <time>2017-05-24T15:00:50Z</time>
      </trkpt>
      <trkpt lat="42.979783" lon="-4.233050">
        <ele>2845.0</ele>
        <time>2017-05-24T15:00:51Z</time>
      </trkpt>
      <trkpt lat="42.979750" lon="-4.233117">
        <ele>2845.0</ele>
        <time>2017-05-24T15:00:52Z</time>
      </trkpt>
      <trkpt lat="42.979733" lon="-4.233183">
        <ele>2844.0</ele>
        <time>2017-05-24T15:00:53Z</time>
      </trkpt>
      <trkpt lat="42.979700" lon="-4.233267">
        <ele>2843.0</ele>
        <time>2017-05-24T15:00:54Z</time>
      </trkpt>
      <trkpt lat="42.979683" lon="-4.233350">
        <ele>2843.0</ele>
        <time>2017-05-24T15:00:55Z</time>
      </trkpt>
      <trkpt lat="42.979667" lon="-4.233433">
        <ele>2842.0</ele>
        <time>2017-05-24T15:00:56Z</time>
      </trkpt>
      <trkpt lat="42.979650" lon="-4.233533">
        <ele>2841.0</ele>
        <time>2017-05-24T15:00:57Z</time>
      </trkpt>
      <trkpt lat="42.979617" lon="-4.233600">
        <ele>2840.0</ele>
        <time>2017-05-24T15:00:58Z</time>
      </trkpt>
      <trkpt lat="42.979567" lon="-4.233633">
        <ele>2838.0</ele>
        <time>2017-05-24T15:00:59Z</time>
      </trkpt>
      <trkpt lat="42.979517" lon="-4.233667">
        <ele>2836.0</ele>
        <time>2017-05-24T15:01:00Z</time>
      </trkpt>
      <trkpt lat="42.979467" lon="-4.233667">
        <ele>2836.0</ele>
        <time>2017-05-24T15:01:01Z</time>
      </trkpt>
      <trkpt lat="42.979417" lon="-4.233633">
        <ele>2835.0</ele>
        <time>2017-05-24T15:01:02Z</time>
      </trkpt>
      <trkpt lat="42.979383" lon="-4.233567">
        <ele>2835.0</ele>
        <time>2017-05-24T15:01:03Z</time>
      </trkpt>
      <trkpt lat="42.979367" lon="-4.233450">
        <ele>2834.0</ele>
        <time>2017-05-24T15:01:04Z</time>
      </trkpt>
      <trkpt lat="42.979367" lon="-4.233317">
        <ele>2833.0</ele>
        <time>2017-05-24T15:01:05Z</time>
      </trkpt>
      <trkpt lat="42.979383" lon="-4.233183">
        <ele>2834.0</ele>
        <time>2017-05-24T15:01:06Z</time>
      </trkpt>
      <trkpt lat="42.979417" lon="-4.233050">
        <ele>2834.0</ele>
        <time>2017-05-24T15:01:07Z</time>
      </trkpt>
      <trkpt lat="42.979467" lon="-4.232933">
        <ele>2835.0</ele>
        <time>2017-05-24T15:01:08Z</time>
      </trkpt>
      <trkpt lat="42.979533" lon="-4.232817">
        <ele>2835.0</ele>
        <time>2017-05-24T15:01:09Z</time>
      </trkpt>
      <trkpt lat="42.979600" lon="-4.232700">
        <ele>2834.0</ele>
        <time>2017-05-24T15:01:10Z</time>
      </trkpt>
      <trkpt lat="42.979667" lon="-4.232567">
        <ele>2833.0</ele>
        <time>2017-05-24T15:01:11Z</time>
      </trkpt>
      <trkpt lat="42.979767" lon="-4.232433">
        <ele>2832.0</ele>
        <time>2017-05-24T15:01:12Z</time>
      </trkpt>
      <trkpt lat="42.979883" lon="-4.232333">
        <ele>2832.0</ele>
        <time>2017-05-24T15:01:13Z</time>
      </trkpt>
      <trkpt lat="42.979983" lon="-4.232250">
        <ele>2832.0</ele>
        <time>2017-05-24T15:01:14Z</time>
      </trkpt>
      <trkpt lat="42.980100" lon="-4.232167">
        <ele>2832.0</ele>
        <time>2017-05-24T15:01:15Z</time>
      </trkpt>
      <trkpt lat="42.980200" lon="-4.232083">
        <ele>2832.0</ele>
        <time>2017-05-24T15:01:16Z</time>
      </trkpt>
      <trkpt lat="42.980300" lon="-4.232017">
        <ele>2831.0</ele>
        <time>2017-05-24T15:01:17Z</time>
      </trkpt>
      <trkpt lat="42.980400" lon="-4.231917">
        <ele>2829.0</ele>
        <time>2017-05-24T15:01:18Z</time>
      </trkpt>
      <trkpt lat="42.980517" lon="-4.231800">
        <ele>2827.0</ele>
        <time>2017-05-24T15:01:19Z</time>
      </trkpt>
      <trkpt lat="42.980633" lon="-4.231683">
        <ele>2825.0</ele>
        <time>2017-05-24T15:01:20Z</time>
      </trkpt>
      <trkpt lat="42.980750" lon="-4.231567">
        <ele>2824.0</ele>
        <time>2017-05-24T15:01:21Z</time>
      </trkpt>
      <trkpt lat="42.980867" lon="-4.231433">
        <ele>2824.0</ele>
        <time>2017-05-24T15:01:22Z</time>
      </trkpt>
      <trkpt lat="42.980983" lon="-4.231333">
        <ele>2824.0</ele>
        <time>2017-05-24T15:01:23Z</time>
      </trkpt>
      <trkpt lat="42.981100" lon="-4.231233">
        <ele>2824.0</ele>
        <time>2017-05-24T15:01:24Z</time>
      </trkpt>
      <trkpt lat="42.981217" lon="-4.231150">
        <ele>2822.0</ele>
        <time>2017-05-24T15:01:25Z</time>
      </trkpt>
      <trkpt lat="42.981333" lon="-4.231050">
        <ele>2821.0</ele>
        <time>2017-05-24T15:01:26Z</time>
      </trkpt>
      <trkpt lat="42.981450" lon="-4.230950">
        <ele>2820.0</ele>
        <time>2017-05-24T15:01:27Z</time>
      </trkpt>
      <trkpt lat="42.981583" lon="-4.230850">
        <ele>2818.0</ele>
        <time>2017-05-24T15:01:28Z</time>
      </trkpt>
      <trkpt lat="42.981700" lon="-4.230750">
        <ele>2818.0</ele>
        <time>2017-05-24T15:01:29Z</time>
      </trkpt>
      <trkpt lat="42.981817" lon="-4.230667">
        <ele>2818.0</ele>
        <time>2017-05-24T15:01:30Z</time>
      </trkpt>
      <trkpt lat="42.981950" lon="-4.230600">
        <ele>2818.0</ele>
        <time>2017-05-24T15:01:31Z</time>
      </trkpt>
      <trkpt lat="42.982067" lon="-4.230533">
        <ele>2817.0</ele>
        <time>2017-05-24T15:01:32Z</time>
      </trkpt>
      <trkpt lat="42.982200" lon="-4.230450">
        <ele>2816.0</ele>
        <time>2017-05-24T15:01:33Z</time>
      </trkpt>
      <trkpt lat="42.982333" lon="-4.230367">
        <ele>2815.0</ele>
        <time>2017-05-24T15:01:34Z</time>
      </trkpt>
      <trkpt lat="42.982467" lon="-4.230283">
        <ele>2815.0</ele>
        <time>2017-05-24T15:01:35Z</time>
      </trkpt>
      <trkpt lat="42.982583" lon="-4.230200">
        <ele>2814.0</ele>
        <time>2017-05-24T15:01:36Z</time>
      </trkpt>
      <trkpt lat="42.982717" lon="-4.230133">
        <ele>2814.0</ele>
        <time>2017-05-24T15:01:37Z</time>
      </trkpt>
      <trkpt lat="42.982833" lon="-4.230050">
        <ele>2813.0</ele>
        <time>2017-05-24T15:01:38Z</time>
      </trkpt>
      <trkpt lat="42.982967" lon="-4.229967">
        <ele>2813.0</ele>
        <time>2017-05-24T15:01:39Z</time>
      </trkpt>
      <trkpt lat="42.983083" lon="-4.229900">
        <ele>2812.0</ele>
        <time>2017-05-24T15:01:40Z</time>
      </trkpt>
      <trkpt lat="42.983233" lon="-4.229817">
        <ele>2811.0</ele>
        <time>2017-05-24T15:01:41Z</time>
      </trkpt>
      <trkpt lat="42.983367" lon="-4.229750">
        <ele>2811.0</ele>
        <time>2017-05-24T15:01:42Z</time>
      </trkpt>
      <trkpt lat="42.983500" lon="-4.229683">
        <ele>2811.0</ele>
        <time>2017-05-24T15:01:43Z</time>
      </trkpt>
      <trkpt lat="42.983633" lon="-4.229633">
        <ele>2811.0</ele>
        <time>2017-05-24T15:01:44Z</time>
      </trkpt>
      <trkpt lat="42.983767" lon="-4.229567">
        <ele>2810.0</ele>
        <time>2017-05-24T15:01:45Z</time>
      </trkpt>
      <trkpt lat="42.983900" lon="-4.229500">
        <ele>2808.0</ele>
        <time>2017-05-24T15:01:46Z</time>
      </trkpt>
      <trkpt lat="42.984033" lon="-4.229433">
        <ele>2806.0</ele>
        <time>2017-05-24T15:01:47Z</time>
      </trkpt>
      <trkpt lat="42.984183" lon="-4.229367">
        <ele>2805.0</ele>
        <time>2017-05-24T15:01:48Z</time>
      </trkpt>
      <trkpt lat="42.984333" lon="-4.229283">
        <ele>2804.0</ele>
        <time>2017-05-24T15:01:49Z</time>
      </trkpt>
      <trkpt lat="42.984483" lon="-4.229233">
        <ele>2803.0</ele>
        <time>2017-05-24T15:01:50Z</time>
      </trkpt>
      <trkpt lat="42.984617" lon="-4.229167">
        <ele>2803.0</ele>
        <time>2017-05-24T15:01:51Z</time>
      </trkpt>
      <trkpt lat="42.984750" lon="-4.229117">
        <ele>2802.0</ele>
        <time>2017-05-24T15:01:52Z</time>
      </trkpt>
      <trkpt lat="42.984900" lon="-4.229067">
        <ele>2801.0</ele>
        <time>2017-05-24T15:01:53Z</time>
      </trkpt>
      <trkpt lat="42.985033" lon="-4.229017">
        <ele>2799.0</ele>
        <time>2017-05-24T15:01:54Z</time>
      </trkpt>
      <trkpt lat="42.985167" lon="-4.228950">
        <ele>2798.0</ele>
        <time>2017-05-24T15:01:55Z</time>
      </trkpt>
      <trkpt lat="42.985317" lon="-4.228900">
        <ele>2797.0</ele>
        <time>2017-05-24T15:01:56Z</time>
      </trkpt>
      <trkpt lat="42.985450" lon="-4.228850">
        <ele>2796.0</ele>
        <time>2017-05-24T15:01:57Z</time>
      </trkpt>
      <trkpt lat="42.985600" lon="-4.228783">
        <ele>2795.0</ele>
        <time>2017-05-24T15:01:58Z</time>
      </trkpt>
      <trkpt lat="42.985733" lon="-4.228733">
        <ele>2794.0</ele>
        <time>2017-05-24T15:01:59Z</time>
      </trkpt>
      <trkpt lat="42.985883" lon="-4.228700">
        <ele>2793.0</ele>
        <time>2017-05-24T15:02:00Z</time>
      </trkpt>
      <trkpt lat="42.986017" lon="-4.228683">
        <ele>2792.0</ele>
        <time>2017-05-24T15:02:01Z</time>
      </trkpt>
      <trkpt lat="42.986167" lon="-4.228683">
        <ele>2790.0</ele>
        <time>2017-05-24T15:02:02Z</time>
      </trkpt>
      <trkpt lat="42.986317" lon="-4.228683">
        <ele>2788.0</ele>
        <time>2017-05-24T15:02:03Z</time>
      </trkpt>
      <trkpt lat="42.986467" lon="-4.228700">
        <ele>2786.0</ele>
        <time>2017-05-24T15:02:04Z</time>
      </trkpt>
      <trkpt lat="42.986617" lon="-4.228700">
        <ele>2785.0</ele>
        <time>2017-05-24T15:02:05Z</time>
      </trkpt>
      <trkpt lat="42.986750" lon="-4.228700">
        <ele>2784.0</ele>
        <time>2017-05-24T15:02:06Z</time>
      </trkpt>
      <trkpt lat="42.986900" lon="-4.228683">
        <ele>2782.0</ele>
        <time>2017-05-24T15:02:07Z</time>
      </trkpt>
      <trkpt lat="42.987033" lon="-4.228683">
        <ele>2779.0</ele>
        <time>2017-05-24T15:02:08Z</time>
      </trkpt>
      <trkpt lat="42.987200" lon="-4.228683">
        <ele>2776.0</ele>
        <time>2017-05-24T15:02:09Z</time>
      </trkpt>
      <trkpt lat="42.987350" lon="-4.228667">
        <ele>2774.0</ele>
        <time>2017-05-24T15:02:10Z</time>
      </trkpt>
      <trkpt lat="42.987517" lon="-4.228667">
        <ele>2773.0</ele>
        <time>2017-05-24T15:02:11Z</time>
      </trkpt>
      <trkpt lat="42.987667" lon="-4.228633">
        <ele>2772.0</ele>
        <time>2017-05-24T15:02:12Z</time>
      </trkpt>
      <trkpt lat="42.987800" lon="-4.228617">
        <ele>2772.0</ele>
        <time>2017-05-24T15:02:13Z</time>
      </trkpt>
      <trkpt lat="42.987933" lon="-4.228583">
        <ele>2771.0</ele>
        <time>2017-05-24T15:02:14Z</time>
      </trkpt>
      <trkpt lat="42.988067" lon="-4.228533">
        <ele>2770.0</ele>
        <time>2017-05-24T15:02:15Z</time>
      </trkpt>
      <trkpt lat="42.988217" lon="-4.228500">
        <ele>2769.0</ele>
        <time>2017-05-24T15:02:16Z</time>
      </trkpt>
      <trkpt lat="42.988367" lon="-4.228483">
        <ele>2769.0</ele>
        <time>2017-05-24T15:02:17Z</time>
      </trkpt>
      <trkpt lat="42.988517" lon="-4.228467">
        <ele>2769.0</ele>
        <time>2017-05-24T15:02:18Z</time>
      </trkpt>
      <trkpt lat="42.988650" lon="-4.228450">
        <ele>2769.0</ele>
        <time>2017-05-24T15:02:19Z</time>
      </trkpt>
      <trkpt lat="42.988783" lon="-4.228450">
        <ele>2768.0</ele>
        <time>2017-05-24T15:02:20Z</time>
      </trkpt>
      <trkpt lat="42.988917" lon="-4.228433">
        <ele>2766.0</ele>
        <time>2017-05-24T15:02:21Z</time>
      </trkpt>
      <trkpt lat="42.989067" lon="-4.228433">
        <ele>2763.0</ele>
        <time>2017-05-24T15:02:22Z</time>
      </trkpt>
      <trkpt lat="42.989217" lon="-4.228433">
        <ele>2761.0</ele>
        <time>2017-05-24T15:02:23Z</time>
      </trkpt>
      <trkpt lat="42.989383" lon="-4.228450">
        <ele>2760.0</ele>
        <time>2017-05-24T15:02:24Z</time>
      </trkpt>
      <trkpt lat="42.989517" lon="-4.228450">
        <ele>2760.0</ele>
        <time>2017-05-24T15:02:25Z</time>
      </trkpt>
      <trkpt lat="42.989650" lon="-4.228450">
        <ele>2759.0</ele>
        <time>2017-05-24T15:02:26Z</time>
      </trkpt>
      <trkpt lat="42.989767" lon="-4.228450">
        <ele>2757.0</ele>
        <time>2017-05-24T15:02:27Z</time>
      </trkpt>
      <trkpt lat="42.989917" lon="-4.228433">
        <ele>2754.0</ele>
        <time>2017-05-24T15:02:28Z</time>
      </trkpt>
      <trkpt lat="42.990050" lon="-4.228450">
        <ele>2751.0</ele>
        <time>2017-05-24T15:02:29Z</time>
      </trkpt>
      <trkpt lat="42.990200" lon="-4.228483">
        <ele>2749.0</ele>
        <time>2017-05-24T15:02:30Z</time>
      </trkpt>
      <trkpt lat="42.990333" lon="-4.228517">
        <ele>2749.0</ele>
        <time>2017-05-24T15:02:31Z</time>
      </trkpt>
      <trkpt lat="42.990483" lon="-4.228517">
        <ele>2749.0</ele>
        <time>2017-05-24T15:02:32Z</time>
      </trkpt>
      <trkpt lat="42.990600" lon="-4.228500">
        <ele>2748.0</ele>
        <time>2017-05-24T15:02:33Z</time>
      </trkpt>
      <trkpt lat="42.990717" lon="-4.228500">
        <ele>2745.0</ele>
        <time>2017-05-24T15:02:34Z</time>
      </trkpt>
      <trkpt lat="42.990850" lon="-4.228500">
        <ele>2741.0</ele>
        <time>2017-05-24T15:02:35Z</time>
      </trkpt>
      <trkpt lat="42.990983" lon="-4.228517">
        <ele>2736.0</ele>
        <time>2017-05-24T15:02:36Z</time>
      </trkpt>
      <trkpt lat="42.991133" lon="-4.228517">
        <ele>2732.0</ele>
        <time>2017-05-24T15:02:37Z</time>
      </trkpt>
      <trkpt lat="42.991300" lon="-4.228533">
        <ele>2731.0</ele>
        <time>2017-05-24T15:02:38Z</time>
      </trkpt>
      <trkpt lat="42.991450" lon="-4.228533">
        <ele>2730.0</ele>
        <time>2017-05-24T15:02:39Z</time>
      </trkpt>
      <trkpt lat="42.991583" lon="-4.228533">
        <ele>2730.0</ele>
        <time>2017-05-24T15:02:40Z</time>
      </trkpt>
      <trkpt lat="42.991733" lon="-4.228517">
        <ele>2729.0</ele>
        <time>2017-05-24T15:02:41Z</time>
      </trkpt>
      <trkpt lat="42.991867" lon="-4.228483">
        <ele>2728.0</ele>
        <time>2017-05-24T15:02:42Z</time>
      </trkpt>
      <trkpt lat="42.992017" lon="-4.228450">
        <ele>2726.0</ele>
        <time>2017-05-24T15:02:43Z</time>
      </trkpt>
      <trkpt lat="42.992167" lon="-4.228417">
        <ele>2724.0</ele>
        <time>2017-05-24T15:02:44Z</time>
      </trkpt>
      <trkpt lat="42.992300" lon="-4.228383">
        <ele>2723.0</ele>
        <time>2017-05-24T15:02:45Z</time>
      </trkpt>
      <trkpt lat="42.992433" lon="-4.228350">
        <ele>2720.0</ele>
        <time>2017-05-24T15:02:46Z</time>
      </trkpt>
      <trkpt lat="42.992567" lon="-4.228333">
        <ele>2718.0</ele>
        <time>2017-05-24T15:02:47Z</time>
      </trkpt>
      <trkpt lat="42.992717" lon="-4.228317">
        <ele>2715.0</ele>
        <time>2017-05-24T15:02:48Z</time>
      </trkpt>
      <trkpt lat="42.992850" lon="-4.228283">
        <ele>2711.0</ele>
        <time>2017-05-24T15:02:49Z</time>
      </trkpt>
      <trkpt lat="42.993000" lon="-4.228233">
        <ele>2709.0</ele>
        <time>2017-05-24T15:02:50Z</time>
      </trkpt>
      <trkpt lat="42.993150" lon="-4.228167">
        <ele>2706.0</ele>
        <time>2017-05-24T15:02:51Z</time>
      </trkpt>
      <trkpt lat="42.993283" lon="-4.228133">
        <ele>2704.0</ele>
        <time>2017-05-24T15:02:52Z</time>
      </trkpt>
      <trkpt lat="42.993433" lon="-4.228117">
        <ele>2702.0</ele>
        <time>2017-05-24T15:02:53Z</time>
      </trkpt>
      <trkpt lat="42.993583" lon="-4.228133">
        <ele>2700.0</ele>
        <time>2017-05-24T15:02:54Z</time>
      </trkpt>
      <trkpt lat="42.993717" lon="-4.228150">
        <ele>2698.0</ele>
        <time>2017-05-24T15:02:55Z</time>
      </trkpt>
      <trkpt lat="42.993850" lon="-4.228167">
        <ele>2696.0</ele>
        <time>2017-05-24T15:02:56Z</time>
      </trkpt>
      <trkpt lat="42.993983" lon="-4.228167">
        <ele>2695.0</ele>
        <time>2017-05-24T15:02:57Z</time>
      </trkpt>
      <trkpt lat="42.994117" lon="-4.228167">
        <ele>2693.0</ele>
        <time>2017-05-24T15:02:58Z</time>
      </trkpt>
      <trkpt lat="42.994250" lon="-4.228183">
        <ele>2690.0</ele>
        <time>2017-05-24T15:02:59Z</time>
      </trkpt>
      <trkpt lat="42.994367" lon="-4.228217">
        <ele>2687.0</ele>
        <time>2017-05-24T15:03:00Z</time>
      </trkpt>
      <trkpt lat="42.994500" lon="-4.228233">
        <ele>2684.0</ele>
        <time>2017-05-24T15:03:01Z</time>
      </trkpt>
      <trkpt lat="42.994650" lon="-4.228250">
        <ele>2682.0</ele>
        <time>2017-05-24T15:03:02Z</time>
      </trkpt>
      <trkpt lat="42.994783" lon="-4.228250">
        <ele>2680.0</ele>
        <time>2017-05-24T15:03:03Z</time>
      </trkpt>
      <trkpt lat="42.994917" lon="-4.228267">
        <ele>2679.0</ele>
        <time>2017-05-24T15:03:04Z</time>
      </trkpt>
      <trkpt lat="42.995050" lon="-4.228283">
        <ele>2678.0</ele>
        <time>2017-05-24T15:03:05Z</time>
      </trkpt>
      <trkpt lat="42.995200" lon="-4.228317">
        <ele>2676.0</ele>
        <time>2017-05-24T15:03:06Z</time>
      </trkpt>
      <trkpt lat="42.995333" lon="-4.228333">
        <ele>2675.0</ele>
        <time>2017-05-24T15:03:07Z</time>
      </trkpt>
      <trkpt lat="42.995467" lon="-4.228350">
        <ele>2674.0</ele>
        <time>2017-05-24T15:03:08Z</time>
      </trkpt>
      <trkpt lat="42.995600" lon="-4.228367">
        <ele>2673.0</ele>
        <time>2017-05-24T15:03:09Z</time>
      </trkpt>
      <trkpt lat="42.995733" lon="-4.228400">
        <ele>2670.0</ele>
        <time>2017-05-24T15:03:10Z</time>
      </trkpt>
      <trkpt lat="42.995867" lon="-4.228450">
        <ele>2666.0</ele>
        <time>2017-05-24T15:03:11Z</time>
      </trkpt>
      <trkpt lat="42.996017" lon="-4.228517">
        <ele>2663.0</ele>
        <time>2017-05-24T15:03:12Z</time>
      </trkpt>
      <trkpt lat="42.996167" lon="-4.228567">
        <ele>2661.0</ele>
        <time>2017-05-24T15:03:13Z</time>
      </trkpt>
      <trkpt lat="42.996300" lon="-4.228600">
        <ele>2660.0</ele>
        <time>2017-05-24T15:03:14Z</time>
      </trkpt>
      <trkpt lat="42.996450" lon="-4.228617">
        <ele>2659.0</ele>
        <time>2017-05-24T15:03:15Z</time>
      </trkpt>
      <trkpt lat="42.996583" lon="-4.228633">
        <ele>2658.0</ele>
        <time>2017-05-24T15:03:16Z</time>
      </trkpt>
      <trkpt lat="42.996717" lon="-4.228650">
        <ele>2657.0</ele>
        <time>2017-05-24T15:03:17Z</time>
      </trkpt>
      <trkpt lat="42.996867" lon="-4.228683">
        <ele>2655.0</ele>
        <time>2017-05-24T15:03:18Z</time>
      </trkpt>
      <trkpt lat="42.997000" lon="-4.228717">
        <ele>2653.0</ele>
        <time>2017-05-24T15:03:19Z</time>
      </trkpt>
      <trkpt lat="42.997150" lon="-4.228750">
        <ele>2652.0</ele>
        <time>2017-05-24T15:03:20Z</time>
      </trkpt>
      <trkpt lat="42.997300" lon="-4.228783">
        <ele>2651.0</ele>
        <time>2017-05-24T15:03:21Z</time>
      </trkpt>
      <trkpt lat="42.997433" lon="-4.228817">
        <ele>2652.0</ele>
        <time>2017-05-24T15:03:22Z</time>
      </trkpt>
      <trkpt lat="42.997567" lon="-4.228850">
        <ele>2652.0</ele>
        <time>2017-05-24T15:03:23Z</time>
      </trkpt>
      <trkpt lat="42.997700" lon="-4.228883">
        <ele>2651.0</ele>
        <time>2017-05-24T15:03:24Z</time>
      </trkpt>
      <trkpt lat="42.997833" lon="-4.228900">
        <ele>2650.0</ele>
        <time>2017-05-24T15:03:25Z</time>
      </trkpt>
      <trkpt lat="42.997983" lon="-4.228933">
        <ele>2649.0</ele>
        <time>2017-05-24T15:03:26Z</time>
      </trkpt>
      <trkpt lat="42.998117" lon="-4.228967">
        <ele>2647.0</ele>
        <time>2017-05-24T15:03:27Z</time>
      </trkpt>
      <trkpt lat="42.998267" lon="-4.229000">
        <ele>2646.0</ele>
        <time>2017-05-24T15:03:28Z</time>
      </trkpt>
      <trkpt lat="42.998400" lon="-4.229017">
        <ele>2645.0</ele>
        <time>2017-05-24T15:03:29Z</time>
      </trkpt>
      <trkpt lat="42.998533" lon="-4.229050">
        <ele>2643.0</ele>
        <time>2017-05-24T15:03:30Z</time>
      </trkpt>
      <trkpt lat="42.998683" lon="-4.229083">
        <ele>2641.0</ele>
        <time>2017-05-24T15:03:31Z</time>
      </trkpt>
      <trkpt lat="42.998817" lon="-4.229117">
        <ele>2639.0</ele>
        <time>2017-05-24T15:03:32Z</time>
      </trkpt>
      <trkpt lat="42.998950" lon="-4.229150">
        <ele>2637.0</ele>
        <time>2017-05-24T15:03:33Z</time>
      </trkpt>
      <trkpt lat="42.999100" lon="-4.229167">
        <ele>2635.0</ele>
        <time>2017-05-24T15:03:34Z</time>
      </trkpt>
      <trkpt lat="42.999250" lon="-4.229200">
        <ele>2634.0</ele>
        <time>2017-05-24T15:03:35Z</time>
      </trkpt>
      <trkpt lat="42.999400" lon="-4.229217">
        <ele>2635.0</ele>
        <time>2017-05-24T15:03:36Z</time>
      </trkpt>
      <trkpt lat="42.999550" lon="-4.229233">
        <ele>2635.0</ele>
        <time>2017-05-24T15:03:37Z</time>
      </trkpt>
      <trkpt lat="42.999683" lon="-4.229267">
        <ele>2636.0</ele>
        <time>2017-05-24T15:03:38Z</time>
      </trkpt>
      <trkpt lat="42.999800" lon="-4.229283">
        <ele>2636.0</ele>
        <time>2017-05-24T15:03:39Z</time>
      </trkpt>
      <trkpt lat="42.999933" lon="-4.229300">
        <ele>2635.0</ele>
        <time>2017-05-24T15:03:40Z</time>
      </trkpt>
      <trkpt lat="43.000067" lon="-4.229317">
        <ele>2634.0</ele>
        <time>2017-05-24T15:03:41Z</time>
      </trkpt>
      <trkpt lat="43.000200" lon="-4.229333">
        <ele>2632.0</ele>
        <time>2017-05-24T15:03:42Z</time>
      </trkpt>
      <trkpt lat="43.000350" lon="-4.229350">
        <ele>2630.0</ele>
        <time>2017-05-24T15:03:43Z</time>
      </trkpt>
      <trkpt lat="43.000500" lon="-4.229383">
        <ele>2629.0</ele>
        <time>2017-05-24T15:03:44Z</time>
      </trkpt>
      <trkpt lat="43.000633" lon="-4.229417">
        <ele>2629.0</ele>
        <time>2017-05-24T15:03:45Z</time>
      </trkpt>
      <trkpt lat="43.000750" lon="-4.229450">
        <ele>2628.0</ele>
        <time>2017-05-24T15:03:46Z</time>
      </trkpt>
      <trkpt lat="43.000867" lon="-4.229483">
        <ele>2625.0</ele>
        <time>2017-05-24T15:03:47Z</time>
      </trkpt>
      <trkpt lat="43.001000" lon="-4.229533">
        <ele>2620.0</ele>
        <time>2017-05-24T15:03:48Z</time>
      </trkpt>
      <trkpt lat="43.001167" lon="-4.229583">
        <ele>2615.0</ele>
        <time>2017-05-24T15:03:49Z</time>
      </trkpt>
      <trkpt lat="43.001317" lon="-4.229617">
        <ele>2613.0</ele>
        <time>2017-05-24T15:03:50Z</time>
      </trkpt>
      <trkpt lat="43.001467" lon="-4.229633">
        <ele>2613.0</ele>
        <time>2017-05-24T15:03:51Z</time>
      </trkpt>
      <trkpt lat="43.001600" lon="-4.229633">
        <ele>2612.0</ele>
        <time>2017-05-24T15:03:52Z</time>
      </trkpt>
      <trkpt lat="43.001717" lon="-4.229633">
        <ele>2610.0</ele>
        <time>2017-05-24T15:03:53Z</time>
      </trkpt>
      <trkpt lat="43.001850" lon="-4.229633">
        <ele>2606.0</ele>
        <time>2017-05-24T15:03:54Z</time>
      </trkpt>
      <trkpt lat="43.001983" lon="-4.229650">
        <ele>2602.0</ele>
        <time>2017-05-24T15:03:55Z</time>
      </trkpt>
      <trkpt lat="43.002117" lon="-4.229667">
        <ele>2598.0</ele>
        <time>2017-05-24T15:03:56Z</time>
      </trkpt>
      <trkpt lat="43.002267" lon="-4.229683">
        <ele>2595.0</ele>
        <time>2017-05-24T15:03:57Z</time>
      </trkpt>
      <trkpt lat="43.002400" lon="-4.229700">
        <ele>2594.0</ele>
        <time>2017-05-24T15:03:58Z</time>
      </trkpt>
      <trkpt lat="43.002517" lon="-4.229717">
        <ele>2592.0</ele>
        <time>2017-05-24T15:03:59Z</time>
      </trkpt>
      <trkpt lat="43.002650" lon="-4.229717">
        <ele>2589.0</ele>
        <time>2017-05-24T15:04:00Z</time>
      </trkpt>
      <trkpt lat="43.002783" lon="-4.229733">
        <ele>2585.0</ele>
        <time>2017-05-24T15:04:01Z</time>
      </trkpt>
      <trkpt lat="43.002917" lon="-4.229733">
        <ele>2581.0</ele>
        <time>2017-05-24T15:04:02Z</time>
      </trkpt>
      <trkpt lat="43.003067" lon="-4.229750">
        <ele>2578.0</ele>
        <time>2017-05-24T15:04:03Z</time>
      </trkpt>
      <trkpt lat="43.003217" lon="-4.229767">
        <ele>2576.0</ele>
        <time>2017-05-24T15:04:04Z</time>
      </trkpt>
      <trkpt lat="43.003350" lon="-4.229783">
        <ele>2576.0</ele>
        <time>2017-05-24T15:04:05Z</time>
      </trkpt>
      <trkpt lat="43.003483" lon="-4.229783">
        <ele>2575.0</ele>
        <time>2017-05-24T15:04:06Z</time>
      </trkpt>
      <trkpt lat="43.003600" lon="-4.229783">
        <ele>2572.0</ele>
        <time>2017-05-24T15:04:07Z</time>
      </trkpt>
      <trkpt lat="43.003733" lon="-4.229800">
        <ele>2568.0</ele>
        <time>2017-05-24T15:04:08Z</time>
      </trkpt>
      <trkpt lat="43.003883" lon="-4.229800">
        <ele>2564.0</ele>
        <time>2017-05-24T15:04:09Z</time>
      </trkpt>
      <trkpt lat="43.004033" lon="-4.229817">
        <ele>2560.0</ele>
        <time>2017-05-24T15:04:10Z</time>
      </trkpt>
      <trkpt lat="43.004183" lon="-4.229817">
        <ele>2558.0</ele>
        <time>2017-05-24T15:04:11Z</time>
      </trkpt>
      <trkpt lat="43.004333" lon="-4.229817">
        <ele>2556.0</ele>
        <time>2017-05-24T15:04:12Z</time>
      </trkpt>
      <trkpt lat="43.004467" lon="-4.229817">
        <ele>2554.0</ele>
        <time>2017-05-24T15:04:13Z</time>
      </trkpt>
      <trkpt lat="43.004600" lon="-4.229833">
        <ele>2552.0</ele>
        <time>2017-05-24T15:04:14Z</time>
      </trkpt>
      <trkpt lat="43.004733" lon="-4.229833">
        <ele>2549.0</ele>
        <time>2017-05-24T15:04:15Z</time>
      </trkpt>
      <trkpt lat="43.004883" lon="-4.229833">
        <ele>2546.0</ele>
        <time>2017-05-24T15:04:16Z</time>
      </trkpt>
      <trkpt lat="43.005050" lon="-4.229833">
        <ele>2543.0</ele>
        <time>2017-05-24T15:04:17Z</time>
      </trkpt>
      <trkpt lat="43.005200" lon="-4.229833">
        <ele>2541.0</ele>
        <time>2017-05-24T15:04:18Z</time>
      </trkpt>
      <trkpt lat="43.005350" lon="-4.229833">
        <ele>2541.0</ele>
        <time>2017-05-24T15:04:19Z</time>
      </trkpt>
      <trkpt lat="43.005483" lon="-4.229850">
        <ele>2541.0</ele>
        <time>2017-05-24T15:04:20Z</time>
      </trkpt>
      <trkpt lat="43.005617" lon="-4.229850">
        <ele>2540.0</ele>
        <time>2017-05-24T15:04:21Z</time>
      </trkpt>
      <trkpt lat="43.005733" lon="-4.229867">
        <ele>2539.0</ele>
        <time>2017-05-24T15:04:22Z</time>
      </trkpt>
      <trkpt lat="43.005850" lon="-4.229867">
        <ele>2537.0</ele>
        <time>2017-05-24T15:04:23Z</time>
      </trkpt>
      <trkpt lat="43.005983" lon="-4.229883">
        <ele>2534.0</ele>
        <time>2017-05-24T15:04:24Z</time>
      </trkpt>
      <trkpt lat="43.006117" lon="-4.229900">
        <ele>2531.0</ele>
        <time>2017-05-24T15:04:25Z</time>
      </trkpt>
      <trkpt lat="43.006250" lon="-4.229900">
        <ele>2529.0</ele>
        <time>2017-05-24T15:04:26Z</time>
      </trkpt>
      <trkpt lat="43.006383" lon="-4.229900">
        <ele>2528.0</ele>
        <time>2017-05-24T15:04:27Z</time>
      </trkpt>
      <trkpt lat="43.006517" lon="-4.229883">
        <ele>2527.0</ele>
        <time>2017-05-24T15:04:28Z</time>
      </trkpt>
      <trkpt lat="43.006667" lon="-4.229900">
        <ele>2527.0</ele>
        <time>2017-05-24T15:04:29Z</time>
      </trkpt>
      <trkpt lat="43.006783" lon="-4.229900">
        <ele>2527.0</ele>
        <time>2017-05-24T15:04:30Z</time>
      </trkpt>
      <trkpt lat="43.006917" lon="-4.229917">
        <ele>2527.0</ele>
        <time>2017-05-24T15:04:31Z</time>
      </trkpt>
      <trkpt lat="43.007033" lon="-4.229933">
        <ele>2527.0</ele>
        <time>2017-05-24T15:04:32Z</time>
      </trkpt>
      <trkpt lat="43.007167" lon="-4.229967">
        <ele>2526.0</ele>
        <time>2017-05-24T15:04:33Z</time>
      </trkpt>
      <trkpt lat="43.007300" lon="-4.230000">
        <ele>2524.0</ele>
        <time>2017-05-24T15:04:34Z</time>
      </trkpt>
      <trkpt lat="43.007433" lon="-4.230033">
        <ele>2523.0</ele>
        <time>2017-05-24T15:04:35Z</time>
      </trkpt>
      <trkpt lat="43.007567" lon="-4.230067">
        <ele>2523.0</ele>
        <time>2017-05-24T15:04:36Z</time>
      </trkpt>
      <trkpt lat="43.007700" lon="-4.230083">
        <ele>2523.0</ele>
        <time>2017-05-24T15:04:37Z</time>
      </trkpt>
      <trkpt lat="43.007833" lon="-4.230100">
        <ele>2523.0</ele>
        <time>2017-05-24T15:04:38Z</time>
      </trkpt>
      <trkpt lat="43.007967" lon="-4.230133">
        <ele>2522.0</ele>
        <time>2017-05-24T15:04:39Z</time>
      </trkpt>
      <trkpt lat="43.008100" lon="-4.230167">
        <ele>2520.0</ele>
        <time>2017-05-24T15:04:40Z</time>
      </trkpt>
      <trkpt lat="43.008233" lon="-4.230183">
        <ele>2520.0</ele>
        <time>2017-05-24T15:04:41Z</time>
      </trkpt>
      <trkpt lat="43.008383" lon="-4.230200">
        <ele>2519.0</ele>
        <time>2017-05-24T15:04:42Z</time>
      </trkpt>
      <trkpt lat="43.008517" lon="-4.230217">
        <ele>2518.0</ele>
        <time>2017-05-24T15:04:43Z</time>
      </trkpt>
      <trkpt lat="43.008667" lon="-4.230250">
        <ele>2517.0</ele>
        <time>2017-05-24T15:04:44Z</time>
      </trkpt>
      <trkpt lat="43.008800" lon="-4.230267">
        <ele>2516.0</ele>
        <time>2017-05-24T15:04:45Z</time>
      </trkpt>
      <trkpt lat="43.008950" lon="-4.230317">
        <ele>2516.0</ele>
        <time>2017-05-24T15:04:46Z</time>
      </trkpt>
      <trkpt lat="43.009083" lon="-4.230350">
        <ele>2516.0</ele>
        <time>2017-05-24T15:04:47Z</time>
      </trkpt>
      <trkpt lat="43.009217" lon="-4.230383">
        <ele>2516.0</ele>
        <time>2017-05-24T15:04:48Z</time>
      </trkpt>
      <trkpt lat="43.009350" lon="-4.230417">
        <ele>2516.0</ele>
        <time>2017-05-24T15:04:49Z</time>
      </trkpt>
      <trkpt lat="43.009483" lon="-4.230450">
        <ele>2514.0</ele>
        <time>2017-05-24T15:04:50Z</time>
      </trkpt>
      <trkpt lat="43.009633" lon="-4.230483">
        <ele>2513.0</ele>
        <time>2017-05-24T15:04:51Z</time>
      </trkpt>
      <trkpt lat="43.009783" lon="-4.230517">
        <ele>2513.0</ele>
        <time>2017-05-24T15:04:52Z</time>
      </trkpt>
      <trkpt lat="43.009917" lon="-4.230550">
        <ele>2513.0</ele>
        <time>2017-05-24T15:04:53Z</time>
      </trkpt>
      <trkpt lat="43.010050" lon="-4.230567">
        <ele>2513.0</ele>
        <time>2017-05-24T15:04:54Z</time>
      </trkpt>
      <trkpt lat="43.010167" lon="-4.230583">
        <ele>2512.0</ele>
        <time>2017-05-24T15:04:55Z</time>
      </trkpt>
      <trkpt lat="43.010300" lon="-4.230617">
        <ele>2510.0</ele>
        <time>2017-05-24T15:04:56Z</time>
      </trkpt>
      <trkpt lat="43.010433" lon="-4.230650">
        <ele>2508.0</ele>
        <time>2017-05-24T15:04:57Z</time>
      </trkpt>
      <trkpt lat="43.010567" lon="-4.230700">
        <ele>2506.0</ele>
        <time>2017-05-24T15:04:58Z</time>
      </trkpt>
      <trkpt lat="43.010700" lon="-4.230733">
        <ele>2505.0</ele>
        <time>2017-05-24T15:04:59Z</time>
      </trkpt>
      <trkpt lat="43.010833" lon="-4.230783">
        <ele>2504.0</ele>
        <time>2017-05-24T15:05:00Z</time>
      </trkpt>
      <trkpt lat="43.010967" lon="-4.230817">
        <ele>2502.0</ele>
        <time>2017-05-24T15:05:01Z</time>
      </trkpt>
      <trkpt lat="43.011100" lon="-4.230850">
        <ele>2500.0</ele>
        <time>2017-05-24T15:05:02Z</time>
      </trkpt>
      <trkpt lat="43.011233" lon="-4.230900">
        <ele>2497.0</ele>
        <time>2017-05-24T15:05:03Z</time>
      </trkpt>
      <trkpt lat="43.011383" lon="-4.230933">
        <ele>2495.0</ele>
        <time>2017-05-24T15:05:04Z</time>
      </trkpt>
      <trkpt lat="43.011533" lon="-4.230983">
        <ele>2494.0</ele>
        <time>2017-05-24T15:05:05Z</time>
      </trkpt>
      <trkpt lat="43.011667" lon="-4.231017">
        <ele>2495.0</ele>
        <time>2017-05-24T15:05:06Z</time>
      </trkpt>
      <trkpt lat="43.011783" lon="-4.231033">
        <ele>2495.0</ele>
        <time>2017-05-24T15:05:07Z</time>
      </trkpt>
      <trkpt lat="43.011900" lon="-4.231083">
        <ele>2495.0</ele>
        <time>2017-05-24T15:05:08Z</time>
      </trkpt>
      <trkpt lat="43.012000" lon="-4.231117">
        <ele>2494.0</ele>
        <time>2017-05-24T15:05:09Z</time>
      </trkpt>
      <trkpt lat="43.012117" lon="-4.231183">
        <ele>2492.0</ele>
        <time>2017-05-24T15:05:10Z</time>
      </trkpt>
      <trkpt lat="43.012250" lon="-4.231250">
        <ele>2489.0</ele>
        <time>2017-05-24T15:05:11Z</time>
      </trkpt>
      <trkpt lat="43.012367" lon="-4.231317">
        <ele>2488.0</ele>
        <time>2017-05-24T15:05:12Z</time>
      </trkpt>
      <trkpt lat="43.012483" lon="-4.231400">
        <ele>2487.0</ele>
        <time>2017-05-24T15:05:13Z</time>
      </trkpt>
      <trkpt lat="43.012583" lon="-4.231467">
        <ele>2486.0</ele>
        <time>2017-05-24T15:05:14Z</time>
      </trkpt>
      <trkpt lat="43.012700" lon="-4.231533">
        <ele>2486.0</ele>
        <time>2017-05-24T15:05:15Z</time>
      </trkpt>
      <trkpt lat="43.012817" lon="-4.231583">
        <ele>2484.0</ele>
        <time>2017-05-24T15:05:16Z</time>
      </trkpt>
      <trkpt lat="43.012933" lon="-4.231650">
        <ele>2482.0</ele>
        <time>2017-05-24T15:05:17Z</time>
      </trkpt>
      <trkpt lat="43.013067" lon="-4.231733">
        <ele>2482.0</ele>
        <time>2017-05-24T15:05:18Z</time>
      </trkpt>
      <trkpt lat="43.013183" lon="-4.231800">
        <ele>2483.0</ele>
        <time>2017-05-24T15:05:19Z</time>
      </trkpt>
      <trkpt lat="43.013300" lon="-4.231850">
        <ele>2484.0</ele>
        <time>2017-05-24T15:05:20Z</time>
      </trkpt>
      <trkpt lat="43.013400" lon="-4.231883">
        <ele>2484.0</ele>
        <time>2017-05-24T15:05:21Z</time>
      </trkpt>
      <trkpt lat="43.013517" lon="-4.231933">
        <ele>2483.0</ele>
        <time>2017-05-24T15:05:22Z</time>
      </trkpt>
      <trkpt lat="43.013633" lon="-4.231983">
        <ele>2481.0</ele>
        <time>2017-05-24T15:05:23Z</time>
      </trkpt>
      <trkpt lat="43.013767" lon="-4.232033">
        <ele>2479.0</ele>
        <time>2017-05-24T15:05:24Z</time>
      </trkpt>
      <trkpt lat="43.013900" lon="-4.232083">
        <ele>2478.0</ele>
        <time>2017-05-24T15:05:25Z</time>
      </trkpt>
      <trkpt lat="43.014033" lon="-4.232133">
        <ele>2477.0</ele>
        <time>2017-05-24T15:05:26Z</time>
      </trkpt>
      <trkpt lat="43.014150" lon="-4.232183">
        <ele>2477.0</ele>
        <time>2017-05-24T15:05:27Z</time>
      </trkpt>
      <trkpt lat="43.014283" lon="-4.232250">
        <ele>2477.0</ele>
        <time>2017-05-24T15:05:28Z</time>
      </trkpt>
      <trkpt lat="43.014400" lon="-4.232300">
        <ele>2476.0</ele>
        <time>2017-05-24T15:05:29Z</time>
      </trkpt>
      <trkpt lat="43.014517" lon="-4.232367">
        <ele>2476.0</ele>
        <time>2017-05-24T15:05:30Z</time>
      </trkpt>
      <trkpt lat="43.014633" lon="-4.232417">
        <ele>2474.0</ele>
        <time>2017-05-24T15:05:31Z</time>
      </trkpt>
      <trkpt lat="43.014767" lon="-4.232450">
        <ele>2473.0</ele>
        <time>2017-05-24T15:05:32Z</time>
      </trkpt>
      <trkpt lat="43.014900" lon="-4.232500">
        <ele>2471.0</ele>
        <time>2017-05-24T15:05:33Z</time>
      </trkpt>
      <trkpt lat="43.015033" lon="-4.232567">
        <ele>2470.0</ele>
        <time>2017-05-24T15:05:34Z</time>
      </trkpt>
      <trkpt lat="43.015150" lon="-4.232617">
        <ele>2469.0</ele>
        <time>2017-05-24T15:05:35Z</time>
      </trkpt>
      <trkpt lat="43.015283" lon="-4.232683">
        <ele>2469.0</ele>
        <time>2017-05-24T15:05:36Z</time>
      </trkpt>
      <trkpt lat="43.015417" lon="-4.232733">
        <ele>2468.0</ele>
        <time>2017-05-24T15:05:37Z</time>
      </trkpt>
      <trkpt lat="43.015550" lon="-4.232800">
        <ele>2468.0</ele>
        <time>2017-05-24T15:05:38Z</time>
      </trkpt>
      <trkpt lat="43.015683" lon="-4.232883">
        <ele>2467.0</ele>
        <time>2017-05-24T15:05:39Z</time>
      </trkpt>
      <trkpt lat="43.015817" lon="-4.232950">
        <ele>2468.0</ele>
        <time>2017-05-24T15:05:40Z</time>
      </trkpt>
      <trkpt lat="43.015950" lon="-4.233017">
        <ele>2468.0</ele>
        <time>2017-05-24T15:05:41Z</time>
      </trkpt>
      <trkpt lat="43.016083" lon="-4.233067">
        <ele>2469.0</ele>
        <time>2017-05-24T15:05:42Z</time>
      </trkpt>
      <trkpt lat="43.016200" lon="-4.233133">
        <ele>2469.0</ele>
        <time>2017-05-24T15:05:43Z</time>
      </trkpt>
      <trkpt lat="43.016317" lon="-4.233200">
        <ele>2469.0</ele>
        <time>2017-05-24T15:05:44Z</time>
      </trkpt>
      <trkpt lat="43.016450" lon="-4.233267">
        <ele>2468.0</ele>
        <time>2017-05-24T15:05:45Z</time>
      </trkpt>
      <trkpt lat="43.016583" lon="-4.233333">
        <ele>2467.0</ele>
        <time>2017-05-24T15:05:46Z</time>
      </trkpt>
      <trkpt lat="43.016717" lon="-4.233400">
        <ele>2467.0</ele>
        <time>2017-05-24T15:05:47Z</time>
      </trkpt>
      <trkpt lat="43.016850" lon="-4.233467">
        <ele>2467.0</ele>
        <time>2017-05-24T15:05:48Z</time>
      </trkpt>
      <trkpt lat="43.016967" lon="-4.233517">
        <ele>2467.0</ele>
        <time>2017-05-24T15:05:49Z</time>
      </trkpt>
      <trkpt lat="43.017083" lon="-4.233567">
        <ele>2466.0</ele>
        <time>2017-05-24T15:05:50Z</time>
      </trkpt>
      <trkpt lat="43.017200" lon="-4.233633">
        <ele>2464.0</ele>
        <time>2017-05-24T15:05:51Z</time>
      </trkpt>
      <trkpt lat="43.017317" lon="-4.233700">
        <ele>2462.0</ele>
        <time>2017-05-24T15:05:52Z</time>
      </trkpt>
      <trkpt lat="43.017433" lon="-4.233767">
        <ele>2460.0</ele>
        <time>2017-05-24T15:05:53Z</time>
      </trkpt>
      <trkpt lat="43.017567" lon="-4.233817">
        <ele>2457.0</ele>
        <time>2017-05-24T15:05:54Z</time>
      </trkpt>
      <trkpt lat="43.017683" lon="-4.233883">
        <ele>2454.0</ele>
        <time>2017-05-24T15:05:55Z</time>
      </trkpt>
      <trkpt lat="43.017817" lon="-4.233967">
        <ele>2453.0</ele>
        <time>2017-05-24T15:05:56Z</time>
      </trkpt>
      <trkpt lat="43.017933" lon="-4.234033">
        <ele>2451.0</ele>
        <time>2017-05-24T15:05:57Z</time>
      </trkpt>
      <trkpt lat="43.018050" lon="-4.234117">
        <ele>2450.0</ele>
        <time>2017-05-24T15:05:58Z</time>
      </trkpt>
      <trkpt lat="43.018167" lon="-4.234183">
        <ele>2448.0</ele>
        <time>2017-05-24T15:05:59Z</time>
      </trkpt>
      <trkpt lat="43.018283" lon="-4.234267">
        <ele>2446.0</ele>
        <time>2017-05-24T15:06:00Z</time>
      </trkpt>
      <trkpt lat="43.018383" lon="-4.234367">
        <ele>2444.0</ele>
        <time>2017-05-24T15:06:01Z</time>
      </trkpt>
      <trkpt lat="43.018500" lon="-4.234467">
        <ele>2442.0</ele>
        <time>2017-05-24T15:06:02Z</time>
      </trkpt>
      <trkpt lat="43.018617" lon="-4.234550">
        <ele>2441.0</ele>
        <time>2017-05-24T15:06:03Z</time>
      </trkpt>
      <trkpt lat="43.018733" lon="-4.234633">
        <ele>2440.0</ele>
        <time>2017-05-24T15:06:04Z</time>
      </trkpt>
      <trkpt lat="43.018833" lon="-4.234700">
        <ele>2439.0</ele>
        <time>2017-05-24T15:06:05Z</time>
      </trkpt>
      <trkpt lat="43.018950" lon="-4.234767">
        <ele>2436.0</ele>
        <time>2017-05-24T15:06:06Z</time>
      </trkpt>
      <trkpt lat="43.019067" lon="-4.234833">
        <ele>2434.0</ele>
        <time>2017-05-24T15:06:07Z</time>
      </trkpt>
      <trkpt lat="43.019183" lon="-4.234933">
        <ele>2431.0</ele>
        <time>2017-05-24T15:06:08Z</time>
      </trkpt>
      <trkpt lat="43.019300" lon="-4.235017">
        <ele>2430.0</ele>
        <time>2017-05-24T15:06:09Z</time>
      </trkpt>
      <trkpt lat="43.019417" lon="-4.235100">
        <ele>2429.0</ele>
        <time>2017-05-24T15:06:10Z</time>
      </trkpt>
      <trkpt lat="43.019517" lon="-4.235183">
        <ele>2429.0</ele>
        <time>2017-05-24T15:06:11Z</time>
      </trkpt>
      <trkpt lat="43.019617" lon="-4.235267">
        <ele>2428.0</ele>
        <time>2017-05-24T15:06:12Z</time>
      </trkpt>
      <trkpt lat="43.019733" lon="-4.235333">
        <ele>2427.0</ele>
        <time>2017-05-24T15:06:13Z</time>
      </trkpt>
      <trkpt lat="43.019850" lon="-4.235433">
        <ele>2426.0</ele>
        <time>2017-05-24T15:06:14Z</time>
      </trkpt>
      <trkpt lat="43.019967" lon="-4.235517">
        <ele>2425.0</ele>
        <time>2017-05-24T15:06:15Z</time>
      </trkpt>
      <trkpt lat="43.020083" lon="-4.235617">
        <ele>2426.0</ele>
        <time>2017-05-24T15:06:16Z</time>
      </trkpt>
      <trkpt lat="43.020183" lon="-4.235683">
        <ele>2427.0</ele>
        <time>2017-05-24T15:06:17Z</time>
      </trkpt>
      <trkpt lat="43.020267" lon="-4.235750">
        <ele>2426.0</ele>
        <time>2017-05-24T15:06:18Z</time>
      </trkpt>
      <trkpt lat="43.020367" lon="-4.235833">
        <ele>2425.0</ele>
        <time>2017-05-24T15:06:19Z</time>
      </trkpt>
      <trkpt lat="43.020483" lon="-4.235933">
        <ele>2422.0</ele>
        <time>2017-05-24T15:06:20Z</time>
      </trkpt>
      <trkpt lat="43.020583" lon="-4.236033">
        <ele>2420.0</ele>
        <time>2017-05-24T15:06:21Z</time>
      </trkpt>
      <trkpt lat="43.020700" lon="-4.236133">
        <ele>2419.0</ele>
        <time>2017-05-24T15:06:22Z</time>
      </trkpt>
      <trkpt lat="43.020800" lon="-4.236233">
        <ele>2419.0</ele>
        <time>2017-05-24T15:06:23Z</time>
      </trkpt>
      <trkpt lat="43.020917" lon="-4.236317">
        <ele>2419.0</ele>
        <time>2017-05-24T15:06:24Z</time>
      </trkpt>
      <trkpt lat="43.021017" lon="-4.236400">
        <ele>2418.0</ele>
        <time>2017-05-24T15:06:25Z</time>
      </trkpt>
      <trkpt lat="43.021117" lon="-4.236500">
        <ele>2417.0</ele>
        <time>2017-05-24T15:06:26Z</time>
      </trkpt>
      <trkpt lat="43.021217" lon="-4.236600">
        <ele>2415.0</ele>
        <time>2017-05-24T15:06:27Z</time>
      </trkpt>
      <trkpt lat="43.021317" lon="-4.236733">
        <ele>2412.0</ele>
        <time>2017-05-24T15:06:28Z</time>
      </trkpt>
      <trkpt lat="43.021417" lon="-4.236850">
        <ele>2410.0</ele>
        <time>2017-05-24T15:06:29Z</time>
      </trkpt>
      <trkpt lat="43.021533" lon="-4.236983">
        <ele>2408.0</ele>
        <time>2017-05-24T15:06:30Z</time>
      </trkpt>
      <trkpt lat="43.021650" lon="-4.237100">
        <ele>2406.0</ele>
        <time>2017-05-24T15:06:31Z</time>
      </trkpt>
      <trkpt lat="43.021767" lon="-4.237233">
        <ele>2405.0</ele>
        <time>2017-05-24T15:06:32Z</time>
      </trkpt>
      <trkpt lat="43.021867" lon="-4.237333">
        <ele>2404.0</ele>
        <time>2017-05-24T15:06:33Z</time>
      </trkpt>
      <trkpt lat="43.021967" lon="-4.237450">
        <ele>2403.0</ele>
        <time>2017-05-24T15:06:34Z</time>
      </trkpt>
      <trkpt lat="43.022067" lon="-4.237567">
        <ele>2402.0</ele>
        <time>2017-05-24T15:06:35Z</time>
      </trkpt>
      <trkpt lat="43.022167" lon="-4.237683">
        <ele>2399.0</ele>
        <time>2017-05-24T15:06:36Z</time>
      </trkpt>
      <trkpt lat="43.022267" lon="-4.237817">
        <ele>2397.0</ele>
        <time>2017-05-24T15:06:37Z</time>
      </trkpt>
      <trkpt lat="43.022383" lon="-4.237950">
        <ele>2395.0</ele>
        <time>2017-05-24T15:06:38Z</time>
      </trkpt>
      <trkpt lat="43.022483" lon="-4.238083">
        <ele>2394.0</ele>
        <time>2017-05-24T15:06:39Z</time>
      </trkpt>
      <trkpt lat="43.022583" lon="-4.238217">
        <ele>2394.0</ele>
        <time>2017-05-24T15:06:40Z</time>
      </trkpt>
      <trkpt lat="43.022667" lon="-4.238350">
        <ele>2393.0</ele>
        <time>2017-05-24T15:06:41Z</time>
      </trkpt>
      <trkpt lat="43.022767" lon="-4.238467">
        <ele>2393.0</ele>
        <time>2017-05-24T15:06:42Z</time>
      </trkpt>
      <trkpt lat="43.022867" lon="-4.238600">
        <ele>2391.0</ele>
        <time>2017-05-24T15:06:43Z</time>
      </trkpt>
      <trkpt lat="43.022950" lon="-4.238733">
        <ele>2390.0</ele>
        <time>2017-05-24T15:06:44Z</time>
      </trkpt>
      <trkpt lat="43.023050" lon="-4.238867">
        <ele>2389.0</ele>
        <time>2017-05-24T15:06:45Z</time>
      </trkpt>
      <trkpt lat="43.023133" lon="-4.239017">
        <ele>2388.0</ele>
        <time>2017-05-24T15:06:46Z</time>
      </trkpt>
      <trkpt lat="43.023233" lon="-4.239150">
        <ele>2388.0</ele>
        <time>2017-05-24T15:06:47Z</time>
      </trkpt>
      <trkpt lat="43.023333" lon="-4.239267">
        <ele>2387.0</ele>
        <time>2017-05-24T15:06:48Z</time>
      </trkpt>
      <trkpt lat="43.023417" lon="-4.239400">
        <ele>2386.0</ele>
        <time>2017-05-24T15:06:49Z</time>
      </trkpt>
      <trkpt lat="43.023500" lon="-4.239533">
        <ele>2385.0</ele>
        <time>2017-05-24T15:06:50Z</time>
      </trkpt>
      <trkpt lat="43.023600" lon="-4.239667">
        <ele>2383.0</ele>
        <time>2017-05-24T15:06:51Z</time>
      </trkpt>
      <trkpt lat="43.023683" lon="-4.239817">
        <ele>2382.0</ele>
        <time>2017-05-24T15:06:52Z</time>
      </trkpt>
      <trkpt lat="43.023767" lon="-4.239950">
        <ele>2380.0</ele>
        <time>2017-05-24T15:06:53Z</time>
      </trkpt>
      <trkpt lat="43.023867" lon="-4.240100">
        <ele>2379.0</ele>
        <time>2017-05-24T15:06:54Z</time>
      </trkpt>
      <trkpt lat="43.023950" lon="-4.240217">
        <ele>2377.0</ele>
        <time>2017-05-24T15:06:55Z</time>
      </trkpt>
      <trkpt lat="43.024033" lon="-4.240367">
        <ele>2374.0</ele>
        <time>2017-05-24T15:06:56Z</time>
      </trkpt>
      <trkpt lat="43.024117" lon="-4.240500">
        <ele>2372.0</ele>
        <time>2017-05-24T15:06:57Z</time>
      </trkpt>
      <trkpt lat="43.024200" lon="-4.240650">
        <ele>2369.0</ele>
        <time>2017-05-24T15:06:58Z</time>
      </trkpt>
      <trkpt lat="43.024300" lon="-4.240783">
        <ele>2366.0</ele>
        <time>2017-05-24T15:06:59Z</time>
      </trkpt>
      <trkpt lat="43.024383" lon="-4.240933">
        <ele>2364.0</ele>
        <time>2017-05-24T15:07:00Z</time>
      </trkpt>
      <trkpt lat="43.024483" lon="-4.241067">
        <ele>2363.0</ele>
        <time>2017-05-24T15:07:01Z</time>
      </trkpt>
      <trkpt lat="43.024583" lon="-4.241183">
        <ele>2362.0</ele>
        <time>2017-05-24T15:07:02Z</time>
      </trkpt>
      <trkpt lat="43.024683" lon="-4.241300">
        <ele>2360.0</ele>
        <time>2017-05-24T15:07:03Z</time>
      </trkpt>
      <trkpt lat="43.024783" lon="-4.241417">
        <ele>2358.0</ele>
        <time>2017-05-24T15:07:04Z</time>
      </trkpt>
      <trkpt lat="43.024883" lon="-4.241550">
        <ele>2356.0</ele>
        <time>2017-05-24T15:07:05Z</time>
      </trkpt>
      <trkpt lat="43.024967" lon="-4.241667">
        <ele>2354.0</ele>
        <time>2017-05-24T15:07:06Z</time>
      </trkpt>
      <trkpt lat="43.025067" lon="-4.241783">
        <ele>2353.0</ele>
        <time>2017-05-24T15:07:07Z</time>
      </trkpt>
      <trkpt lat="43.025167" lon="-4.241900">
        <ele>2351.0</ele>
        <time>2017-05-24T15:07:08Z</time>
      </trkpt>
      <trkpt lat="43.025267" lon="-4.242017">
        <ele>2349.0</ele>
        <time>2017-05-24T15:07:09Z</time>
      </trkpt>
      <trkpt lat="43.025367" lon="-4.242133">
        <ele>2346.0</ele>
        <time>2017-05-24T15:07:10Z</time>
      </trkpt>
      <trkpt lat="43.025450" lon="-4.242267">
        <ele>2344.0</ele>
        <time>2017-05-24T15:07:11Z</time>
      </trkpt>
      <trkpt lat="43.025533" lon="-4.242383">
        <ele>2341.0</ele>
        <time>2017-05-24T15:07:12Z</time>
      </trkpt>
      <trkpt lat="43.025617" lon="-4.242517">
        <ele>2339.0</ele>
        <time>2017-05-24T15:07:13Z</time>
      </trkpt>
      <trkpt lat="43.025717" lon="-4.242633">
        <ele>2338.0</ele>
        <time>2017-05-24T15:07:14Z</time>
      </trkpt>
      <trkpt lat="43.025817" lon="-4.242750">
        <ele>2336.0</ele>
        <time>2017-05-24T15:07:15Z</time>
      </trkpt>
      <trkpt lat="43.025900" lon="-4.242867">
        <ele>2335.0</ele>
        <time>2017-05-24T15:07:16Z</time>
      </trkpt>
      <trkpt lat="43.025983" lon="-4.242983">
        <ele>2334.0</ele>
        <time>2017-05-24T15:07:17Z</time>
      </trkpt>
      <trkpt lat="43.026083" lon="-4.243100">
        <ele>2333.0</ele>
        <time>2017-05-24T15:07:18Z</time>
      </trkpt>
      <trkpt lat="43.026183" lon="-4.243217">
        <ele>2331.0</ele>
        <time>2017-05-24T15:07:19Z</time>
      </trkpt>
      <trkpt lat="43.026267" lon="-4.243333">
        <ele>2330.0</ele>
        <time>2017-05-24T15:07:20Z</time>
      </trkpt>
      <trkpt lat="43.026350" lon="-4.243467">
        <ele>2328.0</ele>
        <time>2017-05-24T15:07:21Z</time>
      </trkpt>
      <trkpt lat="43.026450" lon="-4.243600">
        <ele>2327.0</ele>
        <time>2017-05-24T15:07:22Z</time>
      </trkpt>
      <trkpt lat="43.026533" lon="-4.243733">
        <ele>2326.0</ele>
        <time>2017-05-24T15:07:23Z</time>
      </trkpt>
      <trkpt lat="43.026633" lon="-4.243850">
        <ele>2325.0</ele>
        <time>2017-05-24T15:07:24Z</time>
      </trkpt>
      <trkpt lat="43.026717" lon="-4.243967">
        <ele>2324.0</ele>
        <time>2017-05-24T15:07:25Z</time>
      </trkpt>
      <trkpt lat="43.026800" lon="-4.244100">
        <ele>2322.0</ele>
        <time>2017-05-24T15:07:26Z</time>
      </trkpt>
      <trkpt lat="43.026900" lon="-4.244233">
        <ele>2321.0</ele>
        <time>2017-05-24T15:07:27Z</time>
      </trkpt>
      <trkpt lat="43.026983" lon="-4.244350">
        <ele>2320.0</ele>
        <time>2017-05-24T15:07:28Z</time>
      </trkpt>
      <trkpt lat="43.027067" lon="-4.244483">
        <ele>2320.0</ele>
        <time>2017-05-24T15:07:29Z</time>
      </trkpt>
      <trkpt lat="43.027150" lon="-4.244600">
        <ele>2318.0</ele>
        <time>2017-05-24T15:07:30Z</time>
      </trkpt>
      <trkpt lat="43.027233" lon="-4.244733">
        <ele>2317.0</ele>
        <time>2017-05-24T15:07:31Z</time>
      </trkpt>
      <trkpt lat="43.027317" lon="-4.244867">
        <ele>2315.0</ele>
        <time>2017-05-24T15:07:32Z</time>
      </trkpt>
      <trkpt lat="43.027417" lon="-4.244983">
        <ele>2313.0</ele>
        <time>2017-05-24T15:07:33Z</time>
      </trkpt>
      <trkpt lat="43.027500" lon="-4.245117">
        <ele>2312.0</ele>
        <time>2017-05-24T15:07:34Z</time>
      </trkpt>
      <trkpt lat="43.027583" lon="-4.245233">
        <ele>2310.0</ele>
        <time>2017-05-24T15:07:35Z</time>
      </trkpt>
      <trkpt lat="43.027667" lon="-4.245350">
        <ele>2308.0</ele>
        <time>2017-05-24T15:07:36Z</time>
      </trkpt>
      <trkpt lat="43.027750" lon="-4.245467">
        <ele>2306.0</ele>
        <time>2017-05-24T15:07:37Z</time>
      </trkpt>
      <trkpt lat="43.027833" lon="-4.245583">
        <ele>2303.0</ele>
        <time>2017-05-24T15:07:38Z</time>
      </trkpt>
      <trkpt lat="43.027933" lon="-4.245717">
        <ele>2300.0</ele>
        <time>2017-05-24T15:07:39Z</time>
      </trkpt>
      <trkpt lat="43.028033" lon="-4.245833">
        <ele>2298.0</ele>
        <time>2017-05-24T15:07:40Z</time>
      </trkpt>
      <trkpt lat="43.028133" lon="-4.245967">
        <ele>2296.0</ele>
        <time>2017-05-24T15:07:41Z</time>
      </trkpt>
      <trkpt lat="43.028233" lon="-4.246083">
        <ele>2295.0</ele>
        <time>2017-05-24T15:07:42Z</time>
      </trkpt>
      <trkpt lat="43.028333" lon="-4.246200">
        <ele>2293.0</ele>
        <time>2017-05-24T15:07:43Z</time>
      </trkpt>
      <trkpt lat="43.028417" lon="-4.246317">
        <ele>2292.0</ele>
        <time>2017-05-24T15:07:44Z</time>
      </trkpt>
      <trkpt lat="43.028500" lon="-4.246433">
        <ele>2289.0</ele>
        <time>2017-05-24T15:07:45Z</time>
      </trkpt>
      <trkpt lat="43.028600" lon="-4.246567">
        <ele>2287.0</ele>
        <time>2017-05-24T15:07:46Z</time>
      </trkpt>
      <trkpt lat="43.028700" lon="-4.246683">
        <ele>2286.0</ele>
        <time>2017-05-24T15:07:47Z</time>
      </trkpt>
      <trkpt lat="43.028783" lon="-4.246800">
        <ele>2284.0</ele>
        <time>2017-05-24T15:07:48Z</time>
      </trkpt>
      <trkpt lat="43.028883" lon="-4.246917">
        <ele>2282.0</ele>
        <time>2017-05-24T15:07:49Z</time>
      </trkpt>
      <trkpt lat="43.028983" lon="-4.247050">
        <ele>2279.0</ele>
        <time>2017-05-24T15:07:50Z</time>
      </trkpt>
      <trkpt lat="43.029083" lon="-4.247167">
        <ele>2277.0</ele>
        <time>2017-05-24T15:07:51Z</time>
      </trkpt>
      <trkpt lat="43.029183" lon="-4.247300">
        <ele>2275.0</ele>
        <time>2017-05-24T15:07:52Z</time>
      </trkpt>
      <trkpt lat="43.029300" lon="-4.247400">
        <ele>2273.0</ele>
        <time>2017-05-24T15:07:53Z</time>
      </trkpt>
      <trkpt lat="43.029400" lon="-4.247517">
        <ele>2272.0</ele>
        <time>2017-05-24T15:07:54Z</time>
      </trkpt>
      <trkpt lat="43.029500" lon="-4.247617">
        <ele>2270.0</ele>
        <time>2017-05-24T15:07:55Z</time>
      </trkpt>
      <trkpt lat="43.029600" lon="-4.247750">
        <ele>2268.0</ele>
        <time>2017-05-24T15:07:56Z</time>
      </trkpt>
      <trkpt lat="43.029700" lon="-4.247867">
        <ele>2265.0</ele>
        <time>2017-05-24T15:07:57Z</time>
      </trkpt>
      <trkpt lat="43.029800" lon="-4.247983">
        <ele>2263.0</ele>
        <time>2017-05-24T15:07:58Z</time>
      </trkpt>
      <trkpt lat="43.029933" lon="-4.248083">
        <ele>2261.0</ele>
        <time>2017-05-24T15:07:59Z</time>
      </trkpt>
      <trkpt lat="43.030050" lon="-4.248183">
        <ele>2260.0</ele>
        <time>2017-05-24T15:08:00Z</time>
      </trkpt>
      <trkpt lat="43.030167" lon="-4.248283">
        <ele>2258.0</ele>
        <time>2017-05-24T15:08:01Z</time>
      </trkpt>
      <trkpt lat="43.030250" lon="-4.248417">
        <ele>2257.0</ele>
        <time>2017-05-24T15:08:02Z</time>
      </trkpt>
      <trkpt lat="43.030333" lon="-4.248567">
        <ele>2256.0</ele>
        <time>2017-05-24T15:08:03Z</time>
      </trkpt>
      <trkpt lat="43.030417" lon="-4.248700">
        <ele>2255.0</ele>
        <time>2017-05-24T15:08:04Z</time>
      </trkpt>
      <trkpt lat="43.030500" lon="-4.248833">
        <ele>2254.0</ele>
        <time>2017-05-24T15:08:05Z</time>
      </trkpt>
      <trkpt lat="43.030583" lon="-4.248967">
        <ele>2253.0</ele>
        <time>2017-05-24T15:08:06Z</time>
      </trkpt>
      <trkpt lat="43.030667" lon="-4.249100">
        <ele>2251.0</ele>
        <time>2017-05-24T15:08:07Z</time>
      </trkpt>
      <trkpt lat="43.030750" lon="-4.249233">
        <ele>2250.0</ele>
        <time>2017-05-24T15:08:08Z</time>
      </trkpt>
      <trkpt lat="43.030817" lon="-4.249383">
        <ele>2248.0</ele>
        <time>2017-05-24T15:08:09Z</time>
      </trkpt>
      <trkpt lat="43.030900" lon="-4.249533">
        <ele>2247.0</ele>
        <time>2017-05-24T15:08:10Z</time>
      </trkpt>
      <trkpt lat="43.030983" lon="-4.249667">
        <ele>2246.0</ele>
        <time>2017-05-24T15:08:11Z</time>
      </trkpt>
      <trkpt lat="43.031050" lon="-4.249817">
        <ele>2246.0</ele>
        <time>2017-05-24T15:08:12Z</time>
      </trkpt>
      <trkpt lat="43.031117" lon="-4.249950">
        <ele>2245.0</ele>
        <time>2017-05-24T15:08:13Z</time>
      </trkpt>
      <trkpt lat="43.031183" lon="-4.250083">
        <ele>2245.0</ele>
        <time>2017-05-24T15:08:14Z</time>
      </trkpt>
      <trkpt lat="43.031250" lon="-4.250217">
        <ele>2243.0</ele>
        <time>2017-05-24T15:08:15Z</time>
      </trkpt>
      <trkpt lat="43.031317" lon="-4.250350">
        <ele>2241.0</ele>
        <time>2017-05-24T15:08:16Z</time>
      </trkpt>
      <trkpt lat="43.031383" lon="-4.250500">
        <ele>2239.0</ele>
        <time>2017-05-24T15:08:17Z</time>
      </trkpt>
      <trkpt lat="43.031450" lon="-4.250650">
        <ele>2237.0</ele>
        <time>2017-05-24T15:08:18Z</time>
      </trkpt>
      <trkpt lat="43.031517" lon="-4.250783">
        <ele>2235.0</ele>
        <time>2017-05-24T15:08:19Z</time>
      </trkpt>
      <trkpt lat="43.031567" lon="-4.250933">
        <ele>2234.0</ele>
        <time>2017-05-24T15:08:20Z</time>
      </trkpt>
      <trkpt lat="43.031633" lon="-4.251067">
        <ele>2234.0</ele>
        <time>2017-05-24T15:08:21Z</time>
      </trkpt>
      <trkpt lat="43.031700" lon="-4.251200">
        <ele>2233.0</ele>
        <time>2017-05-24T15:08:22Z</time>
      </trkpt>
      <trkpt lat="43.031783" lon="-4.251333">
        <ele>2232.0</ele>
        <time>2017-05-24T15:08:23Z</time>
      </trkpt>
      <trkpt lat="43.031850" lon="-4.251467">
        <ele>2231.0</ele>
        <time>2017-05-24T15:08:24Z</time>
      </trkpt>
      <trkpt lat="43.031900" lon="-4.251617">
        <ele>2230.0</ele>
        <time>2017-05-24T15:08:25Z</time>
      </trkpt>
      <trkpt lat="43.031967" lon="-4.251750">
        <ele>2229.0</ele>
        <time>2017-05-24T15:08:26Z</time>
      </trkpt>
      <trkpt lat="43.032050" lon="-4.251900">
        <ele>2228.0</ele>
        <time>2017-05-24T15:08:27Z</time>
      </trkpt>
      <trkpt lat="43.032133" lon="-4.252033">
        <ele>2227.0</ele>
        <time>2017-05-24T15:08:28Z</time>
      </trkpt>
      <trkpt lat="43.032217" lon="-4.252167">
        <ele>2226.0</ele>
        <time>2017-05-24T15:08:29Z</time>
      </trkpt>
      <trkpt lat="43.032317" lon="-4.252300">
        <ele>2225.0</ele>
        <time>2017-05-24T15:08:30Z</time>
      </trkpt>
      <trkpt lat="43.032383" lon="-4.252433">
        <ele>2224.0</ele>
        <time>2017-05-24T15:08:31Z</time>
      </trkpt>
      <trkpt lat="43.032467" lon="-4.252567">
        <ele>2222.0</ele>
        <time>2017-05-24T15:08:32Z</time>
      </trkpt>
      <trkpt lat="43.032550" lon="-4.252700">
        <ele>2221.0</ele>
        <time>2017-05-24T15:08:33Z</time>
      </trkpt>
      <trkpt lat="43.032633" lon="-4.252833">
        <ele>2219.0</ele>
        <time>2017-05-24T15:08:34Z</time>
      </trkpt>
      <trkpt lat="43.032717" lon="-4.252967">
        <ele>2218.0</ele>
        <time>2017-05-24T15:08:35Z</time>
      </trkpt>
      <trkpt lat="43.032783" lon="-4.253100">
        <ele>2216.0</ele>
        <time>2017-05-24T15:08:36Z</time>
      </trkpt>
      <trkpt lat="43.032867" lon="-4.253233">
        <ele>2215.0</ele>
        <time>2017-05-24T15:08:37Z</time>
      </trkpt>
      <trkpt lat="43.032950" lon="-4.253367">
        <ele>2214.0</ele>
        <time>2017-05-24T15:08:38Z</time>
      </trkpt>
      <trkpt lat="43.033033" lon="-4.253500">
        <ele>2212.0</ele>
        <time>2017-05-24T15:08:39Z</time>
      </trkpt>
      <trkpt lat="43.033117" lon="-4.253617">
        <ele>2211.0</ele>
        <time>2017-05-24T15:08:40Z</time>
      </trkpt>
      <trkpt lat="43.033200" lon="-4.253767">
        <ele>2209.0</ele>
        <time>2017-05-24T15:08:41Z</time>
      </trkpt>
      <trkpt lat="43.033283" lon="-4.253900">
        <ele>2207.0</ele>
        <time>2017-05-24T15:08:42Z</time>
      </trkpt>
      <trkpt lat="43.033383" lon="-4.254017">
        <ele>2206.0</ele>
        <time>2017-05-24T15:08:43Z</time>
      </trkpt>
      <trkpt lat="43.033467" lon="-4.254150">
        <ele>2205.0</ele>
        <time>2017-05-24T15:08:44Z</time>
      </trkpt>
      <trkpt lat="43.033550" lon="-4.254283">
        <ele>2204.0</ele>
        <time>2017-05-24T15:08:45Z</time>
      </trkpt>
      <trkpt lat="43.033633" lon="-4.254400">
        <ele>2203.0</ele>
        <time>2017-05-24T15:08:46Z</time>
      </trkpt>
      <trkpt lat="43.033700" lon="-4.254533">
        <ele>2202.0</ele>
        <time>2017-05-24T15:08:47Z</time>
      </trkpt>
      <trkpt lat="43.033783" lon="-4.254650">
        <ele>2201.0</ele>
        <time>2017-05-24T15:08:48Z</time>
      </trkpt>
      <trkpt lat="43.033867" lon="-4.254783">
        <ele>2199.0</ele>
        <time>2017-05-24T15:08:49Z</time>
      </trkpt>
      <trkpt lat="43.033950" lon="-4.254900">
        <ele>2197.0</ele>
        <time>2017-05-24T15:08:50Z</time>
      </trkpt>
      <trkpt lat="43.034033" lon="-4.255033">
        <ele>2196.0</ele>
        <time>2017-05-24T15:08:51Z</time>
      </trkpt>
      <trkpt lat="43.034133" lon="-4.255167">
        <ele>2193.0</ele>
        <time>2017-05-24T15:08:52Z</time>
      </trkpt>
      <trkpt lat="43.034233" lon="-4.255300">
        <ele>2192.0</ele>
        <time>2017-05-24T15:08:53Z</time>
      </trkpt>
      <trkpt lat="43.034317" lon="-4.255433">
        <ele>2191.0</ele>
        <time>2017-05-24T15:08:54Z</time>
      </trkpt>
      <trkpt lat="43.034417" lon="-4.255567">
        <ele>2190.0</ele>
        <time>2017-05-24T15:08:55Z</time>
      </trkpt>
      <trkpt lat="43.034483" lon="-4.255700">
        <ele>2190.0</ele>
        <time>2017-05-24T15:08:56Z</time>
      </trkpt>
      <trkpt lat="43.034567" lon="-4.255833">
        <ele>2188.0</ele>
        <time>2017-05-24T15:08:57Z</time>
      </trkpt>
      <trkpt lat="43.034650" lon="-4.255967">
        <ele>2187.0</ele>
        <time>2017-05-24T15:08:58Z</time>
      </trkpt>
      <trkpt lat="43.034733" lon="-4.256100">
        <ele>2184.0</ele>
        <time>2017-05-24T15:08:59Z</time>
      </trkpt>
      <trkpt lat="43.034817" lon="-4.256233">
        <ele>2182.0</ele>
        <time>2017-05-24T15:09:00Z</time>
      </trkpt>
      <trkpt lat="43.034900" lon="-4.256367">
        <ele>2180.0</ele>
        <time>2017-05-24T15:09:01Z</time>
      </trkpt>
      <trkpt lat="43.034967" lon="-4.256517">
        <ele>2178.0</ele>
        <time>2017-05-24T15:09:02Z</time>
      </trkpt>
      <trkpt lat="43.035050" lon="-4.256667">
        <ele>2177.0</ele>
        <time>2017-05-24T15:09:03Z</time>
      </trkpt>
      <trkpt lat="43.035133" lon="-4.256800">
        <ele>2176.0</ele>
        <time>2017-05-24T15:09:04Z</time>
      </trkpt>
      <trkpt lat="43.035233" lon="-4.256933">
        <ele>2174.0</ele>
        <time>2017-05-24T15:09:05Z</time>
      </trkpt>
      <trkpt lat="43.035317" lon="-4.257083">
        <ele>2173.0</ele>
        <time>2017-05-24T15:09:06Z</time>
      </trkpt>
      <trkpt lat="43.035400" lon="-4.257217">
        <ele>2171.0</ele>
        <time>2017-05-24T15:09:07Z</time>
      </trkpt>
      <trkpt lat="43.035500" lon="-4.257367">
        <ele>2170.0</ele>
        <time>2017-05-24T15:09:08Z</time>
      </trkpt>
      <trkpt lat="43.035583" lon="-4.257517">
        <ele>2169.0</ele>
        <time>2017-05-24T15:09:09Z</time>
      </trkpt>
      <trkpt lat="43.035667" lon="-4.257667">
        <ele>2167.0</ele>
        <time>2017-05-24T15:09:10Z</time>
      </trkpt>
      <trkpt lat="43.035767" lon="-4.257800">
        <ele>2167.0</ele>
        <time>2017-05-24T15:09:11Z</time>
      </trkpt>
      <trkpt lat="43.035850" lon="-4.257950">
        <ele>2166.0</ele>
        <time>2017-05-24T15:09:12Z</time>
      </trkpt>
      <trkpt lat="43.035950" lon="-4.258083">
        <ele>2165.0</ele>
        <time>2017-05-24T15:09:13Z</time>
      </trkpt>
      <trkpt lat="43.036033" lon="-4.258200">
        <ele>2164.0</ele>
        <time>2017-05-24T15:09:14Z</time>
      </trkpt>
      <trkpt lat="43.036133" lon="-4.258317">
        <ele>2162.0</ele>
        <time>2017-05-24T15:09:15Z</time>
      </trkpt>
      <trkpt lat="43.036217" lon="-4.258450">
        <ele>2161.0</ele>
        <time>2017-05-24T15:09:16Z</time>
      </trkpt>
      <trkpt lat="43.036300" lon="-4.258583">
        <ele>2159.0</ele>
        <time>2017-05-24T15:09:17Z</time>
      </trkpt>
      <trkpt lat="43.036383" lon="-4.258750">
        <ele>2157.0</ele>
        <time>2017-05-24T15:09:18Z</time>
      </trkpt>
      <trkpt lat="43.036467" lon="-4.258900">
        <ele>2156.0</ele>
        <time>2017-05-24T15:09:19Z</time>
      </trkpt>
      <trkpt lat="43.036533" lon="-4.259033">
        <ele>2156.0</ele>
        <time>2017-05-24T15:09:20Z</time>
      </trkpt>
      <trkpt lat="43.036617" lon="-4.259183">
        <ele>2155.0</ele>
        <time>2017-05-24T15:09:21Z</time>
      </trkpt>
      <trkpt lat="43.036700" lon="-4.259333">
        <ele>2154.0</ele>
        <time>2017-05-24T15:09:22Z</time>
      </trkpt>
      <trkpt lat="43.036783" lon="-4.259500">
        <ele>2153.0</ele>
        <time>2017-05-24T15:09:23Z</time>
      </trkpt>
      <trkpt lat="43.036867" lon="-4.259667">
        <ele>2152.0</ele>
        <time>2017-05-24T15:09:24Z</time>
      </trkpt>
      <trkpt lat="43.036950" lon="-4.259817">
        <ele>2151.0</ele>
        <time>2017-05-24T15:09:25Z</time>
      </trkpt>
      <trkpt lat="43.037017" lon="-4.259967">
        <ele>2151.0</ele>
        <time>2017-05-24T15:09:26Z</time>
      </trkpt>
      <trkpt lat="43.037100" lon="-4.260133">
        <ele>2150.0</ele>
        <time>2017-05-24T15:09:27Z</time>
      </trkpt>
      <trkpt lat="43.037150" lon="-4.260300">
        <ele>2149.0</ele>
        <time>2017-05-24T15:09:28Z</time>
      </trkpt>
      <trkpt lat="43.037233" lon="-4.260467">
        <ele>2148.0</ele>
        <time>2017-05-24T15:09:29Z</time>
      </trkpt>
      <trkpt lat="43.037300" lon="-4.260633">
        <ele>2146.0</ele>
        <time>2017-05-24T15:09:30Z</time>
      </trkpt>
      <trkpt lat="43.037383" lon="-4.260800">
        <ele>2145.0</ele>
        <time>2017-05-24T15:09:31Z</time>
      </trkpt>
      <trkpt lat="43.037467" lon="-4.260967">
        <ele>2144.0</ele>
        <time>2017-05-24T15:09:32Z</time>
      </trkpt>
      <trkpt lat="43.037550" lon="-4.261117">
        <ele>2144.0</ele>
        <time>2017-05-24T15:09:33Z</time>
      </trkpt>
      <trkpt lat="43.037633" lon="-4.261267">
        <ele>2143.0</ele>
        <time>2017-05-24T15:09:34Z</time>
      </trkpt>
      <trkpt lat="43.037700" lon="-4.261417">
        <ele>2141.0</ele>
        <time>2017-05-24T15:09:35Z</time>
      </trkpt>
      <trkpt lat="43.037783" lon="-4.261583">
        <ele>2139.0</ele>
        <time>2017-05-24T15:09:36Z</time>
      </trkpt>
      <trkpt lat="43.037867" lon="-4.261750">
        <ele>2137.0</ele>
        <time>2017-05-24T15:09:37Z</time>
      </trkpt>
      <trkpt lat="43.037933" lon="-4.261933">
        <ele>2136.0</ele>
        <time>2017-05-24T15:09:38Z</time>
      </trkpt>
      <trkpt lat="43.038017" lon="-4.262117">
        <ele>2135.0</ele>
        <time>2017-05-24T15:09:39Z</time>
      </trkpt>
      <trkpt lat="43.038083" lon="-4.262300">
        <ele>2136.0</ele>
        <time>2017-05-24T15:09:40Z</time>
      </trkpt>
      <trkpt lat="43.038150" lon="-4.262467">
        <ele>2136.0</ele>
        <time>2017-05-24T15:09:41Z</time>
      </trkpt>
      <trkpt lat="43.038217" lon="-4.262617">
        <ele>2136.0</ele>
        <time>2017-05-24T15:09:42Z</time>
      </trkpt>
      <trkpt lat="43.038283" lon="-4.262783">
        <ele>2136.0</ele>
        <time>2017-05-24T15:09:43Z</time>
      </trkpt>
      <trkpt lat="43.038333" lon="-4.262933">
        <ele>2136.0</ele>
        <time>2017-05-24T15:09:44Z</time>
      </trkpt>
      <trkpt lat="43.038383" lon="-4.263067">
        <ele>2137.0</ele>
        <time>2017-05-24T15:09:45Z</time>
      </trkpt>
      <trkpt lat="43.038433" lon="-4.263183">
        <ele>2138.0</ele>
        <time>2017-05-24T15:09:46Z</time>
      </trkpt>
      <trkpt lat="43.038483" lon="-4.263317">
        <ele>2135.0</ele>
        <time>2017-05-24T15:09:47Z</time>
      </trkpt>
      <trkpt lat="43.038550" lon="-4.263450">
        <ele>2133.0</ele>
        <time>2017-05-24T15:09:48Z</time>
      </trkpt>
      <trkpt lat="43.038617" lon="-4.263617">
        <ele>2131.0</ele>
        <time>2017-05-24T15:09:49Z</time>
      </trkpt>
      <trkpt lat="43.038683" lon="-4.263767">
        <ele>2130.0</ele>
        <time>2017-05-24T15:09:50Z</time>
      </trkpt>
      <trkpt lat="43.038733" lon="-4.263917">
        <ele>2130.0</ele>
        <time>2017-05-24T15:09:51Z</time>
      </trkpt>
      <trkpt lat="43.038800" lon="-4.264050">
        <ele>2130.0</ele>
        <time>2017-05-24T15:09:52Z</time>
      </trkpt>
      <trkpt lat="43.038867" lon="-4.264183">
        <ele>2129.0</ele>
        <time>2017-05-24T15:09:53Z</time>
      </trkpt>
      <trkpt lat="43.038933" lon="-4.264333">
        <ele>2127.0</ele>
        <time>2017-05-24T15:09:54Z</time>
      </trkpt>
      <trkpt lat="43.039000" lon="-4.264467">
        <ele>2124.0</ele>
        <time>2017-05-24T15:09:55Z</time>
      </trkpt>
      <trkpt lat="43.039083" lon="-4.264617">
        <ele>2122.0</ele>
        <time>2017-05-24T15:09:56Z</time>
      </trkpt>
      <trkpt lat="43.039150" lon="-4.264767">
        <ele>2120.0</ele>
        <time>2017-05-24T15:09:57Z</time>
      </trkpt>
      <trkpt lat="43.039233" lon="-4.264900">
        <ele>2118.0</ele>
        <time>2017-05-24T15:09:58Z</time>
      </trkpt>
      <trkpt lat="43.039317" lon="-4.265033">
        <ele>2116.0</ele>
        <time>2017-05-24T15:09:59Z</time>
      </trkpt>
      <trkpt lat="43.039400" lon="-4.265167">
        <ele>2113.0</ele>
        <time>2017-05-24T15:10:00Z</time>
      </trkpt>
      <trkpt lat="43.039467" lon="-4.265300">
        <ele>2110.0</ele>
        <time>2017-05-24T15:10:01Z</time>
      </trkpt>
      <trkpt lat="43.039550" lon="-4.265433">
        <ele>2107.0</ele>
        <time>2017-05-24T15:10:02Z</time>
      </trkpt>
      <trkpt lat="43.039633" lon="-4.265567">
        <ele>2104.0</ele>
        <time>2017-05-24T15:10:03Z</time>
      </trkpt>
      <trkpt lat="43.039717" lon="-4.265700">
        <ele>2102.0</ele>
        <time>2017-05-24T15:10:04Z</time>
      </trkpt>
      <trkpt lat="43.039800" lon="-4.265850">
        <ele>2101.0</ele>
        <time>2017-05-24T15:10:05Z</time>
      </trkpt>
      <trkpt lat="43.039867" lon="-4.265983">
        <ele>2099.0</ele>
        <time>2017-05-24T15:10:06Z</time>
      </trkpt>
      <trkpt lat="43.039933" lon="-4.266133">
        <ele>2097.0</ele>
        <time>2017-05-24T15:10:07Z</time>
      </trkpt>
      <trkpt lat="43.040017" lon="-4.266283">
        <ele>2095.0</ele>
        <time>2017-05-24T15:10:08Z</time>
      </trkpt>
      <trkpt lat="43.040100" lon="-4.266433">
        <ele>2094.0</ele>
        <time>2017-05-24T15:10:09Z</time>
      </trkpt>
      <trkpt lat="43.040167" lon="-4.266583">
        <ele>2094.0</ele>
        <time>2017-05-24T15:10:10Z</time>
      </trkpt>
      <trkpt lat="43.040217" lon="-4.266733">
        <ele>2094.0</ele>
        <time>2017-05-24T15:10:11Z</time>
      </trkpt>
      <trkpt lat="43.040267" lon="-4.266883">
        <ele>2095.0</ele>
        <time>2017-05-24T15:10:12Z</time>
      </trkpt>
      <trkpt lat="43.040317" lon="-4.267000">
        <ele>2096.0</ele>
        <time>2017-05-24T15:10:13Z</time>
      </trkpt>
      <trkpt lat="43.040367" lon="-4.267117">
        <ele>2096.0</ele>
        <time>2017-05-24T15:10:14Z</time>
      </trkpt>
      <trkpt lat="43.040433" lon="-4.267233">
        <ele>2094.0</ele>
        <time>2017-05-24T15:10:15Z</time>
      </trkpt>
      <trkpt lat="43.040500" lon="-4.267367">
        <ele>2093.0</ele>
        <time>2017-05-24T15:10:16Z</time>
      </trkpt>
      <trkpt lat="43.040583" lon="-4.267517">
        <ele>2091.0</ele>
        <time>2017-05-24T15:10:17Z</time>
      </trkpt>
      <trkpt lat="43.040650" lon="-4.267667">
        <ele>2092.0</ele>
        <time>2017-05-24T15:10:18Z</time>
      </trkpt>
      <trkpt lat="43.040717" lon="-4.267800">
        <ele>2093.0</ele>
        <time>2017-05-24T15:10:19Z</time>
      </trkpt>
      <trkpt lat="43.040767" lon="-4.267950">
        <ele>2094.0</ele>
        <time>2017-05-24T15:10:20Z</time>
      </trkpt>
      <trkpt lat="43.040833" lon="-4.268083">
        <ele>2095.0</ele>
        <time>2017-05-24T15:10:21Z</time>
      </trkpt>
      <trkpt lat="43.040900" lon="-4.268217">
        <ele>2096.0</ele>
        <time>2017-05-24T15:10:22Z</time>
      </trkpt>
      <trkpt lat="43.040950" lon="-4.268317">
        <ele>2097.0</ele>
        <time>2017-05-24T15:10:23Z</time>
      </trkpt>
      <trkpt lat="43.041017" lon="-4.268417">
        <ele>2097.0</ele>
        <time>2017-05-24T15:10:24Z</time>
      </trkpt>
      <trkpt lat="43.041067" lon="-4.268533">
        <ele>2097.0</ele>
        <time>2017-05-24T15:10:25Z</time>
      </trkpt>
      <trkpt lat="43.041100" lon="-4.268650">
        <ele>2095.0</ele>
        <time>2017-05-24T15:10:26Z</time>
      </trkpt>
      <trkpt lat="43.041133" lon="-4.268783">
        <ele>2094.0</ele>
        <time>2017-05-24T15:10:27Z</time>
      </trkpt>
      <trkpt lat="43.041183" lon="-4.268933">
        <ele>2092.0</ele>
        <time>2017-05-24T15:10:28Z</time>
      </trkpt>
      <trkpt lat="43.041233" lon="-4.269083">
        <ele>2091.0</ele>
        <time>2017-05-24T15:10:29Z</time>
      </trkpt>
      <trkpt lat="43.041283" lon="-4.269233">
        <ele>2090.0</ele>
        <time>2017-05-24T15:10:30Z</time>
      </trkpt>
      <trkpt lat="43.041350" lon="-4.269383">
        <ele>2090.0</ele>
        <time>2017-05-24T15:10:31Z</time>
      </trkpt>
      <trkpt lat="43.041400" lon="-4.269550">
        <ele>2090.0</ele>
        <time>2017-05-24T15:10:32Z</time>
      </trkpt>
      <trkpt lat="43.041450" lon="-4.269700">
        <ele>2090.0</ele>
        <time>2017-05-24T15:10:33Z</time>
      </trkpt>
      <trkpt lat="43.041517" lon="-4.269850">
        <ele>2090.0</ele>
        <time>2017-05-24T15:10:34Z</time>
      </trkpt>
      <trkpt lat="43.041567" lon="-4.269983">
        <ele>2090.0</ele>
        <time>2017-05-24T15:10:35Z</time>
      </trkpt>
      <trkpt lat="43.041633" lon="-4.270117">
        <ele>2089.0</ele>
        <time>2017-05-24T15:10:36Z</time>
      </trkpt>
      <trkpt lat="43.041700" lon="-4.270267">
        <ele>2088.0</ele>
        <time>2017-05-24T15:10:37Z</time>
      </trkpt>
      <trkpt lat="43.041783" lon="-4.270417">
        <ele>2087.0</ele>
        <time>2017-05-24T15:10:38Z</time>
      </trkpt>
      <trkpt lat="43.041850" lon="-4.270550">
        <ele>2087.0</ele>
        <time>2017-05-24T15:10:39Z</time>
      </trkpt>
      <trkpt lat="43.041917" lon="-4.270683">
        <ele>2086.0</ele>
        <time>2017-05-24T15:10:40Z</time>
      </trkpt>
      <trkpt lat="43.041967" lon="-4.270833">
        <ele>2086.0</ele>
        <time>2017-05-24T15:10:41Z</time>
      </trkpt>
      <trkpt lat="43.042017" lon="-4.270967">
        <ele>2085.0</ele>
        <time>2017-05-24T15:10:42Z</time>
      </trkpt>
      <trkpt lat="43.042050" lon="-4.271100">
        <ele>2083.0</ele>
        <time>2017-05-24T15:10:43Z</time>
      </trkpt>
      <trkpt lat="43.042100" lon="-4.271250">
        <ele>2081.0</ele>
        <time>2017-05-24T15:10:44Z</time>
      </trkpt>
      <trkpt lat="43.042167" lon="-4.271400">
        <ele>2079.0</ele>
        <time>2017-05-24T15:10:45Z</time>
      </trkpt>
      <trkpt lat="43.042217" lon="-4.271533">
        <ele>2077.0</ele>
        <time>2017-05-24T15:10:46Z</time>
      </trkpt>
      <trkpt lat="43.042267" lon="-4.271683">
        <ele>2077.0</ele>
        <time>2017-05-24T15:10:47Z</time>
      </trkpt>
      <trkpt lat="43.042300" lon="-4.271833">
        <ele>2077.0</ele>
        <time>2017-05-24T15:10:48Z</time>
      </trkpt>
      <trkpt lat="43.042317" lon="-4.271983">
        <ele>2076.0</ele>
        <time>2017-05-24T15:10:49Z</time>
      </trkpt>
      <trkpt lat="43.042333" lon="-4.272150">
        <ele>2074.0</ele>
        <time>2017-05-24T15:10:50Z</time>
      </trkpt>
      <trkpt lat="43.042367" lon="-4.272317">
        <ele>2074.0</ele>
        <time>2017-05-24T15:10:51Z</time>
      </trkpt>
      <trkpt lat="43.042417" lon="-4.272483">
        <ele>2074.0</ele>
        <time>2017-05-24T15:10:52Z</time>
      </trkpt>
      <trkpt lat="43.042450" lon="-4.272633">
        <ele>2076.0</ele>
        <time>2017-05-24T15:10:53Z</time>
      </trkpt>
      <trkpt lat="43.042500" lon="-4.272800">
        <ele>2078.0</ele>
        <time>2017-05-24T15:10:54Z</time>
      </trkpt>
      <trkpt lat="43.042517" lon="-4.272950">
        <ele>2081.0</ele>
        <time>2017-05-24T15:10:55Z</time>
      </trkpt>
      <trkpt lat="43.042533" lon="-4.273083">
        <ele>2085.0</ele>
        <time>2017-05-24T15:10:56Z</time>
      </trkpt>
      <trkpt lat="43.042550" lon="-4.273217">
        <ele>2088.0</ele>
        <time>2017-05-24T15:10:57Z</time>
      </trkpt>
      <trkpt lat="43.042567" lon="-4.273300">
        <ele>2091.0</ele>
        <time>2017-05-24T15:10:58Z</time>
      </trkpt>
      <trkpt lat="43.042583" lon="-4.273417">
        <ele>2093.0</ele>
        <time>2017-05-24T15:10:59Z</time>
      </trkpt>
      <trkpt lat="43.042583" lon="-4.273533">
        <ele>2095.0</ele>
        <time>2017-05-24T15:11:00Z</time>
      </trkpt>
      <trkpt lat="43.042600" lon="-4.273667">
        <ele>2096.0</ele>
        <time>2017-05-24T15:11:01Z</time>
      </trkpt>
      <trkpt lat="43.042600" lon="-4.273800">
        <ele>2098.0</ele>
        <time>2017-05-24T15:11:02Z</time>
      </trkpt>
      <trkpt lat="43.042600" lon="-4.273917">
        <ele>2100.0</ele>
        <time>2017-05-24T15:11:03Z</time>
      </trkpt>
      <trkpt lat="43.042583" lon="-4.274017">
        <ele>2102.0</ele>
        <time>2017-05-24T15:11:04Z</time>
      </trkpt>
      <trkpt lat="43.042533" lon="-4.274133">
        <ele>2102.0</ele>
        <time>2017-05-24T15:11:05Z</time>
      </trkpt>
      <trkpt lat="43.042483" lon="-4.274233">
        <ele>2102.0</ele>
        <time>2017-05-24T15:11:06Z</time>
      </trkpt>
      <trkpt lat="43.042417" lon="-4.274333">
        <ele>2102.0</ele>
        <time>2017-05-24T15:11:07Z</time>
      </trkpt>
      <trkpt lat="43.042350" lon="-4.274433">
        <ele>2103.0</ele>
        <time>2017-05-24T15:11:08Z</time>
      </trkpt>
      <trkpt lat="43.042267" lon="-4.274517">
        <ele>2103.0</ele>
        <time>2017-05-24T15:11:09Z</time>
      </trkpt>
      <trkpt lat="43.042167" lon="-4.274583">
        <ele>2103.0</ele>
        <time>2017-05-24T15:11:10Z</time>
      </trkpt>
      <trkpt lat="43.042067" lon="-4.274617">
        <ele>2103.0</ele>
        <time>2017-05-24T15:11:11Z</time>
      </trkpt>
      <trkpt lat="43.041967" lon="-4.274633">
        <ele>2105.0</ele>
        <time>2017-05-24T15:11:12Z</time>
      </trkpt>
      <trkpt lat="43.041867" lon="-4.274667">
        <ele>2106.0</ele>
        <time>2017-05-24T15:11:13Z</time>
      </trkpt>
      <trkpt lat="43.041783" lon="-4.274683">
        <ele>2108.0</ele>
        <time>2017-05-24T15:11:14Z</time>
      </trkpt>
      <trkpt lat="43.041700" lon="-4.274733">
        <ele>2111.0</ele>
        <time>2017-05-24T15:11:15Z</time>
      </trkpt>
      <trkpt lat="43.041633" lon="-4.274767">
        <ele>2113.0</ele>
        <time>2017-05-24T15:11:16Z</time>
      </trkpt>
      <trkpt lat="43.041550" lon="-4.274817">
        <ele>2115.0</ele>
        <time>2017-05-24T15:11:17Z</time>
      </trkpt>
      <trkpt lat="43.041467" lon="-4.274850">
        <ele>2117.0</ele>
        <time>2017-05-24T15:11:18Z</time>
      </trkpt>
      <trkpt lat="43.041383" lon="-4.274883">
        <ele>2118.0</ele>
        <time>2017-05-24T15:11:19Z</time>
      </trkpt>
      <trkpt lat="43.041317" lon="-4.274900">
        <ele>2120.0</ele>
        <time>2017-05-24T15:11:20Z</time>
      </trkpt>
      <trkpt lat="43.041233" lon="-4.274900">
        <ele>2122.0</ele>
        <time>2017-05-24T15:11:21Z</time>
      </trkpt>
      <trkpt lat="43.041183" lon="-4.274883">
        <ele>2125.0</ele>
        <time>2017-05-24T15:11:22Z</time>
      </trkpt>
      <trkpt lat="43.041133" lon="-4.274867">
        <ele>2126.0</ele>
        <time>2017-05-24T15:11:23Z</time>
      </trkpt>
      <trkpt lat="43.041083" lon="-4.274833">
        <ele>2125.0</ele>
        <time>2017-05-24T15:11:24Z</time>
      </trkpt>
      <trkpt lat="43.041017" lon="-4.274817">
        <ele>2125.0</ele>
        <time>2017-05-24T15:11:25Z</time>
      </trkpt>
      <trkpt lat="43.040983" lon="-4.274800">
        <ele>2123.0</ele>
        <time>2017-05-24T15:11:26Z</time>
      </trkpt>
      <trkpt lat="43.040933" lon="-4.274750">
        <ele>2121.0</ele>
        <time>2017-05-24T15:11:27Z</time>
      </trkpt>
      <trkpt lat="43.040900" lon="-4.274700">
        <ele>2118.0</ele>
        <time>2017-05-24T15:11:28Z</time>
      </trkpt>
      <trkpt lat="43.040900" lon="-4.274633">
        <ele>2116.0</ele>
        <time>2017-05-24T15:11:29Z</time>
      </trkpt>
      <trkpt lat="43.040917" lon="-4.274567">
        <ele>2115.0</ele>
        <time>2017-05-24T15:11:30Z</time>
      </trkpt>
      <trkpt lat="43.040950" lon="-4.274500">
        <ele>2113.0</ele>
        <time>2017-05-24T15:11:31Z</time>
      </trkpt>
      <trkpt lat="43.041000" lon="-4.274450">
        <ele>2111.0</ele>
        <time>2017-05-24T15:11:32Z</time>
      </trkpt>
      <trkpt lat="43.041050" lon="-4.274400">
        <ele>2109.0</ele>
        <time>2017-05-24T15:11:33Z</time>
      </trkpt>
      <trkpt lat="43.041133" lon="-4.274350">
        <ele>2107.0</ele>
        <time>2017-05-24T15:11:34Z</time>
      </trkpt>
      <trkpt lat="43.041233" lon="-4.274317">
        <ele>2107.0</ele>
        <time>2017-05-24T15:11:35Z</time>
      </trkpt>
      <trkpt lat="43.041317" lon="-4.274283">
        <ele>2108.0</ele>
        <time>2017-05-24T15:11:36Z</time>
      </trkpt>
      <trkpt lat="43.041400" lon="-4.274283">
        <ele>2110.0</ele>
        <time>2017-05-24T15:11:37Z</time>
      </trkpt>
      <trkpt lat="43.041467" lon="-4.274267">
        <ele>2112.0</ele>
        <time>2017-05-24T15:11:38Z</time>
      </trkpt>
      <trkpt lat="43.041550" lon="-4.274233">
        <ele>2112.0</ele>
        <time>2017-05-24T15:11:39Z</time>
      </trkpt>
      <trkpt lat="43.041600" lon="-4.274183">
        <ele>2113.0</ele>
        <time>2017-05-24T15:11:40Z</time>
      </trkpt>
      <trkpt lat="43.041667" lon="-4.274117">
        <ele>2114.0</ele>
        <time>2017-05-24T15:11:41Z</time>
      </trkpt>
      <trkpt lat="43.041717" lon="-4.274050">
        <ele>2114.0</ele>
        <time>2017-05-24T15:11:42Z</time>
      </trkpt>
      <trkpt lat="43.041783" lon="-4.274000">
        <ele>2114.0</ele>
        <time>2017-05-24T15:11:43Z</time>
      </trkpt>
      <trkpt lat="43.041867" lon="-4.273950">
        <ele>2113.0</ele>
        <time>2017-05-24T15:11:44Z</time>
      </trkpt>
      <trkpt lat="43.041950" lon="-4.273917">
        <ele>2113.0</ele>
        <time>2017-05-24T15:11:45Z</time>
      </trkpt>
      <trkpt lat="43.042033" lon="-4.273900">
        <ele>2114.0</ele>
        <time>2017-05-24T15:11:46Z</time>
      </trkpt>
      <trkpt lat="43.042117" lon="-4.273900">
        <ele>2114.0</ele>
        <time>2017-05-24T15:11:47Z</time>
      </trkpt>
      <trkpt lat="43.042183" lon="-4.273900">
        <ele>2114.0</ele>
        <time>2017-05-24T15:11:48Z</time>
      </trkpt>
      <trkpt lat="43.042267" lon="-4.273900">
        <ele>2114.0</ele>
        <time>2017-05-24T15:11:49Z</time>
      </trkpt>
      <trkpt lat="43.042333" lon="-4.273933">
        <ele>2113.0</ele>
        <time>2017-05-24T15:11:50Z</time>
      </trkpt>
      <trkpt lat="43.042417" lon="-4.274000">
        <ele>2112.0</ele>
        <time>2017-05-24T15:11:51Z</time>
      </trkpt>
      <trkpt lat="43.042483" lon="-4.274083">
        <ele>2112.0</ele>
        <time>2017-05-24T15:11:52Z</time>
      </trkpt>
      <trkpt lat="43.042533" lon="-4.274183">
        <ele>2112.0</ele>
        <time>2017-05-24T15:11:53Z</time>
      </trkpt>
      <trkpt lat="43.042583" lon="-4.274283">
        <ele>2112.0</ele>
        <time>2017-05-24T15:11:54Z</time>
      </trkpt>
      <trkpt lat="43.042650" lon="-4.274383">
        <ele>2112.0</ele>
        <time>2017-05-24T15:11:55Z</time>
      </trkpt>
      <trkpt lat="43.042717" lon="-4.274467">
        <ele>2111.0</ele>
        <time>2017-05-24T15:11:56Z</time>
      </trkpt>
      <trkpt lat="43.042800" lon="-4.274550">
        <ele>2110.0</ele>
        <time>2017-05-24T15:11:57Z</time>
      </trkpt>
      <trkpt lat="43.042883" lon="-4.274650">
        <ele>2109.0</ele>
        <time>2017-05-24T15:11:58Z</time>
      </trkpt>
      <trkpt lat="43.042967" lon="-4.274767">
        <ele>2109.0</ele>
        <time>2017-05-24T15:11:59Z</time>
      </trkpt>
      <trkpt lat="43.043033" lon="-4.274883">
        <ele>2110.0</ele>
        <time>2017-05-24T15:12:00Z</time>
      </trkpt>
      <trkpt lat="43.043117" lon="-4.275000">
        <ele>2110.0</ele>
        <time>2017-05-24T15:12:01Z</time>
      </trkpt>
      <trkpt lat="43.043183" lon="-4.275100">
        <ele>2111.0</ele>
        <time>2017-05-24T15:12:02Z</time>
      </trkpt>
      <trkpt lat="43.043250" lon="-4.275200">
        <ele>2112.0</ele>
        <time>2017-05-24T15:12:03Z</time>
      </trkpt>
      <trkpt lat="43.043317" lon="-4.275317">
        <ele>2111.0</ele>
        <time>2017-05-24T15:12:04Z</time>
      </trkpt>
      <trkpt lat="43.043400" lon="-4.275417">
        <ele>2110.0</ele>
        <time>2017-05-24T15:12:05Z</time>
      </trkpt>
      <trkpt lat="43.043483" lon="-4.275533">
        <ele>2110.0</ele>
        <time>2017-05-24T15:12:06Z</time>
      </trkpt>
      <trkpt lat="43.043567" lon="-4.275667">
        <ele>2111.0</ele>
        <time>2017-05-24T15:12:07Z</time>
      </trkpt>
      <trkpt lat="43.043650" lon="-4.275800">
        <ele>2113.0</ele>
        <time>2017-05-24T15:12:08Z</time>
      </trkpt>
      <trkpt lat="43.043717" lon="-4.275950">
        <ele>2117.0</ele>
        <time>2017-05-24T15:12:09Z</time>
      </trkpt>
      <trkpt lat="43.043750" lon="-4.276067">
        <ele>2120.0</ele>
        <time>2017-05-24T15:12:10Z</time>
      </trkpt>
      <trkpt lat="43.043800" lon="-4.276183">
        <ele>2122.0</ele>
        <time>2017-05-24T15:12:11Z</time>
      </trkpt>
      <trkpt lat="43.043850" lon="-4.276300">
        <ele>2123.0</ele>
        <time>2017-05-24T15:12:12Z</time>
      </trkpt>
      <trkpt lat="43.043900" lon="-4.276383">
        <ele>2125.0</ele>
        <time>2017-05-24T15:12:13Z</time>
      </trkpt>
      <trkpt lat="43.043950" lon="-4.276467">
        <ele>2126.0</ele>
        <time>2017-05-24T15:12:14Z</time>
      </trkpt>
      <trkpt lat="43.044000" lon="-4.276567">
        <ele>2128.0</ele>
        <time>2017-05-24T15:12:15Z</time>
      </trkpt>
      <trkpt lat="43.044050" lon="-4.276683">
        <ele>2129.0</ele>
        <time>2017-05-24T15:12:16Z</time>
      </trkpt>
      <trkpt lat="43.044083" lon="-4.276817">
        <ele>2131.0</ele>
        <time>2017-05-24T15:12:17Z</time>
      </trkpt>
      <trkpt lat="43.044133" lon="-4.276950">
        <ele>2132.0</ele>
        <time>2017-05-24T15:12:18Z</time>
      </trkpt>
      <trkpt lat="43.044150" lon="-4.277100">
        <ele>2134.0</ele>
        <time>2017-05-24T15:12:19Z</time>
      </trkpt>
      <trkpt lat="43.044183" lon="-4.277217">
        <ele>2136.0</ele>
        <time>2017-05-24T15:12:20Z</time>
      </trkpt>
      <trkpt lat="43.044217" lon="-4.277333">
        <ele>2138.0</ele>
        <time>2017-05-24T15:12:21Z</time>
      </trkpt>
      <trkpt lat="43.044250" lon="-4.277450">
        <ele>2138.0</ele>
        <time>2017-05-24T15:12:22Z</time>
      </trkpt>
      <trkpt lat="43.044267" lon="-4.277583">
        <ele>2138.0</ele>
        <time>2017-05-24T15:12:23Z</time>
      </trkpt>
      <trkpt lat="43.044317" lon="-4.277733">
        <ele>2137.0</ele>
        <time>2017-05-24T15:12:24Z</time>
      </trkpt>
      <trkpt lat="43.044350" lon="-4.277867">
        <ele>2137.0</ele>
        <time>2017-05-24T15:12:25Z</time>
      </trkpt>
      <trkpt lat="43.044383" lon="-4.278000">
        <ele>2138.0</ele>
        <time>2017-05-24T15:12:26Z</time>
      </trkpt>
      <trkpt lat="43.044433" lon="-4.278150">
        <ele>2138.0</ele>
        <time>2017-05-24T15:12:27Z</time>
      </trkpt>
      <trkpt lat="43.044483" lon="-4.278283">
        <ele>2137.0</ele>
        <time>2017-05-24T15:12:28Z</time>
      </trkpt>
      <trkpt lat="43.044533" lon="-4.278433">
        <ele>2136.0</ele>
        <time>2017-05-24T15:12:29Z</time>
      </trkpt>
      <trkpt lat="43.044583" lon="-4.278583">
        <ele>2136.0</ele>
        <time>2017-05-24T15:12:30Z</time>
      </trkpt>
      <trkpt lat="43.044617" lon="-4.278700">
        <ele>2138.0</ele>
        <time>2017-05-24T15:12:31Z</time>
      </trkpt>
      <trkpt lat="43.044600" lon="-4.278817">
        <ele>2138.0</ele>
        <time>2017-05-24T15:12:32Z</time>
      </trkpt>
      <trkpt lat="43.044550" lon="-4.278883">
        <ele>2134.0</ele>
        <time>2017-05-24T15:12:33Z</time>
      </trkpt>
      <trkpt lat="43.044467" lon="-4.278950">
        <ele>2132.0</ele>
        <time>2017-05-24T15:12:34Z</time>
      </trkpt>
      <trkpt lat="43.044383" lon="-4.278983">
        <ele>2131.0</ele>
        <time>2017-05-24T15:12:35Z</time>
      </trkpt>
      <trkpt lat="43.044317" lon="-4.279000">
        <ele>2130.0</ele>
        <time>2017-05-24T15:12:36Z</time>
      </trkpt>
      <trkpt lat="43.044250" lon="-4.279017">
        <ele>2129.0</ele>
        <time>2017-05-24T15:12:37Z</time>
      </trkpt>
      <trkpt lat="43.044183" lon="-4.279017">
        <ele>2127.0</ele>
        <time>2017-05-24T15:12:38Z</time>
      </trkpt>
      <trkpt lat="43.044100" lon="-4.279017">
        <ele>2124.0</ele>
        <time>2017-05-24T15:12:39Z</time>
      </trkpt>
      <trkpt lat="43.044017" lon="-4.279017">
        <ele>2122.0</ele>
        <time>2017-05-24T15:12:40Z</time>
      </trkpt>
      <trkpt lat="43.043933" lon="-4.279000">
        <ele>2122.0</ele>
        <time>2017-05-24T15:12:41Z</time>
      </trkpt>
      <trkpt lat="43.043850" lon="-4.278983">
        <ele>2122.0</ele>
        <time>2017-05-24T15:12:42Z</time>
      </trkpt>
      <trkpt lat="43.043767" lon="-4.278967">
        <ele>2121.0</ele>
        <time>2017-05-24T15:12:43Z</time>
      </trkpt>
      <trkpt lat="43.043700" lon="-4.278950">
        <ele>2121.0</ele>
        <time>2017-05-24T15:12:44Z</time>
      </trkpt>
      <trkpt lat="43.043617" lon="-4.278950">
        <ele>2120.0</ele>
        <time>2017-05-24T15:12:45Z</time>
      </trkpt>
      <trkpt lat="43.043533" lon="-4.278967">
        <ele>2119.0</ele>
        <time>2017-05-24T15:12:46Z</time>
      </trkpt>
      <trkpt lat="43.043467" lon="-4.278950">
        <ele>2116.0</ele>
        <time>2017-05-24T15:12:47Z</time>
      </trkpt>
      <trkpt lat="43.043367" lon="-4.278933">
        <ele>2114.0</ele>
        <time>2017-05-24T15:12:48Z</time>
      </trkpt>
      <trkpt lat="43.043267" lon="-4.278883">
        <ele>2112.0</ele>
        <time>2017-05-24T15:12:49Z</time>
      </trkpt>
      <trkpt lat="43.043167" lon="-4.278850">
        <ele>2112.0</ele>
        <time>2017-05-24T15:12:50Z</time>
      </trkpt>
      <trkpt lat="43.043083" lon="-4.278833">
        <ele>2114.0</ele>
        <time>2017-05-24T15:12:51Z</time>
      </trkpt>
      <trkpt lat="43.043000" lon="-4.278817">
        <ele>2115.0</ele>
        <time>2017-05-24T15:12:52Z</time>
      </trkpt>
      <trkpt lat="43.042917" lon="-4.278800">
        <ele>2116.0</ele>
        <time>2017-05-24T15:12:53Z</time>
      </trkpt>
      <trkpt lat="43.042833" lon="-4.278783">
        <ele>2117.0</ele>
        <time>2017-05-24T15:12:54Z</time>
      </trkpt>
      <trkpt lat="43.042733" lon="-4.278783">
        <ele>2117.0</ele>
        <time>2017-05-24T15:12:55Z</time>
      </trkpt>
      <trkpt lat="43.042633" lon="-4.278800">
        <ele>2118.0</ele>
        <time>2017-05-24T15:12:56Z</time>
      </trkpt>
      <trkpt lat="43.042550" lon="-4.278800">
        <ele>2119.0</ele>
        <time>2017-05-24T15:12:57Z</time>
      </trkpt>
      <trkpt lat="43.042450" lon="-4.278783">
        <ele>2120.0</ele>
        <time>2017-05-24T15:12:58Z</time>
      </trkpt>
      <trkpt lat="43.042367" lon="-4.278767">
        <ele>2122.0</ele>
        <time>2017-05-24T15:12:59Z</time>
      </trkpt>
      <trkpt lat="43.042300" lon="-4.278750">
        <ele>2124.0</ele>
        <time>2017-05-24T15:13:00Z</time>
      </trkpt>
      <trkpt lat="43.042233" lon="-4.278733">
        <ele>2126.0</ele>
        <time>2017-05-24T15:13:01Z</time>
      </trkpt>
      <trkpt lat="43.042183" lon="-4.278700">
        <ele>2126.0</ele>
        <time>2017-05-24T15:13:02Z</time>
      </trkpt>
      <trkpt lat="43.042133" lon="-4.278650">
        <ele>2126.0</ele>
        <time>2017-05-24T15:13:03Z</time>
      </trkpt>
      <trkpt lat="43.042083" lon="-4.278600">
        <ele>2125.0</ele>
        <time>2017-05-24T15:13:04Z</time>
      </trkpt>
      <trkpt lat="43.042033" lon="-4.278533">
        <ele>2126.0</ele>
        <time>2017-05-24T15:13:05Z</time>
      </trkpt>
      <trkpt lat="43.042033" lon="-4.278450">
        <ele>2127.0</ele>
        <time>2017-05-24T15:13:06Z</time>
      </trkpt>
      <trkpt lat="43.042067" lon="-4.278400">
        <ele>2127.0</ele>
        <time>2017-05-24T15:13:07Z</time>
      </trkpt>
      <trkpt lat="43.042150" lon="-4.278383">
        <ele>2127.0</ele>
        <time>2017-05-24T15:13:08Z</time>
      </trkpt>
      <trkpt lat="43.042250" lon="-4.278433">
        <ele>2128.0</ele>
        <time>2017-05-24T15:13:09Z</time>
      </trkpt>
      <trkpt lat="43.042317" lon="-4.278533">
        <ele>2130.0</ele>
        <time>2017-05-24T15:13:10Z</time>
      </trkpt>
      <trkpt lat="43.042367" lon="-4.278667">
        <ele>2132.0</ele>
        <time>2017-05-24T15:13:11Z</time>
      </trkpt>
      <trkpt lat="43.042367" lon="-4.278817">
        <ele>2134.0</ele>
        <time>2017-05-24T15:13:12Z</time>
      </trkpt>
      <trkpt lat="43.042350" lon="-4.278967">
        <ele>2135.0</ele>
        <time>2017-05-24T15:13:13Z</time>
      </trkpt>
      <trkpt lat="43.042317" lon="-4.279100">
        <ele>2136.0</ele>
        <time>2017-05-24T15:13:14Z</time>
      </trkpt>
      <trkpt lat="43.042250" lon="-4.279200">
        <ele>2137.0</ele>
        <time>2017-05-24T15:13:15Z</time>
      </trkpt>
      <trkpt lat="43.042167" lon="-4.279267">
        <ele>2138.0</ele>
        <time>2017-05-24T15:13:16Z</time>
      </trkpt>
      <trkpt lat="43.042100" lon="-4.279317">
        <ele>2138.0</ele>
        <time>2017-05-24T15:13:17Z</time>
      </trkpt>
      <trkpt lat="43.042033" lon="-4.279367">
        <ele>2138.0</ele>
        <time>2017-05-24T15:13:18Z</time>
      </trkpt>
      <trkpt lat="43.041950" lon="-4.279400">
        <ele>2138.0</ele>
        <time>2017-05-24T15:13:19Z</time>
      </trkpt>
      <trkpt lat="43.041850" lon="-4.279417">
        <ele>2137.0</ele>
        <time>2017-05-24T15:13:20Z</time>
      </trkpt>
      <trkpt lat="43.041750" lon="-4.279433">
        <ele>2137.0</ele>
        <time>2017-05-24T15:13:21Z</time>
      </trkpt>
      <trkpt lat="43.041667" lon="-4.279417">
        <ele>2138.0</ele>
        <time>2017-05-24T15:13:22Z</time>
      </trkpt>
      <trkpt lat="43.041583" lon="-4.279383">
        <ele>2138.0</ele>
        <time>2017-05-24T15:13:23Z</time>
      </trkpt>
      <trkpt lat="43.041533" lon="-4.279333">
        <ele>2139.0</ele>
        <time>2017-05-24T15:13:24Z</time>
      </trkpt>
      <trkpt lat="43.041467" lon="-4.279300">
        <ele>2139.0</ele>
        <time>2017-05-24T15:13:25Z</time>
      </trkpt>
      <trkpt lat="43.041417" lon="-4.279250">
        <ele>2139.0</ele>
        <time>2017-05-24T15:13:26Z</time>
      </trkpt>
      <trkpt lat="43.041383" lon="-4.279183">
        <ele>2139.0</ele>
        <time>2017-05-24T15:13:27Z</time>
      </trkpt>
      <trkpt lat="43.041383" lon="-4.279100">
        <ele>2138.0</ele>
        <time>2017-05-24T15:13:28Z</time>
      </trkpt>
      <trkpt lat="43.041417" lon="-4.279017">
        <ele>2137.0</ele>
        <time>2017-05-24T15:13:29Z</time>
      </trkpt>
      <trkpt lat="43.041483" lon="-4.278950">
        <ele>2137.0</ele>
        <time>2017-05-24T15:13:30Z</time>
      </trkpt>
      <trkpt lat="43.041550" lon="-4.278917">
        <ele>2138.0</ele>
        <time>2017-05-24T15:13:31Z</time>
      </trkpt>
      <trkpt lat="43.041633" lon="-4.278917">
        <ele>2140.0</ele>
        <time>2017-05-24T15:13:32Z</time>
      </trkpt>
      <trkpt lat="43.041700" lon="-4.278933">
        <ele>2141.0</ele>
        <time>2017-05-24T15:13:33Z</time>
      </trkpt>
      <trkpt lat="43.041783" lon="-4.278933">
        <ele>2142.0</ele>
        <time>2017-05-24T15:13:34Z</time>
      </trkpt>
      <trkpt lat="43.041867" lon="-4.278917">
        <ele>2143.0</ele>
        <time>2017-05-24T15:13:35Z</time>
      </trkpt>
      <trkpt lat="43.041950" lon="-4.278917">
        <ele>2144.0</ele>
        <time>2017-05-24T15:13:36Z</time>
      </trkpt>
      <trkpt lat="43.042050" lon="-4.278933">
        <ele>2146.0</ele>
        <time>2017-05-24T15:13:37Z</time>
      </trkpt>
      <trkpt lat="43.042133" lon="-4.278933">
        <ele>2147.0</ele>
        <time>2017-05-24T15:13:38Z</time>
      </trkpt>
      <trkpt lat="43.042217" lon="-4.278950">
        <ele>2149.0</ele>
        <time>2017-05-24T15:13:39Z</time>
      </trkpt>
      <trkpt lat="43.042317" lon="-4.278950">
        <ele>2152.0</ele>
        <time>2017-05-24T15:13:40Z</time>
      </trkpt>
      <trkpt lat="43.042400" lon="-4.278950">
        <ele>2154.0</ele>
        <time>2017-05-24T15:13:41Z</time>
      </trkpt>
      <trkpt lat="43.042467" lon="-4.278967">
        <ele>2156.0</ele>
        <time>2017-05-24T15:13:42Z</time>
      </trkpt>
      <trkpt lat="43.042517" lon="-4.279000">
        <ele>2158.0</ele>
        <time>2017-05-24T15:13:43Z</time>
      </trkpt>
      <trkpt lat="43.042567" lon="-4.279033">
        <ele>2158.0</ele>
        <time>2017-05-24T15:13:44Z</time>
      </trkpt>
      <trkpt lat="43.042617" lon="-4.279067">
        <ele>2157.0</ele>
        <time>2017-05-24T15:13:45Z</time>
      </trkpt>
      <trkpt lat="43.042683" lon="-4.279117">
        <ele>2156.0</ele>
        <time>2017-05-24T15:13:46Z</time>
      </trkpt>
      <trkpt lat="43.042767" lon="-4.279200">
        <ele>2156.0</ele>
        <time>2017-05-24T15:13:47Z</time>
      </trkpt>
      <trkpt lat="43.042833" lon="-4.279300">
        <ele>2157.0</ele>
        <time>2017-05-24T15:13:48Z</time>
      </trkpt>
      <trkpt lat="43.042867" lon="-4.279433">
        <ele>2157.0</ele>
        <time>2017-05-24T15:13:49Z</time>
      </trkpt>
      <trkpt lat="43.042850" lon="-4.279600">
        <ele>2157.0</ele>
        <time>2017-05-24T15:13:50Z</time>
      </trkpt>
      <trkpt lat="43.042783" lon="-4.279733">
        <ele>2158.0</ele>
        <time>2017-05-24T15:13:51Z</time>
      </trkpt>
      <trkpt lat="43.042717" lon="-4.279833">
        <ele>2161.0</ele>
        <time>2017-05-24T15:13:52Z</time>
      </trkpt>
      <trkpt lat="43.042633" lon="-4.279900">
        <ele>2164.0</ele>
        <time>2017-05-24T15:13:53Z</time>
      </trkpt>
      <trkpt lat="43.042550" lon="-4.279917">
        <ele>2166.0</ele>
        <time>2017-05-24T15:13:54Z</time>
      </trkpt>
      <trkpt lat="43.042467" lon="-4.279917">
        <ele>2167.0</ele>
        <time>2017-05-24T15:13:55Z</time>
      </trkpt>
      <trkpt lat="43.042400" lon="-4.279917">
        <ele>2169.0</ele>
        <time>2017-05-24T15:13:56Z</time>
      </trkpt>
      <trkpt lat="43.042333" lon="-4.279900">
        <ele>2170.0</ele>
        <time>2017-05-24T15:13:57Z</time>
      </trkpt>
      <trkpt lat="43.042267" lon="-4.279850">
        <ele>2170.0</ele>
        <time>2017-05-24T15:13:58Z</time>
      </trkpt>
      <trkpt lat="43.042217" lon="-4.279783">
        <ele>2171.0</ele>
        <time>2017-05-24T15:13:59Z</time>
      </trkpt>
      <trkpt lat="43.042200" lon="-4.279683">
        <ele>2173.0</ele>
        <time>2017-05-24T15:14:00Z</time>
      </trkpt>
      <trkpt lat="43.042217" lon="-4.279600">
        <ele>2176.0</ele>
        <time>2017-05-24T15:14:01Z</time>
      </trkpt>
      <trkpt lat="43.042267" lon="-4.279550">
        <ele>2177.0</ele>
        <time>2017-05-24T15:14:02Z</time>
      </trkpt>
      <trkpt lat="43.042333" lon="-4.279550">
        <ele>2177.0</ele>
        <time>2017-05-24T15:14:03Z</time>
      </trkpt>
      <trkpt lat="43.042417" lon="-4.279583">
        <ele>2178.0</ele>
        <time>2017-05-24T15:14:04Z</time>
      </trkpt>
      <trkpt lat="43.042483" lon="-4.279650">
        <ele>2179.0</ele>
        <time>2017-05-24T15:14:05Z</time>
      </trkpt>
      <trkpt lat="43.042550" lon="-4.279717">
        <ele>2180.0</ele>
        <time>2017-05-24T15:14:06Z</time>
      </trkpt>
      <trkpt lat="43.042567" lon="-4.279817">
        <ele>2182.0</ele>
        <time>2017-05-24T15:14:07Z</time>
      </trkpt>
      <trkpt lat="43.042600" lon="-4.279933">
        <ele>2183.0</ele>
        <time>2017-05-24T15:14:08Z</time>
      </trkpt>
      <trkpt lat="43.042600" lon="-4.280050">
        <ele>2184.0</ele>
        <time>2017-05-24T15:14:09Z</time>
      </trkpt>
      <trkpt lat="43.042600" lon="-4.280150">
        <ele>2186.0</ele>
        <time>2017-05-24T15:14:10Z</time>
      </trkpt>
      <trkpt lat="43.042567" lon="-4.280267">
        <ele>2187.0</ele>
        <time>2017-05-24T15:14:11Z</time>
      </trkpt>
      <trkpt lat="43.042517" lon="-4.280350">
        <ele>2188.0</ele>
        <time>2017-05-24T15:14:12Z</time>
      </trkpt>
      <trkpt lat="43.042433" lon="-4.280417">
        <ele>2189.0</ele>
        <time>2017-05-24T15:14:13Z</time>
      </trkpt>
      <trkpt lat="43.042350" lon="-4.280433">
        <ele>2191.0</ele>
        <time>2017-05-24T15:14:14Z</time>
      </trkpt>
      <trkpt lat="43.042283" lon="-4.280417">
        <ele>2191.0</ele>
        <time>2017-05-24T15:14:15Z</time>
      </trkpt>
      <trkpt lat="43.042217" lon="-4.280367">
        <ele>2192.0</ele>
        <time>2017-05-24T15:14:16Z</time>
      </trkpt>
      <trkpt lat="43.042150" lon="-4.280283">
        <ele>2193.0</ele>
        <time>2017-05-24T15:14:17Z</time>
      </trkpt>
      <trkpt lat="43.042117" lon="-4.280200">
        <ele>2194.0</ele>
        <time>2017-05-24T15:14:18Z</time>
      </trkpt>
      <trkpt lat="43.042117" lon="-4.280100">
        <ele>2195.0</ele>
        <time>2017-05-24T15:14:19Z</time>
      </trkpt>
      <trkpt lat="43.042150" lon="-4.280017">
        <ele>2196.0</ele>
        <time>2017-05-24T15:14:20Z</time>
      </trkpt>
      <trkpt lat="43.042217" lon="-4.279967">
        <ele>2197.0</ele>
        <time>2017-05-24T15:14:21Z</time>
      </trkpt>
      <trkpt lat="43.042267" lon="-4.279950">
        <ele>2197.0</ele>
        <time>2017-05-24T15:14:22Z</time>
      </trkpt>
      <trkpt lat="43.042350" lon="-4.279950">
        <ele>2197.0</ele>
        <time>2017-05-24T15:14:23Z</time>
      </trkpt>
      <trkpt lat="43.042417" lon="-4.279967">
        <ele>2197.0</ele>
        <time>2017-05-24T15:14:24Z</time>
      </trkpt>
      <trkpt lat="43.042500" lon="-4.280017">
        <ele>2196.0</ele>
        <time>2017-05-24T15:14:25Z</time>
      </trkpt>
      <trkpt lat="43.042567" lon="-4.280083">
        <ele>2195.0</ele>
        <time>2017-05-24T15:14:26Z</time>
      </trkpt>
      <trkpt lat="43.042633" lon="-4.280167">
        <ele>2195.0</ele>
        <time>2017-05-24T15:14:27Z</time>
      </trkpt>
      <trkpt lat="43.042700" lon="-4.280250">
        <ele>2195.0</ele>
        <time>2017-05-24T15:14:28Z</time>
      </trkpt>
      <trkpt lat="43.042767" lon="-4.280317">
        <ele>2195.0</ele>
        <time>2017-05-24T15:14:29Z</time>
      </trkpt>
      <trkpt lat="43.042850" lon="-4.280400">
        <ele>2194.0</ele>
        <time>2017-05-24T15:14:30Z</time>
      </trkpt>
      <trkpt lat="43.042933" lon="-4.280500">
        <ele>2193.0</ele>
        <time>2017-05-24T15:14:31Z</time>
      </trkpt>
      <trkpt lat="43.043000" lon="-4.280617">
        <ele>2194.0</ele>
        <time>2017-05-24T15:14:32Z</time>
      </trkpt>
      <trkpt lat="43.043083" lon="-4.280717">
        <ele>2195.0</ele>
        <time>2017-05-24T15:14:33Z</time>
      </trkpt>
      <trkpt lat="43.043167" lon="-4.280817">
        <ele>2197.0</ele>
        <time>2017-05-24T15:14:34Z</time>
      </trkpt>
      <trkpt lat="43.043233" lon="-4.280883">
        <ele>2198.0</ele>
        <time>2017-05-24T15:14:35Z</time>
      </trkpt>
      <trkpt lat="43.043300" lon="-4.280967">
        <ele>2200.0</ele>
        <time>2017-05-24T15:14:36Z</time>
      </trkpt>
      <trkpt lat="43.043367" lon="-4.281033">
        <ele>2201.0</ele>
        <time>2017-05-24T15:14:37Z</time>
      </trkpt>
      <trkpt lat="43.043433" lon="-4.281100">
        <ele>2203.0</ele>
        <time>2017-05-24T15:14:38Z</time>
      </trkpt>
      <trkpt lat="43.043500" lon="-4.281167">
        <ele>2205.0</ele>
        <time>2017-05-24T15:14:39Z</time>
      </trkpt>
      <trkpt lat="43.043550" lon="-4.281233">
        <ele>2207.0</ele>
        <time>2017-05-24T15:14:40Z</time>
      </trkpt>
      <trkpt lat="43.043583" lon="-4.281300">
        <ele>2209.0</ele>
        <time>2017-05-24T15:14:41Z</time>
      </trkpt>
      <trkpt lat="43.043633" lon="-4.281383">
        <ele>2209.0</ele>
        <time>2017-05-24T15:14:42Z</time>
      </trkpt>
      <trkpt lat="43.043700" lon="-4.281467">
        <ele>2210.0</ele>
        <time>2017-05-24T15:14:43Z</time>
      </trkpt>
      <trkpt lat="43.043750" lon="-4.281550">
        <ele>2211.0</ele>
        <time>2017-05-24T15:14:44Z</time>
      </trkpt>
      <trkpt lat="43.043817" lon="-4.281633">
        <ele>2212.0</ele>
        <time>2017-05-24T15:14:45Z</time>
      </trkpt>
      <trkpt lat="43.043867" lon="-4.281683">
        <ele>2214.0</ele>
        <time>2017-05-24T15:14:46Z</time>
      </trkpt>
      <trkpt lat="43.043933" lon="-4.281717">
        <ele>2215.0</ele>
        <time>2017-05-24T15:14:47Z</time>
      </trkpt>
      <trkpt lat="43.044000" lon="-4.281717">
        <ele>2216.0</ele>
        <time>2017-05-24T15:14:48Z</time>
      </trkpt>
      <trkpt lat="43.044067" lon="-4.281700">
        <ele>2218.0</ele>
        <time>2017-05-24T15:14:49Z</time>
      </trkpt>
      <trkpt lat="43.044117" lon="-4.281683">
        <ele>2220.0</ele>
        <time>2017-05-24T15:14:50Z</time>
      </trkpt>
      <trkpt lat="43.044150" lon="-4.281650">
        <ele>2222.0</ele>
        <time>2017-05-24T15:14:51Z</time>
      </trkpt>
      <trkpt lat="43.044167" lon="-4.281633">
        <ele>2225.0</ele>
        <time>2017-05-24T15:14:52Z</time>
      </trkpt>
      <trkpt lat="43.044200" lon="-4.281617">
        <ele>2226.0</ele>
        <time>2017-05-24T15:14:53Z</time>
      </trkpt>
      <trkpt lat="43.044217" lon="-4.281583">
        <ele>2227.0</ele>
        <time>2017-05-24T15:14:54Z</time>
      </trkpt>
      <trkpt lat="43.044267" lon="-4.281550">
        <ele>2227.0</ele>
        <time>2017-05-24T15:14:55Z</time>
      </trkpt>
      <trkpt lat="43.044283" lon="-4.281500">
        <ele>2228.0</ele>
        <time>2017-05-24T15:14:56Z</time>
      </trkpt>
      <trkpt lat="43.044300" lon="-4.281433">
        <ele>2229.0</ele>
        <time>2017-05-24T15:14:57Z</time>
      </trkpt>
      <trkpt lat="43.044300" lon="-4.281400">
        <ele>2231.0</ele>
        <time>2017-05-24T15:14:58Z</time>
      </trkpt>
      <trkpt lat="43.044283" lon="-4.281350">
        <ele>2231.0</ele>
        <time>2017-05-24T15:14:59Z</time>
      </trkpt>
      <trkpt lat="43.044283" lon="-4.281283">
        <ele>2232.0</ele>
        <time>2017-05-24T15:15:00Z</time>
      </trkpt>
      <trkpt lat="43.044283" lon="-4.281233">
        <ele>2233.0</ele>
        <time>2017-05-24T15:15:01Z</time>
      </trkpt>
      <trkpt lat="43.044250" lon="-4.281200">
        <ele>2234.0</ele>
        <time>2017-05-24T15:15:02Z</time>
      </trkpt>
      <trkpt lat="43.044200" lon="-4.281183">
        <ele>2234.0</ele>
        <time>2017-05-24T15:15:03Z</time>
      </trkpt>
      <trkpt lat="43.044133" lon="-4.281183">
        <ele>2235.0</ele>
        <time>2017-05-24T15:15:04Z</time>
      </trkpt>
      <trkpt lat="43.044067" lon="-4.281217">
        <ele>2235.0</ele>
        <time>2017-05-24T15:15:05Z</time>
      </trkpt>
      <trkpt lat="43.044017" lon="-4.281300">
        <ele>2235.0</ele>
        <time>2017-05-24T15:15:06Z</time>
      </trkpt>
      <trkpt lat="43.043983" lon="-4.281433">
        <ele>2235.0</ele>
        <time>2017-05-24T15:15:07Z</time>
      </trkpt>
      <trkpt lat="43.043983" lon="-4.281583">
        <ele>2234.0</ele>
        <time>2017-05-24T15:15:08Z</time>
      </trkpt>
      <trkpt lat="43.044033" lon="-4.281733">
        <ele>2233.0</ele>
        <time>2017-05-24T15:15:09Z</time>
      </trkpt>
      <trkpt lat="43.044100" lon="-4.281850">
        <ele>2234.0</ele>
        <time>2017-05-24T15:15:10Z</time>
      </trkpt>
      <trkpt lat="43.044183" lon="-4.281933">
        <ele>2235.0</ele>
        <time>2017-05-24T15:15:11Z</time>
      </trkpt>
      <trkpt lat="43.044267" lon="-4.281983">
        <ele>2238.0</ele>
        <time>2017-05-24T15:15:12Z</time>
      </trkpt>
      <trkpt lat="43.044333" lon="-4.282017">
        <ele>2240.0</ele>
        <time>2017-05-24T15:15:13Z</time>
      </trkpt>
      <trkpt lat="43.044383" lon="-4.282067">
        <ele>2243.0</ele>
        <time>2017-05-24T15:15:14Z</time>
      </trkpt>
      <trkpt lat="43.044433" lon="-4.282133">
        <ele>2244.0</ele>
        <time>2017-05-24T15:15:15Z</time>
      </trkpt>
      <trkpt lat="43.044483" lon="-4.282200">
        <ele>2245.0</ele>
        <time>2017-05-24T15:15:16Z</time>
      </trkpt>
      <trkpt lat="43.044550" lon="-4.282250">
        <ele>2246.0</ele>
        <time>2017-05-24T15:15:17Z</time>
      </trkpt>
      <trkpt lat="43.044600" lon="-4.282283">
        <ele>2247.0</ele>
        <time>2017-05-24T15:15:18Z</time>
      </trkpt>
      <trkpt lat="43.044650" lon="-4.282300">
        <ele>2247.0</ele>
        <time>2017-05-24T15:15:19Z</time>
      </trkpt>
      <trkpt lat="43.044717" lon="-4.282300">
        <ele>2247.0</ele>
        <time>2017-05-24T15:15:20Z</time>
      </trkpt>
      <trkpt lat="43.044800" lon="-4.282283">
        <ele>2248.0</ele>
        <time>2017-05-24T15:15:21Z</time>
      </trkpt>
      <trkpt lat="43.044867" lon="-4.282267">
        <ele>2249.0</ele>
        <time>2017-05-24T15:15:22Z</time>
      </trkpt>
      <trkpt lat="43.044933" lon="-4.282267">
        <ele>2251.0</ele>
        <time>2017-05-24T15:15:23Z</time>
      </trkpt>
      <trkpt lat="43.045017" lon="-4.282250">
        <ele>2253.0</ele>
        <time>2017-05-24T15:15:24Z</time>
      </trkpt>
      <trkpt lat="43.045083" lon="-4.282233">
        <ele>2254.0</ele>
        <time>2017-05-24T15:15:25Z</time>
      </trkpt>
      <trkpt lat="43.045167" lon="-4.282217">
        <ele>2256.0</ele>
        <time>2017-05-24T15:15:26Z</time>
      </trkpt>
      <trkpt lat="43.045233" lon="-4.282200">
        <ele>2258.0</ele>
        <time>2017-05-24T15:15:27Z</time>
      </trkpt>
      <trkpt lat="43.045300" lon="-4.282183">
        <ele>2260.0</ele>
        <time>2017-05-24T15:15:28Z</time>
      </trkpt>
      <trkpt lat="43.045367" lon="-4.282167">
        <ele>2262.0</ele>
        <time>2017-05-24T15:15:29Z</time>
      </trkpt>
      <trkpt lat="43.045433" lon="-4.282150">
        <ele>2265.0</ele>
        <time>2017-05-24T15:15:30Z</time>
      </trkpt>
      <trkpt lat="43.045500" lon="-4.282133">
        <ele>2267.0</ele>
        <time>2017-05-24T15:15:31Z</time>
      </trkpt>
      <trkpt lat="43.045550" lon="-4.282100">
        <ele>2269.0</ele>
        <time>2017-05-24T15:15:32Z</time>
      </trkpt>
      <trkpt lat="43.045617" lon="-4.282067">
        <ele>2271.0</ele>
        <time>2017-05-24T15:15:33Z</time>
      </trkpt>
      <trkpt lat="43.045667" lon="-4.282050">
        <ele>2273.0</ele>
        <time>2017-05-24T15:15:34Z</time>
      </trkpt>
      <trkpt lat="43.045733" lon="-4.282033">
        <ele>2275.0</ele>
        <time>2017-05-24T15:15:35Z</time>
      </trkpt>
      <trkpt lat="43.045817" lon="-4.282050">
        <ele>2276.0</ele>
        <time>2017-05-24T15:15:36Z</time>
      </trkpt>
      <trkpt lat="43.045883" lon="-4.282117">
        <ele>2277.0</ele>
        <time>2017-05-24T15:15:37Z</time>
      </trkpt>
      <trkpt lat="43.045950" lon="-4.282233">
        <ele>2278.0</ele>
        <time>2017-05-24T15:15:38Z</time>
      </trkpt>
      <trkpt lat="43.046000" lon="-4.282350">
        <ele>2280.0</ele>
        <time>2017-05-24T15:15:39Z</time>
      </trkpt>
      <trkpt lat="43.046033" lon="-4.282483">
        <ele>2282.0</ele>
        <time>2017-05-24T15:15:40Z</time>
      </trkpt>
      <trkpt lat="43.046033" lon="-4.282633">
        <ele>2283.0</ele>
        <time>2017-05-24T15:15:41Z</time>
      </trkpt>
      <trkpt lat="43.046017" lon="-4.282783">
        <ele>2283.0</ele>
        <time>2017-05-24T15:15:42Z</time>
      </trkpt>
      <trkpt lat="43.045983" lon="-4.282917">
        <ele>2283.0</ele>
        <time>2017-05-24T15:15:43Z</time>
      </trkpt>
      <trkpt lat="43.045933" lon="-4.283050">
        <ele>2283.0</ele>
        <time>2017-05-24T15:15:44Z</time>
      </trkpt>
      <trkpt lat="43.045850" lon="-4.283167">
        <ele>2283.0</ele>
        <time>2017-05-24T15:15:45Z</time>
      </trkpt>
      <trkpt lat="43.045783" lon="-4.283267">
        <ele>2283.0</ele>
        <time>2017-05-24T15:15:46Z</time>
      </trkpt>
      <trkpt lat="43.045683" lon="-4.283350">
        <ele>2284.0</ele>
        <time>2017-05-24T15:15:47Z</time>
      </trkpt>
      <trkpt lat="43.045600" lon="-4.283400">
        <ele>2285.0</ele>
        <time>2017-05-24T15:15:48Z</time>
      </trkpt>
      <trkpt lat="43.045517" lon="-4.283433">
        <ele>2285.0</ele>
        <time>2017-05-24T15:15:49Z</time>
      </trkpt>
      <trkpt lat="43.045450" lon="-4.283450">
        <ele>2286.0</ele>
        <time>2017-05-24T15:15:50Z</time>
      </trkpt>
      <trkpt lat="43.045367" lon="-4.283467">
        <ele>2288.0</ele>
        <time>2017-05-24T15:15:51Z</time>
      </trkpt>
      <trkpt lat="43.045300" lon="-4.283467">
        <ele>2290.0</ele>
        <time>2017-05-24T15:15:52Z</time>
      </trkpt>
      <trkpt lat="43.045233" lon="-4.283467">
        <ele>2292.0</ele>
        <time>2017-05-24T15:15:53Z</time>
      </trkpt>
      <trkpt lat="43.045183" lon="-4.283450">
        <ele>2293.0</ele>
        <time>2017-05-24T15:15:54Z</time>
      </trkpt>
      <trkpt lat="43.045133" lon="-4.283417">
        <ele>2295.0</ele>
        <time>2017-05-24T15:15:55Z</time>
      </trkpt>
      <trkpt lat="43.045083" lon="-4.283367">
        <ele>2298.0</ele>
        <time>2017-05-24T15:15:56Z</time>
      </trkpt>
      <trkpt lat="43.045050" lon="-4.283300">
        <ele>2302.0</ele>
        <time>2017-05-24T15:15:57Z</time>
      </trkpt>
      <trkpt lat="43.045033" lon="-4.283233">
        <ele>2305.0</ele>
        <time>2017-05-24T15:15:58Z</time>
      </trkpt>
      <trkpt lat="43.045000" lon="-4.283183">
        <ele>2309.0</ele>
        <time>2017-05-24T15:15:59Z</time>
      </trkpt>
      <trkpt lat="43.044983" lon="-4.283150">
        <ele>2312.0</ele>
        <time>2017-05-24T15:16:00Z</time>
      </trkpt>
      <trkpt lat="43.044967" lon="-4.283100">
        <ele>2314.0</ele>
        <time>2017-05-24T15:16:01Z</time>
      </trkpt>
      <trkpt lat="43.044967" lon="-4.283033">
        <ele>2314.0</ele>
        <time>2017-05-24T15:16:02Z</time>
      </trkpt>
      <trkpt lat="43.044983" lon="-4.282950">
        <ele>2314.0</ele>
        <time>2017-05-24T15:16:03Z</time>
      </trkpt>
      <trkpt lat="43.045050" lon="-4.282867">
        <ele>2315.0</ele>
        <time>2017-05-24T15:16:04Z</time>
      </trkpt>
      <trkpt lat="43.045133" lon="-4.282833">
        <ele>2317.0</ele>
        <time>2017-05-24T15:16:05Z</time>
      </trkpt>
      <trkpt lat="43.045217" lon="-4.282833">
        <ele>2318.0</ele>
        <time>2017-05-24T15:16:06Z</time>
      </trkpt>
      <trkpt lat="43.045300" lon="-4.282850">
        <ele>2319.0</ele>
        <time>2017-05-24T15:16:07Z</time>
      </trkpt>
      <trkpt lat="43.045367" lon="-4.282867">
        <ele>2320.0</ele>
        <time>2017-05-24T15:16:08Z</time>
      </trkpt>
      <trkpt lat="43.045450" lon="-4.282900">
        <ele>2320.0</ele>
        <time>2017-05-24T15:16:09Z</time>
      </trkpt>
      <trkpt lat="43.045550" lon="-4.282933">
        <ele>2320.0</ele>
        <time>2017-05-24T15:16:10Z</time>
      </trkpt>
      <trkpt lat="43.045633" lon="-4.283000">
        <ele>2322.0</ele>
        <time>2017-05-24T15:16:11Z</time>
      </trkpt>
      <trkpt lat="43.045717" lon="-4.283083">
        <ele>2324.0</ele>
        <time>2017-05-24T15:16:12Z</time>
      </trkpt>
      <trkpt lat="43.045767" lon="-4.283183">
        <ele>2327.0</ele>
        <time>2017-05-24T15:16:13Z</time>
      </trkpt>
      <trkpt lat="43.045800" lon="-4.283283">
        <ele>2329.0</ele>
        <time>2017-05-24T15:16:14Z</time>
      </trkpt>
      <trkpt lat="43.045817" lon="-4.283383">
        <ele>2330.0</ele>
        <time>2017-05-24T15:16:15Z</time>
      </trkpt>
      <trkpt lat="43.045833" lon="-4.283517">
        <ele>2331.0</ele>
        <time>2017-05-24T15:16:16Z</time>
      </trkpt>
      <trkpt lat="43.045850" lon="-4.283650">
        <ele>2332.0</ele>
        <time>2017-05-24T15:16:17Z</time>
      </trkpt>
      <trkpt lat="43.045833" lon="-4.283767">
        <ele>2334.0</ele>
        <time>2017-05-24T15:16:18Z</time>
      </trkpt>
      <trkpt lat="43.045783" lon="-4.283883">
        <ele>2334.0</ele>
        <time>2017-05-24T15:16:19Z</time>
      </trkpt>
      <trkpt lat="43.045717" lon="-4.283967">
        <ele>2334.0</ele>
        <time>2017-05-24T15:16:20Z</time>
      </trkpt>
      <trkpt lat="43.045633" lon="-4.284017">
        <ele>2335.0</ele>
        <time>2017-05-24T15:16:21Z</time>
      </trkpt>
      <trkpt lat="43.045550" lon="-4.284017">
        <ele>2336.0</ele>
        <time>2017-05-24T15:16:22Z</time>
      </trkpt>
      <trkpt lat="43.045500" lon="-4.283967">
        <ele>2338.0</ele>
        <time>2017-05-24T15:16:23Z</time>
      </trkpt>
      <trkpt lat="43.045467" lon="-4.283900">
        <ele>2340.0</ele>
        <time>2017-05-24T15:16:24Z</time>
      </trkpt>
      <trkpt lat="43.045467" lon="-4.283817">
        <ele>2341.0</ele>
        <time>2017-05-24T15:16:25Z</time>
      </trkpt>
      <trkpt lat="43.045500" lon="-4.283733">
        <ele>2343.0</ele>
        <time>2017-05-24T15:16:26Z</time>
      </trkpt>
      <trkpt lat="43.045550" lon="-4.283667">
        <ele>2345.0</ele>
        <time>2017-05-24T15:16:27Z</time>
      </trkpt>
      <trkpt lat="43.045617" lon="-4.283633">
        <ele>2347.0</ele>
        <time>2017-05-24T15:16:28Z</time>
      </trkpt>
      <trkpt lat="43.045700" lon="-4.283600">
        <ele>2350.0</ele>
        <time>2017-05-24T15:16:29Z</time>
      </trkpt>
      <trkpt lat="43.045783" lon="-4.283617">
        <ele>2351.0</ele>
        <time>2017-05-24T15:16:30Z</time>
      </trkpt>
      <trkpt lat="43.045867" lon="-4.283667">
        <ele>2353.0</ele>
        <time>2017-05-24T15:16:31Z</time>
      </trkpt>
      <trkpt lat="43.045967" lon="-4.283733">
        <ele>2354.0</ele>
        <time>2017-05-24T15:16:32Z</time>
      </trkpt>
      <trkpt lat="43.046033" lon="-4.283833">
        <ele>2357.0</ele>
        <time>2017-05-24T15:16:33Z</time>
      </trkpt>
      <trkpt lat="43.046083" lon="-4.283933">
        <ele>2359.0</ele>
        <time>2017-05-24T15:16:34Z</time>
      </trkpt>
      <trkpt lat="43.046117" lon="-4.284033">
        <ele>2360.0</ele>
        <time>2017-05-24T15:16:35Z</time>
      </trkpt>
      <trkpt lat="43.046133" lon="-4.284150">
        <ele>2362.0</ele>
        <time>2017-05-24T15:16:36Z</time>
      </trkpt>
      <trkpt lat="43.046133" lon="-4.284267">
        <ele>2362.0</ele>
        <time>2017-05-24T15:16:37Z</time>
      </trkpt>
      <trkpt lat="43.046117" lon="-4.284383">
        <ele>2361.0</ele>
        <time>2017-05-24T15:16:38Z</time>
      </trkpt>
      <trkpt lat="43.046067" lon="-4.284500">
        <ele>2361.0</ele>
        <time>2017-05-24T15:16:39Z</time>
      </trkpt>
      <trkpt lat="43.046000" lon="-4.284583">
        <ele>2362.0</ele>
        <time>2017-05-24T15:16:40Z</time>
      </trkpt>
      <trkpt lat="43.045933" lon="-4.284667">
        <ele>2363.0</ele>
        <time>2017-05-24T15:16:41Z</time>
      </trkpt>
      <trkpt lat="43.045883" lon="-4.284733">
        <ele>2365.0</ele>
        <time>2017-05-24T15:16:42Z</time>
      </trkpt>
      <trkpt lat="43.045817" lon="-4.284783">
        <ele>2366.0</ele>
        <time>2017-05-24T15:16:43Z</time>
      </trkpt>
      <trkpt lat="43.045750" lon="-4.284817">
        <ele>2368.0</ele>
        <time>2017-05-24T15:16:44Z</time>
      </trkpt>
      <trkpt lat="43.045667" lon="-4.284833">
        <ele>2370.0</ele>
        <time>2017-05-24T15:16:45Z</time>
      </trkpt>
      <trkpt lat="43.045600" lon="-4.284833">
        <ele>2373.0</ele>
        <time>2017-05-24T15:16:46Z</time>
      </trkpt>
      <trkpt lat="43.045533" lon="-4.284817">
        <ele>2376.0</ele>
        <time>2017-05-24T15:16:47Z</time>
      </trkpt>
      <trkpt lat="43.045467" lon="-4.284783">
        <ele>2380.0</ele>
        <time>2017-05-24T15:16:48Z</time>
      </trkpt>
      <trkpt lat="43.045433" lon="-4.284750">
        <ele>2383.0</ele>
        <time>2017-05-24T15:16:49Z</time>
      </trkpt>
      <trkpt lat="43.045383" lon="-4.284700">
        <ele>2385.0</ele>
        <time>2017-05-24T15:16:50Z</time>
      </trkpt>
      <trkpt lat="43.045350" lon="-4.284633">
        <ele>2387.0</ele>
        <time>2017-05-24T15:16:51Z</time>
      </trkpt>
      <trkpt lat="43.045333" lon="-4.284567">
        <ele>2389.0</ele>
        <time>2017-05-24T15:16:52Z</time>
      </trkpt>
      <trkpt lat="43.045367" lon="-4.284500">
        <ele>2390.0</ele>
        <time>2017-05-24T15:16:53Z</time>
      </trkpt>
      <trkpt lat="43.045417" lon="-4.284433">
        <ele>2391.0</ele>
        <time>2017-05-24T15:16:54Z</time>
      </trkpt>
      <trkpt lat="43.045483" lon="-4.284383">
        <ele>2393.0</ele>
        <time>2017-05-24T15:16:55Z</time>
      </trkpt>
      <trkpt lat="43.045567" lon="-4.284367">
        <ele>2395.0</ele>
        <time>2017-05-24T15:16:56Z</time>
      </trkpt>
      <trkpt lat="43.045650" lon="-4.284367">
        <ele>2397.0</ele>
        <time>2017-05-24T15:16:57Z</time>
      </trkpt>
      <trkpt lat="43.045717" lon="-4.284383">
        <ele>2399.0</ele>
        <time>2017-05-24T15:16:58Z</time>
      </trkpt>
      <trkpt lat="43.045783" lon="-4.284433">
        <ele>2400.0</ele>
        <time>2017-05-24T15:16:59Z</time>
      </trkpt>
      <trkpt lat="43.045850" lon="-4.284517">
        <ele>2401.0</ele>
        <time>2017-05-24T15:17:00Z</time>
      </trkpt>
      <trkpt lat="43.045900" lon="-4.284633">
        <ele>2403.0</ele>
        <time>2017-05-24T15:17:01Z</time>
      </trkpt>
      <trkpt lat="43.045900" lon="-4.284750">
        <ele>2406.0</ele>
        <time>2017-05-24T15:17:02Z</time>
      </trkpt>
      <trkpt lat="43.045900" lon="-4.284850">
        <ele>2410.0</ele>
        <time>2017-05-24T15:17:03Z</time>
      </trkpt>
      <trkpt lat="43.045883" lon="-4.284950">
        <ele>2413.0</ele>
        <time>2017-05-24T15:17:04Z</time>
      </trkpt>
      <trkpt lat="43.045850" lon="-4.285033">
        <ele>2415.0</ele>
        <time>2017-05-24T15:17:05Z</time>
      </trkpt>
      <trkpt lat="43.045817" lon="-4.285133">
        <ele>2416.0</ele>
        <time>2017-05-24T15:17:06Z</time>
      </trkpt>
      <trkpt lat="43.045767" lon="-4.285250">
        <ele>2417.0</ele>
        <time>2017-05-24T15:17:07Z</time>
      </trkpt>
      <trkpt lat="43.045700" lon="-4.285367">
        <ele>2418.0</ele>
        <time>2017-05-24T15:17:08Z</time>
      </trkpt>
      <trkpt lat="43.045633" lon="-4.285467">
        <ele>2421.0</ele>
        <time>2017-05-24T15:17:09Z</time>
      </trkpt>
      <trkpt lat="43.045550" lon="-4.285517">
        <ele>2425.0</ele>
        <time>2017-05-24T15:17:10Z</time>
      </trkpt>
      <trkpt lat="43.045483" lon="-4.285517">
        <ele>2429.0</ele>
        <time>2017-05-24T15:17:11Z</time>
      </trkpt>
      <trkpt lat="43.045417" lon="-4.285517">
        <ele>2431.0</ele>
        <time>2017-05-24T15:17:12Z</time>
      </trkpt>
      <trkpt lat="43.045333" lon="-4.285500">
        <ele>2433.0</ele>
        <time>2017-05-24T15:17:13Z</time>
      </trkpt>
      <trkpt lat="43.045267" lon="-4.285467">
        <ele>2434.0</ele>
        <time>2017-05-24T15:17:14Z</time>
      </trkpt>
      <trkpt lat="43.045183" lon="-4.285433">
        <ele>2435.0</ele>
        <time>2017-05-24T15:17:15Z</time>
      </trkpt>
      <trkpt lat="43.045133" lon="-4.285350">
        <ele>2437.0</ele>
        <time>2017-05-24T15:17:16Z</time>
      </trkpt>
      <trkpt lat="43.045117" lon="-4.285267">
        <ele>2437.0</ele>
        <time>2017-05-24T15:17:17Z</time>
      </trkpt>
      <trkpt lat="43.045133" lon="-4.285150">
        <ele>2437.0</ele>
        <time>2017-05-24T15:17:18Z</time>
      </trkpt>
      <trkpt lat="43.045183" lon="-4.285050">
        <ele>2438.0</ele>
        <time>2017-05-24T15:17:19Z</time>
      </trkpt>
      <trkpt lat="43.045233" lon="-4.284967">
        <ele>2440.0</ele>
        <time>2017-05-24T15:17:20Z</time>
      </trkpt>
      <trkpt lat="43.045300" lon="-4.284917">
        <ele>2442.0</ele>
        <time>2017-05-24T15:17:21Z</time>
      </trkpt>
      <trkpt lat="43.045367" lon="-4.284867">
        <ele>2443.0</ele>
        <time>2017-05-24T15:17:22Z</time>
      </trkpt>
      <trkpt lat="43.045433" lon="-4.284833">
        <ele>2444.0</ele>
        <time>2017-05-24T15:17:23Z</time>
      </trkpt>
      <trkpt lat="43.045517" lon="-4.284783">
        <ele>2445.0</ele>
        <time>2017-05-24T15:17:24Z</time>
      </trkpt>
      <trkpt lat="43.045600" lon="-4.284750">
        <ele>2448.0</ele>
        <time>2017-05-24T15:17:25Z</time>
      </trkpt>
      <trkpt lat="43.045667" lon="-4.284717">
        <ele>2451.0</ele>
        <time>2017-05-24T15:17:26Z</time>
      </trkpt>
      <trkpt lat="43.045750" lon="-4.284733">
        <ele>2454.0</ele>
        <time>2017-05-24T15:17:27Z</time>
      </trkpt>
      <trkpt lat="43.045800" lon="-4.284767">
        <ele>2457.0</ele>
        <time>2017-05-24T15:17:28Z</time>
      </trkpt>
      <trkpt lat="43.045850" lon="-4.284783">
        <ele>2458.0</ele>
        <time>2017-05-24T15:17:29Z</time>
      </trkpt>
      <trkpt lat="43.045900" lon="-4.284800">
        <ele>2460.0</ele>
        <time>2017-05-24T15:17:30Z</time>
      </trkpt>
      <trkpt lat="43.045967" lon="-4.284833">
        <ele>2460.0</ele>
        <time>2017-05-24T15:17:31Z</time>
      </trkpt>
      <trkpt lat="43.046017" lon="-4.284900">
        <ele>2461.0</ele>
        <time>2017-05-24T15:17:32Z</time>
      </trkpt>
      <trkpt lat="43.046067" lon="-4.285000">
        <ele>2461.0</ele>
        <time>2017-05-24T15:17:33Z</time>
      </trkpt>
      <trkpt lat="43.046083" lon="-4.285117">
        <ele>2462.0</ele>
        <time>2017-05-24T15:17:34Z</time>
      </trkpt>
      <trkpt lat="43.046083" lon="-4.285233">
        <ele>2463.0</ele>
        <time>2017-05-24T15:17:35Z</time>
      </trkpt>
      <trkpt lat="43.046067" lon="-4.285350">
        <ele>2465.0</ele>
        <time>2017-05-24T15:17:36Z</time>
      </trkpt>
      <trkpt lat="43.046067" lon="-4.285467">
        <ele>2467.0</ele>
        <time>2017-05-24T15:17:37Z</time>
      </trkpt>
      <trkpt lat="43.046050" lon="-4.285567">
        <ele>2470.0</ele>
        <time>2017-05-24T15:17:38Z</time>
      </trkpt>
      <trkpt lat="43.046017" lon="-4.285667">
        <ele>2472.0</ele>
        <time>2017-05-24T15:17:39Z</time>
      </trkpt>
      <trkpt lat="43.045967" lon="-4.285733">
        <ele>2474.0</ele>
        <time>2017-05-24T15:17:40Z</time>
      </trkpt>
      <trkpt lat="43.045900" lon="-4.285800">
        <ele>2475.0</ele>
        <time>2017-05-24T15:17:41Z</time>
      </trkpt>
      <trkpt lat="43.045833" lon="-4.285850">
        <ele>2477.0</ele>
        <time>2017-05-24T15:17:42Z</time>
      </trkpt>
      <trkpt lat="43.045750" lon="-4.285883">
        <ele>2480.0</ele>
        <time>2017-05-24T15:17:43Z</time>
      </trkpt>
      <trkpt lat="43.045700" lon="-4.285867">
        <ele>2482.0</ele>
        <time>2017-05-24T15:17:44Z</time>
      </trkpt>
      <trkpt lat="43.045633" lon="-4.285850">
        <ele>2485.0</ele>
        <time>2017-05-24T15:17:45Z</time>
      </trkpt>
      <trkpt lat="43.045583" lon="-4.285833">
        <ele>2486.0</ele>
        <time>2017-05-24T15:17:46Z</time>
      </trkpt>
      <trkpt lat="43.045517" lon="-4.285783">
        <ele>2488.0</ele>
        <time>2017-05-24T15:17:47Z</time>
      </trkpt>
      <trkpt lat="43.045450" lon="-4.285733">
        <ele>2490.0</ele>
        <time>2017-05-24T15:17:48Z</time>
      </trkpt>
      <trkpt lat="43.045400" lon="-4.285667">
        <ele>2492.0</ele>
        <time>2017-05-24T15:17:49Z</time>
      </trkpt>
      <trkpt lat="43.045400" lon="-4.285583">
        <ele>2492.0</ele>
        <time>2017-05-24T15:17:50Z</time>
      </trkpt>
      <trkpt lat="43.045433" lon="-4.285483">
        <ele>2490.0</ele>
        <time>2017-05-24T15:17:51Z</time>
      </trkpt>
      <trkpt lat="43.045483" lon="-4.285367">
        <ele>2489.0</ele>
        <time>2017-05-24T15:17:52Z</time>
      </trkpt>
      <trkpt lat="43.045533" lon="-4.285267">
        <ele>2490.0</ele>
        <time>2017-05-24T15:17:53Z</time>
      </trkpt>
      <trkpt lat="43.045617" lon="-4.285183">
        <ele>2492.0</ele>
        <time>2017-05-24T15:17:54Z</time>
      </trkpt>
      <trkpt lat="43.045683" lon="-4.285117">
        <ele>2494.0</ele>
        <time>2017-05-24T15:17:55Z</time>
      </trkpt>
      <trkpt lat="43.045750" lon="-4.285083">
        <ele>2495.0</ele>
        <time>2017-05-24T15:17:56Z</time>
      </trkpt>
      <trkpt lat="43.045817" lon="-4.285050">
        <ele>2496.0</ele>
        <time>2017-05-24T15:17:57Z</time>
      </trkpt>
      <trkpt lat="43.045883" lon="-4.285050">
        <ele>2496.0</ele>
        <time>2017-05-24T15:17:58Z</time>
      </trkpt>
      <trkpt lat="43.045967" lon="-4.285033">
        <ele>2496.0</ele>
        <time>2017-05-24T15:17:59Z</time>
      </trkpt>
      <trkpt lat="43.046050" lon="-4.285050">
        <ele>2497.0</ele>
        <time>2017-05-24T15:18:00Z</time>
      </trkpt>
      <trkpt lat="43.046150" lon="-4.285067">
        <ele>2498.0</ele>
        <time>2017-05-24T15:18:01Z</time>
      </trkpt>
      <trkpt lat="43.046217" lon="-4.285117">
        <ele>2500.0</ele>
        <time>2017-05-24T15:18:02Z</time>
      </trkpt>
      <trkpt lat="43.046267" lon="-4.285150">
        <ele>2501.0</ele>
        <time>2017-05-24T15:18:03Z</time>
      </trkpt>
      <trkpt lat="43.046333" lon="-4.285183">
        <ele>2502.0</ele>
        <time>2017-05-24T15:18:04Z</time>
      </trkpt>
      <trkpt lat="43.046383" lon="-4.285217">
        <ele>2501.0</ele>
        <time>2017-05-24T15:18:05Z</time>
      </trkpt>
      <trkpt lat="43.046450" lon="-4.285267">
        <ele>2500.0</ele>
        <time>2017-05-24T15:18:06Z</time>
      </trkpt>
      <trkpt lat="43.046500" lon="-4.285333">
        <ele>2500.0</ele>
        <time>2017-05-24T15:18:07Z</time>
      </trkpt>
      <trkpt lat="43.046567" lon="-4.285417">
        <ele>2499.0</ele>
        <time>2017-05-24T15:18:08Z</time>
      </trkpt>
      <trkpt lat="43.046617" lon="-4.285500">
        <ele>2500.0</ele>
        <time>2017-05-24T15:18:09Z</time>
      </trkpt>
      <trkpt lat="43.046667" lon="-4.285567">
        <ele>2501.0</ele>
        <time>2017-05-24T15:18:10Z</time>
      </trkpt>
      <trkpt lat="43.046733" lon="-4.285633">
        <ele>2501.0</ele>
        <time>2017-05-24T15:18:11Z</time>
      </trkpt>
      <trkpt lat="43.046783" lon="-4.285683">
        <ele>2501.0</ele>
        <time>2017-05-24T15:18:12Z</time>
      </trkpt>
      <trkpt lat="43.046850" lon="-4.285733">
        <ele>2501.0</ele>
        <time>2017-05-24T15:18:13Z</time>
      </trkpt>
      <trkpt lat="43.046900" lon="-4.285783">
        <ele>2500.0</ele>
        <time>2017-05-24T15:18:14Z</time>
      </trkpt>
      <trkpt lat="43.046967" lon="-4.285867">
        <ele>2500.0</ele>
        <time>2017-05-24T15:18:15Z</time>
      </trkpt>
      <trkpt lat="43.047033" lon="-4.285950">
        <ele>2501.0</ele>
        <time>2017-05-24T15:18:16Z</time>
      </trkpt>
      <trkpt lat="43.047100" lon="-4.286033">
        <ele>2502.0</ele>
        <time>2017-05-24T15:18:17Z</time>
      </trkpt>
      <trkpt lat="43.047167" lon="-4.286083">
        <ele>2504.0</ele>
        <time>2017-05-24T15:18:18Z</time>
      </trkpt>
      <trkpt lat="43.047217" lon="-4.286150">
        <ele>2505.0</ele>
        <time>2017-05-24T15:18:19Z</time>
      </trkpt>
      <trkpt lat="43.047267" lon="-4.286217">
        <ele>2507.0</ele>
        <time>2017-05-24T15:18:20Z</time>
      </trkpt>
      <trkpt lat="43.047317" lon="-4.286283">
        <ele>2508.0</ele>
        <time>2017-05-24T15:18:21Z</time>
      </trkpt>
      <trkpt lat="43.047367" lon="-4.286350">
        <ele>2509.0</ele>
        <time>2017-05-24T15:18:22Z</time>
      </trkpt>
      <trkpt lat="43.047450" lon="-4.286400">
        <ele>2510.0</ele>
        <time>2017-05-24T15:18:23Z</time>
      </trkpt>
      <trkpt lat="43.047533" lon="-4.286433">
        <ele>2512.0</ele>
        <time>2017-05-24T15:18:24Z</time>
      </trkpt>
      <trkpt lat="43.047617" lon="-4.286417">
        <ele>2514.0</ele>
        <time>2017-05-24T15:18:25Z</time>
      </trkpt>
      <trkpt lat="43.047683" lon="-4.286383">
        <ele>2516.0</ele>
        <time>2017-05-24T15:18:26Z</time>
      </trkpt>
      <trkpt lat="43.047733" lon="-4.286350">
        <ele>2517.0</ele>
        <time>2017-05-24T15:18:27Z</time>
      </trkpt>
      <trkpt lat="43.047783" lon="-4.286317">
        <ele>2517.0</ele>
        <time>2017-05-24T15:18:28Z</time>
      </trkpt>
      <trkpt lat="43.047850" lon="-4.286283">
        <ele>2515.0</ele>
        <time>2017-05-24T15:18:29Z</time>
      </trkpt>
      <trkpt lat="43.047917" lon="-4.286250">
        <ele>2513.0</ele>
        <time>2017-05-24T15:18:30Z</time>
      </trkpt>
      <trkpt lat="43.048000" lon="-4.286217">
        <ele>2511.0</ele>
        <time>2017-05-24T15:18:31Z</time>
      </trkpt>
      <trkpt lat="43.048083" lon="-4.286200">
        <ele>2509.0</ele>
        <time>2017-05-24T15:18:32Z</time>
      </trkpt>
      <trkpt lat="43.048167" lon="-4.286217">
        <ele>2508.0</ele>
        <time>2017-05-24T15:18:33Z</time>
      </trkpt>
      <trkpt lat="43.048267" lon="-4.286250">
        <ele>2507.0</ele>
        <time>2017-05-24T15:18:34Z</time>
      </trkpt>
      <trkpt lat="43.048350" lon="-4.286300">
        <ele>2507.0</ele>
        <time>2017-05-24T15:18:35Z</time>
      </trkpt>
      <trkpt lat="43.048433" lon="-4.286333">
        <ele>2506.0</ele>
        <time>2017-05-24T15:18:36Z</time>
      </trkpt>
      <trkpt lat="43.048533" lon="-4.286367">
        <ele>2506.0</ele>
        <time>2017-05-24T15:18:37Z</time>
      </trkpt>
      <trkpt lat="43.048633" lon="-4.286417">
        <ele>2507.0</ele>
        <time>2017-05-24T15:18:38Z</time>
      </trkpt>
      <trkpt lat="43.048717" lon="-4.286483">
        <ele>2507.0</ele>
        <time>2017-05-24T15:18:39Z</time>
      </trkpt>
      <trkpt lat="43.048800" lon="-4.286567">
        <ele>2509.0</ele>
        <time>2017-05-24T15:18:40Z</time>
      </trkpt>
      <trkpt lat="43.048883" lon="-4.286650">
        <ele>2510.0</ele>
        <time>2017-05-24T15:18:41Z</time>
      </trkpt>
      <trkpt lat="43.048967" lon="-4.286750">
        <ele>2512.0</ele>
        <time>2017-05-24T15:18:42Z</time>
      </trkpt>
      <trkpt lat="43.049033" lon="-4.286833">
        <ele>2515.0</ele>
        <time>2017-05-24T15:18:43Z</time>
      </trkpt>
      <trkpt lat="43.049100" lon="-4.286917">
        <ele>2518.0</ele>
        <time>2017-05-24T15:18:44Z</time>
      </trkpt>
      <trkpt lat="43.049167" lon="-4.287000">
        <ele>2522.0</ele>
        <time>2017-05-24T15:18:45Z</time>
      </trkpt>
      <trkpt lat="43.049200" lon="-4.287083">
        <ele>2525.0</ele>
        <time>2017-05-24T15:18:46Z</time>
      </trkpt>
      <trkpt lat="43.049217" lon="-4.287150">
        <ele>2526.0</ele>
        <time>2017-05-24T15:18:47Z</time>
      </trkpt>
      <trkpt lat="43.049217" lon="-4.287250">
        <ele>2526.0</ele>
        <time>2017-05-24T15:18:48Z</time>
      </trkpt>
      <trkpt lat="43.049217" lon="-4.287367">
        <ele>2526.0</ele>
        <time>2017-05-24T15:18:49Z</time>
      </trkpt>
      <trkpt lat="43.049233" lon="-4.287517">
        <ele>2526.0</ele>
        <time>2017-05-24T15:18:50Z</time>
      </trkpt>
      <trkpt lat="43.049217" lon="-4.287667">
        <ele>2527.0</ele>
        <time>2017-05-24T15:18:51Z</time>
      </trkpt>
      <trkpt lat="43.049183" lon="-4.287783">
        <ele>2530.0</ele>
        <time>2017-05-24T15:18:52Z</time>
      </trkpt>
      <trkpt lat="43.049133" lon="-4.287850">
        <ele>2534.0</ele>
        <time>2017-05-24T15:18:53Z</time>
      </trkpt>
      <trkpt lat="43.049067" lon="-4.287900">
        <ele>2537.0</ele>
        <time>2017-05-24T15:18:54Z</time>
      </trkpt>
      <trkpt lat="43.049033" lon="-4.287917">
        <ele>2541.0</ele>
        <time>2017-05-24T15:18:55Z</time>
      </trkpt>
      <trkpt lat="43.049000" lon="-4.287950">
        <ele>2544.0</ele>
        <time>2017-05-24T15:18:56Z</time>
      </trkpt>
      <trkpt lat="43.048967" lon="-4.287967">
        <ele>2545.0</ele>
        <time>2017-05-24T15:18:57Z</time>
      </trkpt>
      <trkpt lat="43.048917" lon="-4.287950">
        <ele>2545.0</ele>
        <time>2017-05-24T15:18:58Z</time>
      </trkpt>
      <trkpt lat="43.048867" lon="-4.287900">
        <ele>2546.0</ele>
        <time>2017-05-24T15:18:59Z</time>
      </trkpt>
      <trkpt lat="43.048833" lon="-4.287833">
        <ele>2547.0</ele>
        <time>2017-05-24T15:19:00Z</time>
      </trkpt>
      <trkpt lat="43.048800" lon="-4.287750">
        <ele>2549.0</ele>
        <time>2017-05-24T15:19:01Z</time>
      </trkpt>
      <trkpt lat="43.048783" lon="-4.287683">
        <ele>2552.0</ele>
        <time>2017-05-24T15:19:02Z</time>
      </trkpt>
      <trkpt lat="43.048783" lon="-4.287633">
        <ele>2553.0</ele>
        <time>2017-05-24T15:19:03Z</time>
      </trkpt>
      <trkpt lat="43.048783" lon="-4.287567">
        <ele>2554.0</ele>
        <time>2017-05-24T15:19:04Z</time>
      </trkpt>
      <trkpt lat="43.048783" lon="-4.287500">
        <ele>2555.0</ele>
        <time>2017-05-24T15:19:05Z</time>
      </trkpt>
      <trkpt lat="43.048800" lon="-4.287433">
        <ele>2554.0</ele>
        <time>2017-05-24T15:19:06Z</time>
      </trkpt>
      <trkpt lat="43.048800" lon="-4.287367">
        <ele>2553.0</ele>
        <time>2017-05-24T15:19:07Z</time>
      </trkpt>
      <trkpt lat="43.048833" lon="-4.287283">
        <ele>2552.0</ele>
        <time>2017-05-24T15:19:08Z</time>
      </trkpt>
      <trkpt lat="43.048883" lon="-4.287183">
        <ele>2551.0</ele>
        <time>2017-05-24T15:19:09Z</time>
      </trkpt>
      <trkpt lat="43.048950" lon="-4.287117">
        <ele>2550.0</ele>
        <time>2017-05-24T15:19:10Z</time>
      </trkpt>
      <trkpt lat="43.049033" lon="-4.287083">
        <ele>2551.0</ele>
        <time>2017-05-24T15:19:11Z</time>
      </trkpt>
      <trkpt lat="43.049133" lon="-4.287050">
        <ele>2551.0</ele>
        <time>2017-05-24T15:19:12Z</time>
      </trkpt>
      <trkpt lat="43.049217" lon="-4.287033">
        <ele>2552.0</ele>
        <time>2017-05-24T15:19:13Z</time>
      </trkpt>
      <trkpt lat="43.049283" lon="-4.287017">
        <ele>2554.0</ele>
        <time>2017-05-24T15:19:14Z</time>
      </trkpt>
      <trkpt lat="43.049367" lon="-4.287000">
        <ele>2555.0</ele>
        <time>2017-05-24T15:19:15Z</time>
      </trkpt>
      <trkpt lat="43.049450" lon="-4.287000">
        <ele>2555.0</ele>
        <time>2017-05-24T15:19:16Z</time>
      </trkpt>
      <trkpt lat="43.049550" lon="-4.287017">
        <ele>2554.0</ele>
        <time>2017-05-24T15:19:17Z</time>
      </trkpt>
      <trkpt lat="43.049633" lon="-4.287017">
        <ele>2554.0</ele>
        <time>2017-05-24T15:19:18Z</time>
      </trkpt>
      <trkpt lat="43.049733" lon="-4.287050">
        <ele>2555.0</ele>
        <time>2017-05-24T15:19:19Z</time>
      </trkpt>
      <trkpt lat="43.049833" lon="-4.287083">
        <ele>2557.0</ele>
        <time>2017-05-24T15:19:20Z</time>
      </trkpt>
      <trkpt lat="43.049917" lon="-4.287100">
        <ele>2559.0</ele>
        <time>2017-05-24T15:19:21Z</time>
      </trkpt>
      <trkpt lat="43.050000" lon="-4.287133">
        <ele>2561.0</ele>
        <time>2017-05-24T15:19:22Z</time>
      </trkpt>
      <trkpt lat="43.050083" lon="-4.287167">
        <ele>2562.0</ele>
        <time>2017-05-24T15:19:23Z</time>
      </trkpt>
      <trkpt lat="43.050150" lon="-4.287217">
        <ele>2563.0</ele>
        <time>2017-05-24T15:19:24Z</time>
      </trkpt>
      <trkpt lat="43.050233" lon="-4.287267">
        <ele>2564.0</ele>
        <time>2017-05-24T15:19:25Z</time>
      </trkpt>
      <trkpt lat="43.050283" lon="-4.287367">
        <ele>2563.0</ele>
        <time>2017-05-24T15:19:26Z</time>
      </trkpt>
      <trkpt lat="43.050350" lon="-4.287483">
        <ele>2563.0</ele>
        <time>2017-05-24T15:19:27Z</time>
      </trkpt>
      <trkpt lat="43.050383" lon="-4.287600">
        <ele>2564.0</ele>
        <time>2017-05-24T15:19:28Z</time>
      </trkpt>
      <trkpt lat="43.050433" lon="-4.287717">
        <ele>2565.0</ele>
        <time>2017-05-24T15:19:29Z</time>
      </trkpt>
      <trkpt lat="43.050467" lon="-4.287817">
        <ele>2566.0</ele>
        <time>2017-05-24T15:19:30Z</time>
      </trkpt>
      <trkpt lat="43.050483" lon="-4.287917">
        <ele>2566.0</ele>
        <time>2017-05-24T15:19:31Z</time>
      </trkpt>
      <trkpt lat="43.050483" lon="-4.288000">
        <ele>2566.0</ele>
        <time>2017-05-24T15:19:32Z</time>
      </trkpt>
      <trkpt lat="43.050467" lon="-4.288083">
        <ele>2566.0</ele>
        <time>2017-05-24T15:19:33Z</time>
      </trkpt>
      <trkpt lat="43.050433" lon="-4.288150">
        <ele>2566.0</ele>
        <time>2017-05-24T15:19:34Z</time>
      </trkpt>
      <trkpt lat="43.050400" lon="-4.288200">
        <ele>2565.0</ele>
        <time>2017-05-24T15:19:35Z</time>
      </trkpt>
      <trkpt lat="43.050350" lon="-4.288233">
        <ele>2565.0</ele>
        <time>2017-05-24T15:19:36Z</time>
      </trkpt>
      <trkpt lat="43.050300" lon="-4.288250">
        <ele>2564.0</ele>
        <time>2017-05-24T15:19:37Z</time>
      </trkpt>
      <trkpt lat="43.050250" lon="-4.288250">
        <ele>2565.0</ele>
        <time>2017-05-24T15:19:38Z</time>
      </trkpt>
      <trkpt lat="43.050217" lon="-4.288250">
        <ele>2565.0</ele>
        <time>2017-05-24T15:19:39Z</time>
      </trkpt>
      <trkpt lat="43.050200" lon="-4.288217">
        <ele>2565.0</ele>
        <time>2017-05-24T15:19:40Z</time>
      </trkpt>
      <trkpt lat="43.050167" lon="-4.288183">
        <ele>2564.0</ele>
        <time>2017-05-24T15:19:41Z</time>
      </trkpt>
      <trkpt lat="43.050150" lon="-4.288117">
        <ele>2562.0</ele>
        <time>2017-05-24T15:19:42Z</time>
      </trkpt>
      <trkpt lat="43.050150" lon="-4.288033">
        <ele>2561.0</ele>
        <time>2017-05-24T15:19:43Z</time>
      </trkpt>
      <trkpt lat="43.050150" lon="-4.287950">
        <ele>2561.0</ele>
        <time>2017-05-24T15:19:44Z</time>
      </trkpt>
      <trkpt lat="43.050183" lon="-4.287867">
        <ele>2561.0</ele>
        <time>2017-05-24T15:19:45Z</time>
      </trkpt>
      <trkpt lat="43.050217" lon="-4.287783">
        <ele>2561.0</ele>
        <time>2017-05-24T15:19:46Z</time>
      </trkpt>
      <trkpt lat="43.050267" lon="-4.287717">
        <ele>2562.0</ele>
        <time>2017-05-24T15:19:47Z</time>
      </trkpt>
      <trkpt lat="43.050317" lon="-4.287667">
        <ele>2562.0</ele>
        <time>2017-05-24T15:19:48Z</time>
      </trkpt>
      <trkpt lat="43.050367" lon="-4.287633">
        <ele>2562.0</ele>
        <time>2017-05-24T15:19:49Z</time>
      </trkpt>
      <trkpt lat="43.050450" lon="-4.287600">
        <ele>2561.0</ele>
        <time>2017-05-24T15:19:50Z</time>
      </trkpt>
      <trkpt lat="43.050550" lon="-4.287583">
        <ele>2559.0</ele>
        <time>2017-05-24T15:19:51Z</time>
      </trkpt>
      <trkpt lat="43.050667" lon="-4.287600">
        <ele>2558.0</ele>
        <time>2017-05-24T15:19:52Z</time>
      </trkpt>
      <trkpt lat="43.050800" lon="-4.287633">
        <ele>2557.0</ele>
        <time>2017-05-24T15:19:53Z</time>
      </trkpt>
      <trkpt lat="43.050917" lon="-4.287683">
        <ele>2558.0</ele>
        <time>2017-05-24T15:19:54Z</time>
      </trkpt>
      <trkpt lat="43.051033" lon="-4.287717">
        <ele>2559.0</ele>
        <time>2017-05-24T15:19:55Z</time>
      </trkpt>
      <trkpt lat="43.051133" lon="-4.287733">
        <ele>2560.0</ele>
        <time>2017-05-24T15:19:56Z</time>
      </trkpt>
      <trkpt lat="43.051233" lon="-4.287767">
        <ele>2559.0</ele>
        <time>2017-05-24T15:19:57Z</time>
      </trkpt>
      <trkpt lat="43.051350" lon="-4.287800">
        <ele>2558.0</ele>
        <time>2017-05-24T15:19:58Z</time>
      </trkpt>
      <trkpt lat="43.051467" lon="-4.287867">
        <ele>2556.0</ele>
        <time>2017-05-24T15:19:59Z</time>
      </trkpt>
      <trkpt lat="43.051583" lon="-4.287950">
        <ele>2555.0</ele>
        <time>2017-05-24T15:20:00Z</time>
      </trkpt>
      <trkpt lat="43.051700" lon="-4.288050">
        <ele>2555.0</ele>
        <time>2017-05-24T15:20:01Z</time>
      </trkpt>
      <trkpt lat="43.051800" lon="-4.288150">
        <ele>2556.0</ele>
        <time>2017-05-24T15:20:02Z</time>
      </trkpt>
      <trkpt lat="43.051900" lon="-4.288233">
        <ele>2557.0</ele>
        <time>2017-05-24T15:20:03Z</time>
      </trkpt>
      <trkpt lat="43.051983" lon="-4.288317">
        <ele>2558.0</ele>
        <time>2017-05-24T15:20:04Z</time>
      </trkpt>
      <trkpt lat="43.052083" lon="-4.288383">
        <ele>2559.0</ele>
        <time>2017-05-24T15:20:05Z</time>
      </trkpt>
      <trkpt lat="43.052150" lon="-4.288467">
        <ele>2559.0</ele>
        <time>2017-05-24T15:20:06Z</time>
      </trkpt>
      <trkpt lat="43.052217" lon="-4.288550">
        <ele>2559.0</ele>
        <time>2017-05-24T15:20:07Z</time>
      </trkpt>
      <trkpt lat="43.052283" lon="-4.288633">
        <ele>2559.0</ele>
        <time>2017-05-24T15:20:08Z</time>
      </trkpt>
      <trkpt lat="43.052317" lon="-4.288750">
        <ele>2560.0</ele>
        <time>2017-05-24T15:20:09Z</time>
      </trkpt>
      <trkpt lat="43.052367" lon="-4.288867">
        <ele>2560.0</ele>
        <time>2017-05-24T15:20:10Z</time>
      </trkpt>
      <trkpt lat="43.052400" lon="-4.289000">
        <ele>2561.0</ele>
        <time>2017-05-24T15:20:11Z</time>
      </trkpt>
      <trkpt lat="43.052450" lon="-4.289117">
        <ele>2563.0</ele>
        <time>2017-05-24T15:20:12Z</time>
      </trkpt>
      <trkpt lat="43.052500" lon="-4.289233">
        <ele>2565.0</ele>
        <time>2017-05-24T15:20:13Z</time>
      </trkpt>
      <trkpt lat="43.052533" lon="-4.289350">
        <ele>2566.0</ele>
        <time>2017-05-24T15:20:14Z</time>
      </trkpt>
      <trkpt lat="43.052550" lon="-4.289483">
        <ele>2567.0</ele>
        <time>2017-05-24T15:20:15Z</time>
      </trkpt>
      <trkpt lat="43.052583" lon="-4.289600">
        <ele>2568.0</ele>
        <time>2017-05-24T15:20:16Z</time>
      </trkpt>
      <trkpt lat="43.052583" lon="-4.289717">
        <ele>2568.0</ele>
        <time>2017-05-24T15:20:17Z</time>
      </trkpt>
      <trkpt lat="43.052600" lon="-4.289850">
        <ele>2569.0</ele>
        <time>2017-05-24T15:20:18Z</time>
      </trkpt>
      <trkpt lat="43.052617" lon="-4.289950">
        <ele>2570.0</ele>
        <time>2017-05-24T15:20:19Z</time>
      </trkpt>
      <trkpt lat="43.052617" lon="-4.290050">
        <ele>2571.0</ele>
        <time>2017-05-24T15:20:20Z</time>
      </trkpt>
      <trkpt lat="43.052617" lon="-4.290133">
        <ele>2571.0</ele>
        <time>2017-05-24T15:20:21Z</time>
      </trkpt>
      <trkpt lat="43.052617" lon="-4.290217">
        <ele>2571.0</ele>
        <time>2017-05-24T15:20:22Z</time>
      </trkpt>
      <trkpt lat="43.052600" lon="-4.290300">
        <ele>2572.0</ele>
        <time>2017-05-24T15:20:23Z</time>
      </trkpt>
      <trkpt lat="43.052583" lon="-4.290350">
        <ele>2573.0</ele>
        <time>2017-05-24T15:20:24Z</time>
      </trkpt>
      <trkpt lat="43.052567" lon="-4.290383">
        <ele>2574.0</ele>
        <time>2017-05-24T15:20:25Z</time>
      </trkpt>
      <trkpt lat="43.052550" lon="-4.290383">
        <ele>2574.0</ele>
        <time>2017-05-24T15:20:26Z</time>
      </trkpt>
      <trkpt lat="43.052550" lon="-4.290350">
        <ele>2574.0</ele>
        <time>2017-05-24T15:20:27Z</time>
      </trkpt>
      <trkpt lat="43.052533" lon="-4.290333">
        <ele>2574.0</ele>
        <time>2017-05-24T15:20:28Z</time>
      </trkpt>
      <trkpt lat="43.052500" lon="-4.290333">
        <ele>2573.0</ele>
        <time>2017-05-24T15:20:29Z</time>
      </trkpt>
      <trkpt lat="43.052467" lon="-4.290333">
        <ele>2574.0</ele>
        <time>2017-05-24T15:20:30Z</time>
      </trkpt>
      <trkpt lat="43.052433" lon="-4.290333">
        <ele>2574.0</ele>
        <time>2017-05-24T15:20:31Z</time>
      </trkpt>
      <trkpt lat="43.052417" lon="-4.290317">
        <ele>2574.0</ele>
        <time>2017-05-24T15:20:32Z</time>
      </trkpt>
      <trkpt lat="43.052417" lon="-4.290267">
        <ele>2574.0</ele>
        <time>2017-05-24T15:20:33Z</time>
      </trkpt>
      <trkpt lat="43.052417" lon="-4.290200">
        <ele>2574.0</ele>
        <time>2017-05-24T15:20:34Z</time>
      </trkpt>
      <trkpt lat="43.052467" lon="-4.290133">
        <ele>2574.0</ele>
        <time>2017-05-24T15:20:35Z</time>
      </trkpt>
      <trkpt lat="43.052533" lon="-4.290067">
        <ele>2574.0</ele>
        <time>2017-05-24T15:20:36Z</time>
      </trkpt>
      <trkpt lat="43.052633" lon="-4.290017">
        <ele>2574.0</ele>
        <time>2017-05-24T15:20:37Z</time>
      </trkpt>
      <trkpt lat="43.052717" lon="-4.289983">
        <ele>2575.0</ele>
        <time>2017-05-24T15:20:38Z</time>
      </trkpt>
      <trkpt lat="43.052817" lon="-4.289967">
        <ele>2575.0</ele>
        <time>2017-05-24T15:20:39Z</time>
      </trkpt>
      <trkpt lat="43.052917" lon="-4.289950">
        <ele>2574.0</ele>
        <time>2017-05-24T15:20:40Z</time>
      </trkpt>
      <trkpt lat="43.053033" lon="-4.289933">
        <ele>2572.0</ele>
        <time>2017-05-24T15:20:41Z</time>
      </trkpt>
      <trkpt lat="43.053167" lon="-4.289950">
        <ele>2571.0</ele>
        <time>2017-05-24T15:20:42Z</time>
      </trkpt>
      <trkpt lat="43.053317" lon="-4.289983">
        <ele>2570.0</ele>
        <time>2017-05-24T15:20:43Z</time>
      </trkpt>
      <trkpt lat="43.053450" lon="-4.290033">
        <ele>2570.0</ele>
        <time>2017-05-24T15:20:44Z</time>
      </trkpt>
      <trkpt lat="43.053567" lon="-4.290083">
        <ele>2571.0</ele>
        <time>2017-05-24T15:20:45Z</time>
      </trkpt>
      <trkpt lat="43.053683" lon="-4.290117">
        <ele>2572.0</ele>
        <time>2017-05-24T15:20:46Z</time>
      </trkpt>
      <trkpt lat="43.053783" lon="-4.290150">
        <ele>2572.0</ele>
        <time>2017-05-24T15:20:47Z</time>
      </trkpt>
      <trkpt lat="43.053900" lon="-4.290183">
        <ele>2572.0</ele>
        <time>2017-05-24T15:20:48Z</time>
      </trkpt>
      <trkpt lat="43.054017" lon="-4.290250">
        <ele>2571.0</ele>
        <time>2017-05-24T15:20:49Z</time>
      </trkpt>
      <trkpt lat="43.054133" lon="-4.290317">
        <ele>2570.0</ele>
        <time>2017-05-24T15:20:50Z</time>
      </trkpt>
      <trkpt lat="43.054267" lon="-4.290400">
        <ele>2570.0</ele>
        <time>2017-05-24T15:20:51Z</time>
      </trkpt>
      <trkpt lat="43.054367" lon="-4.290500">
        <ele>2571.0</ele>
        <time>2017-05-24T15:20:52Z</time>
      </trkpt>
      <trkpt lat="43.054467" lon="-4.290617">
        <ele>2572.0</ele>
        <time>2017-05-24T15:20:53Z</time>
      </trkpt>
      <trkpt lat="43.054550" lon="-4.290717">
        <ele>2573.0</ele>
        <time>2017-05-24T15:20:54Z</time>
      </trkpt>
      <trkpt lat="43.054617" lon="-4.290850">
        <ele>2573.0</ele>
        <time>2017-05-24T15:20:55Z</time>
      </trkpt>
      <trkpt lat="43.054700" lon="-4.290967">
        <ele>2572.0</ele>
        <time>2017-05-24T15:20:56Z</time>
      </trkpt>
      <trkpt lat="43.054783" lon="-4.291100">
        <ele>2571.0</ele>
        <time>2017-05-24T15:20:57Z</time>
      </trkpt>
      <trkpt lat="43.054850" lon="-4.291217">
        <ele>2571.0</ele>
        <time>2017-05-24T15:20:58Z</time>
      </trkpt>
      <trkpt lat="43.054900" lon="-4.291317">
        <ele>2571.0</ele>
        <time>2017-05-24T15:20:59Z</time>
      </trkpt>
      <trkpt lat="43.054950" lon="-4.291417">
        <ele>2571.0</ele>
        <time>2017-05-24T15:21:00Z</time>
      </trkpt>
      <trkpt lat="43.055000" lon="-4.291533">
        <ele>2570.0</ele>
        <time>2017-05-24T15:21:01Z</time>
      </trkpt>
      <trkpt lat="43.055050" lon="-4.291650">
        <ele>2569.0</ele>
        <time>2017-05-24T15:21:02Z</time>
      </trkpt>
      <trkpt lat="43.055100" lon="-4.291800">
        <ele>2567.0</ele>
        <time>2017-05-24T15:21:03Z</time>
      </trkpt>
      <trkpt lat="43.055117" lon="-4.291933">
        <ele>2567.0</ele>
        <time>2017-05-24T15:21:04Z</time>
      </trkpt>
      <trkpt lat="43.055133" lon="-4.292083">
        <ele>2567.0</ele>
        <time>2017-05-24T15:21:05Z</time>
      </trkpt>
      <trkpt lat="43.055150" lon="-4.292200">
        <ele>2569.0</ele>
        <time>2017-05-24T15:21:06Z</time>
      </trkpt>
      <trkpt lat="43.055183" lon="-4.292317">
        <ele>2569.0</ele>
        <time>2017-05-24T15:21:07Z</time>
      </trkpt>
      <trkpt lat="43.055233" lon="-4.292417">
        <ele>2568.0</ele>
        <time>2017-05-24T15:21:08Z</time>
      </trkpt>
      <trkpt lat="43.055267" lon="-4.292533">
        <ele>2566.0</ele>
        <time>2017-05-24T15:21:09Z</time>
      </trkpt>
      <trkpt lat="43.055300" lon="-4.292683">
        <ele>2563.0</ele>
        <time>2017-05-24T15:21:10Z</time>
      </trkpt>
      <trkpt lat="43.055333" lon="-4.292833">
        <ele>2561.0</ele>
        <time>2017-05-24T15:21:11Z</time>
      </trkpt>
      <trkpt lat="43.055350" lon="-4.292983">
        <ele>2562.0</ele>
        <time>2017-05-24T15:21:12Z</time>
      </trkpt>
      <trkpt lat="43.055383" lon="-4.293100">
        <ele>2563.0</ele>
        <time>2017-05-24T15:21:13Z</time>
      </trkpt>
      <trkpt lat="43.055433" lon="-4.293200">
        <ele>2563.0</ele>
        <time>2017-05-24T15:21:14Z</time>
      </trkpt>
      <trkpt lat="43.055467" lon="-4.293317">
        <ele>2562.0</ele>
        <time>2017-05-24T15:21:15Z</time>
      </trkpt>
      <trkpt lat="43.055500" lon="-4.293433">
        <ele>2560.0</ele>
        <time>2017-05-24T15:21:16Z</time>
      </trkpt>
      <trkpt lat="43.055500" lon="-4.293550">
        <ele>2557.0</ele>
        <time>2017-05-24T15:21:17Z</time>
      </trkpt>
      <trkpt lat="43.055483" lon="-4.293683">
        <ele>2555.0</ele>
        <time>2017-05-24T15:21:18Z</time>
      </trkpt>
      <trkpt lat="43.055467" lon="-4.293817">
        <ele>2554.0</ele>
        <time>2017-05-24T15:21:19Z</time>
      </trkpt>
      <trkpt lat="43.055467" lon="-4.293950">
        <ele>2553.0</ele>
        <time>2017-05-24T15:21:20Z</time>
      </trkpt>
      <trkpt lat="43.055467" lon="-4.294083">
        <ele>2552.0</ele>
        <time>2017-05-24T15:21:21Z</time>
      </trkpt>
      <trkpt lat="43.055467" lon="-4.294217">
        <ele>2552.0</ele>
        <time>2017-05-24T15:21:22Z</time>
      </trkpt>
      <trkpt lat="43.055467" lon="-4.294350">
        <ele>2551.0</ele>
        <time>2017-05-24T15:21:23Z</time>
      </trkpt>
      <trkpt lat="43.055467" lon="-4.294483">
        <ele>2549.0</ele>
        <time>2017-05-24T15:21:24Z</time>
      </trkpt>
      <trkpt lat="43.055467" lon="-4.294617">
        <ele>2549.0</ele>
        <time>2017-05-24T15:21:25Z</time>
      </trkpt>
      <trkpt lat="43.055483" lon="-4.294733">
        <ele>2549.0</ele>
        <time>2017-05-24T15:21:26Z</time>
      </trkpt>
      <trkpt lat="43.055500" lon="-4.294867">
        <ele>2549.0</ele>
        <time>2017-05-24T15:21:27Z</time>
      </trkpt>
      <trkpt lat="43.055500" lon="-4.294983">
        <ele>2548.0</ele>
        <time>2017-05-24T15:21:28Z</time>
      </trkpt>
      <trkpt lat="43.055500" lon="-4.295100">
        <ele>2548.0</ele>
        <time>2017-05-24T15:21:29Z</time>
      </trkpt>
      <trkpt lat="43.055483" lon="-4.295217">
        <ele>2547.0</ele>
        <time>2017-05-24T15:21:30Z</time>
      </trkpt>
      <trkpt lat="43.055450" lon="-4.295300">
        <ele>2547.0</ele>
        <time>2017-05-24T15:21:31Z</time>
      </trkpt>
      <trkpt lat="43.055417" lon="-4.295367">
        <ele>2549.0</ele>
        <time>2017-05-24T15:21:32Z</time>
      </trkpt>
      <trkpt lat="43.055417" lon="-4.295417">
        <ele>2551.0</ele>
        <time>2017-05-24T15:21:33Z</time>
      </trkpt>
      <trkpt lat="43.055433" lon="-4.295467">
        <ele>2550.0</ele>
        <time>2017-05-24T15:21:34Z</time>
      </trkpt>
      <trkpt lat="43.055433" lon="-4.295533">
        <ele>2548.0</ele>
        <time>2017-05-24T15:21:35Z</time>
      </trkpt>
      <trkpt lat="43.055400" lon="-4.295600">
        <ele>2546.0</ele>
        <time>2017-05-24T15:21:36Z</time>
      </trkpt>
      <trkpt lat="43.055383" lon="-4.295667">
        <ele>2544.0</ele>
        <time>2017-05-24T15:21:37Z</time>
      </trkpt>
      <trkpt lat="43.055350" lon="-4.295750">
        <ele>2544.0</ele>
        <time>2017-05-24T15:21:38Z</time>
      </trkpt>
      <trkpt lat="43.055333" lon="-4.295800">
        <ele>2545.0</ele>
        <time>2017-05-24T15:21:39Z</time>
      </trkpt>
      <trkpt lat="43.055317" lon="-4.295850">
        <ele>2546.0</ele>
        <time>2017-05-24T15:21:40Z</time>
      </trkpt>
      <trkpt lat="43.055317" lon="-4.295900">
        <ele>2547.0</ele>
        <time>2017-05-24T15:21:41Z</time>
      </trkpt>
      <trkpt lat="43.055300" lon="-4.295933">
        <ele>2545.0</ele>
        <time>2017-05-24T15:21:42Z</time>
      </trkpt>
      <trkpt lat="43.055267" lon="-4.296000">
        <ele>2543.0</ele>
        <time>2017-05-24T15:21:43Z</time>
      </trkpt>
      <trkpt lat="43.055233" lon="-4.296067">
        <ele>2542.0</ele>
        <time>2017-05-24T15:21:44Z</time>
      </trkpt>
      <trkpt lat="43.055200" lon="-4.296133">
        <ele>2541.0</ele>
        <time>2017-05-24T15:21:45Z</time>
      </trkpt>
      <trkpt lat="43.055167" lon="-4.296200">
        <ele>2542.0</ele>
        <time>2017-05-24T15:21:46Z</time>
      </trkpt>
      <trkpt lat="43.055167" lon="-4.296250">
        <ele>2542.0</ele>
        <time>2017-05-24T15:21:47Z</time>
      </trkpt>
      <trkpt lat="43.055150" lon="-4.296300">
        <ele>2542.0</ele>
        <time>2017-05-24T15:21:48Z</time>
      </trkpt>
      <trkpt lat="43.055150" lon="-4.296350">
        <ele>2542.0</ele>
        <time>2017-05-24T15:21:49Z</time>
      </trkpt>
      <trkpt lat="43.055133" lon="-4.296383">
        <ele>2541.0</ele>
        <time>2017-05-24T15:21:50Z</time>
      </trkpt>
      <trkpt lat="43.055100" lon="-4.296433">
        <ele>2539.0</ele>
        <time>2017-05-24T15:21:51Z</time>
      </trkpt>
      <trkpt lat="43.055067" lon="-4.296467">
        <ele>2538.0</ele>
        <time>2017-05-24T15:21:52Z</time>
      </trkpt>
      <trkpt lat="43.055033" lon="-4.296517">
        <ele>2538.0</ele>
        <time>2017-05-24T15:21:53Z</time>
      </trkpt>
      <trkpt lat="43.055000" lon="-4.296550">
        <ele>2538.0</ele>
        <time>2017-05-24T15:21:54Z</time>
      </trkpt>
      <trkpt lat="43.054967" lon="-4.296600">
        <ele>2537.0</ele>
        <time>2017-05-24T15:21:55Z</time>
      </trkpt>
      <trkpt lat="43.054933" lon="-4.296650">
        <ele>2537.0</ele>
        <time>2017-05-24T15:21:56Z</time>
      </trkpt>
      <trkpt lat="43.054900" lon="-4.296700">
        <ele>2536.0</ele>
        <time>2017-05-24T15:21:57Z</time>
      </trkpt>
      <trkpt lat="43.054850" lon="-4.296733">
        <ele>2535.0</ele>
        <time>2017-05-24T15:21:58Z</time>
      </trkpt>
      <trkpt lat="43.054817" lon="-4.296783">
        <ele>2534.0</ele>
        <time>2017-05-24T15:21:59Z</time>
      </trkpt>
      <trkpt lat="43.054767" lon="-4.296833">
        <ele>2533.0</ele>
        <time>2017-05-24T15:22:00Z</time>
      </trkpt>
      <trkpt lat="43.054733" lon="-4.296883">
        <ele>2532.0</ele>
        <time>2017-05-24T15:22:01Z</time>
      </trkpt>
      <trkpt lat="43.054683" lon="-4.296933">
        <ele>2532.0</ele>
        <time>2017-05-24T15:22:02Z</time>
      </trkpt>
      <trkpt lat="43.054650" lon="-4.297000">
        <ele>2532.0</ele>
        <time>2017-05-24T15:22:03Z</time>
      </trkpt>
      <trkpt lat="43.054600" lon="-4.297050">
        <ele>2533.0</ele>
        <time>2017-05-24T15:22:04Z</time>
      </trkpt>
      <trkpt lat="43.054567" lon="-4.297083">
        <ele>2533.0</ele>
        <time>2017-05-24T15:22:05Z</time>
      </trkpt>
      <trkpt lat="43.054517" lon="-4.297117">
        <ele>2534.0</ele>
        <time>2017-05-24T15:22:06Z</time>
      </trkpt>
      <trkpt lat="43.054483" lon="-4.297167">
        <ele>2534.0</ele>
        <time>2017-05-24T15:22:07Z</time>
      </trkpt>
      <trkpt lat="43.054467" lon="-4.297200">
        <ele>2534.0</ele>
        <time>2017-05-24T15:22:08Z</time>
      </trkpt>
      <trkpt lat="43.054417" lon="-4.297267">
        <ele>2533.0</ele>
        <time>2017-05-24T15:22:09Z</time>
      </trkpt>
      <trkpt lat="43.054383" lon="-4.297317">
        <ele>2531.0</ele>
        <time>2017-05-24T15:22:10Z</time>
      </trkpt>
      <trkpt lat="43.054333" lon="-4.297367">
        <ele>2530.0</ele>
        <time>2017-05-24T15:22:11Z</time>
      </trkpt>
      <trkpt lat="43.054300" lon="-4.297417">
        <ele>2530.0</ele>
        <time>2017-05-24T15:22:12Z</time>
      </trkpt>
      <trkpt lat="43.054267" lon="-4.297467">
        <ele>2529.0</ele>
        <time>2017-05-24T15:22:13Z</time>
      </trkpt>
      <trkpt lat="43.054233" lon="-4.297533">
        <ele>2528.0</ele>
        <time>2017-05-24T15:22:14Z</time>
      </trkpt>
      <trkpt lat="43.054200" lon="-4.297583">
        <ele>2526.0</ele>
        <time>2017-05-24T15:22:15Z</time>
      </trkpt>
      <trkpt lat="43.054150" lon="-4.297650">
        <ele>2524.0</ele>
        <time>2017-05-24T15:22:16Z</time>
      </trkpt>
      <trkpt lat="43.054100" lon="-4.297733">
        <ele>2523.0</ele>
        <time>2017-05-24T15:22:17Z</time>
      </trkpt>
      <trkpt lat="43.054050" lon="-4.297817">
        <ele>2522.0</ele>
        <time>2017-05-24T15:22:18Z</time>
      </trkpt>
      <trkpt lat="43.054017" lon="-4.297883">
        <ele>2524.0</ele>
        <time>2017-05-24T15:22:19Z</time>
      </trkpt>
      <trkpt lat="43.054000" lon="-4.297950">
        <ele>2525.0</ele>
        <time>2017-05-24T15:22:20Z</time>
      </trkpt>
      <trkpt lat="43.053983" lon="-4.298000">
        <ele>2526.0</ele>
        <time>2017-05-24T15:22:21Z</time>
      </trkpt>
      <trkpt lat="43.053983" lon="-4.298033">
        <ele>2524.0</ele>
        <time>2017-05-24T15:22:22Z</time>
      </trkpt>
      <trkpt lat="43.053950" lon="-4.298100">
        <ele>2522.0</ele>
        <time>2017-05-24T15:22:23Z</time>
      </trkpt>
      <trkpt lat="43.053900" lon="-4.298167">
        <ele>2520.0</ele>
        <time>2017-05-24T15:22:24Z</time>
      </trkpt>
      <trkpt lat="43.053867" lon="-4.298250">
        <ele>2519.0</ele>
        <time>2017-05-24T15:22:25Z</time>
      </trkpt>
      <trkpt lat="43.053833" lon="-4.298333">
        <ele>2519.0</ele>
        <time>2017-05-24T15:22:26Z</time>
      </trkpt>
      <trkpt lat="43.053817" lon="-4.298417">
        <ele>2519.0</ele>
        <time>2017-05-24T15:22:27Z</time>
      </trkpt>
      <trkpt lat="43.053783" lon="-4.298483">
        <ele>2518.0</ele>
        <time>2017-05-24T15:22:28Z</time>
      </trkpt>
      <trkpt lat="43.053767" lon="-4.298550">
        <ele>2517.0</ele>
        <time>2017-05-24T15:22:29Z</time>
      </trkpt>
      <trkpt lat="43.053733" lon="-4.298633">
        <ele>2515.0</ele>
        <time>2017-05-24T15:22:30Z</time>
      </trkpt>
      <trkpt lat="43.053700" lon="-4.298717">
        <ele>2514.0</ele>
        <time>2017-05-24T15:22:31Z</time>
      </trkpt>
      <trkpt lat="43.053650" lon="-4.298800">
        <ele>2513.0</ele>
        <time>2017-05-24T15:22:32Z</time>
      </trkpt>
      <trkpt lat="43.053617" lon="-4.298900">
        <ele>2514.0</ele>
        <time>2017-05-24T15:22:33Z</time>
      </trkpt>
      <trkpt lat="43.053583" lon="-4.298983">
        <ele>2515.0</ele>
        <time>2017-05-24T15:22:34Z</time>
      </trkpt>
      <trkpt lat="43.053567" lon="-4.299067">
        <ele>2516.0</ele>
        <time>2017-05-24T15:22:35Z</time>
      </trkpt>
      <trkpt lat="43.053550" lon="-4.299133">
        <ele>2517.0</ele>
        <time>2017-05-24T15:22:36Z</time>
      </trkpt>
      <trkpt lat="43.053517" lon="-4.299217">
        <ele>2517.0</ele>
        <time>2017-05-24T15:22:37Z</time>
      </trkpt>
      <trkpt lat="43.053483" lon="-4.299283">
        <ele>2516.0</ele>
        <time>2017-05-24T15:22:38Z</time>
      </trkpt>
      <trkpt lat="43.053450" lon="-4.299367">
        <ele>2516.0</ele>
        <time>2017-05-24T15:22:39Z</time>
      </trkpt>
      <trkpt lat="43.053417" lon="-4.299450">
        <ele>2517.0</ele>
        <time>2017-05-24T15:22:40Z</time>
      </trkpt>
      <trkpt lat="43.053400" lon="-4.299567">
        <ele>2519.0</ele>
        <time>2017-05-24T15:22:41Z</time>
      </trkpt>
      <trkpt lat="43.053367" lon="-4.299667">
        <ele>2521.0</ele>
        <time>2017-05-24T15:22:42Z</time>
      </trkpt>
      <trkpt lat="43.053333" lon="-4.299767">
        <ele>2523.0</ele>
        <time>2017-05-24T15:22:43Z</time>
      </trkpt>
      <trkpt lat="43.053300" lon="-4.299850">
        <ele>2525.0</ele>
        <time>2017-05-24T15:22:44Z</time>
      </trkpt>
      <trkpt lat="43.053250" lon="-4.299917">
        <ele>2528.0</ele>
        <time>2017-05-24T15:22:45Z</time>
      </trkpt>
      <trkpt lat="43.053217" lon="-4.300000">
        <ele>2530.0</ele>
        <time>2017-05-24T15:22:46Z</time>
      </trkpt>
      <trkpt lat="43.053200" lon="-4.300067">
        <ele>2531.0</ele>
        <time>2017-05-24T15:22:47Z</time>
      </trkpt>
      <trkpt lat="43.053183" lon="-4.300167">
        <ele>2531.0</ele>
        <time>2017-05-24T15:22:48Z</time>
      </trkpt>
      <trkpt lat="43.053133" lon="-4.300233">
        <ele>2531.0</ele>
        <time>2017-05-24T15:22:49Z</time>
      </trkpt>
      <trkpt lat="43.053083" lon="-4.300300">
        <ele>2533.0</ele>
        <time>2017-05-24T15:22:50Z</time>
      </trkpt>
      <trkpt lat="43.053033" lon="-4.300367">
        <ele>2534.0</ele>
        <time>2017-05-24T15:22:51Z</time>
      </trkpt>
      <trkpt lat="43.052983" lon="-4.300450">
        <ele>2536.0</ele>
        <time>2017-05-24T15:22:52Z</time>
      </trkpt>
      <trkpt lat="43.052967" lon="-4.300533">
        <ele>2538.0</ele>
        <time>2017-05-24T15:22:53Z</time>
      </trkpt>
      <trkpt lat="43.052950" lon="-4.300633">
        <ele>2539.0</ele>
        <time>2017-05-24T15:22:54Z</time>
      </trkpt>
      <trkpt lat="43.052917" lon="-4.300733">
        <ele>2540.0</ele>
        <time>2017-05-24T15:22:55Z</time>
      </trkpt>
      <trkpt lat="43.052867" lon="-4.300817">
        <ele>2541.0</ele>
        <time>2017-05-24T15:22:56Z</time>
      </trkpt>
      <trkpt lat="43.052817" lon="-4.300900">
        <ele>2543.0</ele>
        <time>2017-05-24T15:22:57Z</time>
      </trkpt>
      <trkpt lat="43.052800" lon="-4.300983">
        <ele>2545.0</ele>
        <time>2017-05-24T15:22:58Z</time>
      </trkpt>
      <trkpt lat="43.052767" lon="-4.301067">
        <ele>2547.0</ele>
        <time>2017-05-24T15:22:59Z</time>
      </trkpt>
      <trkpt lat="43.052733" lon="-4.301133">
        <ele>2547.0</ele>
        <time>2017-05-24T15:23:00Z</time>
      </trkpt>
      <trkpt lat="43.052700" lon="-4.301217">
        <ele>2547.0</ele>
        <time>2017-05-24T15:23:01Z</time>
      </trkpt>
      <trkpt lat="43.052650" lon="-4.301300">
        <ele>2547.0</ele>
        <time>2017-05-24T15:23:02Z</time>
      </trkpt>
      <trkpt lat="43.052600" lon="-4.301383">
        <ele>2548.0</ele>
        <time>2017-05-24T15:23:03Z</time>
      </trkpt>
      <trkpt lat="43.052550" lon="-4.301467">
        <ele>2548.0</ele>
        <time>2017-05-24T15:23:04Z</time>
      </trkpt>
      <trkpt lat="43.052517" lon="-4.301533">
        <ele>2549.0</ele>
        <time>2017-05-24T15:23:05Z</time>
      </trkpt>
      <trkpt lat="43.052467" lon="-4.301583">
        <ele>2550.0</ele>
        <time>2017-05-24T15:23:06Z</time>
      </trkpt>
      <trkpt lat="43.052400" lon="-4.301650">
        <ele>2551.0</ele>
        <time>2017-05-24T15:23:07Z</time>
      </trkpt>
      <trkpt lat="43.052350" lon="-4.301700">
        <ele>2551.0</ele>
        <time>2017-05-24T15:23:08Z</time>
      </trkpt>
      <trkpt lat="43.052283" lon="-4.301717">
        <ele>2552.0</ele>
        <time>2017-05-24T15:23:09Z</time>
      </trkpt>
      <trkpt lat="43.052217" lon="-4.301733">
        <ele>2553.0</ele>
        <time>2017-05-24T15:23:10Z</time>
      </trkpt>
      <trkpt lat="43.052167" lon="-4.301750">
        <ele>2555.0</ele>
        <time>2017-05-24T15:23:11Z</time>
      </trkpt>
      <trkpt lat="43.052133" lon="-4.301767">
        <ele>2557.0</ele>
        <time>2017-05-24T15:23:12Z</time>
      </trkpt>
      <trkpt lat="43.052100" lon="-4.301800">
        <ele>2558.0</ele>
        <time>2017-05-24T15:23:13Z</time>
      </trkpt>
      <trkpt lat="43.052050" lon="-4.301833">
        <ele>2559.0</ele>
        <time>2017-05-24T15:23:14Z</time>
      </trkpt>
      <trkpt lat="43.052017" lon="-4.301867">
        <ele>2559.0</ele>
        <time>2017-05-24T15:23:15Z</time>
      </trkpt>
      <trkpt lat="43.051967" lon="-4.301917">
        <ele>2558.0</ele>
        <time>2017-05-24T15:23:16Z</time>
      </trkpt>
      <trkpt lat="43.051917" lon="-4.302017">
        <ele>2556.0</ele>
        <time>2017-05-24T15:23:17Z</time>
      </trkpt>
      <trkpt lat="43.051883" lon="-4.302133">
        <ele>2554.0</ele>
        <time>2017-05-24T15:23:18Z</time>
      </trkpt>
      <trkpt lat="43.051867" lon="-4.302283">
        <ele>2552.0</ele>
        <time>2017-05-24T15:23:19Z</time>
      </trkpt>
      <trkpt lat="43.051850" lon="-4.302433">
        <ele>2552.0</ele>
        <time>2017-05-24T15:23:20Z</time>
      </trkpt>
      <trkpt lat="43.051833" lon="-4.302567">
        <ele>2554.0</ele>
        <time>2017-05-24T15:23:21Z</time>
      </trkpt>
      <trkpt lat="43.051817" lon="-4.302683">
        <ele>2556.0</ele>
        <time>2017-05-24T15:23:22Z</time>
      </trkpt>
      <trkpt lat="43.051817" lon="-4.302800">
        <ele>2558.0</ele>
        <time>2017-05-24T15:23:23Z</time>
      </trkpt>
      <trkpt lat="43.051800" lon="-4.302933">
        <ele>2559.0</ele>
        <time>2017-05-24T15:23:24Z</time>
      </trkpt>
      <trkpt lat="43.051783" lon="-4.303067">
        <ele>2560.0</ele>
        <time>2017-05-24T15:23:25Z</time>
      </trkpt>
      <trkpt lat="43.051767" lon="-4.303200">
        <ele>2562.0</ele>
        <time>2017-05-24T15:23:26Z</time>
      </trkpt>
      <trkpt lat="43.051767" lon="-4.303333">
        <ele>2563.0</ele>
        <time>2017-05-24T15:23:27Z</time>
      </trkpt>
      <trkpt lat="43.051750" lon="-4.303450">
        <ele>2564.0</ele>
        <time>2017-05-24T15:23:28Z</time>
      </trkpt>
      <trkpt lat="43.051733" lon="-4.303567">
        <ele>2564.0</ele>
        <time>2017-05-24T15:23:29Z</time>
      </trkpt>
      <trkpt lat="43.051733" lon="-4.303717">
        <ele>2563.0</ele>
        <time>2017-05-24T15:23:30Z</time>
      </trkpt>
      <trkpt lat="43.051733" lon="-4.303867">
        <ele>2562.0</ele>
        <time>2017-05-24T15:23:31Z</time>
      </trkpt>
      <trkpt lat="43.051750" lon="-4.304033">
        <ele>2562.0</ele>
        <time>2017-05-24T15:23:32Z</time>
      </trkpt>
      <trkpt lat="43.051750" lon="-4.304200">
        <ele>2563.0</ele>
        <time>2017-05-24T15:23:33Z</time>
      </trkpt>
      <trkpt lat="43.051733" lon="-4.304367">
        <ele>2564.0</ele>
        <time>2017-05-24T15:23:34Z</time>
      </trkpt>
      <trkpt lat="43.051733" lon="-4.304500">
        <ele>2566.0</ele>
        <time>2017-05-24T15:23:35Z</time>
      </trkpt>
      <trkpt lat="43.051717" lon="-4.304633">
        <ele>2569.0</ele>
        <time>2017-05-24T15:23:36Z</time>
      </trkpt>
      <trkpt lat="43.051733" lon="-4.304733">
        <ele>2570.0</ele>
        <time>2017-05-24T15:23:37Z</time>
      </trkpt>
      <trkpt lat="43.051733" lon="-4.304850">
        <ele>2570.0</ele>
        <time>2017-05-24T15:23:38Z</time>
      </trkpt>
      <trkpt lat="43.051733" lon="-4.304967">
        <ele>2568.0</ele>
        <time>2017-05-24T15:23:39Z</time>
      </trkpt>
      <trkpt lat="43.051717" lon="-4.305083">
        <ele>2566.0</ele>
        <time>2017-05-24T15:23:40Z</time>
      </trkpt>
      <trkpt lat="43.051700" lon="-4.305217">
        <ele>2565.0</ele>
        <time>2017-05-24T15:23:41Z</time>
      </trkpt>
      <trkpt lat="43.051683" lon="-4.305333">
        <ele>2565.0</ele>
        <time>2017-05-24T15:23:42Z</time>
      </trkpt>
      <trkpt lat="43.051683" lon="-4.305467">
        <ele>2566.0</ele>
        <time>2017-05-24T15:23:43Z</time>
      </trkpt>
      <trkpt lat="43.051700" lon="-4.305583">
        <ele>2568.0</ele>
        <time>2017-05-24T15:23:44Z</time>
      </trkpt>
      <trkpt lat="43.051717" lon="-4.305683">
        <ele>2569.0</ele>
        <time>2017-05-24T15:23:45Z</time>
      </trkpt>
      <trkpt lat="43.051733" lon="-4.305783">
        <ele>2569.0</ele>
        <time>2017-05-24T15:23:46Z</time>
      </trkpt>
      <trkpt lat="43.051750" lon="-4.305900">
        <ele>2568.0</ele>
        <time>2017-05-24T15:23:47Z</time>
      </trkpt>
      <trkpt lat="43.051767" lon="-4.306000">
        <ele>2567.0</ele>
        <time>2017-05-24T15:23:48Z</time>
      </trkpt>
      <trkpt lat="43.051767" lon="-4.306117">
        <ele>2567.0</ele>
        <time>2017-05-24T15:23:49Z</time>
      </trkpt>
      <trkpt lat="43.051767" lon="-4.306217">
        <ele>2565.0</ele>
        <time>2017-05-24T15:23:50Z</time>
      </trkpt>
      <trkpt lat="43.051767" lon="-4.306350">
        <ele>2563.0</ele>
        <time>2017-05-24T15:23:51Z</time>
      </trkpt>
      <trkpt lat="43.051750" lon="-4.306467">
        <ele>2562.0</ele>
        <time>2017-05-24T15:23:52Z</time>
      </trkpt>
      <trkpt lat="43.051750" lon="-4.306600">
        <ele>2561.0</ele>
        <time>2017-05-24T15:23:53Z</time>
      </trkpt>
      <trkpt lat="43.051767" lon="-4.306733">
        <ele>2560.0</ele>
        <time>2017-05-24T15:23:54Z</time>
      </trkpt>
      <trkpt lat="43.051767" lon="-4.306850">
        <ele>2559.0</ele>
        <time>2017-05-24T15:23:55Z</time>
      </trkpt>
      <trkpt lat="43.051767" lon="-4.306950">
        <ele>2558.0</ele>
        <time>2017-05-24T15:23:56Z</time>
      </trkpt>
      <trkpt lat="43.051750" lon="-4.307067">
        <ele>2556.0</ele>
        <time>2017-05-24T15:23:57Z</time>
      </trkpt>
      <trkpt lat="43.051733" lon="-4.307200">
        <ele>2555.0</ele>
        <time>2017-05-24T15:23:58Z</time>
      </trkpt>
      <trkpt lat="43.051717" lon="-4.307350">
        <ele>2556.0</ele>
        <time>2017-05-24T15:23:59Z</time>
      </trkpt>
      <trkpt lat="43.051717" lon="-4.307467">
        <ele>2557.0</ele>
        <time>2017-05-24T15:24:00Z</time>
      </trkpt>
      <trkpt lat="43.051717" lon="-4.307567">
        <ele>2558.0</ele>
        <time>2017-05-24T15:24:01Z</time>
      </trkpt>
      <trkpt lat="43.051717" lon="-4.307683">
        <ele>2558.0</ele>
        <time>2017-05-24T15:24:02Z</time>
      </trkpt>
      <trkpt lat="43.051717" lon="-4.307800">
        <ele>2557.0</ele>
        <time>2017-05-24T15:24:03Z</time>
      </trkpt>
      <trkpt lat="43.051700" lon="-4.307917">
        <ele>2556.0</ele>
        <time>2017-05-24T15:24:04Z</time>
      </trkpt>
      <trkpt lat="43.051683" lon="-4.308050">
        <ele>2555.0</ele>
        <time>2017-05-24T15:24:05Z</time>
      </trkpt>
      <trkpt lat="43.051667" lon="-4.308167">
        <ele>2556.0</ele>
        <time>2017-05-24T15:24:06Z</time>
      </trkpt>
      <trkpt lat="43.051650" lon="-4.308283">
        <ele>2557.0</ele>
        <time>2017-05-24T15:24:07Z</time>
      </trkpt>
      <trkpt lat="43.051650" lon="-4.308383">
        <ele>2557.0</ele>
        <time>2017-05-24T15:24:08Z</time>
      </trkpt>
      <trkpt lat="43.051650" lon="-4.308500">
        <ele>2556.0</ele>
        <time>2017-05-24T15:24:09Z</time>
      </trkpt>
      <trkpt lat="43.051633" lon="-4.308600">
        <ele>2555.0</ele>
        <time>2017-05-24T15:24:10Z</time>
      </trkpt>
      <trkpt lat="43.051633" lon="-4.308733">
        <ele>2554.0</ele>
        <time>2017-05-24T15:24:11Z</time>
      </trkpt>
      <trkpt lat="43.051617" lon="-4.308867">
        <ele>2554.0</ele>
        <time>2017-05-24T15:24:12Z</time>
      </trkpt>
      <trkpt lat="43.051600" lon="-4.308983">
        <ele>2554.0</ele>
        <time>2017-05-24T15:24:13Z</time>
      </trkpt>
      <trkpt lat="43.051600" lon="-4.309100">
        <ele>2555.0</ele>
        <time>2017-05-24T15:24:14Z</time>
      </trkpt>
      <trkpt lat="43.051583" lon="-4.309200">
        <ele>2555.0</ele>
        <time>2017-05-24T15:24:15Z</time>
      </trkpt>
      <trkpt lat="43.051583" lon="-4.309300">
        <ele>2555.0</ele>
        <time>2017-05-24T15:24:16Z</time>
      </trkpt>
      <trkpt lat="43.051583" lon="-4.309417">
        <ele>2554.0</ele>
        <time>2017-05-24T15:24:17Z</time>
      </trkpt>
      <trkpt lat="43.051567" lon="-4.309517">
        <ele>2552.0</ele>
        <time>2017-05-24T15:24:18Z</time>
      </trkpt>
      <trkpt lat="43.051550" lon="-4.309633">
        <ele>2551.0</ele>
        <time>2017-05-24T15:24:19Z</time>
      </trkpt>
      <trkpt lat="43.051517" lon="-4.309717">
        <ele>2550.0</ele>
        <time>2017-05-24T15:24:20Z</time>
      </trkpt>
      <trkpt lat="43.051500" lon="-4.309817">
        <ele>2549.0</ele>
        <time>2017-05-24T15:24:21Z</time>
      </trkpt>
      <trkpt lat="43.051500" lon="-4.309933">
        <ele>2549.0</ele>
        <time>2017-05-24T15:24:22Z</time>
      </trkpt>
      <trkpt lat="43.051483" lon="-4.310067">
        <ele>2548.0</ele>
        <time>2017-05-24T15:24:23Z</time>
      </trkpt>
      <trkpt lat="43.051483" lon="-4.310200">
        <ele>2548.0</ele>
        <time>2017-05-24T15:24:24Z</time>
      </trkpt>
      <trkpt lat="43.051467" lon="-4.310333">
        <ele>2549.0</ele>
        <time>2017-05-24T15:24:25Z</time>
      </trkpt>
      <trkpt lat="43.051450" lon="-4.310433">
        <ele>2551.0</ele>
        <time>2017-05-24T15:24:26Z</time>
      </trkpt>
      <trkpt lat="43.051450" lon="-4.310517">
        <ele>2551.0</ele>
        <time>2017-05-24T15:24:27Z</time>
      </trkpt>
      <trkpt lat="43.051450" lon="-4.310617">
        <ele>2550.0</ele>
        <time>2017-05-24T15:24:28Z</time>
      </trkpt>
      <trkpt lat="43.051450" lon="-4.310733">
        <ele>2548.0</ele>
        <time>2017-05-24T15:24:29Z</time>
      </trkpt>
      <trkpt lat="43.051450" lon="-4.310850">
        <ele>2546.0</ele>
        <time>2017-05-24T15:24:30Z</time>
      </trkpt>
      <trkpt lat="43.051433" lon="-4.310967">
        <ele>2544.0</ele>
        <time>2017-05-24T15:24:31Z</time>
      </trkpt>
      <trkpt lat="43.051433" lon="-4.311083">
        <ele>2543.0</ele>
        <time>2017-05-24T15:24:32Z</time>
      </trkpt>
      <trkpt lat="43.051417" lon="-4.311183">
        <ele>2543.0</ele>
        <time>2017-05-24T15:24:33Z</time>
      </trkpt>
      <trkpt lat="43.051417" lon="-4.311283">
        <ele>2541.0</ele>
        <time>2017-05-24T15:24:34Z</time>
      </trkpt>
      <trkpt lat="43.051417" lon="-4.311383">
        <ele>2539.0</ele>
        <time>2017-05-24T15:24:35Z</time>
      </trkpt>
      <trkpt lat="43.051383" lon="-4.311500">
        <ele>2537.0</ele>
        <time>2017-05-24T15:24:36Z</time>
      </trkpt>
      <trkpt lat="43.051367" lon="-4.311617">
        <ele>2535.0</ele>
        <time>2017-05-24T15:24:37Z</time>
      </trkpt>
      <trkpt lat="43.051350" lon="-4.311733">
        <ele>2534.0</ele>
        <time>2017-05-24T15:24:38Z</time>
      </trkpt>
      <trkpt lat="43.051350" lon="-4.311867">
        <ele>2533.0</ele>
        <time>2017-05-24T15:24:39Z</time>
      </trkpt>
      <trkpt lat="43.051350" lon="-4.311983">
        <ele>2532.0</ele>
        <time>2017-05-24T15:24:40Z</time>
      </trkpt>
      <trkpt lat="43.051350" lon="-4.312117">
        <ele>2531.0</ele>
        <time>2017-05-24T15:24:41Z</time>
      </trkpt>
      <trkpt lat="43.051350" lon="-4.312233">
        <ele>2530.0</ele>
        <time>2017-05-24T15:24:42Z</time>
      </trkpt>
      <trkpt lat="43.051350" lon="-4.312350">
        <ele>2529.0</ele>
        <time>2017-05-24T15:24:43Z</time>
      </trkpt>
      <trkpt lat="43.051333" lon="-4.312467">
        <ele>2528.0</ele>
        <time>2017-05-24T15:24:44Z</time>
      </trkpt>
      <trkpt lat="43.051317" lon="-4.312583">
        <ele>2527.0</ele>
        <time>2017-05-24T15:24:45Z</time>
      </trkpt>
      <trkpt lat="43.051283" lon="-4.312683">
        <ele>2526.0</ele>
        <time>2017-05-24T15:24:46Z</time>
      </trkpt>
      <trkpt lat="43.051250" lon="-4.312800">
        <ele>2525.0</ele>
        <time>2017-05-24T15:24:47Z</time>
      </trkpt>
      <trkpt lat="43.051233" lon="-4.312900">
        <ele>2523.0</ele>
        <time>2017-05-24T15:24:48Z</time>
      </trkpt>
      <trkpt lat="43.051217" lon="-4.313017">
        <ele>2522.0</ele>
        <time>2017-05-24T15:24:49Z</time>
      </trkpt>
      <trkpt lat="43.051200" lon="-4.313150">
        <ele>2520.0</ele>
        <time>2017-05-24T15:24:50Z</time>
      </trkpt>
      <trkpt lat="43.051167" lon="-4.313267">
        <ele>2519.0</ele>
        <time>2017-05-24T15:24:51Z</time>
      </trkpt>
      <trkpt lat="43.051133" lon="-4.313383">
        <ele>2518.0</ele>
        <time>2017-05-24T15:24:52Z</time>
      </trkpt>
      <trkpt lat="43.051117" lon="-4.313483">
        <ele>2517.0</ele>
        <time>2017-05-24T15:24:53Z</time>
      </trkpt>
      <trkpt lat="43.051100" lon="-4.313583">
        <ele>2516.0</ele>
        <time>2017-05-24T15:24:54Z</time>
      </trkpt>
      <trkpt lat="43.051083" lon="-4.313700">
        <ele>2514.0</ele>
        <time>2017-05-24T15:24:55Z</time>
      </trkpt>
      <trkpt lat="43.051050" lon="-4.313800">
        <ele>2513.0</ele>
        <time>2017-05-24T15:24:56Z</time>
      </trkpt>
      <trkpt lat="43.051017" lon="-4.313917">
        <ele>2511.0</ele>
        <time>2017-05-24T15:24:57Z</time>
      </trkpt>
      <trkpt lat="43.051000" lon="-4.314033">
        <ele>2510.0</ele>
        <time>2017-05-24T15:24:58Z</time>
      </trkpt>
      <trkpt lat="43.050967" lon="-4.314133">
        <ele>2509.0</ele>
        <time>2017-05-24T15:24:59Z</time>
      </trkpt>
      <trkpt lat="43.050950" lon="-4.314217">
        <ele>2508.0</ele>
        <time>2017-05-24T15:25:00Z</time>
      </trkpt>
      <trkpt lat="43.050933" lon="-4.314317">
        <ele>2506.0</ele>
        <time>2017-05-24T15:25:01Z</time>
      </trkpt>
      <trkpt lat="43.050917" lon="-4.314417">
        <ele>2504.0</ele>
        <time>2017-05-24T15:25:02Z</time>
      </trkpt>
      <trkpt lat="43.050883" lon="-4.314533">
        <ele>2502.0</ele>
        <time>2017-05-24T15:25:03Z</time>
      </trkpt>
      <trkpt lat="43.050867" lon="-4.314667">
        <ele>2501.0</ele>
        <time>2017-05-24T15:25:04Z</time>
      </trkpt>
      <trkpt lat="43.050867" lon="-4.314800">
        <ele>2500.0</ele>
        <time>2017-05-24T15:25:05Z</time>
      </trkpt>
      <trkpt lat="43.050850" lon="-4.314933">
        <ele>2499.0</ele>
        <time>2017-05-24T15:25:06Z</time>
      </trkpt>
      <trkpt lat="43.050817" lon="-4.315067">
        <ele>2498.0</ele>
        <time>2017-05-24T15:25:07Z</time>
      </trkpt>
      <trkpt lat="43.050800" lon="-4.315200">
        <ele>2496.0</ele>
        <time>2017-05-24T15:25:08Z</time>
      </trkpt>
      <trkpt lat="43.050783" lon="-4.315350">
        <ele>2495.0</ele>
        <time>2017-05-24T15:25:09Z</time>
      </trkpt>
      <trkpt lat="43.050767" lon="-4.315500">
        <ele>2494.0</ele>
        <time>2017-05-24T15:25:10Z</time>
      </trkpt>
      <trkpt lat="43.050750" lon="-4.315650">
        <ele>2493.0</ele>
        <time>2017-05-24T15:25:11Z</time>
      </trkpt>
      <trkpt lat="43.050733" lon="-4.315800">
        <ele>2492.0</ele>
        <time>2017-05-24T15:25:12Z</time>
      </trkpt>
      <trkpt lat="43.050733" lon="-4.315933">
        <ele>2490.0</ele>
        <time>2017-05-24T15:25:13Z</time>
      </trkpt>
      <trkpt lat="43.050717" lon="-4.316083">
        <ele>2488.0</ele>
        <time>2017-05-24T15:25:14Z</time>
      </trkpt>
      <trkpt lat="43.050700" lon="-4.316233">
        <ele>2487.0</ele>
        <time>2017-05-24T15:25:15Z</time>
      </trkpt>
      <trkpt lat="43.050700" lon="-4.316367">
        <ele>2485.0</ele>
        <time>2017-05-24T15:25:16Z</time>
      </trkpt>
      <trkpt lat="43.050700" lon="-4.316500">
        <ele>2484.0</ele>
        <time>2017-05-24T15:25:17Z</time>
      </trkpt>
      <trkpt lat="43.050683" lon="-4.316633">
        <ele>2482.0</ele>
        <time>2017-05-24T15:25:18Z</time>
      </trkpt>
      <trkpt lat="43.050650" lon="-4.316783">
        <ele>2480.0</ele>
        <time>2017-05-24T15:25:19Z</time>
      </trkpt>
      <trkpt lat="43.050633" lon="-4.316917">
        <ele>2478.0</ele>
        <time>2017-05-24T15:25:20Z</time>
      </trkpt>
      <trkpt lat="43.050617" lon="-4.317033">
        <ele>2477.0</ele>
        <time>2017-05-24T15:25:21Z</time>
      </trkpt>
      <trkpt lat="43.050583" lon="-4.317150">
        <ele>2475.0</ele>
        <time>2017-05-24T15:25:22Z</time>
      </trkpt>
      <trkpt lat="43.050550" lon="-4.317267">
        <ele>2473.0</ele>
        <time>2017-05-24T15:25:23Z</time>
      </trkpt>
      <trkpt lat="43.050533" lon="-4.317367">
        <ele>2471.0</ele>
        <time>2017-05-24T15:25:24Z</time>
      </trkpt>
      <trkpt lat="43.050500" lon="-4.317483">
        <ele>2469.0</ele>
        <time>2017-05-24T15:25:25Z</time>
      </trkpt>
      <trkpt lat="43.050450" lon="-4.317583">
        <ele>2467.0</ele>
        <time>2017-05-24T15:25:26Z</time>
      </trkpt>
      <trkpt lat="43.050417" lon="-4.317700">
        <ele>2466.0</ele>
        <time>2017-05-24T15:25:27Z</time>
      </trkpt>
      <trkpt lat="43.050383" lon="-4.317800">
        <ele>2465.0</ele>
        <time>2017-05-24T15:25:28Z</time>
      </trkpt>
      <trkpt lat="43.050350" lon="-4.317900">
        <ele>2463.0</ele>
        <time>2017-05-24T15:25:29Z</time>
      </trkpt>
      <trkpt lat="43.050317" lon="-4.318017">
        <ele>2461.0</ele>
        <time>2017-05-24T15:25:30Z</time>
      </trkpt>
      <trkpt lat="43.050283" lon="-4.318150">
        <ele>2459.0</ele>
        <time>2017-05-24T15:25:31Z</time>
      </trkpt>
      <trkpt lat="43.050250" lon="-4.318283">
        <ele>2456.0</ele>
        <time>2017-05-24T15:25:32Z</time>
      </trkpt>
      <trkpt lat="43.050217" lon="-4.318433">
        <ele>2455.0</ele>
        <time>2017-05-24T15:25:33Z</time>
      </trkpt>
      <trkpt lat="43.050200" lon="-4.318567">
        <ele>2454.0</ele>
        <time>2017-05-24T15:25:34Z</time>
      </trkpt>
      <trkpt lat="43.050183" lon="-4.318700">
        <ele>2453.0</ele>
        <time>2017-05-24T15:25:35Z</time>
      </trkpt>
      <trkpt lat="43.050167" lon="-4.318833">
        <ele>2451.0</ele>
        <time>2017-05-24T15:25:36Z</time>
      </trkpt>
      <trkpt lat="43.050133" lon="-4.319000">
        <ele>2449.0</ele>
        <time>2017-05-24T15:25:37Z</time>
      </trkpt>
      <trkpt lat="43.050117" lon="-4.319150">
        <ele>2447.0</ele>
        <time>2017-05-24T15:25:38Z</time>
      </trkpt>
      <trkpt lat="43.050100" lon="-4.319317">
        <ele>2446.0</ele>
        <time>2017-05-24T15:25:39Z</time>
      </trkpt>
      <trkpt lat="43.050083" lon="-4.319483">
        <ele>2446.0</ele>
        <time>2017-05-24T15:25:40Z</time>
      </trkpt>
      <trkpt lat="43.050067" lon="-4.319650">
        <ele>2445.0</ele>
        <time>2017-05-24T15:25:41Z</time>
      </trkpt>
      <trkpt lat="43.050067" lon="-4.319800">
        <ele>2444.0</ele>
        <time>2017-05-24T15:25:42Z</time>
      </trkpt>
      <trkpt lat="43.050033" lon="-4.319967">
        <ele>2443.0</ele>
        <time>2017-05-24T15:25:43Z</time>
      </trkpt>
      <trkpt lat="43.050017" lon="-4.320133">
        <ele>2442.0</ele>
        <time>2017-05-24T15:25:44Z</time>
      </trkpt>
      <trkpt lat="43.049967" lon="-4.320283">
        <ele>2441.0</ele>
        <time>2017-05-24T15:25:45Z</time>
      </trkpt>
      <trkpt lat="43.049933" lon="-4.320417">
        <ele>2441.0</ele>
        <time>2017-05-24T15:25:46Z</time>
      </trkpt>
      <trkpt lat="43.049900" lon="-4.320567">
        <ele>2441.0</ele>
        <time>2017-05-24T15:25:47Z</time>
      </trkpt>
      <trkpt lat="43.049883" lon="-4.320700">
        <ele>2440.0</ele>
        <time>2017-05-24T15:25:48Z</time>
      </trkpt>
      <trkpt lat="43.049867" lon="-4.320833">
        <ele>2438.0</ele>
        <time>2017-05-24T15:25:49Z</time>
      </trkpt>
      <trkpt lat="43.049833" lon="-4.320967">
        <ele>2436.0</ele>
        <time>2017-05-24T15:25:50Z</time>
      </trkpt>
      <trkpt lat="43.049800" lon="-4.321100">
        <ele>2434.0</ele>
        <time>2017-05-24T15:25:51Z</time>
      </trkpt>
      <trkpt lat="43.049767" lon="-4.321250">
        <ele>2431.0</ele>
        <time>2017-05-24T15:25:52Z</time>
      </trkpt>
      <trkpt lat="43.049750" lon="-4.321400">
        <ele>2429.0</ele>
        <time>2017-05-24T15:25:53Z</time>
      </trkpt>
      <trkpt lat="43.049717" lon="-4.321550">
        <ele>2428.0</ele>
        <time>2017-05-24T15:25:54Z</time>
      </trkpt>
      <trkpt lat="43.049700" lon="-4.321700">
        <ele>2428.0</ele>
        <time>2017-05-24T15:25:55Z</time>
      </trkpt>
      <trkpt lat="43.049667" lon="-4.321850">
        <ele>2428.0</ele>
        <time>2017-05-24T15:25:56Z</time>
      </trkpt>
      <trkpt lat="43.049650" lon="-4.321983">
        <ele>2427.0</ele>
        <time>2017-05-24T15:25:57Z</time>
      </trkpt>
      <trkpt lat="43.049633" lon="-4.322117">
        <ele>2425.0</ele>
        <time>2017-05-24T15:25:58Z</time>
      </trkpt>
      <trkpt lat="43.049600" lon="-4.322250">
        <ele>2424.0</ele>
        <time>2017-05-24T15:25:59Z</time>
      </trkpt>
      <trkpt lat="43.049583" lon="-4.322400">
        <ele>2422.0</ele>
        <time>2017-05-24T15:26:00Z</time>
      </trkpt>
      <trkpt lat="43.049583" lon="-4.322550">
        <ele>2420.0</ele>
        <time>2017-05-24T15:26:01Z</time>
      </trkpt>
      <trkpt lat="43.049567" lon="-4.322700">
        <ele>2419.0</ele>
        <time>2017-05-24T15:26:02Z</time>
      </trkpt>
      <trkpt lat="43.049567" lon="-4.322850">
        <ele>2417.0</ele>
        <time>2017-05-24T15:26:03Z</time>
      </trkpt>
      <trkpt lat="43.049550" lon="-4.323000">
        <ele>2415.0</ele>
        <time>2017-05-24T15:26:04Z</time>
      </trkpt>
      <trkpt lat="43.049533" lon="-4.323133">
        <ele>2413.0</ele>
        <time>2017-05-24T15:26:05Z</time>
      </trkpt>
      <trkpt lat="43.049517" lon="-4.323283">
        <ele>2412.0</ele>
        <time>2017-05-24T15:26:06Z</time>
      </trkpt>
      <trkpt lat="43.049517" lon="-4.323433">
        <ele>2411.0</ele>
        <time>2017-05-24T15:26:07Z</time>
      </trkpt>
      <trkpt lat="43.049517" lon="-4.323567">
        <ele>2410.0</ele>
        <time>2017-05-24T15:26:08Z</time>
      </trkpt>
      <trkpt lat="43.049517" lon="-4.323700">
        <ele>2409.0</ele>
        <time>2017-05-24T15:26:09Z</time>
      </trkpt>
      <trkpt lat="43.049500" lon="-4.323850">
        <ele>2407.0</ele>
        <time>2017-05-24T15:26:10Z</time>
      </trkpt>
      <trkpt lat="43.049483" lon="-4.324000">
        <ele>2405.0</ele>
        <time>2017-05-24T15:26:11Z</time>
      </trkpt>
      <trkpt lat="43.049483" lon="-4.324150">
        <ele>2404.0</ele>
        <time>2017-05-24T15:26:12Z</time>
      </trkpt>
      <trkpt lat="43.049483" lon="-4.324300">
        <ele>2403.0</ele>
        <time>2017-05-24T15:26:13Z</time>
      </trkpt>
      <trkpt lat="43.049483" lon="-4.324450">
        <ele>2402.0</ele>
        <time>2017-05-24T15:26:14Z</time>
      </trkpt>
      <trkpt lat="43.049467" lon="-4.324600">
        <ele>2400.0</ele>
        <time>2017-05-24T15:26:15Z</time>
      </trkpt>
      <trkpt lat="43.049450" lon="-4.324733">
        <ele>2398.0</ele>
        <time>2017-05-24T15:26:16Z</time>
      </trkpt>
      <trkpt lat="43.049450" lon="-4.324883">
        <ele>2396.0</ele>
        <time>2017-05-24T15:26:17Z</time>
      </trkpt>
      <trkpt lat="43.049450" lon="-4.325033">
        <ele>2395.0</ele>
        <time>2017-05-24T15:26:18Z</time>
      </trkpt>
      <trkpt lat="43.049450" lon="-4.325183">
        <ele>2393.0</ele>
        <time>2017-05-24T15:26:19Z</time>
      </trkpt>
      <trkpt lat="43.049433" lon="-4.325333">
        <ele>2391.0</ele>
        <time>2017-05-24T15:26:20Z</time>
      </trkpt>
      <trkpt lat="43.049417" lon="-4.325467">
        <ele>2389.0</ele>
        <time>2017-05-24T15:26:21Z</time>
      </trkpt>
      <trkpt lat="43.049417" lon="-4.325617">
        <ele>2388.0</ele>
        <time>2017-05-24T15:26:22Z</time>
      </trkpt>
      <trkpt lat="43.049400" lon="-4.325783">
        <ele>2386.0</ele>
        <time>2017-05-24T15:26:23Z</time>
      </trkpt>
      <trkpt lat="43.049383" lon="-4.325933">
        <ele>2384.0</ele>
        <time>2017-05-24T15:26:24Z</time>
      </trkpt>
      <trkpt lat="43.049367" lon="-4.326083">
        <ele>2383.0</ele>
        <time>2017-05-24T15:26:25Z</time>
      </trkpt>
      <trkpt lat="43.049367" lon="-4.326250">
        <ele>2382.0</ele>
        <time>2017-05-24T15:26:26Z</time>
      </trkpt>
      <trkpt lat="43.049350" lon="-4.326400">
        <ele>2381.0</ele>
        <time>2017-05-24T15:26:27Z</time>
      </trkpt>
      <trkpt lat="43.049333" lon="-4.326550">
        <ele>2380.0</ele>
        <time>2017-05-24T15:26:28Z</time>
      </trkpt>
      <trkpt lat="43.049333" lon="-4.326700">
        <ele>2378.0</ele>
        <time>2017-05-24T15:26:29Z</time>
      </trkpt>
      <trkpt lat="43.049317" lon="-4.326850">
        <ele>2377.0</ele>
        <time>2017-05-24T15:26:30Z</time>
      </trkpt>
      <trkpt lat="43.049317" lon="-4.327017">
        <ele>2376.0</ele>
        <time>2017-05-24T15:26:31Z</time>
      </trkpt>
      <trkpt lat="43.049317" lon="-4.327167">
        <ele>2375.0</ele>
        <time>2017-05-24T15:26:32Z</time>
      </trkpt>
      <trkpt lat="43.049300" lon="-4.327333">
        <ele>2373.0</ele>
        <time>2017-05-24T15:26:33Z</time>
      </trkpt>
      <trkpt lat="43.049283" lon="-4.327483">
        <ele>2372.0</ele>
        <time>2017-05-24T15:26:34Z</time>
      </trkpt>
      <trkpt lat="43.049267" lon="-4.327633">
        <ele>2371.0</ele>
        <time>2017-05-24T15:26:35Z</time>
      </trkpt>
      <trkpt lat="43.049250" lon="-4.327783">
        <ele>2370.0</ele>
        <time>2017-05-24T15:26:36Z</time>
      </trkpt>
      <trkpt lat="43.049250" lon="-4.327933">
        <ele>2369.0</ele>
        <time>2017-05-24T15:26:37Z</time>
      </trkpt>
      <trkpt lat="43.049233" lon="-4.328083">
        <ele>2368.0</ele>
        <time>2017-05-24T15:26:38Z</time>
      </trkpt>
      <trkpt lat="43.049217" lon="-4.328233">
        <ele>2367.0</ele>
        <time>2017-05-24T15:26:39Z</time>
      </trkpt>
      <trkpt lat="43.049217" lon="-4.328383">
        <ele>2366.0</ele>
        <time>2017-05-24T15:26:40Z</time>
      </trkpt>
      <trkpt lat="43.049200" lon="-4.328550">
        <ele>2365.0</ele>
        <time>2017-05-24T15:26:41Z</time>
      </trkpt>
      <trkpt lat="43.049200" lon="-4.328717">
        <ele>2364.0</ele>
        <time>2017-05-24T15:26:42Z</time>
      </trkpt>
      <trkpt lat="43.049183" lon="-4.328883">
        <ele>2363.0</ele>
        <time>2017-05-24T15:26:43Z</time>
      </trkpt>
      <trkpt lat="43.049183" lon="-4.329050">
        <ele>2362.0</ele>
        <time>2017-05-24T15:26:44Z</time>
      </trkpt>
      <trkpt lat="43.049200" lon="-4.329233">
        <ele>2361.0</ele>
        <time>2017-05-24T15:26:45Z</time>
      </trkpt>
      <trkpt lat="43.049217" lon="-4.329400">
        <ele>2360.0</ele>
        <time>2017-05-24T15:26:46Z</time>
      </trkpt>
      <trkpt lat="43.049233" lon="-4.329583">
        <ele>2360.0</ele>
        <time>2017-05-24T15:26:47Z</time>
      </trkpt>
      <trkpt lat="43.049267" lon="-4.329767">
        <ele>2359.0</ele>
        <time>2017-05-24T15:26:48Z</time>
      </trkpt>
      <trkpt lat="43.049300" lon="-4.329950">
        <ele>2359.0</ele>
        <time>2017-05-24T15:26:49Z</time>
      </trkpt>
      <trkpt lat="43.049350" lon="-4.330117">
        <ele>2358.0</ele>
        <time>2017-05-24T15:26:50Z</time>
      </trkpt>
      <trkpt lat="43.049400" lon="-4.330300">
        <ele>2356.0</ele>
        <time>2017-05-24T15:26:51Z</time>
      </trkpt>
      <trkpt lat="43.049433" lon="-4.330483">
        <ele>2355.0</ele>
        <time>2017-05-24T15:26:52Z</time>
      </trkpt>
      <trkpt lat="43.049467" lon="-4.330683">
        <ele>2354.0</ele>
        <time>2017-05-24T15:26:53Z</time>
      </trkpt>
      <trkpt lat="43.049483" lon="-4.330867">
        <ele>2355.0</ele>
        <time>2017-05-24T15:26:54Z</time>
      </trkpt>
      <trkpt lat="43.049483" lon="-4.331033">
        <ele>2355.0</ele>
        <time>2017-05-24T15:26:55Z</time>
      </trkpt>
      <trkpt lat="43.049467" lon="-4.331183">
        <ele>2355.0</ele>
        <time>2017-05-24T15:26:56Z</time>
      </trkpt>
      <trkpt lat="43.049467" lon="-4.331317">
        <ele>2354.0</ele>
        <time>2017-05-24T15:26:57Z</time>
      </trkpt>
      <trkpt lat="43.049450" lon="-4.331483">
        <ele>2353.0</ele>
        <time>2017-05-24T15:26:58Z</time>
      </trkpt>
      <trkpt lat="43.049433" lon="-4.331633">
        <ele>2352.0</ele>
        <time>2017-05-24T15:26:59Z</time>
      </trkpt>
      <trkpt lat="43.049417" lon="-4.331783">
        <ele>2351.0</ele>
        <time>2017-05-24T15:27:00Z</time>
      </trkpt>
      <trkpt lat="43.049400" lon="-4.331917">
        <ele>2350.0</ele>
        <time>2017-05-24T15:27:01Z</time>
      </trkpt>
      <trkpt lat="43.049383" lon="-4.332067">
        <ele>2349.0</ele>
        <time>2017-05-24T15:27:02Z</time>
      </trkpt>
      <trkpt lat="43.049367" lon="-4.332217">
        <ele>2348.0</ele>
        <time>2017-05-24T15:27:03Z</time>
      </trkpt>
      <trkpt lat="43.049350" lon="-4.332383">
        <ele>2346.0</ele>
        <time>2017-05-24T15:27:04Z</time>
      </trkpt>
      <trkpt lat="43.049333" lon="-4.332550">
        <ele>2345.0</ele>
        <time>2017-05-24T15:27:05Z</time>
      </trkpt>
      <trkpt lat="43.049317" lon="-4.332700">
        <ele>2345.0</ele>
        <time>2017-05-24T15:27:06Z</time>
      </trkpt>
      <trkpt lat="43.049300" lon="-4.332850">
        <ele>2344.0</ele>
        <time>2017-05-24T15:27:07Z</time>
      </trkpt>
      <trkpt lat="43.049283" lon="-4.333000">
        <ele>2343.0</ele>
        <time>2017-05-24T15:27:08Z</time>
      </trkpt>
      <trkpt lat="43.049250" lon="-4.333150">
        <ele>2342.0</ele>
        <time>2017-05-24T15:27:09Z</time>
      </trkpt>
      <trkpt lat="43.049233" lon="-4.333300">
        <ele>2340.0</ele>
        <time>2017-05-24T15:27:10Z</time>
      </trkpt>
      <trkpt lat="43.049200" lon="-4.333483">
        <ele>2339.0</ele>
        <time>2017-05-24T15:27:11Z</time>
      </trkpt>
      <trkpt lat="43.049167" lon="-4.333650">
        <ele>2339.0</ele>
        <time>2017-05-24T15:27:12Z</time>
      </trkpt>
      <trkpt lat="43.049133" lon="-4.333817">
        <ele>2340.0</ele>
        <time>2017-05-24T15:27:13Z</time>
      </trkpt>
      <trkpt lat="43.049100" lon="-4.333967">
        <ele>2342.0</ele>
        <time>2017-05-24T15:27:14Z</time>
      </trkpt>
      <trkpt lat="43.049083" lon="-4.334083">
        <ele>2343.0</ele>
        <time>2017-05-24T15:27:15Z</time>
      </trkpt>
      <trkpt lat="43.049050" lon="-4.334200">
        <ele>2344.0</ele>
        <time>2017-05-24T15:27:16Z</time>
      </trkpt>
      <trkpt lat="43.049017" lon="-4.334317">
        <ele>2343.0</ele>
        <time>2017-05-24T15:27:17Z</time>
      </trkpt>
      <trkpt lat="43.048983" lon="-4.334450">
        <ele>2341.0</ele>
        <time>2017-05-24T15:27:18Z</time>
      </trkpt>
      <trkpt lat="43.048950" lon="-4.334600">
        <ele>2340.0</ele>
        <time>2017-05-24T15:27:19Z</time>
      </trkpt>
      <trkpt lat="43.048933" lon="-4.334750">
        <ele>2339.0</ele>
        <time>2017-05-24T15:27:20Z</time>
      </trkpt>
      <trkpt lat="43.048900" lon="-4.334883">
        <ele>2339.0</ele>
        <time>2017-05-24T15:27:21Z</time>
      </trkpt>
      <trkpt lat="43.048883" lon="-4.335017">
        <ele>2339.0</ele>
        <time>2017-05-24T15:27:22Z</time>
      </trkpt>
      <trkpt lat="43.048850" lon="-4.335150">
        <ele>2338.0</ele>
        <time>2017-05-24T15:27:23Z</time>
      </trkpt>
      <trkpt lat="43.048817" lon="-4.335283">
        <ele>2337.0</ele>
        <time>2017-05-24T15:27:24Z</time>
      </trkpt>
      <trkpt lat="43.048783" lon="-4.335433">
        <ele>2336.0</ele>
        <time>2017-05-24T15:27:25Z</time>
      </trkpt>
      <trkpt lat="43.048767" lon="-4.335583">
        <ele>2336.0</ele>
        <time>2017-05-24T15:27:26Z</time>
      </trkpt>
      <trkpt lat="43.048733" lon="-4.335717">
        <ele>2335.0</ele>
        <time>2017-05-24T15:27:27Z</time>
      </trkpt>
      <trkpt lat="43.048717" lon="-4.335850">
        <ele>2336.0</ele>
        <time>2017-05-24T15:27:28Z</time>
      </trkpt>
      <trkpt lat="43.048683" lon="-4.335967">
        <ele>2336.0</ele>
        <time>2017-05-24T15:27:29Z</time>
      </trkpt>
      <trkpt lat="43.048667" lon="-4.336100">
        <ele>2336.0</ele>
        <time>2017-05-24T15:27:30Z</time>
      </trkpt>
      <trkpt lat="43.048667" lon="-4.336250">
        <ele>2335.0</ele>
        <time>2017-05-24T15:27:31Z</time>
      </trkpt>
      <trkpt lat="43.048650" lon="-4.336400">
        <ele>2334.0</ele>
        <time>2017-05-24T15:27:32Z</time>
      </trkpt>
      <trkpt lat="43.048633" lon="-4.336550">
        <ele>2335.0</ele>
        <time>2017-05-24T15:27:33Z</time>
      </trkpt>
      <trkpt lat="43.048617" lon="-4.336683">
        <ele>2335.0</ele>
        <time>2017-05-24T15:27:34Z</time>
      </trkpt>
      <trkpt lat="43.048600" lon="-4.336800">
        <ele>2335.0</ele>
        <time>2017-05-24T15:27:35Z</time>
      </trkpt>
      <trkpt lat="43.048600" lon="-4.336917">
        <ele>2334.0</ele>
        <time>2017-05-24T15:27:36Z</time>
      </trkpt>
      <trkpt lat="43.048583" lon="-4.337050">
        <ele>2331.0</ele>
        <time>2017-05-24T15:27:37Z</time>
      </trkpt>
      <trkpt lat="43.048550" lon="-4.337183">
        <ele>2328.0</ele>
        <time>2017-05-24T15:27:38Z</time>
      </trkpt>
      <trkpt lat="43.048517" lon="-4.337317">
        <ele>2326.0</ele>
        <time>2017-05-24T15:27:39Z</time>
      </trkpt>
      <trkpt lat="43.048467" lon="-4.337467">
        <ele>2325.0</ele>
        <time>2017-05-24T15:27:40Z</time>
      </trkpt>
      <trkpt lat="43.048450" lon="-4.337617">
        <ele>2326.0</ele>
        <time>2017-05-24T15:27:41Z</time>
      </trkpt>
      <trkpt lat="43.048450" lon="-4.337767">
        <ele>2327.0</ele>
        <time>2017-05-24T15:27:42Z</time>
      </trkpt>
      <trkpt lat="43.048450" lon="-4.337900">
        <ele>2327.0</ele>
        <time>2017-05-24T15:27:43Z</time>
      </trkpt>
      <trkpt lat="43.048450" lon="-4.338017">
        <ele>2326.0</ele>
        <time>2017-05-24T15:27:44Z</time>
      </trkpt>
      <trkpt lat="43.048433" lon="-4.338150">
        <ele>2324.0</ele>
        <time>2017-05-24T15:27:45Z</time>
      </trkpt>
      <trkpt lat="43.048400" lon="-4.338300">
        <ele>2321.0</ele>
        <time>2017-05-24T15:27:46Z</time>
      </trkpt>
      <trkpt lat="43.048383" lon="-4.338467">
        <ele>2318.0</ele>
        <time>2017-05-24T15:27:47Z</time>
      </trkpt>
      <trkpt lat="43.048350" lon="-4.338617">
        <ele>2317.0</ele>
        <time>2017-05-24T15:27:48Z</time>
      </trkpt>
      <trkpt lat="43.048317" lon="-4.338767">
        <ele>2317.0</ele>
        <time>2017-05-24T15:27:49Z</time>
      </trkpt>
      <trkpt lat="43.048283" lon="-4.338883">
        <ele>2317.0</ele>
        <time>2017-05-24T15:27:50Z</time>
      </trkpt>
      <trkpt lat="43.048250" lon="-4.339000">
        <ele>2316.0</ele>
        <time>2017-05-24T15:27:51Z</time>
      </trkpt>
      <trkpt lat="43.048233" lon="-4.339133">
        <ele>2314.0</ele>
        <time>2017-05-24T15:27:52Z</time>
      </trkpt>
      <trkpt lat="43.048200" lon="-4.339267">
        <ele>2312.0</ele>
        <time>2017-05-24T15:27:53Z</time>
      </trkpt>
      <trkpt lat="43.048167" lon="-4.339417">
        <ele>2310.0</ele>
        <time>2017-05-24T15:27:54Z</time>
      </trkpt>
      <trkpt lat="43.048133" lon="-4.339567">
        <ele>2310.0</ele>
        <time>2017-05-24T15:27:55Z</time>
      </trkpt>
      <trkpt lat="43.048100" lon="-4.339700">
        <ele>2310.0</ele>
        <time>2017-05-24T15:27:56Z</time>
      </trkpt>
      <trkpt lat="43.048083" lon="-4.339850">
        <ele>2311.0</ele>
        <time>2017-05-24T15:27:57Z</time>
      </trkpt>
      <trkpt lat="43.048067" lon="-4.339983">
        <ele>2310.0</ele>
        <time>2017-05-24T15:27:58Z</time>
      </trkpt>
      <trkpt lat="43.048033" lon="-4.340117">
        <ele>2308.0</ele>
        <time>2017-05-24T15:27:59Z</time>
      </trkpt>
      <trkpt lat="43.048000" lon="-4.340267">
        <ele>2307.0</ele>
        <time>2017-05-24T15:28:00Z</time>
      </trkpt>
      <trkpt lat="43.047983" lon="-4.340433">
        <ele>2306.0</ele>
        <time>2017-05-24T15:28:01Z</time>
      </trkpt>
      <trkpt lat="43.047950" lon="-4.340583">
        <ele>2306.0</ele>
        <time>2017-05-24T15:28:02Z</time>
      </trkpt>
      <trkpt lat="43.047933" lon="-4.340733">
        <ele>2306.0</ele>
        <time>2017-05-24T15:28:03Z</time>
      </trkpt>
      <trkpt lat="43.047917" lon="-4.340883">
        <ele>2305.0</ele>
        <time>2017-05-24T15:28:04Z</time>
      </trkpt>
      <trkpt lat="43.047900" lon="-4.341033">
        <ele>2304.0</ele>
        <time>2017-05-24T15:28:05Z</time>
      </trkpt>
      <trkpt lat="43.047867" lon="-4.341200">
        <ele>2303.0</ele>
        <time>2017-05-24T15:28:06Z</time>
      </trkpt>
      <trkpt lat="43.047850" lon="-4.341383">
        <ele>2303.0</ele>
        <time>2017-05-24T15:28:07Z</time>
      </trkpt>
      <trkpt lat="43.047833" lon="-4.341550">
        <ele>2303.0</ele>
        <time>2017-05-24T15:28:08Z</time>
      </trkpt>
      <trkpt lat="43.047817" lon="-4.341717">
        <ele>2305.0</ele>
        <time>2017-05-24T15:28:09Z</time>
      </trkpt>
      <trkpt lat="43.047817" lon="-4.341883">
        <ele>2306.0</ele>
        <time>2017-05-24T15:28:10Z</time>
      </trkpt>
      <trkpt lat="43.047800" lon="-4.342033">
        <ele>2307.0</ele>
        <time>2017-05-24T15:28:11Z</time>
      </trkpt>
      <trkpt lat="43.047783" lon="-4.342200">
        <ele>2307.0</ele>
        <time>2017-05-24T15:28:12Z</time>
      </trkpt>
      <trkpt lat="43.047767" lon="-4.342367">
        <ele>2307.0</ele>
        <time>2017-05-24T15:28:13Z</time>
      </trkpt>
      <trkpt lat="43.047767" lon="-4.342517">
        <ele>2307.0</ele>
        <time>2017-05-24T15:28:14Z</time>
      </trkpt>
      <trkpt lat="43.047767" lon="-4.342683">
        <ele>2307.0</ele>
        <time>2017-05-24T15:28:15Z</time>
      </trkpt>
      <trkpt lat="43.047767" lon="-4.342850">
        <ele>2307.0</ele>
        <time>2017-05-24T15:28:16Z</time>
      </trkpt>
      <trkpt lat="43.047750" lon="-4.343000">
        <ele>2306.0</ele>
        <time>2017-05-24T15:28:17Z</time>
      </trkpt>
      <trkpt lat="43.047733" lon="-4.343150">
        <ele>2306.0</ele>
        <time>2017-05-24T15:28:18Z</time>
      </trkpt>
      <trkpt lat="43.047717" lon="-4.343300">
        <ele>2306.0</ele>
        <time>2017-05-24T15:28:19Z</time>
      </trkpt>
      <trkpt lat="43.047717" lon="-4.343467">
        <ele>2306.0</ele>
        <time>2017-05-24T15:28:20Z</time>
      </trkpt>
      <trkpt lat="43.047717" lon="-4.343617">
        <ele>2307.0</ele>
        <time>2017-05-24T15:28:21Z</time>
      </trkpt>
      <trkpt lat="43.047700" lon="-4.343750">
        <ele>2307.0</ele>
        <time>2017-05-24T15:28:22Z</time>
      </trkpt>
      <trkpt lat="43.047683" lon="-4.343900">
        <ele>2306.0</ele>
        <time>2017-05-24T15:28:23Z</time>
      </trkpt>
      <trkpt lat="43.047667" lon="-4.344050">
        <ele>2306.0</ele>
        <time>2017-05-24T15:28:24Z</time>
      </trkpt>
      <trkpt lat="43.047650" lon="-4.344200">
        <ele>2306.0</ele>
        <time>2017-05-24T15:28:25Z</time>
      </trkpt>
      <trkpt lat="43.047650" lon="-4.344350">
        <ele>2306.0</ele>
        <time>2017-05-24T15:28:26Z</time>
      </trkpt>
      <trkpt lat="43.047650" lon="-4.344483">
        <ele>2306.0</ele>
        <time>2017-05-24T15:28:27Z</time>
      </trkpt>
      <trkpt lat="43.047650" lon="-4.344617">
        <ele>2306.0</ele>
        <time>2017-05-24T15:28:28Z</time>
      </trkpt>
      <trkpt lat="43.047633" lon="-4.344767">
        <ele>2304.0</ele>
        <time>2017-05-24T15:28:29Z</time>
      </trkpt>
      <trkpt lat="43.047633" lon="-4.344917">
        <ele>2302.0</ele>
        <time>2017-05-24T15:28:30Z</time>
      </trkpt>
      <trkpt lat="43.047617" lon="-4.345083">
        <ele>2300.0</ele>
        <time>2017-05-24T15:28:31Z</time>
      </trkpt>
      <trkpt lat="43.047600" lon="-4.345250">
        <ele>2299.0</ele>
        <time>2017-05-24T15:28:32Z</time>
      </trkpt>
      <trkpt lat="43.047567" lon="-4.345400">
        <ele>2299.0</ele>
        <time>2017-05-24T15:28:33Z</time>
      </trkpt>
      <trkpt lat="43.047533" lon="-4.345500">
        <ele>2299.0</ele>
        <time>2017-05-24T15:28:34Z</time>
      </trkpt>
      <trkpt lat="43.047500" lon="-4.345567">
        <ele>2299.0</ele>
        <time>2017-05-24T15:28:35Z</time>
      </trkpt>
      <trkpt lat="43.047450" lon="-4.345583">
        <ele>2298.0</ele>
        <time>2017-05-24T15:28:36Z</time>
      </trkpt>
      <trkpt lat="43.047400" lon="-4.345583">
        <ele>2297.0</ele>
        <time>2017-05-24T15:28:37Z</time>
      </trkpt>
      <trkpt lat="43.047367" lon="-4.345567">
        <ele>2296.0</ele>
        <time>2017-05-24T15:28:38Z</time>
      </trkpt>
      <trkpt lat="43.047333" lon="-4.345517">
        <ele>2296.0</ele>
        <time>2017-05-24T15:28:39Z</time>
      </trkpt>
      <trkpt lat="43.047317" lon="-4.345467">
        <ele>2296.0</ele>
        <time>2017-05-24T15:28:40Z</time>
      </trkpt>
      <trkpt lat="43.047300" lon="-4.345400">
        <ele>2296.0</ele>
        <time>2017-05-24T15:28:41Z</time>
      </trkpt>
      <trkpt lat="43.047283" lon="-4.345350">
        <ele>2295.0</ele>
        <time>2017-05-24T15:28:42Z</time>
      </trkpt>
      <trkpt lat="43.047267" lon="-4.345267">
        <ele>2294.0</ele>
        <time>2017-05-24T15:28:43Z</time>
      </trkpt>
      <trkpt lat="43.047267" lon="-4.345200">
        <ele>2293.0</ele>
        <time>2017-05-24T15:28:44Z</time>
      </trkpt>
      <trkpt lat="43.047250" lon="-4.345117">
        <ele>2293.0</ele>
        <time>2017-05-24T15:28:45Z</time>
      </trkpt>
      <trkpt lat="43.047250" lon="-4.345033">
        <ele>2292.0</ele>
        <time>2017-05-24T15:28:46Z</time>
      </trkpt>
      <trkpt lat="43.047267" lon="-4.344950">
        <ele>2292.0</ele>
        <time>2017-05-24T15:28:47Z</time>
      </trkpt>
      <trkpt lat="43.047283" lon="-4.344867">
        <ele>2292.0</ele>
        <time>2017-05-24T15:28:48Z</time>
      </trkpt>
      <trkpt lat="43.047300" lon="-4.344783">
        <ele>2292.0</ele>
        <time>2017-05-24T15:28:49Z</time>
      </trkpt>
      <trkpt lat="43.047317" lon="-4.344700">
        <ele>2291.0</ele>
        <time>2017-05-24T15:28:50Z</time>
      </trkpt>
      <trkpt lat="43.047333" lon="-4.344617">
        <ele>2291.0</ele>
        <time>2017-05-24T15:28:51Z</time>
      </trkpt>
      <trkpt lat="43.047383" lon="-4.344533">
        <ele>2291.0</ele>
        <time>2017-05-24T15:28:52Z</time>
      </trkpt>
      <trkpt lat="43.047417" lon="-4.344467">
        <ele>2292.0</ele>
        <time>2017-05-24T15:28:53Z</time>
      </trkpt>
      <trkpt lat="43.047483" lon="-4.344450">
        <ele>2293.0</ele>
        <time>2017-05-24T15:28:54Z</time>
      </trkpt>
      <trkpt lat="43.047567" lon="-4.344450">
        <ele>2292.0</ele>
        <time>2017-05-24T15:28:55Z</time>
      </trkpt>
      <trkpt lat="43.047667" lon="-4.344467">
        <ele>2290.0</ele>
        <time>2017-05-24T15:28:56Z</time>
      </trkpt>
      <trkpt lat="43.047783" lon="-4.344500">
        <ele>2289.0</ele>
        <time>2017-05-24T15:28:57Z</time>
      </trkpt>
      <trkpt lat="43.047900" lon="-4.344583">
        <ele>2287.0</ele>
        <time>2017-05-24T15:28:58Z</time>
      </trkpt>
      <trkpt lat="43.048000" lon="-4.344700">
        <ele>2286.0</ele>
        <time>2017-05-24T15:28:59Z</time>
      </trkpt>
      <trkpt lat="43.048067" lon="-4.344833">
        <ele>2285.0</ele>
        <time>2017-05-24T15:29:00Z</time>
      </trkpt>
      <trkpt lat="43.048133" lon="-4.344983">
        <ele>2285.0</ele>
        <time>2017-05-24T15:29:01Z</time>
      </trkpt>
      <trkpt lat="43.048200" lon="-4.345133">
        <ele>2285.0</ele>
        <time>2017-05-24T15:29:02Z</time>
      </trkpt>
      <trkpt lat="43.048250" lon="-4.345283">
        <ele>2285.0</ele>
        <time>2017-05-24T15:29:03Z</time>
      </trkpt>
      <trkpt lat="43.048283" lon="-4.345433">
        <ele>2285.0</ele>
        <time>2017-05-24T15:29:04Z</time>
      </trkpt>
      <trkpt lat="43.048300" lon="-4.345583">
        <ele>2285.0</ele>
        <time>2017-05-24T15:29:05Z</time>
      </trkpt>
      <trkpt lat="43.048333" lon="-4.345733">
        <ele>2285.0</ele>
        <time>2017-05-24T15:29:06Z</time>
      </trkpt>
      <trkpt lat="43.048333" lon="-4.345900">
        <ele>2285.0</ele>
        <time>2017-05-24T15:29:07Z</time>
      </trkpt>
      <trkpt lat="43.048350" lon="-4.346050">
        <ele>2285.0</ele>
        <time>2017-05-24T15:29:08Z</time>
      </trkpt>
      <trkpt lat="43.048350" lon="-4.346183">
        <ele>2285.0</ele>
        <time>2017-05-24T15:29:09Z</time>
      </trkpt>
      <trkpt lat="43.048333" lon="-4.346317">
        <ele>2285.0</ele>
        <time>2017-05-24T15:29:10Z</time>
      </trkpt>
      <trkpt lat="43.048333" lon="-4.346450">
        <ele>2284.0</ele>
        <time>2017-05-24T15:29:11Z</time>
      </trkpt>
      <trkpt lat="43.048317" lon="-4.346583">
        <ele>2284.0</ele>
        <time>2017-05-24T15:29:12Z</time>
      </trkpt>
      <trkpt lat="43.048300" lon="-4.346733">
        <ele>2283.0</ele>
        <time>2017-05-24T15:29:13Z</time>
      </trkpt>
      <trkpt lat="43.048283" lon="-4.346883">
        <ele>2281.0</ele>
        <time>2017-05-24T15:29:14Z</time>
      </trkpt>
      <trkpt lat="43.048267" lon="-4.347050">
        <ele>2280.0</ele>
        <time>2017-05-24T15:29:15Z</time>
      </trkpt>
      <trkpt lat="43.048250" lon="-4.347217">
        <ele>2279.0</ele>
        <time>2017-05-24T15:29:16Z</time>
      </trkpt>
      <trkpt lat="43.048233" lon="-4.347383">
        <ele>2279.0</ele>
        <time>2017-05-24T15:29:17Z</time>
      </trkpt>
      <trkpt lat="43.048233" lon="-4.347533">
        <ele>2279.0</ele>
        <time>2017-05-24T15:29:18Z</time>
      </trkpt>
      <trkpt lat="43.048217" lon="-4.347683">
        <ele>2279.0</ele>
        <time>2017-05-24T15:29:19Z</time>
      </trkpt>
      <trkpt lat="43.048217" lon="-4.347833">
        <ele>2279.0</ele>
        <time>2017-05-24T15:29:20Z</time>
      </trkpt>
      <trkpt lat="43.048200" lon="-4.347967">
        <ele>2278.0</ele>
        <time>2017-05-24T15:29:21Z</time>
      </trkpt>
      <trkpt lat="43.048167" lon="-4.348117">
        <ele>2277.0</ele>
        <time>2017-05-24T15:29:22Z</time>
      </trkpt>
      <trkpt lat="43.048150" lon="-4.348267">
        <ele>2276.0</ele>
        <time>2017-05-24T15:29:23Z</time>
      </trkpt>
      <trkpt lat="43.048117" lon="-4.348417">
        <ele>2275.0</ele>
        <time>2017-05-24T15:29:24Z</time>
      </trkpt>
      <trkpt lat="43.048100" lon="-4.348567">
        <ele>2275.0</ele>
        <time>2017-05-24T15:29:25Z</time>
      </trkpt>
      <trkpt lat="43.048083" lon="-4.348717">
        <ele>2275.0</ele>
        <time>2017-05-24T15:29:26Z</time>
      </trkpt>
      <trkpt lat="43.048067" lon="-4.348867">
        <ele>2274.0</ele>
        <time>2017-05-24T15:29:27Z</time>
      </trkpt>
      <trkpt lat="43.048050" lon="-4.349017">
        <ele>2274.0</ele>
        <time>2017-05-24T15:29:28Z</time>
      </trkpt>
      <trkpt lat="43.048033" lon="-4.349167">
        <ele>2274.0</ele>
        <time>2017-05-24T15:29:29Z</time>
      </trkpt>
      <trkpt lat="43.048017" lon="-4.349300">
        <ele>2273.0</ele>
        <time>2017-05-24T15:29:30Z</time>
      </trkpt>
      <trkpt lat="43.047983" lon="-4.349450">
        <ele>2273.0</ele>
        <time>2017-05-24T15:29:31Z</time>
      </trkpt>
      <trkpt lat="43.047967" lon="-4.349600">
        <ele>2272.0</ele>
        <time>2017-05-24T15:29:32Z</time>
      </trkpt>
      <trkpt lat="43.047950" lon="-4.349750">
        <ele>2272.0</ele>
        <time>2017-05-24T15:29:33Z</time>
      </trkpt>
      <trkpt lat="43.047917" lon="-4.349900">
        <ele>2271.0</ele>
        <time>2017-05-24T15:29:34Z</time>
      </trkpt>
      <trkpt lat="43.047900" lon="-4.350050">
        <ele>2271.0</ele>
        <time>2017-05-24T15:29:35Z</time>
      </trkpt>
      <trkpt lat="43.047867" lon="-4.350183">
        <ele>2270.0</ele>
        <time>2017-05-24T15:29:36Z</time>
      </trkpt>
      <trkpt lat="43.047850" lon="-4.350333">
        <ele>2270.0</ele>
        <time>2017-05-24T15:29:37Z</time>
      </trkpt>
      <trkpt lat="43.047817" lon="-4.350467">
        <ele>2269.0</ele>
        <time>2017-05-24T15:29:38Z</time>
      </trkpt>
      <trkpt lat="43.047783" lon="-4.350600">
        <ele>2269.0</ele>
        <time>2017-05-24T15:29:39Z</time>
      </trkpt>
      <trkpt lat="43.047750" lon="-4.350733">
        <ele>2268.0</ele>
        <time>2017-05-24T15:29:40Z</time>
      </trkpt>
      <trkpt lat="43.047717" lon="-4.350867">
        <ele>2268.0</ele>
        <time>2017-05-24T15:29:41Z</time>
      </trkpt>
      <trkpt lat="43.047683" lon="-4.351000">
        <ele>2267.0</ele>
        <time>2017-05-24T15:29:42Z</time>
      </trkpt>
      <trkpt lat="43.047650" lon="-4.351117">
        <ele>2267.0</ele>
        <time>2017-05-24T15:29:43Z</time>
      </trkpt>
      <trkpt lat="43.047617" lon="-4.351250">
        <ele>2266.0</ele>
        <time>2017-05-24T15:29:44Z</time>
      </trkpt>
      <trkpt lat="43.047583" lon="-4.351400">
        <ele>2266.0</ele>
        <time>2017-05-24T15:29:45Z</time>
      </trkpt>
      <trkpt lat="43.047550" lon="-4.351533">
        <ele>2267.0</ele>
        <time>2017-05-24T15:29:46Z</time>
      </trkpt>
      <trkpt lat="43.047533" lon="-4.351667">
        <ele>2267.0</ele>
        <time>2017-05-24T15:29:47Z</time>
      </trkpt>
      <trkpt lat="43.047500" lon="-4.351800">
        <ele>2267.0</ele>
        <time>2017-05-24T15:29:48Z</time>
      </trkpt>
      <trkpt lat="43.047467" lon="-4.351933">
        <ele>2267.0</ele>
        <time>2017-05-24T15:29:49Z</time>
      </trkpt>
      <trkpt lat="43.047433" lon="-4.352083">
        <ele>2266.0</ele>
        <time>2017-05-24T15:29:50Z</time>
      </trkpt>
      <trkpt lat="43.047400" lon="-4.352233">
        <ele>2267.0</ele>
        <time>2017-05-24T15:29:51Z</time>
      </trkpt>
      <trkpt lat="43.047367" lon="-4.352367">
        <ele>2267.0</ele>
        <time>2017-05-24T15:29:52Z</time>
      </trkpt>
      <trkpt lat="43.047333" lon="-4.352500">
        <ele>2268.0</ele>
        <time>2017-05-24T15:29:53Z</time>
      </trkpt>
      <trkpt lat="43.047317" lon="-4.352633">
        <ele>2268.0</ele>
        <time>2017-05-24T15:29:54Z</time>
      </trkpt>
      <trkpt lat="43.047283" lon="-4.352767">
        <ele>2268.0</ele>
        <time>2017-05-24T15:29:55Z</time>
      </trkpt>
      <trkpt lat="43.047250" lon="-4.352917">
        <ele>2267.0</ele>
        <time>2017-05-24T15:29:56Z</time>
      </trkpt>
      <trkpt lat="43.047233" lon="-4.353050">
        <ele>2267.0</ele>
        <time>2017-05-24T15:29:57Z</time>
      </trkpt>
      <trkpt lat="43.047200" lon="-4.353200">
        <ele>2267.0</ele>
        <time>2017-05-24T15:29:58Z</time>
      </trkpt>
      <trkpt lat="43.047150" lon="-4.353333">
        <ele>2267.0</ele>
        <time>2017-05-24T15:29:59Z</time>
      </trkpt>
      <trkpt lat="43.047117" lon="-4.353467">
        <ele>2267.0</ele>
        <time>2017-05-24T15:30:00Z</time>
      </trkpt>
      <trkpt lat="43.047067" lon="-4.353617">
        <ele>2268.0</ele>
        <time>2017-05-24T15:30:01Z</time>
      </trkpt>
      <trkpt lat="43.047050" lon="-4.353750">
        <ele>2268.0</ele>
        <time>2017-05-24T15:30:02Z</time>
      </trkpt>
      <trkpt lat="43.047017" lon="-4.353900">
        <ele>2268.0</ele>
        <time>2017-05-24T15:30:03Z</time>
      </trkpt>
      <trkpt lat="43.046983" lon="-4.354033">
        <ele>2268.0</ele>
        <time>2017-05-24T15:30:04Z</time>
      </trkpt>
      <trkpt lat="43.046933" lon="-4.354167">
        <ele>2268.0</ele>
        <time>2017-05-24T15:30:05Z</time>
      </trkpt>
      <trkpt lat="43.046883" lon="-4.354317">
        <ele>2269.0</ele>
        <time>2017-05-24T15:30:06Z</time>
      </trkpt>
      <trkpt lat="43.046850" lon="-4.354450">
        <ele>2270.0</ele>
        <time>2017-05-24T15:30:07Z</time>
      </trkpt>
      <trkpt lat="43.046833" lon="-4.354583">
        <ele>2271.0</ele>
        <time>2017-05-24T15:30:08Z</time>
      </trkpt>
      <trkpt lat="43.046800" lon="-4.354717">
        <ele>2270.0</ele>
        <time>2017-05-24T15:30:09Z</time>
      </trkpt>
      <trkpt lat="43.046767" lon="-4.354867">
        <ele>2269.0</ele>
        <time>2017-05-24T15:30:10Z</time>
      </trkpt>
      <trkpt lat="43.046750" lon="-4.355017">
        <ele>2269.0</ele>
        <time>2017-05-24T15:30:11Z</time>
      </trkpt>
      <trkpt lat="43.046717" lon="-4.355183">
        <ele>2268.0</ele>
        <time>2017-05-24T15:30:12Z</time>
      </trkpt>
      <trkpt lat="43.046717" lon="-4.355350">
        <ele>2269.0</ele>
        <time>2017-05-24T15:30:13Z</time>
      </trkpt>
      <trkpt lat="43.046700" lon="-4.355517">
        <ele>2269.0</ele>
        <time>2017-05-24T15:30:14Z</time>
      </trkpt>
      <trkpt lat="43.046683" lon="-4.355667">
        <ele>2268.0</ele>
        <time>2017-05-24T15:30:15Z</time>
      </trkpt>
      <trkpt lat="43.046683" lon="-4.355833">
        <ele>2267.0</ele>
        <time>2017-05-24T15:30:16Z</time>
      </trkpt>
      <trkpt lat="43.046667" lon="-4.356000">
        <ele>2266.0</ele>
        <time>2017-05-24T15:30:17Z</time>
      </trkpt>
      <trkpt lat="43.046667" lon="-4.356183">
        <ele>2266.0</ele>
        <time>2017-05-24T15:30:18Z</time>
      </trkpt>
      <trkpt lat="43.046667" lon="-4.356350">
        <ele>2266.0</ele>
        <time>2017-05-24T15:30:19Z</time>
      </trkpt>
      <trkpt lat="43.046650" lon="-4.356517">
        <ele>2266.0</ele>
        <time>2017-05-24T15:30:20Z</time>
      </trkpt>
      <trkpt lat="43.046633" lon="-4.356683">
        <ele>2266.0</ele>
        <time>2017-05-24T15:30:21Z</time>
      </trkpt>
      <trkpt lat="43.046633" lon="-4.356850">
        <ele>2266.0</ele>
        <time>2017-05-24T15:30:22Z</time>
      </trkpt>
      <trkpt lat="43.046633" lon="-4.357017">
        <ele>2266.0</ele>
        <time>2017-05-24T15:30:23Z</time>
      </trkpt>
      <trkpt lat="43.046633" lon="-4.357200">
        <ele>2266.0</ele>
        <time>2017-05-24T15:30:24Z</time>
      </trkpt>
      <trkpt lat="43.046650" lon="-4.357383">
        <ele>2266.0</ele>
        <time>2017-05-24T15:30:25Z</time>
      </trkpt>
      <trkpt lat="43.046650" lon="-4.357550">
        <ele>2266.0</ele>
        <time>2017-05-24T15:30:26Z</time>
      </trkpt>
      <trkpt lat="43.046650" lon="-4.357717">
        <ele>2265.0</ele>
        <time>2017-05-24T15:30:27Z</time>
      </trkpt>
      <trkpt lat="43.046650" lon="-4.357883">
        <ele>2265.0</ele>
        <time>2017-05-24T15:30:28Z</time>
      </trkpt>
      <trkpt lat="43.046650" lon="-4.358050">
        <ele>2265.0</ele>
        <time>2017-05-24T15:30:29Z</time>
      </trkpt>
      <trkpt lat="43.046650" lon="-4.358217">
        <ele>2265.0</ele>
        <time>2017-05-24T15:30:30Z</time>
      </trkpt>
      <trkpt lat="43.046650" lon="-4.358383">
        <ele>2264.0</ele>
        <time>2017-05-24T15:30:31Z</time>
      </trkpt>
      <trkpt lat="43.046650" lon="-4.358550">
        <ele>2263.0</ele>
        <time>2017-05-24T15:30:32Z</time>
      </trkpt>
      <trkpt lat="43.046667" lon="-4.358717">
        <ele>2261.0</ele>
        <time>2017-05-24T15:30:33Z</time>
      </trkpt>
      <trkpt lat="43.046667" lon="-4.358900">
        <ele>2260.0</ele>
        <time>2017-05-24T15:30:34Z</time>
      </trkpt>
      <trkpt lat="43.046667" lon="-4.359067">
        <ele>2259.0</ele>
        <time>2017-05-24T15:30:35Z</time>
      </trkpt>
      <trkpt lat="43.046667" lon="-4.359267">
        <ele>2259.0</ele>
        <time>2017-05-24T15:30:36Z</time>
      </trkpt>
      <trkpt lat="43.046667" lon="-4.359450">
        <ele>2259.0</ele>
        <time>2017-05-24T15:30:37Z</time>
      </trkpt>
      <trkpt lat="43.046683" lon="-4.359650">
        <ele>2260.0</ele>
        <time>2017-05-24T15:30:38Z</time>
      </trkpt>
      <trkpt lat="43.046700" lon="-4.359817">
        <ele>2261.0</ele>
        <time>2017-05-24T15:30:39Z</time>
      </trkpt>
      <trkpt lat="43.046700" lon="-4.360000">
        <ele>2262.0</ele>
        <time>2017-05-24T15:30:40Z</time>
      </trkpt>
      <trkpt lat="43.046717" lon="-4.360167">
        <ele>2263.0</ele>
        <time>2017-05-24T15:30:41Z</time>
      </trkpt>
      <trkpt lat="43.046733" lon="-4.360367">
        <ele>2263.0</ele>
        <time>2017-05-24T15:30:42Z</time>
      </trkpt>
      <trkpt lat="43.046767" lon="-4.360567">
        <ele>2263.0</ele>
        <time>2017-05-24T15:30:43Z</time>
      </trkpt>
      <trkpt lat="43.046800" lon="-4.360750">
        <ele>2264.0</ele>
        <time>2017-05-24T15:30:44Z</time>
      </trkpt>
      <trkpt lat="43.046817" lon="-4.360950">
        <ele>2265.0</ele>
        <time>2017-05-24T15:30:45Z</time>
      </trkpt>
      <trkpt lat="43.046817" lon="-4.361117">
        <ele>2267.0</ele>
        <time>2017-05-24T15:30:46Z</time>
      </trkpt>
      <trkpt lat="43.046833" lon="-4.361300">
        <ele>2268.0</ele>
        <time>2017-05-24T15:30:47Z</time>
      </trkpt>
      <trkpt lat="43.046833" lon="-4.361483">
        <ele>2269.0</ele>
        <time>2017-05-24T15:30:48Z</time>
      </trkpt>
      <trkpt lat="43.046833" lon="-4.361667">
        <ele>2270.0</ele>
        <time>2017-05-24T15:30:49Z</time>
      </trkpt>
      <trkpt lat="43.046833" lon="-4.361850">
        <ele>2271.0</ele>
        <time>2017-05-24T15:30:50Z</time>
      </trkpt>
      <trkpt lat="43.046833" lon="-4.362050">
        <ele>2272.0</ele>
        <time>2017-05-24T15:30:51Z</time>
      </trkpt>
      <trkpt lat="43.046833" lon="-4.362233">
        <ele>2272.0</ele>
        <time>2017-05-24T15:30:52Z</time>
      </trkpt>
      <trkpt lat="43.046850" lon="-4.362400">
        <ele>2273.0</ele>
        <time>2017-05-24T15:30:53Z</time>
      </trkpt>
      <trkpt lat="43.046867" lon="-4.362567">
        <ele>2272.0</ele>
        <time>2017-05-24T15:30:54Z</time>
      </trkpt>
      <trkpt lat="43.046883" lon="-4.362717">
        <ele>2271.0</ele>
        <time>2017-05-24T15:30:55Z</time>
      </trkpt>
      <trkpt lat="43.046917" lon="-4.362883">
        <ele>2269.0</ele>
        <time>2017-05-24T15:30:56Z</time>
      </trkpt>
      <trkpt lat="43.046917" lon="-4.363067">
        <ele>2266.0</ele>
        <time>2017-05-24T15:30:57Z</time>
      </trkpt>
      <trkpt lat="43.046933" lon="-4.363250">
        <ele>2264.0</ele>
        <time>2017-05-24T15:30:58Z</time>
      </trkpt>
      <trkpt lat="43.046950" lon="-4.363433">
        <ele>2263.0</ele>
        <time>2017-05-24T15:30:59Z</time>
      </trkpt>
      <trkpt lat="43.046950" lon="-4.363600">
        <ele>2263.0</ele>
        <time>2017-05-24T15:31:00Z</time>
      </trkpt>
      <trkpt lat="43.046967" lon="-4.363750">
        <ele>2262.0</ele>
        <time>2017-05-24T15:31:01Z</time>
      </trkpt>
      <trkpt lat="43.046983" lon="-4.363917">
        <ele>2261.0</ele>
        <time>2017-05-24T15:31:02Z</time>
      </trkpt>
      <trkpt lat="43.046983" lon="-4.364083">
        <ele>2259.0</ele>
        <time>2017-05-24T15:31:03Z</time>
      </trkpt>
      <trkpt lat="43.046983" lon="-4.364267">
        <ele>2256.0</ele>
        <time>2017-05-24T15:31:04Z</time>
      </trkpt>
      <trkpt lat="43.046983" lon="-4.364450">
        <ele>2255.0</ele>
        <time>2017-05-24T15:31:05Z</time>
      </trkpt>
      <trkpt lat="43.046983" lon="-4.364633">
        <ele>2254.0</ele>
        <time>2017-05-24T15:31:06Z</time>
      </trkpt>
      <trkpt lat="43.047000" lon="-4.364800">
        <ele>2253.0</ele>
        <time>2017-05-24T15:31:07Z</time>
      </trkpt>
      <trkpt lat="43.047017" lon="-4.364950">
        <ele>2251.0</ele>
        <time>2017-05-24T15:31:08Z</time>
      </trkpt>
      <trkpt lat="43.047017" lon="-4.365133">
        <ele>2249.0</ele>
        <time>2017-05-24T15:31:09Z</time>
      </trkpt>
      <trkpt lat="43.047033" lon="-4.365317">
        <ele>2247.0</ele>
        <time>2017-05-24T15:31:10Z</time>
      </trkpt>
      <trkpt lat="43.047033" lon="-4.365500">
        <ele>2245.0</ele>
        <time>2017-05-24T15:31:11Z</time>
      </trkpt>
      <trkpt lat="43.047050" lon="-4.365667">
        <ele>2244.0</ele>
        <time>2017-05-24T15:31:12Z</time>
      </trkpt>
      <trkpt lat="43.047067" lon="-4.365833">
        <ele>2242.0</ele>
        <time>2017-05-24T15:31:13Z</time>
      </trkpt>
      <trkpt lat="43.047083" lon="-4.366000">
        <ele>2240.0</ele>
        <time>2017-05-24T15:31:14Z</time>
      </trkpt>
      <trkpt lat="43.047083" lon="-4.366167">
        <ele>2239.0</ele>
        <time>2017-05-24T15:31:15Z</time>
      </trkpt>
      <trkpt lat="43.047100" lon="-4.366333">
        <ele>2237.0</ele>
        <time>2017-05-24T15:31:16Z</time>
      </trkpt>
      <trkpt lat="43.047133" lon="-4.366500">
        <ele>2235.0</ele>
        <time>2017-05-24T15:31:17Z</time>
      </trkpt>
      <trkpt lat="43.047150" lon="-4.366667">
        <ele>2234.0</ele>
        <time>2017-05-24T15:31:18Z</time>
      </trkpt>
      <trkpt lat="43.047167" lon="-4.366833">
        <ele>2232.0</ele>
        <time>2017-05-24T15:31:19Z</time>
      </trkpt>
      <trkpt lat="43.047183" lon="-4.367000">
        <ele>2231.0</ele>
        <time>2017-05-24T15:31:20Z</time>
      </trkpt>
      <trkpt lat="43.047200" lon="-4.367167">
        <ele>2230.0</ele>
        <time>2017-05-24T15:31:21Z</time>
      </trkpt>
      <trkpt lat="43.047217" lon="-4.367317">
        <ele>2228.0</ele>
        <time>2017-05-24T15:31:22Z</time>
      </trkpt>
      <trkpt lat="43.047200" lon="-4.367483">
        <ele>2227.0</ele>
        <time>2017-05-24T15:31:23Z</time>
      </trkpt>
      <trkpt lat="43.047200" lon="-4.367650">
        <ele>2225.0</ele>
        <time>2017-05-24T15:31:24Z</time>
      </trkpt>
      <trkpt lat="43.047183" lon="-4.367817">
        <ele>2223.0</ele>
        <time>2017-05-24T15:31:25Z</time>
      </trkpt>
      <trkpt lat="43.047167" lon="-4.367967">
        <ele>2222.0</ele>
        <time>2017-05-24T15:31:26Z</time>
      </trkpt>
      <trkpt lat="43.047133" lon="-4.368133">
        <ele>2221.0</ele>
        <time>2017-05-24T15:31:27Z</time>
      </trkpt>
      <trkpt lat="43.047117" lon="-4.368283">
        <ele>2219.0</ele>
        <time>2017-05-24T15:31:28Z</time>
      </trkpt>
      <trkpt lat="43.047100" lon="-4.368450">
        <ele>2218.0</ele>
        <time>2017-05-24T15:31:29Z</time>
      </trkpt>
      <trkpt lat="43.047083" lon="-4.368600">
        <ele>2216.0</ele>
        <time>2017-05-24T15:31:30Z</time>
      </trkpt>
      <trkpt lat="43.047067" lon="-4.368767">
        <ele>2215.0</ele>
        <time>2017-05-24T15:31:31Z</time>
      </trkpt>
      <trkpt lat="43.047067" lon="-4.368917">
        <ele>2214.0</ele>
        <time>2017-05-24T15:31:32Z</time>
      </trkpt>
      <trkpt lat="43.047050" lon="-4.369083">
        <ele>2213.0</ele>
        <time>2017-05-24T15:31:33Z</time>
      </trkpt>
      <trkpt lat="43.047033" lon="-4.369250">
        <ele>2212.0</ele>
        <time>2017-05-24T15:31:34Z</time>
      </trkpt>
      <trkpt lat="43.047033" lon="-4.369417">
        <ele>2212.0</ele>
        <time>2017-05-24T15:31:35Z</time>
      </trkpt>
      <trkpt lat="43.047017" lon="-4.369567">
        <ele>2211.0</ele>
        <time>2017-05-24T15:31:36Z</time>
      </trkpt>
      <trkpt lat="43.047000" lon="-4.369733">
        <ele>2209.0</ele>
        <time>2017-05-24T15:31:37Z</time>
      </trkpt>
      <trkpt lat="43.046983" lon="-4.369883">
        <ele>2208.0</ele>
        <time>2017-05-24T15:31:38Z</time>
      </trkpt>
      <trkpt lat="43.046983" lon="-4.370050">
        <ele>2207.0</ele>
        <time>2017-05-24T15:31:39Z</time>
      </trkpt>
      <trkpt lat="43.046967" lon="-4.370233">
        <ele>2205.0</ele>
        <time>2017-05-24T15:31:40Z</time>
      </trkpt>
      <trkpt lat="43.046983" lon="-4.370383">
        <ele>2204.0</ele>
        <time>2017-05-24T15:31:41Z</time>
      </trkpt>
      <trkpt lat="43.046983" lon="-4.370550">
        <ele>2203.0</ele>
        <time>2017-05-24T15:31:42Z</time>
      </trkpt>
      <trkpt lat="43.046967" lon="-4.370700">
        <ele>2202.0</ele>
        <time>2017-05-24T15:31:43Z</time>
      </trkpt>
      <trkpt lat="43.046967" lon="-4.370850">
        <ele>2200.0</ele>
        <time>2017-05-24T15:31:44Z</time>
      </trkpt>
      <trkpt lat="43.046967" lon="-4.371017">
        <ele>2198.0</ele>
        <time>2017-05-24T15:31:45Z</time>
      </trkpt>
      <trkpt lat="43.046983" lon="-4.371183">
        <ele>2197.0</ele>
        <time>2017-05-24T15:31:46Z</time>
      </trkpt>
      <trkpt lat="43.046983" lon="-4.371350">
        <ele>2195.0</ele>
        <time>2017-05-24T15:31:47Z</time>
      </trkpt>
      <trkpt lat="43.046983" lon="-4.371533">
        <ele>2195.0</ele>
        <time>2017-05-24T15:31:48Z</time>
      </trkpt>
      <trkpt lat="43.046983" lon="-4.371700">
        <ele>2194.0</ele>
        <time>2017-05-24T15:31:49Z</time>
      </trkpt>
      <trkpt lat="43.046983" lon="-4.371850">
        <ele>2194.0</ele>
        <time>2017-05-24T15:31:50Z</time>
      </trkpt>
      <trkpt lat="43.047000" lon="-4.372017">
        <ele>2194.0</ele>
        <time>2017-05-24T15:31:51Z</time>
      </trkpt>
      <trkpt lat="43.047000" lon="-4.372167">
        <ele>2194.0</ele>
        <time>2017-05-24T15:31:52Z</time>
      </trkpt>
      <trkpt lat="43.047017" lon="-4.372317">
        <ele>2192.0</ele>
        <time>2017-05-24T15:31:53Z</time>
      </trkpt>
      <trkpt lat="43.047000" lon="-4.372483">
        <ele>2191.0</ele>
        <time>2017-05-24T15:31:54Z</time>
      </trkpt>
      <trkpt lat="43.047000" lon="-4.372667">
        <ele>2189.0</ele>
        <time>2017-05-24T15:31:55Z</time>
      </trkpt>
      <trkpt lat="43.047000" lon="-4.372850">
        <ele>2189.0</ele>
        <time>2017-05-24T15:31:56Z</time>
      </trkpt>
      <trkpt lat="43.047000" lon="-4.373017">
        <ele>2189.0</ele>
        <time>2017-05-24T15:31:57Z</time>
      </trkpt>
      <trkpt lat="43.047000" lon="-4.373183">
        <ele>2190.0</ele>
        <time>2017-05-24T15:31:58Z</time>
      </trkpt>
      <trkpt lat="43.047000" lon="-4.373350">
        <ele>2190.0</ele>
        <time>2017-05-24T15:31:59Z</time>
      </trkpt>
      <trkpt lat="43.047017" lon="-4.373500">
        <ele>2190.0</ele>
        <time>2017-05-24T15:32:00Z</time>
      </trkpt>
      <trkpt lat="43.047017" lon="-4.373667">
        <ele>2189.0</ele>
        <time>2017-05-24T15:32:01Z</time>
      </trkpt>
      <trkpt lat="43.047017" lon="-4.373833">
        <ele>2189.0</ele>
        <time>2017-05-24T15:32:02Z</time>
      </trkpt>
      <trkpt lat="43.047017" lon="-4.374017">
        <ele>2190.0</ele>
        <time>2017-05-24T15:32:03Z</time>
      </trkpt>
      <trkpt lat="43.046983" lon="-4.374183">
        <ele>2192.0</ele>
        <time>2017-05-24T15:32:04Z</time>
      </trkpt>
      <trkpt lat="43.046967" lon="-4.374333">
        <ele>2195.0</ele>
        <time>2017-05-24T15:32:05Z</time>
      </trkpt>
      <trkpt lat="43.046950" lon="-4.374483">
        <ele>2198.0</ele>
        <time>2017-05-24T15:32:06Z</time>
      </trkpt>
      <trkpt lat="43.046950" lon="-4.374633">
        <ele>2200.0</ele>
        <time>2017-05-24T15:32:07Z</time>
      </trkpt>
      <trkpt lat="43.046933" lon="-4.374767">
        <ele>2202.0</ele>
        <time>2017-05-24T15:32:08Z</time>
      </trkpt>
      <trkpt lat="43.046917" lon="-4.374933">
        <ele>2203.0</ele>
        <time>2017-05-24T15:32:09Z</time>
      </trkpt>
      <trkpt lat="43.046867" lon="-4.375100">
        <ele>2204.0</ele>
        <time>2017-05-24T15:32:10Z</time>
      </trkpt>
      <trkpt lat="43.046833" lon="-4.375267">
        <ele>2206.0</ele>
        <time>2017-05-24T15:32:11Z</time>
      </trkpt>
      <trkpt lat="43.046817" lon="-4.375417">
        <ele>2209.0</ele>
        <time>2017-05-24T15:32:12Z</time>
      </trkpt>
      <trkpt lat="43.046800" lon="-4.375567">
        <ele>2213.0</ele>
        <time>2017-05-24T15:32:13Z</time>
      </trkpt>
      <trkpt lat="43.046800" lon="-4.375717">
        <ele>2215.0</ele>
        <time>2017-05-24T15:32:14Z</time>
      </trkpt>
      <trkpt lat="43.046783" lon="-4.375883">
        <ele>2218.0</ele>
        <time>2017-05-24T15:32:15Z</time>
      </trkpt>
      <trkpt lat="43.046767" lon="-4.376033">
        <ele>2221.0</ele>
        <time>2017-05-24T15:32:16Z</time>
      </trkpt>
      <trkpt lat="43.046750" lon="-4.376167">
        <ele>2226.0</ele>
        <time>2017-05-24T15:32:17Z</time>
      </trkpt>
      <trkpt lat="43.046733" lon="-4.376267">
        <ele>2229.0</ele>
        <time>2017-05-24T15:32:18Z</time>
      </trkpt>
      <trkpt lat="43.046717" lon="-4.376367">
        <ele>2232.0</ele>
        <time>2017-05-24T15:32:19Z</time>
      </trkpt>
      <trkpt lat="43.046683" lon="-4.376483">
        <ele>2233.0</ele>
        <time>2017-05-24T15:32:20Z</time>
      </trkpt>
      <trkpt lat="43.046650" lon="-4.376600">
        <ele>2232.0</ele>
        <time>2017-05-24T15:32:21Z</time>
      </trkpt>
      <trkpt lat="43.046583" lon="-4.376700">
        <ele>2233.0</ele>
        <time>2017-05-24T15:32:22Z</time>
      </trkpt>
      <trkpt lat="43.046533" lon="-4.376750">
        <ele>2234.0</ele>
        <time>2017-05-24T15:32:23Z</time>
      </trkpt>
      <trkpt lat="43.046483" lon="-4.376767">
        <ele>2235.0</ele>
        <time>2017-05-24T15:32:24Z</time>
      </trkpt>
      <trkpt lat="43.046467" lon="-4.376767">
        <ele>2236.0</ele>
        <time>2017-05-24T15:32:25Z</time>
      </trkpt>
      <trkpt lat="43.046450" lon="-4.376750">
        <ele>2235.0</ele>
        <time>2017-05-24T15:32:26Z</time>
      </trkpt>
      <trkpt lat="43.046433" lon="-4.376717">
        <ele>2233.0</ele>
        <time>2017-05-24T15:32:27Z</time>
      </trkpt>
      <trkpt lat="43.046450" lon="-4.376667">
        <ele>2233.0</ele>
        <time>2017-05-24T15:32:28Z</time>
      </trkpt>
      <trkpt lat="43.046483" lon="-4.376633">
        <ele>2232.0</ele>
        <time>2017-05-24T15:32:29Z</time>
      </trkpt>
      <trkpt lat="43.046550" lon="-4.376600">
        <ele>2231.0</ele>
        <time>2017-05-24T15:32:30Z</time>
      </trkpt>
      <trkpt lat="43.046650" lon="-4.376583">
        <ele>2231.0</ele>
        <time>2017-05-24T15:32:31Z</time>
      </trkpt>
      <trkpt lat="43.046767" lon="-4.376633">
        <ele>2232.0</ele>
        <time>2017-05-24T15:32:32Z</time>
      </trkpt>
      <trkpt lat="43.046867" lon="-4.376717">
        <ele>2233.0</ele>
        <time>2017-05-24T15:32:33Z</time>
      </trkpt>
      <trkpt lat="43.046950" lon="-4.376867">
        <ele>2236.0</ele>
        <time>2017-05-24T15:32:34Z</time>
      </trkpt>
      <trkpt lat="43.047000" lon="-4.377033">
        <ele>2239.0</ele>
        <time>2017-05-24T15:32:35Z</time>
      </trkpt>
      <trkpt lat="43.047017" lon="-4.377183">
        <ele>2242.0</ele>
        <time>2017-05-24T15:32:36Z</time>
      </trkpt>
      <trkpt lat="43.047033" lon="-4.377333">
        <ele>2245.0</ele>
        <time>2017-05-24T15:32:37Z</time>
      </trkpt>
      <trkpt lat="43.047050" lon="-4.377483">
        <ele>2248.0</ele>
        <time>2017-05-24T15:32:38Z</time>
      </trkpt>
      <trkpt lat="43.047083" lon="-4.377633">
        <ele>2251.0</ele>
        <time>2017-05-24T15:32:39Z</time>
      </trkpt>
      <trkpt lat="43.047100" lon="-4.377800">
        <ele>2254.0</ele>
        <time>2017-05-24T15:32:40Z</time>
      </trkpt>
      <trkpt lat="43.047100" lon="-4.377950">
        <ele>2255.0</ele>
        <time>2017-05-24T15:32:41Z</time>
      </trkpt>
      <trkpt lat="43.047083" lon="-4.378083">
        <ele>2256.0</ele>
        <time>2017-05-24T15:32:42Z</time>
      </trkpt>
      <trkpt lat="43.047050" lon="-4.378200">
        <ele>2256.0</ele>
        <time>2017-05-24T15:32:43Z</time>
      </trkpt>
      <trkpt lat="43.047017" lon="-4.378317">
        <ele>2256.0</ele>
        <time>2017-05-24T15:32:44Z</time>
      </trkpt>
      <trkpt lat="43.046967" lon="-4.378417">
        <ele>2256.0</ele>
        <time>2017-05-24T15:32:45Z</time>
      </trkpt>
      <trkpt lat="43.046900" lon="-4.378467">
        <ele>2255.0</ele>
        <time>2017-05-24T15:32:46Z</time>
      </trkpt>
      <trkpt lat="43.046850" lon="-4.378467">
        <ele>2254.0</ele>
        <time>2017-05-24T15:32:47Z</time>
      </trkpt>
      <trkpt lat="43.046817" lon="-4.378417">
        <ele>2253.0</ele>
        <time>2017-05-24T15:32:48Z</time>
      </trkpt>
      <trkpt lat="43.046817" lon="-4.378367">
        <ele>2254.0</ele>
        <time>2017-05-24T15:32:49Z</time>
      </trkpt>
      <trkpt lat="43.046867" lon="-4.378333">
        <ele>2255.0</ele>
        <time>2017-05-24T15:32:50Z</time>
      </trkpt>
      <trkpt lat="43.046933" lon="-4.378333">
        <ele>2255.0</ele>
        <time>2017-05-24T15:32:51Z</time>
      </trkpt>
      <trkpt lat="43.047017" lon="-4.378333">
        <ele>2255.0</ele>
        <time>2017-05-24T15:32:52Z</time>
      </trkpt>
      <trkpt lat="43.047100" lon="-4.378333">
        <ele>2255.0</ele>
        <time>2017-05-24T15:32:53Z</time>
      </trkpt>
      <trkpt lat="43.047200" lon="-4.378333">
        <ele>2258.0</ele>
        <time>2017-05-24T15:32:54Z</time>
      </trkpt>
      <trkpt lat="43.047283" lon="-4.378367">
        <ele>2260.0</ele>
        <time>2017-05-24T15:32:55Z</time>
      </trkpt>
      <trkpt lat="43.047367" lon="-4.378450">
        <ele>2261.0</ele>
        <time>2017-05-24T15:32:56Z</time>
      </trkpt>
      <trkpt lat="43.047450" lon="-4.378583">
        <ele>2261.0</ele>
        <time>2017-05-24T15:32:57Z</time>
      </trkpt>
      <trkpt lat="43.047533" lon="-4.378733">
        <ele>2263.0</ele>
        <time>2017-05-24T15:32:58Z</time>
      </trkpt>
      <trkpt lat="43.047600" lon="-4.378900">
        <ele>2267.0</ele>
        <time>2017-05-24T15:32:59Z</time>
      </trkpt>
      <trkpt lat="43.047667" lon="-4.379050">
        <ele>2271.0</ele>
        <time>2017-05-24T15:33:00Z</time>
      </trkpt>
      <trkpt lat="43.047700" lon="-4.379183">
        <ele>2274.0</ele>
        <time>2017-05-24T15:33:01Z</time>
      </trkpt>
      <trkpt lat="43.047750" lon="-4.379317">
        <ele>2277.0</ele>
        <time>2017-05-24T15:33:02Z</time>
      </trkpt>
      <trkpt lat="43.047783" lon="-4.379450">
        <ele>2278.0</ele>
        <time>2017-05-24T15:33:03Z</time>
      </trkpt>
      <trkpt lat="43.047800" lon="-4.379617">
        <ele>2278.0</ele>
        <time>2017-05-24T15:33:04Z</time>
      </trkpt>
      <trkpt lat="43.047833" lon="-4.379767">
        <ele>2279.0</ele>
        <time>2017-05-24T15:33:05Z</time>
      </trkpt>
      <trkpt lat="43.047850" lon="-4.379917">
        <ele>2280.0</ele>
        <time>2017-05-24T15:33:06Z</time>
      </trkpt>
      <trkpt lat="43.047850" lon="-4.380067">
        <ele>2280.0</ele>
        <time>2017-05-24T15:33:07Z</time>
      </trkpt>
      <trkpt lat="43.047850" lon="-4.380217">
        <ele>2280.0</ele>
        <time>2017-05-24T15:33:08Z</time>
      </trkpt>
      <trkpt lat="43.047833" lon="-4.380367">
        <ele>2280.0</ele>
        <time>2017-05-24T15:33:09Z</time>
      </trkpt>
      <trkpt lat="43.047800" lon="-4.380500">
        <ele>2280.0</ele>
        <time>2017-05-24T15:33:10Z</time>
      </trkpt>
      <trkpt lat="43.047783" lon="-4.380617">
        <ele>2280.0</ele>
        <time>2017-05-24T15:33:11Z</time>
      </trkpt>
      <trkpt lat="43.047750" lon="-4.380733">
        <ele>2280.0</ele>
        <time>2017-05-24T15:33:12Z</time>
      </trkpt>
      <trkpt lat="43.047717" lon="-4.380867">
        <ele>2279.0</ele>
        <time>2017-05-24T15:33:13Z</time>
      </trkpt>
      <trkpt lat="43.047683" lon="-4.380983">
        <ele>2278.0</ele>
        <time>2017-05-24T15:33:14Z</time>
      </trkpt>
      <trkpt lat="43.047633" lon="-4.381117">
        <ele>2278.0</ele>
        <time>2017-05-24T15:33:15Z</time>
      </trkpt>
      <trkpt lat="43.047600" lon="-4.381250">
        <ele>2277.0</ele>
        <time>2017-05-24T15:33:16Z</time>
      </trkpt>
      <trkpt lat="43.047567" lon="-4.381383">
        <ele>2277.0</ele>
        <time>2017-05-24T15:33:17Z</time>
      </trkpt>
      <trkpt lat="43.047533" lon="-4.381500">
        <ele>2277.0</ele>
        <time>2017-05-24T15:33:18Z</time>
      </trkpt>
      <trkpt lat="43.047500" lon="-4.381633">
        <ele>2276.0</ele>
        <time>2017-05-24T15:33:19Z</time>
      </trkpt>
      <trkpt lat="43.047433" lon="-4.381767">
        <ele>2275.0</ele>
        <time>2017-05-24T15:33:20Z</time>
      </trkpt>
      <trkpt lat="43.047383" lon="-4.381883">
        <ele>2274.0</ele>
        <time>2017-05-24T15:33:21Z</time>
      </trkpt>
      <trkpt lat="43.047317" lon="-4.381983">
        <ele>2274.0</ele>
        <time>2017-05-24T15:33:22Z</time>
      </trkpt>
      <trkpt lat="43.047267" lon="-4.382083">
        <ele>2274.0</ele>
        <time>2017-05-24T15:33:23Z</time>
      </trkpt>
      <trkpt lat="43.047217" lon="-4.382217">
        <ele>2274.0</ele>
        <time>2017-05-24T15:33:24Z</time>
      </trkpt>
      <trkpt lat="43.047183" lon="-4.382350">
        <ele>2273.0</ele>
        <time>2017-05-24T15:33:25Z</time>
      </trkpt>
      <trkpt lat="43.047150" lon="-4.382483">
        <ele>2272.0</ele>
        <time>2017-05-24T15:33:26Z</time>
      </trkpt>
      <trkpt lat="43.047133" lon="-4.382617">
        <ele>2272.0</ele>
        <time>2017-05-24T15:33:27Z</time>
      </trkpt>
      <trkpt lat="43.047117" lon="-4.382750">
        <ele>2272.0</ele>
        <time>2017-05-24T15:33:28Z</time>
      </trkpt>
      <trkpt lat="43.047133" lon="-4.382883">
        <ele>2271.0</ele>
        <time>2017-05-24T15:33:29Z</time>
      </trkpt>
      <trkpt lat="43.047117" lon="-4.383033">
        <ele>2269.0</ele>
        <time>2017-05-24T15:33:30Z</time>
      </trkpt>
      <trkpt lat="43.047117" lon="-4.383183">
        <ele>2268.0</ele>
        <time>2017-05-24T15:33:31Z</time>
      </trkpt>
      <trkpt lat="43.047117" lon="-4.383350">
        <ele>2269.0</ele>
        <time>2017-05-24T15:33:32Z</time>
      </trkpt>
      <trkpt lat="43.047117" lon="-4.383533">
        <ele>2268.0</ele>
        <time>2017-05-24T15:33:33Z</time>
      </trkpt>
      <trkpt lat="43.047100" lon="-4.383717">
        <ele>2270.0</ele>
        <time>2017-05-24T15:33:34Z</time>
      </trkpt>
      <trkpt lat="43.047100" lon="-4.383900">
        <ele>2271.0</ele>
        <time>2017-05-24T15:33:35Z</time>
      </trkpt>
      <trkpt lat="43.047100" lon="-4.384067">
        <ele>2272.0</ele>
        <time>2017-05-24T15:33:36Z</time>
      </trkpt>
      <trkpt lat="43.047083" lon="-4.384217">
        <ele>2272.0</ele>
        <time>2017-05-24T15:33:37Z</time>
      </trkpt>
      <trkpt lat="43.047083" lon="-4.384367">
        <ele>2273.0</ele>
        <time>2017-05-24T15:33:38Z</time>
      </trkpt>
      <trkpt lat="43.047083" lon="-4.384517">
        <ele>2273.0</ele>
        <time>2017-05-24T15:33:39Z</time>
      </trkpt>
      <trkpt lat="43.047067" lon="-4.384667">
        <ele>2273.0</ele>
        <time>2017-05-24T15:33:40Z</time>
      </trkpt>
      <trkpt lat="43.047033" lon="-4.384833">
        <ele>2273.0</ele>
        <time>2017-05-24T15:33:41Z</time>
      </trkpt>
      <trkpt lat="43.047017" lon="-4.384983">
        <ele>2273.0</ele>
        <time>2017-05-24T15:33:42Z</time>
      </trkpt>
      <trkpt lat="43.047000" lon="-4.385150">
        <ele>2273.0</ele>
        <time>2017-05-24T15:33:43Z</time>
      </trkpt>
      <trkpt lat="43.047000" lon="-4.385333">
        <ele>2273.0</ele>
        <time>2017-05-24T15:33:44Z</time>
      </trkpt>
      <trkpt lat="43.046983" lon="-4.385500">
        <ele>2274.0</ele>
        <time>2017-05-24T15:33:45Z</time>
      </trkpt>
      <trkpt lat="43.046950" lon="-4.385683">
        <ele>2274.0</ele>
        <time>2017-05-24T15:33:46Z</time>
      </trkpt>
      <trkpt lat="43.046900" lon="-4.385833">
        <ele>2275.0</ele>
        <time>2017-05-24T15:33:47Z</time>
      </trkpt>
      <trkpt lat="43.046850" lon="-4.386000">
        <ele>2277.0</ele>
        <time>2017-05-24T15:33:48Z</time>
      </trkpt>
      <trkpt lat="43.046817" lon="-4.386167">
        <ele>2279.0</ele>
        <time>2017-05-24T15:33:49Z</time>
      </trkpt>
      <trkpt lat="43.046783" lon="-4.386317">
        <ele>2281.0</ele>
        <time>2017-05-24T15:33:50Z</time>
      </trkpt>
      <trkpt lat="43.046750" lon="-4.386483">
        <ele>2282.0</ele>
        <time>2017-05-24T15:33:51Z</time>
      </trkpt>
      <trkpt lat="43.046717" lon="-4.386633">
        <ele>2283.0</ele>
        <time>2017-05-24T15:33:52Z</time>
      </trkpt>
      <trkpt lat="43.046683" lon="-4.386800">
        <ele>2284.0</ele>
        <time>2017-05-24T15:33:53Z</time>
      </trkpt>
      <trkpt lat="43.046667" lon="-4.386950">
        <ele>2285.0</ele>
        <time>2017-05-24T15:33:54Z</time>
      </trkpt>
      <trkpt lat="43.046633" lon="-4.387083">
        <ele>2285.0</ele>
        <time>2017-05-24T15:33:55Z</time>
      </trkpt>
      <trkpt lat="43.046600" lon="-4.387217">
        <ele>2285.0</ele>
        <time>2017-05-24T15:33:56Z</time>
      </trkpt>
      <trkpt lat="43.046567" lon="-4.387350">
        <ele>2284.0</ele>
        <time>2017-05-24T15:33:57Z</time>
      </trkpt>
      <trkpt lat="43.046533" lon="-4.387483">
        <ele>2283.0</ele>
        <time>2017-05-24T15:33:58Z</time>
      </trkpt>
      <trkpt lat="43.046483" lon="-4.387617">
        <ele>2281.0</ele>
        <time>2017-05-24T15:33:59Z</time>
      </trkpt>
      <trkpt lat="43.046433" lon="-4.387750">
        <ele>2280.0</ele>
        <time>2017-05-24T15:34:00Z</time>
      </trkpt>
      <trkpt lat="43.046367" lon="-4.387867">
        <ele>2278.0</ele>
        <time>2017-05-24T15:34:01Z</time>
      </trkpt>
      <trkpt lat="43.046300" lon="-4.387983">
        <ele>2276.0</ele>
        <time>2017-05-24T15:34:02Z</time>
      </trkpt>
      <trkpt lat="43.046233" lon="-4.388083">
        <ele>2276.0</ele>
        <time>2017-05-24T15:34:03Z</time>
      </trkpt>
      <trkpt lat="43.046200" lon="-4.388167">
        <ele>2276.0</ele>
        <time>2017-05-24T15:34:04Z</time>
      </trkpt>
      <trkpt lat="43.046167" lon="-4.388267">
        <ele>2274.0</ele>
        <time>2017-05-24T15:34:05Z</time>
      </trkpt>
      <trkpt lat="43.046133" lon="-4.388383">
        <ele>2273.0</ele>
        <time>2017-05-24T15:34:06Z</time>
      </trkpt>
      <trkpt lat="43.046100" lon="-4.388500">
        <ele>2271.0</ele>
        <time>2017-05-24T15:34:07Z</time>
      </trkpt>
      <trkpt lat="43.046033" lon="-4.388617">
        <ele>2269.0</ele>
        <time>2017-05-24T15:34:08Z</time>
      </trkpt>
      <trkpt lat="43.045983" lon="-4.388750">
        <ele>2267.0</ele>
        <time>2017-05-24T15:34:09Z</time>
      </trkpt>
      <trkpt lat="43.045950" lon="-4.388867">
        <ele>2266.0</ele>
        <time>2017-05-24T15:34:10Z</time>
      </trkpt>
      <trkpt lat="43.045917" lon="-4.389017">
        <ele>2266.0</ele>
        <time>2017-05-24T15:34:11Z</time>
      </trkpt>
      <trkpt lat="43.045900" lon="-4.389167">
        <ele>2266.0</ele>
        <time>2017-05-24T15:34:12Z</time>
      </trkpt>
      <trkpt lat="43.045867" lon="-4.389300">
        <ele>2265.0</ele>
        <time>2017-05-24T15:34:13Z</time>
      </trkpt>
      <trkpt lat="43.045817" lon="-4.389433">
        <ele>2264.0</ele>
        <time>2017-05-24T15:34:14Z</time>
      </trkpt>
      <trkpt lat="43.045767" lon="-4.389567">
        <ele>2262.0</ele>
        <time>2017-05-24T15:34:15Z</time>
      </trkpt>
      <trkpt lat="43.045717" lon="-4.389683">
        <ele>2262.0</ele>
        <time>2017-05-24T15:34:16Z</time>
      </trkpt>
      <trkpt lat="43.045683" lon="-4.389817">
        <ele>2261.0</ele>
        <time>2017-05-24T15:34:17Z</time>
      </trkpt>
      <trkpt lat="43.045650" lon="-4.389950">
        <ele>2259.0</ele>
        <time>2017-05-24T15:34:18Z</time>
      </trkpt>
      <trkpt lat="43.045633" lon="-4.390083">
        <ele>2257.0</ele>
        <time>2017-05-24T15:34:19Z</time>
      </trkpt>
      <trkpt lat="43.045583" lon="-4.390200">
        <ele>2254.0</ele>
        <time>2017-05-24T15:34:20Z</time>
      </trkpt>
      <trkpt lat="43.045550" lon="-4.390333">
        <ele>2251.0</ele>
        <time>2017-05-24T15:34:21Z</time>
      </trkpt>
      <trkpt lat="43.045500" lon="-4.390467">
        <ele>2251.0</ele>
        <time>2017-05-24T15:34:22Z</time>
      </trkpt>
      <trkpt lat="43.045483" lon="-4.390617">
        <ele>2251.0</ele>
        <time>2017-05-24T15:34:23Z</time>
      </trkpt>
      <trkpt lat="43.045467" lon="-4.390750">
        <ele>2251.0</ele>
        <time>2017-05-24T15:34:24Z</time>
      </trkpt>
      <trkpt lat="43.045433" lon="-4.390900">
        <ele>2251.0</ele>
        <time>2017-05-24T15:34:25Z</time>
      </trkpt>
      <trkpt lat="43.045400" lon="-4.391050">
        <ele>2250.0</ele>
        <time>2017-05-24T15:34:26Z</time>
      </trkpt>
      <trkpt lat="43.045367" lon="-4.391183">
        <ele>2251.0</ele>
        <time>2017-05-24T15:34:27Z</time>
      </trkpt>
      <trkpt lat="43.045317" lon="-4.391333">
        <ele>2252.0</ele>
        <time>2017-05-24T15:34:28Z</time>
      </trkpt>
      <trkpt lat="43.045283" lon="-4.391467">
        <ele>2253.0</ele>
        <time>2017-05-24T15:34:29Z</time>
      </trkpt>
      <trkpt lat="43.045267" lon="-4.391600">
        <ele>2254.0</ele>
        <time>2017-05-24T15:34:30Z</time>
      </trkpt>
      <trkpt lat="43.045233" lon="-4.391733">
        <ele>2254.0</ele>
        <time>2017-05-24T15:34:31Z</time>
      </trkpt>
      <trkpt lat="43.045183" lon="-4.391867">
        <ele>2254.0</ele>
        <time>2017-05-24T15:34:32Z</time>
      </trkpt>
      <trkpt lat="43.045167" lon="-4.392017">
        <ele>2254.0</ele>
        <time>2017-05-24T15:34:33Z</time>
      </trkpt>
      <trkpt lat="43.045133" lon="-4.392150">
        <ele>2254.0</ele>
        <time>2017-05-24T15:34:34Z</time>
      </trkpt>
      <trkpt lat="43.045117" lon="-4.392283">
        <ele>2255.0</ele>
        <time>2017-05-24T15:34:35Z</time>
      </trkpt>
      <trkpt lat="43.045100" lon="-4.392400">
        <ele>2254.0</ele>
        <time>2017-05-24T15:34:36Z</time>
      </trkpt>
      <trkpt lat="43.045067" lon="-4.392533">
        <ele>2253.0</ele>
        <time>2017-05-24T15:34:37Z</time>
      </trkpt>
      <trkpt lat="43.045033" lon="-4.392650">
        <ele>2251.0</ele>
        <time>2017-05-24T15:34:38Z</time>
      </trkpt>
      <trkpt lat="43.044983" lon="-4.392783">
        <ele>2250.0</ele>
        <time>2017-05-24T15:34:39Z</time>
      </trkpt>
      <trkpt lat="43.044933" lon="-4.392917">
        <ele>2248.0</ele>
        <time>2017-05-24T15:34:40Z</time>
      </trkpt>
      <trkpt lat="43.044867" lon="-4.393033">
        <ele>2248.0</ele>
        <time>2017-05-24T15:34:41Z</time>
      </trkpt>
      <trkpt lat="43.044817" lon="-4.393133">
        <ele>2248.0</ele>
        <time>2017-05-24T15:34:42Z</time>
      </trkpt>
      <trkpt lat="43.044767" lon="-4.393250">
        <ele>2248.0</ele>
        <time>2017-05-24T15:34:43Z</time>
      </trkpt>
      <trkpt lat="43.044750" lon="-4.393367">
        <ele>2248.0</ele>
        <time>2017-05-24T15:34:44Z</time>
      </trkpt>
      <trkpt lat="43.044733" lon="-4.393483">
        <ele>2247.0</ele>
        <time>2017-05-24T15:34:45Z</time>
      </trkpt>
      <trkpt lat="43.044700" lon="-4.393583">
        <ele>2244.0</ele>
        <time>2017-05-24T15:34:46Z</time>
      </trkpt>
      <trkpt lat="43.044633" lon="-4.393683">
        <ele>2242.0</ele>
        <time>2017-05-24T15:34:47Z</time>
      </trkpt>
      <trkpt lat="43.044583" lon="-4.393783">
        <ele>2240.0</ele>
        <time>2017-05-24T15:34:48Z</time>
      </trkpt>
      <trkpt lat="43.044517" lon="-4.393867">
        <ele>2241.0</ele>
        <time>2017-05-24T15:34:49Z</time>
      </trkpt>
      <trkpt lat="43.044467" lon="-4.393917">
        <ele>2241.0</ele>
        <time>2017-05-24T15:34:50Z</time>
      </trkpt>
      <trkpt lat="43.044433" lon="-4.393950">
        <ele>2240.0</ele>
        <time>2017-05-24T15:34:51Z</time>
      </trkpt>
      <trkpt lat="43.044383" lon="-4.393967">
        <ele>2239.0</ele>
        <time>2017-05-24T15:34:52Z</time>
      </trkpt>
      <trkpt lat="43.044333" lon="-4.393983">
        <ele>2237.0</ele>
        <time>2017-05-24T15:34:53Z</time>
      </trkpt>
      <trkpt lat="43.044267" lon="-4.393983">
        <ele>2235.0</ele>
        <time>2017-05-24T15:34:54Z</time>
      </trkpt>
      <trkpt lat="43.044217" lon="-4.393967">
        <ele>2234.0</ele>
        <time>2017-05-24T15:34:55Z</time>
      </trkpt>
      <trkpt lat="43.044150" lon="-4.393933">
        <ele>2232.0</ele>
        <time>2017-05-24T15:34:56Z</time>
      </trkpt>
      <trkpt lat="43.044117" lon="-4.393917">
        <ele>2231.0</ele>
        <time>2017-05-24T15:34:57Z</time>
      </trkpt>
      <trkpt lat="43.044067" lon="-4.393867">
        <ele>2231.0</ele>
        <time>2017-05-24T15:34:58Z</time>
      </trkpt>
      <trkpt lat="43.044033" lon="-4.393833">
        <ele>2231.0</ele>
        <time>2017-05-24T15:34:59Z</time>
      </trkpt>
      <trkpt lat="43.044000" lon="-4.393800">
        <ele>2232.0</ele>
        <time>2017-05-24T15:35:00Z</time>
      </trkpt>
      <trkpt lat="43.043983" lon="-4.393767">
        <ele>2231.0</ele>
        <time>2017-05-24T15:35:01Z</time>
      </trkpt>
      <trkpt lat="43.043967" lon="-4.393717">
        <ele>2229.0</ele>
        <time>2017-05-24T15:35:02Z</time>
      </trkpt>
      <trkpt lat="43.043950" lon="-4.393683">
        <ele>2228.0</ele>
        <time>2017-05-24T15:35:03Z</time>
      </trkpt>
      <trkpt lat="43.043950" lon="-4.393617">
        <ele>2227.0</ele>
        <time>2017-05-24T15:35:04Z</time>
      </trkpt>
      <trkpt lat="43.043967" lon="-4.393567">
        <ele>2226.0</ele>
        <time>2017-05-24T15:35:05Z</time>
      </trkpt>
      <trkpt lat="43.043983" lon="-4.393517">
        <ele>2225.0</ele>
        <time>2017-05-24T15:35:06Z</time>
      </trkpt>
      <trkpt lat="43.044017" lon="-4.393450">
        <ele>2224.0</ele>
        <time>2017-05-24T15:35:07Z</time>
      </trkpt>
      <trkpt lat="43.044033" lon="-4.393383">
        <ele>2222.0</ele>
        <time>2017-05-24T15:35:08Z</time>
      </trkpt>
      <trkpt lat="43.044083" lon="-4.393317">
        <ele>2220.0</ele>
        <time>2017-05-24T15:35:09Z</time>
      </trkpt>
      <trkpt lat="43.044117" lon="-4.393233">
        <ele>2218.0</ele>
        <time>2017-05-24T15:35:10Z</time>
      </trkpt>
      <trkpt lat="43.044167" lon="-4.393167">
        <ele>2216.0</ele>
        <time>2017-05-24T15:35:11Z</time>
      </trkpt>
      <trkpt lat="43.044217" lon="-4.393083">
        <ele>2215.0</ele>
        <time>2017-05-24T15:35:12Z</time>
      </trkpt>
      <trkpt lat="43.044250" lon="-4.393033">
        <ele>2214.0</ele>
        <time>2017-05-24T15:35:13Z</time>
      </trkpt>
      <trkpt lat="43.044283" lon="-4.392967">
        <ele>2213.0</ele>
        <time>2017-05-24T15:35:14Z</time>
      </trkpt>
      <trkpt lat="43.044317" lon="-4.392917">
        <ele>2212.0</ele>
        <time>2017-05-24T15:35:15Z</time>
      </trkpt>
      <trkpt lat="43.044367" lon="-4.392850">
        <ele>2210.0</ele>
        <time>2017-05-24T15:35:16Z</time>
      </trkpt>
      <trkpt lat="43.044400" lon="-4.392783">
        <ele>2207.0</ele>
        <time>2017-05-24T15:35:17Z</time>
      </trkpt>
      <trkpt lat="43.044433" lon="-4.392700">
        <ele>2205.0</ele>
        <time>2017-05-24T15:35:18Z</time>
      </trkpt>
      <trkpt lat="43.044450" lon="-4.392617">
        <ele>2203.0</ele>
        <time>2017-05-24T15:35:19Z</time>
      </trkpt>
      <trkpt lat="43.044467" lon="-4.392550">
        <ele>2202.0</ele>
        <time>2017-05-24T15:35:20Z</time>
      </trkpt>
      <trkpt lat="43.044500" lon="-4.392483">
        <ele>2202.0</ele>
        <time>2017-05-24T15:35:21Z</time>
      </trkpt>
      <trkpt lat="43.044533" lon="-4.392433">
        <ele>2201.0</ele>
        <time>2017-05-24T15:35:22Z</time>
      </trkpt>
      <trkpt lat="43.044567" lon="-4.392383">
        <ele>2200.0</ele>
        <time>2017-05-24T15:35:23Z</time>
      </trkpt>
      <trkpt lat="43.044583" lon="-4.392333">
        <ele>2198.0</ele>
        <time>2017-05-24T15:35:24Z</time>
      </trkpt>
      <trkpt lat="43.044600" lon="-4.392267">
        <ele>2196.0</ele>
        <time>2017-05-24T15:35:25Z</time>
      </trkpt>
      <trkpt lat="43.044633" lon="-4.392200">
        <ele>2193.0</ele>
        <time>2017-05-24T15:35:26Z</time>
      </trkpt>
      <trkpt lat="43.044683" lon="-4.392133">
        <ele>2192.0</ele>
        <time>2017-05-24T15:35:27Z</time>
      </trkpt>
      <trkpt lat="43.044733" lon="-4.392067">
        <ele>2191.0</ele>
        <time>2017-05-24T15:35:28Z</time>
      </trkpt>
      <trkpt lat="43.044767" lon="-4.392017">
        <ele>2190.0</ele>
        <time>2017-05-24T15:35:29Z</time>
      </trkpt>
      <trkpt lat="43.044817" lon="-4.391967">
        <ele>2191.0</ele>
        <time>2017-05-24T15:35:30Z</time>
      </trkpt>
      <trkpt lat="43.044833" lon="-4.391917">
        <ele>2190.0</ele>
        <time>2017-05-24T15:35:31Z</time>
      </trkpt>
      <trkpt lat="43.044883" lon="-4.391850">
        <ele>2188.0</ele>
        <time>2017-05-24T15:35:32Z</time>
      </trkpt>
      <trkpt lat="43.044917" lon="-4.391783">
        <ele>2186.0</ele>
        <time>2017-05-24T15:35:33Z</time>
      </trkpt>
      <trkpt lat="43.044950" lon="-4.391700">
        <ele>2184.0</ele>
        <time>2017-05-24T15:35:34Z</time>
      </trkpt>
      <trkpt lat="43.044967" lon="-4.391633">
        <ele>2184.0</ele>
        <time>2017-05-24T15:35:35Z</time>
      </trkpt>
      <trkpt lat="43.044983" lon="-4.391600">
        <ele>2183.0</ele>
        <time>2017-05-24T15:35:36Z</time>
      </trkpt>
      <trkpt lat="43.044967" lon="-4.391567">
        <ele>2182.0</ele>
        <time>2017-05-24T15:35:37Z</time>
      </trkpt>
      <trkpt lat="43.044950" lon="-4.391550">
        <ele>2180.0</ele>
        <time>2017-05-24T15:35:38Z</time>
      </trkpt>
      <trkpt lat="43.044917" lon="-4.391567">
        <ele>2177.0</ele>
        <time>2017-05-24T15:35:39Z</time>
      </trkpt>
      <trkpt lat="43.044850" lon="-4.391617">
        <ele>2174.0</ele>
        <time>2017-05-24T15:35:40Z</time>
      </trkpt>
      <trkpt lat="43.044783" lon="-4.391700">
        <ele>2171.0</ele>
        <time>2017-05-24T15:35:41Z</time>
      </trkpt>
      <trkpt lat="43.044733" lon="-4.391850">
        <ele>2169.0</ele>
        <time>2017-05-24T15:35:42Z</time>
      </trkpt>
      <trkpt lat="43.044733" lon="-4.392033">
        <ele>2168.0</ele>
        <time>2017-05-24T15:35:43Z</time>
      </trkpt>
      <trkpt lat="43.044750" lon="-4.392200">
        <ele>2168.0</ele>
        <time>2017-05-24T15:35:44Z</time>
      </trkpt>
      <trkpt lat="43.044783" lon="-4.392350">
        <ele>2168.0</ele>
        <time>2017-05-24T15:35:45Z</time>
      </trkpt>
      <trkpt lat="43.044817" lon="-4.392517">
        <ele>2167.0</ele>
        <time>2017-05-24T15:35:46Z</time>
      </trkpt>
      <trkpt lat="43.044850" lon="-4.392683">
        <ele>2166.0</ele>
        <time>2017-05-24T15:35:47Z</time>
      </trkpt>
      <trkpt lat="43.044883" lon="-4.392850">
        <ele>2165.0</ele>
        <time>2017-05-24T15:35:48Z</time>
      </trkpt>
      <trkpt lat="43.044900" lon="-4.393033">
        <ele>2164.0</ele>
        <time>2017-05-24T15:35:49Z</time>
      </trkpt>
      <trkpt lat="43.044933" lon="-4.393200">
        <ele>2163.0</ele>
        <time>2017-05-24T15:35:50Z</time>
      </trkpt>
      <trkpt lat="43.044933" lon="-4.393367">
        <ele>2162.0</ele>
        <time>2017-05-24T15:35:51Z</time>
      </trkpt>
      <trkpt lat="43.044950" lon="-4.393517">
        <ele>2161.0</ele>
        <time>2017-05-24T15:35:52Z</time>
      </trkpt>
      <trkpt lat="43.044950" lon="-4.393683">
        <ele>2161.0</ele>
        <time>2017-05-24T15:35:53Z</time>
      </trkpt>
      <trkpt lat="43.044950" lon="-4.393850">
        <ele>2160.0</ele>
        <time>2017-05-24T15:35:54Z</time>
      </trkpt>
      <trkpt lat="43.044950" lon="-4.394000">
        <ele>2160.0</ele>
        <time>2017-05-24T15:35:55Z</time>
      </trkpt>
      <trkpt lat="43.044933" lon="-4.394150">
        <ele>2160.0</ele>
        <time>2017-05-24T15:35:56Z</time>
      </trkpt>
      <trkpt lat="43.044917" lon="-4.394300">
        <ele>2159.0</ele>
        <time>2017-05-24T15:35:57Z</time>
      </trkpt>
      <trkpt lat="43.044883" lon="-4.394417">
        <ele>2158.0</ele>
        <time>2017-05-24T15:35:58Z</time>
      </trkpt>
      <trkpt lat="43.044850" lon="-4.394550">
        <ele>2157.0</ele>
        <time>2017-05-24T15:35:59Z</time>
      </trkpt>
      <trkpt lat="43.044800" lon="-4.394683">
        <ele>2156.0</ele>
        <time>2017-05-24T15:36:00Z</time>
      </trkpt>
      <trkpt lat="43.044767" lon="-4.394817">
        <ele>2155.0</ele>
        <time>2017-05-24T15:36:01Z</time>
      </trkpt>
      <trkpt lat="43.044733" lon="-4.394967">
        <ele>2154.0</ele>
        <time>2017-05-24T15:36:02Z</time>
      </trkpt>
      <trkpt lat="43.044717" lon="-4.395100">
        <ele>2153.0</ele>
        <time>2017-05-24T15:36:03Z</time>
      </trkpt>
      <trkpt lat="43.044683" lon="-4.395250">
        <ele>2153.0</ele>
        <time>2017-05-24T15:36:04Z</time>
      </trkpt>
      <trkpt lat="43.044650" lon="-4.395400">
        <ele>2152.0</ele>
        <time>2017-05-24T15:36:05Z</time>
      </trkpt>
      <trkpt lat="43.044600" lon="-4.395567">
        <ele>2151.0</ele>
        <time>2017-05-24T15:36:06Z</time>
      </trkpt>
      <trkpt lat="43.044550" lon="-4.395717">
        <ele>2150.0</ele>
        <time>2017-05-24T15:36:07Z</time>
      </trkpt>
      <trkpt lat="43.044500" lon="-4.395867">
        <ele>2150.0</ele>
        <time>2017-05-24T15:36:08Z</time>
      </trkpt>
      <trkpt lat="43.044467" lon="-4.396000">
        <ele>2150.0</ele>
        <time>2017-05-24T15:36:09Z</time>
      </trkpt>
      <trkpt lat="43.044433" lon="-4.396100">
        <ele>2150.0</ele>
        <time>2017-05-24T15:36:10Z</time>
      </trkpt>
      <trkpt lat="43.044400" lon="-4.396183">
        <ele>2150.0</ele>
        <time>2017-05-24T15:36:11Z</time>
      </trkpt>
      <trkpt lat="43.044350" lon="-4.396233">
        <ele>2147.0</ele>
        <time>2017-05-24T15:36:12Z</time>
      </trkpt>
      <trkpt lat="43.044300" lon="-4.396250">
        <ele>2144.0</ele>
        <time>2017-05-24T15:36:13Z</time>
      </trkpt>
      <trkpt lat="43.044250" lon="-4.396267">
        <ele>2142.0</ele>
        <time>2017-05-24T15:36:14Z</time>
      </trkpt>
      <trkpt lat="43.044200" lon="-4.396250">
        <ele>2141.0</ele>
        <time>2017-05-24T15:36:15Z</time>
      </trkpt>
      <trkpt lat="43.044167" lon="-4.396233">
        <ele>2139.0</ele>
        <time>2017-05-24T15:36:16Z</time>
      </trkpt>
      <trkpt lat="43.044133" lon="-4.396200">
        <ele>2138.0</ele>
        <time>2017-05-24T15:36:17Z</time>
      </trkpt>
      <trkpt lat="43.044100" lon="-4.396183">
        <ele>2137.0</ele>
        <time>2017-05-24T15:36:18Z</time>
      </trkpt>
      <trkpt lat="43.044083" lon="-4.396150">
        <ele>2137.0</ele>
        <time>2017-05-24T15:36:19Z</time>
      </trkpt>
      <trkpt lat="43.044100" lon="-4.396117">
        <ele>2135.0</ele>
        <time>2017-05-24T15:36:20Z</time>
      </trkpt>
      <trkpt lat="43.044117" lon="-4.396067">
        <ele>2134.0</ele>
        <time>2017-05-24T15:36:21Z</time>
      </trkpt>
      <trkpt lat="43.044133" lon="-4.396033">
        <ele>2133.0</ele>
        <time>2017-05-24T15:36:22Z</time>
      </trkpt>
      <trkpt lat="43.044167" lon="-4.395983">
        <ele>2133.0</ele>
        <time>2017-05-24T15:36:23Z</time>
      </trkpt>
      <trkpt lat="43.044200" lon="-4.395933">
        <ele>2132.0</ele>
        <time>2017-05-24T15:36:24Z</time>
      </trkpt>
      <trkpt lat="43.044233" lon="-4.395900">
        <ele>2132.0</ele>
        <time>2017-05-24T15:36:25Z</time>
      </trkpt>
      <trkpt lat="43.044250" lon="-4.395867">
        <ele>2132.0</ele>
        <time>2017-05-24T15:36:26Z</time>
      </trkpt>
      <trkpt lat="43.044250" lon="-4.395817">
        <ele>2132.0</ele>
        <time>2017-05-24T15:36:27Z</time>
      </trkpt>
      <trkpt lat="43.044250" lon="-4.395783">
        <ele>2131.0</ele>
        <time>2017-05-24T15:36:28Z</time>
      </trkpt>
      <trkpt lat="43.044233" lon="-4.395733">
        <ele>2131.0</ele>
        <time>2017-05-24T15:36:29Z</time>
      </trkpt>
      <trkpt lat="43.044217" lon="-4.395717">
        <ele>2131.0</ele>
        <time>2017-05-24T15:36:30Z</time>
      </trkpt>
      <trkpt lat="43.044200" lon="-4.395683">
        <ele>2131.0</ele>
        <time>2017-05-24T15:36:31Z</time>
      </trkpt>
      <trkpt lat="43.044183" lon="-4.395650">
        <ele>2131.0</ele>
        <time>2017-05-24T15:36:32Z</time>
      </trkpt>
      <trkpt lat="43.044183" lon="-4.395617">
        <ele>2132.0</ele>
        <time>2017-05-24T15:36:33Z</time>
      </trkpt>
      <trkpt lat="43.044183" lon="-4.395567">
        <ele>2132.0</ele>
        <time>2017-05-24T15:36:34Z</time>
      </trkpt>
      <trkpt lat="43.044217" lon="-4.395533">
        <ele>2131.0</ele>
        <time>2017-05-24T15:36:35Z</time>
      </trkpt>
      <trkpt lat="43.044250" lon="-4.395483">
        <ele>2130.0</ele>
        <time>2017-05-24T15:36:36Z</time>
      </trkpt>
      <trkpt lat="43.044283" lon="-4.395433">
        <ele>2129.0</ele>
        <time>2017-05-24T15:36:37Z</time>
      </trkpt>
      <trkpt lat="43.044283" lon="-4.395367">
        <ele>2128.0</ele>
        <time>2017-05-24T15:36:38Z</time>
      </trkpt>
      <trkpt lat="43.044267" lon="-4.395317">
        <ele>2128.0</ele>
        <time>2017-05-24T15:36:39Z</time>
      </trkpt>
      <trkpt lat="43.044217" lon="-4.395283">
        <ele>2129.0</ele>
        <time>2017-05-24T15:36:40Z</time>
      </trkpt>
      <trkpt lat="43.044167" lon="-4.395250">
        <ele>2130.0</ele>
        <time>2017-05-24T15:36:41Z</time>
      </trkpt>
      <trkpt lat="43.044133" lon="-4.395267">
        <ele>2132.0</ele>
        <time>2017-05-24T15:36:42Z</time>
      </trkpt>
      <trkpt lat="43.044083" lon="-4.395283">
        <ele>2133.0</ele>
        <time>2017-05-24T15:36:43Z</time>
      </trkpt>
      <trkpt lat="43.044033" lon="-4.395300">
        <ele>2133.0</ele>
        <time>2017-05-24T15:36:44Z</time>
      </trkpt>
      <trkpt lat="43.043983" lon="-4.395333">
        <ele>2132.0</ele>
        <time>2017-05-24T15:36:45Z</time>
      </trkpt>
      <trkpt lat="43.043917" lon="-4.395333">
        <ele>2132.0</ele>
        <time>2017-05-24T15:36:46Z</time>
      </trkpt>
      <trkpt lat="43.043850" lon="-4.395333">
        <ele>2132.0</ele>
        <time>2017-05-24T15:36:47Z</time>
      </trkpt>
      <trkpt lat="43.043783" lon="-4.395317">
        <ele>2133.0</ele>
        <time>2017-05-24T15:36:48Z</time>
      </trkpt>
      <trkpt lat="43.043750" lon="-4.395300">
        <ele>2136.0</ele>
        <time>2017-05-24T15:36:49Z</time>
      </trkpt>
      <trkpt lat="43.043717" lon="-4.395300">
        <ele>2138.0</ele>
        <time>2017-05-24T15:36:50Z</time>
      </trkpt>
      <trkpt lat="43.043717" lon="-4.395283">
        <ele>2139.0</ele>
        <time>2017-05-24T15:36:51Z</time>
      </trkpt>
      <trkpt lat="43.043700" lon="-4.395250">
        <ele>2138.0</ele>
        <time>2017-05-24T15:36:52Z</time>
      </trkpt>
      <trkpt lat="43.043683" lon="-4.395200">
        <ele>2136.0</ele>
        <time>2017-05-24T15:36:53Z</time>
      </trkpt>
      <trkpt lat="43.043683" lon="-4.395133">
        <ele>2136.0</ele>
        <time>2017-05-24T15:36:54Z</time>
      </trkpt>
      <trkpt lat="43.043700" lon="-4.395100">
        <ele>2136.0</ele>
        <time>2017-05-24T15:36:55Z</time>
      </trkpt>
      <trkpt lat="43.043750" lon="-4.395067">
        <ele>2136.0</ele>
        <time>2017-05-24T15:36:56Z</time>
      </trkpt>
      <trkpt lat="43.043800" lon="-4.395033">
        <ele>2135.0</ele>
        <time>2017-05-24T15:36:57Z</time>
      </trkpt>
      <trkpt lat="43.043850" lon="-4.395000">
        <ele>2134.0</ele>
        <time>2017-05-24T15:36:58Z</time>
      </trkpt>
      <trkpt lat="43.043900" lon="-4.394950">
        <ele>2133.0</ele>
        <time>2017-05-24T15:36:59Z</time>
      </trkpt>
      <trkpt lat="43.043950" lon="-4.394917">
        <ele>2133.0</ele>
        <time>2017-05-24T15:37:00Z</time>
      </trkpt>
      <trkpt lat="43.044000" lon="-4.394900">
        <ele>2133.0</ele>
        <time>2017-05-24T15:37:01Z</time>
      </trkpt>
      <trkpt lat="43.044050" lon="-4.394850">
        <ele>2132.0</ele>
        <time>2017-05-24T15:37:02Z</time>
      </trkpt>
      <trkpt lat="43.044067" lon="-4.394817">
        <ele>2131.0</ele>
        <time>2017-05-24T15:37:03Z</time>
      </trkpt>
      <trkpt lat="43.044083" lon="-4.394750">
        <ele>2129.0</ele>
        <time>2017-05-24T15:37:04Z</time>
      </trkpt>
      <trkpt lat="43.044083" lon="-4.394700">
        <ele>2128.0</ele>
        <time>2017-05-24T15:37:05Z</time>
      </trkpt>
      <trkpt lat="43.044083" lon="-4.394667">
        <ele>2128.0</ele>
        <time>2017-05-24T15:37:06Z</time>
      </trkpt>
      <trkpt lat="43.044083" lon="-4.394650">
        <ele>2128.0</ele>
        <time>2017-05-24T15:37:07Z</time>
      </trkpt>
      <trkpt lat="43.044100" lon="-4.394617">
        <ele>2127.0</ele>
        <time>2017-05-24T15:37:08Z</time>
      </trkpt>
      <trkpt lat="43.044133" lon="-4.394567">
        <ele>2126.0</ele>
        <time>2017-05-24T15:37:09Z</time>
      </trkpt>
      <trkpt lat="43.044167" lon="-4.394500">
        <ele>2125.0</ele>
        <time>2017-05-24T15:37:10Z</time>
      </trkpt>
      <trkpt lat="43.044200" lon="-4.394450">
        <ele>2125.0</ele>
        <time>2017-05-24T15:37:11Z</time>
      </trkpt>
      <trkpt lat="43.044267" lon="-4.394400">
        <ele>2125.0</ele>
        <time>2017-05-24T15:37:12Z</time>
      </trkpt>
      <trkpt lat="43.044317" lon="-4.394383">
        <ele>2124.0</ele>
        <time>2017-05-24T15:37:13Z</time>
      </trkpt>
      <trkpt lat="43.044400" lon="-4.394383">
        <ele>2123.0</ele>
        <time>2017-05-24T15:37:14Z</time>
      </trkpt>
      <trkpt lat="43.044483" lon="-4.394433">
        <ele>2120.0</ele>
        <time>2017-05-24T15:37:15Z</time>
      </trkpt>
      <trkpt lat="43.044583" lon="-4.394533">
        <ele>2117.0</ele>
        <time>2017-05-24T15:37:16Z</time>
      </trkpt>
      <trkpt lat="43.044667" lon="-4.394667">
        <ele>2114.0</ele>
        <time>2017-05-24T15:37:17Z</time>
      </trkpt>
      <trkpt lat="43.044683" lon="-4.394850">
        <ele>2111.0</ele>
        <time>2017-05-24T15:37:18Z</time>
      </trkpt>
      <trkpt lat="43.044650" lon="-4.395033">
        <ele>2109.0</ele>
        <time>2017-05-24T15:37:19Z</time>
      </trkpt>
      <trkpt lat="43.044583" lon="-4.395150">
        <ele>2111.0</ele>
        <time>2017-05-24T15:37:20Z</time>
      </trkpt>
      <trkpt lat="43.044533" lon="-4.395200">
        <ele>2112.0</ele>
        <time>2017-05-24T15:37:21Z</time>
      </trkpt>
      <trkpt lat="43.044500" lon="-4.395200">
        <ele>2111.0</ele>
        <time>2017-05-24T15:37:22Z</time>
      </trkpt>
      <trkpt lat="43.044450" lon="-4.395233">
        <ele>2111.0</ele>
        <time>2017-05-24T15:37:23Z</time>
      </trkpt>
      <trkpt lat="43.044400" lon="-4.395267">
        <ele>2109.0</ele>
        <time>2017-05-24T15:37:24Z</time>
      </trkpt>
      <trkpt lat="43.044333" lon="-4.395300">
        <ele>2107.0</ele>
        <time>2017-05-24T15:37:25Z</time>
      </trkpt>
      <trkpt lat="43.044283" lon="-4.395350">
        <ele>2107.0</ele>
        <time>2017-05-24T15:37:26Z</time>
      </trkpt>
      <trkpt lat="43.044233" lon="-4.395383">
        <ele>2107.0</ele>
        <time>2017-05-24T15:37:27Z</time>
      </trkpt>
      <trkpt lat="43.044183" lon="-4.395400">
        <ele>2107.0</ele>
        <time>2017-05-24T15:37:28Z</time>
      </trkpt>
      <trkpt lat="43.044133" lon="-4.395400">
        <ele>2105.0</ele>
        <time>2017-05-24T15:37:29Z</time>
      </trkpt>
      <trkpt lat="43.044067" lon="-4.395383">
        <ele>2104.0</ele>
        <time>2017-05-24T15:37:30Z</time>
      </trkpt>
      <trkpt lat="43.044017" lon="-4.395383">
        <ele>2103.0</ele>
        <time>2017-05-24T15:37:31Z</time>
      </trkpt>
      <trkpt lat="43.043983" lon="-4.395367">
        <ele>2104.0</ele>
        <time>2017-05-24T15:37:32Z</time>
      </trkpt>
      <trkpt lat="43.043983" lon="-4.395333">
        <ele>2103.0</ele>
        <time>2017-05-24T15:37:33Z</time>
      </trkpt>
      <trkpt lat="43.043983" lon="-4.395300">
        <ele>2101.0</ele>
        <time>2017-05-24T15:37:34Z</time>
      </trkpt>
      <trkpt lat="43.043967" lon="-4.395267">
        <ele>2100.0</ele>
        <time>2017-05-24T15:37:35Z</time>
      </trkpt>
      <trkpt lat="43.043967" lon="-4.395217">
        <ele>2099.0</ele>
        <time>2017-05-24T15:37:36Z</time>
      </trkpt>
      <trkpt lat="43.044000" lon="-4.395167">
        <ele>2097.0</ele>
        <time>2017-05-24T15:37:37Z</time>
      </trkpt>
      <trkpt lat="43.044050" lon="-4.395117">
        <ele>2096.0</ele>
        <time>2017-05-24T15:37:38Z</time>
      </trkpt>
      <trkpt lat="43.044117" lon="-4.395083">
        <ele>2095.0</ele>
        <time>2017-05-24T15:37:39Z</time>
      </trkpt>
      <trkpt lat="43.044167" lon="-4.395067">
        <ele>2094.0</ele>
        <time>2017-05-24T15:37:40Z</time>
      </trkpt>
      <trkpt lat="43.044217" lon="-4.395033">
        <ele>2094.0</ele>
        <time>2017-05-24T15:37:41Z</time>
      </trkpt>
      <trkpt lat="43.044250" lon="-4.395000">
        <ele>2094.0</ele>
        <time>2017-05-24T15:37:42Z</time>
      </trkpt>
      <trkpt lat="43.044283" lon="-4.394983">
        <ele>2093.0</ele>
        <time>2017-05-24T15:37:43Z</time>
      </trkpt>
      <trkpt lat="43.044300" lon="-4.394933">
        <ele>2093.0</ele>
        <time>2017-05-24T15:37:44Z</time>
      </trkpt>
      <trkpt lat="43.044350" lon="-4.394900">
        <ele>2093.0</ele>
        <time>2017-05-24T15:37:45Z</time>
      </trkpt>
      <trkpt lat="43.044383" lon="-4.394883">
        <ele>2093.0</ele>
        <time>2017-05-24T15:37:46Z</time>
      </trkpt>
      <trkpt lat="43.044433" lon="-4.394850">
        <ele>2093.0</ele>
        <time>2017-05-24T15:37:47Z</time>
      </trkpt>
      <trkpt lat="43.044467" lon="-4.394800">
        <ele>2092.0</ele>
        <time>2017-05-24T15:37:48Z</time>
      </trkpt>
      <trkpt lat="43.044483" lon="-4.394750">
        <ele>2091.0</ele>
        <time>2017-05-24T15:37:49Z</time>
      </trkpt>
      <trkpt lat="43.044483" lon="-4.394700">
        <ele>2090.0</ele>
        <time>2017-05-24T15:37:50Z</time>
      </trkpt>
      <trkpt lat="43.044450" lon="-4.394667">
        <ele>2089.0</ele>
        <time>2017-05-24T15:37:51Z</time>
      </trkpt>
      <trkpt lat="43.044383" lon="-4.394667">
        <ele>2087.0</ele>
        <time>2017-05-24T15:37:52Z</time>
      </trkpt>
      <trkpt lat="43.044317" lon="-4.394700">
        <ele>2085.0</ele>
        <time>2017-05-24T15:37:53Z</time>
      </trkpt>
      <trkpt lat="43.044250" lon="-4.394767">
        <ele>2084.0</ele>
        <time>2017-05-24T15:37:54Z</time>
      </trkpt>
      <trkpt lat="43.044183" lon="-4.394850">
        <ele>2083.0</ele>
        <time>2017-05-24T15:37:55Z</time>
      </trkpt>
      <trkpt lat="43.044133" lon="-4.394933">
        <ele>2082.0</ele>
        <time>2017-05-24T15:37:56Z</time>
      </trkpt>
      <trkpt lat="43.044067" lon="-4.395050">
        <ele>2081.0</ele>
        <time>2017-05-24T15:37:57Z</time>
      </trkpt>
      <trkpt lat="43.044000" lon="-4.395183">
        <ele>2080.0</ele>
        <time>2017-05-24T15:37:58Z</time>
      </trkpt>
      <trkpt lat="43.043917" lon="-4.395283">
        <ele>2079.0</ele>
        <time>2017-05-24T15:37:59Z</time>
      </trkpt>
      <trkpt lat="43.043850" lon="-4.395350">
        <ele>2080.0</ele>
        <time>2017-05-24T15:38:00Z</time>
      </trkpt>
      <trkpt lat="43.043800" lon="-4.395350">
        <ele>2079.0</ele>
        <time>2017-05-24T15:38:01Z</time>
      </trkpt>
      <trkpt lat="43.043783" lon="-4.395300">
        <ele>2075.0</ele>
        <time>2017-05-24T15:38:02Z</time>
      </trkpt>
      <trkpt lat="43.043800" lon="-4.395217">
        <ele>2073.0</ele>
        <time>2017-05-24T15:38:03Z</time>
      </trkpt>
      <trkpt lat="43.043850" lon="-4.395150">
        <ele>2073.0</ele>
        <time>2017-05-24T15:38:04Z</time>
      </trkpt>
      <trkpt lat="43.043933" lon="-4.395133">
        <ele>2073.0</ele>
        <time>2017-05-24T15:38:05Z</time>
      </trkpt>
      <trkpt lat="43.044033" lon="-4.395200">
        <ele>2073.0</ele>
        <time>2017-05-24T15:38:06Z</time>
      </trkpt>
      <trkpt lat="43.044117" lon="-4.395317">
        <ele>2072.0</ele>
        <time>2017-05-24T15:38:07Z</time>
      </trkpt>
      <trkpt lat="43.044167" lon="-4.395500">
        <ele>2071.0</ele>
        <time>2017-05-24T15:38:08Z</time>
      </trkpt>
      <trkpt lat="43.044167" lon="-4.395683">
        <ele>2070.0</ele>
        <time>2017-05-24T15:38:09Z</time>
      </trkpt>
      <trkpt lat="43.044117" lon="-4.395833">
        <ele>2068.0</ele>
        <time>2017-05-24T15:38:10Z</time>
      </trkpt>
      <trkpt lat="43.044017" lon="-4.395900">
        <ele>2065.0</ele>
        <time>2017-05-24T15:38:11Z</time>
      </trkpt>
      <trkpt lat="43.043933" lon="-4.395883">
        <ele>2064.0</ele>
        <time>2017-05-24T15:38:12Z</time>
      </trkpt>
      <trkpt lat="43.043900" lon="-4.395833">
        <ele>2064.0</ele>
        <time>2017-05-24T15:38:13Z</time>
      </trkpt>
      <trkpt lat="43.043900" lon="-4.395767">
        <ele>2065.0</ele>
        <time>2017-05-24T15:38:14Z</time>
      </trkpt>
      <trkpt lat="43.043933" lon="-4.395750">
        <ele>2065.0</ele>
        <time>2017-05-24T15:38:15Z</time>
      </trkpt>
      <trkpt lat="43.043950" lon="-4.395733">
        <ele>2065.0</ele>
        <time>2017-05-24T15:38:16Z</time>
      </trkpt>
      <trkpt lat="43.043967" lon="-4.395700">
        <ele>2065.0</ele>
        <time>2017-05-24T15:38:17Z</time>
      </trkpt>
      <trkpt lat="43.044017" lon="-4.395667">
        <ele>2064.0</ele>
        <time>2017-05-24T15:38:18Z</time>
      </trkpt>
      <trkpt lat="43.044067" lon="-4.395617">
        <ele>2063.0</ele>
        <time>2017-05-24T15:38:19Z</time>
      </trkpt>
      <trkpt lat="43.044133" lon="-4.395583">
        <ele>2064.0</ele>
        <time>2017-05-24T15:38:20Z</time>
      </trkpt>
      <trkpt lat="43.044183" lon="-4.395567">
        <ele>2066.0</ele>
        <time>2017-05-24T15:38:21Z</time>
      </trkpt>
      <trkpt lat="43.044233" lon="-4.395567">
        <ele>2068.0</ele>
        <time>2017-05-24T15:38:22Z</time>
      </trkpt>
      <trkpt lat="43.044283" lon="-4.395550">
        <ele>2069.0</ele>
        <time>2017-05-24T15:38:23Z</time>
      </trkpt>
      <trkpt lat="43.044333" lon="-4.395533">
        <ele>2069.0</ele>
        <time>2017-05-24T15:38:24Z</time>
      </trkpt>
      <trkpt lat="43.044383" lon="-4.395500">
        <ele>2068.0</ele>
        <time>2017-05-24T15:38:25Z</time>
      </trkpt>
      <trkpt lat="43.044433" lon="-4.395467">
        <ele>2068.0</ele>
        <time>2017-05-24T15:38:26Z</time>
      </trkpt>
      <trkpt lat="43.044467" lon="-4.395400">
        <ele>2068.0</ele>
        <time>2017-05-24T15:38:27Z</time>
      </trkpt>
      <trkpt lat="43.044483" lon="-4.395367">
        <ele>2069.0</ele>
        <time>2017-05-24T15:38:28Z</time>
      </trkpt>
      <trkpt lat="43.044500" lon="-4.395333">
        <ele>2070.0</ele>
        <time>2017-05-24T15:38:29Z</time>
      </trkpt>
      <trkpt lat="43.044517" lon="-4.395317">
        <ele>2069.0</ele>
        <time>2017-05-24T15:38:30Z</time>
      </trkpt>
      <trkpt lat="43.044533" lon="-4.395300">
        <ele>2068.0</ele>
        <time>2017-05-24T15:38:31Z</time>
      </trkpt>
      <trkpt lat="43.044567" lon="-4.395250">
        <ele>2067.0</ele>
        <time>2017-05-24T15:38:32Z</time>
      </trkpt>
      <trkpt lat="43.044583" lon="-4.395217">
        <ele>2065.0</ele>
        <time>2017-05-24T15:38:33Z</time>
      </trkpt>
      <trkpt lat="43.044633" lon="-4.395167">
        <ele>2064.0</ele>
        <time>2017-05-24T15:38:34Z</time>
      </trkpt>
      <trkpt lat="43.044650" lon="-4.395133">
        <ele>2063.0</ele>
        <time>2017-05-24T15:38:35Z</time>
      </trkpt>
      <trkpt lat="43.044650" lon="-4.395083">
        <ele>2062.0</ele>
        <time>2017-05-24T15:38:36Z</time>
      </trkpt>
      <trkpt lat="43.044600" lon="-4.395067">
        <ele>2060.0</ele>
        <time>2017-05-24T15:38:37Z</time>
      </trkpt>
      <trkpt lat="43.044533" lon="-4.395067">
        <ele>2058.0</ele>
        <time>2017-05-24T15:38:38Z</time>
      </trkpt>
      <trkpt lat="43.044450" lon="-4.395100">
        <ele>2057.0</ele>
        <time>2017-05-24T15:38:39Z</time>
      </trkpt>
      <trkpt lat="43.044383" lon="-4.395167">
        <ele>2057.0</ele>
        <time>2017-05-24T15:38:40Z</time>
      </trkpt>
      <trkpt lat="43.044317" lon="-4.395217">
        <ele>2058.0</ele>
        <time>2017-05-24T15:38:41Z</time>
      </trkpt>
      <trkpt lat="43.044267" lon="-4.395267">
        <ele>2057.0</ele>
        <time>2017-05-24T15:38:42Z</time>
      </trkpt>
      <trkpt lat="43.044200" lon="-4.395300">
        <ele>2057.0</ele>
        <time>2017-05-24T15:38:43Z</time>
      </trkpt>
      <trkpt lat="43.044150" lon="-4.395317">
        <ele>2055.0</ele>
        <time>2017-05-24T15:38:44Z</time>
      </trkpt>
      <trkpt lat="43.044083" lon="-4.395317">
        <ele>2054.0</ele>
        <time>2017-05-24T15:38:45Z</time>
      </trkpt>
      <trkpt lat="43.044033" lon="-4.395300">
        <ele>2053.0</ele>
        <time>2017-05-24T15:38:46Z</time>
      </trkpt>
      <trkpt lat="43.043983" lon="-4.395267">
        <ele>2053.0</ele>
        <time>2017-05-24T15:38:47Z</time>
      </trkpt>
      <trkpt lat="43.043983" lon="-4.395217">
        <ele>2054.0</ele>
        <time>2017-05-24T15:38:48Z</time>
      </trkpt>
      <trkpt lat="43.043967" lon="-4.395200">
        <ele>2054.0</ele>
        <time>2017-05-24T15:38:49Z</time>
      </trkpt>
      <trkpt lat="43.043967" lon="-4.395150">
        <ele>2054.0</ele>
        <time>2017-05-24T15:38:50Z</time>
      </trkpt>
      <trkpt lat="43.043967" lon="-4.395100">
        <ele>2054.0</ele>
        <time>2017-05-24T15:38:51Z</time>
      </trkpt>
      <trkpt lat="43.043967" lon="-4.395050">
        <ele>2054.0</ele>
        <time>2017-05-24T15:38:52Z</time>
      </trkpt>
      <trkpt lat="43.043950" lon="-4.395000">
        <ele>2056.0</ele>
        <time>2017-05-24T15:38:53Z</time>
      </trkpt>
      <trkpt lat="43.043933" lon="-4.394983">
        <ele>2057.0</ele>
        <time>2017-05-24T15:38:54Z</time>
      </trkpt>
      <trkpt lat="43.043900" lon="-4.394983">
        <ele>2057.0</ele>
        <time>2017-05-24T15:38:55Z</time>
      </trkpt>
      <trkpt lat="43.043850" lon="-4.395000">
        <ele>2056.0</ele>
        <time>2017-05-24T15:38:56Z</time>
      </trkpt>
      <trkpt lat="43.043800" lon="-4.395017">
        <ele>2056.0</ele>
        <time>2017-05-24T15:38:57Z</time>
      </trkpt>
      <trkpt lat="43.043733" lon="-4.395067">
        <ele>2055.0</ele>
        <time>2017-05-24T15:38:58Z</time>
      </trkpt>
      <trkpt lat="43.043667" lon="-4.395150">
        <ele>2054.0</ele>
        <time>2017-05-24T15:38:59Z</time>
      </trkpt>
      <trkpt lat="43.043600" lon="-4.395250">
        <ele>2054.0</ele>
        <time>2017-05-24T15:39:00Z</time>
      </trkpt>
      <trkpt lat="43.043550" lon="-4.395350">
        <ele>2054.0</ele>
        <time>2017-05-24T15:39:01Z</time>
      </trkpt>
      <trkpt lat="43.043483" lon="-4.395467">
        <ele>2054.0</ele>
        <time>2017-05-24T15:39:02Z</time>
      </trkpt>
      <trkpt lat="43.043433" lon="-4.395550">
        <ele>2056.0</ele>
        <time>2017-05-24T15:39:03Z</time>
      </trkpt>
      <trkpt lat="43.043367" lon="-4.395617">
        <ele>2058.0</ele>
        <time>2017-05-24T15:39:04Z</time>
      </trkpt>
      <trkpt lat="43.043317" lon="-4.395633">
        <ele>2058.0</ele>
        <time>2017-05-24T15:39:05Z</time>
      </trkpt>
      <trkpt lat="43.043267" lon="-4.395617">
        <ele>2059.0</ele>
        <time>2017-05-24T15:39:06Z</time>
      </trkpt>
      <trkpt lat="43.043233" lon="-4.395583">
        <ele>2059.0</ele>
        <time>2017-05-24T15:39:07Z</time>
      </trkpt>
      <trkpt lat="43.043217" lon="-4.395517">
        <ele>2060.0</ele>
        <time>2017-05-24T15:39:08Z</time>
      </trkpt>
      <trkpt lat="43.043233" lon="-4.395467">
        <ele>2061.0</ele>
        <time>2017-05-24T15:39:09Z</time>
      </trkpt>
      <trkpt lat="43.043283" lon="-4.395417">
        <ele>2061.0</ele>
        <time>2017-05-24T15:39:10Z</time>
      </trkpt>
      <trkpt lat="43.043350" lon="-4.395400">
        <ele>2063.0</ele>
        <time>2017-05-24T15:39:11Z</time>
      </trkpt>
      <trkpt lat="43.043433" lon="-4.395433">
        <ele>2064.0</ele>
        <time>2017-05-24T15:39:12Z</time>
      </trkpt>
      <trkpt lat="43.043517" lon="-4.395467">
        <ele>2065.0</ele>
        <time>2017-05-24T15:39:13Z</time>
      </trkpt>
      <trkpt lat="43.043583" lon="-4.395517">
        <ele>2066.0</ele>
        <time>2017-05-24T15:39:14Z</time>
      </trkpt>
      <trkpt lat="43.043667" lon="-4.395567">
        <ele>2068.0</ele>
        <time>2017-05-24T15:39:15Z</time>
      </trkpt>
      <trkpt lat="43.043750" lon="-4.395617">
        <ele>2068.0</ele>
        <time>2017-05-24T15:39:16Z</time>
      </trkpt>
      <trkpt lat="43.043833" lon="-4.395650">
        <ele>2069.0</ele>
        <time>2017-05-24T15:39:17Z</time>
      </trkpt>
      <trkpt lat="43.043917" lon="-4.395683">
        <ele>2069.0</ele>
        <time>2017-05-24T15:39:18Z</time>
      </trkpt>
      <trkpt lat="43.044000" lon="-4.395667">
        <ele>2069.0</ele>
        <time>2017-05-24T15:39:19Z</time>
      </trkpt>
      <trkpt lat="43.044050" lon="-4.395617">
        <ele>2069.0</ele>
        <time>2017-05-24T15:39:20Z</time>
      </trkpt>
      <trkpt lat="43.044083" lon="-4.395567">
        <ele>2068.0</ele>
        <time>2017-05-24T15:39:21Z</time>
      </trkpt>
      <trkpt lat="43.044067" lon="-4.395517">
        <ele>2068.0</ele>
        <time>2017-05-24T15:39:22Z</time>
      </trkpt>
      <trkpt lat="43.044050" lon="-4.395483">
        <ele>2069.0</ele>
        <time>2017-05-24T15:39:23Z</time>
      </trkpt>
      <trkpt lat="43.044017" lon="-4.395467">
        <ele>2070.0</ele>
        <time>2017-05-24T15:39:24Z</time>
      </trkpt>
      <trkpt lat="43.043983" lon="-4.395467">
        <ele>2070.0</ele>
        <time>2017-05-24T15:39:25Z</time>
      </trkpt>
      <trkpt lat="43.043967" lon="-4.395467">
        <ele>2070.0</ele>
        <time>2017-05-24T15:39:26Z</time>
      </trkpt>
      <trkpt lat="43.043967" lon="-4.395433">
        <ele>2070.0</ele>
        <time>2017-05-24T15:39:27Z</time>
      </trkpt>
      <trkpt lat="43.043983" lon="-4.395383">
        <ele>2070.0</ele>
        <time>2017-05-24T15:39:28Z</time>
      </trkpt>
      <trkpt lat="43.044033" lon="-4.395333">
        <ele>2071.0</ele>
        <time>2017-05-24T15:39:29Z</time>
      </trkpt>
      <trkpt lat="43.044083" lon="-4.395300">
        <ele>2071.0</ele>
        <time>2017-05-24T15:39:30Z</time>
      </trkpt>
      <trkpt lat="43.044133" lon="-4.395300">
        <ele>2073.0</ele>
        <time>2017-05-24T15:39:31Z</time>
      </trkpt>
      <trkpt lat="43.044183" lon="-4.395300">
        <ele>2073.0</ele>
        <time>2017-05-24T15:39:32Z</time>
      </trkpt>
      <trkpt lat="43.044233" lon="-4.395283">
        <ele>2074.0</ele>
        <time>2017-05-24T15:39:33Z</time>
      </trkpt>
      <trkpt lat="43.044300" lon="-4.395267">
        <ele>2074.0</ele>
        <time>2017-05-24T15:39:34Z</time>
      </trkpt>
      <trkpt lat="43.044367" lon="-4.395250">
        <ele>2074.0</ele>
        <time>2017-05-24T15:39:35Z</time>
      </trkpt>
      <trkpt lat="43.044433" lon="-4.395250">
        <ele>2075.0</ele>
        <time>2017-05-24T15:39:36Z</time>
      </trkpt>
      <trkpt lat="43.044500" lon="-4.395267">
        <ele>2077.0</ele>
        <time>2017-05-24T15:39:37Z</time>
      </trkpt>
      <trkpt lat="43.044550" lon="-4.395267">
        <ele>2077.0</ele>
        <time>2017-05-24T15:39:38Z</time>
      </trkpt>
      <trkpt lat="43.044583" lon="-4.395217">
        <ele>2076.0</ele>
        <time>2017-05-24T15:39:39Z</time>
      </trkpt>
      <trkpt lat="43.044617" lon="-4.395167">
        <ele>2075.0</ele>
        <time>2017-05-24T15:39:40Z</time>
      </trkpt>
      <trkpt lat="43.044617" lon="-4.395117">
        <ele>2075.0</ele>
        <time>2017-05-24T15:39:41Z</time>
      </trkpt>
      <trkpt lat="43.044583" lon="-4.395083">
        <ele>2075.0</ele>
        <time>2017-05-24T15:39:42Z</time>
      </trkpt>
      <trkpt lat="43.044533" lon="-4.395117">
        <ele>2075.0</ele>
        <time>2017-05-24T15:39:43Z</time>
      </trkpt>
      <trkpt lat="43.044483" lon="-4.395167">
        <ele>2074.0</ele>
        <time>2017-05-24T15:39:44Z</time>
      </trkpt>
      <trkpt lat="43.044417" lon="-4.395233">
        <ele>2074.0</ele>
        <time>2017-05-24T15:39:45Z</time>
      </trkpt>
      <trkpt lat="43.044367" lon="-4.395300">
        <ele>2075.0</ele>
        <time>2017-05-24T15:39:46Z</time>
      </trkpt>
      <trkpt lat="43.044300" lon="-4.395367">
        <ele>2076.0</ele>
        <time>2017-05-24T15:39:47Z</time>
      </trkpt>
      <trkpt lat="43.044250" lon="-4.395433">
        <ele>2077.0</ele>
        <time>2017-05-24T15:39:48Z</time>
      </trkpt>
      <trkpt lat="43.044200" lon="-4.395483">
        <ele>2078.0</ele>
        <time>2017-05-24T15:39:49Z</time>
      </trkpt>
      <trkpt lat="43.044133" lon="-4.395533">
        <ele>2079.0</ele>
        <time>2017-05-24T15:39:50Z</time>
      </trkpt>
      <trkpt lat="43.044083" lon="-4.395567">
        <ele>2080.0</ele>
        <time>2017-05-24T15:39:51Z</time>
      </trkpt>
      <trkpt lat="43.044017" lon="-4.395600">
        <ele>2082.0</ele>
        <time>2017-05-24T15:39:52Z</time>
      </trkpt>
      <trkpt lat="43.043967" lon="-4.395617">
        <ele>2083.0</ele>
        <time>2017-05-24T15:39:53Z</time>
      </trkpt>
      <trkpt lat="43.043917" lon="-4.395633">
        <ele>2084.0</ele>
        <time>2017-05-24T15:39:54Z</time>
      </trkpt>
      <trkpt lat="43.043867" lon="-4.395617">
        <ele>2085.0</ele>
        <time>2017-05-24T15:39:55Z</time>
      </trkpt>
      <trkpt lat="43.043833" lon="-4.395600">
        <ele>2086.0</ele>
        <time>2017-05-24T15:39:56Z</time>
      </trkpt>
      <trkpt lat="43.043817" lon="-4.395550">
        <ele>2087.0</ele>
        <time>2017-05-24T15:39:57Z</time>
      </trkpt>
      <trkpt lat="43.043800" lon="-4.395483">
        <ele>2088.0</ele>
        <time>2017-05-24T15:39:58Z</time>
      </trkpt>
      <trkpt lat="43.043783" lon="-4.395433">
        <ele>2089.0</ele>
        <time>2017-05-24T15:39:59Z</time>
      </trkpt>
      <trkpt lat="43.043750" lon="-4.395400">
        <ele>2091.0</ele>
        <time>2017-05-24T15:40:00Z</time>
      </trkpt>
      <trkpt lat="43.043733" lon="-4.395367">
        <ele>2092.0</ele>
        <time>2017-05-24T15:40:01Z</time>
      </trkpt>
      <trkpt lat="43.043733" lon="-4.395333">
        <ele>2093.0</ele>
        <time>2017-05-24T15:40:02Z</time>
      </trkpt>
      <trkpt lat="43.043733" lon="-4.395283">
        <ele>2093.0</ele>
        <time>2017-05-24T15:40:03Z</time>
      </trkpt>
      <trkpt lat="43.043733" lon="-4.395217">
        <ele>2092.0</ele>
        <time>2017-05-24T15:40:04Z</time>
      </trkpt>
      <trkpt lat="43.043767" lon="-4.395167">
        <ele>2092.0</ele>
        <time>2017-05-24T15:40:05Z</time>
      </trkpt>
      <trkpt lat="43.043800" lon="-4.395133">
        <ele>2092.0</ele>
        <time>2017-05-24T15:40:06Z</time>
      </trkpt>
      <trkpt lat="43.043850" lon="-4.395100">
        <ele>2091.0</ele>
        <time>2017-05-24T15:40:07Z</time>
      </trkpt>
      <trkpt lat="43.043900" lon="-4.395067">
        <ele>2090.0</ele>
        <time>2017-05-24T15:40:08Z</time>
      </trkpt>
      <trkpt lat="43.043967" lon="-4.395050">
        <ele>2089.0</ele>
        <time>2017-05-24T15:40:09Z</time>
      </trkpt>
      <trkpt lat="43.044033" lon="-4.395017">
        <ele>2087.0</ele>
        <time>2017-05-24T15:40:10Z</time>
      </trkpt>
      <trkpt lat="43.044117" lon="-4.395000">
        <ele>2085.0</ele>
        <time>2017-05-24T15:40:11Z</time>
      </trkpt>
      <trkpt lat="43.044200" lon="-4.394983">
        <ele>2082.0</ele>
        <time>2017-05-24T15:40:12Z</time>
      </trkpt>
      <trkpt lat="43.044267" lon="-4.394967">
        <ele>2080.0</ele>
        <time>2017-05-24T15:40:13Z</time>
      </trkpt>
      <trkpt lat="43.044350" lon="-4.394933">
        <ele>2079.0</ele>
        <time>2017-05-24T15:40:14Z</time>
      </trkpt>
      <trkpt lat="43.044400" lon="-4.394900">
        <ele>2078.0</ele>
        <time>2017-05-24T15:40:15Z</time>
      </trkpt>
      <trkpt lat="43.044417" lon="-4.394867">
        <ele>2076.0</ele>
        <time>2017-05-24T15:40:16Z</time>
      </trkpt>
      <trkpt lat="43.044433" lon="-4.394833">
        <ele>2074.0</ele>
        <time>2017-05-24T15:40:17Z</time>
      </trkpt>
      <trkpt lat="43.044433" lon="-4.394817">
        <ele>2072.0</ele>
        <time>2017-05-24T15:40:18Z</time>
      </trkpt>
      <trkpt lat="43.044417" lon="-4.394783">
        <ele>2070.0</ele>
        <time>2017-05-24T15:40:19Z</time>
      </trkpt>
      <trkpt lat="43.044417" lon="-4.394750">
        <ele>2069.0</ele>
        <time>2017-05-24T15:40:20Z</time>
      </trkpt>
      <trkpt lat="43.044400" lon="-4.394717">
        <ele>2068.0</ele>
        <time>2017-05-24T15:40:21Z</time>
      </trkpt>
      <trkpt lat="43.044400" lon="-4.394700">
        <ele>2066.0</ele>
        <time>2017-05-24T15:40:22Z</time>
      </trkpt>
      <trkpt lat="43.044417" lon="-4.394667">
        <ele>2064.0</ele>
        <time>2017-05-24T15:40:23Z</time>
      </trkpt>
      <trkpt lat="43.044417" lon="-4.394617">
        <ele>2062.0</ele>
        <time>2017-05-24T15:40:24Z</time>
      </trkpt>
      <trkpt lat="43.044417" lon="-4.394583">
        <ele>2060.0</ele>
        <time>2017-05-24T15:40:25Z</time>
      </trkpt>
      <trkpt lat="43.044400" lon="-4.394550">
        <ele>2059.0</ele>
        <time>2017-05-24T15:40:26Z</time>
      </trkpt>
      <trkpt lat="43.044350" lon="-4.394567">
        <ele>2056.0</ele>
        <time>2017-05-24T15:40:27Z</time>
      </trkpt>
      <trkpt lat="43.044283" lon="-4.394617">
        <ele>2054.0</ele>
        <time>2017-05-24T15:40:28Z</time>
      </trkpt>
      <trkpt lat="43.044217" lon="-4.394733">
        <ele>2051.0</ele>
        <time>2017-05-24T15:40:29Z</time>
      </trkpt>
      <trkpt lat="43.044200" lon="-4.394883">
        <ele>2049.0</ele>
        <time>2017-05-24T15:40:30Z</time>
      </trkpt>
      <trkpt lat="43.044217" lon="-4.395067">
        <ele>2046.0</ele>
        <time>2017-05-24T15:40:31Z</time>
      </trkpt>
      <trkpt lat="43.044283" lon="-4.395217">
        <ele>2043.0</ele>
        <time>2017-05-24T15:40:32Z</time>
      </trkpt>
      <trkpt lat="43.044400" lon="-4.395300">
        <ele>2040.0</ele>
        <time>2017-05-24T15:40:33Z</time>
      </trkpt>
      <trkpt lat="43.044517" lon="-4.395267">
        <ele>2036.0</ele>
        <time>2017-05-24T15:40:34Z</time>
      </trkpt>
      <trkpt lat="43.044533" lon="-4.395183">
        <ele>2032.0</ele>
        <time>2017-05-24T15:40:35Z</time>
      </trkpt>
      <trkpt lat="43.044467" lon="-4.395133">
        <ele>2027.0</ele>
        <time>2017-05-24T15:40:36Z</time>
      </trkpt>
      <trkpt lat="43.044367" lon="-4.395217">
        <ele>2024.0</ele>
        <time>2017-05-24T15:40:37Z</time>
      </trkpt>
      <trkpt lat="43.044317" lon="-4.395383">
        <ele>2021.0</ele>
        <time>2017-05-24T15:40:38Z</time>
      </trkpt>
      <trkpt lat="43.044350" lon="-4.395583">
        <ele>2017.0</ele>
        <time>2017-05-24T15:40:39Z</time>
      </trkpt>
      <trkpt lat="43.044400" lon="-4.395750">
        <ele>2016.0</ele>
        <time>2017-05-24T15:40:40Z</time>
      </trkpt>
      <trkpt lat="43.044483" lon="-4.395850">
        <ele>2017.0</ele>
        <time>2017-05-24T15:40:41Z</time>
      </trkpt>
      <trkpt lat="43.044567" lon="-4.395900">
        <ele>2018.0</ele>
        <time>2017-05-24T15:40:42Z</time>
      </trkpt>
      <trkpt lat="43.044650" lon="-4.395917">
        <ele>2020.0</ele>
        <time>2017-05-24T15:40:43Z</time>
      </trkpt>
      <trkpt lat="43.044733" lon="-4.395900">
        <ele>2020.0</ele>
        <time>2017-05-24T15:40:44Z</time>
      </trkpt>
      <trkpt lat="43.044800" lon="-4.395867">
        <ele>2020.0</ele>
        <time>2017-05-24T15:40:45Z</time>
      </trkpt>
      <trkpt lat="43.044817" lon="-4.395817">
        <ele>2020.0</ele>
        <time>2017-05-24T15:40:46Z</time>
      </trkpt>
      <trkpt lat="43.044833" lon="-4.395783">
        <ele>2020.0</ele>
        <time>2017-05-24T15:40:47Z</time>
      </trkpt>
      <trkpt lat="43.044850" lon="-4.395733">
        <ele>2021.0</ele>
        <time>2017-05-24T15:40:48Z</time>
      </trkpt>
      <trkpt lat="43.044883" lon="-4.395700">
        <ele>2021.0</ele>
        <time>2017-05-24T15:40:49Z</time>
      </trkpt>
      <trkpt lat="43.044917" lon="-4.395667">
        <ele>2021.0</ele>
        <time>2017-05-24T15:40:50Z</time>
      </trkpt>
      <trkpt lat="43.044950" lon="-4.395650">
        <ele>2021.0</ele>
        <time>2017-05-24T15:40:51Z</time>
      </trkpt>
      <trkpt lat="43.044983" lon="-4.395617">
        <ele>2021.0</ele>
        <time>2017-05-24T15:40:52Z</time>
      </trkpt>
      <trkpt lat="43.045000" lon="-4.395583">
        <ele>2019.0</ele>
        <time>2017-05-24T15:40:53Z</time>
      </trkpt>
      <trkpt lat="43.045033" lon="-4.395550">
        <ele>2018.0</ele>
        <time>2017-05-24T15:40:54Z</time>
      </trkpt>
      <trkpt lat="43.045083" lon="-4.395500">
        <ele>2018.0</ele>
        <time>2017-05-24T15:40:55Z</time>
      </trkpt>
      <trkpt lat="43.045117" lon="-4.395467">
        <ele>2018.0</ele>
        <time>2017-05-24T15:40:56Z</time>
      </trkpt>
      <trkpt lat="43.045167" lon="-4.395433">
        <ele>2018.0</ele>
        <time>2017-05-24T15:40:57Z</time>
      </trkpt>
      <trkpt lat="43.045217" lon="-4.395383">
        <ele>2018.0</ele>
        <time>2017-05-24T15:40:58Z</time>
      </trkpt>
      <trkpt lat="43.045250" lon="-4.395333">
        <ele>2017.0</ele>
        <time>2017-05-24T15:40:59Z</time>
      </trkpt>
      <trkpt lat="43.045283" lon="-4.395283">
        <ele>2016.0</ele>
        <time>2017-05-24T15:41:00Z</time>
      </trkpt>
      <trkpt lat="43.045317" lon="-4.395250">
        <ele>2015.0</ele>
        <time>2017-05-24T15:41:01Z</time>
      </trkpt>
      <trkpt lat="43.045317" lon="-4.395200">
        <ele>2014.0</ele>
        <time>2017-05-24T15:41:02Z</time>
      </trkpt>
      <trkpt lat="43.045317" lon="-4.395167">
        <ele>2012.0</ele>
        <time>2017-05-24T15:41:03Z</time>
      </trkpt>
      <trkpt lat="43.045317" lon="-4.395133">
        <ele>2011.0</ele>
        <time>2017-05-24T15:41:04Z</time>
      </trkpt>
      <trkpt lat="43.045317" lon="-4.395083">
        <ele>2009.0</ele>
        <time>2017-05-24T15:41:05Z</time>
      </trkpt>
      <trkpt lat="43.045317" lon="-4.395050">
        <ele>2009.0</ele>
        <time>2017-05-24T15:41:06Z</time>
      </trkpt>
      <trkpt lat="43.045317" lon="-4.395033">
        <ele>2009.0</ele>
        <time>2017-05-24T15:41:07Z</time>
      </trkpt>
      <trkpt lat="43.045317" lon="-4.395033">
        <ele>2009.0</ele>
        <time>2017-05-24T15:41:08Z</time>
      </trkpt>
      <trkpt lat="43.045317" lon="-4.395017">
        <ele>2007.0</ele>
        <time>2017-05-24T15:41:09Z</time>
      </trkpt>
      <trkpt lat="43.045317" lon="-4.395033">
        <ele>2006.0</ele>
        <time>2017-05-24T15:41:10Z</time>
      </trkpt>
      <trkpt lat="43.045317" lon="-4.395033">
        <ele>2005.0</ele>
        <time>2017-05-24T15:41:11Z</time>
      </trkpt>
      <trkpt lat="43.045317" lon="-4.395050">
        <ele>2005.0</ele>
        <time>2017-05-24T15:41:12Z</time>
      </trkpt>
      <trkpt lat="43.045333" lon="-4.395050">
        <ele>2006.0</ele>
        <time>2017-05-24T15:41:13Z</time>
      </trkpt>
      <trkpt lat="43.045333" lon="-4.395067">
        <ele>2006.0</ele>
        <time>2017-05-24T15:41:14Z</time>
      </trkpt>
      <trkpt lat="43.045333" lon="-4.395083">
        <ele>2006.0</ele>
        <time>2017-05-24T15:41:15Z</time>
      </trkpt>
      <trkpt lat="43.045333" lon="-4.395083">
        <ele>2006.0</ele>
        <time>2017-05-24T15:41:16Z</time>
      </trkpt>
      <trkpt lat="43.045333" lon="-4.395083">
        <ele>2006.0</ele>
        <time>2017-05-24T15:41:17Z</time>
      </trkpt>
      <trkpt lat="43.045333" lon="-4.395083">
        <ele>2005.0</ele>
        <time>2017-05-24T15:41:18Z</time>
      </trkpt>
      <trkpt lat="43.045333" lon="-4.395083">
        <ele>2006.0</ele>
        <time>2017-05-24T15:41:19Z</time>
      </trkpt>
      <trkpt lat="43.045350" lon="-4.395067">
        <ele>2006.0</ele>
        <time>2017-05-24T15:41:20Z</time>
      </trkpt>
      <trkpt lat="43.045350" lon="-4.395067">
        <ele>2006.0</ele>
        <time>2017-05-24T15:41:21Z</time>
      </trkpt>
      <trkpt lat="43.045350" lon="-4.395067">
        <ele>2005.0</ele>
        <time>2017-05-24T15:41:22Z</time>
      </trkpt>
      <trkpt lat="43.045350" lon="-4.395083">
        <ele>2005.0</ele>
        <time>2017-05-24T15:41:23Z</time>
      </trkpt>
      <trkpt lat="43.045350" lon="-4.395083">
        <ele>2005.0</ele>
        <time>2017-05-24T15:41:24Z</time>
      </trkpt>
      <trkpt lat="43.045350" lon="-4.395067">
        <ele>2004.0</ele>
        <time>2017-05-24T15:41:25Z</time>
      </trkpt>
      <trkpt lat="43.045350" lon="-4.395067">
        <ele>2004.0</ele>
        <time>2017-05-24T15:41:26Z</time>
      </trkpt>
      <trkpt lat="43.045350" lon="-4.395067">
        <ele>2004.0</ele>
        <time>2017-05-24T15:41:27Z</time>
      </trkpt>
      <trkpt lat="43.045333" lon="-4.395083">
        <ele>2004.0</ele>
        <time>2017-05-24T15:41:28Z</time>
      </trkpt>
      <trkpt lat="43.045333" lon="-4.395083">
        <ele>2004.0</ele>
        <time>2017-05-24T15:41:29Z</time>
      </trkpt>
      <trkpt lat="43.045333" lon="-4.395100">
        <ele>2004.0</ele>
        <time>2017-05-24T15:41:30Z</time>
      </trkpt>
      <trkpt lat="43.045333" lon="-4.395100">
        <ele>2005.0</ele>
        <time>2017-05-24T15:41:31Z</time>
      </trkpt>
      <trkpt lat="43.045333" lon="-4.395117">
        <ele>2005.0</ele>
        <time>2017-05-24T15:41:32Z</time>
      </trkpt>
      <trkpt lat="43.045333" lon="-4.395117">
        <ele>2005.0</ele>
        <time>2017-05-24T15:41:33Z</time>
      </trkpt>
      <trkpt lat="43.045333" lon="-4.395117">
        <ele>2006.0</ele>
        <time>2017-05-24T15:41:34Z</time>
      </trkpt>
      <trkpt lat="43.045333" lon="-4.395117">
        <ele>2006.0</ele>
        <time>2017-05-24T15:41:35Z</time>
      </trkpt>
      <trkpt lat="43.045317" lon="-4.395117">
        <ele>2006.0</ele>
        <time>2017-05-24T15:41:36Z</time>
      </trkpt>
      <trkpt lat="43.045317" lon="-4.395117">
        <ele>2006.0</ele>
        <time>2017-05-24T15:41:37Z</time>
      </trkpt>
      <trkpt lat="43.045317" lon="-4.395117">
        <ele>2006.0</ele>
        <time>2017-05-24T15:41:38Z</time>
      </trkpt>
      <trkpt lat="43.045317" lon="-4.395117">
        <ele>2006.0</ele>
        <time>2017-05-24T15:41:39Z</time>
      </trkpt>
      <trkpt lat="43.045333" lon="-4.395100">
        <ele>2006.0</ele>
        <time>2017-05-24T15:41:40Z</time>
      </trkpt>
      <trkpt lat="43.045333" lon="-4.395100">
        <ele>2005.0</ele>
        <time>2017-05-24T15:41:41Z</time>
      </trkpt>
      <trkpt lat="43.045333" lon="-4.395100">
        <ele>2005.0</ele>
        <time>2017-05-24T15:41:42Z</time>
      </trkpt>
      <trkpt lat="43.045317" lon="-4.395083">
        <ele>2005.0</ele>
        <time>2017-05-24T15:41:43Z</time>
      </trkpt>
      <trkpt lat="43.045317" lon="-4.395100">
        <ele>2005.0</ele>
        <time>2017-05-24T15:41:44Z</time>
      </trkpt>
      <trkpt lat="43.045317" lon="-4.395100">
        <ele>2005.0</ele>
        <time>2017-05-24T15:41:45Z</time>
      </trkpt>
      <trkpt lat="43.045317" lon="-4.395100">
        <ele>2004.0</ele>
        <time>2017-05-24T15:41:46Z</time>
      </trkpt>
      <trkpt lat="43.045317" lon="-4.395100">
        <ele>2004.0</ele>
        <time>2017-05-24T15:41:47Z</time>
      </trkpt>
      <trkpt lat="43.045317" lon="-4.395100">
        <ele>2004.0</ele>
        <time>2017-05-24T15:41:48Z</time>
      </trkpt>
      <trkpt lat="43.045317" lon="-4.395100">
        <ele>2003.0</ele>
        <time>2017-05-24T15:41:49Z</time>
      </trkpt>
      <trkpt lat="43.045317" lon="-4.395100">
        <ele>2003.0</ele>
        <time>2017-05-24T15:41:50Z</time>
      </trkpt>
      <trkpt lat="43.045317" lon="-4.395100">
        <ele>2003.0</ele>
        <time>2017-05-24T15:41:51Z</time>
      </trkpt>
      <trkpt lat="43.045317" lon="-4.395100">
        <ele>2003.0</ele>
        <time>2017-05-24T15:41:52Z</time>
      </trkpt>
      <trkpt lat="43.045317" lon="-4.395100">
        <ele>2003.0</ele>
        <time>2017-05-24T15:41:53Z</time>
      </trkpt>
      <trkpt lat="43.045317" lon="-4.395117">
        <ele>2002.0</ele>
        <time>2017-05-24T15:41:54Z</time>
      </trkpt>
      <trkpt lat="43.045317" lon="-4.395117">
        <ele>2002.0</ele>
        <time>2017-05-24T15:41:55Z</time>
      </trkpt>
      <trkpt lat="43.045317" lon="-4.395117">
        <ele>2003.0</ele>
        <time>2017-05-24T15:41:56Z</time>
      </trkpt>
      <trkpt lat="43.045317" lon="-4.395117">
        <ele>2003.0</ele>
        <time>2017-05-24T15:41:57Z</time>
      </trkpt>
      <trkpt lat="43.045317" lon="-4.395117">
        <ele>2002.0</ele>
        <time>2017-05-24T15:41:58Z</time>
      </trkpt>
      <trkpt lat="43.045317" lon="-4.395117">
        <ele>2002.0</ele>
        <time>2017-05-24T15:41:59Z</time>
      </trkpt>
      <trkpt lat="43.045317" lon="-4.395117">
        <ele>2002.0</ele>
        <time>2017-05-24T15:42:00Z</time>
      </trkpt>
      <trkpt lat="43.045317" lon="-4.395100">
        <ele>2003.0</ele>
        <time>2017-05-24T15:42:01Z</time>
      </trkpt>
      <trkpt lat="43.045317" lon="-4.395100">
        <ele>2003.0</ele>
        <time>2017-05-24T15:42:02Z</time>
      </trkpt>
      <trkpt lat="43.045317" lon="-4.395100">
        <ele>2003.0</ele>
        <time>2017-05-24T15:42:03Z</time>
      </trkpt>
      <trkpt lat="43.045317" lon="-4.395100">
        <ele>2003.0</ele>
        <time>2017-05-24T15:42:04Z</time>
      </trkpt>
      <trkpt lat="43.045317" lon="-4.395100">
        <ele>2003.0</ele>
        <time>2017-05-24T15:42:05Z</time>
      </trkpt>
      <trkpt lat="43.045317" lon="-4.395100">
        <ele>2003.0</ele>
        <time>2017-05-24T15:42:06Z</time>
      </trkpt>
      <trkpt lat="43.045333" lon="-4.395100">
        <ele>2004.0</ele>
        <time>2017-05-24T15:42:07Z</time>
      </trkpt>
      <trkpt lat="43.045333" lon="-4.395100">
        <ele>2004.0</ele>
        <time>2017-05-24T15:42:08Z</time>
      </trkpt>
      <trkpt lat="43.045317" lon="-4.395100">
        <ele>2003.0</ele>
        <time>2017-05-24T15:42:09Z</time>
      </trkpt>
      <trkpt lat="43.045317" lon="-4.395100">
        <ele>2003.0</ele>
        <time>2017-05-24T15:42:10Z</time>
      </trkpt>
      <trkpt lat="43.045317" lon="-4.395117">
        <ele>2003.0</ele>
        <time>2017-05-24T15:42:11Z</time>
      </trkpt>
      <trkpt lat="43.045317" lon="-4.395117">
        <ele>2003.0</ele>
        <time>2017-05-24T15:42:12Z</time>
      </trkpt>
      <trkpt lat="43.045317" lon="-4.395117">
        <ele>2003.0</ele>
        <time>2017-05-24T15:42:13Z</time>
      </trkpt>
      <trkpt lat="43.045317" lon="-4.395117">
        <ele>2004.0</ele>
        <time>2017-05-24T15:42:14Z</time>
      </trkpt>
      <trkpt lat="43.045317" lon="-4.395117">
        <ele>2004.0</ele>
        <time>2017-05-24T15:42:15Z</time>
      </trkpt>
      <trkpt lat="43.045317" lon="-4.395100">
        <ele>2004.0</ele>
        <time>2017-05-24T15:42:16Z</time>
      </trkpt>
      <trkpt lat="43.045317" lon="-4.395100">
        <ele>2004.0</ele>
        <time>2017-05-24T15:42:17Z</time>
      </trkpt>
      <trkpt lat="43.045317" lon="-4.395100">
        <ele>2004.0</ele>
        <time>2017-05-24T15:42:18Z</time>
      </trkpt>
      <trkpt lat="43.045317" lon="-4.395083">
        <ele>2004.0</ele>
        <time>2017-05-24T15:42:19Z</time>
      </trkpt>
      <trkpt lat="43.045317" lon="-4.395083">
        <ele>2003.0</ele>
        <time>2017-05-24T15:42:20Z</time>
      </trkpt>
      <trkpt lat="43.045317" lon="-4.395083">
        <ele>2003.0</ele>
        <time>2017-05-24T15:42:21Z</time>
      </trkpt>
      <trkpt lat="43.045317" lon="-4.395083">
        <ele>2003.0</ele>
        <time>2017-05-24T15:42:22Z</time>
      </trkpt>
      <trkpt lat="43.045317" lon="-4.395083">
        <ele>2004.0</ele>
        <time>2017-05-24T15:42:23Z</time>
      </trkpt>
      <trkpt lat="43.045317" lon="-4.395083">
        <ele>2004.0</ele>
        <time>2017-05-24T15:42:24Z</time>
      </trkpt>
      <trkpt lat="43.045317" lon="-4.395083">
        <ele>2004.0</ele>
        <time>2017-05-24T15:42:25Z</time>
      </trkpt>
      <trkpt lat="43.045317" lon="-4.395083">
        <ele>2004.0</ele>
        <time>2017-05-24T15:42:26Z</time>
      </trkpt>
      <trkpt lat="43.045317" lon="-4.395083">
        <ele>2004.0</ele>
        <time>2017-05-24T15:42:27Z</time>
      </trkpt>
      <trkpt lat="43.045300" lon="-4.395083">
        <ele>2004.0</ele>
        <time>2017-05-24T15:42:28Z</time>
      </trkpt>
      <trkpt lat="43.045300" lon="-4.395083">
        <ele>2004.0</ele>
        <time>2017-05-24T15:42:29Z</time>
      </trkpt>
      <trkpt lat="43.045300" lon="-4.395083">
        <ele>2004.0</ele>
        <time>2017-05-24T15:42:30Z</time>
      </trkpt>
      <trkpt lat="43.045300" lon="-4.395083">
        <ele>2004.0</ele>
        <time>2017-05-24T15:42:31Z</time>
      </trkpt>
      <trkpt lat="43.045317" lon="-4.395100">
        <ele>2003.0</ele>
        <time>2017-05-24T15:42:32Z</time>
      </trkpt>
      <trkpt lat="43.045317" lon="-4.395100">
        <ele>2003.0</ele>
        <time>2017-05-24T15:42:33Z</time>
      </trkpt>
      <trkpt lat="43.045317" lon="-4.395100">
        <ele>2004.0</ele>
        <time>2017-05-24T15:42:34Z</time>
      </trkpt>
      <trkpt lat="43.045317" lon="-4.395100">
        <ele>2003.0</ele>
        <time>2017-05-24T15:42:35Z</time>
      </trkpt>
      <trkpt lat="43.045317" lon="-4.395100">
        <ele>2004.0</ele>
        <time>2017-05-24T15:42:36Z</time>
      </trkpt>
      <trkpt lat="43.045317" lon="-4.395100">
        <ele>2003.0</ele>
        <time>2017-05-24T15:42:37Z</time>
      </trkpt>
      <trkpt lat="43.045317" lon="-4.395100">
        <ele>2004.0</ele>
        <time>2017-05-24T15:42:38Z</time>
      </trkpt>
      <trkpt lat="43.045333" lon="-4.395100">
        <ele>2003.0</ele>
        <time>2017-05-24T15:42:39Z</time>
      </trkpt>
      <trkpt lat="43.045333" lon="-4.395100">
        <ele>2003.0</ele>
        <time>2017-05-24T15:42:40Z</time>
      </trkpt>
      <trkpt lat="43.045333" lon="-4.395100">
        <ele>2003.0</ele>
        <time>2017-05-24T15:42:41Z</time>
      </trkpt>
      <trkpt lat="43.045333" lon="-4.395100">
        <ele>2003.0</ele>
        <time>2017-05-24T15:42:42Z</time>
      </trkpt>
      <trkpt lat="43.045333" lon="-4.395100">
        <ele>2003.0</ele>
        <time>2017-05-24T15:42:43Z</time>
      </trkpt>
      <trkpt lat="43.045350" lon="-4.395100">
        <ele>2003.0</ele>
        <time>2017-05-24T15:42:44Z</time>
      </trkpt>
      <trkpt lat="43.045350" lon="-4.395100">
        <ele>2003.0</ele>
        <time>2017-05-24T15:42:45Z</time>
      </trkpt>
      <trkpt lat="43.045333" lon="-4.395083">
        <ele>2003.0</ele>
        <time>2017-05-24T15:42:46Z</time>
      </trkpt>
      <trkpt lat="43.045333" lon="-4.395083">
        <ele>2003.0</ele>
        <time>2017-05-24T15:42:47Z</time>
      </trkpt>
      <trkpt lat="43.045333" lon="-4.395083">
        <ele>2003.0</ele>
        <time>2017-05-24T15:42:48Z</time>
      </trkpt>
      <trkpt lat="43.045317" lon="-4.395100">
        <ele>2003.0</ele>
        <time>2017-05-24T15:42:49Z</time>
      </trkpt>
      <trkpt lat="43.045317" lon="-4.395100">
        <ele>2003.0</ele>
        <time>2017-05-24T15:42:50Z</time>
      </trkpt>
      <trkpt lat="43.045317" lon="-4.395100">
        <ele>2002.0</ele>
        <time>2017-05-24T15:42:51Z</time>
      </trkpt>
      <trkpt lat="43.045317" lon="-4.395100">
        <ele>2003.0</ele>
        <time>2017-05-24T15:42:52Z</time>
      </trkpt>
      <trkpt lat="43.045317" lon="-4.395100">
        <ele>2003.0</ele>
        <time>2017-05-24T15:42:53Z</time>
      </trkpt>
      <trkpt lat="43.045317" lon="-4.395100">
        <ele>2003.0</ele>
        <time>2017-05-24T15:42:54Z</time>
      </trkpt>
      <trkpt lat="43.045317" lon="-4.395100">
        <ele>2003.0</ele>
        <time>2017-05-24T15:42:55Z</time>
      </trkpt>
      <trkpt lat="43.045317" lon="-4.395083">
        <ele>2002.0</ele>
        <time>2017-05-24T15:42:56Z</time>
      </trkpt>
      <trkpt lat="43.045317" lon="-4.395083">
        <ele>2002.0</ele>
        <time>2017-05-24T15:42:57Z</time>
      </trkpt>
      <trkpt lat="43.045333" lon="-4.395083">
        <ele>2002.0</ele>
        <time>2017-05-24T15:42:58Z</time>
      </trkpt>
      <trkpt lat="43.045333" lon="-4.395083">
        <ele>2001.0</ele>
        <time>2017-05-24T15:42:59Z</time>
      </trkpt>
      <trkpt lat="43.045333" lon="-4.395083">
        <ele>2001.0</ele>
        <time>2017-05-24T15:43:00Z</time>
      </trkpt>
      <trkpt lat="43.045317" lon="-4.395083">
        <ele>2001.0</ele>
        <time>2017-05-24T15:43:01Z</time>
      </trkpt>
      <trkpt lat="43.045317" lon="-4.395083">
        <ele>2002.0</ele>
        <time>2017-05-24T15:43:02Z</time>
      </trkpt>
      <trkpt lat="43.045317" lon="-4.395083">
        <ele>2001.0</ele>
        <time>2017-05-24T15:43:03Z</time>
      </trkpt>
      <trkpt lat="43.045317" lon="-4.395100">
        <ele>2000.0</ele>
        <time>2017-05-24T15:43:04Z</time>
      </trkpt>
      <trkpt lat="43.045317" lon="-4.395100">
        <ele>2000.0</ele>
        <time>2017-05-24T15:43:05Z</time>
      </trkpt>
      <trkpt lat="43.045317" lon="-4.395100">
        <ele>1999.0</ele>
        <time>2017-05-24T15:43:06Z</time>
      </trkpt>
      <trkpt lat="43.045317" lon="-4.395100">
        <ele>2000.0</ele>
        <time>2017-05-24T15:43:07Z</time>
      </trkpt>
      <trkpt lat="43.045317" lon="-4.395100">
        <ele>2000.0</ele>
        <time>2017-05-24T15:43:08Z</time>
      </trkpt>
      <trkpt lat="43.045317" lon="-4.395117">
        <ele>2000.0</ele>
        <time>2017-05-24T15:43:09Z</time>
      </trkpt>
      <trkpt lat="43.045317" lon="-4.395117">
        <ele>2000.0</ele>
        <time>2017-05-24T15:43:10Z</time>
      </trkpt>
      <trkpt lat="43.045317" lon="-4.395117">
        <ele>2000.0</ele>
        <time>2017-05-24T15:43:11Z</time>
      </trkpt>
      <trkpt lat="43.045317" lon="-4.395100">
        <ele>2001.0</ele>
        <time>2017-05-24T15:43:12Z</time>
      </trkpt>
      <trkpt lat="43.045317" lon="-4.395100">
        <ele>2001.0</ele>
        <time>2017-05-24T15:43:13Z</time>
      </trkpt>
      <trkpt lat="43.045317" lon="-4.395100">
        <ele>2001.0</ele>
        <time>2017-05-24T15:43:14Z</time>
      </trkpt>
      <trkpt lat="43.045317" lon="-4.395100">
        <ele>2001.0</ele>
        <time>2017-05-24T15:43:15Z</time>
      </trkpt>
      <trkpt lat="43.045317" lon="-4.395100">
        <ele>2001.0</ele>
        <time>2017-05-24T15:43:16Z</time>
      </trkpt>
      <trkpt lat="43.045317" lon="-4.395100">
        <ele>2001.0</ele>
        <time>2017-05-24T15:43:17Z</time>
      </trkpt>
      <trkpt lat="43.045333" lon="-4.395100">
        <ele>2001.0</ele>
        <time>2017-05-24T15:43:18Z</time>
      </trkpt>
      <trkpt lat="43.045317" lon="-4.395117">
        <ele>2001.0</ele>
        <time>2017-05-24T15:43:19Z</time>
      </trkpt>
      <trkpt lat="43.045333" lon="-4.395117">
        <ele>2001.0</ele>
        <time>2017-05-24T15:43:20Z</time>
      </trkpt>
      <trkpt lat="43.045333" lon="-4.395117">
        <ele>2001.0</ele>
        <time>2017-05-24T15:43:21Z</time>
      </trkpt>
      <trkpt lat="43.045333" lon="-4.395117">
        <ele>2001.0</ele>
        <time>2017-05-24T15:43:22Z</time>
      </trkpt>
      <trkpt lat="43.045333" lon="-4.395117">
        <ele>2001.0</ele>
        <time>2017-05-24T15:43:23Z</time>
      </trkpt>
      <trkpt lat="43.045333" lon="-4.395117">
        <ele>2001.0</ele>
        <time>2017-05-24T15:43:24Z</time>
      </trkpt>
      <trkpt lat="43.045317" lon="-4.395117">
        <ele>2001.0</ele>
        <time>2017-05-24T15:43:25Z</time>
      </trkpt>
      <trkpt lat="43.045333" lon="-4.395117">
        <ele>2001.0</ele>
        <time>2017-05-24T15:43:26Z</time>
      </trkpt>
      <trkpt lat="43.045333" lon="-4.395117">
        <ele>2001.0</ele>
        <time>2017-05-24T15:43:27Z</time>
      </trkpt>
      <trkpt lat="43.045333" lon="-4.395117">
        <ele>2001.0</ele>
        <time>2017-05-24T15:43:28Z</time>
      </trkpt>
      <trkpt lat="43.045333" lon="-4.395117">
        <ele>2001.0</ele>
        <time>2017-05-24T15:43:29Z</time>
      </trkpt>
      <trkpt lat="43.045333" lon="-4.395133">
        <ele>2002.0</ele>
        <time>2017-05-24T15:43:30Z</time>
      </trkpt>
      <trkpt lat="43.045333" lon="-4.395133">
        <ele>2002.0</ele>
        <time>2017-05-24T15:43:31Z</time>
      </trkpt>
      <trkpt lat="43.045333" lon="-4.395133">
        <ele>2002.0</ele>
        <time>2017-05-24T15:43:32Z</time>
      </trkpt>
      <trkpt lat="43.045333" lon="-4.395133">
        <ele>2002.0</ele>
        <time>2017-05-24T15:43:33Z</time>
      </trkpt>
      <trkpt lat="43.045333" lon="-4.395150">
        <ele>2002.0</ele>
        <time>2017-05-24T15:43:34Z</time>
      </trkpt>
      <trkpt lat="43.045333" lon="-4.395150">
        <ele>2002.0</ele>
        <time>2017-05-24T15:43:35Z</time>
      </trkpt>
      <trkpt lat="43.045333" lon="-4.395167">
        <ele>2002.0</ele>
        <time>2017-05-24T15:43:36Z</time>
      </trkpt>
      <trkpt lat="43.045333" lon="-4.395167">
        <ele>2003.0</ele>
        <time>2017-05-24T15:43:37Z</time>
      </trkpt>
      <trkpt lat="43.045333" lon="-4.395167">
        <ele>2003.0</ele>
        <time>2017-05-24T15:43:38Z</time>
      </trkpt>
      <trkpt lat="43.045333" lon="-4.395167">
        <ele>2003.0</ele>
        <time>2017-05-24T15:43:39Z</time>
      </trkpt>
      <trkpt lat="43.045350" lon="-4.395167">
        <ele>2003.0</ele>
        <time>2017-05-24T15:43:40Z</time>
      </trkpt>
      <trkpt lat="43.045350" lon="-4.395167">
        <ele>2003.0</ele>
        <time>2017-05-24T15:43:41Z</time>
      </trkpt>
      <trkpt lat="43.045350" lon="-4.395167">
        <ele>2003.0</ele>
        <time>2017-05-24T15:43:42Z</time>
      </trkpt>
      <trkpt lat="43.045367" lon="-4.395150">
        <ele>2003.0</ele>
        <time>2017-05-24T15:43:43Z</time>
      </trkpt>
      <trkpt lat="43.045367" lon="-4.395150">
        <ele>2003.0</ele>
        <time>2017-05-24T15:43:44Z</time>
      </trkpt>
      <trkpt lat="43.045383" lon="-4.395150">
        <ele>2003.0</ele>
        <time>2017-05-24T15:43:45Z</time>
      </trkpt>
      <trkpt lat="43.045367" lon="-4.395150">
        <ele>2003.0</ele>
        <time>2017-05-24T15:43:46Z</time>
      </trkpt>
      <trkpt lat="43.045350" lon="-4.395167">
        <ele>2003.0</ele>
        <time>2017-05-24T15:43:47Z</time>
      </trkpt>
      <trkpt lat="43.045333" lon="-4.395167">
        <ele>2003.0</ele>
        <time>2017-05-24T15:43:48Z</time>
      </trkpt>
      <trkpt lat="43.045317" lon="-4.395183">
        <ele>2003.0</ele>
        <time>2017-05-24T15:43:49Z</time>
      </trkpt>
      <trkpt lat="43.045317" lon="-4.395183">
        <ele>2003.0</ele>
        <time>2017-05-24T15:43:50Z</time>
      </trkpt>
      <trkpt lat="43.045317" lon="-4.395200">
        <ele>2003.0</ele>
        <time>2017-05-24T15:43:51Z</time>
      </trkpt>
      <trkpt lat="43.045300" lon="-4.395217">
        <ele>2002.0</ele>
        <time>2017-05-24T15:43:52Z</time>
      </trkpt>
      <trkpt lat="43.045300" lon="-4.395233">
        <ele>2002.0</ele>
        <time>2017-05-24T15:43:53Z</time>
      </trkpt>
      <trkpt lat="43.045300" lon="-4.395250">
        <ele>2002.0</ele>
        <time>2017-05-24T15:43:54Z</time>
      </trkpt>
      <trkpt lat="43.045300" lon="-4.395267">
        <ele>2002.0</ele>
        <time>2017-05-24T15:43:55Z</time>
      </trkpt>
      <trkpt lat="43.045300" lon="-4.395283">
        <ele>2002.0</ele>
        <time>2017-05-24T15:43:56Z</time>
      </trkpt>
      <trkpt lat="43.045300" lon="-4.395300">
        <ele>2003.0</ele>
        <time>2017-05-24T15:43:57Z</time>
      </trkpt>
      <trkpt lat="43.045300" lon="-4.395317">
        <ele>2003.0</ele>
        <time>2017-05-24T15:43:58Z</time>
      </trkpt>
      <trkpt lat="43.045300" lon="-4.395317">
        <ele>2003.0</ele>
        <time>2017-05-24T15:43:59Z</time>
      </trkpt>
      <trkpt lat="43.045300" lon="-4.395333">
        <ele>2003.0</ele>
        <time>2017-05-24T15:44:00Z</time>
      </trkpt>
      <trkpt lat="43.045300" lon="-4.395350">
        <ele>2003.0</ele>
        <time>2017-05-24T15:44:01Z</time>
      </trkpt>
      <trkpt lat="43.045300" lon="-4.395350">
        <ele>2003.0</ele>
        <time>2017-05-24T15:44:02Z</time>
      </trkpt>
      <trkpt lat="43.045300" lon="-4.395367">
        <ele>2003.0</ele>
        <time>2017-05-24T15:44:03Z</time>
      </trkpt>
      <trkpt lat="43.045317" lon="-4.395367">
        <ele>2003.0</ele>
        <time>2017-05-24T15:44:04Z</time>
      </trkpt>
      <trkpt lat="43.045317" lon="-4.395350">
        <ele>2003.0</ele>
        <time>2017-05-24T15:44:05Z</time>
      </trkpt>
      <trkpt lat="43.045300" lon="-4.395350">
        <ele>2003.0</ele>
        <time>2017-05-24T15:44:06Z</time>
      </trkpt>
      <trkpt lat="43.045300" lon="-4.395350">
        <ele>2003.0</ele>
        <time>2017-05-24T15:44:07Z</time>
      </trkpt>
      <trkpt lat="43.045300" lon="-4.395350">
        <ele>2003.0</ele>
        <time>2017-05-24T15:44:08Z</time>
      </trkpt>
      <trkpt lat="43.045300" lon="-4.395350">
        <ele>2003.0</ele>
        <time>2017-05-24T15:44:09Z</time>
      </trkpt>
      <trkpt lat="43.045300" lon="-4.395350">
        <ele>2003.0</ele>
        <time>2017-05-24T15:44:10Z</time>
      </trkpt>
      <trkpt lat="43.045300" lon="-4.395350">
        <ele>2003.0</ele>
        <time>2017-05-24T15:44:11Z</time>
      </trkpt>
      <trkpt lat="43.045283" lon="-4.395350">
        <ele>2003.0</ele>
        <time>2017-05-24T15:44:12Z</time>
      </trkpt>
      <trkpt lat="43.045283" lon="-4.395350">
        <ele>2003.0</ele>
        <time>2017-05-24T15:44:13Z</time>
      </trkpt>
      <trkpt lat="43.045300" lon="-4.395350">
        <ele>2003.0</ele>
        <time>2017-05-24T15:44:14Z</time>
      </trkpt>
      <trkpt lat="43.045300" lon="-4.395333">
        <ele>2003.0</ele>
        <time>2017-05-24T15:44:15Z</time>
      </trkpt>
      <trkpt lat="43.045300" lon="-4.395333">
        <ele>2003.0</ele>
        <time>2017-05-24T15:44:16Z</time>
      </trkpt>
    </trkseg>
  </trk>
</gpx>
